<?xml version="1.0" encoding="UTF-8" standalone="no" ?>
<gpx xmlns="http://www.topografix.com/GPX/1/1" xmlns:xsi="http://www.w3.org/2001/XMLSchema-instance" xsi:schemaLocation="http://www.topografix.com/GPX/1/1 http://www.topografix.com/GPX/1/1/gpx.xsd" version="1.1" creator="VisuGPX - https://www.visugpx.com">
  <metadata>
    <name>Sortie domaine Serre Che</name>
    <desc><![CDATA[Sortie VTT de remise en forme sur le domaine de Serre Chevalier]]></desc>
  </metadata>
  <trk>
    <name><![CDATA[Sortie domaine Serre Che_1]]></name>
    <trkseg>
      <trkpt lat="44.91653" lon="6.62259">
        <ele>1334.5</ele>
        <time>2022-07-14T07:02:36+0200</time>
      </trkpt>
      <trkpt lat="44.91661" lon="6.62252">
        <ele>1334.4</ele>
        <time>2022-07-14T07:02:37+0200</time>
      </trkpt>
      <trkpt lat="44.91667" lon="6.62247">
        <ele>1334.4</ele>
        <time>2022-07-14T07:02:38+0200</time>
      </trkpt>
      <trkpt lat="44.91674" lon="6.6224">
        <ele>1333.9</ele>
        <time>2022-07-14T07:02:39+0200</time>
      </trkpt>
      <trkpt lat="44.91681" lon="6.62235">
        <ele>1333.7</ele>
        <time>2022-07-14T07:02:40+0200</time>
      </trkpt>
      <trkpt lat="44.91687" lon="6.62231">
        <ele>1333.7</ele>
        <time>2022-07-14T07:02:41+0200</time>
      </trkpt>
      <trkpt lat="44.91692" lon="6.62226">
        <ele>1333.4</ele>
        <time>2022-07-14T07:02:42+0200</time>
      </trkpt>
      <trkpt lat="44.91698" lon="6.6222">
        <ele>1333.3</ele>
        <time>2022-07-14T07:02:42+0200</time>
      </trkpt>
      <trkpt lat="44.91705" lon="6.62218">
        <ele>1334</ele>
        <time>2022-07-14T07:02:44+0200</time>
      </trkpt>
      <trkpt lat="44.91712" lon="6.62213">
        <ele>1334.4</ele>
        <time>2022-07-14T07:02:45+0200</time>
      </trkpt>
      <trkpt lat="44.91717" lon="6.62207">
        <ele>1334.3</ele>
        <time>2022-07-14T07:02:45+0200</time>
      </trkpt>
      <trkpt lat="44.91725" lon="6.62205">
        <ele>1335.3</ele>
        <time>2022-07-14T07:02:46+0200</time>
      </trkpt>
      <trkpt lat="44.9173" lon="6.62199">
        <ele>1335.1</ele>
        <time>2022-07-14T07:02:47+0200</time>
      </trkpt>
      <trkpt lat="44.91736" lon="6.62196">
        <ele>1335.8</ele>
        <time>2022-07-14T07:02:48+0200</time>
      </trkpt>
      <trkpt lat="44.91741" lon="6.62191">
        <ele>1335.8</ele>
        <time>2022-07-14T07:02:50+0200</time>
      </trkpt>
      <trkpt lat="44.91748" lon="6.62187">
        <ele>1336.1</ele>
        <time>2022-07-14T07:02:51+0200</time>
      </trkpt>
      <trkpt lat="44.91754" lon="6.62182">
        <ele>1336.5</ele>
        <time>2022-07-14T07:02:52+0200</time>
      </trkpt>
      <trkpt lat="44.91759" lon="6.62175">
        <ele>1336.1</ele>
        <time>2022-07-14T07:02:53+0200</time>
      </trkpt>
      <trkpt lat="44.91762" lon="6.62169">
        <ele>1335.7</ele>
        <time>2022-07-14T07:02:54+0200</time>
      </trkpt>
      <trkpt lat="44.91766" lon="6.62164">
        <ele>1335.5</ele>
        <time>2022-07-14T07:02:55+0200</time>
      </trkpt>
      <trkpt lat="44.91771" lon="6.62158">
        <ele>1335.4</ele>
        <time>2022-07-14T07:02:56+0200</time>
      </trkpt>
      <trkpt lat="44.91773" lon="6.62148">
        <ele>1334.4</ele>
        <time>2022-07-14T07:02:57+0200</time>
      </trkpt>
      <trkpt lat="44.91777" lon="6.6214">
        <ele>1334.1</ele>
        <time>2022-07-14T07:02:58+0200</time>
      </trkpt>
      <trkpt lat="44.91781" lon="6.62135">
        <ele>1333.8</ele>
        <time>2022-07-14T07:02:59+0200</time>
      </trkpt>
      <trkpt lat="44.91785" lon="6.62128">
        <ele>1333.5</ele>
        <time>2022-07-14T07:03:00+0200</time>
      </trkpt>
      <trkpt lat="44.9179" lon="6.62122">
        <ele>1333.6</ele>
        <time>2022-07-14T07:03:01+0200</time>
      </trkpt>
      <trkpt lat="44.91791" lon="6.62114">
        <ele>1332.7</ele>
        <time>2022-07-14T07:03:02+0200</time>
      </trkpt>
      <trkpt lat="44.91794" lon="6.62107">
        <ele>1332.5</ele>
        <time>2022-07-14T07:03:03+0200</time>
      </trkpt>
      <trkpt lat="44.91797" lon="6.62101">
        <ele>1332.6</ele>
        <time>2022-07-14T07:03:04+0200</time>
      </trkpt>
      <trkpt lat="44.918" lon="6.62095">
        <ele>1332.7</ele>
        <time>2022-07-14T07:03:05+0200</time>
      </trkpt>
      <trkpt lat="44.91803" lon="6.62089">
        <ele>1332.9</ele>
        <time>2022-07-14T07:03:06+0200</time>
      </trkpt>
      <trkpt lat="44.91808" lon="6.62084">
        <ele>1333.4</ele>
        <time>2022-07-14T07:03:07+0200</time>
      </trkpt>
      <trkpt lat="44.91812" lon="6.62079">
        <ele>1333.3</ele>
        <time>2022-07-14T07:03:08+0200</time>
      </trkpt>
      <trkpt lat="44.91817" lon="6.62072">
        <ele>1333.3</ele>
        <time>2022-07-14T07:03:09+0200</time>
      </trkpt>
      <trkpt lat="44.91821" lon="6.62066">
        <ele>1333.5</ele>
        <time>2022-07-14T07:03:10+0200</time>
      </trkpt>
      <trkpt lat="44.91825" lon="6.6206">
        <ele>1333.8</ele>
        <time>2022-07-14T07:03:11+0200</time>
      </trkpt>
      <trkpt lat="44.91829" lon="6.62055">
        <ele>1334.3</ele>
        <time>2022-07-14T07:03:12+0200</time>
      </trkpt>
      <trkpt lat="44.91833" lon="6.62048">
        <ele>1334.6</ele>
        <time>2022-07-14T07:03:13+0200</time>
      </trkpt>
      <trkpt lat="44.91836" lon="6.62041">
        <ele>1334.6</ele>
        <time>2022-07-14T07:03:14+0200</time>
      </trkpt>
      <trkpt lat="44.9184" lon="6.62034">
        <ele>1334.6</ele>
        <time>2022-07-14T07:03:15+0200</time>
      </trkpt>
      <trkpt lat="44.91844" lon="6.62029">
        <ele>1334.8</ele>
        <time>2022-07-14T07:03:16+0200</time>
      </trkpt>
      <trkpt lat="44.91848" lon="6.62023">
        <ele>1334.7</ele>
        <time>2022-07-14T07:03:17+0200</time>
      </trkpt>
      <trkpt lat="44.91852" lon="6.62017">
        <ele>1334.7</ele>
        <time>2022-07-14T07:03:18+0200</time>
      </trkpt>
      <trkpt lat="44.91856" lon="6.62011">
        <ele>1334.8</ele>
        <time>2022-07-14T07:03:19+0200</time>
      </trkpt>
      <trkpt lat="44.9186" lon="6.62005">
        <ele>1335</ele>
        <time>2022-07-14T07:03:20+0200</time>
      </trkpt>
      <trkpt lat="44.91864" lon="6.61999">
        <ele>1335.1</ele>
        <time>2022-07-14T07:03:21+0200</time>
      </trkpt>
      <trkpt lat="44.91867" lon="6.61991">
        <ele>1335.2</ele>
        <time>2022-07-14T07:03:22+0200</time>
      </trkpt>
      <trkpt lat="44.91871" lon="6.61985">
        <ele>1335.3</ele>
        <time>2022-07-14T07:03:23+0200</time>
      </trkpt>
      <trkpt lat="44.91874" lon="6.61979">
        <ele>1335.6</ele>
        <time>2022-07-14T07:03:24+0200</time>
      </trkpt>
      <trkpt lat="44.91878" lon="6.61972">
        <ele>1335.8</ele>
        <time>2022-07-14T07:03:25+0200</time>
      </trkpt>
      <trkpt lat="44.91882" lon="6.61966">
        <ele>1335.9</ele>
        <time>2022-07-14T07:03:26+0200</time>
      </trkpt>
      <trkpt lat="44.91886" lon="6.6196">
        <ele>1336.1</ele>
        <time>2022-07-14T07:03:27+0200</time>
      </trkpt>
      <trkpt lat="44.9189" lon="6.61953">
        <ele>1336.4</ele>
        <time>2022-07-14T07:03:28+0200</time>
      </trkpt>
      <trkpt lat="44.91894" lon="6.61947">
        <ele>1336.4</ele>
        <time>2022-07-14T07:03:29+0200</time>
      </trkpt>
      <trkpt lat="44.91898" lon="6.6194">
        <ele>1336.3</ele>
        <time>2022-07-14T07:03:30+0200</time>
      </trkpt>
      <trkpt lat="44.91903" lon="6.61934">
        <ele>1336.2</ele>
        <time>2022-07-14T07:03:31+0200</time>
      </trkpt>
      <trkpt lat="44.91908" lon="6.61926">
        <ele>1336.3</ele>
        <time>2022-07-14T07:03:32+0200</time>
      </trkpt>
      <trkpt lat="44.91912" lon="6.61919">
        <ele>1336.4</ele>
        <time>2022-07-14T07:03:33+0200</time>
      </trkpt>
      <trkpt lat="44.91917" lon="6.6191">
        <ele>1336.4</ele>
        <time>2022-07-14T07:03:34+0200</time>
      </trkpt>
      <trkpt lat="44.91923" lon="6.61904">
        <ele>1336.3</ele>
        <time>2022-07-14T07:03:35+0200</time>
      </trkpt>
      <trkpt lat="44.91928" lon="6.61898">
        <ele>1336.5</ele>
        <time>2022-07-14T07:03:36+0200</time>
      </trkpt>
      <trkpt lat="44.91934" lon="6.61889">
        <ele>1336.5</ele>
        <time>2022-07-14T07:03:37+0200</time>
      </trkpt>
      <trkpt lat="44.9194" lon="6.61882">
        <ele>1336.4</ele>
        <time>2022-07-14T07:03:38+0200</time>
      </trkpt>
      <trkpt lat="44.91947" lon="6.61875">
        <ele>1336.4</ele>
        <time>2022-07-14T07:03:39+0200</time>
      </trkpt>
      <trkpt lat="44.91953" lon="6.61866">
        <ele>1336.3</ele>
        <time>2022-07-14T07:03:40+0200</time>
      </trkpt>
      <trkpt lat="44.91959" lon="6.61858">
        <ele>1336.1</ele>
        <time>2022-07-14T07:03:41+0200</time>
      </trkpt>
      <trkpt lat="44.91966" lon="6.6185">
        <ele>1336</ele>
        <time>2022-07-14T07:03:42+0200</time>
      </trkpt>
      <trkpt lat="44.91972" lon="6.61842">
        <ele>1335.5</ele>
        <time>2022-07-14T07:03:43+0200</time>
      </trkpt>
      <trkpt lat="44.91978" lon="6.61834">
        <ele>1335.5</ele>
        <time>2022-07-14T07:03:44+0200</time>
      </trkpt>
      <trkpt lat="44.91984" lon="6.61827">
        <ele>1334.9</ele>
        <time>2022-07-14T07:03:45+0200</time>
      </trkpt>
      <trkpt lat="44.91991" lon="6.61818">
        <ele>1334.3</ele>
        <time>2022-07-14T07:03:46+0200</time>
      </trkpt>
      <trkpt lat="44.91997" lon="6.6181">
        <ele>1333.5</ele>
        <time>2022-07-14T07:03:47+0200</time>
      </trkpt>
      <trkpt lat="44.92004" lon="6.61801">
        <ele>1333.1</ele>
        <time>2022-07-14T07:03:48+0200</time>
      </trkpt>
      <trkpt lat="44.92011" lon="6.61792">
        <ele>1333</ele>
        <time>2022-07-14T07:03:49+0200</time>
      </trkpt>
      <trkpt lat="44.92017" lon="6.61784">
        <ele>1332.8</ele>
        <time>2022-07-14T07:03:50+0200</time>
      </trkpt>
      <trkpt lat="44.92023" lon="6.61775">
        <ele>1332.3</ele>
        <time>2022-07-14T07:03:51+0200</time>
      </trkpt>
      <trkpt lat="44.9203" lon="6.61766">
        <ele>1332.2</ele>
        <time>2022-07-14T07:03:52+0200</time>
      </trkpt>
      <trkpt lat="44.92036" lon="6.61757">
        <ele>1332.4</ele>
        <time>2022-07-14T07:03:53+0200</time>
      </trkpt>
      <trkpt lat="44.92042" lon="6.61748">
        <ele>1332.4</ele>
        <time>2022-07-14T07:03:54+0200</time>
      </trkpt>
      <trkpt lat="44.92048" lon="6.6174">
        <ele>1332.2</ele>
        <time>2022-07-14T07:03:55+0200</time>
      </trkpt>
      <trkpt lat="44.92055" lon="6.61732">
        <ele>1332.2</ele>
        <time>2022-07-14T07:03:56+0200</time>
      </trkpt>
      <trkpt lat="44.92061" lon="6.61725">
        <ele>1332.2</ele>
        <time>2022-07-14T07:03:57+0200</time>
      </trkpt>
      <trkpt lat="44.92067" lon="6.61717">
        <ele>1331.9</ele>
        <time>2022-07-14T07:03:58+0200</time>
      </trkpt>
      <trkpt lat="44.92073" lon="6.61711">
        <ele>1332.3</ele>
        <time>2022-07-14T07:03:59+0200</time>
      </trkpt>
      <trkpt lat="44.92079" lon="6.61705">
        <ele>1332.4</ele>
        <time>2022-07-14T07:04:00+0200</time>
      </trkpt>
      <trkpt lat="44.92086" lon="6.61699">
        <ele>1333.2</ele>
        <time>2022-07-14T07:04:01+0200</time>
      </trkpt>
      <trkpt lat="44.92093" lon="6.61692">
        <ele>1333.1</ele>
        <time>2022-07-14T07:04:02+0200</time>
      </trkpt>
      <trkpt lat="44.921" lon="6.61684">
        <ele>1333.1</ele>
        <time>2022-07-14T07:04:03+0200</time>
      </trkpt>
      <trkpt lat="44.92106" lon="6.61676">
        <ele>1333</ele>
        <time>2022-07-14T07:04:04+0200</time>
      </trkpt>
      <trkpt lat="44.92112" lon="6.61666">
        <ele>1332.2</ele>
        <time>2022-07-14T07:04:05+0200</time>
      </trkpt>
      <trkpt lat="44.92118" lon="6.61657">
        <ele>1332</ele>
        <time>2022-07-14T07:04:06+0200</time>
      </trkpt>
      <trkpt lat="44.92124" lon="6.61649">
        <ele>1331.9</ele>
        <time>2022-07-14T07:04:07+0200</time>
      </trkpt>
      <trkpt lat="44.92129" lon="6.61639">
        <ele>1331.1</ele>
        <time>2022-07-14T07:04:08+0200</time>
      </trkpt>
      <trkpt lat="44.92134" lon="6.6163">
        <ele>1330.8</ele>
        <time>2022-07-14T07:04:09+0200</time>
      </trkpt>
      <trkpt lat="44.92138" lon="6.61624">
        <ele>1330.5</ele>
        <time>2022-07-14T07:04:10+0200</time>
      </trkpt>
      <trkpt lat="44.92142" lon="6.61615">
        <ele>1329.7</ele>
        <time>2022-07-14T07:04:11+0200</time>
      </trkpt>
      <trkpt lat="44.92148" lon="6.61606">
        <ele>1329.2</ele>
        <time>2022-07-14T07:04:12+0200</time>
      </trkpt>
      <trkpt lat="44.92154" lon="6.61599">
        <ele>1329.3</ele>
        <time>2022-07-14T07:04:13+0200</time>
      </trkpt>
      <trkpt lat="44.92159" lon="6.61591">
        <ele>1328.9</ele>
        <time>2022-07-14T07:04:14+0200</time>
      </trkpt>
      <trkpt lat="44.92162" lon="6.61582">
        <ele>1327.9</ele>
        <time>2022-07-14T07:04:15+0200</time>
      </trkpt>
      <trkpt lat="44.92168" lon="6.61573">
        <ele>1327.6</ele>
        <time>2022-07-14T07:04:16+0200</time>
      </trkpt>
      <trkpt lat="44.92174" lon="6.61564">
        <ele>1327.9</ele>
        <time>2022-07-14T07:04:17+0200</time>
      </trkpt>
      <trkpt lat="44.92179" lon="6.61558">
        <ele>1328.1</ele>
        <time>2022-07-14T07:04:18+0200</time>
      </trkpt>
      <trkpt lat="44.92185" lon="6.6155">
        <ele>1328.3</ele>
        <time>2022-07-14T07:04:19+0200</time>
      </trkpt>
      <trkpt lat="44.9219" lon="6.61542">
        <ele>1328.6</ele>
        <time>2022-07-14T07:04:20+0200</time>
      </trkpt>
      <trkpt lat="44.92196" lon="6.61533">
        <ele>1328.7</ele>
        <time>2022-07-14T07:04:21+0200</time>
      </trkpt>
      <trkpt lat="44.92201" lon="6.61525">
        <ele>1329.1</ele>
        <time>2022-07-14T07:04:22+0200</time>
      </trkpt>
      <trkpt lat="44.92206" lon="6.61516">
        <ele>1329.5</ele>
        <time>2022-07-14T07:04:23+0200</time>
      </trkpt>
      <trkpt lat="44.9221" lon="6.61507">
        <ele>1329.7</ele>
        <time>2022-07-14T07:04:24+0200</time>
      </trkpt>
      <trkpt lat="44.92215" lon="6.61498">
        <ele>1330</ele>
        <time>2022-07-14T07:04:25+0200</time>
      </trkpt>
      <trkpt lat="44.92219" lon="6.61489">
        <ele>1330.5</ele>
        <time>2022-07-14T07:04:26+0200</time>
      </trkpt>
      <trkpt lat="44.92222" lon="6.61479">
        <ele>1331</ele>
        <time>2022-07-14T07:04:27+0200</time>
      </trkpt>
      <trkpt lat="44.92227" lon="6.61469">
        <ele>1331.5</ele>
        <time>2022-07-14T07:04:28+0200</time>
      </trkpt>
      <trkpt lat="44.9223" lon="6.61459">
        <ele>1331.7</ele>
        <time>2022-07-14T07:04:29+0200</time>
      </trkpt>
      <trkpt lat="44.92233" lon="6.6145">
        <ele>1331.8</ele>
        <time>2022-07-14T07:04:30+0200</time>
      </trkpt>
      <trkpt lat="44.92236" lon="6.61441">
        <ele>1331.8</ele>
        <time>2022-07-14T07:04:31+0200</time>
      </trkpt>
      <trkpt lat="44.92237" lon="6.61431">
        <ele>1331.7</ele>
        <time>2022-07-14T07:04:32+0200</time>
      </trkpt>
      <trkpt lat="44.92239" lon="6.61421">
        <ele>1331.5</ele>
        <time>2022-07-14T07:04:33+0200</time>
      </trkpt>
      <trkpt lat="44.9224" lon="6.6141">
        <ele>1331.4</ele>
        <time>2022-07-14T07:04:34+0200</time>
      </trkpt>
      <trkpt lat="44.92241" lon="6.61399">
        <ele>1331.5</ele>
        <time>2022-07-14T07:04:35+0200</time>
      </trkpt>
      <trkpt lat="44.92242" lon="6.61388">
        <ele>1331.6</ele>
        <time>2022-07-14T07:04:36+0200</time>
      </trkpt>
      <trkpt lat="44.92245" lon="6.61378">
        <ele>1332</ele>
        <time>2022-07-14T07:04:37+0200</time>
      </trkpt>
      <trkpt lat="44.92248" lon="6.61369">
        <ele>1332.6</ele>
        <time>2022-07-14T07:04:38+0200</time>
      </trkpt>
      <trkpt lat="44.92251" lon="6.61359">
        <ele>1333.1</ele>
        <time>2022-07-14T07:04:39+0200</time>
      </trkpt>
      <trkpt lat="44.92252" lon="6.6135">
        <ele>1333.2</ele>
        <time>2022-07-14T07:04:40+0200</time>
      </trkpt>
      <trkpt lat="44.92253" lon="6.6134">
        <ele>1333.3</ele>
        <time>2022-07-14T07:04:41+0200</time>
      </trkpt>
      <trkpt lat="44.92253" lon="6.61331">
        <ele>1333.5</ele>
        <time>2022-07-14T07:04:42+0200</time>
      </trkpt>
      <trkpt lat="44.92255" lon="6.61321">
        <ele>1334</ele>
        <time>2022-07-14T07:04:43+0200</time>
      </trkpt>
      <trkpt lat="44.92255" lon="6.61311">
        <ele>1334.3</ele>
        <time>2022-07-14T07:04:44+0200</time>
      </trkpt>
      <trkpt lat="44.92255" lon="6.61301">
        <ele>1334.6</ele>
        <time>2022-07-14T07:04:45+0200</time>
      </trkpt>
      <trkpt lat="44.92256" lon="6.61291">
        <ele>1334.6</ele>
        <time>2022-07-14T07:04:46+0200</time>
      </trkpt>
      <trkpt lat="44.92255" lon="6.61282">
        <ele>1334.5</ele>
        <time>2022-07-14T07:04:47+0200</time>
      </trkpt>
      <trkpt lat="44.92254" lon="6.61273">
        <ele>1334.4</ele>
        <time>2022-07-14T07:04:48+0200</time>
      </trkpt>
      <trkpt lat="44.92253" lon="6.61266">
        <ele>1334.3</ele>
        <time>2022-07-14T07:04:49+0200</time>
      </trkpt>
      <trkpt lat="44.92248" lon="6.61262">
        <ele>1333.8</ele>
        <time>2022-07-14T07:04:50+0200</time>
      </trkpt>
      <trkpt lat="44.92241" lon="6.61261">
        <ele>1333.3</ele>
        <time>2022-07-14T07:04:51+0200</time>
      </trkpt>
      <trkpt lat="44.92235" lon="6.61262">
        <ele>1332.7</ele>
        <time>2022-07-14T07:04:52+0200</time>
      </trkpt>
      <trkpt lat="44.9223" lon="6.61264">
        <ele>1332.2</ele>
        <time>2022-07-14T07:04:53+0200</time>
      </trkpt>
      <trkpt lat="44.92222" lon="6.61269">
        <ele>1331.3</ele>
        <time>2022-07-14T07:04:54+0200</time>
      </trkpt>
      <trkpt lat="44.92219" lon="6.61278">
        <ele>1330.3</ele>
        <time>2022-07-14T07:04:55+0200</time>
      </trkpt>
      <trkpt lat="44.92217" lon="6.61288">
        <ele>1329.7</ele>
        <time>2022-07-14T07:04:56+0200</time>
      </trkpt>
      <trkpt lat="44.92215" lon="6.61298">
        <ele>1329.1</ele>
        <time>2022-07-14T07:04:57+0200</time>
      </trkpt>
      <trkpt lat="44.9221" lon="6.61303">
        <ele>1328.3</ele>
        <time>2022-07-14T07:04:58+0200</time>
      </trkpt>
      <trkpt lat="44.92205" lon="6.61296">
        <ele>1327.6</ele>
        <time>2022-07-14T07:05:00+0200</time>
      </trkpt>
      <trkpt lat="44.92205" lon="6.61288">
        <ele>1327.8</ele>
        <time>2022-07-14T07:05:01+0200</time>
      </trkpt>
      <trkpt lat="44.92206" lon="6.61281">
        <ele>1328.1</ele>
        <time>2022-07-14T07:05:02+0200</time>
      </trkpt>
      <trkpt lat="44.92207" lon="6.61273">
        <ele>1328.2</ele>
        <time>2022-07-14T07:05:03+0200</time>
      </trkpt>
      <trkpt lat="44.92207" lon="6.61266">
        <ele>1328.2</ele>
        <time>2022-07-14T07:05:04+0200</time>
      </trkpt>
      <trkpt lat="44.92206" lon="6.61258">
        <ele>1328</ele>
        <time>2022-07-14T07:05:05+0200</time>
      </trkpt>
      <trkpt lat="44.92207" lon="6.6125">
        <ele>1328.1</ele>
        <time>2022-07-14T07:05:06+0200</time>
      </trkpt>
      <trkpt lat="44.92207" lon="6.61242">
        <ele>1327.9</ele>
        <time>2022-07-14T07:05:07+0200</time>
      </trkpt>
      <trkpt lat="44.92208" lon="6.61232">
        <ele>1327.8</ele>
        <time>2022-07-14T07:05:08+0200</time>
      </trkpt>
      <trkpt lat="44.92209" lon="6.61223">
        <ele>1327.6</ele>
        <time>2022-07-14T07:05:09+0200</time>
      </trkpt>
      <trkpt lat="44.92209" lon="6.61213">
        <ele>1327.3</ele>
        <time>2022-07-14T07:05:10+0200</time>
      </trkpt>
      <trkpt lat="44.92211" lon="6.61203">
        <ele>1327.1</ele>
        <time>2022-07-14T07:05:11+0200</time>
      </trkpt>
      <trkpt lat="44.92215" lon="6.61194">
        <ele>1327.3</ele>
        <time>2022-07-14T07:05:12+0200</time>
      </trkpt>
      <trkpt lat="44.92218" lon="6.61188">
        <ele>1327.7</ele>
        <time>2022-07-14T07:05:13+0200</time>
      </trkpt>
      <trkpt lat="44.92223" lon="6.61184">
        <ele>1328.3</ele>
        <time>2022-07-14T07:05:14+0200</time>
      </trkpt>
      <trkpt lat="44.92227" lon="6.61179">
        <ele>1328.6</ele>
        <time>2022-07-14T07:05:15+0200</time>
      </trkpt>
      <trkpt lat="44.92231" lon="6.61174">
        <ele>1329.1</ele>
        <time>2022-07-14T07:05:16+0200</time>
      </trkpt>
      <trkpt lat="44.92235" lon="6.6117">
        <ele>1329.5</ele>
        <time>2022-07-14T07:05:17+0200</time>
      </trkpt>
      <trkpt lat="44.92238" lon="6.61165">
        <ele>1329.8</ele>
        <time>2022-07-14T07:05:18+0200</time>
      </trkpt>
      <trkpt lat="44.92241" lon="6.61159">
        <ele>1330.1</ele>
        <time>2022-07-14T07:05:19+0200</time>
      </trkpt>
      <trkpt lat="44.92243" lon="6.61153">
        <ele>1330.4</ele>
        <time>2022-07-14T07:05:20+0200</time>
      </trkpt>
      <trkpt lat="44.92246" lon="6.61148">
        <ele>1330.7</ele>
        <time>2022-07-14T07:05:21+0200</time>
      </trkpt>
      <trkpt lat="44.9225" lon="6.61138">
        <ele>1330.9</ele>
        <time>2022-07-14T07:05:23+0200</time>
      </trkpt>
      <trkpt lat="44.92253" lon="6.61128">
        <ele>1330.9</ele>
        <time>2022-07-14T07:05:25+0200</time>
      </trkpt>
      <trkpt lat="44.92258" lon="6.61118">
        <ele>1331.1</ele>
        <time>2022-07-14T07:05:27+0200</time>
      </trkpt>
      <trkpt lat="44.9226" lon="6.61112">
        <ele>1331.1</ele>
        <time>2022-07-14T07:05:28+0200</time>
      </trkpt>
      <trkpt lat="44.92262" lon="6.61105">
        <ele>1331.1</ele>
        <time>2022-07-14T07:05:29+0200</time>
      </trkpt>
      <trkpt lat="44.92263" lon="6.61099">
        <ele>1331.2</ele>
        <time>2022-07-14T07:05:30+0200</time>
      </trkpt>
      <trkpt lat="44.92266" lon="6.61092">
        <ele>1331.4</ele>
        <time>2022-07-14T07:05:31+0200</time>
      </trkpt>
      <trkpt lat="44.92268" lon="6.61085">
        <ele>1331.6</ele>
        <time>2022-07-14T07:05:32+0200</time>
      </trkpt>
      <trkpt lat="44.9227" lon="6.61079">
        <ele>1331.5</ele>
        <time>2022-07-14T07:05:33+0200</time>
      </trkpt>
      <trkpt lat="44.92272" lon="6.61072">
        <ele>1331.3</ele>
        <time>2022-07-14T07:05:34+0200</time>
      </trkpt>
      <trkpt lat="44.92273" lon="6.61064">
        <ele>1331</ele>
        <time>2022-07-14T07:05:35+0200</time>
      </trkpt>
      <trkpt lat="44.92275" lon="6.61057">
        <ele>1330.6</ele>
        <time>2022-07-14T07:05:36+0200</time>
      </trkpt>
      <trkpt lat="44.92276" lon="6.61049">
        <ele>1330.5</ele>
        <time>2022-07-14T07:05:37+0200</time>
      </trkpt>
      <trkpt lat="44.92278" lon="6.6104">
        <ele>1330.5</ele>
        <time>2022-07-14T07:05:38+0200</time>
      </trkpt>
      <trkpt lat="44.92281" lon="6.61031">
        <ele>1330.6</ele>
        <time>2022-07-14T07:05:39+0200</time>
      </trkpt>
      <trkpt lat="44.92285" lon="6.61024">
        <ele>1330.8</ele>
        <time>2022-07-14T07:05:40+0200</time>
      </trkpt>
      <trkpt lat="44.92287" lon="6.61016">
        <ele>1330.9</ele>
        <time>2022-07-14T07:05:41+0200</time>
      </trkpt>
      <trkpt lat="44.92289" lon="6.61008">
        <ele>1330.9</ele>
        <time>2022-07-14T07:05:42+0200</time>
      </trkpt>
      <trkpt lat="44.92293" lon="6.61001">
        <ele>1331.2</ele>
        <time>2022-07-14T07:05:43+0200</time>
      </trkpt>
      <trkpt lat="44.92296" lon="6.60994">
        <ele>1331.3</ele>
        <time>2022-07-14T07:05:44+0200</time>
      </trkpt>
      <trkpt lat="44.92301" lon="6.60986">
        <ele>1331.8</ele>
        <time>2022-07-14T07:05:46+0200</time>
      </trkpt>
      <trkpt lat="44.92304" lon="6.60981">
        <ele>1332.1</ele>
        <time>2022-07-14T07:05:47+0200</time>
      </trkpt>
      <trkpt lat="44.92307" lon="6.60973">
        <ele>1332.2</ele>
        <time>2022-07-14T07:05:48+0200</time>
      </trkpt>
      <trkpt lat="44.92312" lon="6.60961">
        <ele>1331.9</ele>
        <time>2022-07-14T07:05:50+0200</time>
      </trkpt>
      <trkpt lat="44.92314" lon="6.60954">
        <ele>1331.9</ele>
        <time>2022-07-14T07:05:51+0200</time>
      </trkpt>
      <trkpt lat="44.92317" lon="6.60947">
        <ele>1331.8</ele>
        <time>2022-07-14T07:05:52+0200</time>
      </trkpt>
      <trkpt lat="44.92319" lon="6.60941">
        <ele>1331.9</ele>
        <time>2022-07-14T07:05:53+0200</time>
      </trkpt>
      <trkpt lat="44.92322" lon="6.60935">
        <ele>1332</ele>
        <time>2022-07-14T07:05:54+0200</time>
      </trkpt>
      <trkpt lat="44.92325" lon="6.60929">
        <ele>1332.3</ele>
        <time>2022-07-14T07:05:55+0200</time>
      </trkpt>
      <trkpt lat="44.92329" lon="6.60923">
        <ele>1332.6</ele>
        <time>2022-07-14T07:05:56+0200</time>
      </trkpt>
      <trkpt lat="44.92333" lon="6.60911">
        <ele>1332.7</ele>
        <time>2022-07-14T07:05:58+0200</time>
      </trkpt>
      <trkpt lat="44.92335" lon="6.60904">
        <ele>1332.8</ele>
        <time>2022-07-14T07:05:59+0200</time>
      </trkpt>
      <trkpt lat="44.92337" lon="6.60898">
        <ele>1332.8</ele>
        <time>2022-07-14T07:06:00+0200</time>
      </trkpt>
      <trkpt lat="44.9234" lon="6.60892">
        <ele>1332.9</ele>
        <time>2022-07-14T07:06:01+0200</time>
      </trkpt>
      <trkpt lat="44.92343" lon="6.60886">
        <ele>1332.9</ele>
        <time>2022-07-14T07:06:02+0200</time>
      </trkpt>
      <trkpt lat="44.92346" lon="6.6088">
        <ele>1333</ele>
        <time>2022-07-14T07:06:03+0200</time>
      </trkpt>
      <trkpt lat="44.92349" lon="6.60874">
        <ele>1333.1</ele>
        <time>2022-07-14T07:06:04+0200</time>
      </trkpt>
      <trkpt lat="44.92351" lon="6.60867">
        <ele>1333.1</ele>
        <time>2022-07-14T07:06:05+0200</time>
      </trkpt>
      <trkpt lat="44.92353" lon="6.6086">
        <ele>1333.1</ele>
        <time>2022-07-14T07:06:06+0200</time>
      </trkpt>
      <trkpt lat="44.92356" lon="6.60853">
        <ele>1333</ele>
        <time>2022-07-14T07:06:07+0200</time>
      </trkpt>
      <trkpt lat="44.92359" lon="6.60847">
        <ele>1333.2</ele>
        <time>2022-07-14T07:06:08+0200</time>
      </trkpt>
      <trkpt lat="44.9236" lon="6.6084">
        <ele>1333.1</ele>
        <time>2022-07-14T07:06:09+0200</time>
      </trkpt>
      <trkpt lat="44.92363" lon="6.60834">
        <ele>1333.2</ele>
        <time>2022-07-14T07:06:10+0200</time>
      </trkpt>
      <trkpt lat="44.92365" lon="6.60828">
        <ele>1333.2</ele>
        <time>2022-07-14T07:06:11+0200</time>
      </trkpt>
      <trkpt lat="44.92368" lon="6.60822">
        <ele>1333.3</ele>
        <time>2022-07-14T07:06:12+0200</time>
      </trkpt>
      <trkpt lat="44.92371" lon="6.60816">
        <ele>1333.2</ele>
        <time>2022-07-14T07:06:13+0200</time>
      </trkpt>
      <trkpt lat="44.92374" lon="6.6081">
        <ele>1333.2</ele>
        <time>2022-07-14T07:06:14+0200</time>
      </trkpt>
      <trkpt lat="44.92377" lon="6.60802">
        <ele>1332.9</ele>
        <time>2022-07-14T07:06:15+0200</time>
      </trkpt>
      <trkpt lat="44.92379" lon="6.60795">
        <ele>1332.8</ele>
        <time>2022-07-14T07:06:16+0200</time>
      </trkpt>
      <trkpt lat="44.92383" lon="6.60788">
        <ele>1332.8</ele>
        <time>2022-07-14T07:06:17+0200</time>
      </trkpt>
      <trkpt lat="44.92386" lon="6.60781">
        <ele>1332.8</ele>
        <time>2022-07-14T07:06:18+0200</time>
      </trkpt>
      <trkpt lat="44.92389" lon="6.60775">
        <ele>1332.9</ele>
        <time>2022-07-14T07:06:19+0200</time>
      </trkpt>
      <trkpt lat="44.92392" lon="6.60769">
        <ele>1333</ele>
        <time>2022-07-14T07:06:20+0200</time>
      </trkpt>
      <trkpt lat="44.92394" lon="6.60762">
        <ele>1333</ele>
        <time>2022-07-14T07:06:21+0200</time>
      </trkpt>
      <trkpt lat="44.92397" lon="6.60756">
        <ele>1333.1</ele>
        <time>2022-07-14T07:06:22+0200</time>
      </trkpt>
      <trkpt lat="44.924" lon="6.60749">
        <ele>1333</ele>
        <time>2022-07-14T07:06:23+0200</time>
      </trkpt>
      <trkpt lat="44.92403" lon="6.60742">
        <ele>1332.9</ele>
        <time>2022-07-14T07:06:24+0200</time>
      </trkpt>
      <trkpt lat="44.92406" lon="6.60735">
        <ele>1332.7</ele>
        <time>2022-07-14T07:06:25+0200</time>
      </trkpt>
      <trkpt lat="44.92409" lon="6.60728">
        <ele>1332.5</ele>
        <time>2022-07-14T07:06:26+0200</time>
      </trkpt>
      <trkpt lat="44.92411" lon="6.60719">
        <ele>1332.2</ele>
        <time>2022-07-14T07:06:27+0200</time>
      </trkpt>
      <trkpt lat="44.92414" lon="6.60711">
        <ele>1331.9</ele>
        <time>2022-07-14T07:06:28+0200</time>
      </trkpt>
      <trkpt lat="44.92417" lon="6.60702">
        <ele>1331.5</ele>
        <time>2022-07-14T07:06:29+0200</time>
      </trkpt>
      <trkpt lat="44.9242" lon="6.60693">
        <ele>1331.1</ele>
        <time>2022-07-14T07:06:30+0200</time>
      </trkpt>
      <trkpt lat="44.92423" lon="6.60684">
        <ele>1330.5</ele>
        <time>2022-07-14T07:06:31+0200</time>
      </trkpt>
      <trkpt lat="44.92427" lon="6.60676">
        <ele>1330.2</ele>
        <time>2022-07-14T07:06:32+0200</time>
      </trkpt>
      <trkpt lat="44.92431" lon="6.60666">
        <ele>1330</ele>
        <time>2022-07-14T07:06:33+0200</time>
      </trkpt>
      <trkpt lat="44.92433" lon="6.60656">
        <ele>1329.5</ele>
        <time>2022-07-14T07:06:34+0200</time>
      </trkpt>
      <trkpt lat="44.92436" lon="6.60646">
        <ele>1329.1</ele>
        <time>2022-07-14T07:06:35+0200</time>
      </trkpt>
      <trkpt lat="44.9244" lon="6.60636">
        <ele>1328.9</ele>
        <time>2022-07-14T07:06:36+0200</time>
      </trkpt>
      <trkpt lat="44.92443" lon="6.60627">
        <ele>1328.4</ele>
        <time>2022-07-14T07:06:37+0200</time>
      </trkpt>
      <trkpt lat="44.92448" lon="6.6062">
        <ele>1328.3</ele>
        <time>2022-07-14T07:06:38+0200</time>
      </trkpt>
      <trkpt lat="44.92453" lon="6.60613">
        <ele>1328.4</ele>
        <time>2022-07-14T07:06:39+0200</time>
      </trkpt>
      <trkpt lat="44.92457" lon="6.60607">
        <ele>1328.6</ele>
        <time>2022-07-14T07:06:40+0200</time>
      </trkpt>
      <trkpt lat="44.92459" lon="6.60602">
        <ele>1328.9</ele>
        <time>2022-07-14T07:06:41+0200</time>
      </trkpt>
      <trkpt lat="44.92463" lon="6.60597">
        <ele>1329.3</ele>
        <time>2022-07-14T07:06:42+0200</time>
      </trkpt>
      <trkpt lat="44.92466" lon="6.60588">
        <ele>1329.8</ele>
        <time>2022-07-14T07:06:44+0200</time>
      </trkpt>
      <trkpt lat="44.92469" lon="6.60581">
        <ele>1330</ele>
        <time>2022-07-14T07:06:46+0200</time>
      </trkpt>
      <trkpt lat="44.92473" lon="6.60573">
        <ele>1329.5</ele>
        <time>2022-07-14T07:06:49+0200</time>
      </trkpt>
      <trkpt lat="44.92476" lon="6.60561">
        <ele>1328</ele>
        <time>2022-07-14T07:06:51+0200</time>
      </trkpt>
      <trkpt lat="44.92478" lon="6.60553">
        <ele>1327.5</ele>
        <time>2022-07-14T07:06:52+0200</time>
      </trkpt>
      <trkpt lat="44.9248" lon="6.60545">
        <ele>1327.5</ele>
        <time>2022-07-14T07:06:53+0200</time>
      </trkpt>
      <trkpt lat="44.92483" lon="6.60535">
        <ele>1327.9</ele>
        <time>2022-07-14T07:06:54+0200</time>
      </trkpt>
      <trkpt lat="44.92487" lon="6.60527">
        <ele>1328.8</ele>
        <time>2022-07-14T07:06:55+0200</time>
      </trkpt>
      <trkpt lat="44.92493" lon="6.6052">
        <ele>1329.3</ele>
        <time>2022-07-14T07:06:56+0200</time>
      </trkpt>
      <trkpt lat="44.92497" lon="6.60512">
        <ele>1329.2</ele>
        <time>2022-07-14T07:06:57+0200</time>
      </trkpt>
      <trkpt lat="44.925" lon="6.60504">
        <ele>1328.5</ele>
        <time>2022-07-14T07:06:58+0200</time>
      </trkpt>
      <trkpt lat="44.92502" lon="6.60497">
        <ele>1328.1</ele>
        <time>2022-07-14T07:06:59+0200</time>
      </trkpt>
      <trkpt lat="44.92506" lon="6.60491">
        <ele>1328.3</ele>
        <time>2022-07-14T07:07:01+0200</time>
      </trkpt>
      <trkpt lat="44.92508" lon="6.60485">
        <ele>1328.7</ele>
        <time>2022-07-14T07:07:03+0200</time>
      </trkpt>
      <trkpt lat="44.92509" lon="6.60475">
        <ele>1329</ele>
        <time>2022-07-14T07:07:05+0200</time>
      </trkpt>
      <trkpt lat="44.92511" lon="6.6047">
        <ele>1329.4</ele>
        <time>2022-07-14T07:07:06+0200</time>
      </trkpt>
      <trkpt lat="44.92516" lon="6.60457">
        <ele>1329.9</ele>
        <time>2022-07-14T07:07:08+0200</time>
      </trkpt>
      <trkpt lat="44.9252" lon="6.60451">
        <ele>1330.1</ele>
        <time>2022-07-14T07:07:09+0200</time>
      </trkpt>
      <trkpt lat="44.92522" lon="6.60445">
        <ele>1330.2</ele>
        <time>2022-07-14T07:07:10+0200</time>
      </trkpt>
      <trkpt lat="44.92525" lon="6.60439">
        <ele>1330.2</ele>
        <time>2022-07-14T07:07:11+0200</time>
      </trkpt>
      <trkpt lat="44.92527" lon="6.60433">
        <ele>1330.1</ele>
        <time>2022-07-14T07:07:12+0200</time>
      </trkpt>
      <trkpt lat="44.9253" lon="6.60425">
        <ele>1329.9</ele>
        <time>2022-07-14T07:07:13+0200</time>
      </trkpt>
      <trkpt lat="44.92532" lon="6.60419">
        <ele>1329.9</ele>
        <time>2022-07-14T07:07:14+0200</time>
      </trkpt>
      <trkpt lat="44.92535" lon="6.60412">
        <ele>1330.1</ele>
        <time>2022-07-14T07:07:15+0200</time>
      </trkpt>
      <trkpt lat="44.92537" lon="6.60406">
        <ele>1330.4</ele>
        <time>2022-07-14T07:07:16+0200</time>
      </trkpt>
      <trkpt lat="44.9254" lon="6.604">
        <ele>1330.8</ele>
        <time>2022-07-14T07:07:17+0200</time>
      </trkpt>
      <trkpt lat="44.92542" lon="6.60393">
        <ele>1331.1</ele>
        <time>2022-07-14T07:07:18+0200</time>
      </trkpt>
      <trkpt lat="44.92544" lon="6.60386">
        <ele>1331.2</ele>
        <time>2022-07-14T07:07:19+0200</time>
      </trkpt>
      <trkpt lat="44.92546" lon="6.6038">
        <ele>1330.9</ele>
        <time>2022-07-14T07:07:20+0200</time>
      </trkpt>
      <trkpt lat="44.92551" lon="6.6037">
        <ele>1330.6</ele>
        <time>2022-07-14T07:07:22+0200</time>
      </trkpt>
      <trkpt lat="44.92556" lon="6.60363">
        <ele>1330.3</ele>
        <time>2022-07-14T07:07:24+0200</time>
      </trkpt>
      <trkpt lat="44.92556" lon="6.60355">
        <ele>1330.1</ele>
        <time>2022-07-14T07:07:28+0200</time>
      </trkpt>
      <trkpt lat="44.92551" lon="6.60347">
        <ele>1329.4</ele>
        <time>2022-07-14T07:07:30+0200</time>
      </trkpt>
      <trkpt lat="44.92548" lon="6.60341">
        <ele>1329</ele>
        <time>2022-07-14T07:07:31+0200</time>
      </trkpt>
      <trkpt lat="44.92545" lon="6.60333">
        <ele>1328.4</ele>
        <time>2022-07-14T07:07:33+0200</time>
      </trkpt>
      <trkpt lat="44.92548" lon="6.60325">
        <ele>1328.7</ele>
        <time>2022-07-14T07:07:35+0200</time>
      </trkpt>
      <trkpt lat="44.92547" lon="6.60313">
        <ele>1328.3</ele>
        <time>2022-07-14T07:07:37+0200</time>
      </trkpt>
      <trkpt lat="44.92548" lon="6.60302">
        <ele>1328.1</ele>
        <time>2022-07-14T07:07:39+0200</time>
      </trkpt>
      <trkpt lat="44.92549" lon="6.60296">
        <ele>1328.2</ele>
        <time>2022-07-14T07:07:40+0200</time>
      </trkpt>
      <trkpt lat="44.92551" lon="6.60289">
        <ele>1328.4</ele>
        <time>2022-07-14T07:07:41+0200</time>
      </trkpt>
      <trkpt lat="44.92552" lon="6.6028">
        <ele>1328.6</ele>
        <time>2022-07-14T07:07:43+0200</time>
      </trkpt>
      <trkpt lat="44.92554" lon="6.60274">
        <ele>1328.7</ele>
        <time>2022-07-14T07:07:44+0200</time>
      </trkpt>
      <trkpt lat="44.92557" lon="6.60264">
        <ele>1328.7</ele>
        <time>2022-07-14T07:07:46+0200</time>
      </trkpt>
      <trkpt lat="44.92561" lon="6.60254">
        <ele>1328.9</ele>
        <time>2022-07-14T07:07:48+0200</time>
      </trkpt>
      <trkpt lat="44.92564" lon="6.60242">
        <ele>1329</ele>
        <time>2022-07-14T07:07:50+0200</time>
      </trkpt>
      <trkpt lat="44.92568" lon="6.60231">
        <ele>1329.1</ele>
        <time>2022-07-14T07:07:52+0200</time>
      </trkpt>
      <trkpt lat="44.92571" lon="6.60221">
        <ele>1329.2</ele>
        <time>2022-07-14T07:07:54+0200</time>
      </trkpt>
      <trkpt lat="44.92577" lon="6.60216">
        <ele>1329.9</ele>
        <time>2022-07-14T07:07:56+0200</time>
      </trkpt>
      <trkpt lat="44.92585" lon="6.60214">
        <ele>1330.9</ele>
        <time>2022-07-14T07:07:58+0200</time>
      </trkpt>
      <trkpt lat="44.9259" lon="6.60211">
        <ele>1331.6</ele>
        <time>2022-07-14T07:08:00+0200</time>
      </trkpt>
      <trkpt lat="44.92596" lon="6.60213">
        <ele>1332.5</ele>
        <time>2022-07-14T07:08:02+0200</time>
      </trkpt>
      <trkpt lat="44.926" lon="6.60216">
        <ele>1333.2</ele>
        <time>2022-07-14T07:08:04+0200</time>
      </trkpt>
      <trkpt lat="44.92602" lon="6.60222">
        <ele>1333.7</ele>
        <time>2022-07-14T07:08:06+0200</time>
      </trkpt>
      <trkpt lat="44.92606" lon="6.60227">
        <ele>1334.3</ele>
        <time>2022-07-14T07:08:08+0200</time>
      </trkpt>
      <trkpt lat="44.92612" lon="6.60231">
        <ele>1335.1</ele>
        <time>2022-07-14T07:08:10+0200</time>
      </trkpt>
      <trkpt lat="44.92618" lon="6.60227">
        <ele>1336.1</ele>
        <time>2022-07-14T07:08:12+0200</time>
      </trkpt>
      <trkpt lat="44.92621" lon="6.60219">
        <ele>1336.7</ele>
        <time>2022-07-14T07:08:14+0200</time>
      </trkpt>
      <trkpt lat="44.92626" lon="6.60212">
        <ele>1337.4</ele>
        <time>2022-07-14T07:08:16+0200</time>
      </trkpt>
      <trkpt lat="44.9263" lon="6.60208">
        <ele>1337.9</ele>
        <time>2022-07-14T07:08:17+0200</time>
      </trkpt>
      <trkpt lat="44.92635" lon="6.60198">
        <ele>1338.5</ele>
        <time>2022-07-14T07:08:19+0200</time>
      </trkpt>
      <trkpt lat="44.92638" lon="6.60187">
        <ele>1338.4</ele>
        <time>2022-07-14T07:08:21+0200</time>
      </trkpt>
      <trkpt lat="44.92643" lon="6.60179">
        <ele>1338.4</ele>
        <time>2022-07-14T07:08:23+0200</time>
      </trkpt>
      <trkpt lat="44.92645" lon="6.60173">
        <ele>1338.4</ele>
        <time>2022-07-14T07:08:24+0200</time>
      </trkpt>
      <trkpt lat="44.9265" lon="6.60163">
        <ele>1338.9</ele>
        <time>2022-07-14T07:08:26+0200</time>
      </trkpt>
      <trkpt lat="44.92655" lon="6.60152">
        <ele>1339.6</ele>
        <time>2022-07-14T07:08:28+0200</time>
      </trkpt>
      <trkpt lat="44.92659" lon="6.60143">
        <ele>1340</ele>
        <time>2022-07-14T07:08:30+0200</time>
      </trkpt>
      <trkpt lat="44.92663" lon="6.60134">
        <ele>1340.2</ele>
        <time>2022-07-14T07:08:32+0200</time>
      </trkpt>
      <trkpt lat="44.92667" lon="6.60125">
        <ele>1340.6</ele>
        <time>2022-07-14T07:08:34+0200</time>
      </trkpt>
      <trkpt lat="44.92673" lon="6.60116">
        <ele>1341</ele>
        <time>2022-07-14T07:08:36+0200</time>
      </trkpt>
      <trkpt lat="44.92674" lon="6.60109">
        <ele>1341.1</ele>
        <time>2022-07-14T07:08:37+0200</time>
      </trkpt>
      <trkpt lat="44.92679" lon="6.60099">
        <ele>1341.8</ele>
        <time>2022-07-14T07:08:39+0200</time>
      </trkpt>
      <trkpt lat="44.92685" lon="6.60091">
        <ele>1342.6</ele>
        <time>2022-07-14T07:08:41+0200</time>
      </trkpt>
      <trkpt lat="44.92689" lon="6.60082">
        <ele>1343.2</ele>
        <time>2022-07-14T07:08:43+0200</time>
      </trkpt>
      <trkpt lat="44.92693" lon="6.60073">
        <ele>1343.4</ele>
        <time>2022-07-14T07:08:45+0200</time>
      </trkpt>
      <trkpt lat="44.92697" lon="6.60065">
        <ele>1343.6</ele>
        <time>2022-07-14T07:08:47+0200</time>
      </trkpt>
      <trkpt lat="44.92701" lon="6.60057">
        <ele>1343.8</ele>
        <time>2022-07-14T07:08:49+0200</time>
      </trkpt>
      <trkpt lat="44.92705" lon="6.60047">
        <ele>1344</ele>
        <time>2022-07-14T07:08:51+0200</time>
      </trkpt>
      <trkpt lat="44.9271" lon="6.60039">
        <ele>1344.4</ele>
        <time>2022-07-14T07:08:53+0200</time>
      </trkpt>
      <trkpt lat="44.92713" lon="6.6003">
        <ele>1344.7</ele>
        <time>2022-07-14T07:08:55+0200</time>
      </trkpt>
      <trkpt lat="44.92718" lon="6.60021">
        <ele>1345.2</ele>
        <time>2022-07-14T07:08:57+0200</time>
      </trkpt>
      <trkpt lat="44.92723" lon="6.60011">
        <ele>1345.5</ele>
        <time>2022-07-14T07:08:59+0200</time>
      </trkpt>
      <trkpt lat="44.92727" lon="6.60001">
        <ele>1345.7</ele>
        <time>2022-07-14T07:09:01+0200</time>
      </trkpt>
      <trkpt lat="44.92732" lon="6.59992">
        <ele>1346.3</ele>
        <time>2022-07-14T07:09:03+0200</time>
      </trkpt>
      <trkpt lat="44.92736" lon="6.59983">
        <ele>1346.7</ele>
        <time>2022-07-14T07:09:05+0200</time>
      </trkpt>
      <trkpt lat="44.9274" lon="6.59974">
        <ele>1347</ele>
        <time>2022-07-14T07:09:07+0200</time>
      </trkpt>
      <trkpt lat="44.92745" lon="6.59965">
        <ele>1347.2</ele>
        <time>2022-07-14T07:09:09+0200</time>
      </trkpt>
      <trkpt lat="44.9275" lon="6.59957">
        <ele>1347.4</ele>
        <time>2022-07-14T07:09:11+0200</time>
      </trkpt>
      <trkpt lat="44.92753" lon="6.59948">
        <ele>1347.5</ele>
        <time>2022-07-14T07:09:13+0200</time>
      </trkpt>
      <trkpt lat="44.92757" lon="6.5994">
        <ele>1348</ele>
        <time>2022-07-14T07:09:15+0200</time>
      </trkpt>
      <trkpt lat="44.9276" lon="6.5993">
        <ele>1348.3</ele>
        <time>2022-07-14T07:09:17+0200</time>
      </trkpt>
      <trkpt lat="44.92765" lon="6.59922">
        <ele>1348.7</ele>
        <time>2022-07-14T07:09:19+0200</time>
      </trkpt>
      <trkpt lat="44.9277" lon="6.59912">
        <ele>1349</ele>
        <time>2022-07-14T07:09:21+0200</time>
      </trkpt>
      <trkpt lat="44.92774" lon="6.59902">
        <ele>1349.1</ele>
        <time>2022-07-14T07:09:23+0200</time>
      </trkpt>
      <trkpt lat="44.92778" lon="6.59892">
        <ele>1349.1</ele>
        <time>2022-07-14T07:09:25+0200</time>
      </trkpt>
      <trkpt lat="44.92782" lon="6.59883">
        <ele>1349.5</ele>
        <time>2022-07-14T07:09:27+0200</time>
      </trkpt>
      <trkpt lat="44.92785" lon="6.59873">
        <ele>1349.9</ele>
        <time>2022-07-14T07:09:29+0200</time>
      </trkpt>
      <trkpt lat="44.92789" lon="6.59864">
        <ele>1350.2</ele>
        <time>2022-07-14T07:09:31+0200</time>
      </trkpt>
      <trkpt lat="44.92792" lon="6.59854">
        <ele>1350.2</ele>
        <time>2022-07-14T07:09:33+0200</time>
      </trkpt>
      <trkpt lat="44.92796" lon="6.59844">
        <ele>1350</ele>
        <time>2022-07-14T07:09:35+0200</time>
      </trkpt>
      <trkpt lat="44.928" lon="6.59839">
        <ele>1350</ele>
        <time>2022-07-14T07:09:36+0200</time>
      </trkpt>
      <trkpt lat="44.92803" lon="6.59835">
        <ele>1349.9</ele>
        <time>2022-07-14T07:09:37+0200</time>
      </trkpt>
      <trkpt lat="44.92808" lon="6.59824">
        <ele>1350</ele>
        <time>2022-07-14T07:09:39+0200</time>
      </trkpt>
      <trkpt lat="44.92811" lon="6.59818">
        <ele>1350.1</ele>
        <time>2022-07-14T07:09:40+0200</time>
      </trkpt>
      <trkpt lat="44.92813" lon="6.59811">
        <ele>1350.1</ele>
        <time>2022-07-14T07:09:41+0200</time>
      </trkpt>
      <trkpt lat="44.92816" lon="6.59806">
        <ele>1350.1</ele>
        <time>2022-07-14T07:09:42+0200</time>
      </trkpt>
      <trkpt lat="44.92819" lon="6.598">
        <ele>1350.2</ele>
        <time>2022-07-14T07:09:43+0200</time>
      </trkpt>
      <trkpt lat="44.92822" lon="6.59793">
        <ele>1350.3</ele>
        <time>2022-07-14T07:09:44+0200</time>
      </trkpt>
      <trkpt lat="44.92824" lon="6.59786">
        <ele>1350.3</ele>
        <time>2022-07-14T07:09:45+0200</time>
      </trkpt>
      <trkpt lat="44.92826" lon="6.5978">
        <ele>1350.3</ele>
        <time>2022-07-14T07:09:46+0200</time>
      </trkpt>
      <trkpt lat="44.92829" lon="6.59773">
        <ele>1350.3</ele>
        <time>2022-07-14T07:09:47+0200</time>
      </trkpt>
      <trkpt lat="44.92832" lon="6.59767">
        <ele>1350.4</ele>
        <time>2022-07-14T07:09:48+0200</time>
      </trkpt>
      <trkpt lat="44.92837" lon="6.59757">
        <ele>1350.6</ele>
        <time>2022-07-14T07:09:50+0200</time>
      </trkpt>
      <trkpt lat="44.92839" lon="6.59751">
        <ele>1350.5</ele>
        <time>2022-07-14T07:09:51+0200</time>
      </trkpt>
      <trkpt lat="44.92842" lon="6.59746">
        <ele>1350.4</ele>
        <time>2022-07-14T07:09:52+0200</time>
      </trkpt>
      <trkpt lat="44.92845" lon="6.5974">
        <ele>1350.5</ele>
        <time>2022-07-14T07:09:53+0200</time>
      </trkpt>
      <trkpt lat="44.92848" lon="6.59735">
        <ele>1350.5</ele>
        <time>2022-07-14T07:09:54+0200</time>
      </trkpt>
      <trkpt lat="44.92853" lon="6.59724">
        <ele>1350.5</ele>
        <time>2022-07-14T07:09:56+0200</time>
      </trkpt>
      <trkpt lat="44.92856" lon="6.59718">
        <ele>1350.5</ele>
        <time>2022-07-14T07:09:57+0200</time>
      </trkpt>
      <trkpt lat="44.92858" lon="6.59712">
        <ele>1350.4</ele>
        <time>2022-07-14T07:09:58+0200</time>
      </trkpt>
      <trkpt lat="44.9286" lon="6.59706">
        <ele>1350.4</ele>
        <time>2022-07-14T07:09:59+0200</time>
      </trkpt>
      <trkpt lat="44.92863" lon="6.597">
        <ele>1350.4</ele>
        <time>2022-07-14T07:10:00+0200</time>
      </trkpt>
      <trkpt lat="44.92866" lon="6.59693">
        <ele>1350.2</ele>
        <time>2022-07-14T07:10:01+0200</time>
      </trkpt>
      <trkpt lat="44.92868" lon="6.59686">
        <ele>1350</ele>
        <time>2022-07-14T07:10:02+0200</time>
      </trkpt>
      <trkpt lat="44.92872" lon="6.5968">
        <ele>1349.9</ele>
        <time>2022-07-14T07:10:03+0200</time>
      </trkpt>
      <trkpt lat="44.92875" lon="6.59672">
        <ele>1349.8</ele>
        <time>2022-07-14T07:10:04+0200</time>
      </trkpt>
      <trkpt lat="44.92878" lon="6.59665">
        <ele>1349.8</ele>
        <time>2022-07-14T07:10:05+0200</time>
      </trkpt>
      <trkpt lat="44.92881" lon="6.59659">
        <ele>1349.8</ele>
        <time>2022-07-14T07:10:06+0200</time>
      </trkpt>
      <trkpt lat="44.92884" lon="6.59653">
        <ele>1350</ele>
        <time>2022-07-14T07:10:07+0200</time>
      </trkpt>
      <trkpt lat="44.92887" lon="6.59647">
        <ele>1350.1</ele>
        <time>2022-07-14T07:10:08+0200</time>
      </trkpt>
      <trkpt lat="44.92892" lon="6.59636">
        <ele>1350.1</ele>
        <time>2022-07-14T07:10:10+0200</time>
      </trkpt>
      <trkpt lat="44.92895" lon="6.59631">
        <ele>1350.1</ele>
        <time>2022-07-14T07:10:11+0200</time>
      </trkpt>
      <trkpt lat="44.92897" lon="6.59626">
        <ele>1350.1</ele>
        <time>2022-07-14T07:10:12+0200</time>
      </trkpt>
      <trkpt lat="44.92899" lon="6.5962">
        <ele>1350</ele>
        <time>2022-07-14T07:10:13+0200</time>
      </trkpt>
      <trkpt lat="44.92903" lon="6.59615">
        <ele>1350.1</ele>
        <time>2022-07-14T07:10:14+0200</time>
      </trkpt>
      <trkpt lat="44.92906" lon="6.59609">
        <ele>1350.1</ele>
        <time>2022-07-14T07:10:15+0200</time>
      </trkpt>
      <trkpt lat="44.92908" lon="6.59602">
        <ele>1350</ele>
        <time>2022-07-14T07:10:16+0200</time>
      </trkpt>
      <trkpt lat="44.92911" lon="6.59596">
        <ele>1350</ele>
        <time>2022-07-14T07:10:17+0200</time>
      </trkpt>
      <trkpt lat="44.92914" lon="6.59589">
        <ele>1349.9</ele>
        <time>2022-07-14T07:10:18+0200</time>
      </trkpt>
      <trkpt lat="44.92917" lon="6.59582">
        <ele>1349.9</ele>
        <time>2022-07-14T07:10:19+0200</time>
      </trkpt>
      <trkpt lat="44.9292" lon="6.59574">
        <ele>1349.5</ele>
        <time>2022-07-14T07:10:20+0200</time>
      </trkpt>
      <trkpt lat="44.92922" lon="6.59565">
        <ele>1349.1</ele>
        <time>2022-07-14T07:10:21+0200</time>
      </trkpt>
      <trkpt lat="44.92925" lon="6.59556">
        <ele>1348.9</ele>
        <time>2022-07-14T07:10:22+0200</time>
      </trkpt>
      <trkpt lat="44.92928" lon="6.59547">
        <ele>1349</ele>
        <time>2022-07-14T07:10:23+0200</time>
      </trkpt>
      <trkpt lat="44.92932" lon="6.59539">
        <ele>1349.3</ele>
        <time>2022-07-14T07:10:24+0200</time>
      </trkpt>
      <trkpt lat="44.92935" lon="6.59532">
        <ele>1349.6</ele>
        <time>2022-07-14T07:10:25+0200</time>
      </trkpt>
      <trkpt lat="44.92938" lon="6.59524">
        <ele>1349.7</ele>
        <time>2022-07-14T07:10:26+0200</time>
      </trkpt>
      <trkpt lat="44.92941" lon="6.59517">
        <ele>1349.4</ele>
        <time>2022-07-14T07:10:27+0200</time>
      </trkpt>
      <trkpt lat="44.92945" lon="6.5951">
        <ele>1349.2</ele>
        <time>2022-07-14T07:10:28+0200</time>
      </trkpt>
      <trkpt lat="44.92948" lon="6.59503">
        <ele>1348.7</ele>
        <time>2022-07-14T07:10:29+0200</time>
      </trkpt>
      <trkpt lat="44.92951" lon="6.59497">
        <ele>1348.5</ele>
        <time>2022-07-14T07:10:30+0200</time>
      </trkpt>
      <trkpt lat="44.92953" lon="6.5949">
        <ele>1348.3</ele>
        <time>2022-07-14T07:10:31+0200</time>
      </trkpt>
      <trkpt lat="44.92955" lon="6.59483">
        <ele>1348.1</ele>
        <time>2022-07-14T07:10:32+0200</time>
      </trkpt>
      <trkpt lat="44.92958" lon="6.59476">
        <ele>1348.2</ele>
        <time>2022-07-14T07:10:33+0200</time>
      </trkpt>
      <trkpt lat="44.92964" lon="6.5947">
        <ele>1348.6</ele>
        <time>2022-07-14T07:10:34+0200</time>
      </trkpt>
      <trkpt lat="44.92967" lon="6.59464">
        <ele>1348.7</ele>
        <time>2022-07-14T07:10:35+0200</time>
      </trkpt>
      <trkpt lat="44.9297" lon="6.59459">
        <ele>1348.7</ele>
        <time>2022-07-14T07:10:36+0200</time>
      </trkpt>
      <trkpt lat="44.92972" lon="6.59453">
        <ele>1348.5</ele>
        <time>2022-07-14T07:10:37+0200</time>
      </trkpt>
      <trkpt lat="44.92975" lon="6.59448">
        <ele>1348.6</ele>
        <time>2022-07-14T07:10:38+0200</time>
      </trkpt>
      <trkpt lat="44.9298" lon="6.5944">
        <ele>1348.8</ele>
        <time>2022-07-14T07:10:40+0200</time>
      </trkpt>
      <trkpt lat="44.92986" lon="6.59432">
        <ele>1349.3</ele>
        <time>2022-07-14T07:10:42+0200</time>
      </trkpt>
      <trkpt lat="44.92991" lon="6.59423">
        <ele>1349.7</ele>
        <time>2022-07-14T07:10:44+0200</time>
      </trkpt>
      <trkpt lat="44.92994" lon="6.59415">
        <ele>1349.9</ele>
        <time>2022-07-14T07:10:46+0200</time>
      </trkpt>
      <trkpt lat="44.93" lon="6.59409">
        <ele>1350.5</ele>
        <time>2022-07-14T07:10:48+0200</time>
      </trkpt>
      <trkpt lat="44.93005" lon="6.59401">
        <ele>1350.6</ele>
        <time>2022-07-14T07:10:50+0200</time>
      </trkpt>
      <trkpt lat="44.93008" lon="6.59393">
        <ele>1350.7</ele>
        <time>2022-07-14T07:10:52+0200</time>
      </trkpt>
      <trkpt lat="44.93013" lon="6.59385">
        <ele>1351.3</ele>
        <time>2022-07-14T07:10:54+0200</time>
      </trkpt>
      <trkpt lat="44.93018" lon="6.59379">
        <ele>1352</ele>
        <time>2022-07-14T07:10:56+0200</time>
      </trkpt>
      <trkpt lat="44.93022" lon="6.59371">
        <ele>1352.5</ele>
        <time>2022-07-14T07:10:58+0200</time>
      </trkpt>
      <trkpt lat="44.93027" lon="6.59366">
        <ele>1353.1</ele>
        <time>2022-07-14T07:11:00+0200</time>
      </trkpt>
      <trkpt lat="44.93031" lon="6.5936">
        <ele>1353.2</ele>
        <time>2022-07-14T07:11:02+0200</time>
      </trkpt>
      <trkpt lat="44.93034" lon="6.59355">
        <ele>1353.3</ele>
        <time>2022-07-14T07:11:04+0200</time>
      </trkpt>
      <trkpt lat="44.93037" lon="6.59347">
        <ele>1353.3</ele>
        <time>2022-07-14T07:11:07+0200</time>
      </trkpt>
      <trkpt lat="44.93039" lon="6.59341">
        <ele>1353.3</ele>
        <time>2022-07-14T07:11:09+0200</time>
      </trkpt>
      <trkpt lat="44.93044" lon="6.59334">
        <ele>1353.9</ele>
        <time>2022-07-14T07:11:12+0200</time>
      </trkpt>
      <trkpt lat="44.93047" lon="6.59326">
        <ele>1354.3</ele>
        <time>2022-07-14T07:11:14+0200</time>
      </trkpt>
      <trkpt lat="44.93051" lon="6.59319">
        <ele>1354.7</ele>
        <time>2022-07-14T07:11:16+0200</time>
      </trkpt>
      <trkpt lat="44.93057" lon="6.59313">
        <ele>1355.4</ele>
        <time>2022-07-14T07:11:18+0200</time>
      </trkpt>
      <trkpt lat="44.93062" lon="6.59307">
        <ele>1355.7</ele>
        <time>2022-07-14T07:11:20+0200</time>
      </trkpt>
      <trkpt lat="44.93068" lon="6.59299">
        <ele>1356.2</ele>
        <time>2022-07-14T07:11:22+0200</time>
      </trkpt>
      <trkpt lat="44.93074" lon="6.59292">
        <ele>1356.8</ele>
        <time>2022-07-14T07:11:24+0200</time>
      </trkpt>
      <trkpt lat="44.93079" lon="6.59282">
        <ele>1357.4</ele>
        <time>2022-07-14T07:11:26+0200</time>
      </trkpt>
      <trkpt lat="44.93082" lon="6.59276">
        <ele>1357.7</ele>
        <time>2022-07-14T07:11:27+0200</time>
      </trkpt>
      <trkpt lat="44.93083" lon="6.59269">
        <ele>1357.6</ele>
        <time>2022-07-14T07:11:28+0200</time>
      </trkpt>
      <trkpt lat="44.93083" lon="6.59262">
        <ele>1357.3</ele>
        <time>2022-07-14T07:11:29+0200</time>
      </trkpt>
      <trkpt lat="44.93083" lon="6.59255">
        <ele>1357.2</ele>
        <time>2022-07-14T07:11:30+0200</time>
      </trkpt>
      <trkpt lat="44.93086" lon="6.59248">
        <ele>1357.2</ele>
        <time>2022-07-14T07:11:31+0200</time>
      </trkpt>
      <trkpt lat="44.93088" lon="6.5924">
        <ele>1357.5</ele>
        <time>2022-07-14T07:11:32+0200</time>
      </trkpt>
      <trkpt lat="44.93088" lon="6.59231">
        <ele>1357.5</ele>
        <time>2022-07-14T07:11:33+0200</time>
      </trkpt>
      <trkpt lat="44.93089" lon="6.59223">
        <ele>1357.6</ele>
        <time>2022-07-14T07:11:34+0200</time>
      </trkpt>
      <trkpt lat="44.9309" lon="6.59215">
        <ele>1357.5</ele>
        <time>2022-07-14T07:11:35+0200</time>
      </trkpt>
      <trkpt lat="44.93092" lon="6.59207">
        <ele>1357.3</ele>
        <time>2022-07-14T07:11:36+0200</time>
      </trkpt>
      <trkpt lat="44.93093" lon="6.59199">
        <ele>1357.2</ele>
        <time>2022-07-14T07:11:37+0200</time>
      </trkpt>
      <trkpt lat="44.93093" lon="6.59192">
        <ele>1357.1</ele>
        <time>2022-07-14T07:11:38+0200</time>
      </trkpt>
      <trkpt lat="44.93095" lon="6.59185">
        <ele>1357.2</ele>
        <time>2022-07-14T07:11:39+0200</time>
      </trkpt>
      <trkpt lat="44.93096" lon="6.59177">
        <ele>1357.4</ele>
        <time>2022-07-14T07:11:40+0200</time>
      </trkpt>
      <trkpt lat="44.93098" lon="6.5917">
        <ele>1357.6</ele>
        <time>2022-07-14T07:11:41+0200</time>
      </trkpt>
      <trkpt lat="44.931" lon="6.59162">
        <ele>1357.6</ele>
        <time>2022-07-14T07:11:42+0200</time>
      </trkpt>
      <trkpt lat="44.93101" lon="6.59154">
        <ele>1357.5</ele>
        <time>2022-07-14T07:11:43+0200</time>
      </trkpt>
      <trkpt lat="44.93103" lon="6.59147">
        <ele>1357.4</ele>
        <time>2022-07-14T07:11:44+0200</time>
      </trkpt>
      <trkpt lat="44.93104" lon="6.59139">
        <ele>1357.2</ele>
        <time>2022-07-14T07:11:45+0200</time>
      </trkpt>
      <trkpt lat="44.93107" lon="6.59131">
        <ele>1357.6</ele>
        <time>2022-07-14T07:11:46+0200</time>
      </trkpt>
      <trkpt lat="44.93111" lon="6.59125">
        <ele>1357.9</ele>
        <time>2022-07-14T07:11:47+0200</time>
      </trkpt>
      <trkpt lat="44.93114" lon="6.59118">
        <ele>1358.3</ele>
        <time>2022-07-14T07:11:48+0200</time>
      </trkpt>
      <trkpt lat="44.93117" lon="6.59111">
        <ele>1358.6</ele>
        <time>2022-07-14T07:11:49+0200</time>
      </trkpt>
      <trkpt lat="44.93119" lon="6.59104">
        <ele>1358.5</ele>
        <time>2022-07-14T07:11:50+0200</time>
      </trkpt>
      <trkpt lat="44.93121" lon="6.59098">
        <ele>1358.6</ele>
        <time>2022-07-14T07:11:51+0200</time>
      </trkpt>
      <trkpt lat="44.93124" lon="6.59091">
        <ele>1358.7</ele>
        <time>2022-07-14T07:11:52+0200</time>
      </trkpt>
      <trkpt lat="44.93127" lon="6.59083">
        <ele>1358.7</ele>
        <time>2022-07-14T07:11:53+0200</time>
      </trkpt>
      <trkpt lat="44.9313" lon="6.59076">
        <ele>1358.7</ele>
        <time>2022-07-14T07:11:54+0200</time>
      </trkpt>
      <trkpt lat="44.93133" lon="6.59069">
        <ele>1358.7</ele>
        <time>2022-07-14T07:11:55+0200</time>
      </trkpt>
      <trkpt lat="44.93136" lon="6.59063">
        <ele>1358.8</ele>
        <time>2022-07-14T07:11:56+0200</time>
      </trkpt>
      <trkpt lat="44.93138" lon="6.59057">
        <ele>1358.9</ele>
        <time>2022-07-14T07:11:57+0200</time>
      </trkpt>
      <trkpt lat="44.93142" lon="6.59051">
        <ele>1359.2</ele>
        <time>2022-07-14T07:11:58+0200</time>
      </trkpt>
      <trkpt lat="44.93146" lon="6.59045">
        <ele>1359.4</ele>
        <time>2022-07-14T07:11:59+0200</time>
      </trkpt>
      <trkpt lat="44.93151" lon="6.59041">
        <ele>1359.8</ele>
        <time>2022-07-14T07:12:00+0200</time>
      </trkpt>
      <trkpt lat="44.93155" lon="6.59036">
        <ele>1360</ele>
        <time>2022-07-14T07:12:01+0200</time>
      </trkpt>
      <trkpt lat="44.93157" lon="6.5903">
        <ele>1360</ele>
        <time>2022-07-14T07:12:02+0200</time>
      </trkpt>
      <trkpt lat="44.93161" lon="6.59025">
        <ele>1360.2</ele>
        <time>2022-07-14T07:12:03+0200</time>
      </trkpt>
      <trkpt lat="44.93164" lon="6.5902">
        <ele>1360.4</ele>
        <time>2022-07-14T07:12:04+0200</time>
      </trkpt>
      <trkpt lat="44.93169" lon="6.59014">
        <ele>1360.7</ele>
        <time>2022-07-14T07:12:05+0200</time>
      </trkpt>
      <trkpt lat="44.93177" lon="6.59007">
        <ele>1361</ele>
        <time>2022-07-14T07:12:07+0200</time>
      </trkpt>
      <trkpt lat="44.93181" lon="6.59002">
        <ele>1361.1</ele>
        <time>2022-07-14T07:12:08+0200</time>
      </trkpt>
      <trkpt lat="44.93186" lon="6.58998">
        <ele>1361.3</ele>
        <time>2022-07-14T07:12:09+0200</time>
      </trkpt>
      <trkpt lat="44.93192" lon="6.5899">
        <ele>1361.4</ele>
        <time>2022-07-14T07:12:11+0200</time>
      </trkpt>
      <trkpt lat="44.93197" lon="6.58986">
        <ele>1361.7</ele>
        <time>2022-07-14T07:12:12+0200</time>
      </trkpt>
      <trkpt lat="44.93203" lon="6.58981">
        <ele>1361.9</ele>
        <time>2022-07-14T07:12:13+0200</time>
      </trkpt>
      <trkpt lat="44.93208" lon="6.58977">
        <ele>1362.2</ele>
        <time>2022-07-14T07:12:14+0200</time>
      </trkpt>
      <trkpt lat="44.93213" lon="6.58974">
        <ele>1362.4</ele>
        <time>2022-07-14T07:12:15+0200</time>
      </trkpt>
      <trkpt lat="44.93217" lon="6.58968">
        <ele>1362.4</ele>
        <time>2022-07-14T07:12:16+0200</time>
      </trkpt>
      <trkpt lat="44.93221" lon="6.58961">
        <ele>1362.4</ele>
        <time>2022-07-14T07:12:17+0200</time>
      </trkpt>
      <trkpt lat="44.93223" lon="6.58955">
        <ele>1362.5</ele>
        <time>2022-07-14T07:12:18+0200</time>
      </trkpt>
      <trkpt lat="44.93225" lon="6.58947">
        <ele>1362.3</ele>
        <time>2022-07-14T07:12:19+0200</time>
      </trkpt>
      <trkpt lat="44.93226" lon="6.58938">
        <ele>1362</ele>
        <time>2022-07-14T07:12:20+0200</time>
      </trkpt>
      <trkpt lat="44.93227" lon="6.58929">
        <ele>1361.8</ele>
        <time>2022-07-14T07:12:21+0200</time>
      </trkpt>
      <trkpt lat="44.93228" lon="6.5892">
        <ele>1361.5</ele>
        <time>2022-07-14T07:12:22+0200</time>
      </trkpt>
      <trkpt lat="44.9323" lon="6.58912">
        <ele>1361.2</ele>
        <time>2022-07-14T07:12:23+0200</time>
      </trkpt>
      <trkpt lat="44.93232" lon="6.58904">
        <ele>1361</ele>
        <time>2022-07-14T07:12:24+0200</time>
      </trkpt>
      <trkpt lat="44.93234" lon="6.58897">
        <ele>1360.8</ele>
        <time>2022-07-14T07:12:25+0200</time>
      </trkpt>
      <trkpt lat="44.93237" lon="6.58889">
        <ele>1360.6</ele>
        <time>2022-07-14T07:12:26+0200</time>
      </trkpt>
      <trkpt lat="44.9324" lon="6.58884">
        <ele>1360.6</ele>
        <time>2022-07-14T07:12:27+0200</time>
      </trkpt>
      <trkpt lat="44.93244" lon="6.5888">
        <ele>1360.7</ele>
        <time>2022-07-14T07:12:28+0200</time>
      </trkpt>
      <trkpt lat="44.93248" lon="6.58874">
        <ele>1360.7</ele>
        <time>2022-07-14T07:12:29+0200</time>
      </trkpt>
      <trkpt lat="44.9325" lon="6.58866">
        <ele>1360.4</ele>
        <time>2022-07-14T07:12:30+0200</time>
      </trkpt>
      <trkpt lat="44.93254" lon="6.58861">
        <ele>1360.3</ele>
        <time>2022-07-14T07:12:31+0200</time>
      </trkpt>
      <trkpt lat="44.93256" lon="6.58855">
        <ele>1360.2</ele>
        <time>2022-07-14T07:12:32+0200</time>
      </trkpt>
      <trkpt lat="44.9326" lon="6.5885">
        <ele>1360.3</ele>
        <time>2022-07-14T07:12:33+0200</time>
      </trkpt>
      <trkpt lat="44.93263" lon="6.58844">
        <ele>1360.3</ele>
        <time>2022-07-14T07:12:34+0200</time>
      </trkpt>
      <trkpt lat="44.93266" lon="6.58838">
        <ele>1360.3</ele>
        <time>2022-07-14T07:12:35+0200</time>
      </trkpt>
      <trkpt lat="44.9327" lon="6.58835">
        <ele>1360.5</ele>
        <time>2022-07-14T07:12:36+0200</time>
      </trkpt>
      <trkpt lat="44.93275" lon="6.58826">
        <ele>1360.5</ele>
        <time>2022-07-14T07:12:38+0200</time>
      </trkpt>
      <trkpt lat="44.93276" lon="6.58817">
        <ele>1360.2</ele>
        <time>2022-07-14T07:12:39+0200</time>
      </trkpt>
      <trkpt lat="44.93273" lon="6.58807">
        <ele>1359.5</ele>
        <time>2022-07-14T07:12:40+0200</time>
      </trkpt>
      <trkpt lat="44.93271" lon="6.58797">
        <ele>1358.6</ele>
        <time>2022-07-14T07:12:41+0200</time>
      </trkpt>
      <trkpt lat="44.93268" lon="6.58785">
        <ele>1357.5</ele>
        <time>2022-07-14T07:12:42+0200</time>
      </trkpt>
      <trkpt lat="44.93265" lon="6.58774">
        <ele>1356.4</ele>
        <time>2022-07-14T07:12:43+0200</time>
      </trkpt>
      <trkpt lat="44.93264" lon="6.58761">
        <ele>1355.3</ele>
        <time>2022-07-14T07:12:44+0200</time>
      </trkpt>
      <trkpt lat="44.93264" lon="6.58751">
        <ele>1354.5</ele>
        <time>2022-07-14T07:12:45+0200</time>
      </trkpt>
      <trkpt lat="44.93265" lon="6.58739">
        <ele>1354</ele>
        <time>2022-07-14T07:12:46+0200</time>
      </trkpt>
      <trkpt lat="44.93267" lon="6.58729">
        <ele>1353.6</ele>
        <time>2022-07-14T07:12:47+0200</time>
      </trkpt>
      <trkpt lat="44.93269" lon="6.58718">
        <ele>1353.3</ele>
        <time>2022-07-14T07:12:48+0200</time>
      </trkpt>
      <trkpt lat="44.93272" lon="6.58708">
        <ele>1353.4</ele>
        <time>2022-07-14T07:12:49+0200</time>
      </trkpt>
      <trkpt lat="44.93275" lon="6.587">
        <ele>1353.7</ele>
        <time>2022-07-14T07:12:50+0200</time>
      </trkpt>
      <trkpt lat="44.93279" lon="6.58692">
        <ele>1354</ele>
        <time>2022-07-14T07:12:51+0200</time>
      </trkpt>
      <trkpt lat="44.93282" lon="6.58685">
        <ele>1354.1</ele>
        <time>2022-07-14T07:12:52+0200</time>
      </trkpt>
      <trkpt lat="44.93286" lon="6.58678">
        <ele>1354.1</ele>
        <time>2022-07-14T07:12:53+0200</time>
      </trkpt>
      <trkpt lat="44.93288" lon="6.58671">
        <ele>1353.9</ele>
        <time>2022-07-14T07:12:54+0200</time>
      </trkpt>
      <trkpt lat="44.93289" lon="6.5866">
        <ele>1353.6</ele>
        <time>2022-07-14T07:12:55+0200</time>
      </trkpt>
      <trkpt lat="44.9329" lon="6.58652">
        <ele>1353.4</ele>
        <time>2022-07-14T07:12:56+0200</time>
      </trkpt>
      <trkpt lat="44.93289" lon="6.58644">
        <ele>1353</ele>
        <time>2022-07-14T07:12:57+0200</time>
      </trkpt>
      <trkpt lat="44.93284" lon="6.58639">
        <ele>1352.4</ele>
        <time>2022-07-14T07:12:58+0200</time>
      </trkpt>
      <trkpt lat="44.93281" lon="6.58629">
        <ele>1351.6</ele>
        <time>2022-07-14T07:13:00+0200</time>
      </trkpt>
      <trkpt lat="44.93286" lon="6.58625">
        <ele>1351.7</ele>
        <time>2022-07-14T07:13:01+0200</time>
      </trkpt>
      <trkpt lat="44.93291" lon="6.58621">
        <ele>1352</ele>
        <time>2022-07-14T07:13:02+0200</time>
      </trkpt>
      <trkpt lat="44.93295" lon="6.58617">
        <ele>1352.1</ele>
        <time>2022-07-14T07:13:03+0200</time>
      </trkpt>
      <trkpt lat="44.93298" lon="6.58612">
        <ele>1352.2</ele>
        <time>2022-07-14T07:13:04+0200</time>
      </trkpt>
      <trkpt lat="44.93301" lon="6.58607">
        <ele>1352.1</ele>
        <time>2022-07-14T07:13:05+0200</time>
      </trkpt>
      <trkpt lat="44.93304" lon="6.58598">
        <ele>1351.6</ele>
        <time>2022-07-14T07:13:06+0200</time>
      </trkpt>
      <trkpt lat="44.93309" lon="6.5859">
        <ele>1351.1</ele>
        <time>2022-07-14T07:13:07+0200</time>
      </trkpt>
      <trkpt lat="44.93314" lon="6.58584">
        <ele>1350.9</ele>
        <time>2022-07-14T07:13:08+0200</time>
      </trkpt>
      <trkpt lat="44.93318" lon="6.58576">
        <ele>1351.4</ele>
        <time>2022-07-14T07:13:09+0200</time>
      </trkpt>
      <trkpt lat="44.93322" lon="6.58569">
        <ele>1351.6</ele>
        <time>2022-07-14T07:13:10+0200</time>
      </trkpt>
      <trkpt lat="44.93328" lon="6.58562">
        <ele>1351.5</ele>
        <time>2022-07-14T07:13:11+0200</time>
      </trkpt>
      <trkpt lat="44.93332" lon="6.58557">
        <ele>1351.1</ele>
        <time>2022-07-14T07:13:12+0200</time>
      </trkpt>
      <trkpt lat="44.93336" lon="6.5855">
        <ele>1351.2</ele>
        <time>2022-07-14T07:13:13+0200</time>
      </trkpt>
      <trkpt lat="44.93341" lon="6.58545">
        <ele>1351.3</ele>
        <time>2022-07-14T07:13:14+0200</time>
      </trkpt>
      <trkpt lat="44.93345" lon="6.58541">
        <ele>1351.4</ele>
        <time>2022-07-14T07:13:15+0200</time>
      </trkpt>
      <trkpt lat="44.9335" lon="6.58538">
        <ele>1351.4</ele>
        <time>2022-07-14T07:13:16+0200</time>
      </trkpt>
      <trkpt lat="44.93355" lon="6.58536">
        <ele>1351.4</ele>
        <time>2022-07-14T07:13:17+0200</time>
      </trkpt>
      <trkpt lat="44.93359" lon="6.58533">
        <ele>1351.3</ele>
        <time>2022-07-14T07:13:18+0200</time>
      </trkpt>
      <trkpt lat="44.93363" lon="6.5853">
        <ele>1351.2</ele>
        <time>2022-07-14T07:13:19+0200</time>
      </trkpt>
      <trkpt lat="44.93371" lon="6.58525">
        <ele>1351.4</ele>
        <time>2022-07-14T07:13:21+0200</time>
      </trkpt>
      <trkpt lat="44.93375" lon="6.58522">
        <ele>1351.5</ele>
        <time>2022-07-14T07:13:22+0200</time>
      </trkpt>
      <trkpt lat="44.93383" lon="6.58521">
        <ele>1351.6</ele>
        <time>2022-07-14T07:13:24+0200</time>
      </trkpt>
      <trkpt lat="44.9339" lon="6.58514">
        <ele>1351.5</ele>
        <time>2022-07-14T07:13:26+0200</time>
      </trkpt>
      <trkpt lat="44.93394" lon="6.58509">
        <ele>1351.4</ele>
        <time>2022-07-14T07:13:27+0200</time>
      </trkpt>
      <trkpt lat="44.93399" lon="6.58505">
        <ele>1351.5</ele>
        <time>2022-07-14T07:13:28+0200</time>
      </trkpt>
      <trkpt lat="44.93408" lon="6.585">
        <ele>1351.7</ele>
        <time>2022-07-14T07:13:30+0200</time>
      </trkpt>
      <trkpt lat="44.93412" lon="6.58494">
        <ele>1351.7</ele>
        <time>2022-07-14T07:13:31+0200</time>
      </trkpt>
      <trkpt lat="44.93416" lon="6.58488">
        <ele>1351.6</ele>
        <time>2022-07-14T07:13:32+0200</time>
      </trkpt>
      <trkpt lat="44.93421" lon="6.58484">
        <ele>1351.7</ele>
        <time>2022-07-14T07:13:33+0200</time>
      </trkpt>
      <trkpt lat="44.93425" lon="6.58478">
        <ele>1351.8</ele>
        <time>2022-07-14T07:13:34+0200</time>
      </trkpt>
      <trkpt lat="44.93429" lon="6.58473">
        <ele>1351.9</ele>
        <time>2022-07-14T07:13:35+0200</time>
      </trkpt>
      <trkpt lat="44.93433" lon="6.58469">
        <ele>1352.2</ele>
        <time>2022-07-14T07:13:36+0200</time>
      </trkpt>
      <trkpt lat="44.93437" lon="6.58465">
        <ele>1352.2</ele>
        <time>2022-07-14T07:13:37+0200</time>
      </trkpt>
      <trkpt lat="44.93445" lon="6.58462">
        <ele>1352.3</ele>
        <time>2022-07-14T07:13:39+0200</time>
      </trkpt>
      <trkpt lat="44.93453" lon="6.58461">
        <ele>1352.7</ele>
        <time>2022-07-14T07:13:41+0200</time>
      </trkpt>
      <trkpt lat="44.93461" lon="6.58459">
        <ele>1353</ele>
        <time>2022-07-14T07:13:43+0200</time>
      </trkpt>
      <trkpt lat="44.93466" lon="6.58459">
        <ele>1353.2</ele>
        <time>2022-07-14T07:13:44+0200</time>
      </trkpt>
      <trkpt lat="44.93475" lon="6.58454">
        <ele>1353.1</ele>
        <time>2022-07-14T07:13:46+0200</time>
      </trkpt>
      <trkpt lat="44.9348" lon="6.58453">
        <ele>1353.2</ele>
        <time>2022-07-14T07:13:47+0200</time>
      </trkpt>
      <trkpt lat="44.93485" lon="6.58454">
        <ele>1353.5</ele>
        <time>2022-07-14T07:13:48+0200</time>
      </trkpt>
      <trkpt lat="44.93491" lon="6.58457">
        <ele>1354</ele>
        <time>2022-07-14T07:13:49+0200</time>
      </trkpt>
      <trkpt lat="44.93497" lon="6.58459">
        <ele>1354.5</ele>
        <time>2022-07-14T07:13:50+0200</time>
      </trkpt>
      <trkpt lat="44.93503" lon="6.5846">
        <ele>1354.7</ele>
        <time>2022-07-14T07:13:51+0200</time>
      </trkpt>
      <trkpt lat="44.93509" lon="6.58459">
        <ele>1354.7</ele>
        <time>2022-07-14T07:13:52+0200</time>
      </trkpt>
      <trkpt lat="44.93513" lon="6.58457">
        <ele>1354.6</ele>
        <time>2022-07-14T07:13:53+0200</time>
      </trkpt>
      <trkpt lat="44.93519" lon="6.58454">
        <ele>1354.5</ele>
        <time>2022-07-14T07:13:54+0200</time>
      </trkpt>
      <trkpt lat="44.93524" lon="6.58453">
        <ele>1354.5</ele>
        <time>2022-07-14T07:13:55+0200</time>
      </trkpt>
      <trkpt lat="44.93529" lon="6.58451">
        <ele>1354.5</ele>
        <time>2022-07-14T07:13:56+0200</time>
      </trkpt>
      <trkpt lat="44.93534" lon="6.5845">
        <ele>1354.4</ele>
        <time>2022-07-14T07:13:57+0200</time>
      </trkpt>
      <trkpt lat="44.93539" lon="6.58449">
        <ele>1354.3</ele>
        <time>2022-07-14T07:13:58+0200</time>
      </trkpt>
      <trkpt lat="44.93546" lon="6.58442">
        <ele>1353.8</ele>
        <time>2022-07-14T07:14:00+0200</time>
      </trkpt>
      <trkpt lat="44.93552" lon="6.58435">
        <ele>1353.2</ele>
        <time>2022-07-14T07:14:02+0200</time>
      </trkpt>
      <trkpt lat="44.93559" lon="6.58428">
        <ele>1352.9</ele>
        <time>2022-07-14T07:14:04+0200</time>
      </trkpt>
      <trkpt lat="44.93562" lon="6.58422">
        <ele>1352.6</ele>
        <time>2022-07-14T07:14:05+0200</time>
      </trkpt>
      <trkpt lat="44.93565" lon="6.58418">
        <ele>1352.4</ele>
        <time>2022-07-14T07:14:06+0200</time>
      </trkpt>
      <trkpt lat="44.93568" lon="6.58413">
        <ele>1352.4</ele>
        <time>2022-07-14T07:14:07+0200</time>
      </trkpt>
      <trkpt lat="44.93572" lon="6.58409">
        <ele>1352.4</ele>
        <time>2022-07-14T07:14:08+0200</time>
      </trkpt>
      <trkpt lat="44.93576" lon="6.58405">
        <ele>1352.4</ele>
        <time>2022-07-14T07:14:09+0200</time>
      </trkpt>
      <trkpt lat="44.93582" lon="6.58401">
        <ele>1352.4</ele>
        <time>2022-07-14T07:14:10+0200</time>
      </trkpt>
      <trkpt lat="44.93586" lon="6.58396">
        <ele>1352.4</ele>
        <time>2022-07-14T07:14:11+0200</time>
      </trkpt>
      <trkpt lat="44.93591" lon="6.58391">
        <ele>1352.6</ele>
        <time>2022-07-14T07:14:12+0200</time>
      </trkpt>
      <trkpt lat="44.93596" lon="6.58387">
        <ele>1352.8</ele>
        <time>2022-07-14T07:14:13+0200</time>
      </trkpt>
      <trkpt lat="44.936" lon="6.58382">
        <ele>1353</ele>
        <time>2022-07-14T07:14:14+0200</time>
      </trkpt>
      <trkpt lat="44.93603" lon="6.58376">
        <ele>1353.1</ele>
        <time>2022-07-14T07:14:15+0200</time>
      </trkpt>
      <trkpt lat="44.93608" lon="6.58371">
        <ele>1353.2</ele>
        <time>2022-07-14T07:14:16+0200</time>
      </trkpt>
      <trkpt lat="44.93612" lon="6.58366">
        <ele>1353.3</ele>
        <time>2022-07-14T07:14:17+0200</time>
      </trkpt>
      <trkpt lat="44.93617" lon="6.58361">
        <ele>1353.4</ele>
        <time>2022-07-14T07:14:18+0200</time>
      </trkpt>
      <trkpt lat="44.9362" lon="6.58356">
        <ele>1353.6</ele>
        <time>2022-07-14T07:14:19+0200</time>
      </trkpt>
      <trkpt lat="44.93624" lon="6.58349">
        <ele>1353.9</ele>
        <time>2022-07-14T07:14:20+0200</time>
      </trkpt>
      <trkpt lat="44.93627" lon="6.58342">
        <ele>1354.1</ele>
        <time>2022-07-14T07:14:21+0200</time>
      </trkpt>
      <trkpt lat="44.93632" lon="6.58337">
        <ele>1354.5</ele>
        <time>2022-07-14T07:14:22+0200</time>
      </trkpt>
      <trkpt lat="44.93635" lon="6.5833">
        <ele>1354.6</ele>
        <time>2022-07-14T07:14:23+0200</time>
      </trkpt>
      <trkpt lat="44.93637" lon="6.58323">
        <ele>1354.5</ele>
        <time>2022-07-14T07:14:24+0200</time>
      </trkpt>
      <trkpt lat="44.93639" lon="6.58316">
        <ele>1354.4</ele>
        <time>2022-07-14T07:14:25+0200</time>
      </trkpt>
      <trkpt lat="44.93641" lon="6.58308">
        <ele>1354.2</ele>
        <time>2022-07-14T07:14:26+0200</time>
      </trkpt>
      <trkpt lat="44.93639" lon="6.58299">
        <ele>1353.8</ele>
        <time>2022-07-14T07:14:27+0200</time>
      </trkpt>
      <trkpt lat="44.93634" lon="6.58295">
        <ele>1353.4</ele>
        <time>2022-07-14T07:14:28+0200</time>
      </trkpt>
      <trkpt lat="44.93628" lon="6.5829">
        <ele>1352.9</ele>
        <time>2022-07-14T07:14:30+0200</time>
      </trkpt>
      <trkpt lat="44.93624" lon="6.58287">
        <ele>1352.6</ele>
        <time>2022-07-14T07:14:31+0200</time>
      </trkpt>
      <trkpt lat="44.9362" lon="6.58283">
        <ele>1352.4</ele>
        <time>2022-07-14T07:14:32+0200</time>
      </trkpt>
      <trkpt lat="44.9361" lon="6.58277">
        <ele>1352</ele>
        <time>2022-07-14T07:14:34+0200</time>
      </trkpt>
      <trkpt lat="44.93603" lon="6.58273">
        <ele>1351.7</ele>
        <time>2022-07-14T07:14:35+0200</time>
      </trkpt>
      <trkpt lat="44.93596" lon="6.58269">
        <ele>1351.5</ele>
        <time>2022-07-14T07:14:36+0200</time>
      </trkpt>
      <trkpt lat="44.9359" lon="6.58264">
        <ele>1351.3</ele>
        <time>2022-07-14T07:14:37+0200</time>
      </trkpt>
      <trkpt lat="44.93587" lon="6.58256">
        <ele>1351.1</ele>
        <time>2022-07-14T07:14:38+0200</time>
      </trkpt>
      <trkpt lat="44.93585" lon="6.58248">
        <ele>1351.1</ele>
        <time>2022-07-14T07:14:39+0200</time>
      </trkpt>
      <trkpt lat="44.93585" lon="6.58238">
        <ele>1351.5</ele>
        <time>2022-07-14T07:14:40+0200</time>
      </trkpt>
      <trkpt lat="44.93586" lon="6.58228">
        <ele>1351.8</ele>
        <time>2022-07-14T07:14:41+0200</time>
      </trkpt>
      <trkpt lat="44.93587" lon="6.58218">
        <ele>1352</ele>
        <time>2022-07-14T07:14:42+0200</time>
      </trkpt>
      <trkpt lat="44.93586" lon="6.58209">
        <ele>1352</ele>
        <time>2022-07-14T07:14:43+0200</time>
      </trkpt>
      <trkpt lat="44.93586" lon="6.582">
        <ele>1352</ele>
        <time>2022-07-14T07:14:44+0200</time>
      </trkpt>
      <trkpt lat="44.93585" lon="6.5819">
        <ele>1352</ele>
        <time>2022-07-14T07:14:45+0200</time>
      </trkpt>
      <trkpt lat="44.93587" lon="6.58181">
        <ele>1352</ele>
        <time>2022-07-14T07:14:46+0200</time>
      </trkpt>
      <trkpt lat="44.93589" lon="6.58172">
        <ele>1352</ele>
        <time>2022-07-14T07:14:47+0200</time>
      </trkpt>
      <trkpt lat="44.93591" lon="6.58163">
        <ele>1352.1</ele>
        <time>2022-07-14T07:14:48+0200</time>
      </trkpt>
      <trkpt lat="44.93595" lon="6.58154">
        <ele>1352.4</ele>
        <time>2022-07-14T07:14:49+0200</time>
      </trkpt>
      <trkpt lat="44.93597" lon="6.58147">
        <ele>1352.7</ele>
        <time>2022-07-14T07:14:50+0200</time>
      </trkpt>
      <trkpt lat="44.93601" lon="6.58139">
        <ele>1353</ele>
        <time>2022-07-14T07:14:51+0200</time>
      </trkpt>
      <trkpt lat="44.93603" lon="6.58132">
        <ele>1353</ele>
        <time>2022-07-14T07:14:52+0200</time>
      </trkpt>
      <trkpt lat="44.93607" lon="6.58125">
        <ele>1353</ele>
        <time>2022-07-14T07:14:53+0200</time>
      </trkpt>
      <trkpt lat="44.9361" lon="6.58118">
        <ele>1353</ele>
        <time>2022-07-14T07:14:54+0200</time>
      </trkpt>
      <trkpt lat="44.93613" lon="6.5811">
        <ele>1353</ele>
        <time>2022-07-14T07:14:55+0200</time>
      </trkpt>
      <trkpt lat="44.93616" lon="6.58103">
        <ele>1353</ele>
        <time>2022-07-14T07:14:56+0200</time>
      </trkpt>
      <trkpt lat="44.93618" lon="6.58097">
        <ele>1353</ele>
        <time>2022-07-14T07:14:57+0200</time>
      </trkpt>
      <trkpt lat="44.9362" lon="6.5809">
        <ele>1353</ele>
        <time>2022-07-14T07:14:58+0200</time>
      </trkpt>
      <trkpt lat="44.93622" lon="6.58082">
        <ele>1353</ele>
        <time>2022-07-14T07:14:59+0200</time>
      </trkpt>
      <trkpt lat="44.93626" lon="6.58075">
        <ele>1353</ele>
        <time>2022-07-14T07:15:00+0200</time>
      </trkpt>
      <trkpt lat="44.93629" lon="6.58069">
        <ele>1353</ele>
        <time>2022-07-14T07:15:01+0200</time>
      </trkpt>
      <trkpt lat="44.93632" lon="6.58062">
        <ele>1353</ele>
        <time>2022-07-14T07:15:02+0200</time>
      </trkpt>
      <trkpt lat="44.93634" lon="6.58054">
        <ele>1353.1</ele>
        <time>2022-07-14T07:15:03+0200</time>
      </trkpt>
      <trkpt lat="44.93636" lon="6.58047">
        <ele>1353.3</ele>
        <time>2022-07-14T07:15:04+0200</time>
      </trkpt>
      <trkpt lat="44.93638" lon="6.5804">
        <ele>1353.6</ele>
        <time>2022-07-14T07:15:05+0200</time>
      </trkpt>
      <trkpt lat="44.9364" lon="6.58033">
        <ele>1353.8</ele>
        <time>2022-07-14T07:15:06+0200</time>
      </trkpt>
      <trkpt lat="44.93642" lon="6.58026">
        <ele>1354.1</ele>
        <time>2022-07-14T07:15:07+0200</time>
      </trkpt>
      <trkpt lat="44.93642" lon="6.58019">
        <ele>1354.3</ele>
        <time>2022-07-14T07:15:08+0200</time>
      </trkpt>
      <trkpt lat="44.93643" lon="6.58011">
        <ele>1354.5</ele>
        <time>2022-07-14T07:15:09+0200</time>
      </trkpt>
      <trkpt lat="44.93643" lon="6.58003">
        <ele>1354.8</ele>
        <time>2022-07-14T07:15:10+0200</time>
      </trkpt>
      <trkpt lat="44.93644" lon="6.5799">
        <ele>1355.5</ele>
        <time>2022-07-14T07:15:12+0200</time>
      </trkpt>
      <trkpt lat="44.93644" lon="6.57983">
        <ele>1356</ele>
        <time>2022-07-14T07:15:13+0200</time>
      </trkpt>
      <trkpt lat="44.93644" lon="6.57976">
        <ele>1356.4</ele>
        <time>2022-07-14T07:15:14+0200</time>
      </trkpt>
      <trkpt lat="44.93647" lon="6.57965">
        <ele>1356.7</ele>
        <time>2022-07-14T07:15:16+0200</time>
      </trkpt>
      <trkpt lat="44.93647" lon="6.57953">
        <ele>1357.1</ele>
        <time>2022-07-14T07:15:18+0200</time>
      </trkpt>
      <trkpt lat="44.93649" lon="6.57945">
        <ele>1357.3</ele>
        <time>2022-07-14T07:15:19+0200</time>
      </trkpt>
      <trkpt lat="44.93649" lon="6.57939">
        <ele>1357.4</ele>
        <time>2022-07-14T07:15:20+0200</time>
      </trkpt>
      <trkpt lat="44.93651" lon="6.57933">
        <ele>1357.5</ele>
        <time>2022-07-14T07:15:21+0200</time>
      </trkpt>
      <trkpt lat="44.93652" lon="6.57927">
        <ele>1357.7</ele>
        <time>2022-07-14T07:15:22+0200</time>
      </trkpt>
      <trkpt lat="44.93655" lon="6.57921">
        <ele>1357.7</ele>
        <time>2022-07-14T07:15:23+0200</time>
      </trkpt>
      <trkpt lat="44.93658" lon="6.5791">
        <ele>1357.7</ele>
        <time>2022-07-14T07:15:25+0200</time>
      </trkpt>
      <trkpt lat="44.93663" lon="6.57902">
        <ele>1357.3</ele>
        <time>2022-07-14T07:15:27+0200</time>
      </trkpt>
      <trkpt lat="44.93668" lon="6.57893">
        <ele>1357</ele>
        <time>2022-07-14T07:15:29+0200</time>
      </trkpt>
      <trkpt lat="44.93671" lon="6.57882">
        <ele>1356.9</ele>
        <time>2022-07-14T07:15:31+0200</time>
      </trkpt>
      <trkpt lat="44.93674" lon="6.57871">
        <ele>1356.7</ele>
        <time>2022-07-14T07:15:33+0200</time>
      </trkpt>
      <trkpt lat="44.93675" lon="6.57864">
        <ele>1356.7</ele>
        <time>2022-07-14T07:15:35+0200</time>
      </trkpt>
      <trkpt lat="44.93677" lon="6.57855">
        <ele>1356.6</ele>
        <time>2022-07-14T07:15:37+0200</time>
      </trkpt>
      <trkpt lat="44.93676" lon="6.57848">
        <ele>1356.7</ele>
        <time>2022-07-14T07:15:38+0200</time>
      </trkpt>
      <trkpt lat="44.93675" lon="6.57836">
        <ele>1356.7</ele>
        <time>2022-07-14T07:15:39+0200</time>
      </trkpt>
      <trkpt lat="44.93671" lon="6.57825">
        <ele>1356.8</ele>
        <time>2022-07-14T07:15:40+0200</time>
      </trkpt>
      <trkpt lat="44.93668" lon="6.57816">
        <ele>1357</ele>
        <time>2022-07-14T07:15:41+0200</time>
      </trkpt>
      <trkpt lat="44.93664" lon="6.57808">
        <ele>1357.5</ele>
        <time>2022-07-14T07:15:42+0200</time>
      </trkpt>
      <trkpt lat="44.93661" lon="6.57802">
        <ele>1358</ele>
        <time>2022-07-14T07:15:43+0200</time>
      </trkpt>
      <trkpt lat="44.93658" lon="6.57792">
        <ele>1358.5</ele>
        <time>2022-07-14T07:15:45+0200</time>
      </trkpt>
      <trkpt lat="44.93656" lon="6.57785">
        <ele>1359</ele>
        <time>2022-07-14T07:15:47+0200</time>
      </trkpt>
      <trkpt lat="44.93655" lon="6.57778">
        <ele>1359.2</ele>
        <time>2022-07-14T07:15:48+0200</time>
      </trkpt>
      <trkpt lat="44.93654" lon="6.57766">
        <ele>1359</ele>
        <time>2022-07-14T07:15:50+0200</time>
      </trkpt>
      <trkpt lat="44.93651" lon="6.57759">
        <ele>1359.5</ele>
        <time>2022-07-14T07:15:51+0200</time>
      </trkpt>
      <trkpt lat="44.93648" lon="6.57752">
        <ele>1359.7</ele>
        <time>2022-07-14T07:15:52+0200</time>
      </trkpt>
      <trkpt lat="44.93647" lon="6.57744">
        <ele>1360.1</ele>
        <time>2022-07-14T07:15:53+0200</time>
      </trkpt>
      <trkpt lat="44.93647" lon="6.57737">
        <ele>1360.2</ele>
        <time>2022-07-14T07:15:54+0200</time>
      </trkpt>
      <trkpt lat="44.93646" lon="6.5773">
        <ele>1360.5</ele>
        <time>2022-07-14T07:15:55+0200</time>
      </trkpt>
      <trkpt lat="44.93646" lon="6.57722">
        <ele>1360.8</ele>
        <time>2022-07-14T07:15:56+0200</time>
      </trkpt>
      <trkpt lat="44.93644" lon="6.57714">
        <ele>1361.1</ele>
        <time>2022-07-14T07:15:57+0200</time>
      </trkpt>
      <trkpt lat="44.93644" lon="6.57707">
        <ele>1361</ele>
        <time>2022-07-14T07:15:58+0200</time>
      </trkpt>
      <trkpt lat="44.93645" lon="6.57701">
        <ele>1360.9</ele>
        <time>2022-07-14T07:15:59+0200</time>
      </trkpt>
      <trkpt lat="44.93647" lon="6.57693">
        <ele>1360.7</ele>
        <time>2022-07-14T07:16:00+0200</time>
      </trkpt>
      <trkpt lat="44.93645" lon="6.57687">
        <ele>1361.2</ele>
        <time>2022-07-14T07:16:01+0200</time>
      </trkpt>
      <trkpt lat="44.93648" lon="6.57681">
        <ele>1360.8</ele>
        <time>2022-07-14T07:16:02+0200</time>
      </trkpt>
      <trkpt lat="44.93649" lon="6.57673">
        <ele>1360.8</ele>
        <time>2022-07-14T07:16:03+0200</time>
      </trkpt>
      <trkpt lat="44.9365" lon="6.57664">
        <ele>1360.6</ele>
        <time>2022-07-14T07:16:04+0200</time>
      </trkpt>
      <trkpt lat="44.9365" lon="6.57657">
        <ele>1361</ele>
        <time>2022-07-14T07:16:05+0200</time>
      </trkpt>
      <trkpt lat="44.93651" lon="6.57651">
        <ele>1361</ele>
        <time>2022-07-14T07:16:06+0200</time>
      </trkpt>
      <trkpt lat="44.93652" lon="6.57643">
        <ele>1361</ele>
        <time>2022-07-14T07:16:07+0200</time>
      </trkpt>
      <trkpt lat="44.93652" lon="6.57636">
        <ele>1361.4</ele>
        <time>2022-07-14T07:16:08+0200</time>
      </trkpt>
      <trkpt lat="44.93656" lon="6.57624">
        <ele>1361.1</ele>
        <time>2022-07-14T07:16:10+0200</time>
      </trkpt>
      <trkpt lat="44.93659" lon="6.57619">
        <ele>1360.5</ele>
        <time>2022-07-14T07:16:11+0200</time>
      </trkpt>
      <trkpt lat="44.93663" lon="6.57613">
        <ele>1359.9</ele>
        <time>2022-07-14T07:16:12+0200</time>
      </trkpt>
      <trkpt lat="44.93664" lon="6.57606">
        <ele>1360</ele>
        <time>2022-07-14T07:16:13+0200</time>
      </trkpt>
      <trkpt lat="44.93666" lon="6.57598">
        <ele>1360.2</ele>
        <time>2022-07-14T07:16:14+0200</time>
      </trkpt>
      <trkpt lat="44.9367" lon="6.57588">
        <ele>1360.2</ele>
        <time>2022-07-14T07:16:16+0200</time>
      </trkpt>
      <trkpt lat="44.93677" lon="6.5758">
        <ele>1359.8</ele>
        <time>2022-07-14T07:16:18+0200</time>
      </trkpt>
      <trkpt lat="44.93683" lon="6.57569">
        <ele>1359.6</ele>
        <time>2022-07-14T07:16:20+0200</time>
      </trkpt>
      <trkpt lat="44.93687" lon="6.57565">
        <ele>1359.1</ele>
        <time>2022-07-14T07:16:21+0200</time>
      </trkpt>
      <trkpt lat="44.9369" lon="6.5756">
        <ele>1358.8</ele>
        <time>2022-07-14T07:16:22+0200</time>
      </trkpt>
      <trkpt lat="44.93695" lon="6.57552">
        <ele>1358.4</ele>
        <time>2022-07-14T07:16:24+0200</time>
      </trkpt>
      <trkpt lat="44.937" lon="6.57542">
        <ele>1359.1</ele>
        <time>2022-07-14T07:16:26+0200</time>
      </trkpt>
      <trkpt lat="44.93703" lon="6.57537">
        <ele>1359.3</ele>
        <time>2022-07-14T07:16:27+0200</time>
      </trkpt>
      <trkpt lat="44.9371" lon="6.57528">
        <ele>1359.4</ele>
        <time>2022-07-14T07:16:29+0200</time>
      </trkpt>
      <trkpt lat="44.93712" lon="6.57521">
        <ele>1359.6</ele>
        <time>2022-07-14T07:16:30+0200</time>
      </trkpt>
      <trkpt lat="44.93716" lon="6.57516">
        <ele>1359.6</ele>
        <time>2022-07-14T07:16:31+0200</time>
      </trkpt>
      <trkpt lat="44.93719" lon="6.57511">
        <ele>1359.6</ele>
        <time>2022-07-14T07:16:32+0200</time>
      </trkpt>
      <trkpt lat="44.93722" lon="6.57506">
        <ele>1359.7</ele>
        <time>2022-07-14T07:16:33+0200</time>
      </trkpt>
      <trkpt lat="44.93727" lon="6.57496">
        <ele>1360.1</ele>
        <time>2022-07-14T07:16:35+0200</time>
      </trkpt>
      <trkpt lat="44.93732" lon="6.57493">
        <ele>1360.1</ele>
        <time>2022-07-14T07:16:36+0200</time>
      </trkpt>
      <trkpt lat="44.93739" lon="6.5749">
        <ele>1359.9</ele>
        <time>2022-07-14T07:16:38+0200</time>
      </trkpt>
      <trkpt lat="44.93746" lon="6.5748">
        <ele>1360</ele>
        <time>2022-07-14T07:16:40+0200</time>
      </trkpt>
      <trkpt lat="44.93748" lon="6.57474">
        <ele>1360.1</ele>
        <time>2022-07-14T07:16:41+0200</time>
      </trkpt>
      <trkpt lat="44.93751" lon="6.57469">
        <ele>1360.2</ele>
        <time>2022-07-14T07:16:42+0200</time>
      </trkpt>
      <trkpt lat="44.93756" lon="6.57465">
        <ele>1360.4</ele>
        <time>2022-07-14T07:16:43+0200</time>
      </trkpt>
      <trkpt lat="44.9376" lon="6.57463">
        <ele>1360.6</ele>
        <time>2022-07-14T07:16:44+0200</time>
      </trkpt>
      <trkpt lat="44.93768" lon="6.57455">
        <ele>1360.9</ele>
        <time>2022-07-14T07:16:46+0200</time>
      </trkpt>
      <trkpt lat="44.9377" lon="6.57447">
        <ele>1361.1</ele>
        <time>2022-07-14T07:16:47+0200</time>
      </trkpt>
      <trkpt lat="44.93772" lon="6.5744">
        <ele>1361.4</ele>
        <time>2022-07-14T07:16:48+0200</time>
      </trkpt>
      <trkpt lat="44.93769" lon="6.57434">
        <ele>1361.7</ele>
        <time>2022-07-14T07:16:49+0200</time>
      </trkpt>
      <trkpt lat="44.93765" lon="6.57428">
        <ele>1362.1</ele>
        <time>2022-07-14T07:16:50+0200</time>
      </trkpt>
      <trkpt lat="44.93762" lon="6.57421">
        <ele>1362.4</ele>
        <time>2022-07-14T07:16:51+0200</time>
      </trkpt>
      <trkpt lat="44.93762" lon="6.57413">
        <ele>1362.6</ele>
        <time>2022-07-14T07:16:52+0200</time>
      </trkpt>
      <trkpt lat="44.93763" lon="6.57406">
        <ele>1362.5</ele>
        <time>2022-07-14T07:16:53+0200</time>
      </trkpt>
      <trkpt lat="44.93765" lon="6.57399">
        <ele>1362.5</ele>
        <time>2022-07-14T07:16:54+0200</time>
      </trkpt>
      <trkpt lat="44.93769" lon="6.57388">
        <ele>1362.4</ele>
        <time>2022-07-14T07:16:56+0200</time>
      </trkpt>
      <trkpt lat="44.93772" lon="6.57382">
        <ele>1362.5</ele>
        <time>2022-07-14T07:16:57+0200</time>
      </trkpt>
      <trkpt lat="44.93774" lon="6.5737">
        <ele>1362.8</ele>
        <time>2022-07-14T07:16:59+0200</time>
      </trkpt>
      <trkpt lat="44.93774" lon="6.57362">
        <ele>1363.1</ele>
        <time>2022-07-14T07:17:00+0200</time>
      </trkpt>
      <trkpt lat="44.93774" lon="6.57349">
        <ele>1363.2</ele>
        <time>2022-07-14T07:17:02+0200</time>
      </trkpt>
      <trkpt lat="44.93773" lon="6.57339">
        <ele>1363.2</ele>
        <time>2022-07-14T07:17:03+0200</time>
      </trkpt>
      <trkpt lat="44.93771" lon="6.57331">
        <ele>1363.2</ele>
        <time>2022-07-14T07:17:04+0200</time>
      </trkpt>
      <trkpt lat="44.93771" lon="6.57323">
        <ele>1363.2</ele>
        <time>2022-07-14T07:17:05+0200</time>
      </trkpt>
      <trkpt lat="44.93773" lon="6.57315">
        <ele>1363.2</ele>
        <time>2022-07-14T07:17:06+0200</time>
      </trkpt>
      <trkpt lat="44.93775" lon="6.57302">
        <ele>1363.1</ele>
        <time>2022-07-14T07:17:08+0200</time>
      </trkpt>
      <trkpt lat="44.93778" lon="6.57297">
        <ele>1363</ele>
        <time>2022-07-14T07:17:09+0200</time>
      </trkpt>
      <trkpt lat="44.93781" lon="6.5729">
        <ele>1363.1</ele>
        <time>2022-07-14T07:17:10+0200</time>
      </trkpt>
      <trkpt lat="44.93781" lon="6.57282">
        <ele>1363.1</ele>
        <time>2022-07-14T07:17:11+0200</time>
      </trkpt>
      <trkpt lat="44.93781" lon="6.5727">
        <ele>1363.4</ele>
        <time>2022-07-14T07:17:13+0200</time>
      </trkpt>
      <trkpt lat="44.93781" lon="6.57263">
        <ele>1363.6</ele>
        <time>2022-07-14T07:17:14+0200</time>
      </trkpt>
      <trkpt lat="44.93784" lon="6.57255">
        <ele>1363.9</ele>
        <time>2022-07-14T07:17:15+0200</time>
      </trkpt>
      <trkpt lat="44.93786" lon="6.57248">
        <ele>1364</ele>
        <time>2022-07-14T07:17:16+0200</time>
      </trkpt>
      <trkpt lat="44.93787" lon="6.57234">
        <ele>1364</ele>
        <time>2022-07-14T07:17:18+0200</time>
      </trkpt>
      <trkpt lat="44.93788" lon="6.57226">
        <ele>1364</ele>
        <time>2022-07-14T07:17:19+0200</time>
      </trkpt>
      <trkpt lat="44.93789" lon="6.57219">
        <ele>1364.1</ele>
        <time>2022-07-14T07:17:20+0200</time>
      </trkpt>
      <trkpt lat="44.93791" lon="6.57212">
        <ele>1364.4</ele>
        <time>2022-07-14T07:17:21+0200</time>
      </trkpt>
      <trkpt lat="44.93794" lon="6.57205">
        <ele>1364.6</ele>
        <time>2022-07-14T07:17:22+0200</time>
      </trkpt>
      <trkpt lat="44.93795" lon="6.57198">
        <ele>1364.9</ele>
        <time>2022-07-14T07:17:23+0200</time>
      </trkpt>
      <trkpt lat="44.93796" lon="6.5719">
        <ele>1365.1</ele>
        <time>2022-07-14T07:17:24+0200</time>
      </trkpt>
      <trkpt lat="44.93798" lon="6.57184">
        <ele>1365.2</ele>
        <time>2022-07-14T07:17:25+0200</time>
      </trkpt>
      <trkpt lat="44.93802" lon="6.57178">
        <ele>1365.1</ele>
        <time>2022-07-14T07:17:26+0200</time>
      </trkpt>
      <trkpt lat="44.93807" lon="6.57172">
        <ele>1365</ele>
        <time>2022-07-14T07:17:27+0200</time>
      </trkpt>
      <trkpt lat="44.93809" lon="6.57166">
        <ele>1365.2</ele>
        <time>2022-07-14T07:17:28+0200</time>
      </trkpt>
      <trkpt lat="44.9381" lon="6.5716">
        <ele>1365.6</ele>
        <time>2022-07-14T07:17:29+0200</time>
      </trkpt>
      <trkpt lat="44.93812" lon="6.57154">
        <ele>1365.9</ele>
        <time>2022-07-14T07:17:30+0200</time>
      </trkpt>
      <trkpt lat="44.93815" lon="6.57149">
        <ele>1366.2</ele>
        <time>2022-07-14T07:17:31+0200</time>
      </trkpt>
      <trkpt lat="44.93817" lon="6.57143">
        <ele>1366.4</ele>
        <time>2022-07-14T07:17:32+0200</time>
      </trkpt>
      <trkpt lat="44.9382" lon="6.57133">
        <ele>1366.9</ele>
        <time>2022-07-14T07:17:34+0200</time>
      </trkpt>
      <trkpt lat="44.93821" lon="6.57123">
        <ele>1367.6</ele>
        <time>2022-07-14T07:17:36+0200</time>
      </trkpt>
      <trkpt lat="44.93823" lon="6.57116">
        <ele>1367.8</ele>
        <time>2022-07-14T07:17:39+0200</time>
      </trkpt>
      <trkpt lat="44.9382" lon="6.57108">
        <ele>1368.8</ele>
        <time>2022-07-14T07:17:42+0200</time>
      </trkpt>
      <trkpt lat="44.93818" lon="6.57102">
        <ele>1369.8</ele>
        <time>2022-07-14T07:17:45+0200</time>
      </trkpt>
      <trkpt lat="44.93817" lon="6.57092">
        <ele>1370.9</ele>
        <time>2022-07-14T07:17:49+0200</time>
      </trkpt>
      <trkpt lat="44.93816" lon="6.57085">
        <ele>1372.1</ele>
        <time>2022-07-14T07:17:52+0200</time>
      </trkpt>
      <trkpt lat="44.93819" lon="6.57077">
        <ele>1372.9</ele>
        <time>2022-07-14T07:17:57+0200</time>
      </trkpt>
      <trkpt lat="44.93823" lon="6.57071">
        <ele>1373.1</ele>
        <time>2022-07-14T07:18:00+0200</time>
      </trkpt>
      <trkpt lat="44.93825" lon="6.57064">
        <ele>1373.6</ele>
        <time>2022-07-14T07:18:03+0200</time>
      </trkpt>
      <trkpt lat="44.93828" lon="6.57055">
        <ele>1374.4</ele>
        <time>2022-07-14T07:18:06+0200</time>
      </trkpt>
      <trkpt lat="44.93832" lon="6.57048">
        <ele>1375</ele>
        <time>2022-07-14T07:18:08+0200</time>
      </trkpt>
      <trkpt lat="44.93836" lon="6.57042">
        <ele>1375</ele>
        <time>2022-07-14T07:18:10+0200</time>
      </trkpt>
      <trkpt lat="44.93842" lon="6.57036">
        <ele>1375.1</ele>
        <time>2022-07-14T07:18:12+0200</time>
      </trkpt>
      <trkpt lat="44.93848" lon="6.5703">
        <ele>1375.1</ele>
        <time>2022-07-14T07:18:14+0200</time>
      </trkpt>
      <trkpt lat="44.93854" lon="6.57022">
        <ele>1375.3</ele>
        <time>2022-07-14T07:18:16+0200</time>
      </trkpt>
      <trkpt lat="44.93858" lon="6.57013">
        <ele>1376.3</ele>
        <time>2022-07-14T07:18:18+0200</time>
      </trkpt>
      <trkpt lat="44.93862" lon="6.57007">
        <ele>1376.7</ele>
        <time>2022-07-14T07:18:20+0200</time>
      </trkpt>
      <trkpt lat="44.93863" lon="6.57001">
        <ele>1377.6</ele>
        <time>2022-07-14T07:18:22+0200</time>
      </trkpt>
      <trkpt lat="44.93863" lon="6.56994">
        <ele>1378.7</ele>
        <time>2022-07-14T07:18:25+0200</time>
      </trkpt>
      <trkpt lat="44.93867" lon="6.56986">
        <ele>1379.5</ele>
        <time>2022-07-14T07:18:28+0200</time>
      </trkpt>
      <trkpt lat="44.9387" lon="6.56979">
        <ele>1380.2</ele>
        <time>2022-07-14T07:18:31+0200</time>
      </trkpt>
      <trkpt lat="44.93872" lon="6.56974">
        <ele>1380.8</ele>
        <time>2022-07-14T07:18:34+0200</time>
      </trkpt>
      <trkpt lat="44.93877" lon="6.56972">
        <ele>1380.1</ele>
        <time>2022-07-14T07:18:36+0200</time>
      </trkpt>
      <trkpt lat="44.93882" lon="6.56968">
        <ele>1380.2</ele>
        <time>2022-07-14T07:18:39+0200</time>
      </trkpt>
      <trkpt lat="44.93887" lon="6.56966">
        <ele>1379.7</ele>
        <time>2022-07-14T07:18:42+0200</time>
      </trkpt>
      <trkpt lat="44.93891" lon="6.56962">
        <ele>1380</ele>
        <time>2022-07-14T07:18:44+0200</time>
      </trkpt>
      <trkpt lat="44.93894" lon="6.56957">
        <ele>1380.5</ele>
        <time>2022-07-14T07:18:47+0200</time>
      </trkpt>
      <trkpt lat="44.939" lon="6.56954">
        <ele>1380.3</ele>
        <time>2022-07-14T07:18:50+0200</time>
      </trkpt>
      <trkpt lat="44.93903" lon="6.56949">
        <ele>1380.6</ele>
        <time>2022-07-14T07:18:52+0200</time>
      </trkpt>
      <trkpt lat="44.93906" lon="6.56942">
        <ele>1381.5</ele>
        <time>2022-07-14T07:18:54+0200</time>
      </trkpt>
      <trkpt lat="44.93907" lon="6.56935">
        <ele>1382.5</ele>
        <time>2022-07-14T07:18:56+0200</time>
      </trkpt>
      <trkpt lat="44.93908" lon="6.56928">
        <ele>1383.6</ele>
        <time>2022-07-14T07:18:58+0200</time>
      </trkpt>
      <trkpt lat="44.93909" lon="6.56921">
        <ele>1384.7</ele>
        <time>2022-07-14T07:19:00+0200</time>
      </trkpt>
      <trkpt lat="44.93911" lon="6.56912">
        <ele>1385.6</ele>
        <time>2022-07-14T07:19:02+0200</time>
      </trkpt>
      <trkpt lat="44.93914" lon="6.56902">
        <ele>1386.7</ele>
        <time>2022-07-14T07:19:04+0200</time>
      </trkpt>
      <trkpt lat="44.93916" lon="6.56891">
        <ele>1387.9</ele>
        <time>2022-07-14T07:19:06+0200</time>
      </trkpt>
      <trkpt lat="44.93919" lon="6.56878">
        <ele>1388.3</ele>
        <time>2022-07-14T07:19:08+0200</time>
      </trkpt>
      <trkpt lat="44.93921" lon="6.5687">
        <ele>1388.6</ele>
        <time>2022-07-14T07:19:09+0200</time>
      </trkpt>
      <trkpt lat="44.93924" lon="6.56864">
        <ele>1388.7</ele>
        <time>2022-07-14T07:19:10+0200</time>
      </trkpt>
      <trkpt lat="44.93928" lon="6.56861">
        <ele>1388.3</ele>
        <time>2022-07-14T07:19:11+0200</time>
      </trkpt>
      <trkpt lat="44.93932" lon="6.56857">
        <ele>1388.1</ele>
        <time>2022-07-14T07:19:12+0200</time>
      </trkpt>
      <trkpt lat="44.93937" lon="6.56854">
        <ele>1387.6</ele>
        <time>2022-07-14T07:19:13+0200</time>
      </trkpt>
      <trkpt lat="44.93942" lon="6.56854">
        <ele>1386.9</ele>
        <time>2022-07-14T07:19:14+0200</time>
      </trkpt>
      <trkpt lat="44.93947" lon="6.56853">
        <ele>1386.2</ele>
        <time>2022-07-14T07:19:15+0200</time>
      </trkpt>
      <trkpt lat="44.93955" lon="6.56854">
        <ele>1385.1</ele>
        <time>2022-07-14T07:19:17+0200</time>
      </trkpt>
      <trkpt lat="44.93963" lon="6.56852">
        <ele>1384.2</ele>
        <time>2022-07-14T07:19:19+0200</time>
      </trkpt>
      <trkpt lat="44.93969" lon="6.56852">
        <ele>1383.4</ele>
        <time>2022-07-14T07:19:21+0200</time>
      </trkpt>
      <trkpt lat="44.93973" lon="6.56849">
        <ele>1383.2</ele>
        <time>2022-07-14T07:19:22+0200</time>
      </trkpt>
      <trkpt lat="44.93977" lon="6.56845">
        <ele>1383.2</ele>
        <time>2022-07-14T07:19:23+0200</time>
      </trkpt>
      <trkpt lat="44.93979" lon="6.56839">
        <ele>1383.6</ele>
        <time>2022-07-14T07:19:24+0200</time>
      </trkpt>
      <trkpt lat="44.93983" lon="6.56827">
        <ele>1384.8</ele>
        <time>2022-07-14T07:19:26+0200</time>
      </trkpt>
      <trkpt lat="44.93986" lon="6.56816">
        <ele>1386.1</ele>
        <time>2022-07-14T07:19:28+0200</time>
      </trkpt>
      <trkpt lat="44.93989" lon="6.56806">
        <ele>1387.2</ele>
        <time>2022-07-14T07:19:30+0200</time>
      </trkpt>
      <trkpt lat="44.93994" lon="6.56798">
        <ele>1387.5</ele>
        <time>2022-07-14T07:19:32+0200</time>
      </trkpt>
      <trkpt lat="44.93999" lon="6.56792">
        <ele>1387.6</ele>
        <time>2022-07-14T07:19:34+0200</time>
      </trkpt>
      <trkpt lat="44.94004" lon="6.56786">
        <ele>1387.7</ele>
        <time>2022-07-14T07:19:36+0200</time>
      </trkpt>
      <trkpt lat="44.94009" lon="6.56779">
        <ele>1387.9</ele>
        <time>2022-07-14T07:19:38+0200</time>
      </trkpt>
      <trkpt lat="44.94013" lon="6.56772">
        <ele>1388.4</ele>
        <time>2022-07-14T07:19:40+0200</time>
      </trkpt>
      <trkpt lat="44.94017" lon="6.56762">
        <ele>1389.4</ele>
        <time>2022-07-14T07:19:42+0200</time>
      </trkpt>
      <trkpt lat="44.94021" lon="6.56758">
        <ele>1389.7</ele>
        <time>2022-07-14T07:19:44+0200</time>
      </trkpt>
      <trkpt lat="44.94025" lon="6.56751">
        <ele>1390.2</ele>
        <time>2022-07-14T07:19:46+0200</time>
      </trkpt>
      <trkpt lat="44.94029" lon="6.56743">
        <ele>1391</ele>
        <time>2022-07-14T07:19:48+0200</time>
      </trkpt>
      <trkpt lat="44.94032" lon="6.56737">
        <ele>1391.3</ele>
        <time>2022-07-14T07:19:50+0200</time>
      </trkpt>
      <trkpt lat="44.94036" lon="6.56731">
        <ele>1391.5</ele>
        <time>2022-07-14T07:19:52+0200</time>
      </trkpt>
      <trkpt lat="44.9404" lon="6.56727">
        <ele>1391.6</ele>
        <time>2022-07-14T07:19:54+0200</time>
      </trkpt>
      <trkpt lat="44.94044" lon="6.56722">
        <ele>1391.8</ele>
        <time>2022-07-14T07:19:57+0200</time>
      </trkpt>
      <trkpt lat="44.94046" lon="6.56714">
        <ele>1392.5</ele>
        <time>2022-07-14T07:19:59+0200</time>
      </trkpt>
      <trkpt lat="44.94051" lon="6.56709">
        <ele>1392.5</ele>
        <time>2022-07-14T07:20:01+0200</time>
      </trkpt>
      <trkpt lat="44.94055" lon="6.56701">
        <ele>1393.2</ele>
        <time>2022-07-14T07:20:04+0200</time>
      </trkpt>
      <trkpt lat="44.94058" lon="6.56693">
        <ele>1394</ele>
        <time>2022-07-14T07:20:06+0200</time>
      </trkpt>
      <trkpt lat="44.94061" lon="6.56686">
        <ele>1394.7</ele>
        <time>2022-07-14T07:20:08+0200</time>
      </trkpt>
      <trkpt lat="44.94064" lon="6.56677">
        <ele>1395.5</ele>
        <time>2022-07-14T07:20:10+0200</time>
      </trkpt>
      <trkpt lat="44.94067" lon="6.56672">
        <ele>1395.6</ele>
        <time>2022-07-14T07:20:12+0200</time>
      </trkpt>
      <trkpt lat="44.94071" lon="6.56665">
        <ele>1396</ele>
        <time>2022-07-14T07:20:14+0200</time>
      </trkpt>
      <trkpt lat="44.94075" lon="6.56659">
        <ele>1396.2</ele>
        <time>2022-07-14T07:20:16+0200</time>
      </trkpt>
      <trkpt lat="44.9408" lon="6.56658">
        <ele>1395.5</ele>
        <time>2022-07-14T07:20:18+0200</time>
      </trkpt>
      <trkpt lat="44.94085" lon="6.56655">
        <ele>1395.1</ele>
        <time>2022-07-14T07:20:20+0200</time>
      </trkpt>
      <trkpt lat="44.9409" lon="6.56654">
        <ele>1394.6</ele>
        <time>2022-07-14T07:20:21+0200</time>
      </trkpt>
      <trkpt lat="44.94099" lon="6.56651">
        <ele>1393.9</ele>
        <time>2022-07-14T07:20:23+0200</time>
      </trkpt>
      <trkpt lat="44.94105" lon="6.5665">
        <ele>1393.5</ele>
        <time>2022-07-14T07:20:24+0200</time>
      </trkpt>
      <trkpt lat="44.9411" lon="6.56646">
        <ele>1393.3</ele>
        <time>2022-07-14T07:20:25+0200</time>
      </trkpt>
      <trkpt lat="44.94116" lon="6.56642">
        <ele>1393.1</ele>
        <time>2022-07-14T07:20:26+0200</time>
      </trkpt>
      <trkpt lat="44.94123" lon="6.56641">
        <ele>1392.6</ele>
        <time>2022-07-14T07:20:27+0200</time>
      </trkpt>
      <trkpt lat="44.94131" lon="6.5664">
        <ele>1391.8</ele>
        <time>2022-07-14T07:20:28+0200</time>
      </trkpt>
      <trkpt lat="44.94141" lon="6.5664">
        <ele>1390.8</ele>
        <time>2022-07-14T07:20:29+0200</time>
      </trkpt>
      <trkpt lat="44.94149" lon="6.56645">
        <ele>1389.9</ele>
        <time>2022-07-14T07:20:30+0200</time>
      </trkpt>
      <trkpt lat="44.94158" lon="6.56649">
        <ele>1389.1</ele>
        <time>2022-07-14T07:20:31+0200</time>
      </trkpt>
      <trkpt lat="44.94168" lon="6.56648">
        <ele>1388.6</ele>
        <time>2022-07-14T07:20:32+0200</time>
      </trkpt>
      <trkpt lat="44.94178" lon="6.56644">
        <ele>1388.4</ele>
        <time>2022-07-14T07:20:33+0200</time>
      </trkpt>
      <trkpt lat="44.94186" lon="6.56637">
        <ele>1388.4</ele>
        <time>2022-07-14T07:20:34+0200</time>
      </trkpt>
      <trkpt lat="44.94193" lon="6.56631">
        <ele>1388.4</ele>
        <time>2022-07-14T07:20:35+0200</time>
      </trkpt>
      <trkpt lat="44.94199" lon="6.56623">
        <ele>1388.4</ele>
        <time>2022-07-14T07:20:36+0200</time>
      </trkpt>
      <trkpt lat="44.94205" lon="6.56616">
        <ele>1388.4</ele>
        <time>2022-07-14T07:20:37+0200</time>
      </trkpt>
      <trkpt lat="44.94211" lon="6.5661">
        <ele>1388.5</ele>
        <time>2022-07-14T07:20:38+0200</time>
      </trkpt>
      <trkpt lat="44.94217" lon="6.56604">
        <ele>1388.8</ele>
        <time>2022-07-14T07:20:39+0200</time>
      </trkpt>
      <trkpt lat="44.94222" lon="6.56597">
        <ele>1389</ele>
        <time>2022-07-14T07:20:40+0200</time>
      </trkpt>
      <trkpt lat="44.94228" lon="6.56592">
        <ele>1389</ele>
        <time>2022-07-14T07:20:41+0200</time>
      </trkpt>
      <trkpt lat="44.94233" lon="6.56587">
        <ele>1389</ele>
        <time>2022-07-14T07:20:42+0200</time>
      </trkpt>
      <trkpt lat="44.94238" lon="6.56581">
        <ele>1389</ele>
        <time>2022-07-14T07:20:43+0200</time>
      </trkpt>
      <trkpt lat="44.94243" lon="6.56577">
        <ele>1389</ele>
        <time>2022-07-14T07:20:44+0200</time>
      </trkpt>
      <trkpt lat="44.94248" lon="6.5657">
        <ele>1389.1</ele>
        <time>2022-07-14T07:20:45+0200</time>
      </trkpt>
      <trkpt lat="44.94254" lon="6.56565">
        <ele>1389.1</ele>
        <time>2022-07-14T07:20:46+0200</time>
      </trkpt>
      <trkpt lat="44.94258" lon="6.56559">
        <ele>1389.2</ele>
        <time>2022-07-14T07:20:47+0200</time>
      </trkpt>
      <trkpt lat="44.94264" lon="6.56554">
        <ele>1389.1</ele>
        <time>2022-07-14T07:20:48+0200</time>
      </trkpt>
      <trkpt lat="44.94268" lon="6.56548">
        <ele>1389.3</ele>
        <time>2022-07-14T07:20:49+0200</time>
      </trkpt>
      <trkpt lat="44.94274" lon="6.56543">
        <ele>1389.2</ele>
        <time>2022-07-14T07:20:50+0200</time>
      </trkpt>
      <trkpt lat="44.9428" lon="6.56538">
        <ele>1389.1</ele>
        <time>2022-07-14T07:20:51+0200</time>
      </trkpt>
      <trkpt lat="44.94284" lon="6.56532">
        <ele>1389.2</ele>
        <time>2022-07-14T07:20:52+0200</time>
      </trkpt>
      <trkpt lat="44.94288" lon="6.56527">
        <ele>1389.3</ele>
        <time>2022-07-14T07:20:53+0200</time>
      </trkpt>
      <trkpt lat="44.94293" lon="6.56522">
        <ele>1389.4</ele>
        <time>2022-07-14T07:20:54+0200</time>
      </trkpt>
      <trkpt lat="44.94298" lon="6.56516">
        <ele>1389.5</ele>
        <time>2022-07-14T07:20:55+0200</time>
      </trkpt>
      <trkpt lat="44.94303" lon="6.56512">
        <ele>1389.4</ele>
        <time>2022-07-14T07:20:56+0200</time>
      </trkpt>
      <trkpt lat="44.9431" lon="6.56509">
        <ele>1388.9</ele>
        <time>2022-07-14T07:20:57+0200</time>
      </trkpt>
      <trkpt lat="44.94316" lon="6.56503">
        <ele>1388.6</ele>
        <time>2022-07-14T07:20:58+0200</time>
      </trkpt>
      <trkpt lat="44.94322" lon="6.56496">
        <ele>1388.6</ele>
        <time>2022-07-14T07:20:59+0200</time>
      </trkpt>
      <trkpt lat="44.94328" lon="6.5649">
        <ele>1388.3</ele>
        <time>2022-07-14T07:21:00+0200</time>
      </trkpt>
      <trkpt lat="44.94333" lon="6.56485">
        <ele>1388.1</ele>
        <time>2022-07-14T07:21:01+0200</time>
      </trkpt>
      <trkpt lat="44.94338" lon="6.56479">
        <ele>1387.9</ele>
        <time>2022-07-14T07:21:02+0200</time>
      </trkpt>
      <trkpt lat="44.94341" lon="6.56471">
        <ele>1387.9</ele>
        <time>2022-07-14T07:21:03+0200</time>
      </trkpt>
      <trkpt lat="44.94343" lon="6.56463">
        <ele>1387.9</ele>
        <time>2022-07-14T07:21:04+0200</time>
      </trkpt>
      <trkpt lat="44.94345" lon="6.56454">
        <ele>1387.9</ele>
        <time>2022-07-14T07:21:05+0200</time>
      </trkpt>
      <trkpt lat="44.94348" lon="6.56446">
        <ele>1387.9</ele>
        <time>2022-07-14T07:21:06+0200</time>
      </trkpt>
      <trkpt lat="44.94349" lon="6.56437">
        <ele>1388.2</ele>
        <time>2022-07-14T07:21:07+0200</time>
      </trkpt>
      <trkpt lat="44.9435" lon="6.56428">
        <ele>1388.5</ele>
        <time>2022-07-14T07:21:08+0200</time>
      </trkpt>
      <trkpt lat="44.94352" lon="6.5642">
        <ele>1388.8</ele>
        <time>2022-07-14T07:21:09+0200</time>
      </trkpt>
      <trkpt lat="44.94353" lon="6.56412">
        <ele>1389</ele>
        <time>2022-07-14T07:21:10+0200</time>
      </trkpt>
      <trkpt lat="44.94354" lon="6.56404">
        <ele>1389.2</ele>
        <time>2022-07-14T07:21:11+0200</time>
      </trkpt>
      <trkpt lat="44.94357" lon="6.56396">
        <ele>1389.3</ele>
        <time>2022-07-14T07:21:12+0200</time>
      </trkpt>
      <trkpt lat="44.94359" lon="6.56387">
        <ele>1389.3</ele>
        <time>2022-07-14T07:21:13+0200</time>
      </trkpt>
      <trkpt lat="44.9436" lon="6.56379">
        <ele>1389.4</ele>
        <time>2022-07-14T07:21:14+0200</time>
      </trkpt>
      <trkpt lat="44.94361" lon="6.56372">
        <ele>1389.6</ele>
        <time>2022-07-14T07:21:15+0200</time>
      </trkpt>
      <trkpt lat="44.94363" lon="6.56365">
        <ele>1389.7</ele>
        <time>2022-07-14T07:21:16+0200</time>
      </trkpt>
      <trkpt lat="44.9437" lon="6.56357">
        <ele>1389.1</ele>
        <time>2022-07-14T07:21:18+0200</time>
      </trkpt>
      <trkpt lat="44.94375" lon="6.56359">
        <ele>1388.5</ele>
        <time>2022-07-14T07:21:19+0200</time>
      </trkpt>
      <trkpt lat="44.94381" lon="6.56357">
        <ele>1387.9</ele>
        <time>2022-07-14T07:21:20+0200</time>
      </trkpt>
      <trkpt lat="44.94386" lon="6.56355">
        <ele>1387.5</ele>
        <time>2022-07-14T07:21:21+0200</time>
      </trkpt>
      <trkpt lat="44.94392" lon="6.56352">
        <ele>1387</ele>
        <time>2022-07-14T07:21:22+0200</time>
      </trkpt>
      <trkpt lat="44.94399" lon="6.56354">
        <ele>1386.1</ele>
        <time>2022-07-14T07:21:23+0200</time>
      </trkpt>
      <trkpt lat="44.94405" lon="6.56361">
        <ele>1385.3</ele>
        <time>2022-07-14T07:21:24+0200</time>
      </trkpt>
      <trkpt lat="44.94407" lon="6.56373">
        <ele>1384.2</ele>
        <time>2022-07-14T07:21:25+0200</time>
      </trkpt>
      <trkpt lat="44.94409" lon="6.56384">
        <ele>1383.1</ele>
        <time>2022-07-14T07:21:26+0200</time>
      </trkpt>
      <trkpt lat="44.94417" lon="6.56388">
        <ele>1382</ele>
        <time>2022-07-14T07:21:27+0200</time>
      </trkpt>
      <trkpt lat="44.94425" lon="6.56385">
        <ele>1381.4</ele>
        <time>2022-07-14T07:21:28+0200</time>
      </trkpt>
      <trkpt lat="44.94431" lon="6.56378">
        <ele>1381.3</ele>
        <time>2022-07-14T07:21:29+0200</time>
      </trkpt>
      <trkpt lat="44.94436" lon="6.5637">
        <ele>1381.2</ele>
        <time>2022-07-14T07:21:30+0200</time>
      </trkpt>
      <trkpt lat="44.94442" lon="6.56361">
        <ele>1381.3</ele>
        <time>2022-07-14T07:21:31+0200</time>
      </trkpt>
      <trkpt lat="44.94447" lon="6.56352">
        <ele>1381</ele>
        <time>2022-07-14T07:21:32+0200</time>
      </trkpt>
      <trkpt lat="44.94451" lon="6.56342">
        <ele>1381</ele>
        <time>2022-07-14T07:21:33+0200</time>
      </trkpt>
      <trkpt lat="44.94456" lon="6.56337">
        <ele>1380.6</ele>
        <time>2022-07-14T07:21:34+0200</time>
      </trkpt>
      <trkpt lat="44.94463" lon="6.56334">
        <ele>1380</ele>
        <time>2022-07-14T07:21:35+0200</time>
      </trkpt>
      <trkpt lat="44.94471" lon="6.5633">
        <ele>1379.4</ele>
        <time>2022-07-14T07:21:36+0200</time>
      </trkpt>
      <trkpt lat="44.94474" lon="6.5632">
        <ele>1379.8</ele>
        <time>2022-07-14T07:21:37+0200</time>
      </trkpt>
      <trkpt lat="44.94476" lon="6.5631">
        <ele>1380.3</ele>
        <time>2022-07-14T07:21:38+0200</time>
      </trkpt>
      <trkpt lat="44.94479" lon="6.56299">
        <ele>1380.5</ele>
        <time>2022-07-14T07:21:39+0200</time>
      </trkpt>
      <trkpt lat="44.94481" lon="6.5629">
        <ele>1380.6</ele>
        <time>2022-07-14T07:21:40+0200</time>
      </trkpt>
      <trkpt lat="44.94484" lon="6.5628">
        <ele>1380.7</ele>
        <time>2022-07-14T07:21:41+0200</time>
      </trkpt>
      <trkpt lat="44.94487" lon="6.56271">
        <ele>1380.6</ele>
        <time>2022-07-14T07:21:42+0200</time>
      </trkpt>
      <trkpt lat="44.9449" lon="6.56261">
        <ele>1380.5</ele>
        <time>2022-07-14T07:21:43+0200</time>
      </trkpt>
      <trkpt lat="44.94492" lon="6.56252">
        <ele>1380.5</ele>
        <time>2022-07-14T07:21:44+0200</time>
      </trkpt>
      <trkpt lat="44.94495" lon="6.56243">
        <ele>1380.4</ele>
        <time>2022-07-14T07:21:45+0200</time>
      </trkpt>
      <trkpt lat="44.945" lon="6.56235">
        <ele>1380</ele>
        <time>2022-07-14T07:21:46+0200</time>
      </trkpt>
      <trkpt lat="44.94503" lon="6.56225">
        <ele>1380</ele>
        <time>2022-07-14T07:21:47+0200</time>
      </trkpt>
      <trkpt lat="44.94506" lon="6.56216">
        <ele>1380</ele>
        <time>2022-07-14T07:21:48+0200</time>
      </trkpt>
      <trkpt lat="44.94509" lon="6.56207">
        <ele>1380</ele>
        <time>2022-07-14T07:21:49+0200</time>
      </trkpt>
      <trkpt lat="44.94512" lon="6.56198">
        <ele>1380</ele>
        <time>2022-07-14T07:21:50+0200</time>
      </trkpt>
      <trkpt lat="44.94515" lon="6.5619">
        <ele>1380</ele>
        <time>2022-07-14T07:21:51+0200</time>
      </trkpt>
      <trkpt lat="44.94519" lon="6.56182">
        <ele>1380</ele>
        <time>2022-07-14T07:21:52+0200</time>
      </trkpt>
      <trkpt lat="44.94523" lon="6.56174">
        <ele>1380</ele>
        <time>2022-07-14T07:21:53+0200</time>
      </trkpt>
      <trkpt lat="44.94526" lon="6.56166">
        <ele>1380</ele>
        <time>2022-07-14T07:21:54+0200</time>
      </trkpt>
      <trkpt lat="44.94529" lon="6.56158">
        <ele>1380</ele>
        <time>2022-07-14T07:21:55+0200</time>
      </trkpt>
      <trkpt lat="44.94534" lon="6.56151">
        <ele>1380</ele>
        <time>2022-07-14T07:21:56+0200</time>
      </trkpt>
      <trkpt lat="44.94537" lon="6.56144">
        <ele>1380</ele>
        <time>2022-07-14T07:21:57+0200</time>
      </trkpt>
      <trkpt lat="44.9454" lon="6.56137">
        <ele>1380.1</ele>
        <time>2022-07-14T07:21:58+0200</time>
      </trkpt>
      <trkpt lat="44.94544" lon="6.56131">
        <ele>1380.3</ele>
        <time>2022-07-14T07:21:59+0200</time>
      </trkpt>
      <trkpt lat="44.94548" lon="6.56125">
        <ele>1380.5</ele>
        <time>2022-07-14T07:22:00+0200</time>
      </trkpt>
      <trkpt lat="44.94552" lon="6.5612">
        <ele>1380.7</ele>
        <time>2022-07-14T07:22:01+0200</time>
      </trkpt>
      <trkpt lat="44.94558" lon="6.56115">
        <ele>1380.7</ele>
        <time>2022-07-14T07:22:02+0200</time>
      </trkpt>
      <trkpt lat="44.94563" lon="6.56111">
        <ele>1380.5</ele>
        <time>2022-07-14T07:22:03+0200</time>
      </trkpt>
      <trkpt lat="44.94567" lon="6.56107">
        <ele>1380.2</ele>
        <time>2022-07-14T07:22:04+0200</time>
      </trkpt>
      <trkpt lat="44.94572" lon="6.56101">
        <ele>1380</ele>
        <time>2022-07-14T07:22:05+0200</time>
      </trkpt>
      <trkpt lat="44.94576" lon="6.56093">
        <ele>1380</ele>
        <time>2022-07-14T07:22:06+0200</time>
      </trkpt>
      <trkpt lat="44.94576" lon="6.56083">
        <ele>1380.3</ele>
        <time>2022-07-14T07:22:07+0200</time>
      </trkpt>
      <trkpt lat="44.94573" lon="6.56074">
        <ele>1380.5</ele>
        <time>2022-07-14T07:22:08+0200</time>
      </trkpt>
      <trkpt lat="44.9457" lon="6.56068">
        <ele>1380.7</ele>
        <time>2022-07-14T07:22:09+0200</time>
      </trkpt>
      <trkpt lat="44.94564" lon="6.56062">
        <ele>1381.2</ele>
        <time>2022-07-14T07:22:10+0200</time>
      </trkpt>
      <trkpt lat="44.94558" lon="6.56059">
        <ele>1381.7</ele>
        <time>2022-07-14T07:22:11+0200</time>
      </trkpt>
      <trkpt lat="44.94551" lon="6.5606">
        <ele>1381.8</ele>
        <time>2022-07-14T07:22:12+0200</time>
      </trkpt>
      <trkpt lat="44.94545" lon="6.56061">
        <ele>1381.8</ele>
        <time>2022-07-14T07:22:13+0200</time>
      </trkpt>
      <trkpt lat="44.94538" lon="6.56063">
        <ele>1381.7</ele>
        <time>2022-07-14T07:22:14+0200</time>
      </trkpt>
      <trkpt lat="44.94531" lon="6.56064">
        <ele>1381.7</ele>
        <time>2022-07-14T07:22:15+0200</time>
      </trkpt>
      <trkpt lat="44.94526" lon="6.56063">
        <ele>1381.8</ele>
        <time>2022-07-14T07:22:16+0200</time>
      </trkpt>
      <trkpt lat="44.94521" lon="6.5606">
        <ele>1382.1</ele>
        <time>2022-07-14T07:22:17+0200</time>
      </trkpt>
      <trkpt lat="44.94518" lon="6.56054">
        <ele>1382.4</ele>
        <time>2022-07-14T07:22:18+0200</time>
      </trkpt>
      <trkpt lat="44.94518" lon="6.56047">
        <ele>1382.6</ele>
        <time>2022-07-14T07:22:19+0200</time>
      </trkpt>
      <trkpt lat="44.94519" lon="6.5604">
        <ele>1382.7</ele>
        <time>2022-07-14T07:22:20+0200</time>
      </trkpt>
      <trkpt lat="44.94521" lon="6.56034">
        <ele>1382.8</ele>
        <time>2022-07-14T07:22:21+0200</time>
      </trkpt>
      <trkpt lat="44.94525" lon="6.56028">
        <ele>1383</ele>
        <time>2022-07-14T07:22:22+0200</time>
      </trkpt>
      <trkpt lat="44.94529" lon="6.56021">
        <ele>1383.2</ele>
        <time>2022-07-14T07:22:23+0200</time>
      </trkpt>
      <trkpt lat="44.94532" lon="6.56015">
        <ele>1383.2</ele>
        <time>2022-07-14T07:22:24+0200</time>
      </trkpt>
      <trkpt lat="44.94535" lon="6.56009">
        <ele>1383.3</ele>
        <time>2022-07-14T07:22:25+0200</time>
      </trkpt>
      <trkpt lat="44.94539" lon="6.56003">
        <ele>1383.1</ele>
        <time>2022-07-14T07:22:26+0200</time>
      </trkpt>
      <trkpt lat="44.94543" lon="6.55996">
        <ele>1383</ele>
        <time>2022-07-14T07:22:27+0200</time>
      </trkpt>
      <trkpt lat="44.94546" lon="6.55989">
        <ele>1382.9</ele>
        <time>2022-07-14T07:22:28+0200</time>
      </trkpt>
      <trkpt lat="44.94549" lon="6.55984">
        <ele>1382.9</ele>
        <time>2022-07-14T07:22:29+0200</time>
      </trkpt>
      <trkpt lat="44.94553" lon="6.55978">
        <ele>1382.9</ele>
        <time>2022-07-14T07:22:30+0200</time>
      </trkpt>
      <trkpt lat="44.94557" lon="6.55973">
        <ele>1383</ele>
        <time>2022-07-14T07:22:31+0200</time>
      </trkpt>
      <trkpt lat="44.94561" lon="6.55966">
        <ele>1383.2</ele>
        <time>2022-07-14T07:22:32+0200</time>
      </trkpt>
      <trkpt lat="44.94566" lon="6.55962">
        <ele>1383.2</ele>
        <time>2022-07-14T07:22:33+0200</time>
      </trkpt>
      <trkpt lat="44.94571" lon="6.55955">
        <ele>1383.3</ele>
        <time>2022-07-14T07:22:34+0200</time>
      </trkpt>
      <trkpt lat="44.94574" lon="6.55949">
        <ele>1383.3</ele>
        <time>2022-07-14T07:22:35+0200</time>
      </trkpt>
      <trkpt lat="44.94578" lon="6.55944">
        <ele>1383.2</ele>
        <time>2022-07-14T07:22:36+0200</time>
      </trkpt>
      <trkpt lat="44.94582" lon="6.55937">
        <ele>1383.3</ele>
        <time>2022-07-14T07:22:37+0200</time>
      </trkpt>
      <trkpt lat="44.94587" lon="6.55931">
        <ele>1383.4</ele>
        <time>2022-07-14T07:22:38+0200</time>
      </trkpt>
      <trkpt lat="44.94591" lon="6.55925">
        <ele>1383.5</ele>
        <time>2022-07-14T07:22:39+0200</time>
      </trkpt>
      <trkpt lat="44.94595" lon="6.55919">
        <ele>1383.5</ele>
        <time>2022-07-14T07:22:40+0200</time>
      </trkpt>
      <trkpt lat="44.94599" lon="6.55912">
        <ele>1383.4</ele>
        <time>2022-07-14T07:22:41+0200</time>
      </trkpt>
      <trkpt lat="44.94604" lon="6.55906">
        <ele>1383.3</ele>
        <time>2022-07-14T07:22:42+0200</time>
      </trkpt>
      <trkpt lat="44.94608" lon="6.559">
        <ele>1383.1</ele>
        <time>2022-07-14T07:22:43+0200</time>
      </trkpt>
      <trkpt lat="44.94612" lon="6.55893">
        <ele>1383</ele>
        <time>2022-07-14T07:22:44+0200</time>
      </trkpt>
      <trkpt lat="44.94617" lon="6.55886">
        <ele>1383.1</ele>
        <time>2022-07-14T07:22:45+0200</time>
      </trkpt>
      <trkpt lat="44.94622" lon="6.5588">
        <ele>1383.2</ele>
        <time>2022-07-14T07:22:46+0200</time>
      </trkpt>
      <trkpt lat="44.94626" lon="6.55872">
        <ele>1383.3</ele>
        <time>2022-07-14T07:22:47+0200</time>
      </trkpt>
      <trkpt lat="44.9463" lon="6.55865">
        <ele>1383.3</ele>
        <time>2022-07-14T07:22:48+0200</time>
      </trkpt>
      <trkpt lat="44.94635" lon="6.55858">
        <ele>1383.3</ele>
        <time>2022-07-14T07:22:49+0200</time>
      </trkpt>
      <trkpt lat="44.94639" lon="6.55851">
        <ele>1383.4</ele>
        <time>2022-07-14T07:22:50+0200</time>
      </trkpt>
      <trkpt lat="44.94644" lon="6.55844">
        <ele>1383.5</ele>
        <time>2022-07-14T07:22:51+0200</time>
      </trkpt>
      <trkpt lat="44.94649" lon="6.55837">
        <ele>1383.5</ele>
        <time>2022-07-14T07:22:52+0200</time>
      </trkpt>
      <trkpt lat="44.94653" lon="6.5583">
        <ele>1383.5</ele>
        <time>2022-07-14T07:22:53+0200</time>
      </trkpt>
      <trkpt lat="44.94658" lon="6.55823">
        <ele>1383.6</ele>
        <time>2022-07-14T07:22:54+0200</time>
      </trkpt>
      <trkpt lat="44.94662" lon="6.55817">
        <ele>1383.6</ele>
        <time>2022-07-14T07:22:55+0200</time>
      </trkpt>
      <trkpt lat="44.94666" lon="6.55811">
        <ele>1383.8</ele>
        <time>2022-07-14T07:22:56+0200</time>
      </trkpt>
      <trkpt lat="44.9467" lon="6.55805">
        <ele>1384</ele>
        <time>2022-07-14T07:22:57+0200</time>
      </trkpt>
      <trkpt lat="44.94675" lon="6.55798">
        <ele>1384</ele>
        <time>2022-07-14T07:22:58+0200</time>
      </trkpt>
      <trkpt lat="44.94679" lon="6.55791">
        <ele>1384</ele>
        <time>2022-07-14T07:22:59+0200</time>
      </trkpt>
      <trkpt lat="44.94683" lon="6.55785">
        <ele>1384</ele>
        <time>2022-07-14T07:23:00+0200</time>
      </trkpt>
      <trkpt lat="44.94689" lon="6.55781">
        <ele>1384</ele>
        <time>2022-07-14T07:23:01+0200</time>
      </trkpt>
      <trkpt lat="44.94696" lon="6.5578">
        <ele>1384</ele>
        <time>2022-07-14T07:23:02+0200</time>
      </trkpt>
      <trkpt lat="44.94703" lon="6.55782">
        <ele>1384</ele>
        <time>2022-07-14T07:23:03+0200</time>
      </trkpt>
      <trkpt lat="44.94709" lon="6.55784">
        <ele>1383.9</ele>
        <time>2022-07-14T07:23:04+0200</time>
      </trkpt>
      <trkpt lat="44.94715" lon="6.55784">
        <ele>1383.8</ele>
        <time>2022-07-14T07:23:05+0200</time>
      </trkpt>
      <trkpt lat="44.9472" lon="6.55785">
        <ele>1383.8</ele>
        <time>2022-07-14T07:23:06+0200</time>
      </trkpt>
      <trkpt lat="44.94726" lon="6.55782">
        <ele>1383.6</ele>
        <time>2022-07-14T07:23:07+0200</time>
      </trkpt>
      <trkpt lat="44.94731" lon="6.55777">
        <ele>1383.4</ele>
        <time>2022-07-14T07:23:08+0200</time>
      </trkpt>
      <trkpt lat="44.94736" lon="6.55771">
        <ele>1383.1</ele>
        <time>2022-07-14T07:23:09+0200</time>
      </trkpt>
      <trkpt lat="44.9474" lon="6.55763">
        <ele>1383.1</ele>
        <time>2022-07-14T07:23:10+0200</time>
      </trkpt>
      <trkpt lat="44.94743" lon="6.55755">
        <ele>1383.1</ele>
        <time>2022-07-14T07:23:11+0200</time>
      </trkpt>
      <trkpt lat="44.94746" lon="6.55748">
        <ele>1383.2</ele>
        <time>2022-07-14T07:23:12+0200</time>
      </trkpt>
      <trkpt lat="44.94749" lon="6.55741">
        <ele>1383.4</ele>
        <time>2022-07-14T07:23:13+0200</time>
      </trkpt>
      <trkpt lat="44.94752" lon="6.55733">
        <ele>1383.5</ele>
        <time>2022-07-14T07:23:14+0200</time>
      </trkpt>
      <trkpt lat="44.94755" lon="6.55726">
        <ele>1383.5</ele>
        <time>2022-07-14T07:23:15+0200</time>
      </trkpt>
      <trkpt lat="44.94757" lon="6.55718">
        <ele>1383.6</ele>
        <time>2022-07-14T07:23:16+0200</time>
      </trkpt>
      <trkpt lat="44.94759" lon="6.5571">
        <ele>1383.8</ele>
        <time>2022-07-14T07:23:17+0200</time>
      </trkpt>
      <trkpt lat="44.94762" lon="6.55702">
        <ele>1383.9</ele>
        <time>2022-07-14T07:23:18+0200</time>
      </trkpt>
      <trkpt lat="44.94765" lon="6.55696">
        <ele>1383.9</ele>
        <time>2022-07-14T07:23:19+0200</time>
      </trkpt>
      <trkpt lat="44.9477" lon="6.55691">
        <ele>1383.8</ele>
        <time>2022-07-14T07:23:20+0200</time>
      </trkpt>
      <trkpt lat="44.94774" lon="6.55685">
        <ele>1383.8</ele>
        <time>2022-07-14T07:23:21+0200</time>
      </trkpt>
      <trkpt lat="44.94777" lon="6.55679">
        <ele>1384.1</ele>
        <time>2022-07-14T07:23:22+0200</time>
      </trkpt>
      <trkpt lat="44.94781" lon="6.55672">
        <ele>1384.4</ele>
        <time>2022-07-14T07:23:23+0200</time>
      </trkpt>
      <trkpt lat="44.94784" lon="6.55665">
        <ele>1384.6</ele>
        <time>2022-07-14T07:23:24+0200</time>
      </trkpt>
      <trkpt lat="44.94786" lon="6.55658">
        <ele>1384.5</ele>
        <time>2022-07-14T07:23:25+0200</time>
      </trkpt>
      <trkpt lat="44.94789" lon="6.55651">
        <ele>1384.4</ele>
        <time>2022-07-14T07:23:26+0200</time>
      </trkpt>
      <trkpt lat="44.94792" lon="6.55644">
        <ele>1384.4</ele>
        <time>2022-07-14T07:23:27+0200</time>
      </trkpt>
      <trkpt lat="44.94794" lon="6.55636">
        <ele>1384.5</ele>
        <time>2022-07-14T07:23:28+0200</time>
      </trkpt>
      <trkpt lat="44.94796" lon="6.55629">
        <ele>1384.7</ele>
        <time>2022-07-14T07:23:29+0200</time>
      </trkpt>
      <trkpt lat="44.94797" lon="6.55622">
        <ele>1384.9</ele>
        <time>2022-07-14T07:23:30+0200</time>
      </trkpt>
      <trkpt lat="44.948" lon="6.55616">
        <ele>1385.1</ele>
        <time>2022-07-14T07:23:31+0200</time>
      </trkpt>
      <trkpt lat="44.94803" lon="6.55609">
        <ele>1385.2</ele>
        <time>2022-07-14T07:23:32+0200</time>
      </trkpt>
      <trkpt lat="44.94808" lon="6.556">
        <ele>1385.3</ele>
        <time>2022-07-14T07:23:34+0200</time>
      </trkpt>
      <trkpt lat="44.94814" lon="6.5559">
        <ele>1385.3</ele>
        <time>2022-07-14T07:23:36+0200</time>
      </trkpt>
      <trkpt lat="44.94819" lon="6.55585">
        <ele>1385</ele>
        <time>2022-07-14T07:23:37+0200</time>
      </trkpt>
      <trkpt lat="44.94824" lon="6.55581">
        <ele>1384.7</ele>
        <time>2022-07-14T07:23:38+0200</time>
      </trkpt>
      <trkpt lat="44.94829" lon="6.55575">
        <ele>1384.6</ele>
        <time>2022-07-14T07:23:39+0200</time>
      </trkpt>
      <trkpt lat="44.94833" lon="6.55567">
        <ele>1384.6</ele>
        <time>2022-07-14T07:23:40+0200</time>
      </trkpt>
      <trkpt lat="44.94836" lon="6.55561">
        <ele>1384.8</ele>
        <time>2022-07-14T07:23:41+0200</time>
      </trkpt>
      <trkpt lat="44.94838" lon="6.55553">
        <ele>1385</ele>
        <time>2022-07-14T07:23:42+0200</time>
      </trkpt>
      <trkpt lat="44.9484" lon="6.55547">
        <ele>1385</ele>
        <time>2022-07-14T07:23:43+0200</time>
      </trkpt>
      <trkpt lat="44.94843" lon="6.5554">
        <ele>1385</ele>
        <time>2022-07-14T07:23:44+0200</time>
      </trkpt>
      <trkpt lat="44.94847" lon="6.55535">
        <ele>1385</ele>
        <time>2022-07-14T07:23:45+0200</time>
      </trkpt>
      <trkpt lat="44.94851" lon="6.55529">
        <ele>1385</ele>
        <time>2022-07-14T07:23:46+0200</time>
      </trkpt>
      <trkpt lat="44.94854" lon="6.55523">
        <ele>1385</ele>
        <time>2022-07-14T07:23:47+0200</time>
      </trkpt>
      <trkpt lat="44.94858" lon="6.55516">
        <ele>1385</ele>
        <time>2022-07-14T07:23:48+0200</time>
      </trkpt>
      <trkpt lat="44.94861" lon="6.55509">
        <ele>1385</ele>
        <time>2022-07-14T07:23:49+0200</time>
      </trkpt>
      <trkpt lat="44.94864" lon="6.55503">
        <ele>1385</ele>
        <time>2022-07-14T07:23:50+0200</time>
      </trkpt>
      <trkpt lat="44.94868" lon="6.55498">
        <ele>1385</ele>
        <time>2022-07-14T07:23:51+0200</time>
      </trkpt>
      <trkpt lat="44.94872" lon="6.5549">
        <ele>1385</ele>
        <time>2022-07-14T07:23:52+0200</time>
      </trkpt>
      <trkpt lat="44.94875" lon="6.55484">
        <ele>1385</ele>
        <time>2022-07-14T07:23:53+0200</time>
      </trkpt>
      <trkpt lat="44.94878" lon="6.55477">
        <ele>1385</ele>
        <time>2022-07-14T07:23:54+0200</time>
      </trkpt>
      <trkpt lat="44.94881" lon="6.5547">
        <ele>1385</ele>
        <time>2022-07-14T07:23:55+0200</time>
      </trkpt>
      <trkpt lat="44.94884" lon="6.55464">
        <ele>1385</ele>
        <time>2022-07-14T07:23:56+0200</time>
      </trkpt>
      <trkpt lat="44.94888" lon="6.55457">
        <ele>1385</ele>
        <time>2022-07-14T07:23:57+0200</time>
      </trkpt>
      <trkpt lat="44.94891" lon="6.5545">
        <ele>1385.1</ele>
        <time>2022-07-14T07:23:58+0200</time>
      </trkpt>
      <trkpt lat="44.94894" lon="6.55444">
        <ele>1385.2</ele>
        <time>2022-07-14T07:23:59+0200</time>
      </trkpt>
      <trkpt lat="44.94898" lon="6.55438">
        <ele>1385.3</ele>
        <time>2022-07-14T07:24:00+0200</time>
      </trkpt>
      <trkpt lat="44.94902" lon="6.55431">
        <ele>1385.5</ele>
        <time>2022-07-14T07:24:01+0200</time>
      </trkpt>
      <trkpt lat="44.94906" lon="6.55425">
        <ele>1385.6</ele>
        <time>2022-07-14T07:24:02+0200</time>
      </trkpt>
      <trkpt lat="44.94909" lon="6.5542">
        <ele>1385.7</ele>
        <time>2022-07-14T07:24:03+0200</time>
      </trkpt>
      <trkpt lat="44.94913" lon="6.55413">
        <ele>1385.9</ele>
        <time>2022-07-14T07:24:04+0200</time>
      </trkpt>
      <trkpt lat="44.94916" lon="6.55407">
        <ele>1386</ele>
        <time>2022-07-14T07:24:05+0200</time>
      </trkpt>
      <trkpt lat="44.94919" lon="6.55401">
        <ele>1386.1</ele>
        <time>2022-07-14T07:24:06+0200</time>
      </trkpt>
      <trkpt lat="44.94922" lon="6.55394">
        <ele>1386.2</ele>
        <time>2022-07-14T07:24:07+0200</time>
      </trkpt>
      <trkpt lat="44.94925" lon="6.55387">
        <ele>1386.4</ele>
        <time>2022-07-14T07:24:08+0200</time>
      </trkpt>
      <trkpt lat="44.94928" lon="6.55381">
        <ele>1386.6</ele>
        <time>2022-07-14T07:24:09+0200</time>
      </trkpt>
      <trkpt lat="44.9493" lon="6.55374">
        <ele>1386.8</ele>
        <time>2022-07-14T07:24:10+0200</time>
      </trkpt>
      <trkpt lat="44.94934" lon="6.55367">
        <ele>1386.9</ele>
        <time>2022-07-14T07:24:11+0200</time>
      </trkpt>
      <trkpt lat="44.94938" lon="6.55361">
        <ele>1387</ele>
        <time>2022-07-14T07:24:12+0200</time>
      </trkpt>
      <trkpt lat="44.94943" lon="6.55355">
        <ele>1387.2</ele>
        <time>2022-07-14T07:24:13+0200</time>
      </trkpt>
      <trkpt lat="44.94947" lon="6.5535">
        <ele>1387.4</ele>
        <time>2022-07-14T07:24:14+0200</time>
      </trkpt>
      <trkpt lat="44.94952" lon="6.55344">
        <ele>1387.6</ele>
        <time>2022-07-14T07:24:15+0200</time>
      </trkpt>
      <trkpt lat="44.94955" lon="6.55338">
        <ele>1387.6</ele>
        <time>2022-07-14T07:24:16+0200</time>
      </trkpt>
      <trkpt lat="44.94959" lon="6.55332">
        <ele>1387.5</ele>
        <time>2022-07-14T07:24:17+0200</time>
      </trkpt>
      <trkpt lat="44.94963" lon="6.55327">
        <ele>1387.5</ele>
        <time>2022-07-14T07:24:18+0200</time>
      </trkpt>
      <trkpt lat="44.94967" lon="6.55321">
        <ele>1387.6</ele>
        <time>2022-07-14T07:24:19+0200</time>
      </trkpt>
      <trkpt lat="44.9497" lon="6.55315">
        <ele>1387.7</ele>
        <time>2022-07-14T07:24:20+0200</time>
      </trkpt>
      <trkpt lat="44.94973" lon="6.55308">
        <ele>1387.9</ele>
        <time>2022-07-14T07:24:21+0200</time>
      </trkpt>
      <trkpt lat="44.94977" lon="6.55301">
        <ele>1388</ele>
        <time>2022-07-14T07:24:22+0200</time>
      </trkpt>
      <trkpt lat="44.94981" lon="6.55296">
        <ele>1387.9</ele>
        <time>2022-07-14T07:24:23+0200</time>
      </trkpt>
      <trkpt lat="44.94985" lon="6.55291">
        <ele>1387.8</ele>
        <time>2022-07-14T07:24:24+0200</time>
      </trkpt>
      <trkpt lat="44.94988" lon="6.55283">
        <ele>1387.5</ele>
        <time>2022-07-14T07:24:25+0200</time>
      </trkpt>
      <trkpt lat="44.94991" lon="6.55277">
        <ele>1387.4</ele>
        <time>2022-07-14T07:24:26+0200</time>
      </trkpt>
      <trkpt lat="44.94994" lon="6.55271">
        <ele>1387.4</ele>
        <time>2022-07-14T07:24:27+0200</time>
      </trkpt>
      <trkpt lat="44.94998" lon="6.55265">
        <ele>1387.5</ele>
        <time>2022-07-14T07:24:28+0200</time>
      </trkpt>
      <trkpt lat="44.95001" lon="6.55258">
        <ele>1387.7</ele>
        <time>2022-07-14T07:24:29+0200</time>
      </trkpt>
      <trkpt lat="44.95004" lon="6.55253">
        <ele>1387.8</ele>
        <time>2022-07-14T07:24:30+0200</time>
      </trkpt>
      <trkpt lat="44.95008" lon="6.55247">
        <ele>1387.7</ele>
        <time>2022-07-14T07:24:31+0200</time>
      </trkpt>
      <trkpt lat="44.95012" lon="6.55242">
        <ele>1387.7</ele>
        <time>2022-07-14T07:24:32+0200</time>
      </trkpt>
      <trkpt lat="44.95015" lon="6.55236">
        <ele>1387.7</ele>
        <time>2022-07-14T07:24:33+0200</time>
      </trkpt>
      <trkpt lat="44.95016" lon="6.55229">
        <ele>1387.9</ele>
        <time>2022-07-14T07:24:34+0200</time>
      </trkpt>
      <trkpt lat="44.95014" lon="6.55222">
        <ele>1388</ele>
        <time>2022-07-14T07:24:35+0200</time>
      </trkpt>
      <trkpt lat="44.95013" lon="6.55215">
        <ele>1388</ele>
        <time>2022-07-14T07:24:36+0200</time>
      </trkpt>
      <trkpt lat="44.95013" lon="6.55208">
        <ele>1388</ele>
        <time>2022-07-14T07:24:37+0200</time>
      </trkpt>
      <trkpt lat="44.95014" lon="6.55196">
        <ele>1388</ele>
        <time>2022-07-14T07:24:39+0200</time>
      </trkpt>
      <trkpt lat="44.95016" lon="6.55189">
        <ele>1388.2</ele>
        <time>2022-07-14T07:24:40+0200</time>
      </trkpt>
      <trkpt lat="44.95019" lon="6.5518">
        <ele>1388.5</ele>
        <time>2022-07-14T07:24:42+0200</time>
      </trkpt>
      <trkpt lat="44.95023" lon="6.55171">
        <ele>1388.9</ele>
        <time>2022-07-14T07:24:44+0200</time>
      </trkpt>
      <trkpt lat="44.95027" lon="6.5516">
        <ele>1389.3</ele>
        <time>2022-07-14T07:24:46+0200</time>
      </trkpt>
      <trkpt lat="44.95029" lon="6.55148">
        <ele>1389.7</ele>
        <time>2022-07-14T07:24:48+0200</time>
      </trkpt>
      <trkpt lat="44.9503" lon="6.55136">
        <ele>1389.9</ele>
        <time>2022-07-14T07:24:50+0200</time>
      </trkpt>
      <trkpt lat="44.95032" lon="6.55125">
        <ele>1389.9</ele>
        <time>2022-07-14T07:24:52+0200</time>
      </trkpt>
      <trkpt lat="44.95037" lon="6.55115">
        <ele>1390</ele>
        <time>2022-07-14T07:24:54+0200</time>
      </trkpt>
      <trkpt lat="44.95045" lon="6.5511">
        <ele>1390</ele>
        <time>2022-07-14T07:24:56+0200</time>
      </trkpt>
      <trkpt lat="44.95048" lon="6.55106">
        <ele>1390</ele>
        <time>2022-07-14T07:24:57+0200</time>
      </trkpt>
      <trkpt lat="44.95052" lon="6.551">
        <ele>1390</ele>
        <time>2022-07-14T07:24:58+0200</time>
      </trkpt>
      <trkpt lat="44.95055" lon="6.55096">
        <ele>1390</ele>
        <time>2022-07-14T07:24:59+0200</time>
      </trkpt>
      <trkpt lat="44.95058" lon="6.5509">
        <ele>1390.1</ele>
        <time>2022-07-14T07:25:00+0200</time>
      </trkpt>
      <trkpt lat="44.95061" lon="6.55083">
        <ele>1390.2</ele>
        <time>2022-07-14T07:25:01+0200</time>
      </trkpt>
      <trkpt lat="44.95063" lon="6.55077">
        <ele>1390.4</ele>
        <time>2022-07-14T07:25:02+0200</time>
      </trkpt>
      <trkpt lat="44.95064" lon="6.5507">
        <ele>1390.6</ele>
        <time>2022-07-14T07:25:03+0200</time>
      </trkpt>
      <trkpt lat="44.95066" lon="6.55064">
        <ele>1390.8</ele>
        <time>2022-07-14T07:25:04+0200</time>
      </trkpt>
      <trkpt lat="44.9507" lon="6.55059">
        <ele>1390.9</ele>
        <time>2022-07-14T07:25:05+0200</time>
      </trkpt>
      <trkpt lat="44.95073" lon="6.55053">
        <ele>1391</ele>
        <time>2022-07-14T07:25:06+0200</time>
      </trkpt>
      <trkpt lat="44.95077" lon="6.55048">
        <ele>1391</ele>
        <time>2022-07-14T07:25:07+0200</time>
      </trkpt>
      <trkpt lat="44.9508" lon="6.55043">
        <ele>1391</ele>
        <time>2022-07-14T07:25:08+0200</time>
      </trkpt>
      <trkpt lat="44.95083" lon="6.55037">
        <ele>1391</ele>
        <time>2022-07-14T07:25:09+0200</time>
      </trkpt>
      <trkpt lat="44.95086" lon="6.5503">
        <ele>1391</ele>
        <time>2022-07-14T07:25:10+0200</time>
      </trkpt>
      <trkpt lat="44.95089" lon="6.55023">
        <ele>1391</ele>
        <time>2022-07-14T07:25:11+0200</time>
      </trkpt>
      <trkpt lat="44.95092" lon="6.55017">
        <ele>1391</ele>
        <time>2022-07-14T07:25:12+0200</time>
      </trkpt>
      <trkpt lat="44.95094" lon="6.55011">
        <ele>1391</ele>
        <time>2022-07-14T07:25:13+0200</time>
      </trkpt>
      <trkpt lat="44.95097" lon="6.55005">
        <ele>1391</ele>
        <time>2022-07-14T07:25:14+0200</time>
      </trkpt>
      <trkpt lat="44.951" lon="6.54999">
        <ele>1391</ele>
        <time>2022-07-14T07:25:15+0200</time>
      </trkpt>
      <trkpt lat="44.95103" lon="6.54993">
        <ele>1391.2</ele>
        <time>2022-07-14T07:25:16+0200</time>
      </trkpt>
      <trkpt lat="44.95106" lon="6.54987">
        <ele>1391.4</ele>
        <time>2022-07-14T07:25:17+0200</time>
      </trkpt>
      <trkpt lat="44.95109" lon="6.54982">
        <ele>1391.6</ele>
        <time>2022-07-14T07:25:18+0200</time>
      </trkpt>
      <trkpt lat="44.95112" lon="6.54976">
        <ele>1391.9</ele>
        <time>2022-07-14T07:25:19+0200</time>
      </trkpt>
      <trkpt lat="44.95116" lon="6.54969">
        <ele>1391.9</ele>
        <time>2022-07-14T07:25:20+0200</time>
      </trkpt>
      <trkpt lat="44.95118" lon="6.54962">
        <ele>1391.7</ele>
        <time>2022-07-14T07:25:21+0200</time>
      </trkpt>
      <trkpt lat="44.9512" lon="6.54956">
        <ele>1391.6</ele>
        <time>2022-07-14T07:25:22+0200</time>
      </trkpt>
      <trkpt lat="44.95123" lon="6.5495">
        <ele>1391.5</ele>
        <time>2022-07-14T07:25:23+0200</time>
      </trkpt>
      <trkpt lat="44.95126" lon="6.54943">
        <ele>1391.6</ele>
        <time>2022-07-14T07:25:24+0200</time>
      </trkpt>
      <trkpt lat="44.9513" lon="6.54937">
        <ele>1391.8</ele>
        <time>2022-07-14T07:25:25+0200</time>
      </trkpt>
      <trkpt lat="44.95134" lon="6.54933">
        <ele>1391.9</ele>
        <time>2022-07-14T07:25:26+0200</time>
      </trkpt>
      <trkpt lat="44.95137" lon="6.54929">
        <ele>1392</ele>
        <time>2022-07-14T07:25:27+0200</time>
      </trkpt>
      <trkpt lat="44.95141" lon="6.54924">
        <ele>1392</ele>
        <time>2022-07-14T07:25:28+0200</time>
      </trkpt>
      <trkpt lat="44.95145" lon="6.54919">
        <ele>1392</ele>
        <time>2022-07-14T07:25:29+0200</time>
      </trkpt>
      <trkpt lat="44.95148" lon="6.54914">
        <ele>1392</ele>
        <time>2022-07-14T07:25:30+0200</time>
      </trkpt>
      <trkpt lat="44.95151" lon="6.54908">
        <ele>1392</ele>
        <time>2022-07-14T07:25:31+0200</time>
      </trkpt>
      <trkpt lat="44.95155" lon="6.54904">
        <ele>1392</ele>
        <time>2022-07-14T07:25:32+0200</time>
      </trkpt>
      <trkpt lat="44.95159" lon="6.54898">
        <ele>1392</ele>
        <time>2022-07-14T07:25:33+0200</time>
      </trkpt>
      <trkpt lat="44.95162" lon="6.54891">
        <ele>1392</ele>
        <time>2022-07-14T07:25:34+0200</time>
      </trkpt>
      <trkpt lat="44.95165" lon="6.54886">
        <ele>1392.1</ele>
        <time>2022-07-14T07:25:35+0200</time>
      </trkpt>
      <trkpt lat="44.95169" lon="6.54881">
        <ele>1392.3</ele>
        <time>2022-07-14T07:25:36+0200</time>
      </trkpt>
      <trkpt lat="44.95172" lon="6.54875">
        <ele>1392.5</ele>
        <time>2022-07-14T07:25:37+0200</time>
      </trkpt>
      <trkpt lat="44.95175" lon="6.54869">
        <ele>1392.7</ele>
        <time>2022-07-14T07:25:38+0200</time>
      </trkpt>
      <trkpt lat="44.95179" lon="6.54864">
        <ele>1392.9</ele>
        <time>2022-07-14T07:25:39+0200</time>
      </trkpt>
      <trkpt lat="44.95183" lon="6.54859">
        <ele>1393</ele>
        <time>2022-07-14T07:25:40+0200</time>
      </trkpt>
      <trkpt lat="44.95187" lon="6.54855">
        <ele>1393</ele>
        <time>2022-07-14T07:25:41+0200</time>
      </trkpt>
      <trkpt lat="44.95191" lon="6.5485">
        <ele>1393</ele>
        <time>2022-07-14T07:25:42+0200</time>
      </trkpt>
      <trkpt lat="44.95195" lon="6.54844">
        <ele>1393</ele>
        <time>2022-07-14T07:25:43+0200</time>
      </trkpt>
      <trkpt lat="44.95199" lon="6.54838">
        <ele>1393.1</ele>
        <time>2022-07-14T07:25:44+0200</time>
      </trkpt>
      <trkpt lat="44.95202" lon="6.54832">
        <ele>1393.3</ele>
        <time>2022-07-14T07:25:45+0200</time>
      </trkpt>
      <trkpt lat="44.95205" lon="6.54824">
        <ele>1393.4</ele>
        <time>2022-07-14T07:25:46+0200</time>
      </trkpt>
      <trkpt lat="44.95207" lon="6.54819">
        <ele>1393.5</ele>
        <time>2022-07-14T07:25:47+0200</time>
      </trkpt>
      <trkpt lat="44.9521" lon="6.54812">
        <ele>1393.6</ele>
        <time>2022-07-14T07:25:48+0200</time>
      </trkpt>
      <trkpt lat="44.95214" lon="6.54806">
        <ele>1393.7</ele>
        <time>2022-07-14T07:25:49+0200</time>
      </trkpt>
      <trkpt lat="44.95217" lon="6.548">
        <ele>1393.9</ele>
        <time>2022-07-14T07:25:50+0200</time>
      </trkpt>
      <trkpt lat="44.95221" lon="6.54794">
        <ele>1394</ele>
        <time>2022-07-14T07:25:51+0200</time>
      </trkpt>
      <trkpt lat="44.95224" lon="6.54789">
        <ele>1394</ele>
        <time>2022-07-14T07:25:52+0200</time>
      </trkpt>
      <trkpt lat="44.95228" lon="6.54784">
        <ele>1394.2</ele>
        <time>2022-07-14T07:25:53+0200</time>
      </trkpt>
      <trkpt lat="44.95233" lon="6.54779">
        <ele>1394.4</ele>
        <time>2022-07-14T07:25:54+0200</time>
      </trkpt>
      <trkpt lat="44.95236" lon="6.54774">
        <ele>1394.6</ele>
        <time>2022-07-14T07:25:55+0200</time>
      </trkpt>
      <trkpt lat="44.95242" lon="6.54764">
        <ele>1394.9</ele>
        <time>2022-07-14T07:25:57+0200</time>
      </trkpt>
      <trkpt lat="44.95246" lon="6.54759">
        <ele>1394.9</ele>
        <time>2022-07-14T07:25:58+0200</time>
      </trkpt>
      <trkpt lat="44.95249" lon="6.54753">
        <ele>1395</ele>
        <time>2022-07-14T07:25:59+0200</time>
      </trkpt>
      <trkpt lat="44.95251" lon="6.54747">
        <ele>1395</ele>
        <time>2022-07-14T07:26:00+0200</time>
      </trkpt>
      <trkpt lat="44.95254" lon="6.5474">
        <ele>1395</ele>
        <time>2022-07-14T07:26:01+0200</time>
      </trkpt>
      <trkpt lat="44.95257" lon="6.54734">
        <ele>1395</ele>
        <time>2022-07-14T07:26:02+0200</time>
      </trkpt>
      <trkpt lat="44.9526" lon="6.54728">
        <ele>1395</ele>
        <time>2022-07-14T07:26:03+0200</time>
      </trkpt>
      <trkpt lat="44.95263" lon="6.54722">
        <ele>1395</ele>
        <time>2022-07-14T07:26:04+0200</time>
      </trkpt>
      <trkpt lat="44.95266" lon="6.54716">
        <ele>1395</ele>
        <time>2022-07-14T07:26:05+0200</time>
      </trkpt>
      <trkpt lat="44.95269" lon="6.5471">
        <ele>1395</ele>
        <time>2022-07-14T07:26:06+0200</time>
      </trkpt>
      <trkpt lat="44.95271" lon="6.54703">
        <ele>1395</ele>
        <time>2022-07-14T07:26:07+0200</time>
      </trkpt>
      <trkpt lat="44.95274" lon="6.54696">
        <ele>1395</ele>
        <time>2022-07-14T07:26:08+0200</time>
      </trkpt>
      <trkpt lat="44.95277" lon="6.54691">
        <ele>1395.1</ele>
        <time>2022-07-14T07:26:09+0200</time>
      </trkpt>
      <trkpt lat="44.9528" lon="6.54686">
        <ele>1395.4</ele>
        <time>2022-07-14T07:26:10+0200</time>
      </trkpt>
      <trkpt lat="44.95284" lon="6.54681">
        <ele>1395.6</ele>
        <time>2022-07-14T07:26:11+0200</time>
      </trkpt>
      <trkpt lat="44.95287" lon="6.54675">
        <ele>1395.8</ele>
        <time>2022-07-14T07:26:12+0200</time>
      </trkpt>
      <trkpt lat="44.95291" lon="6.5467">
        <ele>1395.9</ele>
        <time>2022-07-14T07:26:13+0200</time>
      </trkpt>
      <trkpt lat="44.95295" lon="6.54665">
        <ele>1396</ele>
        <time>2022-07-14T07:26:14+0200</time>
      </trkpt>
      <trkpt lat="44.95299" lon="6.54661">
        <ele>1396</ele>
        <time>2022-07-14T07:26:15+0200</time>
      </trkpt>
      <trkpt lat="44.95303" lon="6.54656">
        <ele>1396</ele>
        <time>2022-07-14T07:26:16+0200</time>
      </trkpt>
      <trkpt lat="44.95308" lon="6.54651">
        <ele>1396.1</ele>
        <time>2022-07-14T07:26:17+0200</time>
      </trkpt>
      <trkpt lat="44.95311" lon="6.54647">
        <ele>1396.2</ele>
        <time>2022-07-14T07:26:18+0200</time>
      </trkpt>
      <trkpt lat="44.95316" lon="6.54642">
        <ele>1396.4</ele>
        <time>2022-07-14T07:26:19+0200</time>
      </trkpt>
      <trkpt lat="44.9532" lon="6.54638">
        <ele>1396.5</ele>
        <time>2022-07-14T07:26:20+0200</time>
      </trkpt>
      <trkpt lat="44.95325" lon="6.54634">
        <ele>1396.7</ele>
        <time>2022-07-14T07:26:21+0200</time>
      </trkpt>
      <trkpt lat="44.9533" lon="6.5463">
        <ele>1396.9</ele>
        <time>2022-07-14T07:26:22+0200</time>
      </trkpt>
      <trkpt lat="44.95334" lon="6.54626">
        <ele>1397</ele>
        <time>2022-07-14T07:26:23+0200</time>
      </trkpt>
      <trkpt lat="44.95339" lon="6.54623">
        <ele>1397</ele>
        <time>2022-07-14T07:26:24+0200</time>
      </trkpt>
      <trkpt lat="44.95342" lon="6.54618">
        <ele>1397</ele>
        <time>2022-07-14T07:26:25+0200</time>
      </trkpt>
      <trkpt lat="44.95346" lon="6.54613">
        <ele>1397</ele>
        <time>2022-07-14T07:26:26+0200</time>
      </trkpt>
      <trkpt lat="44.95349" lon="6.54608">
        <ele>1396.9</ele>
        <time>2022-07-14T07:26:27+0200</time>
      </trkpt>
      <trkpt lat="44.95353" lon="6.54602">
        <ele>1396.9</ele>
        <time>2022-07-14T07:26:28+0200</time>
      </trkpt>
      <trkpt lat="44.95356" lon="6.54597">
        <ele>1396.9</ele>
        <time>2022-07-14T07:26:29+0200</time>
      </trkpt>
      <trkpt lat="44.9536" lon="6.54592">
        <ele>1397</ele>
        <time>2022-07-14T07:26:30+0200</time>
      </trkpt>
      <trkpt lat="44.95364" lon="6.54587">
        <ele>1397.1</ele>
        <time>2022-07-14T07:26:31+0200</time>
      </trkpt>
      <trkpt lat="44.95368" lon="6.54582">
        <ele>1397.2</ele>
        <time>2022-07-14T07:26:32+0200</time>
      </trkpt>
      <trkpt lat="44.95372" lon="6.54577">
        <ele>1397.4</ele>
        <time>2022-07-14T07:26:33+0200</time>
      </trkpt>
      <trkpt lat="44.95376" lon="6.54572">
        <ele>1397.6</ele>
        <time>2022-07-14T07:26:34+0200</time>
      </trkpt>
      <trkpt lat="44.95381" lon="6.54569">
        <ele>1397.7</ele>
        <time>2022-07-14T07:26:35+0200</time>
      </trkpt>
      <trkpt lat="44.95385" lon="6.54566">
        <ele>1397.9</ele>
        <time>2022-07-14T07:26:36+0200</time>
      </trkpt>
      <trkpt lat="44.95389" lon="6.54562">
        <ele>1398</ele>
        <time>2022-07-14T07:26:37+0200</time>
      </trkpt>
      <trkpt lat="44.95396" lon="6.54556">
        <ele>1398</ele>
        <time>2022-07-14T07:26:39+0200</time>
      </trkpt>
      <trkpt lat="44.95403" lon="6.54549">
        <ele>1398.1</ele>
        <time>2022-07-14T07:26:41+0200</time>
      </trkpt>
      <trkpt lat="44.95406" lon="6.54545">
        <ele>1398.2</ele>
        <time>2022-07-14T07:26:42+0200</time>
      </trkpt>
      <trkpt lat="44.95409" lon="6.54539">
        <ele>1398.4</ele>
        <time>2022-07-14T07:26:43+0200</time>
      </trkpt>
      <trkpt lat="44.95411" lon="6.54533">
        <ele>1398.7</ele>
        <time>2022-07-14T07:26:44+0200</time>
      </trkpt>
      <trkpt lat="44.95417" lon="6.54523">
        <ele>1399</ele>
        <time>2022-07-14T07:26:46+0200</time>
      </trkpt>
      <trkpt lat="44.95419" lon="6.54517">
        <ele>1399</ele>
        <time>2022-07-14T07:26:47+0200</time>
      </trkpt>
      <trkpt lat="44.95424" lon="6.54505">
        <ele>1399</ele>
        <time>2022-07-14T07:26:49+0200</time>
      </trkpt>
      <trkpt lat="44.95425" lon="6.54499">
        <ele>1399</ele>
        <time>2022-07-14T07:26:50+0200</time>
      </trkpt>
      <trkpt lat="44.95428" lon="6.54493">
        <ele>1399.2</ele>
        <time>2022-07-14T07:26:51+0200</time>
      </trkpt>
      <trkpt lat="44.95432" lon="6.54482">
        <ele>1399.6</ele>
        <time>2022-07-14T07:26:53+0200</time>
      </trkpt>
      <trkpt lat="44.95436" lon="6.54474">
        <ele>1399.9</ele>
        <time>2022-07-14T07:26:55+0200</time>
      </trkpt>
      <trkpt lat="44.95442" lon="6.54474">
        <ele>1400</ele>
        <time>2022-07-14T07:26:57+0200</time>
      </trkpt>
      <trkpt lat="44.95447" lon="6.54477">
        <ele>1399.8</ele>
        <time>2022-07-14T07:26:59+0200</time>
      </trkpt>
      <trkpt lat="44.95451" lon="6.5448">
        <ele>1399.6</ele>
        <time>2022-07-14T07:27:01+0200</time>
      </trkpt>
      <trkpt lat="44.95455" lon="6.54475">
        <ele>1399.6</ele>
        <time>2022-07-14T07:27:04+0200</time>
      </trkpt>
      <trkpt lat="44.95451" lon="6.5447">
        <ele>1399.8</ele>
        <time>2022-07-14T07:29:07+0200</time>
      </trkpt>
      <trkpt lat="44.95455" lon="6.54475">
        <ele>1399.6</ele>
        <time>2022-07-14T07:30:53+0200</time>
      </trkpt>
      <trkpt lat="44.95449" lon="6.54478">
        <ele>1399.7</ele>
        <time>2022-07-14T07:30:57+0200</time>
      </trkpt>
      <trkpt lat="44.95445" lon="6.54473">
        <ele>1400</ele>
        <time>2022-07-14T07:31:00+0200</time>
      </trkpt>
      <trkpt lat="44.95441" lon="6.54469">
        <ele>1400</ele>
        <time>2022-07-14T07:31:02+0200</time>
      </trkpt>
      <trkpt lat="44.95436" lon="6.54463">
        <ele>1400.1</ele>
        <time>2022-07-14T07:31:04+0200</time>
      </trkpt>
      <trkpt lat="44.95433" lon="6.54457">
        <ele>1400.2</ele>
        <time>2022-07-14T07:31:06+0200</time>
      </trkpt>
      <trkpt lat="44.9543" lon="6.5445">
        <ele>1400.4</ele>
        <time>2022-07-14T07:31:09+0200</time>
      </trkpt>
      <trkpt lat="44.95426" lon="6.54445">
        <ele>1400.7</ele>
        <time>2022-07-14T07:31:12+0200</time>
      </trkpt>
      <trkpt lat="44.95423" lon="6.54437">
        <ele>1401</ele>
        <time>2022-07-14T07:31:15+0200</time>
      </trkpt>
      <trkpt lat="44.95418" lon="6.54432">
        <ele>1401.4</ele>
        <time>2022-07-14T07:31:19+0200</time>
      </trkpt>
      <trkpt lat="44.95414" lon="6.54429">
        <ele>1401.7</ele>
        <time>2022-07-14T07:31:23+0200</time>
      </trkpt>
      <trkpt lat="44.9541" lon="6.54423">
        <ele>1402.2</ele>
        <time>2022-07-14T07:31:27+0200</time>
      </trkpt>
      <trkpt lat="44.95406" lon="6.54417">
        <ele>1402.8</ele>
        <time>2022-07-14T07:31:30+0200</time>
      </trkpt>
      <trkpt lat="44.95402" lon="6.5441">
        <ele>1403.7</ele>
        <time>2022-07-14T07:31:33+0200</time>
      </trkpt>
      <trkpt lat="44.95396" lon="6.54412">
        <ele>1404</ele>
        <time>2022-07-14T07:31:37+0200</time>
      </trkpt>
      <trkpt lat="44.9539" lon="6.54411">
        <ele>1404.6</ele>
        <time>2022-07-14T07:31:39+0200</time>
      </trkpt>
      <trkpt lat="44.95385" lon="6.54409">
        <ele>1405.2</ele>
        <time>2022-07-14T07:31:41+0200</time>
      </trkpt>
      <trkpt lat="44.95378" lon="6.54406">
        <ele>1406.1</ele>
        <time>2022-07-14T07:31:44+0200</time>
      </trkpt>
      <trkpt lat="44.95374" lon="6.54407">
        <ele>1406.4</ele>
        <time>2022-07-14T07:31:47+0200</time>
      </trkpt>
      <trkpt lat="44.95368" lon="6.54406">
        <ele>1406.9</ele>
        <time>2022-07-14T07:31:49+0200</time>
      </trkpt>
      <trkpt lat="44.95364" lon="6.54408">
        <ele>1407.1</ele>
        <time>2022-07-14T07:31:54+0200</time>
      </trkpt>
      <trkpt lat="44.95359" lon="6.54409">
        <ele>1407.6</ele>
        <time>2022-07-14T07:31:58+0200</time>
      </trkpt>
      <trkpt lat="44.95358" lon="6.54415">
        <ele>1406.7</ele>
        <time>2022-07-14T07:32:02+0200</time>
      </trkpt>
      <trkpt lat="44.95354" lon="6.54418">
        <ele>1406.9</ele>
        <time>2022-07-14T07:32:06+0200</time>
      </trkpt>
      <trkpt lat="44.95349" lon="6.5442">
        <ele>1407.4</ele>
        <time>2022-07-14T07:32:10+0200</time>
      </trkpt>
      <trkpt lat="44.95343" lon="6.5442">
        <ele>1408.2</ele>
        <time>2022-07-14T07:32:13+0200</time>
      </trkpt>
      <trkpt lat="44.95338" lon="6.54421">
        <ele>1408.7</ele>
        <time>2022-07-14T07:32:18+0200</time>
      </trkpt>
      <trkpt lat="44.95332" lon="6.54421">
        <ele>1409.5</ele>
        <time>2022-07-14T07:32:21+0200</time>
      </trkpt>
      <trkpt lat="44.95327" lon="6.54423">
        <ele>1410.1</ele>
        <time>2022-07-14T07:32:25+0200</time>
      </trkpt>
      <trkpt lat="44.95321" lon="6.54427">
        <ele>1410.7</ele>
        <time>2022-07-14T07:32:27+0200</time>
      </trkpt>
      <trkpt lat="44.95316" lon="6.54429">
        <ele>1411.4</ele>
        <time>2022-07-14T07:32:30+0200</time>
      </trkpt>
      <trkpt lat="44.9531" lon="6.54429">
        <ele>1412.3</ele>
        <time>2022-07-14T07:32:32+0200</time>
      </trkpt>
      <trkpt lat="44.95305" lon="6.54433">
        <ele>1412.7</ele>
        <time>2022-07-14T07:32:34+0200</time>
      </trkpt>
      <trkpt lat="44.953" lon="6.54438">
        <ele>1412.7</ele>
        <time>2022-07-14T07:32:37+0200</time>
      </trkpt>
      <trkpt lat="44.95297" lon="6.54442">
        <ele>1412.6</ele>
        <time>2022-07-14T07:32:39+0200</time>
      </trkpt>
      <trkpt lat="44.95291" lon="6.54444">
        <ele>1413.3</ele>
        <time>2022-07-14T07:32:42+0200</time>
      </trkpt>
      <trkpt lat="44.95286" lon="6.54445">
        <ele>1414.1</ele>
        <time>2022-07-14T07:32:44+0200</time>
      </trkpt>
      <trkpt lat="44.95281" lon="6.54449">
        <ele>1414.3</ele>
        <time>2022-07-14T07:32:46+0200</time>
      </trkpt>
      <trkpt lat="44.95277" lon="6.54454">
        <ele>1414</ele>
        <time>2022-07-14T07:32:49+0200</time>
      </trkpt>
      <trkpt lat="44.95274" lon="6.54463">
        <ele>1412.8</ele>
        <time>2022-07-14T07:32:53+0200</time>
      </trkpt>
      <trkpt lat="44.9527" lon="6.54469">
        <ele>1412.5</ele>
        <time>2022-07-14T07:32:56+0200</time>
      </trkpt>
      <trkpt lat="44.95265" lon="6.54474">
        <ele>1412.5</ele>
        <time>2022-07-14T07:32:58+0200</time>
      </trkpt>
      <trkpt lat="44.95259" lon="6.54476">
        <ele>1413.3</ele>
        <time>2022-07-14T07:33:01+0200</time>
      </trkpt>
      <trkpt lat="44.95258" lon="6.54485">
        <ele>1411.7</ele>
        <time>2022-07-14T07:33:05+0200</time>
      </trkpt>
      <trkpt lat="44.95254" lon="6.54492">
        <ele>1411</ele>
        <time>2022-07-14T07:33:08+0200</time>
      </trkpt>
      <trkpt lat="44.95248" lon="6.54494">
        <ele>1411.7</ele>
        <time>2022-07-14T07:33:12+0200</time>
      </trkpt>
      <trkpt lat="44.95244" lon="6.54497">
        <ele>1412.1</ele>
        <time>2022-07-14T07:33:15+0200</time>
      </trkpt>
      <trkpt lat="44.95239" lon="6.54501">
        <ele>1412.3</ele>
        <time>2022-07-14T07:33:18+0200</time>
      </trkpt>
      <trkpt lat="44.95233" lon="6.54503">
        <ele>1413</ele>
        <time>2022-07-14T07:33:21+0200</time>
      </trkpt>
      <trkpt lat="44.95229" lon="6.54504">
        <ele>1413.9</ele>
        <time>2022-07-14T07:33:23+0200</time>
      </trkpt>
      <trkpt lat="44.95224" lon="6.54503">
        <ele>1415.1</ele>
        <time>2022-07-14T07:33:25+0200</time>
      </trkpt>
      <trkpt lat="44.95218" lon="6.54505">
        <ele>1416</ele>
        <time>2022-07-14T07:33:30+0200</time>
      </trkpt>
      <trkpt lat="44.95213" lon="6.54509">
        <ele>1416.6</ele>
        <time>2022-07-14T07:33:33+0200</time>
      </trkpt>
      <trkpt lat="44.95207" lon="6.54511">
        <ele>1417.5</ele>
        <time>2022-07-14T07:33:36+0200</time>
      </trkpt>
      <trkpt lat="44.95202" lon="6.54513">
        <ele>1418.3</ele>
        <time>2022-07-14T07:33:39+0200</time>
      </trkpt>
      <trkpt lat="44.95198" lon="6.54515">
        <ele>1419</ele>
        <time>2022-07-14T07:33:42+0200</time>
      </trkpt>
      <trkpt lat="44.95193" lon="6.54517">
        <ele>1419.8</ele>
        <time>2022-07-14T07:33:45+0200</time>
      </trkpt>
      <trkpt lat="44.95188" lon="6.54523">
        <ele>1420</ele>
        <time>2022-07-14T07:33:51+0200</time>
      </trkpt>
      <trkpt lat="44.95182" lon="6.54523">
        <ele>1421.6</ele>
        <time>2022-07-14T07:33:54+0200</time>
      </trkpt>
      <trkpt lat="44.95176" lon="6.54523">
        <ele>1423.6</ele>
        <time>2022-07-14T07:33:57+0200</time>
      </trkpt>
      <trkpt lat="44.95171" lon="6.54526">
        <ele>1424.3</ele>
        <time>2022-07-14T07:34:00+0200</time>
      </trkpt>
      <trkpt lat="44.95166" lon="6.5453">
        <ele>1424.8</ele>
        <time>2022-07-14T07:34:05+0200</time>
      </trkpt>
      <trkpt lat="44.95163" lon="6.54534">
        <ele>1424.8</ele>
        <time>2022-07-14T07:34:07+0200</time>
      </trkpt>
      <trkpt lat="44.95157" lon="6.54536">
        <ele>1426.2</ele>
        <time>2022-07-14T07:34:10+0200</time>
      </trkpt>
      <trkpt lat="44.95151" lon="6.54537">
        <ele>1427.6</ele>
        <time>2022-07-14T07:34:13+0200</time>
      </trkpt>
      <trkpt lat="44.95147" lon="6.54541">
        <ele>1427.7</ele>
        <time>2022-07-14T07:34:16+0200</time>
      </trkpt>
      <trkpt lat="44.95145" lon="6.54546">
        <ele>1427.4</ele>
        <time>2022-07-14T07:34:21+0200</time>
      </trkpt>
      <trkpt lat="44.95139" lon="6.54551">
        <ele>1428</ele>
        <time>2022-07-14T07:34:25+0200</time>
      </trkpt>
      <trkpt lat="44.95132" lon="6.54555">
        <ele>1429</ele>
        <time>2022-07-14T07:34:28+0200</time>
      </trkpt>
      <trkpt lat="44.95128" lon="6.5456">
        <ele>1429.4</ele>
        <time>2022-07-14T07:34:30+0200</time>
      </trkpt>
      <trkpt lat="44.95122" lon="6.54565">
        <ele>1429.7</ele>
        <time>2022-07-14T07:34:33+0200</time>
      </trkpt>
      <trkpt lat="44.95118" lon="6.54568">
        <ele>1430.3</ele>
        <time>2022-07-14T07:34:35+0200</time>
      </trkpt>
      <trkpt lat="44.95113" lon="6.54571">
        <ele>1431.2</ele>
        <time>2022-07-14T07:34:38+0200</time>
      </trkpt>
      <trkpt lat="44.95109" lon="6.54575">
        <ele>1431.5</ele>
        <time>2022-07-14T07:34:41+0200</time>
      </trkpt>
      <trkpt lat="44.95104" lon="6.54579">
        <ele>1432</ele>
        <time>2022-07-14T07:34:43+0200</time>
      </trkpt>
      <trkpt lat="44.95099" lon="6.54583">
        <ele>1432.6</ele>
        <time>2022-07-14T07:34:46+0200</time>
      </trkpt>
      <trkpt lat="44.95095" lon="6.54584">
        <ele>1433.5</ele>
        <time>2022-07-14T07:34:48+0200</time>
      </trkpt>
      <trkpt lat="44.9509" lon="6.54586">
        <ele>1434.8</ele>
        <time>2022-07-14T07:34:50+0200</time>
      </trkpt>
      <trkpt lat="44.95086" lon="6.54592">
        <ele>1434.9</ele>
        <time>2022-07-14T07:34:53+0200</time>
      </trkpt>
      <trkpt lat="44.95082" lon="6.54596">
        <ele>1435.2</ele>
        <time>2022-07-14T07:34:55+0200</time>
      </trkpt>
      <trkpt lat="44.95078" lon="6.54598">
        <ele>1436.2</ele>
        <time>2022-07-14T07:34:59+0200</time>
      </trkpt>
      <trkpt lat="44.95073" lon="6.54601">
        <ele>1436.8</ele>
        <time>2022-07-14T07:35:03+0200</time>
      </trkpt>
      <trkpt lat="44.95069" lon="6.54603">
        <ele>1437.8</ele>
        <time>2022-07-14T07:35:08+0200</time>
      </trkpt>
      <trkpt lat="44.95064" lon="6.54606">
        <ele>1438.5</ele>
        <time>2022-07-14T07:35:12+0200</time>
      </trkpt>
      <trkpt lat="44.9506" lon="6.54609">
        <ele>1439.3</ele>
        <time>2022-07-14T07:35:15+0200</time>
      </trkpt>
      <trkpt lat="44.95054" lon="6.54612">
        <ele>1440.1</ele>
        <time>2022-07-14T07:35:19+0200</time>
      </trkpt>
      <trkpt lat="44.95049" lon="6.54613">
        <ele>1441.3</ele>
        <time>2022-07-14T07:35:22+0200</time>
      </trkpt>
      <trkpt lat="44.95043" lon="6.54617">
        <ele>1441.9</ele>
        <time>2022-07-14T07:35:26+0200</time>
      </trkpt>
      <trkpt lat="44.95038" lon="6.54616">
        <ele>1443.3</ele>
        <time>2022-07-14T07:35:29+0200</time>
      </trkpt>
      <trkpt lat="44.95034" lon="6.54618">
        <ele>1443.8</ele>
        <time>2022-07-14T07:35:33+0200</time>
      </trkpt>
      <trkpt lat="44.95032" lon="6.54624">
        <ele>1442.9</ele>
        <time>2022-07-14T07:35:37+0200</time>
      </trkpt>
      <trkpt lat="44.95027" lon="6.54626">
        <ele>1443.4</ele>
        <time>2022-07-14T07:35:40+0200</time>
      </trkpt>
      <trkpt lat="44.95022" lon="6.54629">
        <ele>1443.8</ele>
        <time>2022-07-14T07:35:43+0200</time>
      </trkpt>
      <trkpt lat="44.95018" lon="6.54631">
        <ele>1444</ele>
        <time>2022-07-14T07:35:45+0200</time>
      </trkpt>
      <trkpt lat="44.95013" lon="6.54632">
        <ele>1444.9</ele>
        <time>2022-07-14T07:35:47+0200</time>
      </trkpt>
      <trkpt lat="44.95008" lon="6.54632">
        <ele>1446</ele>
        <time>2022-07-14T07:35:51+0200</time>
      </trkpt>
      <trkpt lat="44.95003" lon="6.54634">
        <ele>1446.7</ele>
        <time>2022-07-14T07:35:54+0200</time>
      </trkpt>
      <trkpt lat="44.94998" lon="6.54635">
        <ele>1447.4</ele>
        <time>2022-07-14T07:35:56+0200</time>
      </trkpt>
      <trkpt lat="44.94993" lon="6.54636">
        <ele>1447.7</ele>
        <time>2022-07-14T07:35:59+0200</time>
      </trkpt>
      <trkpt lat="44.94988" lon="6.54638">
        <ele>1448</ele>
        <time>2022-07-14T07:36:04+0200</time>
      </trkpt>
      <trkpt lat="44.94984" lon="6.54638">
        <ele>1448.5</ele>
        <time>2022-07-14T07:36:07+0200</time>
      </trkpt>
      <trkpt lat="44.94979" lon="6.54636">
        <ele>1450</ele>
        <time>2022-07-14T07:36:12+0200</time>
      </trkpt>
      <trkpt lat="44.94974" lon="6.54636">
        <ele>1450.7</ele>
        <time>2022-07-14T07:36:14+0200</time>
      </trkpt>
      <trkpt lat="44.94969" lon="6.54637">
        <ele>1451.1</ele>
        <time>2022-07-14T07:36:16+0200</time>
      </trkpt>
      <trkpt lat="44.94963" lon="6.54637">
        <ele>1452.2</ele>
        <time>2022-07-14T07:36:18+0200</time>
      </trkpt>
      <trkpt lat="44.94956" lon="6.5464">
        <ele>1452.7</ele>
        <time>2022-07-14T07:36:22+0200</time>
      </trkpt>
      <trkpt lat="44.94951" lon="6.54639">
        <ele>1453.9</ele>
        <time>2022-07-14T07:36:25+0200</time>
      </trkpt>
      <trkpt lat="44.94946" lon="6.54638">
        <ele>1455.1</ele>
        <time>2022-07-14T07:36:27+0200</time>
      </trkpt>
      <trkpt lat="44.94942" lon="6.54638">
        <ele>1455.8</ele>
        <time>2022-07-14T07:36:31+0200</time>
      </trkpt>
      <trkpt lat="44.94937" lon="6.5464">
        <ele>1456.2</ele>
        <time>2022-07-14T07:36:36+0200</time>
      </trkpt>
      <trkpt lat="44.9493" lon="6.54642">
        <ele>1456.7</ele>
        <time>2022-07-14T07:36:39+0200</time>
      </trkpt>
      <trkpt lat="44.94926" lon="6.5464">
        <ele>1458.2</ele>
        <time>2022-07-14T07:36:42+0200</time>
      </trkpt>
      <trkpt lat="44.9492" lon="6.54641">
        <ele>1458.8</ele>
        <time>2022-07-14T07:36:45+0200</time>
      </trkpt>
      <trkpt lat="44.94913" lon="6.5464">
        <ele>1460.2</ele>
        <time>2022-07-14T07:36:47+0200</time>
      </trkpt>
      <trkpt lat="44.94907" lon="6.5464">
        <ele>1461.6</ele>
        <time>2022-07-14T07:36:50+0200</time>
      </trkpt>
      <trkpt lat="44.94902" lon="6.5464">
        <ele>1462.4</ele>
        <time>2022-07-14T07:36:52+0200</time>
      </trkpt>
      <trkpt lat="44.94897" lon="6.54639">
        <ele>1463.5</ele>
        <time>2022-07-14T07:36:58+0200</time>
      </trkpt>
      <trkpt lat="44.94891" lon="6.54639">
        <ele>1464.6</ele>
        <time>2022-07-14T07:37:02+0200</time>
      </trkpt>
      <trkpt lat="44.94885" lon="6.54639">
        <ele>1465.7</ele>
        <time>2022-07-14T07:37:05+0200</time>
      </trkpt>
      <trkpt lat="44.94879" lon="6.54638">
        <ele>1466.6</ele>
        <time>2022-07-14T07:37:08+0200</time>
      </trkpt>
      <trkpt lat="44.94875" lon="6.54635">
        <ele>1468.6</ele>
        <time>2022-07-14T07:37:12+0200</time>
      </trkpt>
      <trkpt lat="44.9487" lon="6.54638">
        <ele>1468.1</ele>
        <time>2022-07-14T07:37:15+0200</time>
      </trkpt>
      <trkpt lat="44.94865" lon="6.54638">
        <ele>1469</ele>
        <time>2022-07-14T07:37:17+0200</time>
      </trkpt>
      <trkpt lat="44.94859" lon="6.54641">
        <ele>1468.6</ele>
        <time>2022-07-14T07:37:21+0200</time>
      </trkpt>
      <trkpt lat="44.94855" lon="6.54647">
        <ele>1468</ele>
        <time>2022-07-14T07:37:24+0200</time>
      </trkpt>
      <trkpt lat="44.9485" lon="6.54646">
        <ele>1469.1</ele>
        <time>2022-07-14T07:37:30+0200</time>
      </trkpt>
      <trkpt lat="44.94846" lon="6.54642">
        <ele>1470.8</ele>
        <time>2022-07-14T07:37:51+0200</time>
      </trkpt>
      <trkpt lat="44.94841" lon="6.54645">
        <ele>1470.9</ele>
        <time>2022-07-14T07:38:33+0200</time>
      </trkpt>
      <trkpt lat="44.94835" lon="6.54646">
        <ele>1471.8</ele>
        <time>2022-07-14T07:38:38+0200</time>
      </trkpt>
      <trkpt lat="44.94831" lon="6.54649">
        <ele>1471.7</ele>
        <time>2022-07-14T07:38:40+0200</time>
      </trkpt>
      <trkpt lat="44.94826" lon="6.5465">
        <ele>1472.4</ele>
        <time>2022-07-14T07:38:44+0200</time>
      </trkpt>
      <trkpt lat="44.94821" lon="6.54653">
        <ele>1472.4</ele>
        <time>2022-07-14T07:38:51+0200</time>
      </trkpt>
      <trkpt lat="44.94816" lon="6.54654">
        <ele>1473.1</ele>
        <time>2022-07-14T07:38:53+0200</time>
      </trkpt>
      <trkpt lat="44.94811" lon="6.54657">
        <ele>1473.2</ele>
        <time>2022-07-14T07:38:58+0200</time>
      </trkpt>
      <trkpt lat="44.94806" lon="6.54661">
        <ele>1473</ele>
        <time>2022-07-14T07:39:00+0200</time>
      </trkpt>
      <trkpt lat="44.94802" lon="6.54664">
        <ele>1472.8</ele>
        <time>2022-07-14T07:39:03+0200</time>
      </trkpt>
      <trkpt lat="44.94795" lon="6.54663">
        <ele>1474.6</ele>
        <time>2022-07-14T07:39:06+0200</time>
      </trkpt>
      <trkpt lat="44.9479" lon="6.5466">
        <ele>1476.3</ele>
        <time>2022-07-14T07:39:08+0200</time>
      </trkpt>
      <trkpt lat="44.94785" lon="6.54666">
        <ele>1475.8</ele>
        <time>2022-07-14T07:39:11+0200</time>
      </trkpt>
      <trkpt lat="44.9478" lon="6.54667">
        <ele>1476.4</ele>
        <time>2022-07-14T07:39:13+0200</time>
      </trkpt>
      <trkpt lat="44.94774" lon="6.5467">
        <ele>1476.8</ele>
        <time>2022-07-14T07:39:16+0200</time>
      </trkpt>
      <trkpt lat="44.94769" lon="6.54672">
        <ele>1477.1</ele>
        <time>2022-07-14T07:39:18+0200</time>
      </trkpt>
      <trkpt lat="44.94764" lon="6.54674">
        <ele>1477.5</ele>
        <time>2022-07-14T07:39:21+0200</time>
      </trkpt>
      <trkpt lat="44.94757" lon="6.54677">
        <ele>1477.8</ele>
        <time>2022-07-14T07:39:25+0200</time>
      </trkpt>
      <trkpt lat="44.94751" lon="6.54678">
        <ele>1478.5</ele>
        <time>2022-07-14T07:39:28+0200</time>
      </trkpt>
      <trkpt lat="44.94746" lon="6.54679">
        <ele>1478.7</ele>
        <time>2022-07-14T07:39:30+0200</time>
      </trkpt>
      <trkpt lat="44.94741" lon="6.5468">
        <ele>1479</ele>
        <time>2022-07-14T07:39:32+0200</time>
      </trkpt>
      <trkpt lat="44.94736" lon="6.54681">
        <ele>1479.1</ele>
        <time>2022-07-14T07:39:34+0200</time>
      </trkpt>
      <trkpt lat="44.94732" lon="6.5468">
        <ele>1479.7</ele>
        <time>2022-07-14T07:39:36+0200</time>
      </trkpt>
      <trkpt lat="44.94726" lon="6.5468">
        <ele>1480.2</ele>
        <time>2022-07-14T07:39:39+0200</time>
      </trkpt>
      <trkpt lat="44.9472" lon="6.54678">
        <ele>1481.3</ele>
        <time>2022-07-14T07:39:42+0200</time>
      </trkpt>
      <trkpt lat="44.94715" lon="6.54676">
        <ele>1482.4</ele>
        <time>2022-07-14T07:39:45+0200</time>
      </trkpt>
      <trkpt lat="44.9471" lon="6.54673">
        <ele>1483.6</ele>
        <time>2022-07-14T07:39:49+0200</time>
      </trkpt>
      <trkpt lat="44.94704" lon="6.54671">
        <ele>1484.8</ele>
        <time>2022-07-14T07:39:54+0200</time>
      </trkpt>
      <trkpt lat="44.94699" lon="6.5467">
        <ele>1485.6</ele>
        <time>2022-07-14T07:39:58+0200</time>
      </trkpt>
      <trkpt lat="44.94694" lon="6.54673">
        <ele>1485.1</ele>
        <time>2022-07-14T07:40:02+0200</time>
      </trkpt>
      <trkpt lat="44.94689" lon="6.54673">
        <ele>1485.9</ele>
        <time>2022-07-14T07:40:04+0200</time>
      </trkpt>
      <trkpt lat="44.94684" lon="6.54675">
        <ele>1485.6</ele>
        <time>2022-07-14T07:40:07+0200</time>
      </trkpt>
      <trkpt lat="44.94679" lon="6.54673">
        <ele>1486.7</ele>
        <time>2022-07-14T07:40:09+0200</time>
      </trkpt>
      <trkpt lat="44.94674" lon="6.54673">
        <ele>1487.4</ele>
        <time>2022-07-14T07:40:11+0200</time>
      </trkpt>
      <trkpt lat="44.94669" lon="6.54676">
        <ele>1486.7</ele>
        <time>2022-07-14T07:40:15+0200</time>
      </trkpt>
      <trkpt lat="44.94663" lon="6.54678">
        <ele>1486.9</ele>
        <time>2022-07-14T07:40:20+0200</time>
      </trkpt>
      <trkpt lat="44.9466" lon="6.54682">
        <ele>1486.1</ele>
        <time>2022-07-14T07:40:24+0200</time>
      </trkpt>
      <trkpt lat="44.94654" lon="6.54682">
        <ele>1486.8</ele>
        <time>2022-07-14T07:40:27+0200</time>
      </trkpt>
      <trkpt lat="44.94647" lon="6.54683">
        <ele>1487.6</ele>
        <time>2022-07-14T07:40:30+0200</time>
      </trkpt>
      <trkpt lat="44.94643" lon="6.54685">
        <ele>1487.7</ele>
        <time>2022-07-14T07:40:32+0200</time>
      </trkpt>
      <trkpt lat="44.94638" lon="6.54686">
        <ele>1488.1</ele>
        <time>2022-07-14T07:40:36+0200</time>
      </trkpt>
      <trkpt lat="44.94632" lon="6.54686">
        <ele>1488.9</ele>
        <time>2022-07-14T07:40:40+0200</time>
      </trkpt>
      <trkpt lat="44.94627" lon="6.54684">
        <ele>1490.5</ele>
        <time>2022-07-14T07:40:43+0200</time>
      </trkpt>
      <trkpt lat="44.9462" lon="6.54683">
        <ele>1491.7</ele>
        <time>2022-07-14T07:40:48+0200</time>
      </trkpt>
      <trkpt lat="44.94615" lon="6.5468">
        <ele>1493.6</ele>
        <time>2022-07-14T07:40:50+0200</time>
      </trkpt>
      <trkpt lat="44.94609" lon="6.54678">
        <ele>1495.4</ele>
        <time>2022-07-14T07:40:54+0200</time>
      </trkpt>
      <trkpt lat="44.94604" lon="6.54677">
        <ele>1496.7</ele>
        <time>2022-07-14T07:40:57+0200</time>
      </trkpt>
      <trkpt lat="44.946" lon="6.5468">
        <ele>1496.8</ele>
        <time>2022-07-14T07:41:00+0200</time>
      </trkpt>
      <trkpt lat="44.94595" lon="6.5468">
        <ele>1497.5</ele>
        <time>2022-07-14T07:41:02+0200</time>
      </trkpt>
      <trkpt lat="44.94589" lon="6.54681">
        <ele>1498.7</ele>
        <time>2022-07-14T07:41:04+0200</time>
      </trkpt>
      <trkpt lat="44.94583" lon="6.54682">
        <ele>1499.5</ele>
        <time>2022-07-14T07:41:07+0200</time>
      </trkpt>
      <trkpt lat="44.94577" lon="6.54684">
        <ele>1500.2</ele>
        <time>2022-07-14T07:41:10+0200</time>
      </trkpt>
      <trkpt lat="44.94573" lon="6.54686">
        <ele>1500.3</ele>
        <time>2022-07-14T07:41:13+0200</time>
      </trkpt>
      <trkpt lat="44.94569" lon="6.54689">
        <ele>1500.1</ele>
        <time>2022-07-14T07:41:15+0200</time>
      </trkpt>
      <trkpt lat="44.94563" lon="6.54691">
        <ele>1500.7</ele>
        <time>2022-07-14T07:41:18+0200</time>
      </trkpt>
      <trkpt lat="44.94557" lon="6.54689">
        <ele>1502.8</ele>
        <time>2022-07-14T07:41:22+0200</time>
      </trkpt>
      <trkpt lat="44.94551" lon="6.54693">
        <ele>1502.6</ele>
        <time>2022-07-14T07:41:24+0200</time>
      </trkpt>
      <trkpt lat="44.94544" lon="6.54694">
        <ele>1503.6</ele>
        <time>2022-07-14T07:41:27+0200</time>
      </trkpt>
      <trkpt lat="44.94538" lon="6.54696">
        <ele>1504.5</ele>
        <time>2022-07-14T07:41:29+0200</time>
      </trkpt>
      <trkpt lat="44.9453" lon="6.54697">
        <ele>1505.7</ele>
        <time>2022-07-14T07:41:34+0200</time>
      </trkpt>
      <trkpt lat="44.94525" lon="6.54699">
        <ele>1506.1</ele>
        <time>2022-07-14T07:41:38+0200</time>
      </trkpt>
      <trkpt lat="44.94519" lon="6.547">
        <ele>1506.8</ele>
        <time>2022-07-14T07:41:42+0200</time>
      </trkpt>
      <trkpt lat="44.94513" lon="6.54701">
        <ele>1507.6</ele>
        <time>2022-07-14T07:41:45+0200</time>
      </trkpt>
      <trkpt lat="44.94509" lon="6.54701">
        <ele>1508.8</ele>
        <time>2022-07-14T07:41:48+0200</time>
      </trkpt>
      <trkpt lat="44.94503" lon="6.54698">
        <ele>1510.8</ele>
        <time>2022-07-14T07:41:51+0200</time>
      </trkpt>
      <trkpt lat="44.94498" lon="6.54698">
        <ele>1511.7</ele>
        <time>2022-07-14T07:41:54+0200</time>
      </trkpt>
      <trkpt lat="44.94492" lon="6.54698">
        <ele>1512.6</ele>
        <time>2022-07-14T07:41:57+0200</time>
      </trkpt>
      <trkpt lat="44.94486" lon="6.54703">
        <ele>1511.6</ele>
        <time>2022-07-14T07:42:00+0200</time>
      </trkpt>
      <trkpt lat="44.94481" lon="6.54706">
        <ele>1511.3</ele>
        <time>2022-07-14T07:42:02+0200</time>
      </trkpt>
      <trkpt lat="44.94476" lon="6.54703">
        <ele>1513.1</ele>
        <time>2022-07-14T07:42:06+0200</time>
      </trkpt>
      <trkpt lat="44.94471" lon="6.54703">
        <ele>1513.9</ele>
        <time>2022-07-14T07:42:09+0200</time>
      </trkpt>
      <trkpt lat="44.94466" lon="6.54703">
        <ele>1514.6</ele>
        <time>2022-07-14T07:42:11+0200</time>
      </trkpt>
      <trkpt lat="44.94462" lon="6.54701">
        <ele>1516</ele>
        <time>2022-07-14T07:42:18+0200</time>
      </trkpt>
      <trkpt lat="44.94456" lon="6.547">
        <ele>1517.2</ele>
        <time>2022-07-14T07:42:21+0200</time>
      </trkpt>
      <trkpt lat="44.94451" lon="6.54701">
        <ele>1517.3</ele>
        <time>2022-07-14T07:42:23+0200</time>
      </trkpt>
      <trkpt lat="44.94445" lon="6.54701">
        <ele>1518.5</ele>
        <time>2022-07-14T07:42:26+0200</time>
      </trkpt>
      <trkpt lat="44.94439" lon="6.54701">
        <ele>1519.8</ele>
        <time>2022-07-14T07:42:31+0200</time>
      </trkpt>
      <trkpt lat="44.94434" lon="6.54697">
        <ele>1522.2</ele>
        <time>2022-07-14T07:42:36+0200</time>
      </trkpt>
      <trkpt lat="44.94429" lon="6.54695">
        <ele>1523.9</ele>
        <time>2022-07-14T07:42:41+0200</time>
      </trkpt>
      <trkpt lat="44.94424" lon="6.54695">
        <ele>1525.1</ele>
        <time>2022-07-14T07:42:44+0200</time>
      </trkpt>
      <trkpt lat="44.9442" lon="6.54699">
        <ele>1524.7</ele>
        <time>2022-07-14T07:42:49+0200</time>
      </trkpt>
      <trkpt lat="44.94416" lon="6.54701">
        <ele>1524.8</ele>
        <time>2022-07-14T07:42:52+0200</time>
      </trkpt>
      <trkpt lat="44.9441" lon="6.54705">
        <ele>1525</ele>
        <time>2022-07-14T07:42:55+0200</time>
      </trkpt>
      <trkpt lat="44.94405" lon="6.5471">
        <ele>1524.8</ele>
        <time>2022-07-14T07:42:57+0200</time>
      </trkpt>
      <trkpt lat="44.94398" lon="6.54715">
        <ele>1524.9</ele>
        <time>2022-07-14T07:42:59+0200</time>
      </trkpt>
      <trkpt lat="44.94393" lon="6.54718">
        <ele>1525</ele>
        <time>2022-07-14T07:43:01+0200</time>
      </trkpt>
      <trkpt lat="44.94388" lon="6.5472">
        <ele>1525.7</ele>
        <time>2022-07-14T07:43:03+0200</time>
      </trkpt>
      <trkpt lat="44.94384" lon="6.54723">
        <ele>1526.1</ele>
        <time>2022-07-14T07:43:05+0200</time>
      </trkpt>
      <trkpt lat="44.94379" lon="6.54728">
        <ele>1525.3</ele>
        <time>2022-07-14T07:43:09+0200</time>
      </trkpt>
      <trkpt lat="44.94375" lon="6.54733">
        <ele>1524.9</ele>
        <time>2022-07-14T07:43:13+0200</time>
      </trkpt>
      <trkpt lat="44.9437" lon="6.54735">
        <ele>1525.4</ele>
        <time>2022-07-14T07:43:17+0200</time>
      </trkpt>
      <trkpt lat="44.94365" lon="6.54737">
        <ele>1525.7</ele>
        <time>2022-07-14T07:43:20+0200</time>
      </trkpt>
      <trkpt lat="44.94359" lon="6.5474">
        <ele>1525.8</ele>
        <time>2022-07-14T07:43:23+0200</time>
      </trkpt>
      <trkpt lat="44.94355" lon="6.54743">
        <ele>1525.9</ele>
        <time>2022-07-14T07:43:27+0200</time>
      </trkpt>
      <trkpt lat="44.94349" lon="6.54746">
        <ele>1526</ele>
        <time>2022-07-14T07:43:31+0200</time>
      </trkpt>
      <trkpt lat="44.94344" lon="6.54748">
        <ele>1526.5</ele>
        <time>2022-07-14T07:43:34+0200</time>
      </trkpt>
      <trkpt lat="44.94339" lon="6.5475">
        <ele>1527</ele>
        <time>2022-07-14T07:43:36+0200</time>
      </trkpt>
      <trkpt lat="44.94334" lon="6.54752">
        <ele>1527.4</ele>
        <time>2022-07-14T07:43:39+0200</time>
      </trkpt>
      <trkpt lat="44.94327" lon="6.54753">
        <ele>1528.3</ele>
        <time>2022-07-14T07:43:42+0200</time>
      </trkpt>
      <trkpt lat="44.9432" lon="6.54753">
        <ele>1529.4</ele>
        <time>2022-07-14T07:43:46+0200</time>
      </trkpt>
      <trkpt lat="44.94315" lon="6.54755">
        <ele>1529.7</ele>
        <time>2022-07-14T07:43:50+0200</time>
      </trkpt>
      <trkpt lat="44.94309" lon="6.54754">
        <ele>1531</ele>
        <time>2022-07-14T07:43:53+0200</time>
      </trkpt>
      <trkpt lat="44.94304" lon="6.54755">
        <ele>1531.6</ele>
        <time>2022-07-14T07:43:56+0200</time>
      </trkpt>
      <trkpt lat="44.94297" lon="6.54752">
        <ele>1534.2</ele>
        <time>2022-07-14T07:44:00+0200</time>
      </trkpt>
      <trkpt lat="44.94292" lon="6.54752">
        <ele>1535.5</ele>
        <time>2022-07-14T07:44:04+0200</time>
      </trkpt>
      <trkpt lat="44.94286" lon="6.54752">
        <ele>1536.7</ele>
        <time>2022-07-14T07:44:08+0200</time>
      </trkpt>
      <trkpt lat="44.94281" lon="6.54751">
        <ele>1538.1</ele>
        <time>2022-07-14T07:44:13+0200</time>
      </trkpt>
      <trkpt lat="44.94275" lon="6.54752">
        <ele>1538.9</ele>
        <time>2022-07-14T07:44:17+0200</time>
      </trkpt>
      <trkpt lat="44.94268" lon="6.54751">
        <ele>1540.5</ele>
        <time>2022-07-14T07:44:20+0200</time>
      </trkpt>
      <trkpt lat="44.94263" lon="6.5475">
        <ele>1542.2</ele>
        <time>2022-07-14T07:44:23+0200</time>
      </trkpt>
      <trkpt lat="44.94258" lon="6.54752">
        <ele>1542.3</ele>
        <time>2022-07-14T07:44:26+0200</time>
      </trkpt>
      <trkpt lat="44.94251" lon="6.54753">
        <ele>1543.5</ele>
        <time>2022-07-14T07:44:31+0200</time>
      </trkpt>
      <trkpt lat="44.94246" lon="6.54753">
        <ele>1544.7</ele>
        <time>2022-07-14T07:44:35+0200</time>
      </trkpt>
      <trkpt lat="44.94241" lon="6.54755">
        <ele>1545.5</ele>
        <time>2022-07-14T07:44:37+0200</time>
      </trkpt>
      <trkpt lat="44.94236" lon="6.54756">
        <ele>1546.6</ele>
        <time>2022-07-14T07:44:41+0200</time>
      </trkpt>
      <trkpt lat="44.94231" lon="6.54758">
        <ele>1546.9</ele>
        <time>2022-07-14T07:44:45+0200</time>
      </trkpt>
      <trkpt lat="44.94226" lon="6.5476">
        <ele>1547.7</ele>
        <time>2022-07-14T07:44:50+0200</time>
      </trkpt>
      <trkpt lat="44.94221" lon="6.54761">
        <ele>1548.8</ele>
        <time>2022-07-14T07:44:55+0200</time>
      </trkpt>
      <trkpt lat="44.94216" lon="6.54765">
        <ele>1548.5</ele>
        <time>2022-07-14T07:44:59+0200</time>
      </trkpt>
      <trkpt lat="44.9421" lon="6.54768">
        <ele>1548.9</ele>
        <time>2022-07-14T07:45:02+0200</time>
      </trkpt>
      <trkpt lat="44.94205" lon="6.54771">
        <ele>1549.1</ele>
        <time>2022-07-14T07:45:04+0200</time>
      </trkpt>
      <trkpt lat="44.94201" lon="6.54774">
        <ele>1549.4</ele>
        <time>2022-07-14T07:45:07+0200</time>
      </trkpt>
      <trkpt lat="44.94196" lon="6.54775">
        <ele>1551</ele>
        <time>2022-07-14T07:45:09+0200</time>
      </trkpt>
      <trkpt lat="44.94188" lon="6.54775">
        <ele>1552.8</ele>
        <time>2022-07-14T07:45:11+0200</time>
      </trkpt>
      <trkpt lat="44.94183" lon="6.54776">
        <ele>1554.1</ele>
        <time>2022-07-14T07:45:13+0200</time>
      </trkpt>
      <trkpt lat="44.94177" lon="6.54778">
        <ele>1555</ele>
        <time>2022-07-14T07:45:15+0200</time>
      </trkpt>
      <trkpt lat="44.94172" lon="6.5478">
        <ele>1555.9</ele>
        <time>2022-07-14T07:45:18+0200</time>
      </trkpt>
      <trkpt lat="44.94167" lon="6.54781">
        <ele>1556.7</ele>
        <time>2022-07-14T07:45:20+0200</time>
      </trkpt>
      <trkpt lat="44.94162" lon="6.54786">
        <ele>1556</ele>
        <time>2022-07-14T07:45:23+0200</time>
      </trkpt>
      <trkpt lat="44.94157" lon="6.5479">
        <ele>1555.6</ele>
        <time>2022-07-14T07:45:26+0200</time>
      </trkpt>
      <trkpt lat="44.94155" lon="6.54797">
        <ele>1554.1</ele>
        <time>2022-07-14T07:45:30+0200</time>
      </trkpt>
      <trkpt lat="44.94152" lon="6.54802">
        <ele>1553.1</ele>
        <time>2022-07-14T07:45:33+0200</time>
      </trkpt>
      <trkpt lat="44.94147" lon="6.54806">
        <ele>1552.9</ele>
        <time>2022-07-14T07:45:37+0200</time>
      </trkpt>
      <trkpt lat="44.94144" lon="6.5481">
        <ele>1552.3</ele>
        <time>2022-07-14T07:45:43+0200</time>
      </trkpt>
      <trkpt lat="44.94137" lon="6.5481">
        <ele>1553.8</ele>
        <time>2022-07-14T07:45:52+0200</time>
      </trkpt>
      <trkpt lat="44.94131" lon="6.54805">
        <ele>1556.3</ele>
        <time>2022-07-14T07:46:00+0200</time>
      </trkpt>
      <trkpt lat="44.94126" lon="6.54806">
        <ele>1556.7</ele>
        <time>2022-07-14T07:46:02+0200</time>
      </trkpt>
      <trkpt lat="44.94119" lon="6.54805">
        <ele>1558.2</ele>
        <time>2022-07-14T07:46:05+0200</time>
      </trkpt>
      <trkpt lat="44.94113" lon="6.54806">
        <ele>1558.6</ele>
        <time>2022-07-14T07:46:08+0200</time>
      </trkpt>
      <trkpt lat="44.94107" lon="6.54807">
        <ele>1558.8</ele>
        <time>2022-07-14T07:46:10+0200</time>
      </trkpt>
      <trkpt lat="44.94102" lon="6.54806">
        <ele>1559.2</ele>
        <time>2022-07-14T07:46:12+0200</time>
      </trkpt>
      <trkpt lat="44.94096" lon="6.54805">
        <ele>1559.6</ele>
        <time>2022-07-14T07:46:15+0200</time>
      </trkpt>
      <trkpt lat="44.9409" lon="6.54806">
        <ele>1559.7</ele>
        <time>2022-07-14T07:46:17+0200</time>
      </trkpt>
      <trkpt lat="44.94083" lon="6.54806">
        <ele>1559.9</ele>
        <time>2022-07-14T07:46:19+0200</time>
      </trkpt>
      <trkpt lat="44.94076" lon="6.54808">
        <ele>1558.3</ele>
        <time>2022-07-14T07:46:21+0200</time>
      </trkpt>
      <trkpt lat="44.9407" lon="6.54809">
        <ele>1557.2</ele>
        <time>2022-07-14T07:46:23+0200</time>
      </trkpt>
      <trkpt lat="44.94065" lon="6.5481">
        <ele>1556</ele>
        <time>2022-07-14T07:46:25+0200</time>
      </trkpt>
      <trkpt lat="44.9406" lon="6.54809">
        <ele>1555.5</ele>
        <time>2022-07-14T07:46:28+0200</time>
      </trkpt>
      <trkpt lat="44.94056" lon="6.54804">
        <ele>1556.7</ele>
        <time>2022-07-14T07:46:35+0200</time>
      </trkpt>
      <trkpt lat="44.94051" lon="6.54801">
        <ele>1556</ele>
        <time>2022-07-14T07:46:39+0200</time>
      </trkpt>
      <trkpt lat="44.94046" lon="6.54799">
        <ele>1555.5</ele>
        <time>2022-07-14T07:46:42+0200</time>
      </trkpt>
      <trkpt lat="44.94041" lon="6.54796">
        <ele>1555.1</ele>
        <time>2022-07-14T07:46:46+0200</time>
      </trkpt>
      <trkpt lat="44.94037" lon="6.54792">
        <ele>1555.7</ele>
        <time>2022-07-14T07:47:03+0200</time>
      </trkpt>
      <trkpt lat="44.94033" lon="6.54788">
        <ele>1556.2</ele>
        <time>2022-07-14T07:47:31+0200</time>
      </trkpt>
      <trkpt lat="44.94039" lon="6.54789">
        <ele>1557.1</ele>
        <time>2022-07-14T07:47:57+0200</time>
      </trkpt>
      <trkpt lat="44.94035" lon="6.54792">
        <ele>1555.2</ele>
        <time>2022-07-14T07:48:31+0200</time>
      </trkpt>
      <trkpt lat="44.9404" lon="6.54789">
        <ele>1557.3</ele>
        <time>2022-07-14T07:49:05+0200</time>
      </trkpt>
      <trkpt lat="44.94044" lon="6.54786">
        <ele>1559.4</ele>
        <time>2022-07-14T07:49:10+0200</time>
      </trkpt>
      <trkpt lat="44.94049" lon="6.54783">
        <ele>1561.1</ele>
        <time>2022-07-14T07:49:14+0200</time>
      </trkpt>
      <trkpt lat="44.94054" lon="6.54781">
        <ele>1562.7</ele>
        <time>2022-07-14T07:49:19+0200</time>
      </trkpt>
      <trkpt lat="44.94059" lon="6.54781">
        <ele>1563.3</ele>
        <time>2022-07-14T07:49:24+0200</time>
      </trkpt>
      <trkpt lat="44.94065" lon="6.54778">
        <ele>1564.9</ele>
        <time>2022-07-14T07:49:29+0200</time>
      </trkpt>
      <trkpt lat="44.94069" lon="6.54777">
        <ele>1565.6</ele>
        <time>2022-07-14T07:49:34+0200</time>
      </trkpt>
      <trkpt lat="44.94074" lon="6.54778">
        <ele>1565.9</ele>
        <time>2022-07-14T07:49:39+0200</time>
      </trkpt>
      <trkpt lat="44.94078" lon="6.54775">
        <ele>1567.1</ele>
        <time>2022-07-14T07:49:42+0200</time>
      </trkpt>
      <trkpt lat="44.9408" lon="6.54768">
        <ele>1569.1</ele>
        <time>2022-07-14T07:49:46+0200</time>
      </trkpt>
      <trkpt lat="44.94079" lon="6.5476">
        <ele>1571.1</ele>
        <time>2022-07-14T07:49:50+0200</time>
      </trkpt>
      <trkpt lat="44.94076" lon="6.54753">
        <ele>1572.7</ele>
        <time>2022-07-14T07:49:54+0200</time>
      </trkpt>
      <trkpt lat="44.94072" lon="6.54748">
        <ele>1573.8</ele>
        <time>2022-07-14T07:49:58+0200</time>
      </trkpt>
      <trkpt lat="44.94068" lon="6.54743">
        <ele>1575</ele>
        <time>2022-07-14T07:50:03+0200</time>
      </trkpt>
      <trkpt lat="44.94065" lon="6.54737">
        <ele>1576.6</ele>
        <time>2022-07-14T07:50:09+0200</time>
      </trkpt>
      <trkpt lat="44.9406" lon="6.54732">
        <ele>1578.2</ele>
        <time>2022-07-14T07:50:16+0200</time>
      </trkpt>
      <trkpt lat="44.94056" lon="6.5473">
        <ele>1578.4</ele>
        <time>2022-07-14T07:50:19+0200</time>
      </trkpt>
      <trkpt lat="44.94051" lon="6.5473">
        <ele>1578.6</ele>
        <time>2022-07-14T07:50:22+0200</time>
      </trkpt>
      <trkpt lat="44.94053" lon="6.54722">
        <ele>1581</ele>
        <time>2022-07-14T07:50:36+0200</time>
      </trkpt>
      <trkpt lat="44.94058" lon="6.54719">
        <ele>1582.2</ele>
        <time>2022-07-14T07:50:41+0200</time>
      </trkpt>
      <trkpt lat="44.94063" lon="6.54718">
        <ele>1582.5</ele>
        <time>2022-07-14T07:50:46+0200</time>
      </trkpt>
      <trkpt lat="44.94068" lon="6.54719">
        <ele>1582.6</ele>
        <time>2022-07-14T07:50:49+0200</time>
      </trkpt>
      <trkpt lat="44.94073" lon="6.54718">
        <ele>1582.9</ele>
        <time>2022-07-14T07:50:53+0200</time>
      </trkpt>
      <trkpt lat="44.94078" lon="6.54716">
        <ele>1583.7</ele>
        <time>2022-07-14T07:50:55+0200</time>
      </trkpt>
      <trkpt lat="44.94083" lon="6.54716">
        <ele>1584.1</ele>
        <time>2022-07-14T07:50:58+0200</time>
      </trkpt>
      <trkpt lat="44.94089" lon="6.54716">
        <ele>1584.6</ele>
        <time>2022-07-14T07:51:01+0200</time>
      </trkpt>
      <trkpt lat="44.94096" lon="6.54716">
        <ele>1584.9</ele>
        <time>2022-07-14T07:51:05+0200</time>
      </trkpt>
      <trkpt lat="44.94101" lon="6.54717">
        <ele>1584.9</ele>
        <time>2022-07-14T07:51:08+0200</time>
      </trkpt>
      <trkpt lat="44.94108" lon="6.54717">
        <ele>1585.5</ele>
        <time>2022-07-14T07:51:11+0200</time>
      </trkpt>
      <trkpt lat="44.94113" lon="6.54716">
        <ele>1586</ele>
        <time>2022-07-14T07:51:14+0200</time>
      </trkpt>
      <trkpt lat="44.94119" lon="6.54717">
        <ele>1585.6</ele>
        <time>2022-07-14T07:51:19+0200</time>
      </trkpt>
      <trkpt lat="44.94125" lon="6.54714">
        <ele>1586.4</ele>
        <time>2022-07-14T07:51:22+0200</time>
      </trkpt>
      <trkpt lat="44.94131" lon="6.54713">
        <ele>1586.4</ele>
        <time>2022-07-14T07:51:25+0200</time>
      </trkpt>
      <trkpt lat="44.94136" lon="6.54711">
        <ele>1587.2</ele>
        <time>2022-07-14T07:51:28+0200</time>
      </trkpt>
      <trkpt lat="44.94141" lon="6.54711">
        <ele>1586.9</ele>
        <time>2022-07-14T07:51:31+0200</time>
      </trkpt>
      <trkpt lat="44.94147" lon="6.5471">
        <ele>1586.4</ele>
        <time>2022-07-14T07:51:37+0200</time>
      </trkpt>
      <trkpt lat="44.94151" lon="6.54706">
        <ele>1587.5</ele>
        <time>2022-07-14T07:51:41+0200</time>
      </trkpt>
      <trkpt lat="44.94155" lon="6.54703">
        <ele>1588</ele>
        <time>2022-07-14T07:51:45+0200</time>
      </trkpt>
      <trkpt lat="44.94159" lon="6.54701">
        <ele>1588.2</ele>
        <time>2022-07-14T07:51:48+0200</time>
      </trkpt>
      <trkpt lat="44.94164" lon="6.54698">
        <ele>1588.9</ele>
        <time>2022-07-14T07:51:52+0200</time>
      </trkpt>
      <trkpt lat="44.9417" lon="6.54694">
        <ele>1589.7</ele>
        <time>2022-07-14T07:51:56+0200</time>
      </trkpt>
      <trkpt lat="44.94173" lon="6.5469">
        <ele>1590.8</ele>
        <time>2022-07-14T07:52:01+0200</time>
      </trkpt>
      <trkpt lat="44.94177" lon="6.54682">
        <ele>1592.9</ele>
        <time>2022-07-14T07:52:06+0200</time>
      </trkpt>
      <trkpt lat="44.94179" lon="6.54676">
        <ele>1595.2</ele>
        <time>2022-07-14T07:52:10+0200</time>
      </trkpt>
      <trkpt lat="44.94175" lon="6.54677">
        <ele>1595.4</ele>
        <time>2022-07-14T07:52:37+0200</time>
      </trkpt>
      <trkpt lat="44.94172" lon="6.54684">
        <ele>1593.4</ele>
        <time>2022-07-14T07:52:44+0200</time>
      </trkpt>
      <trkpt lat="44.94177" lon="6.54682">
        <ele>1593.1</ele>
        <time>2022-07-14T07:52:51+0200</time>
      </trkpt>
      <trkpt lat="44.94179" lon="6.54677">
        <ele>1594.9</ele>
        <time>2022-07-14T07:52:59+0200</time>
      </trkpt>
      <trkpt lat="44.94178" lon="6.54669">
        <ele>1598.2</ele>
        <time>2022-07-14T07:53:04+0200</time>
      </trkpt>
      <trkpt lat="44.94177" lon="6.54661">
        <ele>1601.2</ele>
        <time>2022-07-14T07:53:08+0200</time>
      </trkpt>
      <trkpt lat="44.94174" lon="6.54655">
        <ele>1604.3</ele>
        <time>2022-07-14T07:53:13+0200</time>
      </trkpt>
      <trkpt lat="44.94169" lon="6.5465">
        <ele>1606.8</ele>
        <time>2022-07-14T07:53:18+0200</time>
      </trkpt>
      <trkpt lat="44.94166" lon="6.54644">
        <ele>1609.1</ele>
        <time>2022-07-14T07:53:25+0200</time>
      </trkpt>
      <trkpt lat="44.94163" lon="6.54639">
        <ele>1611.2</ele>
        <time>2022-07-14T07:53:30+0200</time>
      </trkpt>
      <trkpt lat="44.94155" lon="6.5464">
        <ele>1611.2</ele>
        <time>2022-07-14T07:53:34+0200</time>
      </trkpt>
      <trkpt lat="44.9415" lon="6.5464">
        <ele>1611.2</ele>
        <time>2022-07-14T07:53:37+0200</time>
      </trkpt>
      <trkpt lat="44.94146" lon="6.54639">
        <ele>1611.8</ele>
        <time>2022-07-14T07:53:42+0200</time>
      </trkpt>
      <trkpt lat="44.94141" lon="6.54637">
        <ele>1612.7</ele>
        <time>2022-07-14T07:53:45+0200</time>
      </trkpt>
      <trkpt lat="44.94136" lon="6.54634">
        <ele>1613.6</ele>
        <time>2022-07-14T07:53:49+0200</time>
      </trkpt>
      <trkpt lat="44.94131" lon="6.54633">
        <ele>1614.1</ele>
        <time>2022-07-14T07:53:52+0200</time>
      </trkpt>
      <trkpt lat="44.94125" lon="6.54633">
        <ele>1614.3</ele>
        <time>2022-07-14T07:53:54+0200</time>
      </trkpt>
      <trkpt lat="44.9412" lon="6.54633">
        <ele>1614.4</ele>
        <time>2022-07-14T07:53:56+0200</time>
      </trkpt>
      <trkpt lat="44.94116" lon="6.5463">
        <ele>1615.4</ele>
        <time>2022-07-14T07:53:59+0200</time>
      </trkpt>
      <trkpt lat="44.94111" lon="6.54627">
        <ele>1616.6</ele>
        <time>2022-07-14T07:54:02+0200</time>
      </trkpt>
      <trkpt lat="44.94106" lon="6.54626">
        <ele>1617.2</ele>
        <time>2022-07-14T07:54:06+0200</time>
      </trkpt>
      <trkpt lat="44.94101" lon="6.54625">
        <ele>1617.8</ele>
        <time>2022-07-14T07:54:08+0200</time>
      </trkpt>
      <trkpt lat="44.94096" lon="6.54625">
        <ele>1617.7</ele>
        <time>2022-07-14T07:54:11+0200</time>
      </trkpt>
      <trkpt lat="44.94091" lon="6.54625">
        <ele>1617.8</ele>
        <time>2022-07-14T07:54:15+0200</time>
      </trkpt>
      <trkpt lat="44.94084" lon="6.54625">
        <ele>1618</ele>
        <time>2022-07-14T07:54:18+0200</time>
      </trkpt>
      <trkpt lat="44.94078" lon="6.54624">
        <ele>1618.5</ele>
        <time>2022-07-14T07:54:21+0200</time>
      </trkpt>
      <trkpt lat="44.94073" lon="6.54622">
        <ele>1618.9</ele>
        <time>2022-07-14T07:54:24+0200</time>
      </trkpt>
      <trkpt lat="44.94068" lon="6.54621">
        <ele>1619.6</ele>
        <time>2022-07-14T07:54:26+0200</time>
      </trkpt>
      <trkpt lat="44.94062" lon="6.54619">
        <ele>1620</ele>
        <time>2022-07-14T07:54:29+0200</time>
      </trkpt>
      <trkpt lat="44.94061" lon="6.54613">
        <ele>1622.6</ele>
        <time>2022-07-14T07:54:35+0200</time>
      </trkpt>
      <trkpt lat="44.94067" lon="6.54612">
        <ele>1622.9</ele>
        <time>2022-07-14T07:54:39+0200</time>
      </trkpt>
      <trkpt lat="44.94071" lon="6.54612">
        <ele>1623.1</ele>
        <time>2022-07-14T07:54:46+0200</time>
      </trkpt>
      <trkpt lat="44.94076" lon="6.54613">
        <ele>1623</ele>
        <time>2022-07-14T07:54:50+0200</time>
      </trkpt>
      <trkpt lat="44.94081" lon="6.54612">
        <ele>1623.4</ele>
        <time>2022-07-14T07:54:53+0200</time>
      </trkpt>
      <trkpt lat="44.94086" lon="6.54612">
        <ele>1623.6</ele>
        <time>2022-07-14T07:54:56+0200</time>
      </trkpt>
      <trkpt lat="44.94091" lon="6.54611">
        <ele>1623.8</ele>
        <time>2022-07-14T07:54:59+0200</time>
      </trkpt>
      <trkpt lat="44.94096" lon="6.54609">
        <ele>1624.5</ele>
        <time>2022-07-14T07:55:03+0200</time>
      </trkpt>
      <trkpt lat="44.94101" lon="6.54608">
        <ele>1624.7</ele>
        <time>2022-07-14T07:55:07+0200</time>
      </trkpt>
      <trkpt lat="44.94106" lon="6.54607">
        <ele>1625.1</ele>
        <time>2022-07-14T07:55:12+0200</time>
      </trkpt>
      <trkpt lat="44.9411" lon="6.54604">
        <ele>1626.2</ele>
        <time>2022-07-14T07:55:17+0200</time>
      </trkpt>
      <trkpt lat="44.94115" lon="6.54602">
        <ele>1626.6</ele>
        <time>2022-07-14T07:55:20+0200</time>
      </trkpt>
      <trkpt lat="44.94121" lon="6.546">
        <ele>1627.5</ele>
        <time>2022-07-14T07:55:24+0200</time>
      </trkpt>
      <trkpt lat="44.94126" lon="6.54599">
        <ele>1627.4</ele>
        <time>2022-07-14T07:55:26+0200</time>
      </trkpt>
      <trkpt lat="44.94132" lon="6.54597">
        <ele>1627.9</ele>
        <time>2022-07-14T07:55:30+0200</time>
      </trkpt>
      <trkpt lat="44.94137" lon="6.54597">
        <ele>1627.5</ele>
        <time>2022-07-14T07:55:33+0200</time>
      </trkpt>
      <trkpt lat="44.94142" lon="6.54594">
        <ele>1628.5</ele>
        <time>2022-07-14T07:55:36+0200</time>
      </trkpt>
      <trkpt lat="44.94147" lon="6.54595">
        <ele>1628.1</ele>
        <time>2022-07-14T07:55:39+0200</time>
      </trkpt>
      <trkpt lat="44.94153" lon="6.54591">
        <ele>1629.5</ele>
        <time>2022-07-14T07:55:43+0200</time>
      </trkpt>
      <trkpt lat="44.94158" lon="6.5459">
        <ele>1629.6</ele>
        <time>2022-07-14T07:55:47+0200</time>
      </trkpt>
      <trkpt lat="44.94163" lon="6.54592">
        <ele>1628.6</ele>
        <time>2022-07-14T07:55:53+0200</time>
      </trkpt>
      <trkpt lat="44.94168" lon="6.54593">
        <ele>1628.1</ele>
        <time>2022-07-14T07:55:57+0200</time>
      </trkpt>
      <trkpt lat="44.94174" lon="6.54592">
        <ele>1627.9</ele>
        <time>2022-07-14T07:56:00+0200</time>
      </trkpt>
      <trkpt lat="44.94179" lon="6.54591">
        <ele>1628.2</ele>
        <time>2022-07-14T07:56:04+0200</time>
      </trkpt>
      <trkpt lat="44.94185" lon="6.5459">
        <ele>1628.3</ele>
        <time>2022-07-14T07:56:06+0200</time>
      </trkpt>
      <trkpt lat="44.9419" lon="6.54589">
        <ele>1628.3</ele>
        <time>2022-07-14T07:56:08+0200</time>
      </trkpt>
      <trkpt lat="44.94194" lon="6.54588">
        <ele>1628.4</ele>
        <time>2022-07-14T07:56:11+0200</time>
      </trkpt>
      <trkpt lat="44.94199" lon="6.54587">
        <ele>1627.6</ele>
        <time>2022-07-14T07:56:14+0200</time>
      </trkpt>
      <trkpt lat="44.94203" lon="6.54584">
        <ele>1628</ele>
        <time>2022-07-14T07:56:17+0200</time>
      </trkpt>
      <trkpt lat="44.94208" lon="6.54579">
        <ele>1629.4</ele>
        <time>2022-07-14T07:56:20+0200</time>
      </trkpt>
      <trkpt lat="44.94211" lon="6.54576">
        <ele>1630.5</ele>
        <time>2022-07-14T07:56:23+0200</time>
      </trkpt>
      <trkpt lat="44.94216" lon="6.54571">
        <ele>1632</ele>
        <time>2022-07-14T07:56:26+0200</time>
      </trkpt>
      <trkpt lat="44.94218" lon="6.54564">
        <ele>1634.8</ele>
        <time>2022-07-14T07:56:31+0200</time>
      </trkpt>
      <trkpt lat="44.94216" lon="6.54557">
        <ele>1638.2</ele>
        <time>2022-07-14T07:56:36+0200</time>
      </trkpt>
      <trkpt lat="44.94212" lon="6.54553">
        <ele>1640.5</ele>
        <time>2022-07-14T07:56:45+0200</time>
      </trkpt>
      <trkpt lat="44.94208" lon="6.54552">
        <ele>1641.7</ele>
        <time>2022-07-14T07:56:49+0200</time>
      </trkpt>
      <trkpt lat="44.94203" lon="6.54549">
        <ele>1643.6</ele>
        <time>2022-07-14T07:56:54+0200</time>
      </trkpt>
      <trkpt lat="44.94199" lon="6.54546">
        <ele>1645.6</ele>
        <time>2022-07-14T07:56:59+0200</time>
      </trkpt>
      <trkpt lat="44.94194" lon="6.54547">
        <ele>1646</ele>
        <time>2022-07-14T07:57:01+0200</time>
      </trkpt>
      <trkpt lat="44.94189" lon="6.54547">
        <ele>1646.6</ele>
        <time>2022-07-14T07:57:03+0200</time>
      </trkpt>
      <trkpt lat="44.94183" lon="6.54545">
        <ele>1648.3</ele>
        <time>2022-07-14T07:57:07+0200</time>
      </trkpt>
      <trkpt lat="44.94178" lon="6.54546">
        <ele>1648.4</ele>
        <time>2022-07-14T07:57:10+0200</time>
      </trkpt>
      <trkpt lat="44.94172" lon="6.54544">
        <ele>1650</ele>
        <time>2022-07-14T07:57:14+0200</time>
      </trkpt>
      <trkpt lat="44.94167" lon="6.54541">
        <ele>1651.9</ele>
        <time>2022-07-14T07:57:17+0200</time>
      </trkpt>
      <trkpt lat="44.94161" lon="6.54542">
        <ele>1651.8</ele>
        <time>2022-07-14T07:57:21+0200</time>
      </trkpt>
      <trkpt lat="44.94155" lon="6.54542">
        <ele>1652.1</ele>
        <time>2022-07-14T07:57:27+0200</time>
      </trkpt>
      <trkpt lat="44.94149" lon="6.54542">
        <ele>1652.5</ele>
        <time>2022-07-14T07:57:30+0200</time>
      </trkpt>
      <trkpt lat="44.94143" lon="6.54538">
        <ele>1654.8</ele>
        <time>2022-07-14T07:57:33+0200</time>
      </trkpt>
      <trkpt lat="44.94138" lon="6.54537">
        <ele>1655.4</ele>
        <time>2022-07-14T07:57:36+0200</time>
      </trkpt>
      <trkpt lat="44.94133" lon="6.54536">
        <ele>1656.4</ele>
        <time>2022-07-14T07:57:40+0200</time>
      </trkpt>
      <trkpt lat="44.94128" lon="6.54536">
        <ele>1656.2</ele>
        <time>2022-07-14T07:57:44+0200</time>
      </trkpt>
      <trkpt lat="44.94122" lon="6.54535">
        <ele>1657.1</ele>
        <time>2022-07-14T07:57:48+0200</time>
      </trkpt>
      <trkpt lat="44.94118" lon="6.54533">
        <ele>1658.1</ele>
        <time>2022-07-14T07:57:50+0200</time>
      </trkpt>
      <trkpt lat="44.94113" lon="6.54532">
        <ele>1659</ele>
        <time>2022-07-14T07:57:53+0200</time>
      </trkpt>
      <trkpt lat="44.94108" lon="6.54528">
        <ele>1660.5</ele>
        <time>2022-07-14T07:57:56+0200</time>
      </trkpt>
      <trkpt lat="44.94101" lon="6.54527">
        <ele>1660.4</ele>
        <time>2022-07-14T07:57:59+0200</time>
      </trkpt>
      <trkpt lat="44.94094" lon="6.54527">
        <ele>1660</ele>
        <time>2022-07-14T07:58:03+0200</time>
      </trkpt>
      <trkpt lat="44.94089" lon="6.54525">
        <ele>1660.8</ele>
        <time>2022-07-14T07:58:06+0200</time>
      </trkpt>
      <trkpt lat="44.94084" lon="6.54524">
        <ele>1660.7</ele>
        <time>2022-07-14T07:58:08+0200</time>
      </trkpt>
      <trkpt lat="44.94079" lon="6.54521">
        <ele>1661.7</ele>
        <time>2022-07-14T07:58:11+0200</time>
      </trkpt>
      <trkpt lat="44.94075" lon="6.54517">
        <ele>1662.7</ele>
        <time>2022-07-14T07:58:14+0200</time>
      </trkpt>
      <trkpt lat="44.94072" lon="6.54513">
        <ele>1664</ele>
        <time>2022-07-14T07:58:16+0200</time>
      </trkpt>
      <trkpt lat="44.94067" lon="6.54509">
        <ele>1664.8</ele>
        <time>2022-07-14T07:58:19+0200</time>
      </trkpt>
      <trkpt lat="44.94063" lon="6.54508">
        <ele>1664.9</ele>
        <time>2022-07-14T07:58:21+0200</time>
      </trkpt>
      <trkpt lat="44.94059" lon="6.54502">
        <ele>1666.7</ele>
        <time>2022-07-14T07:58:24+0200</time>
      </trkpt>
      <trkpt lat="44.94055" lon="6.54497">
        <ele>1668.2</ele>
        <time>2022-07-14T07:58:27+0200</time>
      </trkpt>
      <trkpt lat="44.94051" lon="6.54494">
        <ele>1669.2</ele>
        <time>2022-07-14T07:58:31+0200</time>
      </trkpt>
      <trkpt lat="44.94046" lon="6.54488">
        <ele>1671</ele>
        <time>2022-07-14T07:58:34+0200</time>
      </trkpt>
      <trkpt lat="44.94042" lon="6.54484">
        <ele>1672.3</ele>
        <time>2022-07-14T07:58:39+0200</time>
      </trkpt>
      <trkpt lat="44.94038" lon="6.54479">
        <ele>1674</ele>
        <time>2022-07-14T07:58:44+0200</time>
      </trkpt>
      <trkpt lat="44.94034" lon="6.54479">
        <ele>1673.6</ele>
        <time>2022-07-14T07:58:46+0200</time>
      </trkpt>
      <trkpt lat="44.94028" lon="6.5448">
        <ele>1673</ele>
        <time>2022-07-14T07:58:48+0200</time>
      </trkpt>
      <trkpt lat="44.94022" lon="6.54481">
        <ele>1672.8</ele>
        <time>2022-07-14T07:58:50+0200</time>
      </trkpt>
      <trkpt lat="44.94018" lon="6.54478">
        <ele>1673.9</ele>
        <time>2022-07-14T07:58:53+0200</time>
      </trkpt>
      <trkpt lat="44.94013" lon="6.54479">
        <ele>1673.9</ele>
        <time>2022-07-14T07:58:55+0200</time>
      </trkpt>
      <trkpt lat="44.94008" lon="6.54478">
        <ele>1674.4</ele>
        <time>2022-07-14T07:58:57+0200</time>
      </trkpt>
      <trkpt lat="44.94003" lon="6.54478">
        <ele>1674.5</ele>
        <time>2022-07-14T07:59:00+0200</time>
      </trkpt>
      <trkpt lat="44.93997" lon="6.5448">
        <ele>1674.3</ele>
        <time>2022-07-14T07:59:03+0200</time>
      </trkpt>
      <trkpt lat="44.93992" lon="6.54483">
        <ele>1673.9</ele>
        <time>2022-07-14T07:59:06+0200</time>
      </trkpt>
      <trkpt lat="44.93986" lon="6.54485">
        <ele>1673.8</ele>
        <time>2022-07-14T07:59:10+0200</time>
      </trkpt>
      <trkpt lat="44.93982" lon="6.54486">
        <ele>1674.1</ele>
        <time>2022-07-14T07:59:28+0200</time>
      </trkpt>
      <trkpt lat="44.93984" lon="6.54492">
        <ele>1671.8</ele>
        <time>2022-07-14T07:59:42+0200</time>
      </trkpt>
      <trkpt lat="44.9398" lon="6.54489">
        <ele>1673.5</ele>
        <time>2022-07-14T07:59:52+0200</time>
      </trkpt>
      <trkpt lat="44.93972" lon="6.54486">
        <ele>1675.5</ele>
        <time>2022-07-14T07:59:55+0200</time>
      </trkpt>
      <trkpt lat="44.93966" lon="6.54487">
        <ele>1676</ele>
        <time>2022-07-14T07:59:59+0200</time>
      </trkpt>
      <trkpt lat="44.9396" lon="6.54488">
        <ele>1676.5</ele>
        <time>2022-07-14T08:00:03+0200</time>
      </trkpt>
      <trkpt lat="44.93957" lon="6.54493">
        <ele>1675.7</ele>
        <time>2022-07-14T08:00:08+0200</time>
      </trkpt>
      <trkpt lat="44.93952" lon="6.54497">
        <ele>1674.8</ele>
        <time>2022-07-14T08:00:13+0200</time>
      </trkpt>
      <trkpt lat="44.93947" lon="6.545">
        <ele>1674.5</ele>
        <time>2022-07-14T08:00:18+0200</time>
      </trkpt>
      <trkpt lat="44.93942" lon="6.54501">
        <ele>1674.6</ele>
        <time>2022-07-14T08:00:23+0200</time>
      </trkpt>
      <trkpt lat="44.93936" lon="6.54498">
        <ele>1675.6</ele>
        <time>2022-07-14T08:00:27+0200</time>
      </trkpt>
      <trkpt lat="44.9393" lon="6.54498">
        <ele>1675.7</ele>
        <time>2022-07-14T08:00:30+0200</time>
      </trkpt>
      <trkpt lat="44.93925" lon="6.54494">
        <ele>1677.1</ele>
        <time>2022-07-14T08:00:35+0200</time>
      </trkpt>
      <trkpt lat="44.93921" lon="6.54492">
        <ele>1677.9</ele>
        <time>2022-07-14T08:00:38+0200</time>
      </trkpt>
      <trkpt lat="44.93917" lon="6.54488">
        <ele>1679.3</ele>
        <time>2022-07-14T08:00:41+0200</time>
      </trkpt>
      <trkpt lat="44.93913" lon="6.54483">
        <ele>1680.4</ele>
        <time>2022-07-14T08:00:45+0200</time>
      </trkpt>
      <trkpt lat="44.9391" lon="6.54476">
        <ele>1682.5</ele>
        <time>2022-07-14T08:00:51+0200</time>
      </trkpt>
      <trkpt lat="44.93915" lon="6.54474">
        <ele>1684.2</ele>
        <time>2022-07-14T08:01:06+0200</time>
      </trkpt>
      <trkpt lat="44.93918" lon="6.54469">
        <ele>1685.7</ele>
        <time>2022-07-14T08:01:10+0200</time>
      </trkpt>
      <trkpt lat="44.93923" lon="6.54467">
        <ele>1686.1</ele>
        <time>2022-07-14T08:01:14+0200</time>
      </trkpt>
      <trkpt lat="44.93928" lon="6.54462">
        <ele>1686.9</ele>
        <time>2022-07-14T08:01:18+0200</time>
      </trkpt>
      <trkpt lat="44.93931" lon="6.54458">
        <ele>1687.6</ele>
        <time>2022-07-14T08:01:21+0200</time>
      </trkpt>
      <trkpt lat="44.93934" lon="6.54452">
        <ele>1688.6</ele>
        <time>2022-07-14T08:01:24+0200</time>
      </trkpt>
      <trkpt lat="44.93938" lon="6.54446">
        <ele>1689.3</ele>
        <time>2022-07-14T08:01:28+0200</time>
      </trkpt>
      <trkpt lat="44.93941" lon="6.5444">
        <ele>1690.3</ele>
        <time>2022-07-14T08:01:32+0200</time>
      </trkpt>
      <trkpt lat="44.93943" lon="6.54433">
        <ele>1691.7</ele>
        <time>2022-07-14T08:01:36+0200</time>
      </trkpt>
      <trkpt lat="44.93946" lon="6.54428">
        <ele>1692.1</ele>
        <time>2022-07-14T08:01:39+0200</time>
      </trkpt>
      <trkpt lat="44.93948" lon="6.54421">
        <ele>1692.8</ele>
        <time>2022-07-14T08:01:43+0200</time>
      </trkpt>
      <trkpt lat="44.9395" lon="6.54415">
        <ele>1693</ele>
        <time>2022-07-14T08:01:46+0200</time>
      </trkpt>
      <trkpt lat="44.93951" lon="6.54407">
        <ele>1694.2</ele>
        <time>2022-07-14T08:01:49+0200</time>
      </trkpt>
      <trkpt lat="44.93952" lon="6.54401">
        <ele>1695.2</ele>
        <time>2022-07-14T08:01:52+0200</time>
      </trkpt>
      <trkpt lat="44.93954" lon="6.54395">
        <ele>1695.7</ele>
        <time>2022-07-14T08:01:56+0200</time>
      </trkpt>
      <trkpt lat="44.93955" lon="6.54387">
        <ele>1696.9</ele>
        <time>2022-07-14T08:02:00+0200</time>
      </trkpt>
      <trkpt lat="44.93955" lon="6.5438">
        <ele>1698.7</ele>
        <time>2022-07-14T08:02:04+0200</time>
      </trkpt>
      <trkpt lat="44.93953" lon="6.54372">
        <ele>1700.8</ele>
        <time>2022-07-14T08:02:08+0200</time>
      </trkpt>
      <trkpt lat="44.9395" lon="6.54368">
        <ele>1702.6</ele>
        <time>2022-07-14T08:02:17+0200</time>
      </trkpt>
      <trkpt lat="44.93945" lon="6.54371">
        <ele>1702.9</ele>
        <time>2022-07-14T08:02:22+0200</time>
      </trkpt>
      <trkpt lat="44.9394" lon="6.54375">
        <ele>1703.6</ele>
        <time>2022-07-14T08:02:25+0200</time>
      </trkpt>
      <trkpt lat="44.93935" lon="6.54379">
        <ele>1704.2</ele>
        <time>2022-07-14T08:02:29+0200</time>
      </trkpt>
      <trkpt lat="44.93931" lon="6.54382">
        <ele>1704.7</ele>
        <time>2022-07-14T08:02:33+0200</time>
      </trkpt>
      <trkpt lat="44.93926" lon="6.54386">
        <ele>1705.1</ele>
        <time>2022-07-14T08:02:37+0200</time>
      </trkpt>
      <trkpt lat="44.93923" lon="6.54391">
        <ele>1705.1</ele>
        <time>2022-07-14T08:02:41+0200</time>
      </trkpt>
      <trkpt lat="44.93917" lon="6.54393">
        <ele>1706.1</ele>
        <time>2022-07-14T08:02:45+0200</time>
      </trkpt>
      <trkpt lat="44.93912" lon="6.54391">
        <ele>1706.2</ele>
        <time>2022-07-14T08:02:48+0200</time>
      </trkpt>
      <trkpt lat="44.93908" lon="6.54387">
        <ele>1707</ele>
        <time>2022-07-14T08:02:51+0200</time>
      </trkpt>
      <trkpt lat="44.93906" lon="6.54382">
        <ele>1708.2</ele>
        <time>2022-07-14T08:02:55+0200</time>
      </trkpt>
      <trkpt lat="44.93906" lon="6.54374">
        <ele>1709.9</ele>
        <time>2022-07-14T08:03:00+0200</time>
      </trkpt>
      <trkpt lat="44.93908" lon="6.54367">
        <ele>1711.3</ele>
        <time>2022-07-14T08:03:04+0200</time>
      </trkpt>
      <trkpt lat="44.9391" lon="6.5436">
        <ele>1712.8</ele>
        <time>2022-07-14T08:03:08+0200</time>
      </trkpt>
      <trkpt lat="44.93912" lon="6.54354">
        <ele>1714</ele>
        <time>2022-07-14T08:03:12+0200</time>
      </trkpt>
      <trkpt lat="44.93913" lon="6.54347">
        <ele>1715.4</ele>
        <time>2022-07-14T08:03:19+0200</time>
      </trkpt>
      <trkpt lat="44.93912" lon="6.54341">
        <ele>1717.1</ele>
        <time>2022-07-14T08:03:36+0200</time>
      </trkpt>
      <trkpt lat="44.93912" lon="6.54334">
        <ele>1718.7</ele>
        <time>2022-07-14T08:04:15+0200</time>
      </trkpt>
      <trkpt lat="44.93914" lon="6.5434">
        <ele>1717</ele>
        <time>2022-07-14T08:04:50+0200</time>
      </trkpt>
      <trkpt lat="44.93909" lon="6.54341">
        <ele>1717.4</ele>
        <time>2022-07-14T08:05:10+0200</time>
      </trkpt>
      <trkpt lat="44.93914" lon="6.54343">
        <ele>1716.3</ele>
        <time>2022-07-14T08:05:33+0200</time>
      </trkpt>
      <trkpt lat="44.93917" lon="6.54338">
        <ele>1716.9</ele>
        <time>2022-07-14T08:05:36+0200</time>
      </trkpt>
      <trkpt lat="44.93921" lon="6.54334">
        <ele>1716.9</ele>
        <time>2022-07-14T08:05:40+0200</time>
      </trkpt>
      <trkpt lat="44.93925" lon="6.54329">
        <ele>1717.6</ele>
        <time>2022-07-14T08:05:44+0200</time>
      </trkpt>
      <trkpt lat="44.9393" lon="6.54324">
        <ele>1718.1</ele>
        <time>2022-07-14T08:05:48+0200</time>
      </trkpt>
      <trkpt lat="44.93934" lon="6.54321">
        <ele>1718.2</ele>
        <time>2022-07-14T08:05:51+0200</time>
      </trkpt>
      <trkpt lat="44.9394" lon="6.54317">
        <ele>1718.5</ele>
        <time>2022-07-14T08:05:54+0200</time>
      </trkpt>
      <trkpt lat="44.93944" lon="6.54314">
        <ele>1718.5</ele>
        <time>2022-07-14T08:05:58+0200</time>
      </trkpt>
      <trkpt lat="44.93948" lon="6.54309">
        <ele>1719.7</ele>
        <time>2022-07-14T08:06:02+0200</time>
      </trkpt>
      <trkpt lat="44.93953" lon="6.54308">
        <ele>1719.8</ele>
        <time>2022-07-14T08:06:05+0200</time>
      </trkpt>
      <trkpt lat="44.93958" lon="6.54307">
        <ele>1720.1</ele>
        <time>2022-07-14T08:06:08+0200</time>
      </trkpt>
      <trkpt lat="44.93963" lon="6.54304">
        <ele>1720.9</ele>
        <time>2022-07-14T08:06:11+0200</time>
      </trkpt>
      <trkpt lat="44.93967" lon="6.54303">
        <ele>1721.3</ele>
        <time>2022-07-14T08:06:15+0200</time>
      </trkpt>
      <trkpt lat="44.93972" lon="6.54301">
        <ele>1721.8</ele>
        <time>2022-07-14T08:06:20+0200</time>
      </trkpt>
      <trkpt lat="44.93977" lon="6.543">
        <ele>1722.9</ele>
        <time>2022-07-14T08:06:26+0200</time>
      </trkpt>
      <trkpt lat="44.93983" lon="6.54301">
        <ele>1723.3</ele>
        <time>2022-07-14T08:06:32+0200</time>
      </trkpt>
      <trkpt lat="44.93987" lon="6.54301">
        <ele>1723.5</ele>
        <time>2022-07-14T08:06:36+0200</time>
      </trkpt>
      <trkpt lat="44.93993" lon="6.54301">
        <ele>1724.1</ele>
        <time>2022-07-14T08:06:41+0200</time>
      </trkpt>
      <trkpt lat="44.93998" lon="6.54303">
        <ele>1724.1</ele>
        <time>2022-07-14T08:06:45+0200</time>
      </trkpt>
      <trkpt lat="44.94003" lon="6.54305">
        <ele>1724</ele>
        <time>2022-07-14T08:06:51+0200</time>
      </trkpt>
      <trkpt lat="44.94009" lon="6.54309">
        <ele>1723.9</ele>
        <time>2022-07-14T08:06:54+0200</time>
      </trkpt>
      <trkpt lat="44.94013" lon="6.54312">
        <ele>1723.4</ele>
        <time>2022-07-14T08:06:57+0200</time>
      </trkpt>
      <trkpt lat="44.94017" lon="6.54316">
        <ele>1722.9</ele>
        <time>2022-07-14T08:07:00+0200</time>
      </trkpt>
      <trkpt lat="44.94022" lon="6.54319">
        <ele>1722.8</ele>
        <time>2022-07-14T08:07:03+0200</time>
      </trkpt>
      <trkpt lat="44.94027" lon="6.54322">
        <ele>1722.8</ele>
        <time>2022-07-14T08:07:06+0200</time>
      </trkpt>
      <trkpt lat="44.94032" lon="6.54327">
        <ele>1722.1</ele>
        <time>2022-07-14T08:07:09+0200</time>
      </trkpt>
      <trkpt lat="44.94037" lon="6.54332">
        <ele>1721.9</ele>
        <time>2022-07-14T08:07:12+0200</time>
      </trkpt>
      <trkpt lat="44.94042" lon="6.54335">
        <ele>1722.4</ele>
        <time>2022-07-14T08:07:14+0200</time>
      </trkpt>
      <trkpt lat="44.94047" lon="6.5434">
        <ele>1722.6</ele>
        <time>2022-07-14T08:07:17+0200</time>
      </trkpt>
      <trkpt lat="44.94053" lon="6.54342">
        <ele>1723.8</ele>
        <time>2022-07-14T08:07:20+0200</time>
      </trkpt>
      <trkpt lat="44.94058" lon="6.54345">
        <ele>1724.1</ele>
        <time>2022-07-14T08:07:23+0200</time>
      </trkpt>
      <trkpt lat="44.94063" lon="6.54347">
        <ele>1724.6</ele>
        <time>2022-07-14T08:07:26+0200</time>
      </trkpt>
      <trkpt lat="44.94069" lon="6.5435">
        <ele>1725.5</ele>
        <time>2022-07-14T08:07:29+0200</time>
      </trkpt>
      <trkpt lat="44.94073" lon="6.54351">
        <ele>1726.6</ele>
        <time>2022-07-14T08:07:33+0200</time>
      </trkpt>
      <trkpt lat="44.94079" lon="6.54354">
        <ele>1727</ele>
        <time>2022-07-14T08:07:37+0200</time>
      </trkpt>
      <trkpt lat="44.94083" lon="6.54358">
        <ele>1727</ele>
        <time>2022-07-14T08:07:41+0200</time>
      </trkpt>
      <trkpt lat="44.94087" lon="6.54362">
        <ele>1726.4</ele>
        <time>2022-07-14T08:07:44+0200</time>
      </trkpt>
      <trkpt lat="44.94092" lon="6.54361">
        <ele>1727.5</ele>
        <time>2022-07-14T08:07:49+0200</time>
      </trkpt>
      <trkpt lat="44.94098" lon="6.54361">
        <ele>1728.8</ele>
        <time>2022-07-14T08:07:52+0200</time>
      </trkpt>
      <trkpt lat="44.94103" lon="6.5436">
        <ele>1730</ele>
        <time>2022-07-14T08:07:55+0200</time>
      </trkpt>
      <trkpt lat="44.94109" lon="6.5436">
        <ele>1731</ele>
        <time>2022-07-14T08:07:59+0200</time>
      </trkpt>
      <trkpt lat="44.94113" lon="6.5436">
        <ele>1731.4</ele>
        <time>2022-07-14T08:08:04+0200</time>
      </trkpt>
      <trkpt lat="44.94118" lon="6.5436">
        <ele>1731.6</ele>
        <time>2022-07-14T08:08:06+0200</time>
      </trkpt>
      <trkpt lat="44.94123" lon="6.54361">
        <ele>1731.6</ele>
        <time>2022-07-14T08:08:10+0200</time>
      </trkpt>
      <trkpt lat="44.94129" lon="6.54359">
        <ele>1732.5</ele>
        <time>2022-07-14T08:08:17+0200</time>
      </trkpt>
      <trkpt lat="44.94134" lon="6.54355">
        <ele>1734.2</ele>
        <time>2022-07-14T08:08:21+0200</time>
      </trkpt>
      <trkpt lat="44.9414" lon="6.54353">
        <ele>1734.9</ele>
        <time>2022-07-14T08:08:25+0200</time>
      </trkpt>
      <trkpt lat="44.94145" lon="6.5435">
        <ele>1735.3</ele>
        <time>2022-07-14T08:08:29+0200</time>
      </trkpt>
      <trkpt lat="44.9415" lon="6.54347">
        <ele>1736.1</ele>
        <time>2022-07-14T08:08:33+0200</time>
      </trkpt>
      <trkpt lat="44.94154" lon="6.54342">
        <ele>1737.2</ele>
        <time>2022-07-14T08:08:36+0200</time>
      </trkpt>
      <trkpt lat="44.94158" lon="6.54338">
        <ele>1738.3</ele>
        <time>2022-07-14T08:08:40+0200</time>
      </trkpt>
      <trkpt lat="44.94162" lon="6.54336">
        <ele>1738.6</ele>
        <time>2022-07-14T08:08:44+0200</time>
      </trkpt>
      <trkpt lat="44.94168" lon="6.54333">
        <ele>1738.9</ele>
        <time>2022-07-14T08:08:49+0200</time>
      </trkpt>
      <trkpt lat="44.94172" lon="6.54328">
        <ele>1740.1</ele>
        <time>2022-07-14T08:08:53+0200</time>
      </trkpt>
      <trkpt lat="44.94177" lon="6.54324">
        <ele>1741</ele>
        <time>2022-07-14T08:08:56+0200</time>
      </trkpt>
      <trkpt lat="44.94181" lon="6.54319">
        <ele>1742</ele>
        <time>2022-07-14T08:09:00+0200</time>
      </trkpt>
      <trkpt lat="44.94185" lon="6.54316">
        <ele>1742.7</ele>
        <time>2022-07-14T08:09:03+0200</time>
      </trkpt>
      <trkpt lat="44.9419" lon="6.5431">
        <ele>1744.1</ele>
        <time>2022-07-14T08:09:06+0200</time>
      </trkpt>
      <trkpt lat="44.94193" lon="6.54306">
        <ele>1745.2</ele>
        <time>2022-07-14T08:09:09+0200</time>
      </trkpt>
      <trkpt lat="44.94197" lon="6.54303">
        <ele>1746</ele>
        <time>2022-07-14T08:09:13+0200</time>
      </trkpt>
      <trkpt lat="44.94202" lon="6.54298">
        <ele>1747.4</ele>
        <time>2022-07-14T08:09:16+0200</time>
      </trkpt>
      <trkpt lat="44.94206" lon="6.54295">
        <ele>1748.6</ele>
        <time>2022-07-14T08:09:19+0200</time>
      </trkpt>
      <trkpt lat="44.94211" lon="6.54292">
        <ele>1749.6</ele>
        <time>2022-07-14T08:09:22+0200</time>
      </trkpt>
      <trkpt lat="44.94214" lon="6.54287">
        <ele>1751.5</ele>
        <time>2022-07-14T08:09:25+0200</time>
      </trkpt>
      <trkpt lat="44.94219" lon="6.54282">
        <ele>1753.2</ele>
        <time>2022-07-14T08:09:28+0200</time>
      </trkpt>
      <trkpt lat="44.94223" lon="6.54282">
        <ele>1753.4</ele>
        <time>2022-07-14T08:09:31+0200</time>
      </trkpt>
      <trkpt lat="44.94228" lon="6.54283">
        <ele>1752.9</ele>
        <time>2022-07-14T08:09:33+0200</time>
      </trkpt>
      <trkpt lat="44.94232" lon="6.54281">
        <ele>1754.2</ele>
        <time>2022-07-14T08:09:47+0200</time>
      </trkpt>
      <trkpt lat="44.94239" lon="6.54284">
        <ele>1753.2</ele>
        <time>2022-07-14T08:09:50+0200</time>
      </trkpt>
      <trkpt lat="44.94243" lon="6.54283">
        <ele>1753.8</ele>
        <time>2022-07-14T08:09:52+0200</time>
      </trkpt>
      <trkpt lat="44.94249" lon="6.54286">
        <ele>1752.8</ele>
        <time>2022-07-14T08:09:55+0200</time>
      </trkpt>
      <trkpt lat="44.94254" lon="6.54291">
        <ele>1751.4</ele>
        <time>2022-07-14T08:09:59+0200</time>
      </trkpt>
      <trkpt lat="44.94259" lon="6.54292">
        <ele>1751.5</ele>
        <time>2022-07-14T08:10:01+0200</time>
      </trkpt>
      <trkpt lat="44.94264" lon="6.54293">
        <ele>1751.6</ele>
        <time>2022-07-14T08:10:05+0200</time>
      </trkpt>
      <trkpt lat="44.9427" lon="6.54292">
        <ele>1752.7</ele>
        <time>2022-07-14T08:10:08+0200</time>
      </trkpt>
      <trkpt lat="44.94274" lon="6.5429">
        <ele>1754.1</ele>
        <time>2022-07-14T08:10:11+0200</time>
      </trkpt>
      <trkpt lat="44.9428" lon="6.54289">
        <ele>1755.2</ele>
        <time>2022-07-14T08:10:14+0200</time>
      </trkpt>
      <trkpt lat="44.94285" lon="6.54289">
        <ele>1756.1</ele>
        <time>2022-07-14T08:10:17+0200</time>
      </trkpt>
      <trkpt lat="44.9429" lon="6.54289">
        <ele>1756.3</ele>
        <time>2022-07-14T08:10:23+0200</time>
      </trkpt>
      <trkpt lat="44.94295" lon="6.5429">
        <ele>1756.5</ele>
        <time>2022-07-14T08:10:27+0200</time>
      </trkpt>
      <trkpt lat="44.94301" lon="6.54288">
        <ele>1757.6</ele>
        <time>2022-07-14T08:10:33+0200</time>
      </trkpt>
      <trkpt lat="44.94306" lon="6.54287">
        <ele>1758.7</ele>
        <time>2022-07-14T08:10:35+0200</time>
      </trkpt>
      <trkpt lat="44.94311" lon="6.54285">
        <ele>1759.8</ele>
        <time>2022-07-14T08:10:37+0200</time>
      </trkpt>
      <trkpt lat="44.94311" lon="6.54279">
        <ele>1763</ele>
        <time>2022-07-14T08:10:48+0200</time>
      </trkpt>
      <trkpt lat="44.94308" lon="6.54273">
        <ele>1765</ele>
        <time>2022-07-14T08:10:54+0200</time>
      </trkpt>
      <trkpt lat="44.94306" lon="6.54266">
        <ele>1767.7</ele>
        <time>2022-07-14T08:10:57+0200</time>
      </trkpt>
      <trkpt lat="44.94303" lon="6.54261">
        <ele>1769.5</ele>
        <time>2022-07-14T08:11:02+0200</time>
      </trkpt>
      <trkpt lat="44.94299" lon="6.54255">
        <ele>1771.3</ele>
        <time>2022-07-14T08:11:06+0200</time>
      </trkpt>
      <trkpt lat="44.94294" lon="6.54254">
        <ele>1771.2</ele>
        <time>2022-07-14T08:11:10+0200</time>
      </trkpt>
      <trkpt lat="44.94289" lon="6.54253">
        <ele>1771</ele>
        <time>2022-07-14T08:11:12+0200</time>
      </trkpt>
      <trkpt lat="44.94284" lon="6.54251">
        <ele>1771.4</ele>
        <time>2022-07-14T08:11:15+0200</time>
      </trkpt>
      <trkpt lat="44.94279" lon="6.54249">
        <ele>1771.7</ele>
        <time>2022-07-14T08:11:18+0200</time>
      </trkpt>
      <trkpt lat="44.94275" lon="6.54245">
        <ele>1773</ele>
        <time>2022-07-14T08:11:23+0200</time>
      </trkpt>
      <trkpt lat="44.94272" lon="6.5424">
        <ele>1774.9</ele>
        <time>2022-07-14T08:11:27+0200</time>
      </trkpt>
      <trkpt lat="44.94267" lon="6.54237">
        <ele>1775.9</ele>
        <time>2022-07-14T08:11:32+0200</time>
      </trkpt>
      <trkpt lat="44.94261" lon="6.54233">
        <ele>1777.3</ele>
        <time>2022-07-14T08:11:35+0200</time>
      </trkpt>
      <trkpt lat="44.94256" lon="6.54231">
        <ele>1777.8</ele>
        <time>2022-07-14T08:11:38+0200</time>
      </trkpt>
      <trkpt lat="44.9425" lon="6.54227">
        <ele>1779.1</ele>
        <time>2022-07-14T08:11:42+0200</time>
      </trkpt>
      <trkpt lat="44.94244" lon="6.54223">
        <ele>1780.4</ele>
        <time>2022-07-14T08:11:48+0200</time>
      </trkpt>
      <trkpt lat="44.9424" lon="6.54222">
        <ele>1780.8</ele>
        <time>2022-07-14T08:11:52+0200</time>
      </trkpt>
      <trkpt lat="44.94233" lon="6.54221">
        <ele>1780.8</ele>
        <time>2022-07-14T08:11:54+0200</time>
      </trkpt>
      <trkpt lat="44.94228" lon="6.54221">
        <ele>1780.8</ele>
        <time>2022-07-14T08:11:56+0200</time>
      </trkpt>
      <trkpt lat="44.94222" lon="6.54219">
        <ele>1781.5</ele>
        <time>2022-07-14T08:11:59+0200</time>
      </trkpt>
      <trkpt lat="44.94215" lon="6.5422">
        <ele>1781.2</ele>
        <time>2022-07-14T08:12:02+0200</time>
      </trkpt>
      <trkpt lat="44.9421" lon="6.5422">
        <ele>1781.3</ele>
        <time>2022-07-14T08:12:04+0200</time>
      </trkpt>
      <trkpt lat="44.94204" lon="6.54218">
        <ele>1782.2</ele>
        <time>2022-07-14T08:12:07+0200</time>
      </trkpt>
      <trkpt lat="44.94199" lon="6.54219">
        <ele>1781.5</ele>
        <time>2022-07-14T08:12:10+0200</time>
      </trkpt>
      <trkpt lat="44.94193" lon="6.54216">
        <ele>1782.9</ele>
        <time>2022-07-14T08:12:13+0200</time>
      </trkpt>
      <trkpt lat="44.94187" lon="6.54215">
        <ele>1783.5</ele>
        <time>2022-07-14T08:12:16+0200</time>
      </trkpt>
      <trkpt lat="44.94182" lon="6.54213">
        <ele>1784.3</ele>
        <time>2022-07-14T08:12:20+0200</time>
      </trkpt>
      <trkpt lat="44.94178" lon="6.5421">
        <ele>1785.2</ele>
        <time>2022-07-14T08:12:23+0200</time>
      </trkpt>
      <trkpt lat="44.94172" lon="6.54211">
        <ele>1784.7</ele>
        <time>2022-07-14T08:12:27+0200</time>
      </trkpt>
      <trkpt lat="44.94166" lon="6.54212">
        <ele>1784.1</ele>
        <time>2022-07-14T08:12:30+0200</time>
      </trkpt>
      <trkpt lat="44.94161" lon="6.5421">
        <ele>1784.4</ele>
        <time>2022-07-14T08:12:33+0200</time>
      </trkpt>
      <trkpt lat="44.94155" lon="6.54207">
        <ele>1785.1</ele>
        <time>2022-07-14T08:12:36+0200</time>
      </trkpt>
      <trkpt lat="44.9415" lon="6.54208">
        <ele>1784.6</ele>
        <time>2022-07-14T08:12:40+0200</time>
      </trkpt>
      <trkpt lat="44.94145" lon="6.54206">
        <ele>1784.7</ele>
        <time>2022-07-14T08:12:45+0200</time>
      </trkpt>
      <trkpt lat="44.9414" lon="6.54205">
        <ele>1784.9</ele>
        <time>2022-07-14T08:12:47+0200</time>
      </trkpt>
      <trkpt lat="44.94134" lon="6.54204">
        <ele>1784.8</ele>
        <time>2022-07-14T08:12:49+0200</time>
      </trkpt>
      <trkpt lat="44.94128" lon="6.54203">
        <ele>1784.6</ele>
        <time>2022-07-14T08:12:51+0200</time>
      </trkpt>
      <trkpt lat="44.94123" lon="6.54199">
        <ele>1785.7</ele>
        <time>2022-07-14T08:12:54+0200</time>
      </trkpt>
      <trkpt lat="44.94116" lon="6.54197">
        <ele>1785.8</ele>
        <time>2022-07-14T08:12:58+0200</time>
      </trkpt>
      <trkpt lat="44.94111" lon="6.54194">
        <ele>1786.2</ele>
        <time>2022-07-14T08:13:01+0200</time>
      </trkpt>
      <trkpt lat="44.94108" lon="6.5419">
        <ele>1787.1</ele>
        <time>2022-07-14T08:13:03+0200</time>
      </trkpt>
      <trkpt lat="44.94103" lon="6.54185">
        <ele>1788.5</ele>
        <time>2022-07-14T08:13:06+0200</time>
      </trkpt>
      <trkpt lat="44.94099" lon="6.54182">
        <ele>1789.2</ele>
        <time>2022-07-14T08:13:10+0200</time>
      </trkpt>
      <trkpt lat="44.94094" lon="6.5418">
        <ele>1789.3</ele>
        <time>2022-07-14T08:13:13+0200</time>
      </trkpt>
      <trkpt lat="44.94091" lon="6.54176">
        <ele>1790.5</ele>
        <time>2022-07-14T08:13:16+0200</time>
      </trkpt>
      <trkpt lat="44.94086" lon="6.54174">
        <ele>1790.6</ele>
        <time>2022-07-14T08:13:21+0200</time>
      </trkpt>
      <trkpt lat="44.94084" lon="6.54168">
        <ele>1792.7</ele>
        <time>2022-07-14T08:13:24+0200</time>
      </trkpt>
      <trkpt lat="44.9408" lon="6.54162">
        <ele>1794.6</ele>
        <time>2022-07-14T08:13:28+0200</time>
      </trkpt>
      <trkpt lat="44.94075" lon="6.54158">
        <ele>1796</ele>
        <time>2022-07-14T08:13:31+0200</time>
      </trkpt>
      <trkpt lat="44.9407" lon="6.54154">
        <ele>1796.9</ele>
        <time>2022-07-14T08:13:34+0200</time>
      </trkpt>
      <trkpt lat="44.94065" lon="6.54151">
        <ele>1797.7</ele>
        <time>2022-07-14T08:13:37+0200</time>
      </trkpt>
      <trkpt lat="44.9406" lon="6.54148">
        <ele>1798.2</ele>
        <time>2022-07-14T08:13:40+0200</time>
      </trkpt>
      <trkpt lat="44.94055" lon="6.54146">
        <ele>1798.6</ele>
        <time>2022-07-14T08:13:43+0200</time>
      </trkpt>
      <trkpt lat="44.9405" lon="6.54143">
        <ele>1799.2</ele>
        <time>2022-07-14T08:13:46+0200</time>
      </trkpt>
      <trkpt lat="44.94046" lon="6.54143">
        <ele>1798.6</ele>
        <time>2022-07-14T08:13:48+0200</time>
      </trkpt>
      <trkpt lat="44.94041" lon="6.5414">
        <ele>1799.2</ele>
        <time>2022-07-14T08:13:50+0200</time>
      </trkpt>
      <trkpt lat="44.94035" lon="6.54137">
        <ele>1799.8</ele>
        <time>2022-07-14T08:13:54+0200</time>
      </trkpt>
      <trkpt lat="44.9403" lon="6.54134">
        <ele>1800.3</ele>
        <time>2022-07-14T08:13:57+0200</time>
      </trkpt>
      <trkpt lat="44.94024" lon="6.54131">
        <ele>1801.1</ele>
        <time>2022-07-14T08:14:00+0200</time>
      </trkpt>
      <trkpt lat="44.94017" lon="6.54128">
        <ele>1801.5</ele>
        <time>2022-07-14T08:14:03+0200</time>
      </trkpt>
      <trkpt lat="44.94012" lon="6.54128">
        <ele>1801.2</ele>
        <time>2022-07-14T08:14:05+0200</time>
      </trkpt>
      <trkpt lat="44.94008" lon="6.54122">
        <ele>1803.1</ele>
        <time>2022-07-14T08:14:08+0200</time>
      </trkpt>
      <trkpt lat="44.94004" lon="6.54117">
        <ele>1804.4</ele>
        <time>2022-07-14T08:14:12+0200</time>
      </trkpt>
      <trkpt lat="44.93999" lon="6.54116">
        <ele>1804.3</ele>
        <time>2022-07-14T08:14:16+0200</time>
      </trkpt>
      <trkpt lat="44.93996" lon="6.5411">
        <ele>1806.2</ele>
        <time>2022-07-14T08:14:19+0200</time>
      </trkpt>
      <trkpt lat="44.93993" lon="6.54115">
        <ele>1804.2</ele>
        <time>2022-07-14T08:14:24+0200</time>
      </trkpt>
      <trkpt lat="44.93997" lon="6.5412">
        <ele>1802.8</ele>
        <time>2022-07-14T08:14:35+0200</time>
      </trkpt>
      <trkpt lat="44.94" lon="6.54127">
        <ele>1800.3</ele>
        <time>2022-07-14T08:14:39+0200</time>
      </trkpt>
      <trkpt lat="44.94001" lon="6.54121">
        <ele>1802.7</ele>
        <time>2022-07-14T08:14:55+0200</time>
      </trkpt>
      <trkpt lat="44.93998" lon="6.54115">
        <ele>1804.5</ele>
        <time>2022-07-14T08:14:59+0200</time>
      </trkpt>
      <trkpt lat="44.93993" lon="6.54114">
        <ele>1804.8</ele>
        <time>2022-07-14T08:15:04+0200</time>
      </trkpt>
      <trkpt lat="44.93988" lon="6.54108">
        <ele>1806.6</ele>
        <time>2022-07-14T08:15:09+0200</time>
      </trkpt>
      <trkpt lat="44.93983" lon="6.54104">
        <ele>1807.3</ele>
        <time>2022-07-14T08:15:15+0200</time>
      </trkpt>
      <trkpt lat="44.93978" lon="6.54101">
        <ele>1807.8</ele>
        <time>2022-07-14T08:15:18+0200</time>
      </trkpt>
      <trkpt lat="44.93973" lon="6.54098">
        <ele>1808.3</ele>
        <time>2022-07-14T08:15:23+0200</time>
      </trkpt>
      <trkpt lat="44.93968" lon="6.54099">
        <ele>1807.9</ele>
        <time>2022-07-14T08:15:27+0200</time>
      </trkpt>
      <trkpt lat="44.93963" lon="6.54099">
        <ele>1807.5</ele>
        <time>2022-07-14T08:15:33+0200</time>
      </trkpt>
      <trkpt lat="44.93958" lon="6.541">
        <ele>1806.8</ele>
        <time>2022-07-14T08:15:35+0200</time>
      </trkpt>
      <trkpt lat="44.93952" lon="6.541">
        <ele>1806.4</ele>
        <time>2022-07-14T08:15:39+0200</time>
      </trkpt>
      <trkpt lat="44.93946" lon="6.54098">
        <ele>1806.4</ele>
        <time>2022-07-14T08:15:42+0200</time>
      </trkpt>
      <trkpt lat="44.9394" lon="6.54098">
        <ele>1806</ele>
        <time>2022-07-14T08:15:45+0200</time>
      </trkpt>
      <trkpt lat="44.93936" lon="6.54096">
        <ele>1806.3</ele>
        <time>2022-07-14T08:15:48+0200</time>
      </trkpt>
      <trkpt lat="44.9393" lon="6.54093">
        <ele>1807</ele>
        <time>2022-07-14T08:15:51+0200</time>
      </trkpt>
      <trkpt lat="44.93926" lon="6.5409">
        <ele>1807.6</ele>
        <time>2022-07-14T08:15:53+0200</time>
      </trkpt>
      <trkpt lat="44.93922" lon="6.54085">
        <ele>1808.7</ele>
        <time>2022-07-14T08:15:57+0200</time>
      </trkpt>
      <trkpt lat="44.93918" lon="6.54081">
        <ele>1809.9</ele>
        <time>2022-07-14T08:16:00+0200</time>
      </trkpt>
      <trkpt lat="44.93915" lon="6.54076">
        <ele>1811.3</ele>
        <time>2022-07-14T08:16:03+0200</time>
      </trkpt>
      <trkpt lat="44.9391" lon="6.54074">
        <ele>1811.9</ele>
        <time>2022-07-14T08:16:06+0200</time>
      </trkpt>
      <trkpt lat="44.93905" lon="6.54071">
        <ele>1812.7</ele>
        <time>2022-07-14T08:16:09+0200</time>
      </trkpt>
      <trkpt lat="44.93901" lon="6.54065">
        <ele>1814.5</ele>
        <time>2022-07-14T08:16:13+0200</time>
      </trkpt>
      <trkpt lat="44.93897" lon="6.54061">
        <ele>1815.5</ele>
        <time>2022-07-14T08:16:17+0200</time>
      </trkpt>
      <trkpt lat="44.93893" lon="6.54057">
        <ele>1816.6</ele>
        <time>2022-07-14T08:16:21+0200</time>
      </trkpt>
      <trkpt lat="44.93889" lon="6.54053">
        <ele>1817.9</ele>
        <time>2022-07-14T08:16:24+0200</time>
      </trkpt>
      <trkpt lat="44.93885" lon="6.54049">
        <ele>1819.3</ele>
        <time>2022-07-14T08:16:28+0200</time>
      </trkpt>
      <trkpt lat="44.93881" lon="6.54044">
        <ele>1821.3</ele>
        <time>2022-07-14T08:16:33+0200</time>
      </trkpt>
      <trkpt lat="44.93876" lon="6.54043">
        <ele>1821.4</ele>
        <time>2022-07-14T08:16:36+0200</time>
      </trkpt>
      <trkpt lat="44.9387" lon="6.54041">
        <ele>1821.8</ele>
        <time>2022-07-14T08:16:40+0200</time>
      </trkpt>
      <trkpt lat="44.93865" lon="6.54038">
        <ele>1822.5</ele>
        <time>2022-07-14T08:16:44+0200</time>
      </trkpt>
      <trkpt lat="44.93861" lon="6.54037">
        <ele>1822.9</ele>
        <time>2022-07-14T08:16:47+0200</time>
      </trkpt>
      <trkpt lat="44.93856" lon="6.54036">
        <ele>1823.5</ele>
        <time>2022-07-14T08:16:51+0200</time>
      </trkpt>
      <trkpt lat="44.9385" lon="6.54037">
        <ele>1823.6</ele>
        <time>2022-07-14T08:16:54+0200</time>
      </trkpt>
      <trkpt lat="44.93845" lon="6.5404">
        <ele>1823.4</ele>
        <time>2022-07-14T08:16:58+0200</time>
      </trkpt>
      <trkpt lat="44.93839" lon="6.54041">
        <ele>1823.5</ele>
        <time>2022-07-14T08:17:02+0200</time>
      </trkpt>
      <trkpt lat="44.93833" lon="6.54046">
        <ele>1822.9</ele>
        <time>2022-07-14T08:17:05+0200</time>
      </trkpt>
      <trkpt lat="44.93828" lon="6.54046">
        <ele>1825</ele>
        <time>2022-07-14T08:17:09+0200</time>
      </trkpt>
      <trkpt lat="44.93823" lon="6.54046">
        <ele>1826.8</ele>
        <time>2022-07-14T08:17:13+0200</time>
      </trkpt>
      <trkpt lat="44.93818" lon="6.54049">
        <ele>1828</ele>
        <time>2022-07-14T08:17:17+0200</time>
      </trkpt>
      <trkpt lat="44.93813" lon="6.54051">
        <ele>1829.2</ele>
        <time>2022-07-14T08:17:21+0200</time>
      </trkpt>
      <trkpt lat="44.93809" lon="6.54056">
        <ele>1829.6</ele>
        <time>2022-07-14T08:17:23+0200</time>
      </trkpt>
      <trkpt lat="44.93805" lon="6.54059">
        <ele>1830.3</ele>
        <time>2022-07-14T08:17:25+0200</time>
      </trkpt>
      <trkpt lat="44.938" lon="6.54064">
        <ele>1831.1</ele>
        <time>2022-07-14T08:17:29+0200</time>
      </trkpt>
      <trkpt lat="44.93798" lon="6.5407">
        <ele>1830.6</ele>
        <time>2022-07-14T08:17:32+0200</time>
      </trkpt>
      <trkpt lat="44.93795" lon="6.54076">
        <ele>1830</ele>
        <time>2022-07-14T08:17:34+0200</time>
      </trkpt>
      <trkpt lat="44.93791" lon="6.54082">
        <ele>1830.2</ele>
        <time>2022-07-14T08:17:38+0200</time>
      </trkpt>
      <trkpt lat="44.93787" lon="6.54087">
        <ele>1830.7</ele>
        <time>2022-07-14T08:17:40+0200</time>
      </trkpt>
      <trkpt lat="44.93784" lon="6.54092">
        <ele>1830.5</ele>
        <time>2022-07-14T08:17:45+0200</time>
      </trkpt>
      <trkpt lat="44.93781" lon="6.54099">
        <ele>1830.1</ele>
        <time>2022-07-14T08:17:48+0200</time>
      </trkpt>
      <trkpt lat="44.93777" lon="6.54103">
        <ele>1831.1</ele>
        <time>2022-07-14T08:17:51+0200</time>
      </trkpt>
      <trkpt lat="44.93773" lon="6.54108">
        <ele>1831.3</ele>
        <time>2022-07-14T08:17:55+0200</time>
      </trkpt>
      <trkpt lat="44.93767" lon="6.54113">
        <ele>1832.8</ele>
        <time>2022-07-14T08:17:59+0200</time>
      </trkpt>
      <trkpt lat="44.93763" lon="6.54116">
        <ele>1834.1</ele>
        <time>2022-07-14T08:18:01+0200</time>
      </trkpt>
      <trkpt lat="44.93758" lon="6.54119">
        <ele>1835.9</ele>
        <time>2022-07-14T08:18:04+0200</time>
      </trkpt>
      <trkpt lat="44.93754" lon="6.54124">
        <ele>1836.7</ele>
        <time>2022-07-14T08:18:08+0200</time>
      </trkpt>
      <trkpt lat="44.9375" lon="6.5413">
        <ele>1837.2</ele>
        <time>2022-07-14T08:18:12+0200</time>
      </trkpt>
      <trkpt lat="44.93746" lon="6.54134">
        <ele>1837.9</ele>
        <time>2022-07-14T08:18:16+0200</time>
      </trkpt>
      <trkpt lat="44.93742" lon="6.54139">
        <ele>1838.1</ele>
        <time>2022-07-14T08:18:19+0200</time>
      </trkpt>
      <trkpt lat="44.93739" lon="6.54146">
        <ele>1837.2</ele>
        <time>2022-07-14T08:18:24+0200</time>
      </trkpt>
      <trkpt lat="44.93734" lon="6.54146">
        <ele>1838.9</ele>
        <time>2022-07-14T08:18:28+0200</time>
      </trkpt>
      <trkpt lat="44.9373" lon="6.54148">
        <ele>1840.1</ele>
        <time>2022-07-14T08:18:30+0200</time>
      </trkpt>
      <trkpt lat="44.93724" lon="6.5415">
        <ele>1841.8</ele>
        <time>2022-07-14T08:18:34+0200</time>
      </trkpt>
      <trkpt lat="44.9372" lon="6.54154">
        <ele>1841.7</ele>
        <time>2022-07-14T08:18:37+0200</time>
      </trkpt>
      <trkpt lat="44.93715" lon="6.54156">
        <ele>1841.8</ele>
        <time>2022-07-14T08:18:40+0200</time>
      </trkpt>
      <trkpt lat="44.93711" lon="6.54158">
        <ele>1841.9</ele>
        <time>2022-07-14T08:18:43+0200</time>
      </trkpt>
      <trkpt lat="44.93706" lon="6.54161">
        <ele>1841.8</ele>
        <time>2022-07-14T08:18:46+0200</time>
      </trkpt>
      <trkpt lat="44.93701" lon="6.54162">
        <ele>1842.4</ele>
        <time>2022-07-14T08:18:49+0200</time>
      </trkpt>
      <trkpt lat="44.93696" lon="6.54163">
        <ele>1843.2</ele>
        <time>2022-07-14T08:18:52+0200</time>
      </trkpt>
      <trkpt lat="44.93691" lon="6.54163">
        <ele>1843.3</ele>
        <time>2022-07-14T08:18:55+0200</time>
      </trkpt>
      <trkpt lat="44.93684" lon="6.54164">
        <ele>1843.1</ele>
        <time>2022-07-14T08:18:58+0200</time>
      </trkpt>
      <trkpt lat="44.93678" lon="6.54162">
        <ele>1843.8</ele>
        <time>2022-07-14T08:19:01+0200</time>
      </trkpt>
      <trkpt lat="44.93673" lon="6.54161">
        <ele>1844</ele>
        <time>2022-07-14T08:19:03+0200</time>
      </trkpt>
      <trkpt lat="44.93669" lon="6.54158">
        <ele>1845</ele>
        <time>2022-07-14T08:19:05+0200</time>
      </trkpt>
      <trkpt lat="44.93664" lon="6.54155">
        <ele>1845.8</ele>
        <time>2022-07-14T08:19:09+0200</time>
      </trkpt>
      <trkpt lat="44.9366" lon="6.54151">
        <ele>1846.3</ele>
        <time>2022-07-14T08:19:12+0200</time>
      </trkpt>
      <trkpt lat="44.93655" lon="6.54149">
        <ele>1846.3</ele>
        <time>2022-07-14T08:19:15+0200</time>
      </trkpt>
      <trkpt lat="44.9365" lon="6.54147">
        <ele>1846.1</ele>
        <time>2022-07-14T08:19:18+0200</time>
      </trkpt>
      <trkpt lat="44.93645" lon="6.54143">
        <ele>1846.8</ele>
        <time>2022-07-14T08:19:21+0200</time>
      </trkpt>
      <trkpt lat="44.93641" lon="6.5414">
        <ele>1847</ele>
        <time>2022-07-14T08:19:24+0200</time>
      </trkpt>
      <trkpt lat="44.93637" lon="6.54137">
        <ele>1847.2</ele>
        <time>2022-07-14T08:19:27+0200</time>
      </trkpt>
      <trkpt lat="44.93633" lon="6.54133">
        <ele>1847.8</ele>
        <time>2022-07-14T08:19:30+0200</time>
      </trkpt>
      <trkpt lat="44.93627" lon="6.54131">
        <ele>1847.2</ele>
        <time>2022-07-14T08:19:33+0200</time>
      </trkpt>
      <trkpt lat="44.93623" lon="6.54126">
        <ele>1848.1</ele>
        <time>2022-07-14T08:19:37+0200</time>
      </trkpt>
      <trkpt lat="44.93619" lon="6.54122">
        <ele>1849</ele>
        <time>2022-07-14T08:19:41+0200</time>
      </trkpt>
      <trkpt lat="44.93616" lon="6.54116">
        <ele>1850.3</ele>
        <time>2022-07-14T08:19:44+0200</time>
      </trkpt>
      <trkpt lat="44.93613" lon="6.54111">
        <ele>1851.3</ele>
        <time>2022-07-14T08:19:48+0200</time>
      </trkpt>
      <trkpt lat="44.93609" lon="6.54106">
        <ele>1852.3</ele>
        <time>2022-07-14T08:19:53+0200</time>
      </trkpt>
      <trkpt lat="44.93605" lon="6.54102">
        <ele>1852.9</ele>
        <time>2022-07-14T08:19:57+0200</time>
      </trkpt>
      <trkpt lat="44.93601" lon="6.54096">
        <ele>1854</ele>
        <time>2022-07-14T08:20:01+0200</time>
      </trkpt>
      <trkpt lat="44.93597" lon="6.54093">
        <ele>1854.3</ele>
        <time>2022-07-14T08:20:04+0200</time>
      </trkpt>
      <trkpt lat="44.93595" lon="6.54087">
        <ele>1855.9</ele>
        <time>2022-07-14T08:20:07+0200</time>
      </trkpt>
      <trkpt lat="44.93591" lon="6.54083">
        <ele>1856.4</ele>
        <time>2022-07-14T08:20:10+0200</time>
      </trkpt>
      <trkpt lat="44.93588" lon="6.54079">
        <ele>1857</ele>
        <time>2022-07-14T08:20:13+0200</time>
      </trkpt>
      <trkpt lat="44.93585" lon="6.54073">
        <ele>1857.9</ele>
        <time>2022-07-14T08:20:16+0200</time>
      </trkpt>
      <trkpt lat="44.93581" lon="6.54068">
        <ele>1858.6</ele>
        <time>2022-07-14T08:20:19+0200</time>
      </trkpt>
      <trkpt lat="44.93579" lon="6.54061">
        <ele>1860.2</ele>
        <time>2022-07-14T08:20:23+0200</time>
      </trkpt>
      <trkpt lat="44.93575" lon="6.54057">
        <ele>1861.2</ele>
        <time>2022-07-14T08:20:26+0200</time>
      </trkpt>
      <trkpt lat="44.9357" lon="6.54054">
        <ele>1861.5</ele>
        <time>2022-07-14T08:20:30+0200</time>
      </trkpt>
      <trkpt lat="44.93565" lon="6.5405">
        <ele>1862.2</ele>
        <time>2022-07-14T08:20:33+0200</time>
      </trkpt>
      <trkpt lat="44.93561" lon="6.54045">
        <ele>1863.2</ele>
        <time>2022-07-14T08:20:42+0200</time>
      </trkpt>
      <trkpt lat="44.93557" lon="6.54041">
        <ele>1863.7</ele>
        <time>2022-07-14T08:20:45+0200</time>
      </trkpt>
      <trkpt lat="44.93551" lon="6.54042">
        <ele>1863.7</ele>
        <time>2022-07-14T08:20:50+0200</time>
      </trkpt>
      <trkpt lat="44.93545" lon="6.54042">
        <ele>1864.5</ele>
        <time>2022-07-14T08:20:52+0200</time>
      </trkpt>
      <trkpt lat="44.93539" lon="6.54042">
        <ele>1864.8</ele>
        <time>2022-07-14T08:20:54+0200</time>
      </trkpt>
      <trkpt lat="44.93535" lon="6.54041">
        <ele>1865.5</ele>
        <time>2022-07-14T08:20:57+0200</time>
      </trkpt>
      <trkpt lat="44.93529" lon="6.54044">
        <ele>1865.1</ele>
        <time>2022-07-14T08:20:59+0200</time>
      </trkpt>
      <trkpt lat="44.93522" lon="6.54046">
        <ele>1865.4</ele>
        <time>2022-07-14T08:21:02+0200</time>
      </trkpt>
      <trkpt lat="44.93516" lon="6.54045">
        <ele>1865.9</ele>
        <time>2022-07-14T08:21:05+0200</time>
      </trkpt>
      <trkpt lat="44.9351" lon="6.54044">
        <ele>1867</ele>
        <time>2022-07-14T08:21:09+0200</time>
      </trkpt>
      <trkpt lat="44.93505" lon="6.54043">
        <ele>1867.5</ele>
        <time>2022-07-14T08:21:12+0200</time>
      </trkpt>
      <trkpt lat="44.935" lon="6.54042">
        <ele>1868.4</ele>
        <time>2022-07-14T08:21:16+0200</time>
      </trkpt>
      <trkpt lat="44.93495" lon="6.54041">
        <ele>1868.7</ele>
        <time>2022-07-14T08:21:19+0200</time>
      </trkpt>
      <trkpt lat="44.93491" lon="6.5404">
        <ele>1869.1</ele>
        <time>2022-07-14T08:21:22+0200</time>
      </trkpt>
      <trkpt lat="44.93486" lon="6.54038">
        <ele>1869.5</ele>
        <time>2022-07-14T08:21:25+0200</time>
      </trkpt>
      <trkpt lat="44.93481" lon="6.54036">
        <ele>1870.2</ele>
        <time>2022-07-14T08:21:28+0200</time>
      </trkpt>
      <trkpt lat="44.93476" lon="6.54032">
        <ele>1871.5</ele>
        <time>2022-07-14T08:21:31+0200</time>
      </trkpt>
      <trkpt lat="44.93471" lon="6.54031">
        <ele>1872</ele>
        <time>2022-07-14T08:21:35+0200</time>
      </trkpt>
      <trkpt lat="44.93467" lon="6.54027">
        <ele>1873.5</ele>
        <time>2022-07-14T08:21:39+0200</time>
      </trkpt>
      <trkpt lat="44.93461" lon="6.54025">
        <ele>1874</ele>
        <time>2022-07-14T08:21:43+0200</time>
      </trkpt>
      <trkpt lat="44.93455" lon="6.54025">
        <ele>1874</ele>
        <time>2022-07-14T08:21:48+0200</time>
      </trkpt>
      <trkpt lat="44.93451" lon="6.54025">
        <ele>1874.2</ele>
        <time>2022-07-14T08:21:52+0200</time>
      </trkpt>
      <trkpt lat="44.93443" lon="6.54023">
        <ele>1874.7</ele>
        <time>2022-07-14T08:21:56+0200</time>
      </trkpt>
      <trkpt lat="44.93439" lon="6.54023">
        <ele>1874.9</ele>
        <time>2022-07-14T08:21:58+0200</time>
      </trkpt>
      <trkpt lat="44.93434" lon="6.54022">
        <ele>1875.4</ele>
        <time>2022-07-14T08:22:00+0200</time>
      </trkpt>
      <trkpt lat="44.93428" lon="6.54021">
        <ele>1875.7</ele>
        <time>2022-07-14T08:22:03+0200</time>
      </trkpt>
      <trkpt lat="44.93422" lon="6.54019">
        <ele>1876.5</ele>
        <time>2022-07-14T08:22:06+0200</time>
      </trkpt>
      <trkpt lat="44.93416" lon="6.54018">
        <ele>1876.8</ele>
        <time>2022-07-14T08:22:09+0200</time>
      </trkpt>
      <trkpt lat="44.93412" lon="6.54015">
        <ele>1877.7</ele>
        <time>2022-07-14T08:22:12+0200</time>
      </trkpt>
      <trkpt lat="44.93406" lon="6.54013">
        <ele>1878.1</ele>
        <time>2022-07-14T08:22:15+0200</time>
      </trkpt>
      <trkpt lat="44.93402" lon="6.54011">
        <ele>1878.6</ele>
        <time>2022-07-14T08:22:17+0200</time>
      </trkpt>
      <trkpt lat="44.93397" lon="6.54006">
        <ele>1879.8</ele>
        <time>2022-07-14T08:22:21+0200</time>
      </trkpt>
      <trkpt lat="44.93392" lon="6.54004">
        <ele>1880</ele>
        <time>2022-07-14T08:22:24+0200</time>
      </trkpt>
      <trkpt lat="44.93386" lon="6.54003">
        <ele>1880.3</ele>
        <time>2022-07-14T08:22:27+0200</time>
      </trkpt>
      <trkpt lat="44.93382" lon="6.54">
        <ele>1881.4</ele>
        <time>2022-07-14T08:22:30+0200</time>
      </trkpt>
      <trkpt lat="44.93377" lon="6.53999">
        <ele>1881.8</ele>
        <time>2022-07-14T08:22:32+0200</time>
      </trkpt>
      <trkpt lat="44.93372" lon="6.53998">
        <ele>1882.1</ele>
        <time>2022-07-14T08:22:35+0200</time>
      </trkpt>
      <trkpt lat="44.93367" lon="6.53998">
        <ele>1882.5</ele>
        <time>2022-07-14T08:22:38+0200</time>
      </trkpt>
      <trkpt lat="44.93362" lon="6.53997">
        <ele>1883</ele>
        <time>2022-07-14T08:22:41+0200</time>
      </trkpt>
      <trkpt lat="44.93356" lon="6.53996">
        <ele>1883.1</ele>
        <time>2022-07-14T08:22:45+0200</time>
      </trkpt>
      <trkpt lat="44.93351" lon="6.53994">
        <ele>1883.7</ele>
        <time>2022-07-14T08:22:48+0200</time>
      </trkpt>
      <trkpt lat="44.93346" lon="6.53993">
        <ele>1883.8</ele>
        <time>2022-07-14T08:22:52+0200</time>
      </trkpt>
      <trkpt lat="44.9334" lon="6.5399">
        <ele>1884.5</ele>
        <time>2022-07-14T08:22:55+0200</time>
      </trkpt>
      <trkpt lat="44.93335" lon="6.53989">
        <ele>1884.8</ele>
        <time>2022-07-14T08:22:58+0200</time>
      </trkpt>
      <trkpt lat="44.9333" lon="6.53985">
        <ele>1885.3</ele>
        <time>2022-07-14T08:23:02+0200</time>
      </trkpt>
      <trkpt lat="44.93326" lon="6.53979">
        <ele>1886.1</ele>
        <time>2022-07-14T08:23:05+0200</time>
      </trkpt>
      <trkpt lat="44.93324" lon="6.53972">
        <ele>1887.7</ele>
        <time>2022-07-14T08:23:08+0200</time>
      </trkpt>
      <trkpt lat="44.93321" lon="6.53966">
        <ele>1888.5</ele>
        <time>2022-07-14T08:23:11+0200</time>
      </trkpt>
      <trkpt lat="44.93317" lon="6.5396">
        <ele>1889.3</ele>
        <time>2022-07-14T08:23:14+0200</time>
      </trkpt>
      <trkpt lat="44.93312" lon="6.53955">
        <ele>1889.7</ele>
        <time>2022-07-14T08:23:17+0200</time>
      </trkpt>
      <trkpt lat="44.93309" lon="6.53949">
        <ele>1890.4</ele>
        <time>2022-07-14T08:23:20+0200</time>
      </trkpt>
      <trkpt lat="44.93305" lon="6.53944">
        <ele>1891.1</ele>
        <time>2022-07-14T08:23:23+0200</time>
      </trkpt>
      <trkpt lat="44.93301" lon="6.53939">
        <ele>1892.2</ele>
        <time>2022-07-14T08:23:26+0200</time>
      </trkpt>
      <trkpt lat="44.93296" lon="6.53935">
        <ele>1893.1</ele>
        <time>2022-07-14T08:23:30+0200</time>
      </trkpt>
      <trkpt lat="44.93291" lon="6.53933">
        <ele>1893.4</ele>
        <time>2022-07-14T08:23:33+0200</time>
      </trkpt>
      <trkpt lat="44.93285" lon="6.53932">
        <ele>1893.4</ele>
        <time>2022-07-14T08:23:37+0200</time>
      </trkpt>
      <trkpt lat="44.9328" lon="6.53931">
        <ele>1893.6</ele>
        <time>2022-07-14T08:23:41+0200</time>
      </trkpt>
      <trkpt lat="44.93274" lon="6.53929">
        <ele>1893.5</ele>
        <time>2022-07-14T08:23:44+0200</time>
      </trkpt>
      <trkpt lat="44.93268" lon="6.53929">
        <ele>1892.4</ele>
        <time>2022-07-14T08:23:47+0200</time>
      </trkpt>
      <trkpt lat="44.93264" lon="6.53925">
        <ele>1892.9</ele>
        <time>2022-07-14T08:23:50+0200</time>
      </trkpt>
      <trkpt lat="44.93262" lon="6.53919">
        <ele>1894.4</ele>
        <time>2022-07-14T08:23:53+0200</time>
      </trkpt>
      <trkpt lat="44.93257" lon="6.53911">
        <ele>1895.7</ele>
        <time>2022-07-14T08:23:57+0200</time>
      </trkpt>
      <trkpt lat="44.93254" lon="6.53905">
        <ele>1896.8</ele>
        <time>2022-07-14T08:24:00+0200</time>
      </trkpt>
      <trkpt lat="44.93251" lon="6.53897">
        <ele>1898.2</ele>
        <time>2022-07-14T08:24:03+0200</time>
      </trkpt>
      <trkpt lat="44.93249" lon="6.5389">
        <ele>1899.3</ele>
        <time>2022-07-14T08:24:06+0200</time>
      </trkpt>
      <trkpt lat="44.93246" lon="6.53884">
        <ele>1899.4</ele>
        <time>2022-07-14T08:24:09+0200</time>
      </trkpt>
      <trkpt lat="44.93244" lon="6.53878">
        <ele>1899.9</ele>
        <time>2022-07-14T08:24:12+0200</time>
      </trkpt>
      <trkpt lat="44.9324" lon="6.53872">
        <ele>1899.6</ele>
        <time>2022-07-14T08:24:15+0200</time>
      </trkpt>
      <trkpt lat="44.93239" lon="6.53866">
        <ele>1900.7</ele>
        <time>2022-07-14T08:24:18+0200</time>
      </trkpt>
      <trkpt lat="44.93237" lon="6.53858">
        <ele>1902.3</ele>
        <time>2022-07-14T08:24:22+0200</time>
      </trkpt>
      <trkpt lat="44.93235" lon="6.53853">
        <ele>1902.7</ele>
        <time>2022-07-14T08:24:26+0200</time>
      </trkpt>
      <trkpt lat="44.9323" lon="6.53848">
        <ele>1902.7</ele>
        <time>2022-07-14T08:24:30+0200</time>
      </trkpt>
      <trkpt lat="44.93226" lon="6.53842">
        <ele>1903.2</ele>
        <time>2022-07-14T08:24:33+0200</time>
      </trkpt>
      <trkpt lat="44.93221" lon="6.53837">
        <ele>1903.3</ele>
        <time>2022-07-14T08:24:36+0200</time>
      </trkpt>
      <trkpt lat="44.93218" lon="6.53831">
        <ele>1904</ele>
        <time>2022-07-14T08:24:39+0200</time>
      </trkpt>
      <trkpt lat="44.93215" lon="6.53826">
        <ele>1904.5</ele>
        <time>2022-07-14T08:24:42+0200</time>
      </trkpt>
      <trkpt lat="44.93212" lon="6.5382">
        <ele>1905.2</ele>
        <time>2022-07-14T08:24:45+0200</time>
      </trkpt>
      <trkpt lat="44.93208" lon="6.53814">
        <ele>1905.8</ele>
        <time>2022-07-14T08:24:48+0200</time>
      </trkpt>
      <trkpt lat="44.93207" lon="6.53807">
        <ele>1907.7</ele>
        <time>2022-07-14T08:24:51+0200</time>
      </trkpt>
      <trkpt lat="44.93206" lon="6.53799">
        <ele>1909.3</ele>
        <time>2022-07-14T08:24:55+0200</time>
      </trkpt>
      <trkpt lat="44.93203" lon="6.53793">
        <ele>1910</ele>
        <time>2022-07-14T08:24:58+0200</time>
      </trkpt>
      <trkpt lat="44.93199" lon="6.53788">
        <ele>1910.2</ele>
        <time>2022-07-14T08:25:01+0200</time>
      </trkpt>
      <trkpt lat="44.93194" lon="6.53785">
        <ele>1909.8</ele>
        <time>2022-07-14T08:25:04+0200</time>
      </trkpt>
      <trkpt lat="44.93189" lon="6.53783">
        <ele>1909.6</ele>
        <time>2022-07-14T08:25:08+0200</time>
      </trkpt>
      <trkpt lat="44.93185" lon="6.53783">
        <ele>1908.8</ele>
        <time>2022-07-14T08:25:10+0200</time>
      </trkpt>
      <trkpt lat="44.93179" lon="6.53782">
        <ele>1908.3</ele>
        <time>2022-07-14T08:25:13+0200</time>
      </trkpt>
      <trkpt lat="44.93175" lon="6.53784">
        <ele>1906.9</ele>
        <time>2022-07-14T08:25:19+0200</time>
      </trkpt>
      <trkpt lat="44.93171" lon="6.53788">
        <ele>1904.7</ele>
        <time>2022-07-14T08:25:33+0200</time>
      </trkpt>
      <trkpt lat="44.93172" lon="6.53781">
        <ele>1907.4</ele>
        <time>2022-07-14T08:25:57+0200</time>
      </trkpt>
      <trkpt lat="44.93168" lon="6.53783">
        <ele>1906.2</ele>
        <time>2022-07-14T08:27:11+0200</time>
      </trkpt>
      <trkpt lat="44.93172" lon="6.53779">
        <ele>1908.1</ele>
        <time>2022-07-14T08:28:57+0200</time>
      </trkpt>
      <trkpt lat="44.93168" lon="6.53782">
        <ele>1906.4</ele>
        <time>2022-07-14T08:29:18+0200</time>
      </trkpt>
      <trkpt lat="44.93171" lon="6.53776">
        <ele>1909.1</ele>
        <time>2022-07-14T08:29:22+0200</time>
      </trkpt>
      <trkpt lat="44.93176" lon="6.53777">
        <ele>1909.8</ele>
        <time>2022-07-14T08:29:37+0200</time>
      </trkpt>
      <trkpt lat="44.93174" lon="6.53782">
        <ele>1907.6</ele>
        <time>2022-07-14T08:30:17+0200</time>
      </trkpt>
      <trkpt lat="44.93174" lon="6.53775">
        <ele>1909.9</ele>
        <time>2022-07-14T08:30:32+0200</time>
      </trkpt>
      <trkpt lat="44.93171" lon="6.5378">
        <ele>1907.8</ele>
        <time>2022-07-14T08:32:04+0200</time>
      </trkpt>
      <trkpt lat="44.93174" lon="6.53775">
        <ele>1909.9</ele>
        <time>2022-07-14T08:32:26+0200</time>
      </trkpt>
      <trkpt lat="44.93169" lon="6.53772">
        <ele>1910.2</ele>
        <time>2022-07-14T08:32:54+0200</time>
      </trkpt>
      <trkpt lat="44.93165" lon="6.53767">
        <ele>1911.2</ele>
        <time>2022-07-14T08:32:57+0200</time>
      </trkpt>
      <trkpt lat="44.93162" lon="6.53764">
        <ele>1912.1</ele>
        <time>2022-07-14T08:33:00+0200</time>
      </trkpt>
      <trkpt lat="44.93158" lon="6.53759">
        <ele>1913.2</ele>
        <time>2022-07-14T08:33:04+0200</time>
      </trkpt>
      <trkpt lat="44.93151" lon="6.53756">
        <ele>1913.8</ele>
        <time>2022-07-14T08:33:07+0200</time>
      </trkpt>
      <trkpt lat="44.93147" lon="6.53752">
        <ele>1914.9</ele>
        <time>2022-07-14T08:33:11+0200</time>
      </trkpt>
      <trkpt lat="44.93142" lon="6.53749">
        <ele>1915.7</ele>
        <time>2022-07-14T08:33:15+0200</time>
      </trkpt>
      <trkpt lat="44.93138" lon="6.53747">
        <ele>1915.5</ele>
        <time>2022-07-14T08:33:19+0200</time>
      </trkpt>
      <trkpt lat="44.93132" lon="6.53744">
        <ele>1915.3</ele>
        <time>2022-07-14T08:33:23+0200</time>
      </trkpt>
      <trkpt lat="44.93128" lon="6.5374">
        <ele>1915.9</ele>
        <time>2022-07-14T08:33:27+0200</time>
      </trkpt>
      <trkpt lat="44.93124" lon="6.53735">
        <ele>1916.7</ele>
        <time>2022-07-14T08:33:32+0200</time>
      </trkpt>
      <trkpt lat="44.9312" lon="6.53731">
        <ele>1917.5</ele>
        <time>2022-07-14T08:33:36+0200</time>
      </trkpt>
      <trkpt lat="44.93116" lon="6.53726">
        <ele>1918.4</ele>
        <time>2022-07-14T08:33:41+0200</time>
      </trkpt>
      <trkpt lat="44.93111" lon="6.53724">
        <ele>1918.4</ele>
        <time>2022-07-14T08:33:44+0200</time>
      </trkpt>
      <trkpt lat="44.93106" lon="6.53721">
        <ele>1918.3</ele>
        <time>2022-07-14T08:33:47+0200</time>
      </trkpt>
      <trkpt lat="44.931" lon="6.5372">
        <ele>1917.7</ele>
        <time>2022-07-14T08:33:50+0200</time>
      </trkpt>
      <trkpt lat="44.93096" lon="6.53718">
        <ele>1917.6</ele>
        <time>2022-07-14T08:33:54+0200</time>
      </trkpt>
      <trkpt lat="44.93091" lon="6.5372">
        <ele>1916.3</ele>
        <time>2022-07-14T08:34:00+0200</time>
      </trkpt>
      <trkpt lat="44.93089" lon="6.53714">
        <ele>1917.7</ele>
        <time>2022-07-14T08:34:04+0200</time>
      </trkpt>
      <trkpt lat="44.93084" lon="6.5371">
        <ele>1918.5</ele>
        <time>2022-07-14T08:34:07+0200</time>
      </trkpt>
      <trkpt lat="44.9308" lon="6.53705">
        <ele>1919.7</ele>
        <time>2022-07-14T08:34:10+0200</time>
      </trkpt>
      <trkpt lat="44.93078" lon="6.53698">
        <ele>1921.5</ele>
        <time>2022-07-14T08:34:12+0200</time>
      </trkpt>
      <trkpt lat="44.93075" lon="6.53692">
        <ele>1922.3</ele>
        <time>2022-07-14T08:34:15+0200</time>
      </trkpt>
      <trkpt lat="44.93072" lon="6.53685">
        <ele>1923.1</ele>
        <time>2022-07-14T08:34:19+0200</time>
      </trkpt>
      <trkpt lat="44.93069" lon="6.53679">
        <ele>1923.7</ele>
        <time>2022-07-14T08:34:22+0200</time>
      </trkpt>
      <trkpt lat="44.93068" lon="6.53673">
        <ele>1924.7</ele>
        <time>2022-07-14T08:34:25+0200</time>
      </trkpt>
      <trkpt lat="44.93066" lon="6.53665">
        <ele>1925.8</ele>
        <time>2022-07-14T08:34:29+0200</time>
      </trkpt>
      <trkpt lat="44.93063" lon="6.53659">
        <ele>1926</ele>
        <time>2022-07-14T08:34:32+0200</time>
      </trkpt>
      <trkpt lat="44.93059" lon="6.53655">
        <ele>1926</ele>
        <time>2022-07-14T08:34:35+0200</time>
      </trkpt>
      <trkpt lat="44.93057" lon="6.53648">
        <ele>1926.7</ele>
        <time>2022-07-14T08:34:38+0200</time>
      </trkpt>
      <trkpt lat="44.93055" lon="6.53641">
        <ele>1927.5</ele>
        <time>2022-07-14T08:34:41+0200</time>
      </trkpt>
      <trkpt lat="44.93052" lon="6.53635">
        <ele>1927.9</ele>
        <time>2022-07-14T08:34:44+0200</time>
      </trkpt>
      <trkpt lat="44.93049" lon="6.5363">
        <ele>1928.3</ele>
        <time>2022-07-14T08:34:48+0200</time>
      </trkpt>
      <trkpt lat="44.93046" lon="6.53625">
        <ele>1928.3</ele>
        <time>2022-07-14T08:34:50+0200</time>
      </trkpt>
      <trkpt lat="44.93043" lon="6.53619">
        <ele>1928.8</ele>
        <time>2022-07-14T08:34:54+0200</time>
      </trkpt>
      <trkpt lat="44.93041" lon="6.53613">
        <ele>1929.4</ele>
        <time>2022-07-14T08:34:58+0200</time>
      </trkpt>
      <trkpt lat="44.93037" lon="6.53609">
        <ele>1929.4</ele>
        <time>2022-07-14T08:35:01+0200</time>
      </trkpt>
      <trkpt lat="44.93035" lon="6.53602">
        <ele>1930.4</ele>
        <time>2022-07-14T08:35:04+0200</time>
      </trkpt>
      <trkpt lat="44.93032" lon="6.53596">
        <ele>1931.2</ele>
        <time>2022-07-14T08:35:07+0200</time>
      </trkpt>
      <trkpt lat="44.93029" lon="6.53591">
        <ele>1931.6</ele>
        <time>2022-07-14T08:35:10+0200</time>
      </trkpt>
      <trkpt lat="44.93025" lon="6.53584">
        <ele>1932.3</ele>
        <time>2022-07-14T08:35:14+0200</time>
      </trkpt>
      <trkpt lat="44.93021" lon="6.5358">
        <ele>1932.5</ele>
        <time>2022-07-14T08:35:16+0200</time>
      </trkpt>
      <trkpt lat="44.93018" lon="6.53573">
        <ele>1933.4</ele>
        <time>2022-07-14T08:35:20+0200</time>
      </trkpt>
      <trkpt lat="44.93015" lon="6.53568">
        <ele>1933.8</ele>
        <time>2022-07-14T08:35:23+0200</time>
      </trkpt>
      <trkpt lat="44.93012" lon="6.53562">
        <ele>1934.2</ele>
        <time>2022-07-14T08:35:26+0200</time>
      </trkpt>
      <trkpt lat="44.93007" lon="6.53557">
        <ele>1934.4</ele>
        <time>2022-07-14T08:35:30+0200</time>
      </trkpt>
      <trkpt lat="44.93005" lon="6.5355">
        <ele>1935.5</ele>
        <time>2022-07-14T08:35:33+0200</time>
      </trkpt>
      <trkpt lat="44.93002" lon="6.53545">
        <ele>1936.2</ele>
        <time>2022-07-14T08:35:36+0200</time>
      </trkpt>
      <trkpt lat="44.93" lon="6.53539">
        <ele>1937.3</ele>
        <time>2022-07-14T08:35:40+0200</time>
      </trkpt>
      <trkpt lat="44.92996" lon="6.53533">
        <ele>1938</ele>
        <time>2022-07-14T08:35:43+0200</time>
      </trkpt>
      <trkpt lat="44.92993" lon="6.53529">
        <ele>1938.5</ele>
        <time>2022-07-14T08:35:46+0200</time>
      </trkpt>
      <trkpt lat="44.9299" lon="6.53522">
        <ele>1939.7</ele>
        <time>2022-07-14T08:35:50+0200</time>
      </trkpt>
      <trkpt lat="44.92986" lon="6.53517">
        <ele>1939.9</ele>
        <time>2022-07-14T08:35:53+0200</time>
      </trkpt>
      <trkpt lat="44.92981" lon="6.53512">
        <ele>1940.1</ele>
        <time>2022-07-14T08:35:57+0200</time>
      </trkpt>
      <trkpt lat="44.92977" lon="6.53508">
        <ele>1939.8</ele>
        <time>2022-07-14T08:36:00+0200</time>
      </trkpt>
      <trkpt lat="44.92971" lon="6.53506">
        <ele>1939</ele>
        <time>2022-07-14T08:36:04+0200</time>
      </trkpt>
      <trkpt lat="44.92966" lon="6.53503">
        <ele>1939.3</ele>
        <time>2022-07-14T08:36:07+0200</time>
      </trkpt>
      <trkpt lat="44.92962" lon="6.53502">
        <ele>1939.3</ele>
        <time>2022-07-14T08:36:11+0200</time>
      </trkpt>
      <trkpt lat="44.92957" lon="6.535">
        <ele>1939.5</ele>
        <time>2022-07-14T08:36:15+0200</time>
      </trkpt>
      <trkpt lat="44.92952" lon="6.53497">
        <ele>1939.7</ele>
        <time>2022-07-14T08:36:21+0200</time>
      </trkpt>
      <trkpt lat="44.92945" lon="6.535">
        <ele>1939</ele>
        <time>2022-07-14T08:36:25+0200</time>
      </trkpt>
      <trkpt lat="44.9294" lon="6.53503">
        <ele>1939.4</ele>
        <time>2022-07-14T08:36:28+0200</time>
      </trkpt>
      <trkpt lat="44.92933" lon="6.53507">
        <ele>1940.1</ele>
        <time>2022-07-14T08:36:31+0200</time>
      </trkpt>
      <trkpt lat="44.92929" lon="6.5351">
        <ele>1940.5</ele>
        <time>2022-07-14T08:36:33+0200</time>
      </trkpt>
      <trkpt lat="44.92926" lon="6.53516">
        <ele>1940.6</ele>
        <time>2022-07-14T08:36:35+0200</time>
      </trkpt>
      <trkpt lat="44.92921" lon="6.53522">
        <ele>1941.4</ele>
        <time>2022-07-14T08:36:37+0200</time>
      </trkpt>
      <trkpt lat="44.92917" lon="6.53525">
        <ele>1942.1</ele>
        <time>2022-07-14T08:36:39+0200</time>
      </trkpt>
      <trkpt lat="44.92913" lon="6.53531">
        <ele>1943.2</ele>
        <time>2022-07-14T08:36:41+0200</time>
      </trkpt>
      <trkpt lat="44.92908" lon="6.53534">
        <ele>1944.8</ele>
        <time>2022-07-14T08:36:46+0200</time>
      </trkpt>
      <trkpt lat="44.92904" lon="6.53538">
        <ele>1946.3</ele>
        <time>2022-07-14T08:36:52+0200</time>
      </trkpt>
      <trkpt lat="44.92903" lon="6.53544">
        <ele>1947</ele>
        <time>2022-07-14T08:36:56+0200</time>
      </trkpt>
      <trkpt lat="44.92903" lon="6.53551">
        <ele>1947.8</ele>
        <time>2022-07-14T08:37:03+0200</time>
      </trkpt>
      <trkpt lat="44.92905" lon="6.53557">
        <ele>1947.4</ele>
        <time>2022-07-14T08:37:08+0200</time>
      </trkpt>
      <trkpt lat="44.92906" lon="6.53564">
        <ele>1948.1</ele>
        <time>2022-07-14T08:37:16+0200</time>
      </trkpt>
      <trkpt lat="44.92904" lon="6.5357">
        <ele>1949.8</ele>
        <time>2022-07-14T08:37:27+0200</time>
      </trkpt>
      <trkpt lat="44.92899" lon="6.53571">
        <ele>1952.1</ele>
        <time>2022-07-14T08:37:43+0200</time>
      </trkpt>
      <trkpt lat="44.92903" lon="6.53566">
        <ele>1949.8</ele>
        <time>2022-07-14T08:37:50+0200</time>
      </trkpt>
      <trkpt lat="44.92907" lon="6.53562">
        <ele>1947.4</ele>
        <time>2022-07-14T08:37:59+0200</time>
      </trkpt>
      <trkpt lat="44.92908" lon="6.53555">
        <ele>1946</ele>
        <time>2022-07-14T08:38:04+0200</time>
      </trkpt>
      <trkpt lat="44.92911" lon="6.53549">
        <ele>1944.8</ele>
        <time>2022-07-14T08:38:08+0200</time>
      </trkpt>
      <trkpt lat="44.92908" lon="6.53544">
        <ele>1945.6</ele>
        <time>2022-07-14T08:38:33+0200</time>
      </trkpt>
      <trkpt lat="44.92908" lon="6.5355">
        <ele>1945.7</ele>
        <time>2022-07-14T08:39:30+0200</time>
      </trkpt>
      <trkpt lat="44.92911" lon="6.53559">
        <ele>1945.7</ele>
        <time>2022-07-14T08:39:35+0200</time>
      </trkpt>
      <trkpt lat="44.92911" lon="6.53566">
        <ele>1946.4</ele>
        <time>2022-07-14T08:39:37+0200</time>
      </trkpt>
      <trkpt lat="44.92913" lon="6.53573">
        <ele>1946.6</ele>
        <time>2022-07-14T08:39:41+0200</time>
      </trkpt>
      <trkpt lat="44.92912" lon="6.53581">
        <ele>1947.9</ele>
        <time>2022-07-14T08:39:44+0200</time>
      </trkpt>
      <trkpt lat="44.92914" lon="6.53587">
        <ele>1948.1</ele>
        <time>2022-07-14T08:39:46+0200</time>
      </trkpt>
      <trkpt lat="44.92915" lon="6.53594">
        <ele>1948.2</ele>
        <time>2022-07-14T08:39:48+0200</time>
      </trkpt>
      <trkpt lat="44.92918" lon="6.53602">
        <ele>1947.9</ele>
        <time>2022-07-14T08:39:51+0200</time>
      </trkpt>
      <trkpt lat="44.92919" lon="6.5361">
        <ele>1948.8</ele>
        <time>2022-07-14T08:39:55+0200</time>
      </trkpt>
      <trkpt lat="44.92919" lon="6.53616">
        <ele>1949.4</ele>
        <time>2022-07-14T08:39:57+0200</time>
      </trkpt>
      <trkpt lat="44.92922" lon="6.53624">
        <ele>1949.5</ele>
        <time>2022-07-14T08:40:02+0200</time>
      </trkpt>
      <trkpt lat="44.92925" lon="6.53632">
        <ele>1948.9</ele>
        <time>2022-07-14T08:40:06+0200</time>
      </trkpt>
      <trkpt lat="44.92926" lon="6.53642">
        <ele>1949.7</ele>
        <time>2022-07-14T08:40:09+0200</time>
      </trkpt>
      <trkpt lat="44.9293" lon="6.53647">
        <ele>1948.9</ele>
        <time>2022-07-14T08:40:12+0200</time>
      </trkpt>
      <trkpt lat="44.92934" lon="6.53654">
        <ele>1947.7</ele>
        <time>2022-07-14T08:40:15+0200</time>
      </trkpt>
      <trkpt lat="44.92935" lon="6.5366">
        <ele>1947.9</ele>
        <time>2022-07-14T08:40:17+0200</time>
      </trkpt>
      <trkpt lat="44.92935" lon="6.53667">
        <ele>1949.3</ele>
        <time>2022-07-14T08:40:19+0200</time>
      </trkpt>
      <trkpt lat="44.92935" lon="6.53676">
        <ele>1951</ele>
        <time>2022-07-14T08:40:24+0200</time>
      </trkpt>
      <trkpt lat="44.92936" lon="6.53683">
        <ele>1951.9</ele>
        <time>2022-07-14T08:40:27+0200</time>
      </trkpt>
      <trkpt lat="44.92934" lon="6.53691">
        <ele>1954.3</ele>
        <time>2022-07-14T08:40:30+0200</time>
      </trkpt>
      <trkpt lat="44.92935" lon="6.53698">
        <ele>1955.1</ele>
        <time>2022-07-14T08:40:32+0200</time>
      </trkpt>
      <trkpt lat="44.92935" lon="6.53705">
        <ele>1956</ele>
        <time>2022-07-14T08:40:35+0200</time>
      </trkpt>
      <trkpt lat="44.92938" lon="6.53712">
        <ele>1955.8</ele>
        <time>2022-07-14T08:40:37+0200</time>
      </trkpt>
      <trkpt lat="44.92939" lon="6.53719">
        <ele>1956.3</ele>
        <time>2022-07-14T08:40:39+0200</time>
      </trkpt>
      <trkpt lat="44.9294" lon="6.53727">
        <ele>1957.4</ele>
        <time>2022-07-14T08:40:42+0200</time>
      </trkpt>
      <trkpt lat="44.9294" lon="6.53734">
        <ele>1958.6</ele>
        <time>2022-07-14T08:40:44+0200</time>
      </trkpt>
      <trkpt lat="44.92941" lon="6.53741">
        <ele>1959.2</ele>
        <time>2022-07-14T08:40:47+0200</time>
      </trkpt>
      <trkpt lat="44.92942" lon="6.53747">
        <ele>1959.9</ele>
        <time>2022-07-14T08:40:49+0200</time>
      </trkpt>
      <trkpt lat="44.92944" lon="6.53756">
        <ele>1960</ele>
        <time>2022-07-14T08:40:52+0200</time>
      </trkpt>
      <trkpt lat="44.92947" lon="6.53761">
        <ele>1959.3</ele>
        <time>2022-07-14T08:40:55+0200</time>
      </trkpt>
      <trkpt lat="44.92949" lon="6.53768">
        <ele>1959</ele>
        <time>2022-07-14T08:40:58+0200</time>
      </trkpt>
      <trkpt lat="44.9295" lon="6.53775">
        <ele>1959.8</ele>
        <time>2022-07-14T08:41:02+0200</time>
      </trkpt>
      <trkpt lat="44.92951" lon="6.53783">
        <ele>1960.3</ele>
        <time>2022-07-14T08:41:05+0200</time>
      </trkpt>
      <trkpt lat="44.92949" lon="6.53789">
        <ele>1962</ele>
        <time>2022-07-14T08:41:09+0200</time>
      </trkpt>
      <trkpt lat="44.92948" lon="6.53796">
        <ele>1963.2</ele>
        <time>2022-07-14T08:41:13+0200</time>
      </trkpt>
      <trkpt lat="44.92947" lon="6.53803">
        <ele>1964.3</ele>
        <time>2022-07-14T08:41:16+0200</time>
      </trkpt>
      <trkpt lat="44.92945" lon="6.53809">
        <ele>1965.7</ele>
        <time>2022-07-14T08:41:19+0200</time>
      </trkpt>
      <trkpt lat="44.92942" lon="6.53815">
        <ele>1967.4</ele>
        <time>2022-07-14T08:41:21+0200</time>
      </trkpt>
      <trkpt lat="44.92942" lon="6.53824">
        <ele>1967.7</ele>
        <time>2022-07-14T08:41:24+0200</time>
      </trkpt>
      <trkpt lat="44.92943" lon="6.53833">
        <ele>1967.8</ele>
        <time>2022-07-14T08:41:27+0200</time>
      </trkpt>
      <trkpt lat="44.92945" lon="6.53839">
        <ele>1967</ele>
        <time>2022-07-14T08:41:29+0200</time>
      </trkpt>
      <trkpt lat="44.92945" lon="6.53846">
        <ele>1967.1</ele>
        <time>2022-07-14T08:41:31+0200</time>
      </trkpt>
      <trkpt lat="44.92944" lon="6.53854">
        <ele>1967.8</ele>
        <time>2022-07-14T08:41:34+0200</time>
      </trkpt>
      <trkpt lat="44.9294" lon="6.53861">
        <ele>1969.9</ele>
        <time>2022-07-14T08:41:38+0200</time>
      </trkpt>
      <trkpt lat="44.9294" lon="6.53868">
        <ele>1970.2</ele>
        <time>2022-07-14T08:41:42+0200</time>
      </trkpt>
      <trkpt lat="44.92937" lon="6.53876">
        <ele>1971.3</ele>
        <time>2022-07-14T08:41:46+0200</time>
      </trkpt>
      <trkpt lat="44.92936" lon="6.53882">
        <ele>1972.2</ele>
        <time>2022-07-14T08:41:49+0200</time>
      </trkpt>
      <trkpt lat="44.92933" lon="6.5389">
        <ele>1973.3</ele>
        <time>2022-07-14T08:41:54+0200</time>
      </trkpt>
      <trkpt lat="44.92933" lon="6.53897">
        <ele>1973.5</ele>
        <time>2022-07-14T08:41:57+0200</time>
      </trkpt>
      <trkpt lat="44.92933" lon="6.53905">
        <ele>1973.4</ele>
        <time>2022-07-14T08:42:00+0200</time>
      </trkpt>
      <trkpt lat="44.92932" lon="6.53914">
        <ele>1973.7</ele>
        <time>2022-07-14T08:42:03+0200</time>
      </trkpt>
      <trkpt lat="44.92931" lon="6.53921">
        <ele>1974.2</ele>
        <time>2022-07-14T08:42:06+0200</time>
      </trkpt>
      <trkpt lat="44.92931" lon="6.53928">
        <ele>1974.5</ele>
        <time>2022-07-14T08:42:09+0200</time>
      </trkpt>
      <trkpt lat="44.92932" lon="6.53934">
        <ele>1974</ele>
        <time>2022-07-14T08:42:15+0200</time>
      </trkpt>
      <trkpt lat="44.92929" lon="6.53942">
        <ele>1975.4</ele>
        <time>2022-07-14T08:42:19+0200</time>
      </trkpt>
      <trkpt lat="44.92927" lon="6.53948">
        <ele>1976.1</ele>
        <time>2022-07-14T08:42:22+0200</time>
      </trkpt>
      <trkpt lat="44.92928" lon="6.53954">
        <ele>1975.4</ele>
        <time>2022-07-14T08:42:24+0200</time>
      </trkpt>
      <trkpt lat="44.92928" lon="6.53963">
        <ele>1974.9</ele>
        <time>2022-07-14T08:42:27+0200</time>
      </trkpt>
      <trkpt lat="44.92929" lon="6.5397">
        <ele>1974.3</ele>
        <time>2022-07-14T08:42:29+0200</time>
      </trkpt>
      <trkpt lat="44.92927" lon="6.53979">
        <ele>1974.6</ele>
        <time>2022-07-14T08:42:32+0200</time>
      </trkpt>
      <trkpt lat="44.92927" lon="6.53988">
        <ele>1973.7</ele>
        <time>2022-07-14T08:42:35+0200</time>
      </trkpt>
      <trkpt lat="44.92927" lon="6.53997">
        <ele>1973.3</ele>
        <time>2022-07-14T08:42:38+0200</time>
      </trkpt>
      <trkpt lat="44.92923" lon="6.54004">
        <ele>1974.1</ele>
        <time>2022-07-14T08:42:42+0200</time>
      </trkpt>
      <trkpt lat="44.92922" lon="6.54011">
        <ele>1974.1</ele>
        <time>2022-07-14T08:42:45+0200</time>
      </trkpt>
      <trkpt lat="44.92921" lon="6.54004">
        <ele>1975.2</ele>
        <time>2022-07-14T08:43:06+0200</time>
      </trkpt>
      <trkpt lat="44.9292" lon="6.53997">
        <ele>1975.8</ele>
        <time>2022-07-14T08:43:10+0200</time>
      </trkpt>
      <trkpt lat="44.92919" lon="6.5399">
        <ele>1976.8</ele>
        <time>2022-07-14T08:43:15+0200</time>
      </trkpt>
      <trkpt lat="44.92913" lon="6.5399">
        <ele>1979.1</ele>
        <time>2022-07-14T08:43:23+0200</time>
      </trkpt>
      <trkpt lat="44.92909" lon="6.53991">
        <ele>1980.9</ele>
        <time>2022-07-14T08:43:27+0200</time>
      </trkpt>
      <trkpt lat="44.92904" lon="6.53993">
        <ele>1982.6</ele>
        <time>2022-07-14T08:43:31+0200</time>
      </trkpt>
      <trkpt lat="44.92899" lon="6.53998">
        <ele>1984.1</ele>
        <time>2022-07-14T08:43:34+0200</time>
      </trkpt>
      <trkpt lat="44.92895" lon="6.54002">
        <ele>1985.4</ele>
        <time>2022-07-14T08:43:38+0200</time>
      </trkpt>
      <trkpt lat="44.92891" lon="6.54005">
        <ele>1986.6</ele>
        <time>2022-07-14T08:43:41+0200</time>
      </trkpt>
      <trkpt lat="44.92887" lon="6.54011">
        <ele>1987.7</ele>
        <time>2022-07-14T08:43:45+0200</time>
      </trkpt>
      <trkpt lat="44.92886" lon="6.54019">
        <ele>1987.1</ele>
        <time>2022-07-14T08:43:48+0200</time>
      </trkpt>
      <trkpt lat="44.92882" lon="6.54026">
        <ele>1988</ele>
        <time>2022-07-14T08:43:51+0200</time>
      </trkpt>
      <trkpt lat="44.92879" lon="6.54031">
        <ele>1988.6</ele>
        <time>2022-07-14T08:43:55+0200</time>
      </trkpt>
      <trkpt lat="44.92875" lon="6.5404">
        <ele>1989.5</ele>
        <time>2022-07-14T08:44:00+0200</time>
      </trkpt>
      <trkpt lat="44.92871" lon="6.54045">
        <ele>1990.6</ele>
        <time>2022-07-14T08:44:03+0200</time>
      </trkpt>
      <trkpt lat="44.92869" lon="6.54051">
        <ele>1990.8</ele>
        <time>2022-07-14T08:44:06+0200</time>
      </trkpt>
      <trkpt lat="44.92865" lon="6.54055">
        <ele>1991.8</ele>
        <time>2022-07-14T08:44:10+0200</time>
      </trkpt>
      <trkpt lat="44.92861" lon="6.54059">
        <ele>1992.6</ele>
        <time>2022-07-14T08:44:14+0200</time>
      </trkpt>
      <trkpt lat="44.92858" lon="6.54065">
        <ele>1992.6</ele>
        <time>2022-07-14T08:44:17+0200</time>
      </trkpt>
      <trkpt lat="44.92856" lon="6.54059">
        <ele>1994.2</ele>
        <time>2022-07-14T08:44:27+0200</time>
      </trkpt>
      <trkpt lat="44.92857" lon="6.54051">
        <ele>1994.8</ele>
        <time>2022-07-14T08:44:34+0200</time>
      </trkpt>
      <trkpt lat="44.92857" lon="6.54042">
        <ele>1995.9</ele>
        <time>2022-07-14T08:44:38+0200</time>
      </trkpt>
      <trkpt lat="44.92858" lon="6.54035">
        <ele>1996.5</ele>
        <time>2022-07-14T08:44:44+0200</time>
      </trkpt>
      <trkpt lat="44.9286" lon="6.54029">
        <ele>1996.4</ele>
        <time>2022-07-14T08:44:49+0200</time>
      </trkpt>
      <trkpt lat="44.92862" lon="6.54022">
        <ele>1996.5</ele>
        <time>2022-07-14T08:44:52+0200</time>
      </trkpt>
      <trkpt lat="44.92864" lon="6.54015">
        <ele>1996.1</ele>
        <time>2022-07-14T08:44:54+0200</time>
      </trkpt>
      <trkpt lat="44.92864" lon="6.54008">
        <ele>1997.2</ele>
        <time>2022-07-14T08:44:57+0200</time>
      </trkpt>
      <trkpt lat="44.92865" lon="6.54">
        <ele>1997.4</ele>
        <time>2022-07-14T08:45:01+0200</time>
      </trkpt>
      <trkpt lat="44.92866" lon="6.53993">
        <ele>1998</ele>
        <time>2022-07-14T08:45:04+0200</time>
      </trkpt>
      <trkpt lat="44.92867" lon="6.53986">
        <ele>1998.8</ele>
        <time>2022-07-14T08:45:08+0200</time>
      </trkpt>
      <trkpt lat="44.92866" lon="6.53977">
        <ele>2000.1</ele>
        <time>2022-07-14T08:45:11+0200</time>
      </trkpt>
      <trkpt lat="44.92868" lon="6.53971">
        <ele>2000</ele>
        <time>2022-07-14T08:45:14+0200</time>
      </trkpt>
      <trkpt lat="44.92869" lon="6.53963">
        <ele>2000.3</ele>
        <time>2022-07-14T08:45:17+0200</time>
      </trkpt>
      <trkpt lat="44.92872" lon="6.53955">
        <ele>1999.8</ele>
        <time>2022-07-14T08:45:22+0200</time>
      </trkpt>
      <trkpt lat="44.92874" lon="6.53949">
        <ele>1999.8</ele>
        <time>2022-07-14T08:45:26+0200</time>
      </trkpt>
      <trkpt lat="44.92872" lon="6.53943">
        <ele>2001.1</ele>
        <time>2022-07-14T08:45:29+0200</time>
      </trkpt>
      <trkpt lat="44.92873" lon="6.53936">
        <ele>2001</ele>
        <time>2022-07-14T08:45:31+0200</time>
      </trkpt>
      <trkpt lat="44.92873" lon="6.53928">
        <ele>2001</ele>
        <time>2022-07-14T08:45:34+0200</time>
      </trkpt>
      <trkpt lat="44.92872" lon="6.53922">
        <ele>2001.9</ele>
        <time>2022-07-14T08:45:37+0200</time>
      </trkpt>
      <trkpt lat="44.92871" lon="6.53915">
        <ele>2002.3</ele>
        <time>2022-07-14T08:45:41+0200</time>
      </trkpt>
      <trkpt lat="44.92871" lon="6.53906">
        <ele>2002.7</ele>
        <time>2022-07-14T08:45:44+0200</time>
      </trkpt>
      <trkpt lat="44.92871" lon="6.53898">
        <ele>2003</ele>
        <time>2022-07-14T08:45:46+0200</time>
      </trkpt>
      <trkpt lat="44.9287" lon="6.5389">
        <ele>2004</ele>
        <time>2022-07-14T08:45:49+0200</time>
      </trkpt>
      <trkpt lat="44.92867" lon="6.53883">
        <ele>2005.2</ele>
        <time>2022-07-14T08:45:51+0200</time>
      </trkpt>
      <trkpt lat="44.92865" lon="6.53875">
        <ele>2006.4</ele>
        <time>2022-07-14T08:45:54+0200</time>
      </trkpt>
      <trkpt lat="44.92864" lon="6.53869">
        <ele>2006.6</ele>
        <time>2022-07-14T08:45:57+0200</time>
      </trkpt>
      <trkpt lat="44.92863" lon="6.5386">
        <ele>2007</ele>
        <time>2022-07-14T08:46:01+0200</time>
      </trkpt>
      <trkpt lat="44.92861" lon="6.53854">
        <ele>2007.7</ele>
        <time>2022-07-14T08:46:04+0200</time>
      </trkpt>
      <trkpt lat="44.9286" lon="6.53846">
        <ele>2008.1</ele>
        <time>2022-07-14T08:46:07+0200</time>
      </trkpt>
      <trkpt lat="44.92858" lon="6.53838">
        <ele>2008.4</ele>
        <time>2022-07-14T08:46:11+0200</time>
      </trkpt>
      <trkpt lat="44.92856" lon="6.53832">
        <ele>2009.2</ele>
        <time>2022-07-14T08:46:14+0200</time>
      </trkpt>
      <trkpt lat="44.92855" lon="6.53825">
        <ele>2009.3</ele>
        <time>2022-07-14T08:46:17+0200</time>
      </trkpt>
      <trkpt lat="44.92855" lon="6.53817">
        <ele>2009</ele>
        <time>2022-07-14T08:46:21+0200</time>
      </trkpt>
      <trkpt lat="44.92851" lon="6.53812">
        <ele>2010.4</ele>
        <time>2022-07-14T08:46:24+0200</time>
      </trkpt>
      <trkpt lat="44.92848" lon="6.53806">
        <ele>2011.1</ele>
        <time>2022-07-14T08:46:28+0200</time>
      </trkpt>
      <trkpt lat="44.92844" lon="6.53802">
        <ele>2012.7</ele>
        <time>2022-07-14T08:46:32+0200</time>
      </trkpt>
      <trkpt lat="44.92838" lon="6.538">
        <ele>2014.6</ele>
        <time>2022-07-14T08:46:39+0200</time>
      </trkpt>
      <trkpt lat="44.92834" lon="6.53799">
        <ele>2016.4</ele>
        <time>2022-07-14T08:46:45+0200</time>
      </trkpt>
      <trkpt lat="44.92834" lon="6.53806">
        <ele>2016.8</ele>
        <time>2022-07-14T08:46:51+0200</time>
      </trkpt>
      <trkpt lat="44.92835" lon="6.53813">
        <ele>2016.8</ele>
        <time>2022-07-14T08:46:55+0200</time>
      </trkpt>
      <trkpt lat="44.92831" lon="6.53818">
        <ele>2018.7</ele>
        <time>2022-07-14T08:47:03+0200</time>
      </trkpt>
      <trkpt lat="44.9283" lon="6.53826">
        <ele>2019.7</ele>
        <time>2022-07-14T08:47:09+0200</time>
      </trkpt>
      <trkpt lat="44.92828" lon="6.53835">
        <ele>2020.8</ele>
        <time>2022-07-14T08:47:13+0200</time>
      </trkpt>
      <trkpt lat="44.92828" lon="6.53843">
        <ele>2021.1</ele>
        <time>2022-07-14T08:47:17+0200</time>
      </trkpt>
      <trkpt lat="44.92827" lon="6.5385">
        <ele>2021.9</ele>
        <time>2022-07-14T08:47:21+0200</time>
      </trkpt>
      <trkpt lat="44.92827" lon="6.53857">
        <ele>2022.3</ele>
        <time>2022-07-14T08:47:24+0200</time>
      </trkpt>
      <trkpt lat="44.92826" lon="6.53864">
        <ele>2022.6</ele>
        <time>2022-07-14T08:47:26+0200</time>
      </trkpt>
      <trkpt lat="44.92826" lon="6.53872">
        <ele>2022.6</ele>
        <time>2022-07-14T08:47:29+0200</time>
      </trkpt>
      <trkpt lat="44.92827" lon="6.53879">
        <ele>2022.3</ele>
        <time>2022-07-14T08:47:32+0200</time>
      </trkpt>
      <trkpt lat="44.92826" lon="6.53886">
        <ele>2022.8</ele>
        <time>2022-07-14T08:47:35+0200</time>
      </trkpt>
      <trkpt lat="44.92824" lon="6.5388">
        <ele>2023.5</ele>
        <time>2022-07-14T08:47:48+0200</time>
      </trkpt>
      <trkpt lat="44.92822" lon="6.53873">
        <ele>2024.3</ele>
        <time>2022-07-14T08:47:54+0200</time>
      </trkpt>
      <trkpt lat="44.92819" lon="6.53868">
        <ele>2025.4</ele>
        <time>2022-07-14T08:47:57+0200</time>
      </trkpt>
      <trkpt lat="44.92816" lon="6.5386">
        <ele>2026.3</ele>
        <time>2022-07-14T08:48:02+0200</time>
      </trkpt>
      <trkpt lat="44.92812" lon="6.53856">
        <ele>2027.5</ele>
        <time>2022-07-14T08:48:06+0200</time>
      </trkpt>
      <trkpt lat="44.92811" lon="6.53849">
        <ele>2027.6</ele>
        <time>2022-07-14T08:48:09+0200</time>
      </trkpt>
      <trkpt lat="44.92808" lon="6.53844">
        <ele>2028.6</ele>
        <time>2022-07-14T08:48:12+0200</time>
      </trkpt>
      <trkpt lat="44.92805" lon="6.53838">
        <ele>2029.3</ele>
        <time>2022-07-14T08:48:16+0200</time>
      </trkpt>
      <trkpt lat="44.92802" lon="6.53831">
        <ele>2029.9</ele>
        <time>2022-07-14T08:48:19+0200</time>
      </trkpt>
      <trkpt lat="44.92798" lon="6.53825">
        <ele>2030.9</ele>
        <time>2022-07-14T08:48:23+0200</time>
      </trkpt>
      <trkpt lat="44.92795" lon="6.53819">
        <ele>2031.6</ele>
        <time>2022-07-14T08:48:27+0200</time>
      </trkpt>
      <trkpt lat="44.92792" lon="6.53812">
        <ele>2032.2</ele>
        <time>2022-07-14T08:48:31+0200</time>
      </trkpt>
      <trkpt lat="44.9279" lon="6.53806">
        <ele>2032.8</ele>
        <time>2022-07-14T08:48:34+0200</time>
      </trkpt>
      <trkpt lat="44.92788" lon="6.53799">
        <ele>2033</ele>
        <time>2022-07-14T08:48:37+0200</time>
      </trkpt>
      <trkpt lat="44.92784" lon="6.53793">
        <ele>2034.2</ele>
        <time>2022-07-14T08:48:41+0200</time>
      </trkpt>
      <trkpt lat="44.92783" lon="6.53786">
        <ele>2034.3</ele>
        <time>2022-07-14T08:48:44+0200</time>
      </trkpt>
      <trkpt lat="44.92782" lon="6.5378">
        <ele>2034.4</ele>
        <time>2022-07-14T08:48:47+0200</time>
      </trkpt>
      <trkpt lat="44.92778" lon="6.53773">
        <ele>2035.4</ele>
        <time>2022-07-14T08:48:50+0200</time>
      </trkpt>
      <trkpt lat="44.92775" lon="6.5377">
        <ele>2036.3</ele>
        <time>2022-07-14T08:48:54+0200</time>
      </trkpt>
      <trkpt lat="44.9277" lon="6.53771">
        <ele>2037.8</ele>
        <time>2022-07-14T08:48:59+0200</time>
      </trkpt>
      <trkpt lat="44.92766" lon="6.53776">
        <ele>2039.4</ele>
        <time>2022-07-14T08:49:04+0200</time>
      </trkpt>
      <trkpt lat="44.92761" lon="6.53781">
        <ele>2040.9</ele>
        <time>2022-07-14T08:49:07+0200</time>
      </trkpt>
      <trkpt lat="44.92758" lon="6.53788">
        <ele>2042.1</ele>
        <time>2022-07-14T08:49:10+0200</time>
      </trkpt>
      <trkpt lat="44.92755" lon="6.53794">
        <ele>2043.2</ele>
        <time>2022-07-14T08:49:14+0200</time>
      </trkpt>
      <trkpt lat="44.92752" lon="6.538">
        <ele>2044.3</ele>
        <time>2022-07-14T08:49:18+0200</time>
      </trkpt>
      <trkpt lat="44.92752" lon="6.53809">
        <ele>2044.5</ele>
        <time>2022-07-14T08:49:21+0200</time>
      </trkpt>
      <trkpt lat="44.92753" lon="6.53816">
        <ele>2044.4</ele>
        <time>2022-07-14T08:49:23+0200</time>
      </trkpt>
      <trkpt lat="44.92753" lon="6.53823">
        <ele>2044.9</ele>
        <time>2022-07-14T08:49:26+0200</time>
      </trkpt>
      <trkpt lat="44.92751" lon="6.5383">
        <ele>2045.5</ele>
        <time>2022-07-14T08:49:29+0200</time>
      </trkpt>
      <trkpt lat="44.92749" lon="6.53838">
        <ele>2046.2</ele>
        <time>2022-07-14T08:49:33+0200</time>
      </trkpt>
      <trkpt lat="44.92746" lon="6.53844">
        <ele>2046.9</ele>
        <time>2022-07-14T08:49:37+0200</time>
      </trkpt>
      <trkpt lat="44.92744" lon="6.5385">
        <ele>2047.4</ele>
        <time>2022-07-14T08:49:40+0200</time>
      </trkpt>
      <trkpt lat="44.92739" lon="6.53853">
        <ele>2048.6</ele>
        <time>2022-07-14T08:49:43+0200</time>
      </trkpt>
      <trkpt lat="44.92737" lon="6.5386">
        <ele>2049.3</ele>
        <time>2022-07-14T08:49:47+0200</time>
      </trkpt>
      <trkpt lat="44.92734" lon="6.53866">
        <ele>2050.1</ele>
        <time>2022-07-14T08:49:50+0200</time>
      </trkpt>
      <trkpt lat="44.9273" lon="6.53873">
        <ele>2050.9</ele>
        <time>2022-07-14T08:49:54+0200</time>
      </trkpt>
      <trkpt lat="44.92728" lon="6.53879">
        <ele>2051.2</ele>
        <time>2022-07-14T08:49:57+0200</time>
      </trkpt>
      <trkpt lat="44.92723" lon="6.53885">
        <ele>2052</ele>
        <time>2022-07-14T08:50:01+0200</time>
      </trkpt>
      <trkpt lat="44.92719" lon="6.53888">
        <ele>2052.6</ele>
        <time>2022-07-14T08:50:04+0200</time>
      </trkpt>
      <trkpt lat="44.92716" lon="6.53893">
        <ele>2053.2</ele>
        <time>2022-07-14T08:50:07+0200</time>
      </trkpt>
      <trkpt lat="44.92712" lon="6.53898">
        <ele>2053.8</ele>
        <time>2022-07-14T08:50:11+0200</time>
      </trkpt>
      <trkpt lat="44.92709" lon="6.53905">
        <ele>2054.3</ele>
        <time>2022-07-14T08:50:15+0200</time>
      </trkpt>
      <trkpt lat="44.92706" lon="6.53912">
        <ele>2054.6</ele>
        <time>2022-07-14T08:50:19+0200</time>
      </trkpt>
      <trkpt lat="44.92704" lon="6.53918">
        <ele>2054.8</ele>
        <time>2022-07-14T08:50:22+0200</time>
      </trkpt>
      <trkpt lat="44.92701" lon="6.53925">
        <ele>2054.8</ele>
        <time>2022-07-14T08:50:25+0200</time>
      </trkpt>
      <trkpt lat="44.92698" lon="6.53932">
        <ele>2054.6</ele>
        <time>2022-07-14T08:50:30+0200</time>
      </trkpt>
      <trkpt lat="44.92694" lon="6.53934">
        <ele>2055.3</ele>
        <time>2022-07-14T08:50:34+0200</time>
      </trkpt>
      <trkpt lat="44.92688" lon="6.5393">
        <ele>2056.9</ele>
        <time>2022-07-14T08:50:40+0200</time>
      </trkpt>
      <trkpt lat="44.92688" lon="6.53939">
        <ele>2056</ele>
        <time>2022-07-14T08:50:45+0200</time>
      </trkpt>
      <trkpt lat="44.9269" lon="6.53945">
        <ele>2054.9</ele>
        <time>2022-07-14T08:50:49+0200</time>
      </trkpt>
      <trkpt lat="44.92693" lon="6.5395">
        <ele>2053.3</ele>
        <time>2022-07-14T08:50:59+0200</time>
      </trkpt>
      <trkpt lat="44.92695" lon="6.53945">
        <ele>2053.9</ele>
        <time>2022-07-14T08:52:04+0200</time>
      </trkpt>
      <trkpt lat="44.92693" lon="6.53939">
        <ele>2055</ele>
        <time>2022-07-14T08:53:47+0200</time>
      </trkpt>
      <trkpt lat="44.9269" lon="6.53933">
        <ele>2056.3</ele>
        <time>2022-07-14T08:53:51+0200</time>
      </trkpt>
      <trkpt lat="44.92688" lon="6.53927">
        <ele>2057.2</ele>
        <time>2022-07-14T08:53:55+0200</time>
      </trkpt>
      <trkpt lat="44.92686" lon="6.5392">
        <ele>2058.5</ele>
        <time>2022-07-14T08:53:59+0200</time>
      </trkpt>
      <trkpt lat="44.92681" lon="6.53916">
        <ele>2059.9</ele>
        <time>2022-07-14T08:54:04+0200</time>
      </trkpt>
      <trkpt lat="44.92676" lon="6.53912">
        <ele>2061.1</ele>
        <time>2022-07-14T08:54:10+0200</time>
      </trkpt>
      <trkpt lat="44.92673" lon="6.53907">
        <ele>2062.1</ele>
        <time>2022-07-14T08:54:13+0200</time>
      </trkpt>
      <trkpt lat="44.92671" lon="6.53901">
        <ele>2062.8</ele>
        <time>2022-07-14T08:54:18+0200</time>
      </trkpt>
      <trkpt lat="44.92668" lon="6.53895">
        <ele>2063.6</ele>
        <time>2022-07-14T08:54:22+0200</time>
      </trkpt>
      <trkpt lat="44.92663" lon="6.53892">
        <ele>2064.7</ele>
        <time>2022-07-14T08:54:26+0200</time>
      </trkpt>
      <trkpt lat="44.92657" lon="6.5389">
        <ele>2065.6</ele>
        <time>2022-07-14T08:54:30+0200</time>
      </trkpt>
      <trkpt lat="44.92654" lon="6.53886">
        <ele>2066.2</ele>
        <time>2022-07-14T08:54:34+0200</time>
      </trkpt>
      <trkpt lat="44.9265" lon="6.53881">
        <ele>2066.8</ele>
        <time>2022-07-14T08:54:38+0200</time>
      </trkpt>
      <trkpt lat="44.92644" lon="6.53879">
        <ele>2067.7</ele>
        <time>2022-07-14T08:54:42+0200</time>
      </trkpt>
      <trkpt lat="44.92639" lon="6.53878">
        <ele>2068.7</ele>
        <time>2022-07-14T08:54:46+0200</time>
      </trkpt>
      <trkpt lat="44.92634" lon="6.53875">
        <ele>2069.6</ele>
        <time>2022-07-14T08:54:50+0200</time>
      </trkpt>
      <trkpt lat="44.92629" lon="6.53875">
        <ele>2070.5</ele>
        <time>2022-07-14T08:54:53+0200</time>
      </trkpt>
      <trkpt lat="44.92622" lon="6.53876">
        <ele>2071.9</ele>
        <time>2022-07-14T08:54:57+0200</time>
      </trkpt>
      <trkpt lat="44.92617" lon="6.53874">
        <ele>2072.9</ele>
        <time>2022-07-14T08:55:02+0200</time>
      </trkpt>
      <trkpt lat="44.92612" lon="6.53876">
        <ele>2073.9</ele>
        <time>2022-07-14T08:55:05+0200</time>
      </trkpt>
      <trkpt lat="44.92606" lon="6.53876">
        <ele>2075</ele>
        <time>2022-07-14T08:55:09+0200</time>
      </trkpt>
      <trkpt lat="44.92601" lon="6.53873">
        <ele>2075.9</ele>
        <time>2022-07-14T08:55:14+0200</time>
      </trkpt>
      <trkpt lat="44.92596" lon="6.53871">
        <ele>2077.1</ele>
        <time>2022-07-14T08:55:20+0200</time>
      </trkpt>
      <trkpt lat="44.92592" lon="6.53868">
        <ele>2078</ele>
        <time>2022-07-14T08:55:24+0200</time>
      </trkpt>
      <trkpt lat="44.92587" lon="6.53866">
        <ele>2079.2</ele>
        <time>2022-07-14T08:55:29+0200</time>
      </trkpt>
      <trkpt lat="44.92582" lon="6.5387">
        <ele>2080.1</ele>
        <time>2022-07-14T08:55:34+0200</time>
      </trkpt>
      <trkpt lat="44.92576" lon="6.53869">
        <ele>2081.3</ele>
        <time>2022-07-14T08:55:37+0200</time>
      </trkpt>
      <trkpt lat="44.92571" lon="6.53872">
        <ele>2082.2</ele>
        <time>2022-07-14T08:55:48+0200</time>
      </trkpt>
      <trkpt lat="44.92568" lon="6.53877">
        <ele>2082.8</ele>
        <time>2022-07-14T08:55:53+0200</time>
      </trkpt>
      <trkpt lat="44.92573" lon="6.53886">
        <ele>2081.4</ele>
        <time>2022-07-14T08:56:00+0200</time>
      </trkpt>
      <trkpt lat="44.92576" lon="6.53891">
        <ele>2080.6</ele>
        <time>2022-07-14T08:56:02+0200</time>
      </trkpt>
      <trkpt lat="44.92579" lon="6.53896">
        <ele>2079.6</ele>
        <time>2022-07-14T08:56:10+0200</time>
      </trkpt>
      <trkpt lat="44.9258" lon="6.53902">
        <ele>2079.1</ele>
        <time>2022-07-14T08:56:19+0200</time>
      </trkpt>
      <trkpt lat="44.9258" lon="6.53895">
        <ele>2079.4</ele>
        <time>2022-07-14T08:57:00+0200</time>
      </trkpt>
      <trkpt lat="44.92577" lon="6.53891">
        <ele>2080.3</ele>
        <time>2022-07-14T08:57:15+0200</time>
      </trkpt>
      <trkpt lat="44.92573" lon="6.53886">
        <ele>2081.3</ele>
        <time>2022-07-14T08:57:28+0200</time>
      </trkpt>
      <trkpt lat="44.92578" lon="6.53885">
        <ele>2080.2</ele>
        <time>2022-07-14T08:57:37+0200</time>
      </trkpt>
      <trkpt lat="44.92577" lon="6.53892">
        <ele>2080.3</ele>
        <time>2022-07-14T08:57:45+0200</time>
      </trkpt>
      <trkpt lat="44.92573" lon="6.53897">
        <ele>2080.8</ele>
        <time>2022-07-14T08:57:53+0200</time>
      </trkpt>
      <trkpt lat="44.92576" lon="6.53892">
        <ele>2080.4</ele>
        <time>2022-07-14T08:58:05+0200</time>
      </trkpt>
      <trkpt lat="44.92571" lon="6.53891">
        <ele>2081.5</ele>
        <time>2022-07-14T08:58:32+0200</time>
      </trkpt>
      <trkpt lat="44.92571" lon="6.53898">
        <ele>2081</ele>
        <time>2022-07-14T08:58:41+0200</time>
      </trkpt>
      <trkpt lat="44.92566" lon="6.53899">
        <ele>2081.9</ele>
        <time>2022-07-14T08:58:48+0200</time>
      </trkpt>
      <trkpt lat="44.92561" lon="6.53894">
        <ele>2083.3</ele>
        <time>2022-07-14T08:58:54+0200</time>
      </trkpt>
      <trkpt lat="44.92556" lon="6.5389">
        <ele>2084.7</ele>
        <time>2022-07-14T08:58:59+0200</time>
      </trkpt>
      <trkpt lat="44.92551" lon="6.53888">
        <ele>2085.9</ele>
        <time>2022-07-14T08:59:04+0200</time>
      </trkpt>
      <trkpt lat="44.92545" lon="6.53884">
        <ele>2087.2</ele>
        <time>2022-07-14T08:59:07+0200</time>
      </trkpt>
      <trkpt lat="44.92541" lon="6.53878">
        <ele>2088.4</ele>
        <time>2022-07-14T08:59:11+0200</time>
      </trkpt>
      <trkpt lat="44.92537" lon="6.53874">
        <ele>2089.5</ele>
        <time>2022-07-14T08:59:15+0200</time>
      </trkpt>
      <trkpt lat="44.92533" lon="6.53871">
        <ele>2090.8</ele>
        <time>2022-07-14T08:59:19+0200</time>
      </trkpt>
      <trkpt lat="44.92528" lon="6.53868">
        <ele>2092.3</ele>
        <time>2022-07-14T08:59:22+0200</time>
      </trkpt>
      <trkpt lat="44.92525" lon="6.53863">
        <ele>2093.4</ele>
        <time>2022-07-14T08:59:26+0200</time>
      </trkpt>
      <trkpt lat="44.9252" lon="6.53862">
        <ele>2094.6</ele>
        <time>2022-07-14T08:59:30+0200</time>
      </trkpt>
      <trkpt lat="44.92515" lon="6.53862">
        <ele>2095.7</ele>
        <time>2022-07-14T08:59:33+0200</time>
      </trkpt>
      <trkpt lat="44.9251" lon="6.53861">
        <ele>2096.8</ele>
        <time>2022-07-14T08:59:35+0200</time>
      </trkpt>
      <trkpt lat="44.92504" lon="6.53862">
        <ele>2098</ele>
        <time>2022-07-14T08:59:38+0200</time>
      </trkpt>
      <trkpt lat="44.92499" lon="6.53863">
        <ele>2099.1</ele>
        <time>2022-07-14T08:59:40+0200</time>
      </trkpt>
      <trkpt lat="44.92493" lon="6.53863">
        <ele>2100.7</ele>
        <time>2022-07-14T08:59:42+0200</time>
      </trkpt>
      <trkpt lat="44.92488" lon="6.53863">
        <ele>2102</ele>
        <time>2022-07-14T08:59:45+0200</time>
      </trkpt>
      <trkpt lat="44.92482" lon="6.53863">
        <ele>2103.4</ele>
        <time>2022-07-14T08:59:50+0200</time>
      </trkpt>
      <trkpt lat="44.92477" lon="6.53861">
        <ele>2104.8</ele>
        <time>2022-07-14T08:59:54+0200</time>
      </trkpt>
      <trkpt lat="44.92473" lon="6.53859">
        <ele>2106.1</ele>
        <time>2022-07-14T09:00:00+0200</time>
      </trkpt>
      <trkpt lat="44.92468" lon="6.53859">
        <ele>2107.4</ele>
        <time>2022-07-14T09:00:04+0200</time>
      </trkpt>
      <trkpt lat="44.92463" lon="6.53861">
        <ele>2108.8</ele>
        <time>2022-07-14T09:00:07+0200</time>
      </trkpt>
      <trkpt lat="44.92457" lon="6.53862">
        <ele>2110.2</ele>
        <time>2022-07-14T09:00:12+0200</time>
      </trkpt>
      <trkpt lat="44.92452" lon="6.53863">
        <ele>2111.5</ele>
        <time>2022-07-14T09:00:15+0200</time>
      </trkpt>
      <trkpt lat="44.92447" lon="6.53867">
        <ele>2112.5</ele>
        <time>2022-07-14T09:00:20+0200</time>
      </trkpt>
      <trkpt lat="44.92442" lon="6.53868">
        <ele>2113.7</ele>
        <time>2022-07-14T09:00:22+0200</time>
      </trkpt>
      <trkpt lat="44.92437" lon="6.5387">
        <ele>2114.7</ele>
        <time>2022-07-14T09:00:24+0200</time>
      </trkpt>
      <trkpt lat="44.92432" lon="6.53871">
        <ele>2115.9</ele>
        <time>2022-07-14T09:00:29+0200</time>
      </trkpt>
      <trkpt lat="44.92427" lon="6.53872">
        <ele>2117.1</ele>
        <time>2022-07-14T09:00:35+0200</time>
      </trkpt>
      <trkpt lat="44.92423" lon="6.53876">
        <ele>2117.7</ele>
        <time>2022-07-14T09:00:42+0200</time>
      </trkpt>
      <trkpt lat="44.92418" lon="6.53877">
        <ele>2118.8</ele>
        <time>2022-07-14T09:00:52+0200</time>
      </trkpt>
      <trkpt lat="44.92413" lon="6.53875">
        <ele>2120.3</ele>
        <time>2022-07-14T09:01:03+0200</time>
      </trkpt>
      <trkpt lat="44.92418" lon="6.53876">
        <ele>2118.9</ele>
        <time>2022-07-14T09:01:26+0200</time>
      </trkpt>
      <trkpt lat="44.92419" lon="6.53869">
        <ele>2120</ele>
        <time>2022-07-14T09:03:32+0200</time>
      </trkpt>
      <trkpt lat="44.92418" lon="6.53862">
        <ele>2121.6</ele>
        <time>2022-07-14T09:03:35+0200</time>
      </trkpt>
      <trkpt lat="44.92414" lon="6.53869">
        <ele>2121.2</ele>
        <time>2022-07-14T09:03:42+0200</time>
      </trkpt>
      <trkpt lat="44.92409" lon="6.5387">
        <ele>2122.4</ele>
        <time>2022-07-14T09:03:48+0200</time>
      </trkpt>
      <trkpt lat="44.92404" lon="6.53873">
        <ele>2123.2</ele>
        <time>2022-07-14T09:03:51+0200</time>
      </trkpt>
      <trkpt lat="44.92398" lon="6.53873">
        <ele>2124.9</ele>
        <time>2022-07-14T09:03:56+0200</time>
      </trkpt>
      <trkpt lat="44.92392" lon="6.53875">
        <ele>2126.2</ele>
        <time>2022-07-14T09:04:00+0200</time>
      </trkpt>
      <trkpt lat="44.92389" lon="6.53881">
        <ele>2125.6</ele>
        <time>2022-07-14T09:04:06+0200</time>
      </trkpt>
      <trkpt lat="44.92385" lon="6.53887">
        <ele>2125.4</ele>
        <time>2022-07-14T09:04:09+0200</time>
      </trkpt>
      <trkpt lat="44.92382" lon="6.53893">
        <ele>2124.9</ele>
        <time>2022-07-14T09:04:20+0200</time>
      </trkpt>
      <trkpt lat="44.92383" lon="6.53887">
        <ele>2126</ele>
        <time>2022-07-14T09:04:53+0200</time>
      </trkpt>
      <trkpt lat="44.92382" lon="6.5388">
        <ele>2127.7</ele>
        <time>2022-07-14T09:04:57+0200</time>
      </trkpt>
      <trkpt lat="44.92386" lon="6.53874">
        <ele>2127.9</ele>
        <time>2022-07-14T09:05:07+0200</time>
      </trkpt>
      <trkpt lat="44.9239" lon="6.53868">
        <ele>2128.1</ele>
        <time>2022-07-14T09:05:15+0200</time>
      </trkpt>
      <trkpt lat="44.92394" lon="6.53864">
        <ele>2128</ele>
        <time>2022-07-14T09:05:20+0200</time>
      </trkpt>
      <trkpt lat="44.92395" lon="6.53857">
        <ele>2128.7</ele>
        <time>2022-07-14T09:05:23+0200</time>
      </trkpt>
      <trkpt lat="44.92395" lon="6.5385">
        <ele>2129.9</ele>
        <time>2022-07-14T09:05:26+0200</time>
      </trkpt>
      <trkpt lat="44.92394" lon="6.53843">
        <ele>2131</ele>
        <time>2022-07-14T09:05:29+0200</time>
      </trkpt>
      <trkpt lat="44.92391" lon="6.53838">
        <ele>2132.5</ele>
        <time>2022-07-14T09:05:34+0200</time>
      </trkpt>
      <trkpt lat="44.92386" lon="6.5384">
        <ele>2133.9</ele>
        <time>2022-07-14T09:05:38+0200</time>
      </trkpt>
      <trkpt lat="44.92382" lon="6.53839">
        <ele>2135.5</ele>
        <time>2022-07-14T09:05:42+0200</time>
      </trkpt>
      <trkpt lat="44.92378" lon="6.53842">
        <ele>2136.2</ele>
        <time>2022-07-14T09:05:46+0200</time>
      </trkpt>
      <trkpt lat="44.92371" lon="6.53842">
        <ele>2138.2</ele>
        <time>2022-07-14T09:05:52+0200</time>
      </trkpt>
      <trkpt lat="44.92366" lon="6.53845">
        <ele>2139.2</ele>
        <time>2022-07-14T09:05:55+0200</time>
      </trkpt>
      <trkpt lat="44.92361" lon="6.53845">
        <ele>2140.6</ele>
        <time>2022-07-14T09:05:59+0200</time>
      </trkpt>
      <trkpt lat="44.92355" lon="6.53847">
        <ele>2141.8</ele>
        <time>2022-07-14T09:06:02+0200</time>
      </trkpt>
      <trkpt lat="44.92351" lon="6.53851">
        <ele>2141.8</ele>
        <time>2022-07-14T09:06:04+0200</time>
      </trkpt>
      <trkpt lat="44.92346" lon="6.53854">
        <ele>2142.5</ele>
        <time>2022-07-14T09:06:07+0200</time>
      </trkpt>
      <trkpt lat="44.92342" lon="6.53856">
        <ele>2143</ele>
        <time>2022-07-14T09:06:10+0200</time>
      </trkpt>
      <trkpt lat="44.92339" lon="6.53861">
        <ele>2142.8</ele>
        <time>2022-07-14T09:06:12+0200</time>
      </trkpt>
      <trkpt lat="44.92334" lon="6.53864">
        <ele>2143.2</ele>
        <time>2022-07-14T09:06:15+0200</time>
      </trkpt>
      <trkpt lat="44.9233" lon="6.53868">
        <ele>2142.8</ele>
        <time>2022-07-14T09:06:21+0200</time>
      </trkpt>
      <trkpt lat="44.92325" lon="6.53868">
        <ele>2143.7</ele>
        <time>2022-07-14T09:06:24+0200</time>
      </trkpt>
      <trkpt lat="44.9232" lon="6.53869">
        <ele>2144.2</ele>
        <time>2022-07-14T09:06:28+0200</time>
      </trkpt>
      <trkpt lat="44.92314" lon="6.5387">
        <ele>2144.9</ele>
        <time>2022-07-14T09:06:32+0200</time>
      </trkpt>
      <trkpt lat="44.92311" lon="6.53865">
        <ele>2147</ele>
        <time>2022-07-14T09:06:39+0200</time>
      </trkpt>
      <trkpt lat="44.92305" lon="6.53866">
        <ele>2147.7</ele>
        <time>2022-07-14T09:06:43+0200</time>
      </trkpt>
      <trkpt lat="44.923" lon="6.53862">
        <ele>2149</ele>
        <time>2022-07-14T09:06:48+0200</time>
      </trkpt>
      <trkpt lat="44.92296" lon="6.53861">
        <ele>2149.8</ele>
        <time>2022-07-14T09:06:51+0200</time>
      </trkpt>
      <trkpt lat="44.92293" lon="6.53855">
        <ele>2151.8</ele>
        <time>2022-07-14T09:06:56+0200</time>
      </trkpt>
      <trkpt lat="44.92291" lon="6.53848">
        <ele>2153.8</ele>
        <time>2022-07-14T09:07:00+0200</time>
      </trkpt>
      <trkpt lat="44.92285" lon="6.53851">
        <ele>2153.3</ele>
        <time>2022-07-14T09:07:03+0200</time>
      </trkpt>
      <trkpt lat="44.92281" lon="6.53852">
        <ele>2153.6</ele>
        <time>2022-07-14T09:07:12+0200</time>
      </trkpt>
      <trkpt lat="44.9228" lon="6.53844">
        <ele>2155.7</ele>
        <time>2022-07-14T09:07:34+0200</time>
      </trkpt>
      <trkpt lat="44.92278" lon="6.53838">
        <ele>2157.7</ele>
        <time>2022-07-14T09:07:41+0200</time>
      </trkpt>
      <trkpt lat="44.92274" lon="6.53834">
        <ele>2158.8</ele>
        <time>2022-07-14T09:07:46+0200</time>
      </trkpt>
      <trkpt lat="44.92271" lon="6.53828">
        <ele>2160.3</ele>
        <time>2022-07-14T09:07:50+0200</time>
      </trkpt>
      <trkpt lat="44.92268" lon="6.53822">
        <ele>2161.7</ele>
        <time>2022-07-14T09:07:52+0200</time>
      </trkpt>
      <trkpt lat="44.92264" lon="6.53818">
        <ele>2162.6</ele>
        <time>2022-07-14T09:07:55+0200</time>
      </trkpt>
      <trkpt lat="44.9226" lon="6.53814">
        <ele>2163.4</ele>
        <time>2022-07-14T09:07:58+0200</time>
      </trkpt>
      <trkpt lat="44.92256" lon="6.53811">
        <ele>2164</ele>
        <time>2022-07-14T09:08:02+0200</time>
      </trkpt>
      <trkpt lat="44.9225" lon="6.53807">
        <ele>2164.6</ele>
        <time>2022-07-14T09:08:06+0200</time>
      </trkpt>
      <trkpt lat="44.92245" lon="6.53802">
        <ele>2166.1</ele>
        <time>2022-07-14T09:08:10+0200</time>
      </trkpt>
      <trkpt lat="44.9224" lon="6.53801">
        <ele>2166.2</ele>
        <time>2022-07-14T09:08:14+0200</time>
      </trkpt>
      <trkpt lat="44.92235" lon="6.53803">
        <ele>2165.4</ele>
        <time>2022-07-14T09:08:16+0200</time>
      </trkpt>
      <trkpt lat="44.92231" lon="6.53804">
        <ele>2164.7</ele>
        <time>2022-07-14T09:08:18+0200</time>
      </trkpt>
      <trkpt lat="44.92226" lon="6.53805">
        <ele>2164.2</ele>
        <time>2022-07-14T09:08:20+0200</time>
      </trkpt>
      <trkpt lat="44.9222" lon="6.53809">
        <ele>2163.6</ele>
        <time>2022-07-14T09:08:22+0200</time>
      </trkpt>
      <trkpt lat="44.92215" lon="6.53811">
        <ele>2163.6</ele>
        <time>2022-07-14T09:08:24+0200</time>
      </trkpt>
      <trkpt lat="44.92209" lon="6.53813">
        <ele>2163.7</ele>
        <time>2022-07-14T09:08:27+0200</time>
      </trkpt>
      <trkpt lat="44.92204" lon="6.53816">
        <ele>2163.3</ele>
        <time>2022-07-14T09:08:30+0200</time>
      </trkpt>
      <trkpt lat="44.92199" lon="6.53817">
        <ele>2163.6</ele>
        <time>2022-07-14T09:08:33+0200</time>
      </trkpt>
      <trkpt lat="44.92195" lon="6.53814">
        <ele>2164.8</ele>
        <time>2022-07-14T09:08:37+0200</time>
      </trkpt>
      <trkpt lat="44.92194" lon="6.53807">
        <ele>2166.5</ele>
        <time>2022-07-14T09:08:41+0200</time>
      </trkpt>
      <trkpt lat="44.92193" lon="6.538">
        <ele>2168.3</ele>
        <time>2022-07-14T09:08:44+0200</time>
      </trkpt>
      <trkpt lat="44.92188" lon="6.53794">
        <ele>2169.9</ele>
        <time>2022-07-14T09:08:47+0200</time>
      </trkpt>
      <trkpt lat="44.92184" lon="6.53789">
        <ele>2171</ele>
        <time>2022-07-14T09:08:49+0200</time>
      </trkpt>
      <trkpt lat="44.9218" lon="6.53784">
        <ele>2172.2</ele>
        <time>2022-07-14T09:08:53+0200</time>
      </trkpt>
      <trkpt lat="44.92175" lon="6.53781">
        <ele>2173.2</ele>
        <time>2022-07-14T09:08:57+0200</time>
      </trkpt>
      <trkpt lat="44.9217" lon="6.53777">
        <ele>2174.1</ele>
        <time>2022-07-14T09:09:01+0200</time>
      </trkpt>
      <trkpt lat="44.92166" lon="6.53773">
        <ele>2175.2</ele>
        <time>2022-07-14T09:09:04+0200</time>
      </trkpt>
      <trkpt lat="44.9216" lon="6.53769">
        <ele>2175.7</ele>
        <time>2022-07-14T09:09:07+0200</time>
      </trkpt>
      <trkpt lat="44.92153" lon="6.53765">
        <ele>2176.4</ele>
        <time>2022-07-14T09:09:10+0200</time>
      </trkpt>
      <trkpt lat="44.92148" lon="6.53765">
        <ele>2176.1</ele>
        <time>2022-07-14T09:09:11+0200</time>
      </trkpt>
      <trkpt lat="44.92143" lon="6.53765">
        <ele>2175.9</ele>
        <time>2022-07-14T09:09:13+0200</time>
      </trkpt>
      <trkpt lat="44.92137" lon="6.53765">
        <ele>2175.6</ele>
        <time>2022-07-14T09:09:15+0200</time>
      </trkpt>
      <trkpt lat="44.92131" lon="6.53765">
        <ele>2176.1</ele>
        <time>2022-07-14T09:09:18+0200</time>
      </trkpt>
      <trkpt lat="44.92126" lon="6.53766">
        <ele>2176.1</ele>
        <time>2022-07-14T09:09:21+0200</time>
      </trkpt>
      <trkpt lat="44.9212" lon="6.53767">
        <ele>2176.3</ele>
        <time>2022-07-14T09:09:23+0200</time>
      </trkpt>
      <trkpt lat="44.92115" lon="6.53764">
        <ele>2177.6</ele>
        <time>2022-07-14T09:09:26+0200</time>
      </trkpt>
      <trkpt lat="44.92107" lon="6.53764">
        <ele>2178.3</ele>
        <time>2022-07-14T09:09:29+0200</time>
      </trkpt>
      <trkpt lat="44.92102" lon="6.53764">
        <ele>2178.7</ele>
        <time>2022-07-14T09:09:31+0200</time>
      </trkpt>
      <trkpt lat="44.92097" lon="6.53763">
        <ele>2179.4</ele>
        <time>2022-07-14T09:09:33+0200</time>
      </trkpt>
      <trkpt lat="44.92091" lon="6.53764">
        <ele>2179.4</ele>
        <time>2022-07-14T09:09:35+0200</time>
      </trkpt>
      <trkpt lat="44.92085" lon="6.53767">
        <ele>2179.1</ele>
        <time>2022-07-14T09:09:37+0200</time>
      </trkpt>
      <trkpt lat="44.9208" lon="6.53769">
        <ele>2179</ele>
        <time>2022-07-14T09:09:39+0200</time>
      </trkpt>
      <trkpt lat="44.92073" lon="6.53772">
        <ele>2179</ele>
        <time>2022-07-14T09:09:42+0200</time>
      </trkpt>
      <trkpt lat="44.92067" lon="6.53774">
        <ele>2179.2</ele>
        <time>2022-07-14T09:09:45+0200</time>
      </trkpt>
      <trkpt lat="44.92063" lon="6.53775">
        <ele>2179.5</ele>
        <time>2022-07-14T09:10:22+0200</time>
      </trkpt>
      <trkpt lat="44.92059" lon="6.53778">
        <ele>2179.5</ele>
        <time>2022-07-14T09:11:11+0200</time>
      </trkpt>
      <trkpt lat="44.92054" lon="6.53775">
        <ele>2180.4</ele>
        <time>2022-07-14T09:13:42+0200</time>
      </trkpt>
      <trkpt lat="44.92048" lon="6.53774">
        <ele>2180.5</ele>
        <time>2022-07-14T09:13:45+0200</time>
      </trkpt>
      <trkpt lat="44.92042" lon="6.53772">
        <ele>2180.7</ele>
        <time>2022-07-14T09:13:48+0200</time>
      </trkpt>
      <trkpt lat="44.92036" lon="6.53769">
        <ele>2181.1</ele>
        <time>2022-07-14T09:13:51+0200</time>
      </trkpt>
      <trkpt lat="44.92031" lon="6.53766">
        <ele>2181.7</ele>
        <time>2022-07-14T09:13:54+0200</time>
      </trkpt>
      <trkpt lat="44.92027" lon="6.53762">
        <ele>2182.2</ele>
        <time>2022-07-14T09:13:57+0200</time>
      </trkpt>
      <trkpt lat="44.92022" lon="6.53759">
        <ele>2182.4</ele>
        <time>2022-07-14T09:14:00+0200</time>
      </trkpt>
      <trkpt lat="44.92017" lon="6.53754">
        <ele>2183.2</ele>
        <time>2022-07-14T09:14:03+0200</time>
      </trkpt>
      <trkpt lat="44.92013" lon="6.53751">
        <ele>2183.7</ele>
        <time>2022-07-14T09:14:06+0200</time>
      </trkpt>
      <trkpt lat="44.92007" lon="6.53748">
        <ele>2184.2</ele>
        <time>2022-07-14T09:14:09+0200</time>
      </trkpt>
      <trkpt lat="44.92002" lon="6.53743">
        <ele>2185.3</ele>
        <time>2022-07-14T09:14:12+0200</time>
      </trkpt>
      <trkpt lat="44.91995" lon="6.53742">
        <ele>2184.9</ele>
        <time>2022-07-14T09:14:15+0200</time>
      </trkpt>
      <trkpt lat="44.9199" lon="6.53738">
        <ele>2185.5</ele>
        <time>2022-07-14T09:14:18+0200</time>
      </trkpt>
      <trkpt lat="44.91986" lon="6.53737">
        <ele>2185.4</ele>
        <time>2022-07-14T09:14:20+0200</time>
      </trkpt>
      <trkpt lat="44.91981" lon="6.53733">
        <ele>2186.2</ele>
        <time>2022-07-14T09:14:23+0200</time>
      </trkpt>
      <trkpt lat="44.91977" lon="6.5373">
        <ele>2186.8</ele>
        <time>2022-07-14T09:14:26+0200</time>
      </trkpt>
      <trkpt lat="44.91972" lon="6.53728">
        <ele>2187</ele>
        <time>2022-07-14T09:14:28+0200</time>
      </trkpt>
      <trkpt lat="44.91968" lon="6.53726">
        <ele>2187.5</ele>
        <time>2022-07-14T09:14:31+0200</time>
      </trkpt>
      <trkpt lat="44.91963" lon="6.53721">
        <ele>2188.8</ele>
        <time>2022-07-14T09:14:34+0200</time>
      </trkpt>
      <trkpt lat="44.91959" lon="6.53718">
        <ele>2189</ele>
        <time>2022-07-14T09:14:36+0200</time>
      </trkpt>
      <trkpt lat="44.91954" lon="6.53717">
        <ele>2188.8</ele>
        <time>2022-07-14T09:14:38+0200</time>
      </trkpt>
      <trkpt lat="44.9195" lon="6.53713">
        <ele>2189.4</ele>
        <time>2022-07-14T09:14:41+0200</time>
      </trkpt>
      <trkpt lat="44.91944" lon="6.5371">
        <ele>2189.6</ele>
        <time>2022-07-14T09:14:44+0200</time>
      </trkpt>
      <trkpt lat="44.91939" lon="6.5371">
        <ele>2188.6</ele>
        <time>2022-07-14T09:14:46+0200</time>
      </trkpt>
      <trkpt lat="44.91935" lon="6.53706">
        <ele>2188.5</ele>
        <time>2022-07-14T09:14:49+0200</time>
      </trkpt>
      <trkpt lat="44.91931" lon="6.53703">
        <ele>2188.4</ele>
        <time>2022-07-14T09:14:51+0200</time>
      </trkpt>
      <trkpt lat="44.91926" lon="6.53698">
        <ele>2188.8</ele>
        <time>2022-07-14T09:14:54+0200</time>
      </trkpt>
      <trkpt lat="44.91921" lon="6.53693">
        <ele>2189.3</ele>
        <time>2022-07-14T09:14:56+0200</time>
      </trkpt>
      <trkpt lat="44.91914" lon="6.53688">
        <ele>2189.2</ele>
        <time>2022-07-14T09:14:58+0200</time>
      </trkpt>
      <trkpt lat="44.91908" lon="6.53681">
        <ele>2189.1</ele>
        <time>2022-07-14T09:15:00+0200</time>
      </trkpt>
      <trkpt lat="44.91903" lon="6.53677">
        <ele>2189</ele>
        <time>2022-07-14T09:15:01+0200</time>
      </trkpt>
      <trkpt lat="44.91898" lon="6.53671">
        <ele>2188.9</ele>
        <time>2022-07-14T09:15:01+0200</time>
      </trkpt>
      <trkpt lat="44.91894" lon="6.53668">
        <ele>2188.3</ele>
        <time>2022-07-14T09:15:02+0200</time>
      </trkpt>
      <trkpt lat="44.91888" lon="6.5367">
        <ele>2186.1</ele>
        <time>2022-07-14T09:15:03+0200</time>
      </trkpt>
      <trkpt lat="44.91882" lon="6.53675">
        <ele>2184.4</ele>
        <time>2022-07-14T09:15:04+0200</time>
      </trkpt>
      <trkpt lat="44.91877" lon="6.5368">
        <ele>2183.1</ele>
        <time>2022-07-14T09:15:05+0200</time>
      </trkpt>
      <trkpt lat="44.91873" lon="6.53685">
        <ele>2181.8</ele>
        <time>2022-07-14T09:15:06+0200</time>
      </trkpt>
      <trkpt lat="44.91868" lon="6.53689">
        <ele>2180.9</ele>
        <time>2022-07-14T09:15:07+0200</time>
      </trkpt>
      <trkpt lat="44.9186" lon="6.53694">
        <ele>2180.1</ele>
        <time>2022-07-14T09:15:09+0200</time>
      </trkpt>
      <trkpt lat="44.91856" lon="6.53695">
        <ele>2179.3</ele>
        <time>2022-07-14T09:15:10+0200</time>
      </trkpt>
      <trkpt lat="44.91849" lon="6.53694">
        <ele>2178.8</ele>
        <time>2022-07-14T09:15:11+0200</time>
      </trkpt>
      <trkpt lat="44.91842" lon="6.53692">
        <ele>2178.5</ele>
        <time>2022-07-14T09:15:12+0200</time>
      </trkpt>
      <trkpt lat="44.91834" lon="6.53689">
        <ele>2178.2</ele>
        <time>2022-07-14T09:15:13+0200</time>
      </trkpt>
      <trkpt lat="44.91823" lon="6.53687">
        <ele>2177.2</ele>
        <time>2022-07-14T09:15:14+0200</time>
      </trkpt>
      <trkpt lat="44.91813" lon="6.53688">
        <ele>2175.6</ele>
        <time>2022-07-14T09:15:15+0200</time>
      </trkpt>
      <trkpt lat="44.91802" lon="6.53692">
        <ele>2174.2</ele>
        <time>2022-07-14T09:15:16+0200</time>
      </trkpt>
      <trkpt lat="44.91791" lon="6.53698">
        <ele>2173</ele>
        <time>2022-07-14T09:15:17+0200</time>
      </trkpt>
      <trkpt lat="44.9178" lon="6.53705">
        <ele>2172</ele>
        <time>2022-07-14T09:15:18+0200</time>
      </trkpt>
      <trkpt lat="44.91773" lon="6.53715">
        <ele>2171.3</ele>
        <time>2022-07-14T09:15:19+0200</time>
      </trkpt>
      <trkpt lat="44.91767" lon="6.53728">
        <ele>2170.1</ele>
        <time>2022-07-14T09:15:20+0200</time>
      </trkpt>
      <trkpt lat="44.91762" lon="6.53742">
        <ele>2169</ele>
        <time>2022-07-14T09:15:22+0200</time>
      </trkpt>
      <trkpt lat="44.91757" lon="6.53755">
        <ele>2168.3</ele>
        <time>2022-07-14T09:15:23+0200</time>
      </trkpt>
      <trkpt lat="44.91752" lon="6.53767">
        <ele>2168.2</ele>
        <time>2022-07-14T09:15:24+0200</time>
      </trkpt>
      <trkpt lat="44.91749" lon="6.5378">
        <ele>2168</ele>
        <time>2022-07-14T09:15:25+0200</time>
      </trkpt>
      <trkpt lat="44.91746" lon="6.53791">
        <ele>2168.2</ele>
        <time>2022-07-14T09:15:26+0200</time>
      </trkpt>
      <trkpt lat="44.91743" lon="6.538">
        <ele>2168.5</ele>
        <time>2022-07-14T09:15:27+0200</time>
      </trkpt>
      <trkpt lat="44.9174" lon="6.5381">
        <ele>2168.6</ele>
        <time>2022-07-14T09:15:28+0200</time>
      </trkpt>
      <trkpt lat="44.91737" lon="6.53819">
        <ele>2168.8</ele>
        <time>2022-07-14T09:15:29+0200</time>
      </trkpt>
      <trkpt lat="44.91734" lon="6.53827">
        <ele>2169.2</ele>
        <time>2022-07-14T09:15:30+0200</time>
      </trkpt>
      <trkpt lat="44.9173" lon="6.53835">
        <ele>2169.4</ele>
        <time>2022-07-14T09:15:31+0200</time>
      </trkpt>
      <trkpt lat="44.91728" lon="6.53845">
        <ele>2169</ele>
        <time>2022-07-14T09:15:32+0200</time>
      </trkpt>
      <trkpt lat="44.91725" lon="6.53854">
        <ele>2168.8</ele>
        <time>2022-07-14T09:15:33+0200</time>
      </trkpt>
      <trkpt lat="44.91724" lon="6.53863">
        <ele>2168.4</ele>
        <time>2022-07-14T09:15:34+0200</time>
      </trkpt>
      <trkpt lat="44.91724" lon="6.5387">
        <ele>2168.3</ele>
        <time>2022-07-14T09:15:35+0200</time>
      </trkpt>
      <trkpt lat="44.91723" lon="6.53881">
        <ele>2168.1</ele>
        <time>2022-07-14T09:15:37+0200</time>
      </trkpt>
      <trkpt lat="44.91722" lon="6.53891">
        <ele>2168</ele>
        <time>2022-07-14T09:15:39+0200</time>
      </trkpt>
      <trkpt lat="44.91723" lon="6.53897">
        <ele>2166.7</ele>
        <time>2022-07-14T09:15:41+0200</time>
      </trkpt>
      <trkpt lat="44.91723" lon="6.53905">
        <ele>2166.1</ele>
        <time>2022-07-14T09:15:44+0200</time>
      </trkpt>
      <trkpt lat="44.91721" lon="6.53913">
        <ele>2165.7</ele>
        <time>2022-07-14T09:15:47+0200</time>
      </trkpt>
      <trkpt lat="44.91718" lon="6.53918">
        <ele>2166</ele>
        <time>2022-07-14T09:15:49+0200</time>
      </trkpt>
      <trkpt lat="44.91715" lon="6.53924">
        <ele>2165.8</ele>
        <time>2022-07-14T09:15:51+0200</time>
      </trkpt>
      <trkpt lat="44.91712" lon="6.53929">
        <ele>2165.7</ele>
        <time>2022-07-14T09:15:53+0200</time>
      </trkpt>
      <trkpt lat="44.91708" lon="6.53934">
        <ele>2165.7</ele>
        <time>2022-07-14T09:15:55+0200</time>
      </trkpt>
      <trkpt lat="44.91703" lon="6.53939">
        <ele>2166</ele>
        <time>2022-07-14T09:15:58+0200</time>
      </trkpt>
      <trkpt lat="44.91697" lon="6.53943">
        <ele>2166.5</ele>
        <time>2022-07-14T09:16:01+0200</time>
      </trkpt>
      <trkpt lat="44.91693" lon="6.5395">
        <ele>2166.3</ele>
        <time>2022-07-14T09:16:05+0200</time>
      </trkpt>
      <trkpt lat="44.9169" lon="6.53954">
        <ele>2166.8</ele>
        <time>2022-07-14T09:16:07+0200</time>
      </trkpt>
      <trkpt lat="44.91686" lon="6.53958">
        <ele>2167.4</ele>
        <time>2022-07-14T09:16:09+0200</time>
      </trkpt>
      <trkpt lat="44.91683" lon="6.53964">
        <ele>2167.6</ele>
        <time>2022-07-14T09:16:13+0200</time>
      </trkpt>
      <trkpt lat="44.91679" lon="6.53969">
        <ele>2168.3</ele>
        <time>2022-07-14T09:16:16+0200</time>
      </trkpt>
      <trkpt lat="44.91676" lon="6.53976">
        <ele>2168.3</ele>
        <time>2022-07-14T09:16:20+0200</time>
      </trkpt>
      <trkpt lat="44.91672" lon="6.53982">
        <ele>2168.3</ele>
        <time>2022-07-14T09:16:24+0200</time>
      </trkpt>
      <trkpt lat="44.91668" lon="6.53988">
        <ele>2168.4</ele>
        <time>2022-07-14T09:16:26+0200</time>
      </trkpt>
      <trkpt lat="44.91663" lon="6.53995">
        <ele>2168.5</ele>
        <time>2022-07-14T09:16:28+0200</time>
      </trkpt>
      <trkpt lat="44.91655" lon="6.54001">
        <ele>2169.9</ele>
        <time>2022-07-14T09:16:30+0200</time>
      </trkpt>
      <trkpt lat="44.91647" lon="6.54008">
        <ele>2170.6</ele>
        <time>2022-07-14T09:16:32+0200</time>
      </trkpt>
      <trkpt lat="44.9164" lon="6.54016">
        <ele>2170.9</ele>
        <time>2022-07-14T09:16:34+0200</time>
      </trkpt>
      <trkpt lat="44.91635" lon="6.54021">
        <ele>2171.6</ele>
        <time>2022-07-14T09:16:35+0200</time>
      </trkpt>
      <trkpt lat="44.9163" lon="6.54025">
        <ele>2172</ele>
        <time>2022-07-14T09:16:36+0200</time>
      </trkpt>
      <trkpt lat="44.91625" lon="6.54033">
        <ele>2171.4</ele>
        <time>2022-07-14T09:16:38+0200</time>
      </trkpt>
      <trkpt lat="44.91622" lon="6.54042">
        <ele>2170</ele>
        <time>2022-07-14T09:16:40+0200</time>
      </trkpt>
      <trkpt lat="44.91618" lon="6.54047">
        <ele>2170</ele>
        <time>2022-07-14T09:16:41+0200</time>
      </trkpt>
      <trkpt lat="44.91615" lon="6.54052">
        <ele>2169.9</ele>
        <time>2022-07-14T09:16:42+0200</time>
      </trkpt>
      <trkpt lat="44.91608" lon="6.54059">
        <ele>2170.5</ele>
        <time>2022-07-14T09:16:44+0200</time>
      </trkpt>
      <trkpt lat="44.91602" lon="6.54067">
        <ele>2171.3</ele>
        <time>2022-07-14T09:16:46+0200</time>
      </trkpt>
      <trkpt lat="44.91596" lon="6.54077">
        <ele>2171</ele>
        <time>2022-07-14T09:16:48+0200</time>
      </trkpt>
      <trkpt lat="44.91593" lon="6.54082">
        <ele>2170.8</ele>
        <time>2022-07-14T09:16:49+0200</time>
      </trkpt>
      <trkpt lat="44.9159" lon="6.54087">
        <ele>2170.5</ele>
        <time>2022-07-14T09:16:50+0200</time>
      </trkpt>
      <trkpt lat="44.91587" lon="6.54092">
        <ele>2170.8</ele>
        <time>2022-07-14T09:16:51+0200</time>
      </trkpt>
      <trkpt lat="44.91584" lon="6.54101">
        <ele>2170.2</ele>
        <time>2022-07-14T09:16:53+0200</time>
      </trkpt>
      <trkpt lat="44.91582" lon="6.54111">
        <ele>2169.6</ele>
        <time>2022-07-14T09:16:55+0200</time>
      </trkpt>
      <trkpt lat="44.91582" lon="6.54122">
        <ele>2169.5</ele>
        <time>2022-07-14T09:16:57+0200</time>
      </trkpt>
      <trkpt lat="44.91583" lon="6.54129">
        <ele>2169.3</ele>
        <time>2022-07-14T09:16:58+0200</time>
      </trkpt>
      <trkpt lat="44.91585" lon="6.54135">
        <ele>2168.7</ele>
        <time>2022-07-14T09:16:59+0200</time>
      </trkpt>
      <trkpt lat="44.91587" lon="6.54142">
        <ele>2168.3</ele>
        <time>2022-07-14T09:17:00+0200</time>
      </trkpt>
      <trkpt lat="44.91591" lon="6.54151">
        <ele>2167.4</ele>
        <time>2022-07-14T09:17:02+0200</time>
      </trkpt>
      <trkpt lat="44.91594" lon="6.54163">
        <ele>2166.9</ele>
        <time>2022-07-14T09:17:04+0200</time>
      </trkpt>
      <trkpt lat="44.91591" lon="6.54176">
        <ele>2168</ele>
        <time>2022-07-14T09:17:06+0200</time>
      </trkpt>
      <trkpt lat="44.9159" lon="6.54183">
        <ele>2168.5</ele>
        <time>2022-07-14T09:17:07+0200</time>
      </trkpt>
      <trkpt lat="44.91587" lon="6.54191">
        <ele>2169.6</ele>
        <time>2022-07-14T09:17:08+0200</time>
      </trkpt>
      <trkpt lat="44.91585" lon="6.54197">
        <ele>2170.3</ele>
        <time>2022-07-14T09:17:09+0200</time>
      </trkpt>
      <trkpt lat="44.9158" lon="6.54207">
        <ele>2170.5</ele>
        <time>2022-07-14T09:17:11+0200</time>
      </trkpt>
      <trkpt lat="44.9158" lon="6.54214">
        <ele>2169.7</ele>
        <time>2022-07-14T09:17:11+0200</time>
      </trkpt>
      <trkpt lat="44.91583" lon="6.54219">
        <ele>2168.3</ele>
        <time>2022-07-14T09:17:12+0200</time>
      </trkpt>
      <trkpt lat="44.91591" lon="6.54225">
        <ele>2167.3</ele>
        <time>2022-07-14T09:17:14+0200</time>
      </trkpt>
      <trkpt lat="44.91596" lon="6.54224">
        <ele>2166.4</ele>
        <time>2022-07-14T09:17:16+0200</time>
      </trkpt>
      <trkpt lat="44.91602" lon="6.54222">
        <ele>2165.3</ele>
        <time>2022-07-14T09:17:18+0200</time>
      </trkpt>
      <trkpt lat="44.91609" lon="6.54223">
        <ele>2164.6</ele>
        <time>2022-07-14T09:17:20+0200</time>
      </trkpt>
      <trkpt lat="44.91615" lon="6.54224">
        <ele>2164.1</ele>
        <time>2022-07-14T09:17:22+0200</time>
      </trkpt>
      <trkpt lat="44.91621" lon="6.54225">
        <ele>2163.5</ele>
        <time>2022-07-14T09:17:24+0200</time>
      </trkpt>
      <trkpt lat="44.91626" lon="6.5423">
        <ele>2164.5</ele>
        <time>2022-07-14T09:17:26+0200</time>
      </trkpt>
      <trkpt lat="44.9163" lon="6.54234">
        <ele>2165.5</ele>
        <time>2022-07-14T09:17:29+0200</time>
      </trkpt>
      <trkpt lat="44.91634" lon="6.5424">
        <ele>2167.6</ele>
        <time>2022-07-14T09:17:32+0200</time>
      </trkpt>
      <trkpt lat="44.91638" lon="6.54245">
        <ele>2169.1</ele>
        <time>2022-07-14T09:17:35+0200</time>
      </trkpt>
      <trkpt lat="44.91641" lon="6.54251">
        <ele>2170.7</ele>
        <time>2022-07-14T09:17:37+0200</time>
      </trkpt>
      <trkpt lat="44.91646" lon="6.54257">
        <ele>2171.4</ele>
        <time>2022-07-14T09:17:39+0200</time>
      </trkpt>
      <trkpt lat="44.91651" lon="6.5426">
        <ele>2171.2</ele>
        <time>2022-07-14T09:17:41+0200</time>
      </trkpt>
      <trkpt lat="44.91658" lon="6.54267">
        <ele>2172.2</ele>
        <time>2022-07-14T09:17:43+0200</time>
      </trkpt>
      <trkpt lat="44.91662" lon="6.5427">
        <ele>2172.3</ele>
        <time>2022-07-14T09:17:44+0200</time>
      </trkpt>
      <trkpt lat="44.91668" lon="6.54275">
        <ele>2172.4</ele>
        <time>2022-07-14T09:17:46+0200</time>
      </trkpt>
      <trkpt lat="44.91673" lon="6.54277">
        <ele>2171.9</ele>
        <time>2022-07-14T09:17:48+0200</time>
      </trkpt>
      <trkpt lat="44.91681" lon="6.54279">
        <ele>2170.7</ele>
        <time>2022-07-14T09:17:50+0200</time>
      </trkpt>
      <trkpt lat="44.91685" lon="6.54282">
        <ele>2170.4</ele>
        <time>2022-07-14T09:17:51+0200</time>
      </trkpt>
      <trkpt lat="44.91689" lon="6.54285">
        <ele>2170.6</ele>
        <time>2022-07-14T09:17:52+0200</time>
      </trkpt>
      <trkpt lat="44.91694" lon="6.54288">
        <ele>2170.1</ele>
        <time>2022-07-14T09:17:54+0200</time>
      </trkpt>
      <trkpt lat="44.91699" lon="6.54292">
        <ele>2170.1</ele>
        <time>2022-07-14T09:17:55+0200</time>
      </trkpt>
      <trkpt lat="44.91703" lon="6.54296">
        <ele>2170.3</ele>
        <time>2022-07-14T09:17:56+0200</time>
      </trkpt>
      <trkpt lat="44.91708" lon="6.54298">
        <ele>2170</ele>
        <time>2022-07-14T09:17:57+0200</time>
      </trkpt>
      <trkpt lat="44.91712" lon="6.54302">
        <ele>2170.2</ele>
        <time>2022-07-14T09:17:58+0200</time>
      </trkpt>
      <trkpt lat="44.91716" lon="6.54305">
        <ele>2170.1</ele>
        <time>2022-07-14T09:17:59+0200</time>
      </trkpt>
      <trkpt lat="44.9172" lon="6.54309">
        <ele>2170.3</ele>
        <time>2022-07-14T09:18:00+0200</time>
      </trkpt>
      <trkpt lat="44.91727" lon="6.54315">
        <ele>2170.1</ele>
        <time>2022-07-14T09:18:02+0200</time>
      </trkpt>
      <trkpt lat="44.91732" lon="6.54317">
        <ele>2169.6</ele>
        <time>2022-07-14T09:18:03+0200</time>
      </trkpt>
      <trkpt lat="44.91739" lon="6.54323">
        <ele>2169.2</ele>
        <time>2022-07-14T09:18:05+0200</time>
      </trkpt>
      <trkpt lat="44.91743" lon="6.54327">
        <ele>2169</ele>
        <time>2022-07-14T09:18:06+0200</time>
      </trkpt>
      <trkpt lat="44.91748" lon="6.54329">
        <ele>2168.4</ele>
        <time>2022-07-14T09:18:07+0200</time>
      </trkpt>
      <trkpt lat="44.91752" lon="6.5433">
        <ele>2167.4</ele>
        <time>2022-07-14T09:18:08+0200</time>
      </trkpt>
      <trkpt lat="44.91759" lon="6.54334">
        <ele>2166.4</ele>
        <time>2022-07-14T09:18:10+0200</time>
      </trkpt>
      <trkpt lat="44.91765" lon="6.54339">
        <ele>2165.8</ele>
        <time>2022-07-14T09:18:12+0200</time>
      </trkpt>
      <trkpt lat="44.9177" lon="6.54344">
        <ele>2165.5</ele>
        <time>2022-07-14T09:18:14+0200</time>
      </trkpt>
      <trkpt lat="44.91774" lon="6.54351">
        <ele>2165.8</ele>
        <time>2022-07-14T09:18:16+0200</time>
      </trkpt>
      <trkpt lat="44.9178" lon="6.54358">
        <ele>2165.7</ele>
        <time>2022-07-14T09:18:18+0200</time>
      </trkpt>
      <trkpt lat="44.91786" lon="6.54367">
        <ele>2166.3</ele>
        <time>2022-07-14T09:18:20+0200</time>
      </trkpt>
      <trkpt lat="44.9179" lon="6.54371">
        <ele>2166.4</ele>
        <time>2022-07-14T09:18:21+0200</time>
      </trkpt>
      <trkpt lat="44.91795" lon="6.54376">
        <ele>2166.6</ele>
        <time>2022-07-14T09:18:22+0200</time>
      </trkpt>
      <trkpt lat="44.91799" lon="6.5438">
        <ele>2166.8</ele>
        <time>2022-07-14T09:18:23+0200</time>
      </trkpt>
      <trkpt lat="44.91807" lon="6.54385">
        <ele>2166.6</ele>
        <time>2022-07-14T09:18:25+0200</time>
      </trkpt>
      <trkpt lat="44.91812" lon="6.5439">
        <ele>2166.2</ele>
        <time>2022-07-14T09:18:26+0200</time>
      </trkpt>
      <trkpt lat="44.91817" lon="6.54394">
        <ele>2165.7</ele>
        <time>2022-07-14T09:18:27+0200</time>
      </trkpt>
      <trkpt lat="44.91821" lon="6.54398">
        <ele>2165.4</ele>
        <time>2022-07-14T09:18:28+0200</time>
      </trkpt>
      <trkpt lat="44.91826" lon="6.54402">
        <ele>2164.7</ele>
        <time>2022-07-14T09:18:30+0200</time>
      </trkpt>
      <trkpt lat="44.91831" lon="6.54404">
        <ele>2163.7</ele>
        <time>2022-07-14T09:18:36+0200</time>
      </trkpt>
      <trkpt lat="44.91835" lon="6.54404">
        <ele>2162.2</ele>
        <time>2022-07-14T09:18:41+0200</time>
      </trkpt>
      <trkpt lat="44.91839" lon="6.54399">
        <ele>2160.1</ele>
        <time>2022-07-14T09:18:55+0200</time>
      </trkpt>
      <trkpt lat="44.91839" lon="6.54406">
        <ele>2161.7</ele>
        <time>2022-07-14T09:19:58+0200</time>
      </trkpt>
      <trkpt lat="44.91843" lon="6.54411">
        <ele>2162</ele>
        <time>2022-07-14T09:20:00+0200</time>
      </trkpt>
      <trkpt lat="44.91847" lon="6.54417">
        <ele>2162.2</ele>
        <time>2022-07-14T09:20:02+0200</time>
      </trkpt>
      <trkpt lat="44.9185" lon="6.54427">
        <ele>2164.1</ele>
        <time>2022-07-14T09:20:04+0200</time>
      </trkpt>
      <trkpt lat="44.91856" lon="6.54434">
        <ele>2164.1</ele>
        <time>2022-07-14T09:20:06+0200</time>
      </trkpt>
      <trkpt lat="44.91861" lon="6.54443">
        <ele>2164.7</ele>
        <time>2022-07-14T09:20:08+0200</time>
      </trkpt>
      <trkpt lat="44.91865" lon="6.54446">
        <ele>2165</ele>
        <time>2022-07-14T09:20:09+0200</time>
      </trkpt>
      <trkpt lat="44.91871" lon="6.5445">
        <ele>2165.3</ele>
        <time>2022-07-14T09:20:11+0200</time>
      </trkpt>
      <trkpt lat="44.91878" lon="6.54455">
        <ele>2165.3</ele>
        <time>2022-07-14T09:20:14+0200</time>
      </trkpt>
      <trkpt lat="44.91882" lon="6.54457">
        <ele>2165.3</ele>
        <time>2022-07-14T09:20:16+0200</time>
      </trkpt>
      <trkpt lat="44.91886" lon="6.54463">
        <ele>2165.8</ele>
        <time>2022-07-14T09:20:19+0200</time>
      </trkpt>
      <trkpt lat="44.9189" lon="6.54469">
        <ele>2166.4</ele>
        <time>2022-07-14T09:20:22+0200</time>
      </trkpt>
      <trkpt lat="44.91895" lon="6.54472">
        <ele>2167.1</ele>
        <time>2022-07-14T09:20:25+0200</time>
      </trkpt>
      <trkpt lat="44.91899" lon="6.54475">
        <ele>2167.7</ele>
        <time>2022-07-14T09:20:28+0200</time>
      </trkpt>
      <trkpt lat="44.91902" lon="6.54481">
        <ele>2168.5</ele>
        <time>2022-07-14T09:20:31+0200</time>
      </trkpt>
      <trkpt lat="44.91904" lon="6.54487">
        <ele>2169.4</ele>
        <time>2022-07-14T09:20:34+0200</time>
      </trkpt>
      <trkpt lat="44.91907" lon="6.54495">
        <ele>2170.3</ele>
        <time>2022-07-14T09:20:37+0200</time>
      </trkpt>
      <trkpt lat="44.91909" lon="6.545">
        <ele>2171</ele>
        <time>2022-07-14T09:20:39+0200</time>
      </trkpt>
      <trkpt lat="44.91911" lon="6.54506">
        <ele>2171.9</ele>
        <time>2022-07-14T09:20:42+0200</time>
      </trkpt>
      <trkpt lat="44.91916" lon="6.54507">
        <ele>2172.1</ele>
        <time>2022-07-14T09:20:51+0200</time>
      </trkpt>
      <trkpt lat="44.91918" lon="6.54513">
        <ele>2173</ele>
        <time>2022-07-14T09:21:02+0200</time>
      </trkpt>
      <trkpt lat="44.9192" lon="6.5452">
        <ele>2174.3</ele>
        <time>2022-07-14T09:21:06+0200</time>
      </trkpt>
      <trkpt lat="44.91921" lon="6.54526">
        <ele>2175.4</ele>
        <time>2022-07-14T09:21:15+0200</time>
      </trkpt>
      <trkpt lat="44.91923" lon="6.54532">
        <ele>2176.4</ele>
        <time>2022-07-14T09:21:20+0200</time>
      </trkpt>
      <trkpt lat="44.91925" lon="6.54538">
        <ele>2177.3</ele>
        <time>2022-07-14T09:21:22+0200</time>
      </trkpt>
      <trkpt lat="44.91929" lon="6.54544">
        <ele>2178.3</ele>
        <time>2022-07-14T09:21:25+0200</time>
      </trkpt>
      <trkpt lat="44.91934" lon="6.54551">
        <ele>2179.4</ele>
        <time>2022-07-14T09:21:29+0200</time>
      </trkpt>
      <trkpt lat="44.91937" lon="6.54557">
        <ele>2180.3</ele>
        <time>2022-07-14T09:21:32+0200</time>
      </trkpt>
      <trkpt lat="44.9194" lon="6.54563">
        <ele>2181.1</ele>
        <time>2022-07-14T09:21:36+0200</time>
      </trkpt>
      <trkpt lat="44.91944" lon="6.54567">
        <ele>2181.8</ele>
        <time>2022-07-14T09:21:39+0200</time>
      </trkpt>
      <trkpt lat="44.91948" lon="6.54573">
        <ele>2182.4</ele>
        <time>2022-07-14T09:21:43+0200</time>
      </trkpt>
      <trkpt lat="44.91951" lon="6.54579">
        <ele>2182.9</ele>
        <time>2022-07-14T09:21:45+0200</time>
      </trkpt>
      <trkpt lat="44.91955" lon="6.54583">
        <ele>2183.3</ele>
        <time>2022-07-14T09:21:47+0200</time>
      </trkpt>
      <trkpt lat="44.91959" lon="6.54587">
        <ele>2183.8</ele>
        <time>2022-07-14T09:21:50+0200</time>
      </trkpt>
      <trkpt lat="44.91964" lon="6.54592">
        <ele>2184.2</ele>
        <time>2022-07-14T09:21:53+0200</time>
      </trkpt>
      <trkpt lat="44.9197" lon="6.54595">
        <ele>2184.4</ele>
        <time>2022-07-14T09:21:55+0200</time>
      </trkpt>
      <trkpt lat="44.91974" lon="6.54601">
        <ele>2184.6</ele>
        <time>2022-07-14T09:21:58+0200</time>
      </trkpt>
      <trkpt lat="44.91978" lon="6.54604">
        <ele>2184.7</ele>
        <time>2022-07-14T09:22:00+0200</time>
      </trkpt>
      <trkpt lat="44.91982" lon="6.54607">
        <ele>2184.8</ele>
        <time>2022-07-14T09:22:02+0200</time>
      </trkpt>
      <trkpt lat="44.91987" lon="6.54611">
        <ele>2185</ele>
        <time>2022-07-14T09:22:04+0200</time>
      </trkpt>
      <trkpt lat="44.91991" lon="6.54615">
        <ele>2185.4</ele>
        <time>2022-07-14T09:22:06+0200</time>
      </trkpt>
      <trkpt lat="44.91995" lon="6.54619">
        <ele>2185.9</ele>
        <time>2022-07-14T09:22:08+0200</time>
      </trkpt>
      <trkpt lat="44.91999" lon="6.54622">
        <ele>2186.2</ele>
        <time>2022-07-14T09:22:10+0200</time>
      </trkpt>
      <trkpt lat="44.92005" lon="6.54627">
        <ele>2186.2</ele>
        <time>2022-07-14T09:22:13+0200</time>
      </trkpt>
      <trkpt lat="44.9201" lon="6.54631">
        <ele>2186.3</ele>
        <time>2022-07-14T09:22:16+0200</time>
      </trkpt>
      <trkpt lat="44.92014" lon="6.54631">
        <ele>2186</ele>
        <time>2022-07-14T09:22:26+0200</time>
      </trkpt>
      <trkpt lat="44.9202" lon="6.54636">
        <ele>2186.2</ele>
        <time>2022-07-14T09:22:41+0200</time>
      </trkpt>
      <trkpt lat="44.92025" lon="6.54641">
        <ele>2186.4</ele>
        <time>2022-07-14T09:22:44+0200</time>
      </trkpt>
      <trkpt lat="44.92031" lon="6.54644">
        <ele>2186.1</ele>
        <time>2022-07-14T09:22:48+0200</time>
      </trkpt>
      <trkpt lat="44.92036" lon="6.5465">
        <ele>2185.8</ele>
        <time>2022-07-14T09:22:51+0200</time>
      </trkpt>
      <trkpt lat="44.92041" lon="6.54655">
        <ele>2185.7</ele>
        <time>2022-07-14T09:22:54+0200</time>
      </trkpt>
      <trkpt lat="44.92046" lon="6.54661">
        <ele>2185.6</ele>
        <time>2022-07-14T09:22:57+0200</time>
      </trkpt>
      <trkpt lat="44.92048" lon="6.54666">
        <ele>2185.9</ele>
        <time>2022-07-14T09:22:59+0200</time>
      </trkpt>
      <trkpt lat="44.92053" lon="6.54672">
        <ele>2186.7</ele>
        <time>2022-07-14T09:23:02+0200</time>
      </trkpt>
      <trkpt lat="44.92056" lon="6.54677">
        <ele>2187.3</ele>
        <time>2022-07-14T09:23:06+0200</time>
      </trkpt>
      <trkpt lat="44.92059" lon="6.54684">
        <ele>2188.5</ele>
        <time>2022-07-14T09:23:09+0200</time>
      </trkpt>
      <trkpt lat="44.92063" lon="6.54689">
        <ele>2189.4</ele>
        <time>2022-07-14T09:23:12+0200</time>
      </trkpt>
      <trkpt lat="44.92067" lon="6.54693">
        <ele>2190.2</ele>
        <time>2022-07-14T09:23:15+0200</time>
      </trkpt>
      <trkpt lat="44.9207" lon="6.54697">
        <ele>2191.4</ele>
        <time>2022-07-14T09:23:18+0200</time>
      </trkpt>
      <trkpt lat="44.92075" lon="6.547">
        <ele>2192.4</ele>
        <time>2022-07-14T09:23:21+0200</time>
      </trkpt>
      <trkpt lat="44.92079" lon="6.54704">
        <ele>2193.5</ele>
        <time>2022-07-14T09:23:24+0200</time>
      </trkpt>
      <trkpt lat="44.92083" lon="6.54706">
        <ele>2194.2</ele>
        <time>2022-07-14T09:23:29+0200</time>
      </trkpt>
      <trkpt lat="44.92088" lon="6.54709">
        <ele>2195.6</ele>
        <time>2022-07-14T09:23:34+0200</time>
      </trkpt>
      <trkpt lat="44.92093" lon="6.54712">
        <ele>2196.7</ele>
        <time>2022-07-14T09:23:37+0200</time>
      </trkpt>
      <trkpt lat="44.92098" lon="6.54709">
        <ele>2196.2</ele>
        <time>2022-07-14T09:23:41+0200</time>
      </trkpt>
      <trkpt lat="44.92103" lon="6.54709">
        <ele>2196.3</ele>
        <time>2022-07-14T09:23:46+0200</time>
      </trkpt>
      <trkpt lat="44.92107" lon="6.54712">
        <ele>2197.5</ele>
        <time>2022-07-14T09:23:52+0200</time>
      </trkpt>
      <trkpt lat="44.92113" lon="6.54714">
        <ele>2198.2</ele>
        <time>2022-07-14T09:23:57+0200</time>
      </trkpt>
      <trkpt lat="44.92119" lon="6.54714">
        <ele>2198</ele>
        <time>2022-07-14T09:24:00+0200</time>
      </trkpt>
      <trkpt lat="44.92123" lon="6.54714">
        <ele>2197.6</ele>
        <time>2022-07-14T09:24:02+0200</time>
      </trkpt>
      <trkpt lat="44.92129" lon="6.54716">
        <ele>2197.9</ele>
        <time>2022-07-14T09:24:05+0200</time>
      </trkpt>
      <trkpt lat="44.92135" lon="6.54716">
        <ele>2197.5</ele>
        <time>2022-07-14T09:24:08+0200</time>
      </trkpt>
      <trkpt lat="44.92139" lon="6.54719">
        <ele>2198.1</ele>
        <time>2022-07-14T09:24:12+0200</time>
      </trkpt>
      <trkpt lat="44.92143" lon="6.54723">
        <ele>2198.2</ele>
        <time>2022-07-14T09:24:16+0200</time>
      </trkpt>
      <trkpt lat="44.92147" lon="6.54725">
        <ele>2197.7</ele>
        <time>2022-07-14T09:24:20+0200</time>
      </trkpt>
      <trkpt lat="44.92151" lon="6.54729">
        <ele>2197.5</ele>
        <time>2022-07-14T09:24:25+0200</time>
      </trkpt>
      <trkpt lat="44.92153" lon="6.54736">
        <ele>2198.3</ele>
        <time>2022-07-14T09:24:28+0200</time>
      </trkpt>
      <trkpt lat="44.92154" lon="6.54746">
        <ele>2199.6</ele>
        <time>2022-07-14T09:24:31+0200</time>
      </trkpt>
      <trkpt lat="44.92153" lon="6.54754">
        <ele>2201</ele>
        <time>2022-07-14T09:24:34+0200</time>
      </trkpt>
      <trkpt lat="44.92153" lon="6.54761">
        <ele>2201.4</ele>
        <time>2022-07-14T09:24:37+0200</time>
      </trkpt>
      <trkpt lat="44.92154" lon="6.5477">
        <ele>2202.1</ele>
        <time>2022-07-14T09:24:40+0200</time>
      </trkpt>
      <trkpt lat="44.92154" lon="6.54778">
        <ele>2203.1</ele>
        <time>2022-07-14T09:24:42+0200</time>
      </trkpt>
      <trkpt lat="44.92156" lon="6.54786">
        <ele>2203.2</ele>
        <time>2022-07-14T09:24:44+0200</time>
      </trkpt>
      <trkpt lat="44.92159" lon="6.54795">
        <ele>2202.8</ele>
        <time>2022-07-14T09:24:46+0200</time>
      </trkpt>
      <trkpt lat="44.92162" lon="6.54804">
        <ele>2202.3</ele>
        <time>2022-07-14T09:24:48+0200</time>
      </trkpt>
      <trkpt lat="44.92164" lon="6.54812">
        <ele>2201.7</ele>
        <time>2022-07-14T09:24:50+0200</time>
      </trkpt>
      <trkpt lat="44.92165" lon="6.54819">
        <ele>2201.4</ele>
        <time>2022-07-14T09:24:54+0200</time>
      </trkpt>
      <trkpt lat="44.92164" lon="6.54827">
        <ele>2202.3</ele>
        <time>2022-07-14T09:24:56+0200</time>
      </trkpt>
      <trkpt lat="44.92167" lon="6.54843">
        <ele>2201.4</ele>
        <time>2022-07-14T09:24:58+0200</time>
      </trkpt>
      <trkpt lat="44.92168" lon="6.54853">
        <ele>2201.2</ele>
        <time>2022-07-14T09:24:59+0200</time>
      </trkpt>
      <trkpt lat="44.92168" lon="6.54866">
        <ele>2201.7</ele>
        <time>2022-07-14T09:25:00+0200</time>
      </trkpt>
      <trkpt lat="44.92168" lon="6.5488">
        <ele>2202</ele>
        <time>2022-07-14T09:25:01+0200</time>
      </trkpt>
      <trkpt lat="44.92169" lon="6.54892">
        <ele>2202.2</ele>
        <time>2022-07-14T09:25:02+0200</time>
      </trkpt>
      <trkpt lat="44.92171" lon="6.54907">
        <ele>2201.7</ele>
        <time>2022-07-14T09:25:03+0200</time>
      </trkpt>
      <trkpt lat="44.92174" lon="6.54925">
        <ele>2200.6</ele>
        <time>2022-07-14T09:25:04+0200</time>
      </trkpt>
      <trkpt lat="44.92178" lon="6.54939">
        <ele>2199.1</ele>
        <time>2022-07-14T09:25:05+0200</time>
      </trkpt>
      <trkpt lat="44.92182" lon="6.54948">
        <ele>2197.9</ele>
        <time>2022-07-14T09:25:06+0200</time>
      </trkpt>
      <trkpt lat="44.92183" lon="6.54956">
        <ele>2198.1</ele>
        <time>2022-07-14T09:25:08+0200</time>
      </trkpt>
      <trkpt lat="44.92184" lon="6.54967">
        <ele>2199</ele>
        <time>2022-07-14T09:25:10+0200</time>
      </trkpt>
      <trkpt lat="44.92186" lon="6.54973">
        <ele>2198.9</ele>
        <time>2022-07-14T09:25:11+0200</time>
      </trkpt>
      <trkpt lat="44.9219" lon="6.54982">
        <ele>2198.5</ele>
        <time>2022-07-14T09:25:12+0200</time>
      </trkpt>
      <trkpt lat="44.92195" lon="6.5499">
        <ele>2197.6</ele>
        <time>2022-07-14T09:25:13+0200</time>
      </trkpt>
      <trkpt lat="44.92201" lon="6.54997">
        <ele>2196.5</ele>
        <time>2022-07-14T09:25:14+0200</time>
      </trkpt>
      <trkpt lat="44.92206" lon="6.55003">
        <ele>2196.1</ele>
        <time>2022-07-14T09:25:15+0200</time>
      </trkpt>
      <trkpt lat="44.9221" lon="6.55007">
        <ele>2196.1</ele>
        <time>2022-07-14T09:25:16+0200</time>
      </trkpt>
      <trkpt lat="44.92214" lon="6.55011">
        <ele>2195.9</ele>
        <time>2022-07-14T09:25:17+0200</time>
      </trkpt>
      <trkpt lat="44.92217" lon="6.55016">
        <ele>2196.3</ele>
        <time>2022-07-14T09:25:18+0200</time>
      </trkpt>
      <trkpt lat="44.92222" lon="6.55023">
        <ele>2196.7</ele>
        <time>2022-07-14T09:25:20+0200</time>
      </trkpt>
      <trkpt lat="44.92226" lon="6.5503">
        <ele>2197.8</ele>
        <time>2022-07-14T09:25:22+0200</time>
      </trkpt>
      <trkpt lat="44.92229" lon="6.55036">
        <ele>2198.8</ele>
        <time>2022-07-14T09:25:25+0200</time>
      </trkpt>
      <trkpt lat="44.92232" lon="6.55043">
        <ele>2199.9</ele>
        <time>2022-07-14T09:25:27+0200</time>
      </trkpt>
      <trkpt lat="44.92235" lon="6.55048">
        <ele>2200.3</ele>
        <time>2022-07-14T09:25:29+0200</time>
      </trkpt>
      <trkpt lat="44.92238" lon="6.55054">
        <ele>2201.2</ele>
        <time>2022-07-14T09:25:34+0200</time>
      </trkpt>
      <trkpt lat="44.92238" lon="6.55062">
        <ele>2202.3</ele>
        <time>2022-07-14T09:25:37+0200</time>
      </trkpt>
      <trkpt lat="44.92238" lon="6.5507">
        <ele>2203.2</ele>
        <time>2022-07-14T09:25:40+0200</time>
      </trkpt>
      <trkpt lat="44.92239" lon="6.55079">
        <ele>2204.1</ele>
        <time>2022-07-14T09:25:42+0200</time>
      </trkpt>
      <trkpt lat="44.92238" lon="6.55086">
        <ele>2204.9</ele>
        <time>2022-07-14T09:25:44+0200</time>
      </trkpt>
      <trkpt lat="44.92239" lon="6.55094">
        <ele>2205.1</ele>
        <time>2022-07-14T09:25:46+0200</time>
      </trkpt>
      <trkpt lat="44.92237" lon="6.55102">
        <ele>2205.8</ele>
        <time>2022-07-14T09:25:49+0200</time>
      </trkpt>
      <trkpt lat="44.92237" lon="6.55109">
        <ele>2206.3</ele>
        <time>2022-07-14T09:25:52+0200</time>
      </trkpt>
      <trkpt lat="44.92235" lon="6.55116">
        <ele>2206.9</ele>
        <time>2022-07-14T09:25:54+0200</time>
      </trkpt>
      <trkpt lat="44.92233" lon="6.55124">
        <ele>2207.3</ele>
        <time>2022-07-14T09:25:57+0200</time>
      </trkpt>
      <trkpt lat="44.92232" lon="6.5513">
        <ele>2207.5</ele>
        <time>2022-07-14T09:25:59+0200</time>
      </trkpt>
      <trkpt lat="44.92229" lon="6.55137">
        <ele>2208.2</ele>
        <time>2022-07-14T09:26:01+0200</time>
      </trkpt>
      <trkpt lat="44.92229" lon="6.55145">
        <ele>2208</ele>
        <time>2022-07-14T09:26:03+0200</time>
      </trkpt>
      <trkpt lat="44.92227" lon="6.55152">
        <ele>2208.4</ele>
        <time>2022-07-14T09:26:05+0200</time>
      </trkpt>
      <trkpt lat="44.92224" lon="6.55159">
        <ele>2209</ele>
        <time>2022-07-14T09:26:09+0200</time>
      </trkpt>
      <trkpt lat="44.9222" lon="6.55166">
        <ele>2209.5</ele>
        <time>2022-07-14T09:26:12+0200</time>
      </trkpt>
      <trkpt lat="44.92216" lon="6.55172">
        <ele>2209.8</ele>
        <time>2022-07-14T09:26:15+0200</time>
      </trkpt>
      <trkpt lat="44.92212" lon="6.55178">
        <ele>2210</ele>
        <time>2022-07-14T09:26:19+0200</time>
      </trkpt>
      <trkpt lat="44.92208" lon="6.55175">
        <ele>2210.9</ele>
        <time>2022-07-14T09:26:23+0200</time>
      </trkpt>
      <trkpt lat="44.92204" lon="6.5517">
        <ele>2212</ele>
        <time>2022-07-14T09:26:27+0200</time>
      </trkpt>
      <trkpt lat="44.922" lon="6.55165">
        <ele>2213.1</ele>
        <time>2022-07-14T09:26:33+0200</time>
      </trkpt>
      <trkpt lat="44.92199" lon="6.55158">
        <ele>2214.1</ele>
        <time>2022-07-14T09:26:37+0200</time>
      </trkpt>
      <trkpt lat="44.92195" lon="6.55153">
        <ele>2215.4</ele>
        <time>2022-07-14T09:26:41+0200</time>
      </trkpt>
      <trkpt lat="44.9219" lon="6.55148">
        <ele>2216.5</ele>
        <time>2022-07-14T09:26:45+0200</time>
      </trkpt>
      <trkpt lat="44.92185" lon="6.55144">
        <ele>2217.6</ele>
        <time>2022-07-14T09:26:49+0200</time>
      </trkpt>
      <trkpt lat="44.92181" lon="6.55144">
        <ele>2218.2</ele>
        <time>2022-07-14T09:26:53+0200</time>
      </trkpt>
      <trkpt lat="44.92175" lon="6.55143">
        <ele>2219.1</ele>
        <time>2022-07-14T09:26:57+0200</time>
      </trkpt>
      <trkpt lat="44.9217" lon="6.5514">
        <ele>2220.3</ele>
        <time>2022-07-14T09:27:00+0200</time>
      </trkpt>
      <trkpt lat="44.92165" lon="6.55137">
        <ele>2221.3</ele>
        <time>2022-07-14T09:27:03+0200</time>
      </trkpt>
      <trkpt lat="44.92161" lon="6.55133">
        <ele>2222.2</ele>
        <time>2022-07-14T09:27:08+0200</time>
      </trkpt>
      <trkpt lat="44.92157" lon="6.55128">
        <ele>2223.4</ele>
        <time>2022-07-14T09:27:12+0200</time>
      </trkpt>
      <trkpt lat="44.92153" lon="6.55123">
        <ele>2224.7</ele>
        <time>2022-07-14T09:27:16+0200</time>
      </trkpt>
      <trkpt lat="44.92149" lon="6.55118">
        <ele>2226</ele>
        <time>2022-07-14T09:27:20+0200</time>
      </trkpt>
      <trkpt lat="44.92147" lon="6.55111">
        <ele>2227.9</ele>
        <time>2022-07-14T09:27:24+0200</time>
      </trkpt>
      <trkpt lat="44.92146" lon="6.55105">
        <ele>2228.5</ele>
        <time>2022-07-14T09:27:29+0200</time>
      </trkpt>
      <trkpt lat="44.92147" lon="6.55097">
        <ele>2229.1</ele>
        <time>2022-07-14T09:27:33+0200</time>
      </trkpt>
      <trkpt lat="44.92146" lon="6.55091">
        <ele>2229.9</ele>
        <time>2022-07-14T09:27:37+0200</time>
      </trkpt>
      <trkpt lat="44.92143" lon="6.55085">
        <ele>2231</ele>
        <time>2022-07-14T09:27:46+0200</time>
      </trkpt>
      <trkpt lat="44.92141" lon="6.55078">
        <ele>2231.6</ele>
        <time>2022-07-14T09:27:53+0200</time>
      </trkpt>
      <trkpt lat="44.92139" lon="6.5507">
        <ele>2231.9</ele>
        <time>2022-07-14T09:27:57+0200</time>
      </trkpt>
      <trkpt lat="44.92137" lon="6.55064">
        <ele>2232.4</ele>
        <time>2022-07-14T09:28:00+0200</time>
      </trkpt>
      <trkpt lat="44.92133" lon="6.55062">
        <ele>2233.4</ele>
        <time>2022-07-14T09:28:04+0200</time>
      </trkpt>
      <trkpt lat="44.92127" lon="6.55059">
        <ele>2234.9</ele>
        <time>2022-07-14T09:28:08+0200</time>
      </trkpt>
      <trkpt lat="44.92121" lon="6.55059">
        <ele>2236.4</ele>
        <time>2022-07-14T09:28:11+0200</time>
      </trkpt>
      <trkpt lat="44.92115" lon="6.5506">
        <ele>2237.9</ele>
        <time>2022-07-14T09:28:15+0200</time>
      </trkpt>
      <trkpt lat="44.92109" lon="6.55062">
        <ele>2238.9</ele>
        <time>2022-07-14T09:28:18+0200</time>
      </trkpt>
      <trkpt lat="44.92104" lon="6.55063">
        <ele>2240</ele>
        <time>2022-07-14T09:28:21+0200</time>
      </trkpt>
      <trkpt lat="44.92098" lon="6.55064">
        <ele>2240.9</ele>
        <time>2022-07-14T09:28:24+0200</time>
      </trkpt>
      <trkpt lat="44.92093" lon="6.55063">
        <ele>2241.9</ele>
        <time>2022-07-14T09:28:27+0200</time>
      </trkpt>
      <trkpt lat="44.92088" lon="6.55066">
        <ele>2242.7</ele>
        <time>2022-07-14T09:28:31+0200</time>
      </trkpt>
      <trkpt lat="44.92082" lon="6.55063">
        <ele>2244.2</ele>
        <time>2022-07-14T09:28:36+0200</time>
      </trkpt>
      <trkpt lat="44.92079" lon="6.55058">
        <ele>2245.6</ele>
        <time>2022-07-14T09:28:42+0200</time>
      </trkpt>
      <trkpt lat="44.92075" lon="6.55051">
        <ele>2246.9</ele>
        <time>2022-07-14T09:28:46+0200</time>
      </trkpt>
      <trkpt lat="44.9207" lon="6.55046">
        <ele>2248.3</ele>
        <time>2022-07-14T09:28:50+0200</time>
      </trkpt>
      <trkpt lat="44.92068" lon="6.55041">
        <ele>2249.3</ele>
        <time>2022-07-14T09:28:53+0200</time>
      </trkpt>
      <trkpt lat="44.92065" lon="6.55035">
        <ele>2250.2</ele>
        <time>2022-07-14T09:28:57+0200</time>
      </trkpt>
      <trkpt lat="44.92061" lon="6.5503">
        <ele>2251.4</ele>
        <time>2022-07-14T09:29:01+0200</time>
      </trkpt>
      <trkpt lat="44.92057" lon="6.55027">
        <ele>2252.6</ele>
        <time>2022-07-14T09:29:04+0200</time>
      </trkpt>
      <trkpt lat="44.92054" lon="6.55021">
        <ele>2253</ele>
        <time>2022-07-14T09:29:08+0200</time>
      </trkpt>
      <trkpt lat="44.92054" lon="6.55014">
        <ele>2253.1</ele>
        <time>2022-07-14T09:29:14+0200</time>
      </trkpt>
      <trkpt lat="44.9205" lon="6.55009">
        <ele>2253.3</ele>
        <time>2022-07-14T09:29:18+0200</time>
      </trkpt>
      <trkpt lat="44.92046" lon="6.55006">
        <ele>2253.7</ele>
        <time>2022-07-14T09:29:21+0200</time>
      </trkpt>
      <trkpt lat="44.92041" lon="6.55004">
        <ele>2254.3</ele>
        <time>2022-07-14T09:29:24+0200</time>
      </trkpt>
      <trkpt lat="44.92039" lon="6.54998">
        <ele>2254.9</ele>
        <time>2022-07-14T09:29:33+0200</time>
      </trkpt>
      <trkpt lat="44.92035" lon="6.54993">
        <ele>2255.6</ele>
        <time>2022-07-14T09:29:38+0200</time>
      </trkpt>
      <trkpt lat="44.92031" lon="6.54992">
        <ele>2256.2</ele>
        <time>2022-07-14T09:29:41+0200</time>
      </trkpt>
      <trkpt lat="44.92025" lon="6.5499">
        <ele>2256.9</ele>
        <time>2022-07-14T09:29:45+0200</time>
      </trkpt>
      <trkpt lat="44.9202" lon="6.54989">
        <ele>2257.5</ele>
        <time>2022-07-14T09:29:48+0200</time>
      </trkpt>
      <trkpt lat="44.92015" lon="6.5499">
        <ele>2257.8</ele>
        <time>2022-07-14T09:29:51+0200</time>
      </trkpt>
      <trkpt lat="44.9201" lon="6.54989">
        <ele>2258.3</ele>
        <time>2022-07-14T09:29:54+0200</time>
      </trkpt>
      <trkpt lat="44.92004" lon="6.54988">
        <ele>2258.9</ele>
        <time>2022-07-14T09:29:57+0200</time>
      </trkpt>
      <trkpt lat="44.91999" lon="6.54988">
        <ele>2259.3</ele>
        <time>2022-07-14T09:30:00+0200</time>
      </trkpt>
      <trkpt lat="44.91995" lon="6.54985">
        <ele>2259.9</ele>
        <time>2022-07-14T09:30:03+0200</time>
      </trkpt>
      <trkpt lat="44.9199" lon="6.54982">
        <ele>2260.7</ele>
        <time>2022-07-14T09:30:06+0200</time>
      </trkpt>
      <trkpt lat="44.91986" lon="6.54976">
        <ele>2262</ele>
        <time>2022-07-14T09:30:10+0200</time>
      </trkpt>
      <trkpt lat="44.91984" lon="6.54969">
        <ele>2263.3</ele>
        <time>2022-07-14T09:30:13+0200</time>
      </trkpt>
      <trkpt lat="44.91983" lon="6.54962">
        <ele>2264.3</ele>
        <time>2022-07-14T09:30:18+0200</time>
      </trkpt>
      <trkpt lat="44.91985" lon="6.54956">
        <ele>2264.9</ele>
        <time>2022-07-14T09:30:56+0200</time>
      </trkpt>
      <trkpt lat="44.91981" lon="6.54954">
        <ele>2265.7</ele>
        <time>2022-07-14T09:33:55+0200</time>
      </trkpt>
      <trkpt lat="44.91984" lon="6.54959">
        <ele>2264.6</ele>
        <time>2022-07-14T09:35:29+0200</time>
      </trkpt>
      <trkpt lat="44.9198" lon="6.54955">
        <ele>2265.7</ele>
        <time>2022-07-14T09:36:37+0200</time>
      </trkpt>
      <trkpt lat="44.91976" lon="6.54952">
        <ele>2266.5</ele>
        <time>2022-07-14T09:36:47+0200</time>
      </trkpt>
      <trkpt lat="44.9197" lon="6.54955">
        <ele>2266.8</ele>
        <time>2022-07-14T09:36:53+0200</time>
      </trkpt>
      <trkpt lat="44.91966" lon="6.54957">
        <ele>2267.1</ele>
        <time>2022-07-14T09:36:56+0200</time>
      </trkpt>
      <trkpt lat="44.91962" lon="6.54961">
        <ele>2267</ele>
        <time>2022-07-14T09:36:59+0200</time>
      </trkpt>
      <trkpt lat="44.91957" lon="6.54964">
        <ele>2267</ele>
        <time>2022-07-14T09:37:01+0200</time>
      </trkpt>
      <trkpt lat="44.91952" lon="6.54969">
        <ele>2266.8</ele>
        <time>2022-07-14T09:37:03+0200</time>
      </trkpt>
      <trkpt lat="44.91947" lon="6.5497">
        <ele>2267.1</ele>
        <time>2022-07-14T09:37:05+0200</time>
      </trkpt>
      <trkpt lat="44.91941" lon="6.54972">
        <ele>2267.3</ele>
        <time>2022-07-14T09:37:07+0200</time>
      </trkpt>
      <trkpt lat="44.91934" lon="6.54975">
        <ele>2267.3</ele>
        <time>2022-07-14T09:37:09+0200</time>
      </trkpt>
      <trkpt lat="44.91928" lon="6.54975">
        <ele>2267.5</ele>
        <time>2022-07-14T09:37:11+0200</time>
      </trkpt>
      <trkpt lat="44.91922" lon="6.54975">
        <ele>2268</ele>
        <time>2022-07-14T09:37:13+0200</time>
      </trkpt>
      <trkpt lat="44.91915" lon="6.54975">
        <ele>2268.5</ele>
        <time>2022-07-14T09:37:15+0200</time>
      </trkpt>
      <trkpt lat="44.91909" lon="6.54975">
        <ele>2268.6</ele>
        <time>2022-07-14T09:37:17+0200</time>
      </trkpt>
      <trkpt lat="44.91903" lon="6.54977">
        <ele>2268.3</ele>
        <time>2022-07-14T09:37:19+0200</time>
      </trkpt>
      <trkpt lat="44.91899" lon="6.54981">
        <ele>2267.7</ele>
        <time>2022-07-14T09:37:21+0200</time>
      </trkpt>
      <trkpt lat="44.91894" lon="6.54983">
        <ele>2267.4</ele>
        <time>2022-07-14T09:37:24+0200</time>
      </trkpt>
      <trkpt lat="44.9189" lon="6.54986">
        <ele>2267</ele>
        <time>2022-07-14T09:37:29+0200</time>
      </trkpt>
      <trkpt lat="44.91884" lon="6.54987">
        <ele>2266.9</ele>
        <time>2022-07-14T09:37:47+0200</time>
      </trkpt>
      <trkpt lat="44.91877" lon="6.5499">
        <ele>2266.4</ele>
        <time>2022-07-14T09:37:50+0200</time>
      </trkpt>
      <trkpt lat="44.91872" lon="6.54994">
        <ele>2265.9</ele>
        <time>2022-07-14T09:37:52+0200</time>
      </trkpt>
      <trkpt lat="44.91867" lon="6.54997">
        <ele>2265.4</ele>
        <time>2022-07-14T09:37:54+0200</time>
      </trkpt>
      <trkpt lat="44.91861" lon="6.55005">
        <ele>2263.9</ele>
        <time>2022-07-14T09:37:56+0200</time>
      </trkpt>
      <trkpt lat="44.9186" lon="6.55013">
        <ele>2262.2</ele>
        <time>2022-07-14T09:37:57+0200</time>
      </trkpt>
      <trkpt lat="44.91859" lon="6.55023">
        <ele>2260.2</ele>
        <time>2022-07-14T09:37:58+0200</time>
      </trkpt>
      <trkpt lat="44.91856" lon="6.55032">
        <ele>2259.2</ele>
        <time>2022-07-14T09:37:59+0200</time>
      </trkpt>
      <trkpt lat="44.91851" lon="6.55039">
        <ele>2259</ele>
        <time>2022-07-14T09:38:00+0200</time>
      </trkpt>
      <trkpt lat="44.91848" lon="6.55045">
        <ele>2258.7</ele>
        <time>2022-07-14T09:38:01+0200</time>
      </trkpt>
      <trkpt lat="44.91846" lon="6.55052">
        <ele>2258.2</ele>
        <time>2022-07-14T09:38:02+0200</time>
      </trkpt>
      <trkpt lat="44.91842" lon="6.5506">
        <ele>2257.8</ele>
        <time>2022-07-14T09:38:03+0200</time>
      </trkpt>
      <trkpt lat="44.91838" lon="6.55068">
        <ele>2257.5</ele>
        <time>2022-07-14T09:38:03+0200</time>
      </trkpt>
      <trkpt lat="44.91835" lon="6.55074">
        <ele>2257.1</ele>
        <time>2022-07-14T09:38:23+0200</time>
      </trkpt>
      <trkpt lat="44.91832" lon="6.55084">
        <ele>2256.2</ele>
        <time>2022-07-14T09:38:25+0200</time>
      </trkpt>
      <trkpt lat="44.91828" lon="6.55091">
        <ele>2255.8</ele>
        <time>2022-07-14T09:38:26+0200</time>
      </trkpt>
      <trkpt lat="44.91826" lon="6.55097">
        <ele>2255</ele>
        <time>2022-07-14T09:38:27+0200</time>
      </trkpt>
      <trkpt lat="44.91824" lon="6.55106">
        <ele>2253.7</ele>
        <time>2022-07-14T09:38:28+0200</time>
      </trkpt>
      <trkpt lat="44.91824" lon="6.55113">
        <ele>2252.3</ele>
        <time>2022-07-14T09:38:29+0200</time>
      </trkpt>
      <trkpt lat="44.91822" lon="6.55119">
        <ele>2251</ele>
        <time>2022-07-14T09:38:30+0200</time>
      </trkpt>
      <trkpt lat="44.9182" lon="6.55129">
        <ele>2249</ele>
        <time>2022-07-14T09:38:31+0200</time>
      </trkpt>
      <trkpt lat="44.91815" lon="6.55139">
        <ele>2247.3</ele>
        <time>2022-07-14T09:38:32+0200</time>
      </trkpt>
      <trkpt lat="44.91807" lon="6.55147">
        <ele>2247</ele>
        <time>2022-07-14T09:38:33+0200</time>
      </trkpt>
      <trkpt lat="44.91799" lon="6.5515">
        <ele>2248.2</ele>
        <time>2022-07-14T09:38:34+0200</time>
      </trkpt>
      <trkpt lat="44.91794" lon="6.55156">
        <ele>2247.8</ele>
        <time>2022-07-14T09:38:35+0200</time>
      </trkpt>
      <trkpt lat="44.91795" lon="6.55166">
        <ele>2245.6</ele>
        <time>2022-07-14T09:38:36+0200</time>
      </trkpt>
      <trkpt lat="44.91799" lon="6.55174">
        <ele>2243.1</ele>
        <time>2022-07-14T09:38:37+0200</time>
      </trkpt>
      <trkpt lat="44.91802" lon="6.55185">
        <ele>2240.6</ele>
        <time>2022-07-14T09:38:38+0200</time>
      </trkpt>
      <trkpt lat="44.91799" lon="6.55199">
        <ele>2238.9</ele>
        <time>2022-07-14T09:38:39+0200</time>
      </trkpt>
      <trkpt lat="44.91791" lon="6.55209">
        <ele>2238.7</ele>
        <time>2022-07-14T09:38:40+0200</time>
      </trkpt>
      <trkpt lat="44.91785" lon="6.55218">
        <ele>2238.1</ele>
        <time>2022-07-14T09:38:41+0200</time>
      </trkpt>
      <trkpt lat="44.91779" lon="6.55224">
        <ele>2237.3</ele>
        <time>2022-07-14T09:38:42+0200</time>
      </trkpt>
      <trkpt lat="44.91776" lon="6.55232">
        <ele>2235.9</ele>
        <time>2022-07-14T09:38:43+0200</time>
      </trkpt>
      <trkpt lat="44.91771" lon="6.5524">
        <ele>2235</ele>
        <time>2022-07-14T09:38:44+0200</time>
      </trkpt>
      <trkpt lat="44.91768" lon="6.55247">
        <ele>2233.9</ele>
        <time>2022-07-14T09:38:45+0200</time>
      </trkpt>
      <trkpt lat="44.91774" lon="6.55256">
        <ele>2230.9</ele>
        <time>2022-07-14T09:38:46+0200</time>
      </trkpt>
      <trkpt lat="44.91785" lon="6.5526">
        <ele>2228.1</ele>
        <time>2022-07-14T09:38:47+0200</time>
      </trkpt>
      <trkpt lat="44.91797" lon="6.55254">
        <ele>2227.9</ele>
        <time>2022-07-14T09:38:48+0200</time>
      </trkpt>
      <trkpt lat="44.91807" lon="6.5525">
        <ele>2227.7</ele>
        <time>2022-07-14T09:38:49+0200</time>
      </trkpt>
      <trkpt lat="44.91817" lon="6.5525">
        <ele>2226</ele>
        <time>2022-07-14T09:38:50+0200</time>
      </trkpt>
      <trkpt lat="44.91821" lon="6.5525">
        <ele>2225.1</ele>
        <time>2022-07-14T09:38:51+0200</time>
      </trkpt>
      <trkpt lat="44.91828" lon="6.55247">
        <ele>2224.7</ele>
        <time>2022-07-14T09:38:52+0200</time>
      </trkpt>
      <trkpt lat="44.91835" lon="6.55247">
        <ele>2223.2</ele>
        <time>2022-07-14T09:38:53+0200</time>
      </trkpt>
      <trkpt lat="44.9184" lon="6.55249">
        <ele>2222</ele>
        <time>2022-07-14T09:38:54+0200</time>
      </trkpt>
      <trkpt lat="44.91844" lon="6.55255">
        <ele>2220.1</ele>
        <time>2022-07-14T09:39:12+0200</time>
      </trkpt>
      <trkpt lat="44.91846" lon="6.55261">
        <ele>2218.7</ele>
        <time>2022-07-14T09:39:13+0200</time>
      </trkpt>
      <trkpt lat="44.91849" lon="6.55268">
        <ele>2217.2</ele>
        <time>2022-07-14T09:39:14+0200</time>
      </trkpt>
      <trkpt lat="44.91851" lon="6.55275">
        <ele>2215.8</ele>
        <time>2022-07-14T09:39:15+0200</time>
      </trkpt>
      <trkpt lat="44.91857" lon="6.55281">
        <ele>2214.4</ele>
        <time>2022-07-14T09:39:16+0200</time>
      </trkpt>
      <trkpt lat="44.91864" lon="6.55282">
        <ele>2213.9</ele>
        <time>2022-07-14T09:39:17+0200</time>
      </trkpt>
      <trkpt lat="44.9187" lon="6.55282">
        <ele>2213.2</ele>
        <time>2022-07-14T09:39:18+0200</time>
      </trkpt>
      <trkpt lat="44.91872" lon="6.55289">
        <ele>2211.7</ele>
        <time>2022-07-14T09:39:19+0200</time>
      </trkpt>
      <trkpt lat="44.91872" lon="6.553">
        <ele>2209.7</ele>
        <time>2022-07-14T09:39:20+0200</time>
      </trkpt>
      <trkpt lat="44.91869" lon="6.55304">
        <ele>2209</ele>
        <time>2022-07-14T09:39:21+0200</time>
      </trkpt>
      <trkpt lat="44.91862" lon="6.55301">
        <ele>2209.9</ele>
        <time>2022-07-14T09:39:22+0200</time>
      </trkpt>
      <trkpt lat="44.91854" lon="6.55302">
        <ele>2209.4</ele>
        <time>2022-07-14T09:39:24+0200</time>
      </trkpt>
      <trkpt lat="44.91846" lon="6.55309">
        <ele>2207.4</ele>
        <time>2022-07-14T09:39:26+0200</time>
      </trkpt>
      <trkpt lat="44.91838" lon="6.55311">
        <ele>2206.5</ele>
        <time>2022-07-14T09:39:27+0200</time>
      </trkpt>
      <trkpt lat="44.91833" lon="6.55315">
        <ele>2205.7</ele>
        <time>2022-07-14T09:39:28+0200</time>
      </trkpt>
      <trkpt lat="44.91827" lon="6.55318">
        <ele>2206.6</ele>
        <time>2022-07-14T09:39:32+0200</time>
      </trkpt>
      <trkpt lat="44.91823" lon="6.55327">
        <ele>2206.1</ele>
        <time>2022-07-14T09:39:35+0200</time>
      </trkpt>
      <trkpt lat="44.91824" lon="6.55338">
        <ele>2204.3</ele>
        <time>2022-07-14T09:39:37+0200</time>
      </trkpt>
      <trkpt lat="44.91827" lon="6.55344">
        <ele>2202.9</ele>
        <time>2022-07-14T09:39:38+0200</time>
      </trkpt>
      <trkpt lat="44.91833" lon="6.5535">
        <ele>2200.7</ele>
        <time>2022-07-14T09:39:40+0200</time>
      </trkpt>
      <trkpt lat="44.9184" lon="6.55357">
        <ele>2199.4</ele>
        <time>2022-07-14T09:39:42+0200</time>
      </trkpt>
      <trkpt lat="44.91848" lon="6.55361">
        <ele>2198.5</ele>
        <time>2022-07-14T09:39:44+0200</time>
      </trkpt>
      <trkpt lat="44.91854" lon="6.55362">
        <ele>2198.2</ele>
        <time>2022-07-14T09:39:45+0200</time>
      </trkpt>
      <trkpt lat="44.91861" lon="6.55364">
        <ele>2197.5</ele>
        <time>2022-07-14T09:39:46+0200</time>
      </trkpt>
      <trkpt lat="44.91869" lon="6.55368">
        <ele>2196.5</ele>
        <time>2022-07-14T09:39:47+0200</time>
      </trkpt>
      <trkpt lat="44.91876" lon="6.55372">
        <ele>2195.5</ele>
        <time>2022-07-14T09:39:48+0200</time>
      </trkpt>
      <trkpt lat="44.91883" lon="6.55376">
        <ele>2194.6</ele>
        <time>2022-07-14T09:39:49+0200</time>
      </trkpt>
      <trkpt lat="44.91887" lon="6.55381">
        <ele>2193.5</ele>
        <time>2022-07-14T09:39:50+0200</time>
      </trkpt>
      <trkpt lat="44.9189" lon="6.55388">
        <ele>2191.8</ele>
        <time>2022-07-14T09:39:51+0200</time>
      </trkpt>
      <trkpt lat="44.91893" lon="6.55395">
        <ele>2190.3</ele>
        <time>2022-07-14T09:39:52+0200</time>
      </trkpt>
      <trkpt lat="44.91895" lon="6.55401">
        <ele>2189.1</ele>
        <time>2022-07-14T09:39:53+0200</time>
      </trkpt>
      <trkpt lat="44.91897" lon="6.55409">
        <ele>2187.8</ele>
        <time>2022-07-14T09:39:54+0200</time>
      </trkpt>
      <trkpt lat="44.91898" lon="6.55417">
        <ele>2186.7</ele>
        <time>2022-07-14T09:39:55+0200</time>
      </trkpt>
      <trkpt lat="44.919" lon="6.55424">
        <ele>2186.2</ele>
        <time>2022-07-14T09:39:56+0200</time>
      </trkpt>
      <trkpt lat="44.91902" lon="6.55433">
        <ele>2185.8</ele>
        <time>2022-07-14T09:39:57+0200</time>
      </trkpt>
      <trkpt lat="44.91905" lon="6.5544">
        <ele>2185.4</ele>
        <time>2022-07-14T09:39:58+0200</time>
      </trkpt>
      <trkpt lat="44.9191" lon="6.55444">
        <ele>2185.3</ele>
        <time>2022-07-14T09:39:59+0200</time>
      </trkpt>
      <trkpt lat="44.91916" lon="6.55445">
        <ele>2185</ele>
        <time>2022-07-14T09:40:00+0200</time>
      </trkpt>
      <trkpt lat="44.91921" lon="6.55444">
        <ele>2183.8</ele>
        <time>2022-07-14T09:40:01+0200</time>
      </trkpt>
      <trkpt lat="44.91927" lon="6.55436">
        <ele>2181.6</ele>
        <time>2022-07-14T09:40:03+0200</time>
      </trkpt>
      <trkpt lat="44.91929" lon="6.5543">
        <ele>2180.4</ele>
        <time>2022-07-14T09:40:04+0200</time>
      </trkpt>
      <trkpt lat="44.91931" lon="6.55424">
        <ele>2179.3</ele>
        <time>2022-07-14T09:40:05+0200</time>
      </trkpt>
      <trkpt lat="44.91933" lon="6.55413">
        <ele>2178.4</ele>
        <time>2022-07-14T09:40:07+0200</time>
      </trkpt>
      <trkpt lat="44.91938" lon="6.55406">
        <ele>2177</ele>
        <time>2022-07-14T09:40:09+0200</time>
      </trkpt>
      <trkpt lat="44.91943" lon="6.5541">
        <ele>2175.1</ele>
        <time>2022-07-14T09:40:10+0200</time>
      </trkpt>
      <trkpt lat="44.91939" lon="6.55422">
        <ele>2176.5</ele>
        <time>2022-07-14T09:40:12+0200</time>
      </trkpt>
      <trkpt lat="44.91938" lon="6.55432">
        <ele>2177.7</ele>
        <time>2022-07-14T09:40:13+0200</time>
      </trkpt>
      <trkpt lat="44.9194" lon="6.55442">
        <ele>2177.9</ele>
        <time>2022-07-14T09:40:14+0200</time>
      </trkpt>
      <trkpt lat="44.9194" lon="6.55451">
        <ele>2178.1</ele>
        <time>2022-07-14T09:40:15+0200</time>
      </trkpt>
      <trkpt lat="44.91943" lon="6.55463">
        <ele>2177.4</ele>
        <time>2022-07-14T09:40:16+0200</time>
      </trkpt>
      <trkpt lat="44.91944" lon="6.55469">
        <ele>2177</ele>
        <time>2022-07-14T09:40:17+0200</time>
      </trkpt>
      <trkpt lat="44.91946" lon="6.55476">
        <ele>2176</ele>
        <time>2022-07-14T09:40:18+0200</time>
      </trkpt>
      <trkpt lat="44.91946" lon="6.55488">
        <ele>2174.5</ele>
        <time>2022-07-14T09:40:20+0200</time>
      </trkpt>
      <trkpt lat="44.91943" lon="6.55494">
        <ele>2174.9</ele>
        <time>2022-07-14T09:40:21+0200</time>
      </trkpt>
      <trkpt lat="44.9194" lon="6.555">
        <ele>2174.8</ele>
        <time>2022-07-14T09:40:22+0200</time>
      </trkpt>
      <trkpt lat="44.91942" lon="6.55506">
        <ele>2173.3</ele>
        <time>2022-07-14T09:40:23+0200</time>
      </trkpt>
      <trkpt lat="44.91948" lon="6.55511">
        <ele>2170.6</ele>
        <time>2022-07-14T09:40:24+0200</time>
      </trkpt>
      <trkpt lat="44.9195" lon="6.55518">
        <ele>2168.3</ele>
        <time>2022-07-14T09:40:25+0200</time>
      </trkpt>
      <trkpt lat="44.9195" lon="6.55529">
        <ele>2166.8</ele>
        <time>2022-07-14T09:40:26+0200</time>
      </trkpt>
      <trkpt lat="44.91949" lon="6.5554">
        <ele>2165.4</ele>
        <time>2022-07-14T09:40:27+0200</time>
      </trkpt>
      <trkpt lat="44.9195" lon="6.55548">
        <ele>2164.1</ele>
        <time>2022-07-14T09:40:28+0200</time>
      </trkpt>
      <trkpt lat="44.91948" lon="6.55559">
        <ele>2163.3</ele>
        <time>2022-07-14T09:40:30+0200</time>
      </trkpt>
      <trkpt lat="44.91946" lon="6.55566">
        <ele>2163</ele>
        <time>2022-07-14T09:40:31+0200</time>
      </trkpt>
      <trkpt lat="44.91944" lon="6.55575">
        <ele>2162.3</ele>
        <time>2022-07-14T09:40:32+0200</time>
      </trkpt>
      <trkpt lat="44.91942" lon="6.55585">
        <ele>2161.4</ele>
        <time>2022-07-14T09:40:33+0200</time>
      </trkpt>
      <trkpt lat="44.91941" lon="6.55594">
        <ele>2160.7</ele>
        <time>2022-07-14T09:40:34+0200</time>
      </trkpt>
      <trkpt lat="44.9194" lon="6.55602">
        <ele>2160.3</ele>
        <time>2022-07-14T09:40:35+0200</time>
      </trkpt>
      <trkpt lat="44.91941" lon="6.55612">
        <ele>2159.2</ele>
        <time>2022-07-14T09:40:37+0200</time>
      </trkpt>
      <trkpt lat="44.91942" lon="6.55618">
        <ele>2158.5</ele>
        <time>2022-07-14T09:40:38+0200</time>
      </trkpt>
      <trkpt lat="44.91944" lon="6.55626">
        <ele>2157.7</ele>
        <time>2022-07-14T09:40:39+0200</time>
      </trkpt>
      <trkpt lat="44.91946" lon="6.55635">
        <ele>2156.6</ele>
        <time>2022-07-14T09:40:40+0200</time>
      </trkpt>
      <trkpt lat="44.91947" lon="6.55644">
        <ele>2155.8</ele>
        <time>2022-07-14T09:40:41+0200</time>
      </trkpt>
      <trkpt lat="44.9195" lon="6.55657">
        <ele>2155</ele>
        <time>2022-07-14T09:40:43+0200</time>
      </trkpt>
      <trkpt lat="44.91952" lon="6.55665">
        <ele>2154</ele>
        <time>2022-07-14T09:40:44+0200</time>
      </trkpt>
      <trkpt lat="44.91954" lon="6.55672">
        <ele>2152.6</ele>
        <time>2022-07-14T09:40:45+0200</time>
      </trkpt>
      <trkpt lat="44.91957" lon="6.5568">
        <ele>2150.9</ele>
        <time>2022-07-14T09:40:46+0200</time>
      </trkpt>
      <trkpt lat="44.91959" lon="6.55688">
        <ele>2149.3</ele>
        <time>2022-07-14T09:40:48+0200</time>
      </trkpt>
      <trkpt lat="44.91961" lon="6.55698">
        <ele>2147.7</ele>
        <time>2022-07-14T09:40:49+0200</time>
      </trkpt>
      <trkpt lat="44.91962" lon="6.55707">
        <ele>2146.6</ele>
        <time>2022-07-14T09:40:50+0200</time>
      </trkpt>
      <trkpt lat="44.91963" lon="6.55716">
        <ele>2145.7</ele>
        <time>2022-07-14T09:40:51+0200</time>
      </trkpt>
      <trkpt lat="44.91964" lon="6.55724">
        <ele>2145.2</ele>
        <time>2022-07-14T09:40:52+0200</time>
      </trkpt>
      <trkpt lat="44.91961" lon="6.55731">
        <ele>2146.4</ele>
        <time>2022-07-14T09:40:54+0200</time>
      </trkpt>
      <trkpt lat="44.91961" lon="6.55743">
        <ele>2145.8</ele>
        <time>2022-07-14T09:40:56+0200</time>
      </trkpt>
      <trkpt lat="44.9196" lon="6.55754">
        <ele>2145.7</ele>
        <time>2022-07-14T09:40:57+0200</time>
      </trkpt>
      <trkpt lat="44.91956" lon="6.55766">
        <ele>2146.4</ele>
        <time>2022-07-14T09:40:58+0200</time>
      </trkpt>
      <trkpt lat="44.91954" lon="6.55775">
        <ele>2146.7</ele>
        <time>2022-07-14T09:40:59+0200</time>
      </trkpt>
      <trkpt lat="44.91953" lon="6.55782">
        <ele>2146.4</ele>
        <time>2022-07-14T09:41:00+0200</time>
      </trkpt>
      <trkpt lat="44.91958" lon="6.55794">
        <ele>2143</ele>
        <time>2022-07-14T09:41:02+0200</time>
      </trkpt>
      <trkpt lat="44.9196" lon="6.55802">
        <ele>2141.5</ele>
        <time>2022-07-14T09:41:03+0200</time>
      </trkpt>
      <trkpt lat="44.91962" lon="6.55809">
        <ele>2140.3</ele>
        <time>2022-07-14T09:41:04+0200</time>
      </trkpt>
      <trkpt lat="44.91965" lon="6.55814">
        <ele>2138.4</ele>
        <time>2022-07-14T09:41:05+0200</time>
      </trkpt>
      <trkpt lat="44.91966" lon="6.55821">
        <ele>2137.4</ele>
        <time>2022-07-14T09:41:06+0200</time>
      </trkpt>
      <trkpt lat="44.91973" lon="6.55821">
        <ele>2134.5</ele>
        <time>2022-07-14T09:41:08+0200</time>
      </trkpt>
      <trkpt lat="44.91978" lon="6.55809">
        <ele>2133.6</ele>
        <time>2022-07-14T09:41:10+0200</time>
      </trkpt>
      <trkpt lat="44.91981" lon="6.55802">
        <ele>2132.8</ele>
        <time>2022-07-14T09:41:11+0200</time>
      </trkpt>
      <trkpt lat="44.91986" lon="6.55794">
        <ele>2131.4</ele>
        <time>2022-07-14T09:41:12+0200</time>
      </trkpt>
      <trkpt lat="44.91988" lon="6.55785">
        <ele>2130.7</ele>
        <time>2022-07-14T09:41:13+0200</time>
      </trkpt>
      <trkpt lat="44.91994" lon="6.55783">
        <ele>2128.6</ele>
        <time>2022-07-14T09:41:14+0200</time>
      </trkpt>
      <trkpt lat="44.91999" lon="6.55784">
        <ele>2126.4</ele>
        <time>2022-07-14T09:41:15+0200</time>
      </trkpt>
      <trkpt lat="44.92002" lon="6.55797">
        <ele>2124.5</ele>
        <time>2022-07-14T09:41:16+0200</time>
      </trkpt>
      <trkpt lat="44.92003" lon="6.55805">
        <ele>2123.8</ele>
        <time>2022-07-14T09:41:17+0200</time>
      </trkpt>
      <trkpt lat="44.92005" lon="6.55816">
        <ele>2122</ele>
        <time>2022-07-14T09:41:18+0200</time>
      </trkpt>
      <trkpt lat="44.92008" lon="6.55829">
        <ele>2120</ele>
        <time>2022-07-14T09:41:19+0200</time>
      </trkpt>
      <trkpt lat="44.9201" lon="6.55839">
        <ele>2118.5</ele>
        <time>2022-07-14T09:41:20+0200</time>
      </trkpt>
      <trkpt lat="44.92012" lon="6.55848">
        <ele>2117.2</ele>
        <time>2022-07-14T09:41:21+0200</time>
      </trkpt>
      <trkpt lat="44.92019" lon="6.55842">
        <ele>2114.2</ele>
        <time>2022-07-14T09:41:23+0200</time>
      </trkpt>
      <trkpt lat="44.92022" lon="6.5583">
        <ele>2113.6</ele>
        <time>2022-07-14T09:41:24+0200</time>
      </trkpt>
      <trkpt lat="44.92027" lon="6.55823">
        <ele>2112.1</ele>
        <time>2022-07-14T09:41:25+0200</time>
      </trkpt>
      <trkpt lat="44.92032" lon="6.55819">
        <ele>2110</ele>
        <time>2022-07-14T09:41:26+0200</time>
      </trkpt>
      <trkpt lat="44.92039" lon="6.5582">
        <ele>2106.8</ele>
        <time>2022-07-14T09:41:28+0200</time>
      </trkpt>
      <trkpt lat="44.92038" lon="6.55832">
        <ele>2106.7</ele>
        <time>2022-07-14T09:41:29+0200</time>
      </trkpt>
      <trkpt lat="44.92034" lon="6.55842">
        <ele>2107.9</ele>
        <time>2022-07-14T09:41:30+0200</time>
      </trkpt>
      <trkpt lat="44.92034" lon="6.55851">
        <ele>2107.7</ele>
        <time>2022-07-14T09:41:31+0200</time>
      </trkpt>
      <trkpt lat="44.92034" lon="6.5586">
        <ele>2107.6</ele>
        <time>2022-07-14T09:41:32+0200</time>
      </trkpt>
      <trkpt lat="44.92033" lon="6.5587">
        <ele>2107.6</ele>
        <time>2022-07-14T09:41:34+0200</time>
      </trkpt>
      <trkpt lat="44.92028" lon="6.55878">
        <ele>2109.3</ele>
        <time>2022-07-14T09:41:36+0200</time>
      </trkpt>
      <trkpt lat="44.92031" lon="6.55873">
        <ele>2108.3</ele>
        <time>2022-07-14T09:42:00+0200</time>
      </trkpt>
      <trkpt lat="44.92034" lon="6.5588">
        <ele>2107</ele>
        <time>2022-07-14T09:42:06+0200</time>
      </trkpt>
      <trkpt lat="44.92032" lon="6.55888">
        <ele>2107.5</ele>
        <time>2022-07-14T09:42:08+0200</time>
      </trkpt>
      <trkpt lat="44.92029" lon="6.55895">
        <ele>2108.5</ele>
        <time>2022-07-14T09:42:10+0200</time>
      </trkpt>
      <trkpt lat="44.92028" lon="6.55901">
        <ele>2109</ele>
        <time>2022-07-14T09:42:12+0200</time>
      </trkpt>
      <trkpt lat="44.92027" lon="6.55909">
        <ele>2109.5</ele>
        <time>2022-07-14T09:42:15+0200</time>
      </trkpt>
      <trkpt lat="44.92028" lon="6.55917">
        <ele>2109</ele>
        <time>2022-07-14T09:42:17+0200</time>
      </trkpt>
      <trkpt lat="44.92028" lon="6.55924">
        <ele>2109.2</ele>
        <time>2022-07-14T09:42:19+0200</time>
      </trkpt>
      <trkpt lat="44.9203" lon="6.5593">
        <ele>2108.7</ele>
        <time>2022-07-14T09:42:22+0200</time>
      </trkpt>
      <trkpt lat="44.92034" lon="6.55934">
        <ele>2107.6</ele>
        <time>2022-07-14T09:42:24+0200</time>
      </trkpt>
      <trkpt lat="44.92039" lon="6.55937">
        <ele>2105.7</ele>
        <time>2022-07-14T09:42:26+0200</time>
      </trkpt>
      <trkpt lat="44.92045" lon="6.55939">
        <ele>2103.7</ele>
        <time>2022-07-14T09:42:27+0200</time>
      </trkpt>
      <trkpt lat="44.92053" lon="6.55939">
        <ele>2101.1</ele>
        <time>2022-07-14T09:42:28+0200</time>
      </trkpt>
      <trkpt lat="44.92057" lon="6.55947">
        <ele>2099.4</ele>
        <time>2022-07-14T09:42:30+0200</time>
      </trkpt>
      <trkpt lat="44.92058" lon="6.55954">
        <ele>2099.2</ele>
        <time>2022-07-14T09:42:31+0200</time>
      </trkpt>
      <trkpt lat="44.92061" lon="6.55966">
        <ele>2098.3</ele>
        <time>2022-07-14T09:42:32+0200</time>
      </trkpt>
      <trkpt lat="44.92063" lon="6.55978">
        <ele>2097.1</ele>
        <time>2022-07-14T09:42:33+0200</time>
      </trkpt>
      <trkpt lat="44.92064" lon="6.55986">
        <ele>2096.3</ele>
        <time>2022-07-14T09:42:34+0200</time>
      </trkpt>
      <trkpt lat="44.92069" lon="6.55998">
        <ele>2094.1</ele>
        <time>2022-07-14T09:42:36+0200</time>
      </trkpt>
      <trkpt lat="44.92073" lon="6.56007">
        <ele>2092.4</ele>
        <time>2022-07-14T09:42:37+0200</time>
      </trkpt>
      <trkpt lat="44.92076" lon="6.56013">
        <ele>2091</ele>
        <time>2022-07-14T09:42:38+0200</time>
      </trkpt>
      <trkpt lat="44.92081" lon="6.56019">
        <ele>2089.3</ele>
        <time>2022-07-14T09:42:39+0200</time>
      </trkpt>
      <trkpt lat="44.92081" lon="6.5603">
        <ele>2088.1</ele>
        <time>2022-07-14T09:42:40+0200</time>
      </trkpt>
      <trkpt lat="44.92079" lon="6.5604">
        <ele>2086.9</ele>
        <time>2022-07-14T09:42:41+0200</time>
      </trkpt>
      <trkpt lat="44.92078" lon="6.5605">
        <ele>2085.6</ele>
        <time>2022-07-14T09:42:42+0200</time>
      </trkpt>
      <trkpt lat="44.92078" lon="6.56061">
        <ele>2083.9</ele>
        <time>2022-07-14T09:42:43+0200</time>
      </trkpt>
      <trkpt lat="44.92077" lon="6.56068">
        <ele>2083.1</ele>
        <time>2022-07-14T09:42:44+0200</time>
      </trkpt>
      <trkpt lat="44.92076" lon="6.56077">
        <ele>2082.4</ele>
        <time>2022-07-14T09:42:45+0200</time>
      </trkpt>
      <trkpt lat="44.92076" lon="6.56084">
        <ele>2081.3</ele>
        <time>2022-07-14T09:42:46+0200</time>
      </trkpt>
      <trkpt lat="44.92082" lon="6.56093">
        <ele>2078.2</ele>
        <time>2022-07-14T09:42:48+0200</time>
      </trkpt>
      <trkpt lat="44.92078" lon="6.56103">
        <ele>2078.2</ele>
        <time>2022-07-14T09:42:50+0200</time>
      </trkpt>
      <trkpt lat="44.92073" lon="6.56111">
        <ele>2079.2</ele>
        <time>2022-07-14T09:42:51+0200</time>
      </trkpt>
      <trkpt lat="44.92071" lon="6.56121">
        <ele>2079.3</ele>
        <time>2022-07-14T09:42:52+0200</time>
      </trkpt>
      <trkpt lat="44.9207" lon="6.56131">
        <ele>2079</ele>
        <time>2022-07-14T09:42:53+0200</time>
      </trkpt>
      <trkpt lat="44.92071" lon="6.56142">
        <ele>2077.7</ele>
        <time>2022-07-14T09:42:54+0200</time>
      </trkpt>
      <trkpt lat="44.92071" lon="6.56153">
        <ele>2076.9</ele>
        <time>2022-07-14T09:42:55+0200</time>
      </trkpt>
      <trkpt lat="44.92072" lon="6.56162">
        <ele>2076.2</ele>
        <time>2022-07-14T09:42:56+0200</time>
      </trkpt>
      <trkpt lat="44.92075" lon="6.56167">
        <ele>2074.3</ele>
        <time>2022-07-14T09:42:57+0200</time>
      </trkpt>
      <trkpt lat="44.92079" lon="6.56171">
        <ele>2071.9</ele>
        <time>2022-07-14T09:42:58+0200</time>
      </trkpt>
      <trkpt lat="44.92079" lon="6.56178">
        <ele>2071.7</ele>
        <time>2022-07-14T09:42:59+0200</time>
      </trkpt>
      <trkpt lat="44.9208" lon="6.56185">
        <ele>2071.1</ele>
        <time>2022-07-14T09:43:00+0200</time>
      </trkpt>
      <trkpt lat="44.92085" lon="6.56176">
        <ele>2069</ele>
        <time>2022-07-14T09:43:02+0200</time>
      </trkpt>
      <trkpt lat="44.9209" lon="6.56175">
        <ele>2067.3</ele>
        <time>2022-07-14T09:43:03+0200</time>
      </trkpt>
      <trkpt lat="44.92094" lon="6.56185">
        <ele>2065.3</ele>
        <time>2022-07-14T09:43:04+0200</time>
      </trkpt>
      <trkpt lat="44.92097" lon="6.56192">
        <ele>2063.7</ele>
        <time>2022-07-14T09:43:05+0200</time>
      </trkpt>
      <trkpt lat="44.92098" lon="6.56202">
        <ele>2062.9</ele>
        <time>2022-07-14T09:43:06+0200</time>
      </trkpt>
      <trkpt lat="44.92099" lon="6.56212">
        <ele>2062.3</ele>
        <time>2022-07-14T09:43:07+0200</time>
      </trkpt>
      <trkpt lat="44.921" lon="6.56221">
        <ele>2061.4</ele>
        <time>2022-07-14T09:43:08+0200</time>
      </trkpt>
      <trkpt lat="44.921" lon="6.5623">
        <ele>2060.8</ele>
        <time>2022-07-14T09:43:09+0200</time>
      </trkpt>
      <trkpt lat="44.921" lon="6.56238">
        <ele>2060.7</ele>
        <time>2022-07-14T09:43:10+0200</time>
      </trkpt>
      <trkpt lat="44.92097" lon="6.56244">
        <ele>2061.6</ele>
        <time>2022-07-14T09:43:11+0200</time>
      </trkpt>
      <trkpt lat="44.92103" lon="6.56237">
        <ele>2059.2</ele>
        <time>2022-07-14T09:43:13+0200</time>
      </trkpt>
      <trkpt lat="44.92107" lon="6.56229">
        <ele>2058.4</ele>
        <time>2022-07-14T09:43:14+0200</time>
      </trkpt>
      <trkpt lat="44.9211" lon="6.56219">
        <ele>2057.7</ele>
        <time>2022-07-14T09:43:15+0200</time>
      </trkpt>
      <trkpt lat="44.92115" lon="6.56213">
        <ele>2055.7</ele>
        <time>2022-07-14T09:43:16+0200</time>
      </trkpt>
      <trkpt lat="44.92124" lon="6.56219">
        <ele>2052.1</ele>
        <time>2022-07-14T09:43:17+0200</time>
      </trkpt>
      <trkpt lat="44.92125" lon="6.56235">
        <ele>2051</ele>
        <time>2022-07-14T09:43:18+0200</time>
      </trkpt>
      <trkpt lat="44.92122" lon="6.56245">
        <ele>2051.2</ele>
        <time>2022-07-14T09:43:19+0200</time>
      </trkpt>
      <trkpt lat="44.92117" lon="6.56254">
        <ele>2052.7</ele>
        <time>2022-07-14T09:43:21+0200</time>
      </trkpt>
      <trkpt lat="44.92116" lon="6.56263">
        <ele>2052.8</ele>
        <time>2022-07-14T09:43:23+0200</time>
      </trkpt>
      <trkpt lat="44.92119" lon="6.56271">
        <ele>2051.5</ele>
        <time>2022-07-14T09:43:25+0200</time>
      </trkpt>
      <trkpt lat="44.92122" lon="6.56266">
        <ele>2050.5</ele>
        <time>2022-07-14T09:43:47+0200</time>
      </trkpt>
      <trkpt lat="44.92117" lon="6.56268">
        <ele>2052.2</ele>
        <time>2022-07-14T09:43:57+0200</time>
      </trkpt>
      <trkpt lat="44.92121" lon="6.56272">
        <ele>2050.8</ele>
        <time>2022-07-14T09:44:00+0200</time>
      </trkpt>
      <trkpt lat="44.92125" lon="6.56269">
        <ele>2049.5</ele>
        <time>2022-07-14T09:44:01+0200</time>
      </trkpt>
      <trkpt lat="44.92125" lon="6.56263">
        <ele>2049.7</ele>
        <time>2022-07-14T09:44:02+0200</time>
      </trkpt>
      <trkpt lat="44.92127" lon="6.56252">
        <ele>2049.2</ele>
        <time>2022-07-14T09:44:03+0200</time>
      </trkpt>
      <trkpt lat="44.92129" lon="6.56244">
        <ele>2048.9</ele>
        <time>2022-07-14T09:44:04+0200</time>
      </trkpt>
      <trkpt lat="44.92128" lon="6.56238">
        <ele>2049.4</ele>
        <time>2022-07-14T09:44:05+0200</time>
      </trkpt>
      <trkpt lat="44.92137" lon="6.56231">
        <ele>2046.6</ele>
        <time>2022-07-14T09:44:07+0200</time>
      </trkpt>
      <trkpt lat="44.92141" lon="6.56228">
        <ele>2045</ele>
        <time>2022-07-14T09:44:11+0200</time>
      </trkpt>
      <trkpt lat="44.92144" lon="6.56237">
        <ele>2043.9</ele>
        <time>2022-07-14T09:44:13+0200</time>
      </trkpt>
      <trkpt lat="44.92142" lon="6.56245">
        <ele>2044.2</ele>
        <time>2022-07-14T09:44:14+0200</time>
      </trkpt>
      <trkpt lat="44.9214" lon="6.5625">
        <ele>2044.8</ele>
        <time>2022-07-14T09:44:15+0200</time>
      </trkpt>
      <trkpt lat="44.9214" lon="6.56258">
        <ele>2044.5</ele>
        <time>2022-07-14T09:44:16+0200</time>
      </trkpt>
      <trkpt lat="44.92139" lon="6.56266">
        <ele>2044.5</ele>
        <time>2022-07-14T09:44:17+0200</time>
      </trkpt>
      <trkpt lat="44.92139" lon="6.56273">
        <ele>2044.1</ele>
        <time>2022-07-14T09:44:18+0200</time>
      </trkpt>
      <trkpt lat="44.92146" lon="6.56277">
        <ele>2041.2</ele>
        <time>2022-07-14T09:44:19+0200</time>
      </trkpt>
      <trkpt lat="44.92154" lon="6.56283">
        <ele>2037.8</ele>
        <time>2022-07-14T09:44:20+0200</time>
      </trkpt>
      <trkpt lat="44.92162" lon="6.56284">
        <ele>2034.5</ele>
        <time>2022-07-14T09:44:21+0200</time>
      </trkpt>
      <trkpt lat="44.92169" lon="6.5628">
        <ele>2032.1</ele>
        <time>2022-07-14T09:44:23+0200</time>
      </trkpt>
      <trkpt lat="44.92169" lon="6.56271">
        <ele>2032.8</ele>
        <time>2022-07-14T09:44:24+0200</time>
      </trkpt>
      <trkpt lat="44.92167" lon="6.56264">
        <ele>2033.8</ele>
        <time>2022-07-14T09:44:25+0200</time>
      </trkpt>
      <trkpt lat="44.92168" lon="6.56256">
        <ele>2034</ele>
        <time>2022-07-14T09:44:26+0200</time>
      </trkpt>
      <trkpt lat="44.92174" lon="6.56246">
        <ele>2032.6</ele>
        <time>2022-07-14T09:44:27+0200</time>
      </trkpt>
      <trkpt lat="44.92175" lon="6.56234">
        <ele>2033.1</ele>
        <time>2022-07-14T09:44:28+0200</time>
      </trkpt>
      <trkpt lat="44.92181" lon="6.56223">
        <ele>2031.7</ele>
        <time>2022-07-14T09:44:30+0200</time>
      </trkpt>
      <trkpt lat="44.92186" lon="6.5622">
        <ele>2030.3</ele>
        <time>2022-07-14T09:44:31+0200</time>
      </trkpt>
      <trkpt lat="44.92191" lon="6.5623">
        <ele>2027.5</ele>
        <time>2022-07-14T09:44:33+0200</time>
      </trkpt>
      <trkpt lat="44.92193" lon="6.56245">
        <ele>2026</ele>
        <time>2022-07-14T09:44:35+0200</time>
      </trkpt>
      <trkpt lat="44.92193" lon="6.56257">
        <ele>2024.9</ele>
        <time>2022-07-14T09:44:36+0200</time>
      </trkpt>
      <trkpt lat="44.92191" lon="6.56268">
        <ele>2024.8</ele>
        <time>2022-07-14T09:44:37+0200</time>
      </trkpt>
      <trkpt lat="44.92191" lon="6.56277">
        <ele>2024.4</ele>
        <time>2022-07-14T09:44:38+0200</time>
      </trkpt>
      <trkpt lat="44.9219" lon="6.56286">
        <ele>2024.2</ele>
        <time>2022-07-14T09:44:40+0200</time>
      </trkpt>
      <trkpt lat="44.92186" lon="6.56291">
        <ele>2025.2</ele>
        <time>2022-07-14T09:44:45+0200</time>
      </trkpt>
      <trkpt lat="44.92185" lon="6.56298">
        <ele>2025.1</ele>
        <time>2022-07-14T09:44:47+0200</time>
      </trkpt>
      <trkpt lat="44.92185" lon="6.56305">
        <ele>2024.5</ele>
        <time>2022-07-14T09:44:49+0200</time>
      </trkpt>
      <trkpt lat="44.92188" lon="6.56311">
        <ele>2022.6</ele>
        <time>2022-07-14T09:44:50+0200</time>
      </trkpt>
      <trkpt lat="44.92192" lon="6.56305">
        <ele>2021.9</ele>
        <time>2022-07-14T09:44:54+0200</time>
      </trkpt>
      <trkpt lat="44.92196" lon="6.56318">
        <ele>2018.9</ele>
        <time>2022-07-14T09:44:57+0200</time>
      </trkpt>
      <trkpt lat="44.92199" lon="6.56328">
        <ele>2016.8</ele>
        <time>2022-07-14T09:44:59+0200</time>
      </trkpt>
      <trkpt lat="44.92204" lon="6.56326">
        <ele>2014.9</ele>
        <time>2022-07-14T09:45:00+0200</time>
      </trkpt>
      <trkpt lat="44.92207" lon="6.56319">
        <ele>2014.4</ele>
        <time>2022-07-14T09:45:02+0200</time>
      </trkpt>
      <trkpt lat="44.9221" lon="6.56311">
        <ele>2014</ele>
        <time>2022-07-14T09:45:04+0200</time>
      </trkpt>
      <trkpt lat="44.92215" lon="6.56307">
        <ele>2012</ele>
        <time>2022-07-14T09:45:06+0200</time>
      </trkpt>
      <trkpt lat="44.92221" lon="6.56302">
        <ele>2010.1</ele>
        <time>2022-07-14T09:45:07+0200</time>
      </trkpt>
      <trkpt lat="44.92224" lon="6.56292">
        <ele>2009.8</ele>
        <time>2022-07-14T09:45:08+0200</time>
      </trkpt>
      <trkpt lat="44.92225" lon="6.56282">
        <ele>2010.5</ele>
        <time>2022-07-14T09:45:09+0200</time>
      </trkpt>
      <trkpt lat="44.92227" lon="6.56272">
        <ele>2010.7</ele>
        <time>2022-07-14T09:45:11+0200</time>
      </trkpt>
      <trkpt lat="44.92235" lon="6.56275">
        <ele>2007.1</ele>
        <time>2022-07-14T09:45:13+0200</time>
      </trkpt>
      <trkpt lat="44.92237" lon="6.56283">
        <ele>2005.5</ele>
        <time>2022-07-14T09:45:14+0200</time>
      </trkpt>
      <trkpt lat="44.92238" lon="6.56293">
        <ele>2004.1</ele>
        <time>2022-07-14T09:45:15+0200</time>
      </trkpt>
      <trkpt lat="44.92239" lon="6.56302">
        <ele>2002.9</ele>
        <time>2022-07-14T09:45:16+0200</time>
      </trkpt>
      <trkpt lat="44.92235" lon="6.56315">
        <ele>2003.5</ele>
        <time>2022-07-14T09:45:18+0200</time>
      </trkpt>
      <trkpt lat="44.92235" lon="6.56324">
        <ele>2002.7</ele>
        <time>2022-07-14T09:45:19+0200</time>
      </trkpt>
      <trkpt lat="44.92233" lon="6.56333">
        <ele>2002.6</ele>
        <time>2022-07-14T09:45:20+0200</time>
      </trkpt>
      <trkpt lat="44.9223" lon="6.56339">
        <ele>2003.6</ele>
        <time>2022-07-14T09:45:21+0200</time>
      </trkpt>
      <trkpt lat="44.92227" lon="6.56348">
        <ele>2004.1</ele>
        <time>2022-07-14T09:45:23+0200</time>
      </trkpt>
      <trkpt lat="44.92222" lon="6.56354">
        <ele>2005.8</ele>
        <time>2022-07-14T09:45:24+0200</time>
      </trkpt>
      <trkpt lat="44.92217" lon="6.56356">
        <ele>2007.4</ele>
        <time>2022-07-14T09:45:25+0200</time>
      </trkpt>
      <trkpt lat="44.92222" lon="6.56358">
        <ele>2005.5</ele>
        <time>2022-07-14T09:45:27+0200</time>
      </trkpt>
      <trkpt lat="44.92228" lon="6.56355">
        <ele>2002.9</ele>
        <time>2022-07-14T09:45:28+0200</time>
      </trkpt>
      <trkpt lat="44.92233" lon="6.5635">
        <ele>2001.2</ele>
        <time>2022-07-14T09:45:29+0200</time>
      </trkpt>
      <trkpt lat="44.92238" lon="6.56345">
        <ele>1999.8</ele>
        <time>2022-07-14T09:45:30+0200</time>
      </trkpt>
      <trkpt lat="44.92244" lon="6.56345">
        <ele>1997.1</ele>
        <time>2022-07-14T09:45:31+0200</time>
      </trkpt>
      <trkpt lat="44.92254" lon="6.56341">
        <ele>1993.6</ele>
        <time>2022-07-14T09:45:32+0200</time>
      </trkpt>
      <trkpt lat="44.9226" lon="6.56332">
        <ele>1992.4</ele>
        <time>2022-07-14T09:45:33+0200</time>
      </trkpt>
      <trkpt lat="44.92259" lon="6.56324">
        <ele>1993.2</ele>
        <time>2022-07-14T09:45:34+0200</time>
      </trkpt>
      <trkpt lat="44.92267" lon="6.56323">
        <ele>1990.4</ele>
        <time>2022-07-14T09:45:36+0200</time>
      </trkpt>
      <trkpt lat="44.92275" lon="6.5633">
        <ele>1986.6</ele>
        <time>2022-07-14T09:45:37+0200</time>
      </trkpt>
      <trkpt lat="44.92278" lon="6.5634">
        <ele>1984.5</ele>
        <time>2022-07-14T09:45:38+0200</time>
      </trkpt>
      <trkpt lat="44.92274" lon="6.56354">
        <ele>1984.9</ele>
        <time>2022-07-14T09:45:39+0200</time>
      </trkpt>
      <trkpt lat="44.9227" lon="6.56367">
        <ele>1985.5</ele>
        <time>2022-07-14T09:45:40+0200</time>
      </trkpt>
      <trkpt lat="44.92273" lon="6.56374">
        <ele>1984.3</ele>
        <time>2022-07-14T09:45:41+0200</time>
      </trkpt>
      <trkpt lat="44.92276" lon="6.5638">
        <ele>1982.8</ele>
        <time>2022-07-14T09:45:42+0200</time>
      </trkpt>
      <trkpt lat="44.92276" lon="6.56387">
        <ele>1982.8</ele>
        <time>2022-07-14T09:45:43+0200</time>
      </trkpt>
      <trkpt lat="44.92272" lon="6.56393">
        <ele>1983.9</ele>
        <time>2022-07-14T09:45:44+0200</time>
      </trkpt>
      <trkpt lat="44.92265" lon="6.564">
        <ele>1986.5</ele>
        <time>2022-07-14T09:45:45+0200</time>
      </trkpt>
      <trkpt lat="44.9226" lon="6.56406">
        <ele>1988.3</ele>
        <time>2022-07-14T09:45:46+0200</time>
      </trkpt>
      <trkpt lat="44.92259" lon="6.56412">
        <ele>1988.6</ele>
        <time>2022-07-14T09:45:47+0200</time>
      </trkpt>
      <trkpt lat="44.92264" lon="6.56412">
        <ele>1986.7</ele>
        <time>2022-07-14T09:46:39+0200</time>
      </trkpt>
      <trkpt lat="44.92268" lon="6.56416">
        <ele>1985</ele>
        <time>2022-07-14T09:46:50+0200</time>
      </trkpt>
      <trkpt lat="44.92273" lon="6.5642">
        <ele>1983.2</ele>
        <time>2022-07-14T09:46:51+0200</time>
      </trkpt>
      <trkpt lat="44.92278" lon="6.56428">
        <ele>1981.5</ele>
        <time>2022-07-14T09:46:52+0200</time>
      </trkpt>
      <trkpt lat="44.92282" lon="6.56439">
        <ele>1980.4</ele>
        <time>2022-07-14T09:46:53+0200</time>
      </trkpt>
      <trkpt lat="44.92286" lon="6.56451">
        <ele>1979</ele>
        <time>2022-07-14T09:46:54+0200</time>
      </trkpt>
      <trkpt lat="44.92291" lon="6.56463">
        <ele>1976.8</ele>
        <time>2022-07-14T09:46:55+0200</time>
      </trkpt>
      <trkpt lat="44.92298" lon="6.56473">
        <ele>1974.5</ele>
        <time>2022-07-14T09:46:56+0200</time>
      </trkpt>
      <trkpt lat="44.92301" lon="6.56479">
        <ele>1973.4</ele>
        <time>2022-07-14T09:46:57+0200</time>
      </trkpt>
      <trkpt lat="44.92307" lon="6.56491">
        <ele>1970.9</ele>
        <time>2022-07-14T09:46:59+0200</time>
      </trkpt>
      <trkpt lat="44.92309" lon="6.56498">
        <ele>1970.1</ele>
        <time>2022-07-14T09:47:00+0200</time>
      </trkpt>
      <trkpt lat="44.92306" lon="6.56508">
        <ele>1970.4</ele>
        <time>2022-07-14T09:47:02+0200</time>
      </trkpt>
      <trkpt lat="44.92306" lon="6.56517">
        <ele>1969.7</ele>
        <time>2022-07-14T09:47:03+0200</time>
      </trkpt>
      <trkpt lat="44.92307" lon="6.56525">
        <ele>1968.8</ele>
        <time>2022-07-14T09:47:04+0200</time>
      </trkpt>
      <trkpt lat="44.92312" lon="6.56533">
        <ele>1966.7</ele>
        <time>2022-07-14T09:47:06+0200</time>
      </trkpt>
      <trkpt lat="44.92315" lon="6.5654">
        <ele>1965.5</ele>
        <time>2022-07-14T09:47:08+0200</time>
      </trkpt>
      <trkpt lat="44.92319" lon="6.56548">
        <ele>1963.7</ele>
        <time>2022-07-14T09:47:10+0200</time>
      </trkpt>
      <trkpt lat="44.92318" lon="6.56559">
        <ele>1963.2</ele>
        <time>2022-07-14T09:47:11+0200</time>
      </trkpt>
      <trkpt lat="44.92317" lon="6.56568">
        <ele>1962.3</ele>
        <time>2022-07-14T09:47:12+0200</time>
      </trkpt>
      <trkpt lat="44.92318" lon="6.56578">
        <ele>1961.1</ele>
        <time>2022-07-14T09:47:13+0200</time>
      </trkpt>
      <trkpt lat="44.92318" lon="6.56586">
        <ele>1960.2</ele>
        <time>2022-07-14T09:47:14+0200</time>
      </trkpt>
      <trkpt lat="44.92313" lon="6.56597">
        <ele>1960</ele>
        <time>2022-07-14T09:47:16+0200</time>
      </trkpt>
      <trkpt lat="44.92307" lon="6.56601">
        <ele>1961.2</ele>
        <time>2022-07-14T09:47:17+0200</time>
      </trkpt>
      <trkpt lat="44.92313" lon="6.56608">
        <ele>1958.3</ele>
        <time>2022-07-14T09:47:19+0200</time>
      </trkpt>
      <trkpt lat="44.92319" lon="6.56606">
        <ele>1956.9</ele>
        <time>2022-07-14T09:47:20+0200</time>
      </trkpt>
      <trkpt lat="44.92326" lon="6.56605">
        <ele>1955.2</ele>
        <time>2022-07-14T09:47:21+0200</time>
      </trkpt>
      <trkpt lat="44.92334" lon="6.56604">
        <ele>1952.9</ele>
        <time>2022-07-14T09:47:23+0200</time>
      </trkpt>
      <trkpt lat="44.92343" lon="6.56611">
        <ele>1949.1</ele>
        <time>2022-07-14T09:47:25+0200</time>
      </trkpt>
      <trkpt lat="44.92347" lon="6.56619">
        <ele>1947</ele>
        <time>2022-07-14T09:47:26+0200</time>
      </trkpt>
      <trkpt lat="44.92344" lon="6.56626">
        <ele>1947</ele>
        <time>2022-07-14T09:47:27+0200</time>
      </trkpt>
      <trkpt lat="44.92337" lon="6.56632">
        <ele>1947.9</ele>
        <time>2022-07-14T09:47:28+0200</time>
      </trkpt>
      <trkpt lat="44.92333" lon="6.56635">
        <ele>1948.7</ele>
        <time>2022-07-14T09:47:29+0200</time>
      </trkpt>
      <trkpt lat="44.9233" lon="6.56641">
        <ele>1948.6</ele>
        <time>2022-07-14T09:47:30+0200</time>
      </trkpt>
      <trkpt lat="44.92325" lon="6.56649">
        <ele>1948.8</ele>
        <time>2022-07-14T09:47:31+0200</time>
      </trkpt>
      <trkpt lat="44.92317" lon="6.5666">
        <ele>1949</ele>
        <time>2022-07-14T09:47:33+0200</time>
      </trkpt>
      <trkpt lat="44.92311" lon="6.56665">
        <ele>1949.8</ele>
        <time>2022-07-14T09:47:34+0200</time>
      </trkpt>
      <trkpt lat="44.92305" lon="6.56669">
        <ele>1950.9</ele>
        <time>2022-07-14T09:47:35+0200</time>
      </trkpt>
      <trkpt lat="44.923" lon="6.56674">
        <ele>1952.2</ele>
        <time>2022-07-14T09:47:36+0200</time>
      </trkpt>
      <trkpt lat="44.923" lon="6.56684">
        <ele>1951.5</ele>
        <time>2022-07-14T09:47:37+0200</time>
      </trkpt>
      <trkpt lat="44.92304" lon="6.56695">
        <ele>1949.4</ele>
        <time>2022-07-14T09:47:38+0200</time>
      </trkpt>
      <trkpt lat="44.92311" lon="6.56701">
        <ele>1947.2</ele>
        <time>2022-07-14T09:47:39+0200</time>
      </trkpt>
      <trkpt lat="44.92315" lon="6.56707">
        <ele>1945.9</ele>
        <time>2022-07-14T09:47:40+0200</time>
      </trkpt>
      <trkpt lat="44.92317" lon="6.56713">
        <ele>1944.9</ele>
        <time>2022-07-14T09:47:41+0200</time>
      </trkpt>
      <trkpt lat="44.92321" lon="6.56722">
        <ele>1943</ele>
        <time>2022-07-14T09:47:43+0200</time>
      </trkpt>
      <trkpt lat="44.92322" lon="6.56729">
        <ele>1942.1</ele>
        <time>2022-07-14T09:47:46+0200</time>
      </trkpt>
      <trkpt lat="44.92326" lon="6.56734">
        <ele>1940.2</ele>
        <time>2022-07-14T09:47:51+0200</time>
      </trkpt>
      <trkpt lat="44.92322" lon="6.5674">
        <ele>1940.7</ele>
        <time>2022-07-14T09:47:59+0200</time>
      </trkpt>
      <trkpt lat="44.92323" lon="6.56746">
        <ele>1939.7</ele>
        <time>2022-07-14T09:48:11+0200</time>
      </trkpt>
      <trkpt lat="44.92328" lon="6.56751">
        <ele>1937.6</ele>
        <time>2022-07-14T09:48:13+0200</time>
      </trkpt>
      <trkpt lat="44.92332" lon="6.56756">
        <ele>1935.7</ele>
        <time>2022-07-14T09:48:16+0200</time>
      </trkpt>
      <trkpt lat="44.92338" lon="6.5676">
        <ele>1933.7</ele>
        <time>2022-07-14T09:48:44+0200</time>
      </trkpt>
      <trkpt lat="44.92342" lon="6.56766">
        <ele>1931.9</ele>
        <time>2022-07-14T09:48:46+0200</time>
      </trkpt>
      <trkpt lat="44.92344" lon="6.56772">
        <ele>1930.7</ele>
        <time>2022-07-14T09:48:47+0200</time>
      </trkpt>
      <trkpt lat="44.92345" lon="6.56778">
        <ele>1929.7</ele>
        <time>2022-07-14T09:48:48+0200</time>
      </trkpt>
      <trkpt lat="44.92346" lon="6.56784">
        <ele>1928.5</ele>
        <time>2022-07-14T09:48:49+0200</time>
      </trkpt>
      <trkpt lat="44.92347" lon="6.56791">
        <ele>1927.3</ele>
        <time>2022-07-14T09:48:50+0200</time>
      </trkpt>
      <trkpt lat="44.92348" lon="6.56799">
        <ele>1926.1</ele>
        <time>2022-07-14T09:48:51+0200</time>
      </trkpt>
      <trkpt lat="44.92348" lon="6.56805">
        <ele>1925.4</ele>
        <time>2022-07-14T09:48:52+0200</time>
      </trkpt>
      <trkpt lat="44.92348" lon="6.56812">
        <ele>1924.3</ele>
        <time>2022-07-14T09:48:53+0200</time>
      </trkpt>
      <trkpt lat="44.9235" lon="6.5682">
        <ele>1922.8</ele>
        <time>2022-07-14T09:48:54+0200</time>
      </trkpt>
      <trkpt lat="44.92353" lon="6.56827">
        <ele>1921.1</ele>
        <time>2022-07-14T09:48:55+0200</time>
      </trkpt>
      <trkpt lat="44.92357" lon="6.56834">
        <ele>1919.2</ele>
        <time>2022-07-14T09:48:56+0200</time>
      </trkpt>
      <trkpt lat="44.92358" lon="6.56845">
        <ele>1917.4</ele>
        <time>2022-07-14T09:48:57+0200</time>
      </trkpt>
      <trkpt lat="44.92358" lon="6.56857">
        <ele>1915.7</ele>
        <time>2022-07-14T09:48:58+0200</time>
      </trkpt>
      <trkpt lat="44.92357" lon="6.56866">
        <ele>1914.9</ele>
        <time>2022-07-14T09:48:59+0200</time>
      </trkpt>
      <trkpt lat="44.92358" lon="6.56873">
        <ele>1913.8</ele>
        <time>2022-07-14T09:49:00+0200</time>
      </trkpt>
      <trkpt lat="44.92362" lon="6.56879">
        <ele>1911.9</ele>
        <time>2022-07-14T09:49:01+0200</time>
      </trkpt>
      <trkpt lat="44.92366" lon="6.56883">
        <ele>1910.4</ele>
        <time>2022-07-14T09:49:02+0200</time>
      </trkpt>
      <trkpt lat="44.92372" lon="6.56885">
        <ele>1908.7</ele>
        <time>2022-07-14T09:49:03+0200</time>
      </trkpt>
      <trkpt lat="44.92376" lon="6.56888">
        <ele>1907.2</ele>
        <time>2022-07-14T09:49:04+0200</time>
      </trkpt>
      <trkpt lat="44.92378" lon="6.56899">
        <ele>1906.1</ele>
        <time>2022-07-14T09:49:05+0200</time>
      </trkpt>
      <trkpt lat="44.92378" lon="6.5691">
        <ele>1905.2</ele>
        <time>2022-07-14T09:49:06+0200</time>
      </trkpt>
      <trkpt lat="44.92382" lon="6.56924">
        <ele>1903.1</ele>
        <time>2022-07-14T09:49:07+0200</time>
      </trkpt>
      <trkpt lat="44.92386" lon="6.56937">
        <ele>1901.2</ele>
        <time>2022-07-14T09:49:08+0200</time>
      </trkpt>
      <trkpt lat="44.92389" lon="6.56953">
        <ele>1899.5</ele>
        <time>2022-07-14T09:49:09+0200</time>
      </trkpt>
      <trkpt lat="44.92391" lon="6.56967">
        <ele>1898.1</ele>
        <time>2022-07-14T09:49:10+0200</time>
      </trkpt>
      <trkpt lat="44.92393" lon="6.56978">
        <ele>1897.2</ele>
        <time>2022-07-14T09:49:11+0200</time>
      </trkpt>
      <trkpt lat="44.92393" lon="6.5699">
        <ele>1896.8</ele>
        <time>2022-07-14T09:49:12+0200</time>
      </trkpt>
      <trkpt lat="44.92392" lon="6.57002">
        <ele>1896.4</ele>
        <time>2022-07-14T09:49:13+0200</time>
      </trkpt>
      <trkpt lat="44.92393" lon="6.5701">
        <ele>1896.2</ele>
        <time>2022-07-14T09:49:14+0200</time>
      </trkpt>
      <trkpt lat="44.92395" lon="6.57018">
        <ele>1895.6</ele>
        <time>2022-07-14T09:49:16+0200</time>
      </trkpt>
      <trkpt lat="44.92398" lon="6.57028">
        <ele>1895</ele>
        <time>2022-07-14T09:49:18+0200</time>
      </trkpt>
      <trkpt lat="44.92402" lon="6.57034">
        <ele>1894.2</ele>
        <time>2022-07-14T09:49:19+0200</time>
      </trkpt>
      <trkpt lat="44.92407" lon="6.57038">
        <ele>1893.6</ele>
        <time>2022-07-14T09:49:20+0200</time>
      </trkpt>
      <trkpt lat="44.92412" lon="6.57043">
        <ele>1893.2</ele>
        <time>2022-07-14T09:49:21+0200</time>
      </trkpt>
      <trkpt lat="44.92415" lon="6.57048">
        <ele>1893</ele>
        <time>2022-07-14T09:49:26+0200</time>
      </trkpt>
      <trkpt lat="44.9242" lon="6.5705">
        <ele>1893.1</ele>
        <time>2022-07-14T09:49:30+0200</time>
      </trkpt>
      <trkpt lat="44.92424" lon="6.57046">
        <ele>1893.1</ele>
        <time>2022-07-14T09:49:33+0200</time>
      </trkpt>
      <trkpt lat="44.92429" lon="6.5704">
        <ele>1893</ele>
        <time>2022-07-14T09:49:37+0200</time>
      </trkpt>
      <trkpt lat="44.92433" lon="6.57032">
        <ele>1892.6</ele>
        <time>2022-07-14T09:49:39+0200</time>
      </trkpt>
      <trkpt lat="44.92436" lon="6.57027">
        <ele>1892.2</ele>
        <time>2022-07-14T09:49:40+0200</time>
      </trkpt>
      <trkpt lat="44.9244" lon="6.57021">
        <ele>1891.8</ele>
        <time>2022-07-14T09:49:41+0200</time>
      </trkpt>
      <trkpt lat="44.92443" lon="6.57018">
        <ele>1891.3</ele>
        <time>2022-07-14T09:49:42+0200</time>
      </trkpt>
      <trkpt lat="44.9245" lon="6.57013">
        <ele>1890.5</ele>
        <time>2022-07-14T09:49:44+0200</time>
      </trkpt>
      <trkpt lat="44.92453" lon="6.57007">
        <ele>1889.6</ele>
        <time>2022-07-14T09:49:46+0200</time>
      </trkpt>
      <trkpt lat="44.92453" lon="6.56998">
        <ele>1889</ele>
        <time>2022-07-14T09:49:50+0200</time>
      </trkpt>
      <trkpt lat="44.92449" lon="6.5699">
        <ele>1889</ele>
        <time>2022-07-14T09:49:52+0200</time>
      </trkpt>
      <trkpt lat="44.92447" lon="6.56983">
        <ele>1889</ele>
        <time>2022-07-14T09:49:54+0200</time>
      </trkpt>
      <trkpt lat="44.92443" lon="6.56976">
        <ele>1889.3</ele>
        <time>2022-07-14T09:49:56+0200</time>
      </trkpt>
      <trkpt lat="44.92443" lon="6.56967">
        <ele>1889.1</ele>
        <time>2022-07-14T09:49:58+0200</time>
      </trkpt>
      <trkpt lat="44.92444" lon="6.5696">
        <ele>1888.8</ele>
        <time>2022-07-14T09:50:00+0200</time>
      </trkpt>
      <trkpt lat="44.92447" lon="6.56954">
        <ele>1887.8</ele>
        <time>2022-07-14T09:50:02+0200</time>
      </trkpt>
      <trkpt lat="44.92446" lon="6.56944">
        <ele>1887.6</ele>
        <time>2022-07-14T09:50:05+0200</time>
      </trkpt>
      <trkpt lat="44.92443" lon="6.56935">
        <ele>1888.3</ele>
        <time>2022-07-14T09:50:07+0200</time>
      </trkpt>
      <trkpt lat="44.92443" lon="6.56925">
        <ele>1888.3</ele>
        <time>2022-07-14T09:50:09+0200</time>
      </trkpt>
      <trkpt lat="44.92445" lon="6.56915">
        <ele>1888</ele>
        <time>2022-07-14T09:50:11+0200</time>
      </trkpt>
      <trkpt lat="44.92446" lon="6.56908">
        <ele>1888</ele>
        <time>2022-07-14T09:50:13+0200</time>
      </trkpt>
      <trkpt lat="44.92447" lon="6.56899">
        <ele>1888</ele>
        <time>2022-07-14T09:50:15+0200</time>
      </trkpt>
      <trkpt lat="44.92447" lon="6.5689">
        <ele>1888.2</ele>
        <time>2022-07-14T09:50:17+0200</time>
      </trkpt>
      <trkpt lat="44.92447" lon="6.56883">
        <ele>1888.6</ele>
        <time>2022-07-14T09:50:18+0200</time>
      </trkpt>
      <trkpt lat="44.92451" lon="6.56877">
        <ele>1888.1</ele>
        <time>2022-07-14T09:50:19+0200</time>
      </trkpt>
      <trkpt lat="44.92454" lon="6.56872">
        <ele>1887.6</ele>
        <time>2022-07-14T09:50:20+0200</time>
      </trkpt>
      <trkpt lat="44.92459" lon="6.5686">
        <ele>1887.1</ele>
        <time>2022-07-14T09:50:22+0200</time>
      </trkpt>
      <trkpt lat="44.92461" lon="6.56853">
        <ele>1887.1</ele>
        <time>2022-07-14T09:50:23+0200</time>
      </trkpt>
      <trkpt lat="44.92465" lon="6.56843">
        <ele>1887.1</ele>
        <time>2022-07-14T09:50:25+0200</time>
      </trkpt>
      <trkpt lat="44.92466" lon="6.56837">
        <ele>1887.3</ele>
        <time>2022-07-14T09:50:26+0200</time>
      </trkpt>
      <trkpt lat="44.92468" lon="6.56827">
        <ele>1888</ele>
        <time>2022-07-14T09:50:28+0200</time>
      </trkpt>
      <trkpt lat="44.92467" lon="6.56818">
        <ele>1889.8</ele>
        <time>2022-07-14T09:50:30+0200</time>
      </trkpt>
      <trkpt lat="44.9247" lon="6.56808">
        <ele>1890.3</ele>
        <time>2022-07-14T09:50:33+0200</time>
      </trkpt>
      <trkpt lat="44.92476" lon="6.56804">
        <ele>1889.5</ele>
        <time>2022-07-14T09:50:35+0200</time>
      </trkpt>
      <trkpt lat="44.92484" lon="6.56806">
        <ele>1887.5</ele>
        <time>2022-07-14T09:50:38+0200</time>
      </trkpt>
      <trkpt lat="44.92492" lon="6.56806">
        <ele>1885.8</ele>
        <time>2022-07-14T09:50:40+0200</time>
      </trkpt>
      <trkpt lat="44.925" lon="6.56804">
        <ele>1884.2</ele>
        <time>2022-07-14T09:50:42+0200</time>
      </trkpt>
      <trkpt lat="44.92505" lon="6.56805">
        <ele>1882.9</ele>
        <time>2022-07-14T09:50:43+0200</time>
      </trkpt>
      <trkpt lat="44.92512" lon="6.56804">
        <ele>1881.3</ele>
        <time>2022-07-14T09:50:44+0200</time>
      </trkpt>
      <trkpt lat="44.9252" lon="6.56802">
        <ele>1879.8</ele>
        <time>2022-07-14T09:50:46+0200</time>
      </trkpt>
      <trkpt lat="44.92525" lon="6.56799">
        <ele>1878.9</ele>
        <time>2022-07-14T09:50:47+0200</time>
      </trkpt>
      <trkpt lat="44.92533" lon="6.56791">
        <ele>1878.5</ele>
        <time>2022-07-14T09:50:49+0200</time>
      </trkpt>
      <trkpt lat="44.92538" lon="6.56788">
        <ele>1878</ele>
        <time>2022-07-14T09:50:50+0200</time>
      </trkpt>
      <trkpt lat="44.92546" lon="6.56782">
        <ele>1877.3</ele>
        <time>2022-07-14T09:50:52+0200</time>
      </trkpt>
      <trkpt lat="44.92547" lon="6.56774">
        <ele>1878.6</ele>
        <time>2022-07-14T09:50:55+0200</time>
      </trkpt>
      <trkpt lat="44.92552" lon="6.5677">
        <ele>1878.2</ele>
        <time>2022-07-14T09:51:03+0200</time>
      </trkpt>
      <trkpt lat="44.92553" lon="6.56777">
        <ele>1876.7</ele>
        <time>2022-07-14T09:51:06+0200</time>
      </trkpt>
      <trkpt lat="44.92556" lon="6.56784">
        <ele>1874.6</ele>
        <time>2022-07-14T09:51:09+0200</time>
      </trkpt>
      <trkpt lat="44.92564" lon="6.56788">
        <ele>1872.2</ele>
        <time>2022-07-14T09:51:11+0200</time>
      </trkpt>
      <trkpt lat="44.9257" lon="6.56792">
        <ele>1870.2</ele>
        <time>2022-07-14T09:51:14+0200</time>
      </trkpt>
      <trkpt lat="44.92579" lon="6.56796">
        <ele>1867.2</ele>
        <time>2022-07-14T09:51:16+0200</time>
      </trkpt>
      <trkpt lat="44.92586" lon="6.56797">
        <ele>1865.6</ele>
        <time>2022-07-14T09:51:17+0200</time>
      </trkpt>
      <trkpt lat="44.92593" lon="6.56797">
        <ele>1864.4</ele>
        <time>2022-07-14T09:51:18+0200</time>
      </trkpt>
      <trkpt lat="44.92601" lon="6.568">
        <ele>1862.3</ele>
        <time>2022-07-14T09:51:19+0200</time>
      </trkpt>
      <trkpt lat="44.92608" lon="6.56802">
        <ele>1860.6</ele>
        <time>2022-07-14T09:51:20+0200</time>
      </trkpt>
      <trkpt lat="44.92614" lon="6.56802">
        <ele>1859.7</ele>
        <time>2022-07-14T09:51:21+0200</time>
      </trkpt>
      <trkpt lat="44.92618" lon="6.56797">
        <ele>1860.6</ele>
        <time>2022-07-14T09:51:23+0200</time>
      </trkpt>
      <trkpt lat="44.92624" lon="6.56797">
        <ele>1860.2</ele>
        <time>2022-07-14T09:51:27+0200</time>
      </trkpt>
      <trkpt lat="44.92628" lon="6.56797">
        <ele>1859.7</ele>
        <time>2022-07-14T09:51:34+0200</time>
      </trkpt>
      <trkpt lat="44.92632" lon="6.56802">
        <ele>1858.4</ele>
        <time>2022-07-14T09:52:07+0200</time>
      </trkpt>
      <trkpt lat="44.92635" lon="6.56797">
        <ele>1859.2</ele>
        <time>2022-07-14T09:52:36+0200</time>
      </trkpt>
      <trkpt lat="44.92641" lon="6.56796">
        <ele>1858.8</ele>
        <time>2022-07-14T09:52:39+0200</time>
      </trkpt>
      <trkpt lat="44.92648" lon="6.56793">
        <ele>1858.5</ele>
        <time>2022-07-14T09:52:41+0200</time>
      </trkpt>
      <trkpt lat="44.92655" lon="6.5679">
        <ele>1858.3</ele>
        <time>2022-07-14T09:52:43+0200</time>
      </trkpt>
      <trkpt lat="44.9266" lon="6.56791">
        <ele>1857.6</ele>
        <time>2022-07-14T09:52:44+0200</time>
      </trkpt>
      <trkpt lat="44.92666" lon="6.56793">
        <ele>1856.3</ele>
        <time>2022-07-14T09:52:45+0200</time>
      </trkpt>
      <trkpt lat="44.92673" lon="6.56789">
        <ele>1855.8</ele>
        <time>2022-07-14T09:52:46+0200</time>
      </trkpt>
      <trkpt lat="44.92678" lon="6.56784">
        <ele>1855.8</ele>
        <time>2022-07-14T09:52:47+0200</time>
      </trkpt>
      <trkpt lat="44.92684" lon="6.56783">
        <ele>1854.8</ele>
        <time>2022-07-14T09:52:48+0200</time>
      </trkpt>
      <trkpt lat="44.92688" lon="6.56786">
        <ele>1853.5</ele>
        <time>2022-07-14T09:52:49+0200</time>
      </trkpt>
      <trkpt lat="44.92693" lon="6.56786">
        <ele>1852.6</ele>
        <time>2022-07-14T09:52:50+0200</time>
      </trkpt>
      <trkpt lat="44.92699" lon="6.56783">
        <ele>1851.8</ele>
        <time>2022-07-14T09:52:52+0200</time>
      </trkpt>
      <trkpt lat="44.92703" lon="6.56778">
        <ele>1851.9</ele>
        <time>2022-07-14T09:52:54+0200</time>
      </trkpt>
      <trkpt lat="44.92709" lon="6.56771">
        <ele>1851.7</ele>
        <time>2022-07-14T09:52:56+0200</time>
      </trkpt>
      <trkpt lat="44.92715" lon="6.56764">
        <ele>1851.4</ele>
        <time>2022-07-14T09:52:58+0200</time>
      </trkpt>
      <trkpt lat="44.92721" lon="6.56754">
        <ele>1851.7</ele>
        <time>2022-07-14T09:53:00+0200</time>
      </trkpt>
      <trkpt lat="44.92726" lon="6.56748">
        <ele>1851.3</ele>
        <time>2022-07-14T09:53:02+0200</time>
      </trkpt>
      <trkpt lat="44.92729" lon="6.56742">
        <ele>1851.3</ele>
        <time>2022-07-14T09:53:03+0200</time>
      </trkpt>
      <trkpt lat="44.92732" lon="6.56733">
        <ele>1851.7</ele>
        <time>2022-07-14T09:53:05+0200</time>
      </trkpt>
      <trkpt lat="44.92736" lon="6.56728">
        <ele>1850.9</ele>
        <time>2022-07-14T09:53:07+0200</time>
      </trkpt>
      <trkpt lat="44.92741" lon="6.56725">
        <ele>1849.5</ele>
        <time>2022-07-14T09:53:09+0200</time>
      </trkpt>
      <trkpt lat="44.92743" lon="6.56717">
        <ele>1850.1</ele>
        <time>2022-07-14T09:53:13+0200</time>
      </trkpt>
      <trkpt lat="44.92747" lon="6.56725">
        <ele>1846.9</ele>
        <time>2022-07-14T09:53:17+0200</time>
      </trkpt>
      <trkpt lat="44.92755" lon="6.56725">
        <ele>1843.7</ele>
        <time>2022-07-14T09:53:18+0200</time>
      </trkpt>
      <trkpt lat="44.92762" lon="6.56723">
        <ele>1841.1</ele>
        <time>2022-07-14T09:53:19+0200</time>
      </trkpt>
      <trkpt lat="44.92766" lon="6.56717">
        <ele>1840.6</ele>
        <time>2022-07-14T09:53:20+0200</time>
      </trkpt>
      <trkpt lat="44.92767" lon="6.56708">
        <ele>1841</ele>
        <time>2022-07-14T09:53:21+0200</time>
      </trkpt>
      <trkpt lat="44.92771" lon="6.56702">
        <ele>1840.3</ele>
        <time>2022-07-14T09:53:23+0200</time>
      </trkpt>
      <trkpt lat="44.92776" lon="6.56703">
        <ele>1837.8</ele>
        <time>2022-07-14T09:53:27+0200</time>
      </trkpt>
      <trkpt lat="44.92779" lon="6.56715">
        <ele>1835.3</ele>
        <time>2022-07-14T09:53:30+0200</time>
      </trkpt>
      <trkpt lat="44.92781" lon="6.56722">
        <ele>1833.7</ele>
        <time>2022-07-14T09:53:31+0200</time>
      </trkpt>
      <trkpt lat="44.92784" lon="6.5673">
        <ele>1832.1</ele>
        <time>2022-07-14T09:53:33+0200</time>
      </trkpt>
      <trkpt lat="44.92791" lon="6.56728">
        <ele>1829.4</ele>
        <time>2022-07-14T09:53:35+0200</time>
      </trkpt>
      <trkpt lat="44.92801" lon="6.56724">
        <ele>1826.6</ele>
        <time>2022-07-14T09:53:36+0200</time>
      </trkpt>
      <trkpt lat="44.9281" lon="6.56722">
        <ele>1823.6</ele>
        <time>2022-07-14T09:53:37+0200</time>
      </trkpt>
      <trkpt lat="44.92814" lon="6.56717">
        <ele>1822.7</ele>
        <time>2022-07-14T09:53:38+0200</time>
      </trkpt>
      <trkpt lat="44.92815" lon="6.56711">
        <ele>1822.9</ele>
        <time>2022-07-14T09:53:39+0200</time>
      </trkpt>
      <trkpt lat="44.92817" lon="6.56704">
        <ele>1822.9</ele>
        <time>2022-07-14T09:53:41+0200</time>
      </trkpt>
      <trkpt lat="44.92821" lon="6.56698">
        <ele>1821.9</ele>
        <time>2022-07-14T09:53:43+0200</time>
      </trkpt>
      <trkpt lat="44.92825" lon="6.56689">
        <ele>1821.7</ele>
        <time>2022-07-14T09:53:45+0200</time>
      </trkpt>
      <trkpt lat="44.92828" lon="6.56681">
        <ele>1821.6</ele>
        <time>2022-07-14T09:53:47+0200</time>
      </trkpt>
      <trkpt lat="44.92831" lon="6.56672">
        <ele>1821.4</ele>
        <time>2022-07-14T09:53:49+0200</time>
      </trkpt>
      <trkpt lat="44.92834" lon="6.56664">
        <ele>1821</ele>
        <time>2022-07-14T09:53:56+0200</time>
      </trkpt>
      <trkpt lat="44.92839" lon="6.56657">
        <ele>1820.1</ele>
        <time>2022-07-14T09:53:58+0200</time>
      </trkpt>
      <trkpt lat="44.92843" lon="6.56648">
        <ele>1819.5</ele>
        <time>2022-07-14T09:54:00+0200</time>
      </trkpt>
      <trkpt lat="44.92849" lon="6.56639">
        <ele>1818.2</ele>
        <time>2022-07-14T09:54:02+0200</time>
      </trkpt>
      <trkpt lat="44.92852" lon="6.56631">
        <ele>1818</ele>
        <time>2022-07-14T09:54:04+0200</time>
      </trkpt>
      <trkpt lat="44.92858" lon="6.56627">
        <ele>1816.4</ele>
        <time>2022-07-14T09:54:06+0200</time>
      </trkpt>
      <trkpt lat="44.92862" lon="6.56624">
        <ele>1815.3</ele>
        <time>2022-07-14T09:54:07+0200</time>
      </trkpt>
      <trkpt lat="44.92867" lon="6.56617">
        <ele>1814.4</ele>
        <time>2022-07-14T09:54:08+0200</time>
      </trkpt>
      <trkpt lat="44.92872" lon="6.56606">
        <ele>1813.8</ele>
        <time>2022-07-14T09:54:09+0200</time>
      </trkpt>
      <trkpt lat="44.92875" lon="6.56594">
        <ele>1814.2</ele>
        <time>2022-07-14T09:54:10+0200</time>
      </trkpt>
      <trkpt lat="44.92878" lon="6.56587">
        <ele>1814.1</ele>
        <time>2022-07-14T09:54:11+0200</time>
      </trkpt>
      <trkpt lat="44.92881" lon="6.56582">
        <ele>1813.7</ele>
        <time>2022-07-14T09:54:12+0200</time>
      </trkpt>
      <trkpt lat="44.92885" lon="6.56574">
        <ele>1813.1</ele>
        <time>2022-07-14T09:54:13+0200</time>
      </trkpt>
      <trkpt lat="44.92889" lon="6.56566">
        <ele>1812.9</ele>
        <time>2022-07-14T09:54:14+0200</time>
      </trkpt>
      <trkpt lat="44.92897" lon="6.56562">
        <ele>1810.3</ele>
        <time>2022-07-14T09:54:16+0200</time>
      </trkpt>
      <trkpt lat="44.92903" lon="6.56556">
        <ele>1809</ele>
        <time>2022-07-14T09:54:17+0200</time>
      </trkpt>
      <trkpt lat="44.92906" lon="6.56549">
        <ele>1808.8</ele>
        <time>2022-07-14T09:54:18+0200</time>
      </trkpt>
      <trkpt lat="44.92908" lon="6.56542">
        <ele>1809.1</ele>
        <time>2022-07-14T09:54:20+0200</time>
      </trkpt>
      <trkpt lat="44.92914" lon="6.56536">
        <ele>1807.9</ele>
        <time>2022-07-14T09:54:22+0200</time>
      </trkpt>
      <trkpt lat="44.92918" lon="6.56532">
        <ele>1806.9</ele>
        <time>2022-07-14T09:54:24+0200</time>
      </trkpt>
      <trkpt lat="44.92923" lon="6.56529">
        <ele>1805.7</ele>
        <time>2022-07-14T09:54:25+0200</time>
      </trkpt>
      <trkpt lat="44.92929" lon="6.56521">
        <ele>1804.2</ele>
        <time>2022-07-14T09:54:27+0200</time>
      </trkpt>
      <trkpt lat="44.92933" lon="6.56515">
        <ele>1803.6</ele>
        <time>2022-07-14T09:54:28+0200</time>
      </trkpt>
      <trkpt lat="44.92937" lon="6.56511">
        <ele>1802.6</ele>
        <time>2022-07-14T09:54:29+0200</time>
      </trkpt>
      <trkpt lat="44.9294" lon="6.56506">
        <ele>1802</ele>
        <time>2022-07-14T09:54:30+0200</time>
      </trkpt>
      <trkpt lat="44.92944" lon="6.56496">
        <ele>1801.4</ele>
        <time>2022-07-14T09:54:31+0200</time>
      </trkpt>
      <trkpt lat="44.92949" lon="6.56488">
        <ele>1800.4</ele>
        <time>2022-07-14T09:54:32+0200</time>
      </trkpt>
      <trkpt lat="44.92953" lon="6.56478">
        <ele>1799.5</ele>
        <time>2022-07-14T09:54:33+0200</time>
      </trkpt>
      <trkpt lat="44.92955" lon="6.56467">
        <ele>1799.1</ele>
        <time>2022-07-14T09:54:34+0200</time>
      </trkpt>
      <trkpt lat="44.9296" lon="6.56459">
        <ele>1798.1</ele>
        <time>2022-07-14T09:54:35+0200</time>
      </trkpt>
      <trkpt lat="44.92964" lon="6.56447">
        <ele>1797.3</ele>
        <time>2022-07-14T09:54:36+0200</time>
      </trkpt>
      <trkpt lat="44.92968" lon="6.56439">
        <ele>1796.4</ele>
        <time>2022-07-14T09:54:38+0200</time>
      </trkpt>
      <trkpt lat="44.9297" lon="6.56431">
        <ele>1796.1</ele>
        <time>2022-07-14T09:54:40+0200</time>
      </trkpt>
      <trkpt lat="44.92975" lon="6.56424">
        <ele>1794.1</ele>
        <time>2022-07-14T09:54:42+0200</time>
      </trkpt>
      <trkpt lat="44.92978" lon="6.56418">
        <ele>1793.4</ele>
        <time>2022-07-14T09:54:43+0200</time>
      </trkpt>
      <trkpt lat="44.92981" lon="6.56412">
        <ele>1792.6</ele>
        <time>2022-07-14T09:54:44+0200</time>
      </trkpt>
      <trkpt lat="44.92984" lon="6.56406">
        <ele>1791.5</ele>
        <time>2022-07-14T09:54:45+0200</time>
      </trkpt>
      <trkpt lat="44.92986" lon="6.564">
        <ele>1790.5</ele>
        <time>2022-07-14T09:54:46+0200</time>
      </trkpt>
      <trkpt lat="44.9299" lon="6.56394">
        <ele>1789.1</ele>
        <time>2022-07-14T09:54:47+0200</time>
      </trkpt>
      <trkpt lat="44.92992" lon="6.56388">
        <ele>1787.9</ele>
        <time>2022-07-14T09:54:48+0200</time>
      </trkpt>
      <trkpt lat="44.92996" lon="6.56381">
        <ele>1786.2</ele>
        <time>2022-07-14T09:54:50+0200</time>
      </trkpt>
      <trkpt lat="44.93001" lon="6.56377">
        <ele>1783.8</ele>
        <time>2022-07-14T09:54:51+0200</time>
      </trkpt>
      <trkpt lat="44.93005" lon="6.56372">
        <ele>1782</ele>
        <time>2022-07-14T09:54:52+0200</time>
      </trkpt>
      <trkpt lat="44.93005" lon="6.56365">
        <ele>1782</ele>
        <time>2022-07-14T09:54:53+0200</time>
      </trkpt>
      <trkpt lat="44.93001" lon="6.56359">
        <ele>1783.5</ele>
        <time>2022-07-14T09:54:54+0200</time>
      </trkpt>
      <trkpt lat="44.93005" lon="6.56348">
        <ele>1781.4</ele>
        <time>2022-07-14T09:54:56+0200</time>
      </trkpt>
      <trkpt lat="44.9301" lon="6.56342">
        <ele>1779.1</ele>
        <time>2022-07-14T09:54:58+0200</time>
      </trkpt>
      <trkpt lat="44.93014" lon="6.56334">
        <ele>1776.8</ele>
        <time>2022-07-14T09:54:59+0200</time>
      </trkpt>
      <trkpt lat="44.93014" lon="6.56322">
        <ele>1776.7</ele>
        <time>2022-07-14T09:55:00+0200</time>
      </trkpt>
      <trkpt lat="44.93014" lon="6.56313">
        <ele>1776.8</ele>
        <time>2022-07-14T09:55:01+0200</time>
      </trkpt>
      <trkpt lat="44.93014" lon="6.56305">
        <ele>1776.4</ele>
        <time>2022-07-14T09:55:02+0200</time>
      </trkpt>
      <trkpt lat="44.93017" lon="6.56296">
        <ele>1775.4</ele>
        <time>2022-07-14T09:55:04+0200</time>
      </trkpt>
      <trkpt lat="44.93014" lon="6.56289">
        <ele>1776.8</ele>
        <time>2022-07-14T09:55:08+0200</time>
      </trkpt>
      <trkpt lat="44.9301" lon="6.56284">
        <ele>1778.6</ele>
        <time>2022-07-14T09:55:13+0200</time>
      </trkpt>
      <trkpt lat="44.93012" lon="6.56278">
        <ele>1777.7</ele>
        <time>2022-07-14T09:55:18+0200</time>
      </trkpt>
      <trkpt lat="44.93016" lon="6.56274">
        <ele>1776</ele>
        <time>2022-07-14T09:55:33+0200</time>
      </trkpt>
      <trkpt lat="44.93021" lon="6.56277">
        <ele>1773.8</ele>
        <time>2022-07-14T09:55:55+0200</time>
      </trkpt>
      <trkpt lat="44.93026" lon="6.56279">
        <ele>1771.9</ele>
        <time>2022-07-14T09:55:57+0200</time>
      </trkpt>
      <trkpt lat="44.9303" lon="6.56281">
        <ele>1770</ele>
        <time>2022-07-14T09:55:59+0200</time>
      </trkpt>
      <trkpt lat="44.93033" lon="6.56275">
        <ele>1768.8</ele>
        <time>2022-07-14T09:56:04+0200</time>
      </trkpt>
      <trkpt lat="44.93038" lon="6.56274">
        <ele>1767</ele>
        <time>2022-07-14T09:56:06+0200</time>
      </trkpt>
      <trkpt lat="44.9304" lon="6.56264">
        <ele>1766.3</ele>
        <time>2022-07-14T09:56:09+0200</time>
      </trkpt>
      <trkpt lat="44.93044" lon="6.56257">
        <ele>1765.1</ele>
        <time>2022-07-14T09:56:11+0200</time>
      </trkpt>
      <trkpt lat="44.9305" lon="6.56259">
        <ele>1762.9</ele>
        <time>2022-07-14T09:56:16+0200</time>
      </trkpt>
      <trkpt lat="44.93056" lon="6.56264">
        <ele>1760.2</ele>
        <time>2022-07-14T09:56:19+0200</time>
      </trkpt>
      <trkpt lat="44.93061" lon="6.56268">
        <ele>1758.6</ele>
        <time>2022-07-14T09:56:20+0200</time>
      </trkpt>
      <trkpt lat="44.93066" lon="6.56268">
        <ele>1756.6</ele>
        <time>2022-07-14T09:56:22+0200</time>
      </trkpt>
      <trkpt lat="44.9307" lon="6.56258">
        <ele>1756</ele>
        <time>2022-07-14T09:56:24+0200</time>
      </trkpt>
      <trkpt lat="44.93076" lon="6.56264">
        <ele>1753.7</ele>
        <time>2022-07-14T09:56:26+0200</time>
      </trkpt>
      <trkpt lat="44.93082" lon="6.56264">
        <ele>1751.3</ele>
        <time>2022-07-14T09:56:27+0200</time>
      </trkpt>
      <trkpt lat="44.9309" lon="6.56256">
        <ele>1750</ele>
        <time>2022-07-14T09:56:28+0200</time>
      </trkpt>
      <trkpt lat="44.93096" lon="6.5625">
        <ele>1748.9</ele>
        <time>2022-07-14T09:56:29+0200</time>
      </trkpt>
      <trkpt lat="44.93101" lon="6.56242">
        <ele>1748</ele>
        <time>2022-07-14T09:56:30+0200</time>
      </trkpt>
      <trkpt lat="44.93107" lon="6.56236">
        <ele>1747.1</ele>
        <time>2022-07-14T09:56:31+0200</time>
      </trkpt>
      <trkpt lat="44.93112" lon="6.56232">
        <ele>1746.1</ele>
        <time>2022-07-14T09:56:32+0200</time>
      </trkpt>
      <trkpt lat="44.93114" lon="6.56225">
        <ele>1746.2</ele>
        <time>2022-07-14T09:56:40+0200</time>
      </trkpt>
      <trkpt lat="44.93115" lon="6.56218">
        <ele>1746.5</ele>
        <time>2022-07-14T09:56:45+0200</time>
      </trkpt>
      <trkpt lat="44.93116" lon="6.56211">
        <ele>1746.9</ele>
        <time>2022-07-14T09:56:51+0200</time>
      </trkpt>
      <trkpt lat="44.93116" lon="6.56204">
        <ele>1747.2</ele>
        <time>2022-07-14T09:56:57+0200</time>
      </trkpt>
      <trkpt lat="44.93121" lon="6.56202">
        <ele>1746.4</ele>
        <time>2022-07-14T09:57:21+0200</time>
      </trkpt>
      <trkpt lat="44.93126" lon="6.56202">
        <ele>1745.3</ele>
        <time>2022-07-14T09:57:24+0200</time>
      </trkpt>
      <trkpt lat="44.93131" lon="6.562">
        <ele>1744.3</ele>
        <time>2022-07-14T09:57:26+0200</time>
      </trkpt>
      <trkpt lat="44.93135" lon="6.56189">
        <ele>1744.2</ele>
        <time>2022-07-14T09:57:28+0200</time>
      </trkpt>
      <trkpt lat="44.9314" lon="6.56185">
        <ele>1743.4</ele>
        <time>2022-07-14T09:57:29+0200</time>
      </trkpt>
      <trkpt lat="44.93144" lon="6.5618">
        <ele>1742.8</ele>
        <time>2022-07-14T09:57:30+0200</time>
      </trkpt>
      <trkpt lat="44.93146" lon="6.5617">
        <ele>1743</ele>
        <time>2022-07-14T09:57:32+0200</time>
      </trkpt>
      <trkpt lat="44.9315" lon="6.56174">
        <ele>1741.8</ele>
        <time>2022-07-14T09:57:37+0200</time>
      </trkpt>
      <trkpt lat="44.93154" lon="6.56165">
        <ele>1741.3</ele>
        <time>2022-07-14T09:57:39+0200</time>
      </trkpt>
      <trkpt lat="44.93158" lon="6.56156">
        <ele>1740.3</ele>
        <time>2022-07-14T09:57:41+0200</time>
      </trkpt>
      <trkpt lat="44.93163" lon="6.56147">
        <ele>1739</ele>
        <time>2022-07-14T09:57:43+0200</time>
      </trkpt>
      <trkpt lat="44.93168" lon="6.56143">
        <ele>1737.6</ele>
        <time>2022-07-14T09:57:44+0200</time>
      </trkpt>
      <trkpt lat="44.93172" lon="6.56139">
        <ele>1736.4</ele>
        <time>2022-07-14T09:57:46+0200</time>
      </trkpt>
      <trkpt lat="44.93183" lon="6.56134">
        <ele>1733.1</ele>
        <time>2022-07-14T09:57:49+0200</time>
      </trkpt>
      <trkpt lat="44.93189" lon="6.56131">
        <ele>1731.3</ele>
        <time>2022-07-14T09:57:50+0200</time>
      </trkpt>
      <trkpt lat="44.93195" lon="6.56124">
        <ele>1729.4</ele>
        <time>2022-07-14T09:57:53+0200</time>
      </trkpt>
      <trkpt lat="44.93197" lon="6.56118">
        <ele>1728.5</ele>
        <time>2022-07-14T09:57:55+0200</time>
      </trkpt>
      <trkpt lat="44.93201" lon="6.56114">
        <ele>1727.4</ele>
        <time>2022-07-14T09:57:57+0200</time>
      </trkpt>
      <trkpt lat="44.93204" lon="6.56109">
        <ele>1725.9</ele>
        <time>2022-07-14T09:57:59+0200</time>
      </trkpt>
      <trkpt lat="44.9321" lon="6.56107">
        <ele>1724.1</ele>
        <time>2022-07-14T09:58:02+0200</time>
      </trkpt>
      <trkpt lat="44.93213" lon="6.56099">
        <ele>1722.2</ele>
        <time>2022-07-14T09:58:06+0200</time>
      </trkpt>
      <trkpt lat="44.93216" lon="6.56092">
        <ele>1720.7</ele>
        <time>2022-07-14T09:58:09+0200</time>
      </trkpt>
      <trkpt lat="44.93218" lon="6.56085">
        <ele>1719.4</ele>
        <time>2022-07-14T09:58:14+0200</time>
      </trkpt>
      <trkpt lat="44.93223" lon="6.56088">
        <ele>1718.2</ele>
        <time>2022-07-14T09:58:19+0200</time>
      </trkpt>
      <trkpt lat="44.93228" lon="6.56089">
        <ele>1716.9</ele>
        <time>2022-07-14T09:58:20+0200</time>
      </trkpt>
      <trkpt lat="44.93233" lon="6.56098">
        <ele>1716.5</ele>
        <time>2022-07-14T09:58:22+0200</time>
      </trkpt>
      <trkpt lat="44.93232" lon="6.56105">
        <ele>1717.4</ele>
        <time>2022-07-14T09:58:23+0200</time>
      </trkpt>
      <trkpt lat="44.93237" lon="6.56113">
        <ele>1716.8</ele>
        <time>2022-07-14T09:58:25+0200</time>
      </trkpt>
      <trkpt lat="44.93244" lon="6.56111">
        <ele>1714.7</ele>
        <time>2022-07-14T09:58:27+0200</time>
      </trkpt>
      <trkpt lat="44.93252" lon="6.56117">
        <ele>1712.5</ele>
        <time>2022-07-14T09:58:29+0200</time>
      </trkpt>
      <trkpt lat="44.93257" lon="6.56119">
        <ele>1711</ele>
        <time>2022-07-14T09:58:30+0200</time>
      </trkpt>
      <trkpt lat="44.93266" lon="6.56125">
        <ele>1708.4</ele>
        <time>2022-07-14T09:58:32+0200</time>
      </trkpt>
      <trkpt lat="44.93271" lon="6.56134">
        <ele>1707.2</ele>
        <time>2022-07-14T09:58:33+0200</time>
      </trkpt>
      <trkpt lat="44.93274" lon="6.5614">
        <ele>1706.3</ele>
        <time>2022-07-14T09:58:34+0200</time>
      </trkpt>
      <trkpt lat="44.93279" lon="6.56144">
        <ele>1704.9</ele>
        <time>2022-07-14T09:58:35+0200</time>
      </trkpt>
      <trkpt lat="44.93284" lon="6.56142">
        <ele>1703.1</ele>
        <time>2022-07-14T09:58:37+0200</time>
      </trkpt>
      <trkpt lat="44.93292" lon="6.56142">
        <ele>1700.4</ele>
        <time>2022-07-14T09:58:39+0200</time>
      </trkpt>
      <trkpt lat="44.93298" lon="6.56144">
        <ele>1698.8</ele>
        <time>2022-07-14T09:58:40+0200</time>
      </trkpt>
      <trkpt lat="44.93302" lon="6.56145">
        <ele>1697.4</ele>
        <time>2022-07-14T09:58:41+0200</time>
      </trkpt>
      <trkpt lat="44.93304" lon="6.56139">
        <ele>1696.4</ele>
        <time>2022-07-14T09:58:42+0200</time>
      </trkpt>
      <trkpt lat="44.933" lon="6.56134">
        <ele>1697.4</ele>
        <time>2022-07-14T09:58:44+0200</time>
      </trkpt>
      <trkpt lat="44.933" lon="6.56126">
        <ele>1696.9</ele>
        <time>2022-07-14T09:58:45+0200</time>
      </trkpt>
      <trkpt lat="44.93308" lon="6.56123">
        <ele>1693.9</ele>
        <time>2022-07-14T09:58:47+0200</time>
      </trkpt>
      <trkpt lat="44.93312" lon="6.56126">
        <ele>1692.5</ele>
        <time>2022-07-14T09:58:48+0200</time>
      </trkpt>
      <trkpt lat="44.93315" lon="6.56117">
        <ele>1690.9</ele>
        <time>2022-07-14T09:58:50+0200</time>
      </trkpt>
      <trkpt lat="44.93319" lon="6.56112">
        <ele>1688.7</ele>
        <time>2022-07-14T09:58:52+0200</time>
      </trkpt>
      <trkpt lat="44.93323" lon="6.56119">
        <ele>1687.8</ele>
        <time>2022-07-14T09:58:54+0200</time>
      </trkpt>
      <trkpt lat="44.93328" lon="6.56124">
        <ele>1686.2</ele>
        <time>2022-07-14T09:58:56+0200</time>
      </trkpt>
      <trkpt lat="44.93329" lon="6.56117">
        <ele>1685</ele>
        <time>2022-07-14T09:58:58+0200</time>
      </trkpt>
      <trkpt lat="44.93334" lon="6.56124">
        <ele>1683.7</ele>
        <time>2022-07-14T09:59:02+0200</time>
      </trkpt>
      <trkpt lat="44.93336" lon="6.5613">
        <ele>1683.1</ele>
        <time>2022-07-14T09:59:04+0200</time>
      </trkpt>
      <trkpt lat="44.93343" lon="6.56137">
        <ele>1680.9</ele>
        <time>2022-07-14T09:59:08+0200</time>
      </trkpt>
      <trkpt lat="44.93343" lon="6.56144">
        <ele>1681.3</ele>
        <time>2022-07-14T09:59:10+0200</time>
      </trkpt>
      <trkpt lat="44.93348" lon="6.5615">
        <ele>1679.9</ele>
        <time>2022-07-14T09:59:13+0200</time>
      </trkpt>
      <trkpt lat="44.93353" lon="6.56155">
        <ele>1678.2</ele>
        <time>2022-07-14T09:59:14+0200</time>
      </trkpt>
      <trkpt lat="44.93358" lon="6.56161">
        <ele>1676.7</ele>
        <time>2022-07-14T09:59:15+0200</time>
      </trkpt>
      <trkpt lat="44.93363" lon="6.56164">
        <ele>1675.1</ele>
        <time>2022-07-14T09:59:16+0200</time>
      </trkpt>
      <trkpt lat="44.93366" lon="6.56169">
        <ele>1674.3</ele>
        <time>2022-07-14T09:59:17+0200</time>
      </trkpt>
      <trkpt lat="44.93368" lon="6.56177">
        <ele>1673.7</ele>
        <time>2022-07-14T09:59:19+0200</time>
      </trkpt>
      <trkpt lat="44.93375" lon="6.56185">
        <ele>1671.6</ele>
        <time>2022-07-14T09:59:21+0200</time>
      </trkpt>
      <trkpt lat="44.93381" lon="6.56188">
        <ele>1669.3</ele>
        <time>2022-07-14T09:59:22+0200</time>
      </trkpt>
      <trkpt lat="44.93387" lon="6.56194">
        <ele>1667.5</ele>
        <time>2022-07-14T09:59:24+0200</time>
      </trkpt>
      <trkpt lat="44.93393" lon="6.56201">
        <ele>1666.1</ele>
        <time>2022-07-14T09:59:25+0200</time>
      </trkpt>
      <trkpt lat="44.93393" lon="6.56211">
        <ele>1666.4</ele>
        <time>2022-07-14T09:59:26+0200</time>
      </trkpt>
      <trkpt lat="44.93389" lon="6.56219">
        <ele>1667.9</ele>
        <time>2022-07-14T09:59:27+0200</time>
      </trkpt>
      <trkpt lat="44.93386" lon="6.56225">
        <ele>1669.3</ele>
        <time>2022-07-14T09:59:27+0200</time>
      </trkpt>
      <trkpt lat="44.93391" lon="6.56234">
        <ele>1667.8</ele>
        <time>2022-07-14T09:59:28+0200</time>
      </trkpt>
      <trkpt lat="44.934" lon="6.56243">
        <ele>1665.3</ele>
        <time>2022-07-14T09:59:29+0200</time>
      </trkpt>
      <trkpt lat="44.93408" lon="6.56248">
        <ele>1662.8</ele>
        <time>2022-07-14T09:59:30+0200</time>
      </trkpt>
      <trkpt lat="44.93413" lon="6.56252">
        <ele>1661.2</ele>
        <time>2022-07-14T09:59:31+0200</time>
      </trkpt>
      <trkpt lat="44.93416" lon="6.5626">
        <ele>1660.3</ele>
        <time>2022-07-14T09:59:32+0200</time>
      </trkpt>
      <trkpt lat="44.93416" lon="6.56271">
        <ele>1660.3</ele>
        <time>2022-07-14T09:59:33+0200</time>
      </trkpt>
      <trkpt lat="44.93414" lon="6.56281">
        <ele>1661</ele>
        <time>2022-07-14T09:59:34+0200</time>
      </trkpt>
      <trkpt lat="44.93414" lon="6.56289">
        <ele>1661.1</ele>
        <time>2022-07-14T09:59:35+0200</time>
      </trkpt>
      <trkpt lat="44.93413" lon="6.56297">
        <ele>1661.3</ele>
        <time>2022-07-14T09:59:36+0200</time>
      </trkpt>
      <trkpt lat="44.93413" lon="6.56309">
        <ele>1661</ele>
        <time>2022-07-14T09:59:37+0200</time>
      </trkpt>
      <trkpt lat="44.93416" lon="6.56319">
        <ele>1659.8</ele>
        <time>2022-07-14T09:59:38+0200</time>
      </trkpt>
      <trkpt lat="44.9342" lon="6.56322">
        <ele>1658</ele>
        <time>2022-07-14T09:59:39+0200</time>
      </trkpt>
      <trkpt lat="44.93427" lon="6.56319">
        <ele>1655.5</ele>
        <time>2022-07-14T09:59:41+0200</time>
      </trkpt>
      <trkpt lat="44.93435" lon="6.56317">
        <ele>1652.4</ele>
        <time>2022-07-14T09:59:43+0200</time>
      </trkpt>
      <trkpt lat="44.9344" lon="6.56318">
        <ele>1650.5</ele>
        <time>2022-07-14T09:59:49+0200</time>
      </trkpt>
      <trkpt lat="44.93445" lon="6.56317">
        <ele>1648.5</ele>
        <time>2022-07-14T09:59:56+0200</time>
      </trkpt>
      <trkpt lat="44.93448" lon="6.56313">
        <ele>1647.1</ele>
        <time>2022-07-14T10:00:03+0200</time>
      </trkpt>
      <trkpt lat="44.93456" lon="6.56301">
        <ele>1644.8</ele>
        <time>2022-07-14T10:00:05+0200</time>
      </trkpt>
      <trkpt lat="44.93458" lon="6.56295">
        <ele>1643.9</ele>
        <time>2022-07-14T10:00:06+0200</time>
      </trkpt>
      <trkpt lat="44.93461" lon="6.56289">
        <ele>1642.9</ele>
        <time>2022-07-14T10:00:07+0200</time>
      </trkpt>
      <trkpt lat="44.93464" lon="6.56283">
        <ele>1642.1</ele>
        <time>2022-07-14T10:00:08+0200</time>
      </trkpt>
      <trkpt lat="44.93465" lon="6.56275">
        <ele>1642</ele>
        <time>2022-07-14T10:00:09+0200</time>
      </trkpt>
      <trkpt lat="44.93465" lon="6.56267">
        <ele>1641.7</ele>
        <time>2022-07-14T10:00:10+0200</time>
      </trkpt>
      <trkpt lat="44.93466" lon="6.5626">
        <ele>1641.6</ele>
        <time>2022-07-14T10:00:11+0200</time>
      </trkpt>
      <trkpt lat="44.93464" lon="6.56253">
        <ele>1642.2</ele>
        <time>2022-07-14T10:00:12+0200</time>
      </trkpt>
      <trkpt lat="44.93469" lon="6.56249">
        <ele>1640.1</ele>
        <time>2022-07-14T10:00:14+0200</time>
      </trkpt>
      <trkpt lat="44.93474" lon="6.56253">
        <ele>1638</ele>
        <time>2022-07-14T10:00:16+0200</time>
      </trkpt>
      <trkpt lat="44.93474" lon="6.56246">
        <ele>1638.4</ele>
        <time>2022-07-14T10:00:17+0200</time>
      </trkpt>
      <trkpt lat="44.9347" lon="6.5624">
        <ele>1639.7</ele>
        <time>2022-07-14T10:00:18+0200</time>
      </trkpt>
      <trkpt lat="44.9347" lon="6.56232">
        <ele>1639.9</ele>
        <time>2022-07-14T10:00:21+0200</time>
      </trkpt>
      <trkpt lat="44.93472" lon="6.56224">
        <ele>1639.3</ele>
        <time>2022-07-14T10:00:24+0200</time>
      </trkpt>
      <trkpt lat="44.93475" lon="6.56217">
        <ele>1637.3</ele>
        <time>2022-07-14T10:00:26+0200</time>
      </trkpt>
      <trkpt lat="44.93478" lon="6.56211">
        <ele>1636</ele>
        <time>2022-07-14T10:00:34+0200</time>
      </trkpt>
      <trkpt lat="44.9348" lon="6.5622">
        <ele>1635.3</ele>
        <time>2022-07-14T10:00:40+0200</time>
      </trkpt>
      <trkpt lat="44.93478" lon="6.56227">
        <ele>1636.1</ele>
        <time>2022-07-14T10:00:41+0200</time>
      </trkpt>
      <trkpt lat="44.93485" lon="6.56237">
        <ele>1632.9</ele>
        <time>2022-07-14T10:00:43+0200</time>
      </trkpt>
      <trkpt lat="44.9349" lon="6.56238">
        <ele>1630.5</ele>
        <time>2022-07-14T10:00:44+0200</time>
      </trkpt>
      <trkpt lat="44.93493" lon="6.56248">
        <ele>1629.5</ele>
        <time>2022-07-14T10:00:46+0200</time>
      </trkpt>
      <trkpt lat="44.93489" lon="6.56257">
        <ele>1631.1</ele>
        <time>2022-07-14T10:00:47+0200</time>
      </trkpt>
      <trkpt lat="44.93492" lon="6.56264">
        <ele>1629.7</ele>
        <time>2022-07-14T10:00:48+0200</time>
      </trkpt>
      <trkpt lat="44.93498" lon="6.56266">
        <ele>1626.9</ele>
        <time>2022-07-14T10:00:49+0200</time>
      </trkpt>
      <trkpt lat="44.93505" lon="6.5627">
        <ele>1623.3</ele>
        <time>2022-07-14T10:00:51+0200</time>
      </trkpt>
      <trkpt lat="44.93504" lon="6.56277">
        <ele>1623.8</ele>
        <time>2022-07-14T10:00:52+0200</time>
      </trkpt>
      <trkpt lat="44.93502" lon="6.56282">
        <ele>1624.7</ele>
        <time>2022-07-14T10:00:53+0200</time>
      </trkpt>
      <trkpt lat="44.93508" lon="6.56288">
        <ele>1621.5</ele>
        <time>2022-07-14T10:00:54+0200</time>
      </trkpt>
      <trkpt lat="44.93512" lon="6.5629">
        <ele>1618.9</ele>
        <time>2022-07-14T10:00:56+0200</time>
      </trkpt>
      <trkpt lat="44.93509" lon="6.56296">
        <ele>1620.5</ele>
        <time>2022-07-14T10:00:58+0200</time>
      </trkpt>
      <trkpt lat="44.9351" lon="6.56308">
        <ele>1619.3</ele>
        <time>2022-07-14T10:01:00+0200</time>
      </trkpt>
      <trkpt lat="44.93516" lon="6.56313">
        <ele>1615.3</ele>
        <time>2022-07-14T10:01:02+0200</time>
      </trkpt>
      <trkpt lat="44.9351" lon="6.56321">
        <ele>1617.8</ele>
        <time>2022-07-14T10:01:04+0200</time>
      </trkpt>
      <trkpt lat="44.93504" lon="6.56328">
        <ele>1620.2</ele>
        <time>2022-07-14T10:01:06+0200</time>
      </trkpt>
      <trkpt lat="44.93501" lon="6.56338">
        <ele>1620.9</ele>
        <time>2022-07-14T10:01:08+0200</time>
      </trkpt>
      <trkpt lat="44.93502" lon="6.56347">
        <ele>1619.2</ele>
        <time>2022-07-14T10:01:10+0200</time>
      </trkpt>
      <trkpt lat="44.93508" lon="6.56345">
        <ele>1616.4</ele>
        <time>2022-07-14T10:01:11+0200</time>
      </trkpt>
      <trkpt lat="44.93513" lon="6.56342">
        <ele>1613.8</ele>
        <time>2022-07-14T10:01:13+0200</time>
      </trkpt>
      <trkpt lat="44.93519" lon="6.56352">
        <ele>1609.3</ele>
        <time>2022-07-14T10:01:14+0200</time>
      </trkpt>
      <trkpt lat="44.93526" lon="6.56354">
        <ele>1605.1</ele>
        <time>2022-07-14T10:01:16+0200</time>
      </trkpt>
      <trkpt lat="44.93529" lon="6.56349">
        <ele>1603.8</ele>
        <time>2022-07-14T10:01:18+0200</time>
      </trkpt>
      <trkpt lat="44.93533" lon="6.56357">
        <ele>1600.2</ele>
        <time>2022-07-14T10:01:20+0200</time>
      </trkpt>
      <trkpt lat="44.93529" lon="6.56362">
        <ele>1602</ele>
        <time>2022-07-14T10:01:22+0200</time>
      </trkpt>
      <trkpt lat="44.93528" lon="6.56368">
        <ele>1602</ele>
        <time>2022-07-14T10:01:25+0200</time>
      </trkpt>
      <trkpt lat="44.93532" lon="6.56375">
        <ele>1597.9</ele>
        <time>2022-07-14T10:01:31+0200</time>
      </trkpt>
      <trkpt lat="44.93538" lon="6.56378">
        <ele>1594</ele>
        <time>2022-07-14T10:01:32+0200</time>
      </trkpt>
      <trkpt lat="44.93539" lon="6.56386">
        <ele>1592</ele>
        <time>2022-07-14T10:01:34+0200</time>
      </trkpt>
      <trkpt lat="44.93535" lon="6.5639">
        <ele>1593.6</ele>
        <time>2022-07-14T10:01:35+0200</time>
      </trkpt>
      <trkpt lat="44.93529" lon="6.56395">
        <ele>1595.8</ele>
        <time>2022-07-14T10:01:36+0200</time>
      </trkpt>
      <trkpt lat="44.93525" lon="6.564">
        <ele>1597.4</ele>
        <time>2022-07-14T10:01:37+0200</time>
      </trkpt>
      <trkpt lat="44.93522" lon="6.56405">
        <ele>1598.2</ele>
        <time>2022-07-14T10:01:39+0200</time>
      </trkpt>
      <trkpt lat="44.93519" lon="6.56412">
        <ele>1598.2</ele>
        <time>2022-07-14T10:01:41+0200</time>
      </trkpt>
      <trkpt lat="44.93525" lon="6.56413">
        <ele>1594.3</ele>
        <time>2022-07-14T10:01:43+0200</time>
      </trkpt>
      <trkpt lat="44.93533" lon="6.56414">
        <ele>1589.6</ele>
        <time>2022-07-14T10:01:46+0200</time>
      </trkpt>
      <trkpt lat="44.93539" lon="6.56411">
        <ele>1586.6</ele>
        <time>2022-07-14T10:01:48+0200</time>
      </trkpt>
      <trkpt lat="44.93543" lon="6.56408">
        <ele>1585</ele>
        <time>2022-07-14T10:01:49+0200</time>
      </trkpt>
      <trkpt lat="44.93548" lon="6.56401">
        <ele>1583.3</ele>
        <time>2022-07-14T10:01:51+0200</time>
      </trkpt>
      <trkpt lat="44.93558" lon="6.56395">
        <ele>1578.3</ele>
        <time>2022-07-14T10:01:53+0200</time>
      </trkpt>
      <trkpt lat="44.9356" lon="6.56387">
        <ele>1578.6</ele>
        <time>2022-07-14T10:01:55+0200</time>
      </trkpt>
      <trkpt lat="44.93564" lon="6.56379">
        <ele>1578.2</ele>
        <time>2022-07-14T10:01:56+0200</time>
      </trkpt>
      <trkpt lat="44.93567" lon="6.56373">
        <ele>1577.5</ele>
        <time>2022-07-14T10:01:57+0200</time>
      </trkpt>
      <trkpt lat="44.93572" lon="6.56375">
        <ele>1574.2</ele>
        <time>2022-07-14T10:01:58+0200</time>
      </trkpt>
      <trkpt lat="44.93579" lon="6.56376">
        <ele>1569.8</ele>
        <time>2022-07-14T10:02:00+0200</time>
      </trkpt>
      <trkpt lat="44.9358" lon="6.56364">
        <ele>1571.4</ele>
        <time>2022-07-14T10:02:02+0200</time>
      </trkpt>
      <trkpt lat="44.93581" lon="6.56357">
        <ele>1571.9</ele>
        <time>2022-07-14T10:02:03+0200</time>
      </trkpt>
      <trkpt lat="44.93584" lon="6.56351">
        <ele>1570.9</ele>
        <time>2022-07-14T10:02:04+0200</time>
      </trkpt>
      <trkpt lat="44.9359" lon="6.5635">
        <ele>1567.4</ele>
        <time>2022-07-14T10:02:06+0200</time>
      </trkpt>
      <trkpt lat="44.93594" lon="6.56341">
        <ele>1566.7</ele>
        <time>2022-07-14T10:02:08+0200</time>
      </trkpt>
      <trkpt lat="44.93595" lon="6.5633">
        <ele>1567.1</ele>
        <time>2022-07-14T10:02:10+0200</time>
      </trkpt>
      <trkpt lat="44.93601" lon="6.56318">
        <ele>1564.4</ele>
        <time>2022-07-14T10:02:12+0200</time>
      </trkpt>
      <trkpt lat="44.93604" lon="6.56311">
        <ele>1563</ele>
        <time>2022-07-14T10:02:13+0200</time>
      </trkpt>
      <trkpt lat="44.93603" lon="6.563">
        <ele>1564.3</ele>
        <time>2022-07-14T10:02:15+0200</time>
      </trkpt>
      <trkpt lat="44.93609" lon="6.56299">
        <ele>1560.9</ele>
        <time>2022-07-14T10:02:17+0200</time>
      </trkpt>
      <trkpt lat="44.93614" lon="6.56302">
        <ele>1557.6</ele>
        <time>2022-07-14T10:02:19+0200</time>
      </trkpt>
      <trkpt lat="44.9362" lon="6.56302">
        <ele>1554.6</ele>
        <time>2022-07-14T10:02:21+0200</time>
      </trkpt>
      <trkpt lat="44.93622" lon="6.56295">
        <ele>1554.1</ele>
        <time>2022-07-14T10:02:22+0200</time>
      </trkpt>
      <trkpt lat="44.9362" lon="6.56287">
        <ele>1555.5</ele>
        <time>2022-07-14T10:02:23+0200</time>
      </trkpt>
      <trkpt lat="44.93619" lon="6.56281">
        <ele>1556.5</ele>
        <time>2022-07-14T10:02:24+0200</time>
      </trkpt>
      <trkpt lat="44.93619" lon="6.56271">
        <ele>1556.7</ele>
        <time>2022-07-14T10:02:26+0200</time>
      </trkpt>
      <trkpt lat="44.93625" lon="6.56264">
        <ele>1553.8</ele>
        <time>2022-07-14T10:02:29+0200</time>
      </trkpt>
      <trkpt lat="44.93628" lon="6.56268">
        <ele>1551.7</ele>
        <time>2022-07-14T10:02:30+0200</time>
      </trkpt>
      <trkpt lat="44.93631" lon="6.56277">
        <ele>1550.3</ele>
        <time>2022-07-14T10:02:34+0200</time>
      </trkpt>
      <trkpt lat="44.93635" lon="6.56284">
        <ele>1547.8</ele>
        <time>2022-07-14T10:02:36+0200</time>
      </trkpt>
      <trkpt lat="44.93641" lon="6.5628">
        <ele>1545.1</ele>
        <time>2022-07-14T10:02:38+0200</time>
      </trkpt>
      <trkpt lat="44.93639" lon="6.5627">
        <ele>1546.2</ele>
        <time>2022-07-14T10:02:41+0200</time>
      </trkpt>
      <trkpt lat="44.93643" lon="6.56268">
        <ele>1544.2</ele>
        <time>2022-07-14T10:02:44+0200</time>
      </trkpt>
      <trkpt lat="44.93643" lon="6.56261">
        <ele>1544.4</ele>
        <time>2022-07-14T10:02:46+0200</time>
      </trkpt>
      <trkpt lat="44.93638" lon="6.56257">
        <ele>1546.7</ele>
        <time>2022-07-14T10:02:48+0200</time>
      </trkpt>
      <trkpt lat="44.93641" lon="6.56253">
        <ele>1544.9</ele>
        <time>2022-07-14T10:02:54+0200</time>
      </trkpt>
      <trkpt lat="44.93642" lon="6.56246">
        <ele>1544.2</ele>
        <time>2022-07-14T10:03:02+0200</time>
      </trkpt>
      <trkpt lat="44.93647" lon="6.56243">
        <ele>1542.1</ele>
        <time>2022-07-14T10:03:18+0200</time>
      </trkpt>
      <trkpt lat="44.93648" lon="6.56236">
        <ele>1541.1</ele>
        <time>2022-07-14T10:04:03+0200</time>
      </trkpt>
      <trkpt lat="44.93649" lon="6.56242">
        <ele>1541.1</ele>
        <time>2022-07-14T10:04:06+0200</time>
      </trkpt>
      <trkpt lat="44.93655" lon="6.56239">
        <ele>1538</ele>
        <time>2022-07-14T10:04:10+0200</time>
      </trkpt>
      <trkpt lat="44.93653" lon="6.56233">
        <ele>1538.7</ele>
        <time>2022-07-14T10:04:13+0200</time>
      </trkpt>
      <trkpt lat="44.93659" lon="6.56232">
        <ele>1535.3</ele>
        <time>2022-07-14T10:04:16+0200</time>
      </trkpt>
      <trkpt lat="44.93665" lon="6.56234">
        <ele>1532.8</ele>
        <time>2022-07-14T10:04:18+0200</time>
      </trkpt>
      <trkpt lat="44.93661" lon="6.56224">
        <ele>1533.8</ele>
        <time>2022-07-14T10:04:21+0200</time>
      </trkpt>
      <trkpt lat="44.93662" lon="6.56217">
        <ele>1533</ele>
        <time>2022-07-14T10:04:22+0200</time>
      </trkpt>
      <trkpt lat="44.9366" lon="6.5621">
        <ele>1533.2</ele>
        <time>2022-07-14T10:04:23+0200</time>
      </trkpt>
      <trkpt lat="44.93666" lon="6.56207">
        <ele>1529.5</ele>
        <time>2022-07-14T10:04:25+0200</time>
      </trkpt>
      <trkpt lat="44.9367" lon="6.56201">
        <ele>1527.2</ele>
        <time>2022-07-14T10:04:30+0200</time>
      </trkpt>
      <trkpt lat="44.93676" lon="6.56198">
        <ele>1524.8</ele>
        <time>2022-07-14T10:04:32+0200</time>
      </trkpt>
      <trkpt lat="44.93681" lon="6.56195">
        <ele>1522.4</ele>
        <time>2022-07-14T10:04:35+0200</time>
      </trkpt>
      <trkpt lat="44.93687" lon="6.562">
        <ele>1520.5</ele>
        <time>2022-07-14T10:04:37+0200</time>
      </trkpt>
      <trkpt lat="44.93691" lon="6.56204">
        <ele>1519.6</ele>
        <time>2022-07-14T10:04:39+0200</time>
      </trkpt>
      <trkpt lat="44.93694" lon="6.56208">
        <ele>1518.6</ele>
        <time>2022-07-14T10:04:41+0200</time>
      </trkpt>
      <trkpt lat="44.93698" lon="6.56202">
        <ele>1516.9</ele>
        <time>2022-07-14T10:04:45+0200</time>
      </trkpt>
      <trkpt lat="44.93702" lon="6.56192">
        <ele>1514.6</ele>
        <time>2022-07-14T10:04:47+0200</time>
      </trkpt>
      <trkpt lat="44.93709" lon="6.56185">
        <ele>1512</ele>
        <time>2022-07-14T10:04:49+0200</time>
      </trkpt>
      <trkpt lat="44.93713" lon="6.56185">
        <ele>1510.9</ele>
        <time>2022-07-14T10:04:51+0200</time>
      </trkpt>
      <trkpt lat="44.93719" lon="6.56185">
        <ele>1509.2</ele>
        <time>2022-07-14T10:04:54+0200</time>
      </trkpt>
      <trkpt lat="44.93724" lon="6.56186">
        <ele>1508</ele>
        <time>2022-07-14T10:04:55+0200</time>
      </trkpt>
      <trkpt lat="44.93731" lon="6.56187">
        <ele>1506.7</ele>
        <time>2022-07-14T10:04:57+0200</time>
      </trkpt>
      <trkpt lat="44.93735" lon="6.56184">
        <ele>1505.6</ele>
        <time>2022-07-14T10:04:59+0200</time>
      </trkpt>
      <trkpt lat="44.93741" lon="6.56182">
        <ele>1504.3</ele>
        <time>2022-07-14T10:05:01+0200</time>
      </trkpt>
      <trkpt lat="44.93748" lon="6.56183">
        <ele>1503.1</ele>
        <time>2022-07-14T10:05:02+0200</time>
      </trkpt>
      <trkpt lat="44.93754" lon="6.56186">
        <ele>1501.9</ele>
        <time>2022-07-14T10:05:03+0200</time>
      </trkpt>
      <trkpt lat="44.93761" lon="6.56186">
        <ele>1500.5</ele>
        <time>2022-07-14T10:05:04+0200</time>
      </trkpt>
      <trkpt lat="44.93766" lon="6.56185">
        <ele>1499.6</ele>
        <time>2022-07-14T10:05:05+0200</time>
      </trkpt>
      <trkpt lat="44.93773" lon="6.56185">
        <ele>1498.3</ele>
        <time>2022-07-14T10:05:06+0200</time>
      </trkpt>
      <trkpt lat="44.9378" lon="6.56183">
        <ele>1497.1</ele>
        <time>2022-07-14T10:05:07+0200</time>
      </trkpt>
      <trkpt lat="44.93787" lon="6.56182">
        <ele>1496</ele>
        <time>2022-07-14T10:05:08+0200</time>
      </trkpt>
      <trkpt lat="44.93795" lon="6.56185">
        <ele>1494.6</ele>
        <time>2022-07-14T10:05:09+0200</time>
      </trkpt>
      <trkpt lat="44.93801" lon="6.56185">
        <ele>1493.4</ele>
        <time>2022-07-14T10:05:10+0200</time>
      </trkpt>
      <trkpt lat="44.93807" lon="6.56184">
        <ele>1492.4</ele>
        <time>2022-07-14T10:05:11+0200</time>
      </trkpt>
      <trkpt lat="44.93812" lon="6.56182">
        <ele>1491.7</ele>
        <time>2022-07-14T10:05:12+0200</time>
      </trkpt>
      <trkpt lat="44.93817" lon="6.56182">
        <ele>1490.8</ele>
        <time>2022-07-14T10:05:13+0200</time>
      </trkpt>
      <trkpt lat="44.93823" lon="6.5618">
        <ele>1490</ele>
        <time>2022-07-14T10:05:14+0200</time>
      </trkpt>
      <trkpt lat="44.9383" lon="6.56182">
        <ele>1488.4</ele>
        <time>2022-07-14T10:05:16+0200</time>
      </trkpt>
      <trkpt lat="44.93836" lon="6.56179">
        <ele>1487.6</ele>
        <time>2022-07-14T10:05:17+0200</time>
      </trkpt>
      <trkpt lat="44.93843" lon="6.56176">
        <ele>1486.8</ele>
        <time>2022-07-14T10:05:18+0200</time>
      </trkpt>
      <trkpt lat="44.93851" lon="6.56176">
        <ele>1485.4</ele>
        <time>2022-07-14T10:05:20+0200</time>
      </trkpt>
      <trkpt lat="44.93858" lon="6.56171">
        <ele>1484.8</ele>
        <time>2022-07-14T10:05:22+0200</time>
      </trkpt>
      <trkpt lat="44.93864" lon="6.56169">
        <ele>1484</ele>
        <time>2022-07-14T10:05:23+0200</time>
      </trkpt>
      <trkpt lat="44.93871" lon="6.5617">
        <ele>1481.8</ele>
        <time>2022-07-14T10:05:24+0200</time>
      </trkpt>
      <trkpt lat="44.93877" lon="6.56171">
        <ele>1480.5</ele>
        <time>2022-07-14T10:05:25+0200</time>
      </trkpt>
      <trkpt lat="44.93883" lon="6.56171">
        <ele>1478.9</ele>
        <time>2022-07-14T10:05:26+0200</time>
      </trkpt>
      <trkpt lat="44.93888" lon="6.56167">
        <ele>1478.3</ele>
        <time>2022-07-14T10:05:27+0200</time>
      </trkpt>
      <trkpt lat="44.93894" lon="6.56159">
        <ele>1477.5</ele>
        <time>2022-07-14T10:05:28+0200</time>
      </trkpt>
      <trkpt lat="44.939" lon="6.56153">
        <ele>1476.5</ele>
        <time>2022-07-14T10:05:29+0200</time>
      </trkpt>
      <trkpt lat="44.9391" lon="6.56151">
        <ele>1474.6</ele>
        <time>2022-07-14T10:05:30+0200</time>
      </trkpt>
      <trkpt lat="44.93915" lon="6.56157">
        <ele>1473.1</ele>
        <time>2022-07-14T10:05:31+0200</time>
      </trkpt>
      <trkpt lat="44.9392" lon="6.56159">
        <ele>1471.8</ele>
        <time>2022-07-14T10:05:33+0200</time>
      </trkpt>
      <trkpt lat="44.93926" lon="6.56161">
        <ele>1470.5</ele>
        <time>2022-07-14T10:05:35+0200</time>
      </trkpt>
      <trkpt lat="44.93932" lon="6.56164">
        <ele>1468.9</ele>
        <time>2022-07-14T10:05:38+0200</time>
      </trkpt>
      <trkpt lat="44.93937" lon="6.56164">
        <ele>1467.7</ele>
        <time>2022-07-14T10:05:40+0200</time>
      </trkpt>
      <trkpt lat="44.93942" lon="6.56169">
        <ele>1466.4</ele>
        <time>2022-07-14T10:05:42+0200</time>
      </trkpt>
      <trkpt lat="44.93946" lon="6.56173">
        <ele>1465</ele>
        <time>2022-07-14T10:05:46+0200</time>
      </trkpt>
      <trkpt lat="44.93951" lon="6.56177">
        <ele>1463.8</ele>
        <time>2022-07-14T10:05:48+0200</time>
      </trkpt>
      <trkpt lat="44.93956" lon="6.56177">
        <ele>1462.9</ele>
        <time>2022-07-14T10:05:52+0200</time>
      </trkpt>
      <trkpt lat="44.9396" lon="6.56179">
        <ele>1461.8</ele>
        <time>2022-07-14T10:05:57+0200</time>
      </trkpt>
      <trkpt lat="44.93965" lon="6.56178">
        <ele>1461.1</ele>
        <time>2022-07-14T10:06:06+0200</time>
      </trkpt>
      <trkpt lat="44.93964" lon="6.56184">
        <ele>1460.7</ele>
        <time>2022-07-14T10:06:27+0200</time>
      </trkpt>
      <trkpt lat="44.93964" lon="6.56178">
        <ele>1461.4</ele>
        <time>2022-07-14T10:06:35+0200</time>
      </trkpt>
      <trkpt lat="44.93963" lon="6.5617">
        <ele>1462.2</ele>
        <time>2022-07-14T10:06:50+0200</time>
      </trkpt>
      <trkpt lat="44.93963" lon="6.56177">
        <ele>1461.6</ele>
        <time>2022-07-14T10:07:17+0200</time>
      </trkpt>
      <trkpt lat="44.93962" lon="6.56185">
        <ele>1460.8</ele>
        <time>2022-07-14T10:07:22+0200</time>
      </trkpt>
      <trkpt lat="44.93964" lon="6.56191">
        <ele>1459.8</ele>
        <time>2022-07-14T10:07:24+0200</time>
      </trkpt>
      <trkpt lat="44.93972" lon="6.56193">
        <ele>1458.2</ele>
        <time>2022-07-14T10:07:26+0200</time>
      </trkpt>
      <trkpt lat="44.93978" lon="6.56194">
        <ele>1457.7</ele>
        <time>2022-07-14T10:07:28+0200</time>
      </trkpt>
      <trkpt lat="44.93985" lon="6.56194">
        <ele>1457.1</ele>
        <time>2022-07-14T10:07:30+0200</time>
      </trkpt>
      <trkpt lat="44.93991" lon="6.56196">
        <ele>1456.6</ele>
        <time>2022-07-14T10:07:31+0200</time>
      </trkpt>
      <trkpt lat="44.93996" lon="6.56198">
        <ele>1455.9</ele>
        <time>2022-07-14T10:07:32+0200</time>
      </trkpt>
      <trkpt lat="44.94006" lon="6.56199">
        <ele>1454.9</ele>
        <time>2022-07-14T10:07:33+0200</time>
      </trkpt>
      <trkpt lat="44.94015" lon="6.56196">
        <ele>1454.3</ele>
        <time>2022-07-14T10:07:34+0200</time>
      </trkpt>
      <trkpt lat="44.94021" lon="6.56188">
        <ele>1454</ele>
        <time>2022-07-14T10:07:35+0200</time>
      </trkpt>
      <trkpt lat="44.94027" lon="6.56182">
        <ele>1453.6</ele>
        <time>2022-07-14T10:07:36+0200</time>
      </trkpt>
      <trkpt lat="44.94033" lon="6.56181">
        <ele>1452.5</ele>
        <time>2022-07-14T10:07:37+0200</time>
      </trkpt>
      <trkpt lat="44.9404" lon="6.56186">
        <ele>1451.2</ele>
        <time>2022-07-14T10:07:38+0200</time>
      </trkpt>
      <trkpt lat="44.94045" lon="6.56194">
        <ele>1449.9</ele>
        <time>2022-07-14T10:07:39+0200</time>
      </trkpt>
      <trkpt lat="44.94054" lon="6.56201">
        <ele>1448.3</ele>
        <time>2022-07-14T10:07:40+0200</time>
      </trkpt>
      <trkpt lat="44.94058" lon="6.56209">
        <ele>1447.3</ele>
        <time>2022-07-14T10:07:41+0200</time>
      </trkpt>
      <trkpt lat="44.94059" lon="6.56221">
        <ele>1447.2</ele>
        <time>2022-07-14T10:07:42+0200</time>
      </trkpt>
      <trkpt lat="44.94058" lon="6.56232">
        <ele>1445.9</ele>
        <time>2022-07-14T10:07:43+0200</time>
      </trkpt>
      <trkpt lat="44.94059" lon="6.56243">
        <ele>1444.1</ele>
        <time>2022-07-14T10:07:44+0200</time>
      </trkpt>
      <trkpt lat="44.94059" lon="6.56252">
        <ele>1443.1</ele>
        <time>2022-07-14T10:07:45+0200</time>
      </trkpt>
      <trkpt lat="44.94058" lon="6.56262">
        <ele>1442.1</ele>
        <time>2022-07-14T10:07:46+0200</time>
      </trkpt>
      <trkpt lat="44.94059" lon="6.56271">
        <ele>1441</ele>
        <time>2022-07-14T10:07:47+0200</time>
      </trkpt>
      <trkpt lat="44.94058" lon="6.5628">
        <ele>1440.4</ele>
        <time>2022-07-14T10:07:48+0200</time>
      </trkpt>
      <trkpt lat="44.94059" lon="6.56288">
        <ele>1439.6</ele>
        <time>2022-07-14T10:07:49+0200</time>
      </trkpt>
      <trkpt lat="44.94068" lon="6.56284">
        <ele>1437.8</ele>
        <time>2022-07-14T10:07:51+0200</time>
      </trkpt>
      <trkpt lat="44.9407" lon="6.56291">
        <ele>1436.6</ele>
        <time>2022-07-14T10:07:53+0200</time>
      </trkpt>
      <trkpt lat="44.94071" lon="6.56298">
        <ele>1435.9</ele>
        <time>2022-07-14T10:07:54+0200</time>
      </trkpt>
      <trkpt lat="44.94077" lon="6.56298">
        <ele>1434.4</ele>
        <time>2022-07-14T10:07:55+0200</time>
      </trkpt>
      <trkpt lat="44.94082" lon="6.56294">
        <ele>1433.5</ele>
        <time>2022-07-14T10:07:56+0200</time>
      </trkpt>
      <trkpt lat="44.9409" lon="6.56296">
        <ele>1431.3</ele>
        <time>2022-07-14T10:07:57+0200</time>
      </trkpt>
      <trkpt lat="44.94098" lon="6.56291">
        <ele>1429.8</ele>
        <time>2022-07-14T10:07:58+0200</time>
      </trkpt>
      <trkpt lat="44.941" lon="6.56278">
        <ele>1430.9</ele>
        <time>2022-07-14T10:07:59+0200</time>
      </trkpt>
      <trkpt lat="44.94099" lon="6.56269">
        <ele>1431.7</ele>
        <time>2022-07-14T10:08:00+0200</time>
      </trkpt>
      <trkpt lat="44.941" lon="6.56263">
        <ele>1432.1</ele>
        <time>2022-07-14T10:08:01+0200</time>
      </trkpt>
      <trkpt lat="44.94102" lon="6.56255">
        <ele>1432.4</ele>
        <time>2022-07-14T10:08:02+0200</time>
      </trkpt>
      <trkpt lat="44.94103" lon="6.56247">
        <ele>1432.6</ele>
        <time>2022-07-14T10:08:03+0200</time>
      </trkpt>
      <trkpt lat="44.94103" lon="6.56239">
        <ele>1433</ele>
        <time>2022-07-14T10:08:04+0200</time>
      </trkpt>
      <trkpt lat="44.94103" lon="6.56227">
        <ele>1433.4</ele>
        <time>2022-07-14T10:08:06+0200</time>
      </trkpt>
      <trkpt lat="44.94109" lon="6.56229">
        <ele>1431.5</ele>
        <time>2022-07-14T10:08:07+0200</time>
      </trkpt>
      <trkpt lat="44.9411" lon="6.5624">
        <ele>1430.6</ele>
        <time>2022-07-14T10:08:08+0200</time>
      </trkpt>
      <trkpt lat="44.94109" lon="6.5625">
        <ele>1430.6</ele>
        <time>2022-07-14T10:08:09+0200</time>
      </trkpt>
      <trkpt lat="44.94108" lon="6.56259">
        <ele>1430.2</ele>
        <time>2022-07-14T10:08:10+0200</time>
      </trkpt>
      <trkpt lat="44.94108" lon="6.56268">
        <ele>1429.5</ele>
        <time>2022-07-14T10:08:11+0200</time>
      </trkpt>
      <trkpt lat="44.94108" lon="6.56276">
        <ele>1428.9</ele>
        <time>2022-07-14T10:08:12+0200</time>
      </trkpt>
      <trkpt lat="44.94108" lon="6.56283">
        <ele>1428.3</ele>
        <time>2022-07-14T10:08:13+0200</time>
      </trkpt>
      <trkpt lat="44.94108" lon="6.5629">
        <ele>1427.5</ele>
        <time>2022-07-14T10:08:14+0200</time>
      </trkpt>
      <trkpt lat="44.94106" lon="6.56298">
        <ele>1427</ele>
        <time>2022-07-14T10:08:15+0200</time>
      </trkpt>
      <trkpt lat="44.94104" lon="6.56306">
        <ele>1426.8</ele>
        <time>2022-07-14T10:08:16+0200</time>
      </trkpt>
      <trkpt lat="44.941" lon="6.56311">
        <ele>1427.6</ele>
        <time>2022-07-14T10:08:17+0200</time>
      </trkpt>
      <trkpt lat="44.94098" lon="6.5632">
        <ele>1427.9</ele>
        <time>2022-07-14T10:08:19+0200</time>
      </trkpt>
      <trkpt lat="44.94104" lon="6.56318">
        <ele>1426.4</ele>
        <time>2022-07-14T10:08:20+0200</time>
      </trkpt>
      <trkpt lat="44.9411" lon="6.56307">
        <ele>1425.3</ele>
        <time>2022-07-14T10:08:22+0200</time>
      </trkpt>
      <trkpt lat="44.94112" lon="6.563">
        <ele>1425.5</ele>
        <time>2022-07-14T10:08:23+0200</time>
      </trkpt>
      <trkpt lat="44.9412" lon="6.56297">
        <ele>1424.2</ele>
        <time>2022-07-14T10:08:25+0200</time>
      </trkpt>
      <trkpt lat="44.94125" lon="6.56301">
        <ele>1422.9</ele>
        <time>2022-07-14T10:08:26+0200</time>
      </trkpt>
      <trkpt lat="44.94131" lon="6.56305">
        <ele>1421.5</ele>
        <time>2022-07-14T10:08:27+0200</time>
      </trkpt>
      <trkpt lat="44.94137" lon="6.56309">
        <ele>1420</ele>
        <time>2022-07-14T10:08:28+0200</time>
      </trkpt>
      <trkpt lat="44.94143" lon="6.56317">
        <ele>1418.8</ele>
        <time>2022-07-14T10:08:29+0200</time>
      </trkpt>
      <trkpt lat="44.94147" lon="6.56324">
        <ele>1417.8</ele>
        <time>2022-07-14T10:08:30+0200</time>
      </trkpt>
      <trkpt lat="44.94152" lon="6.56329">
        <ele>1416.9</ele>
        <time>2022-07-14T10:08:31+0200</time>
      </trkpt>
      <trkpt lat="44.94157" lon="6.56331">
        <ele>1416.3</ele>
        <time>2022-07-14T10:08:32+0200</time>
      </trkpt>
      <trkpt lat="44.94166" lon="6.56328">
        <ele>1415.5</ele>
        <time>2022-07-14T10:08:34+0200</time>
      </trkpt>
      <trkpt lat="44.94175" lon="6.56326">
        <ele>1414.6</ele>
        <time>2022-07-14T10:08:36+0200</time>
      </trkpt>
      <trkpt lat="44.94178" lon="6.56316">
        <ele>1414.8</ele>
        <time>2022-07-14T10:08:37+0200</time>
      </trkpt>
      <trkpt lat="44.94178" lon="6.56308">
        <ele>1415.3</ele>
        <time>2022-07-14T10:08:38+0200</time>
      </trkpt>
      <trkpt lat="44.9418" lon="6.56302">
        <ele>1415.3</ele>
        <time>2022-07-14T10:08:39+0200</time>
      </trkpt>
      <trkpt lat="44.94181" lon="6.56295">
        <ele>1415.3</ele>
        <time>2022-07-14T10:08:40+0200</time>
      </trkpt>
      <trkpt lat="44.94183" lon="6.56284">
        <ele>1415.4</ele>
        <time>2022-07-14T10:08:42+0200</time>
      </trkpt>
      <trkpt lat="44.94186" lon="6.56274">
        <ele>1415.3</ele>
        <time>2022-07-14T10:08:44+0200</time>
      </trkpt>
      <trkpt lat="44.94193" lon="6.56265">
        <ele>1414.7</ele>
        <time>2022-07-14T10:08:46+0200</time>
      </trkpt>
      <trkpt lat="44.94196" lon="6.5626">
        <ele>1414.4</ele>
        <time>2022-07-14T10:08:47+0200</time>
      </trkpt>
      <trkpt lat="44.94203" lon="6.56252">
        <ele>1413.4</ele>
        <time>2022-07-14T10:08:49+0200</time>
      </trkpt>
      <trkpt lat="44.9421" lon="6.56252">
        <ele>1412</ele>
        <time>2022-07-14T10:08:51+0200</time>
      </trkpt>
      <trkpt lat="44.94219" lon="6.56263">
        <ele>1410.2</ele>
        <time>2022-07-14T10:08:53+0200</time>
      </trkpt>
      <trkpt lat="44.94224" lon="6.56267">
        <ele>1409.2</ele>
        <time>2022-07-14T10:08:54+0200</time>
      </trkpt>
      <trkpt lat="44.94228" lon="6.56273">
        <ele>1408.5</ele>
        <time>2022-07-14T10:08:55+0200</time>
      </trkpt>
      <trkpt lat="44.94233" lon="6.5628">
        <ele>1407.8</ele>
        <time>2022-07-14T10:08:56+0200</time>
      </trkpt>
      <trkpt lat="44.94239" lon="6.56286">
        <ele>1407.3</ele>
        <time>2022-07-14T10:08:57+0200</time>
      </trkpt>
      <trkpt lat="44.94245" lon="6.5629">
        <ele>1406.7</ele>
        <time>2022-07-14T10:08:58+0200</time>
      </trkpt>
      <trkpt lat="44.94249" lon="6.56295">
        <ele>1406.2</ele>
        <time>2022-07-14T10:08:59+0200</time>
      </trkpt>
      <trkpt lat="44.94254" lon="6.563">
        <ele>1405.5</ele>
        <time>2022-07-14T10:09:00+0200</time>
      </trkpt>
      <trkpt lat="44.94262" lon="6.56305">
        <ele>1404.3</ele>
        <time>2022-07-14T10:09:02+0200</time>
      </trkpt>
      <trkpt lat="44.94268" lon="6.56309">
        <ele>1403.5</ele>
        <time>2022-07-14T10:09:12+0200</time>
      </trkpt>
      <trkpt lat="44.94264" lon="6.56314">
        <ele>1404</ele>
        <time>2022-07-14T10:09:55+0200</time>
      </trkpt>
      <trkpt lat="44.94261" lon="6.5632">
        <ele>1404.4</ele>
        <time>2022-07-14T10:09:57+0200</time>
      </trkpt>
      <trkpt lat="44.94258" lon="6.56325">
        <ele>1404.9</ele>
        <time>2022-07-14T10:09:59+0200</time>
      </trkpt>
      <trkpt lat="44.94255" lon="6.56334">
        <ele>1405.2</ele>
        <time>2022-07-14T10:10:01+0200</time>
      </trkpt>
      <trkpt lat="44.94253" lon="6.56343">
        <ele>1404.8</ele>
        <time>2022-07-14T10:10:03+0200</time>
      </trkpt>
      <trkpt lat="44.94253" lon="6.56353">
        <ele>1404.2</ele>
        <time>2022-07-14T10:10:05+0200</time>
      </trkpt>
      <trkpt lat="44.94249" lon="6.56363">
        <ele>1404</ele>
        <time>2022-07-14T10:10:07+0200</time>
      </trkpt>
      <trkpt lat="44.94246" lon="6.56369">
        <ele>1403.8</ele>
        <time>2022-07-14T10:10:08+0200</time>
      </trkpt>
      <trkpt lat="44.94244" lon="6.56374">
        <ele>1403.7</ele>
        <time>2022-07-14T10:10:09+0200</time>
      </trkpt>
      <trkpt lat="44.94238" lon="6.56383">
        <ele>1403.7</ele>
        <time>2022-07-14T10:10:11+0200</time>
      </trkpt>
      <trkpt lat="44.94232" lon="6.56388">
        <ele>1404</ele>
        <time>2022-07-14T10:10:13+0200</time>
      </trkpt>
      <trkpt lat="44.94228" lon="6.56395">
        <ele>1404.1</ele>
        <time>2022-07-14T10:10:15+0200</time>
      </trkpt>
      <trkpt lat="44.94222" lon="6.56399">
        <ele>1404.7</ele>
        <time>2022-07-14T10:10:17+0200</time>
      </trkpt>
      <trkpt lat="44.94215" lon="6.56404">
        <ele>1405.4</ele>
        <time>2022-07-14T10:10:19+0200</time>
      </trkpt>
      <trkpt lat="44.94208" lon="6.56408">
        <ele>1406</ele>
        <time>2022-07-14T10:10:21+0200</time>
      </trkpt>
      <trkpt lat="44.94203" lon="6.56412">
        <ele>1406.4</ele>
        <time>2022-07-14T10:10:23+0200</time>
      </trkpt>
      <trkpt lat="44.94197" lon="6.56415">
        <ele>1406.8</ele>
        <time>2022-07-14T10:10:25+0200</time>
      </trkpt>
      <trkpt lat="44.94193" lon="6.56424">
        <ele>1406.6</ele>
        <time>2022-07-14T10:10:27+0200</time>
      </trkpt>
      <trkpt lat="44.94189" lon="6.56435">
        <ele>1406.1</ele>
        <time>2022-07-14T10:10:29+0200</time>
      </trkpt>
      <trkpt lat="44.94187" lon="6.56442">
        <ele>1405.8</ele>
        <time>2022-07-14T10:10:30+0200</time>
      </trkpt>
      <trkpt lat="44.94184" lon="6.56449">
        <ele>1405.4</ele>
        <time>2022-07-14T10:10:31+0200</time>
      </trkpt>
      <trkpt lat="44.94182" lon="6.56455">
        <ele>1405.2</ele>
        <time>2022-07-14T10:10:32+0200</time>
      </trkpt>
      <trkpt lat="44.94178" lon="6.56461">
        <ele>1405</ele>
        <time>2022-07-14T10:10:33+0200</time>
      </trkpt>
      <trkpt lat="44.94176" lon="6.56468">
        <ele>1404.7</ele>
        <time>2022-07-14T10:10:34+0200</time>
      </trkpt>
      <trkpt lat="44.94173" lon="6.56474">
        <ele>1404.4</ele>
        <time>2022-07-14T10:10:35+0200</time>
      </trkpt>
      <trkpt lat="44.94171" lon="6.56481">
        <ele>1404.1</ele>
        <time>2022-07-14T10:10:36+0200</time>
      </trkpt>
      <trkpt lat="44.94168" lon="6.56488">
        <ele>1403.7</ele>
        <time>2022-07-14T10:10:37+0200</time>
      </trkpt>
      <trkpt lat="44.94167" lon="6.56497">
        <ele>1403.2</ele>
        <time>2022-07-14T10:10:38+0200</time>
      </trkpt>
      <trkpt lat="44.94166" lon="6.56505">
        <ele>1402.5</ele>
        <time>2022-07-14T10:10:39+0200</time>
      </trkpt>
      <trkpt lat="44.94164" lon="6.56515">
        <ele>1401.7</ele>
        <time>2022-07-14T10:10:40+0200</time>
      </trkpt>
      <trkpt lat="44.94159" lon="6.56523">
        <ele>1401.3</ele>
        <time>2022-07-14T10:10:41+0200</time>
      </trkpt>
      <trkpt lat="44.94156" lon="6.56532">
        <ele>1400.7</ele>
        <time>2022-07-14T10:10:42+0200</time>
      </trkpt>
      <trkpt lat="44.9415" lon="6.56541">
        <ele>1400.4</ele>
        <time>2022-07-14T10:10:43+0200</time>
      </trkpt>
      <trkpt lat="44.94145" lon="6.56546">
        <ele>1400.4</ele>
        <time>2022-07-14T10:10:44+0200</time>
      </trkpt>
      <trkpt lat="44.9414" lon="6.56553">
        <ele>1400.1</ele>
        <time>2022-07-14T10:10:45+0200</time>
      </trkpt>
      <trkpt lat="44.94137" lon="6.56562">
        <ele>1399.6</ele>
        <time>2022-07-14T10:10:46+0200</time>
      </trkpt>
      <trkpt lat="44.94133" lon="6.56571">
        <ele>1399.1</ele>
        <time>2022-07-14T10:10:47+0200</time>
      </trkpt>
      <trkpt lat="44.94127" lon="6.56578">
        <ele>1399</ele>
        <time>2022-07-14T10:10:48+0200</time>
      </trkpt>
      <trkpt lat="44.94122" lon="6.56585">
        <ele>1398.6</ele>
        <time>2022-07-14T10:10:49+0200</time>
      </trkpt>
      <trkpt lat="44.94116" lon="6.56589">
        <ele>1398.8</ele>
        <time>2022-07-14T10:10:50+0200</time>
      </trkpt>
      <trkpt lat="44.9411" lon="6.56593">
        <ele>1399.1</ele>
        <time>2022-07-14T10:10:51+0200</time>
      </trkpt>
      <trkpt lat="44.94105" lon="6.56597">
        <ele>1399.4</ele>
        <time>2022-07-14T10:10:52+0200</time>
      </trkpt>
      <trkpt lat="44.94101" lon="6.56604">
        <ele>1399.3</ele>
        <time>2022-07-14T10:10:53+0200</time>
      </trkpt>
      <trkpt lat="44.94095" lon="6.56608">
        <ele>1399.8</ele>
        <time>2022-07-14T10:10:54+0200</time>
      </trkpt>
      <trkpt lat="44.94092" lon="6.56615">
        <ele>1399.2</ele>
        <time>2022-07-14T10:10:55+0200</time>
      </trkpt>
      <trkpt lat="44.94096" lon="6.56624">
        <ele>1397.5</ele>
        <time>2022-07-14T10:10:56+0200</time>
      </trkpt>
      <trkpt lat="44.941" lon="6.56634">
        <ele>1395.8</ele>
        <time>2022-07-14T10:10:57+0200</time>
      </trkpt>
      <trkpt lat="44.94103" lon="6.56644">
        <ele>1394.3</ele>
        <time>2022-07-14T10:10:58+0200</time>
      </trkpt>
      <trkpt lat="44.94096" lon="6.56654">
        <ele>1394</ele>
        <time>2022-07-14T10:11:00+0200</time>
      </trkpt>
      <trkpt lat="44.9409" lon="6.56652">
        <ele>1394.8</ele>
        <time>2022-07-14T10:11:01+0200</time>
      </trkpt>
      <trkpt lat="44.94082" lon="6.56653">
        <ele>1395.7</ele>
        <time>2022-07-14T10:11:03+0200</time>
      </trkpt>
      <trkpt lat="44.94075" lon="6.5666">
        <ele>1396</ele>
        <time>2022-07-14T10:11:05+0200</time>
      </trkpt>
      <trkpt lat="44.94071" lon="6.56666">
        <ele>1395.9</ele>
        <time>2022-07-14T10:11:07+0200</time>
      </trkpt>
      <trkpt lat="44.94068" lon="6.56671">
        <ele>1395.7</ele>
        <time>2022-07-14T10:11:08+0200</time>
      </trkpt>
      <trkpt lat="44.94061" lon="6.56681">
        <ele>1395.2</ele>
        <time>2022-07-14T10:11:10+0200</time>
      </trkpt>
      <trkpt lat="44.94058" lon="6.5669">
        <ele>1394.4</ele>
        <time>2022-07-14T10:11:12+0200</time>
      </trkpt>
      <trkpt lat="44.94054" lon="6.56696">
        <ele>1394</ele>
        <time>2022-07-14T10:11:14+0200</time>
      </trkpt>
      <trkpt lat="44.9405" lon="6.56701">
        <ele>1394</ele>
        <time>2022-07-14T10:11:15+0200</time>
      </trkpt>
      <trkpt lat="44.94045" lon="6.56704">
        <ele>1394.1</ele>
        <time>2022-07-14T10:11:16+0200</time>
      </trkpt>
      <trkpt lat="44.94041" lon="6.56708">
        <ele>1394.2</ele>
        <time>2022-07-14T10:11:17+0200</time>
      </trkpt>
      <trkpt lat="44.94036" lon="6.56717">
        <ele>1393.6</ele>
        <time>2022-07-14T10:11:19+0200</time>
      </trkpt>
      <trkpt lat="44.94031" lon="6.56725">
        <ele>1393.2</ele>
        <time>2022-07-14T10:11:20+0200</time>
      </trkpt>
      <trkpt lat="44.94027" lon="6.56736">
        <ele>1392.1</ele>
        <time>2022-07-14T10:11:21+0200</time>
      </trkpt>
      <trkpt lat="44.94021" lon="6.56744">
        <ele>1391.6</ele>
        <time>2022-07-14T10:11:22+0200</time>
      </trkpt>
      <trkpt lat="44.94015" lon="6.56751">
        <ele>1391.3</ele>
        <time>2022-07-14T10:11:23+0200</time>
      </trkpt>
      <trkpt lat="44.94009" lon="6.5676">
        <ele>1390.7</ele>
        <time>2022-07-14T10:11:24+0200</time>
      </trkpt>
      <trkpt lat="44.94004" lon="6.56769">
        <ele>1389.8</ele>
        <time>2022-07-14T10:11:25+0200</time>
      </trkpt>
      <trkpt lat="44.93998" lon="6.56777">
        <ele>1389.4</ele>
        <time>2022-07-14T10:11:26+0200</time>
      </trkpt>
      <trkpt lat="44.93994" lon="6.56783">
        <ele>1389.2</ele>
        <time>2022-07-14T10:11:27+0200</time>
      </trkpt>
      <trkpt lat="44.93991" lon="6.56789">
        <ele>1388.9</ele>
        <time>2022-07-14T10:11:28+0200</time>
      </trkpt>
      <trkpt lat="44.93987" lon="6.56792">
        <ele>1389.1</ele>
        <time>2022-07-14T10:11:30+0200</time>
      </trkpt>
      <trkpt lat="44.93982" lon="6.56801">
        <ele>1388.7</ele>
        <time>2022-07-14T10:11:32+0200</time>
      </trkpt>
      <trkpt lat="44.9398" lon="6.56809">
        <ele>1387.7</ele>
        <time>2022-07-14T10:11:33+0200</time>
      </trkpt>
      <trkpt lat="44.93978" lon="6.56817">
        <ele>1386.7</ele>
        <time>2022-07-14T10:11:34+0200</time>
      </trkpt>
      <trkpt lat="44.93977" lon="6.56825">
        <ele>1385.7</ele>
        <time>2022-07-14T10:11:35+0200</time>
      </trkpt>
      <trkpt lat="44.93969" lon="6.56833">
        <ele>1385.4</ele>
        <time>2022-07-14T10:11:37+0200</time>
      </trkpt>
      <trkpt lat="44.93964" lon="6.56837">
        <ele>1385.5</ele>
        <time>2022-07-14T10:11:38+0200</time>
      </trkpt>
      <trkpt lat="44.93959" lon="6.56838">
        <ele>1386</ele>
        <time>2022-07-14T10:11:39+0200</time>
      </trkpt>
      <trkpt lat="44.93955" lon="6.5684">
        <ele>1386.3</ele>
        <time>2022-07-14T10:11:41+0200</time>
      </trkpt>
      <trkpt lat="44.93946" lon="6.56843">
        <ele>1387.2</ele>
        <time>2022-07-14T10:11:43+0200</time>
      </trkpt>
      <trkpt lat="44.93941" lon="6.56845">
        <ele>1387.7</ele>
        <time>2022-07-14T10:11:44+0200</time>
      </trkpt>
      <trkpt lat="44.93935" lon="6.56852">
        <ele>1388</ele>
        <time>2022-07-14T10:11:45+0200</time>
      </trkpt>
      <trkpt lat="44.93932" lon="6.56858">
        <ele>1388.1</ele>
        <time>2022-07-14T10:11:48+0200</time>
      </trkpt>
      <trkpt lat="44.93928" lon="6.56863">
        <ele>1388.3</ele>
        <time>2022-07-14T10:11:51+0200</time>
      </trkpt>
      <trkpt lat="44.93924" lon="6.56872">
        <ele>1388</ele>
        <time>2022-07-14T10:11:52+0200</time>
      </trkpt>
      <trkpt lat="44.93919" lon="6.56881">
        <ele>1388.2</ele>
        <time>2022-07-14T10:11:54+0200</time>
      </trkpt>
      <trkpt lat="44.93914" lon="6.56886">
        <ele>1388.8</ele>
        <time>2022-07-14T10:11:55+0200</time>
      </trkpt>
      <trkpt lat="44.93912" lon="6.56891">
        <ele>1388.7</ele>
        <time>2022-07-14T10:11:56+0200</time>
      </trkpt>
      <trkpt lat="44.93908" lon="6.56898">
        <ele>1388.5</ele>
        <time>2022-07-14T10:11:58+0200</time>
      </trkpt>
      <trkpt lat="44.93905" lon="6.56909">
        <ele>1387.4</ele>
        <time>2022-07-14T10:12:01+0200</time>
      </trkpt>
      <trkpt lat="44.93905" lon="6.56916">
        <ele>1386.2</ele>
        <time>2022-07-14T10:12:02+0200</time>
      </trkpt>
      <trkpt lat="44.93905" lon="6.56923">
        <ele>1385.1</ele>
        <time>2022-07-14T10:12:03+0200</time>
      </trkpt>
      <trkpt lat="44.93901" lon="6.56929">
        <ele>1384.6</ele>
        <time>2022-07-14T10:12:05+0200</time>
      </trkpt>
      <trkpt lat="44.93896" lon="6.56935">
        <ele>1384.5</ele>
        <time>2022-07-14T10:12:06+0200</time>
      </trkpt>
      <trkpt lat="44.9389" lon="6.56942">
        <ele>1384.1</ele>
        <time>2022-07-14T10:12:07+0200</time>
      </trkpt>
      <trkpt lat="44.93886" lon="6.5695">
        <ele>1383.5</ele>
        <time>2022-07-14T10:12:08+0200</time>
      </trkpt>
      <trkpt lat="44.93881" lon="6.56952">
        <ele>1384</ele>
        <time>2022-07-14T10:12:09+0200</time>
      </trkpt>
      <trkpt lat="44.93874" lon="6.56955">
        <ele>1384.6</ele>
        <time>2022-07-14T10:12:10+0200</time>
      </trkpt>
      <trkpt lat="44.93867" lon="6.5696">
        <ele>1384.9</ele>
        <time>2022-07-14T10:12:11+0200</time>
      </trkpt>
      <trkpt lat="44.93864" lon="6.56968">
        <ele>1383.5</ele>
        <time>2022-07-14T10:12:13+0200</time>
      </trkpt>
      <trkpt lat="44.93859" lon="6.56978">
        <ele>1382.7</ele>
        <time>2022-07-14T10:12:15+0200</time>
      </trkpt>
      <trkpt lat="44.93852" lon="6.56985">
        <ele>1383.3</ele>
        <time>2022-07-14T10:12:16+0200</time>
      </trkpt>
      <trkpt lat="44.93847" lon="6.56992">
        <ele>1383.2</ele>
        <time>2022-07-14T10:12:17+0200</time>
      </trkpt>
      <trkpt lat="44.93842" lon="6.56996">
        <ele>1383.7</ele>
        <time>2022-07-14T10:12:18+0200</time>
      </trkpt>
      <trkpt lat="44.93837" lon="6.56999">
        <ele>1384.3</ele>
        <time>2022-07-14T10:12:19+0200</time>
      </trkpt>
      <trkpt lat="44.93833" lon="6.57004">
        <ele>1384.2</ele>
        <time>2022-07-14T10:12:20+0200</time>
      </trkpt>
      <trkpt lat="44.9383" lon="6.57011">
        <ele>1383.4</ele>
        <time>2022-07-14T10:12:21+0200</time>
      </trkpt>
      <trkpt lat="44.93826" lon="6.57018">
        <ele>1383</ele>
        <time>2022-07-14T10:12:22+0200</time>
      </trkpt>
      <trkpt lat="44.93824" lon="6.57024">
        <ele>1382.2</ele>
        <time>2022-07-14T10:12:23+0200</time>
      </trkpt>
      <trkpt lat="44.93819" lon="6.57033">
        <ele>1381.7</ele>
        <time>2022-07-14T10:12:25+0200</time>
      </trkpt>
      <trkpt lat="44.93816" lon="6.57044">
        <ele>1379.9</ele>
        <time>2022-07-14T10:12:28+0200</time>
      </trkpt>
      <trkpt lat="44.93817" lon="6.57051">
        <ele>1378</ele>
        <time>2022-07-14T10:12:29+0200</time>
      </trkpt>
      <trkpt lat="44.93818" lon="6.57058">
        <ele>1376.5</ele>
        <time>2022-07-14T10:12:30+0200</time>
      </trkpt>
      <trkpt lat="44.93817" lon="6.5707">
        <ele>1374.5</ele>
        <time>2022-07-14T10:12:32+0200</time>
      </trkpt>
      <trkpt lat="44.93813" lon="6.57078">
        <ele>1373.7</ele>
        <time>2022-07-14T10:12:33+0200</time>
      </trkpt>
      <trkpt lat="44.93808" lon="6.57087">
        <ele>1373.1</ele>
        <time>2022-07-14T10:12:34+0200</time>
      </trkpt>
      <trkpt lat="44.93805" lon="6.57093">
        <ele>1372.6</ele>
        <time>2022-07-14T10:12:35+0200</time>
      </trkpt>
      <trkpt lat="44.938" lon="6.571">
        <ele>1373</ele>
        <time>2022-07-14T10:12:36+0200</time>
      </trkpt>
      <trkpt lat="44.93792" lon="6.57109">
        <ele>1373.3</ele>
        <time>2022-07-14T10:12:37+0200</time>
      </trkpt>
      <trkpt lat="44.93787" lon="6.57123">
        <ele>1371.9</ele>
        <time>2022-07-14T10:12:38+0200</time>
      </trkpt>
      <trkpt lat="44.93784" lon="6.57136">
        <ele>1370</ele>
        <time>2022-07-14T10:12:39+0200</time>
      </trkpt>
      <trkpt lat="44.93779" lon="6.57148">
        <ele>1368.9</ele>
        <time>2022-07-14T10:12:40+0200</time>
      </trkpt>
      <trkpt lat="44.93778" lon="6.57161">
        <ele>1367.6</ele>
        <time>2022-07-14T10:12:41+0200</time>
      </trkpt>
      <trkpt lat="44.9378" lon="6.57176">
        <ele>1366.3</ele>
        <time>2022-07-14T10:12:42+0200</time>
      </trkpt>
      <trkpt lat="44.93779" lon="6.57187">
        <ele>1365.5</ele>
        <time>2022-07-14T10:12:43+0200</time>
      </trkpt>
      <trkpt lat="44.93778" lon="6.57195">
        <ele>1365</ele>
        <time>2022-07-14T10:12:44+0200</time>
      </trkpt>
      <trkpt lat="44.93776" lon="6.57201">
        <ele>1364.9</ele>
        <time>2022-07-14T10:12:45+0200</time>
      </trkpt>
      <trkpt lat="44.93774" lon="6.57209">
        <ele>1364.8</ele>
        <time>2022-07-14T10:12:46+0200</time>
      </trkpt>
      <trkpt lat="44.93775" lon="6.57217">
        <ele>1364.4</ele>
        <time>2022-07-14T10:12:47+0200</time>
      </trkpt>
      <trkpt lat="44.93775" lon="6.57227">
        <ele>1364.2</ele>
        <time>2022-07-14T10:12:48+0200</time>
      </trkpt>
      <trkpt lat="44.9377" lon="6.57237">
        <ele>1364.4</ele>
        <time>2022-07-14T10:12:49+0200</time>
      </trkpt>
      <trkpt lat="44.93768" lon="6.57246">
        <ele>1364.4</ele>
        <time>2022-07-14T10:12:50+0200</time>
      </trkpt>
      <trkpt lat="44.93767" lon="6.57255">
        <ele>1364.2</ele>
        <time>2022-07-14T10:12:51+0200</time>
      </trkpt>
      <trkpt lat="44.93765" lon="6.57262">
        <ele>1364</ele>
        <time>2022-07-14T10:12:52+0200</time>
      </trkpt>
      <trkpt lat="44.93764" lon="6.57269">
        <ele>1363.8</ele>
        <time>2022-07-14T10:12:53+0200</time>
      </trkpt>
      <trkpt lat="44.93764" lon="6.57276">
        <ele>1363.6</ele>
        <time>2022-07-14T10:12:55+0200</time>
      </trkpt>
      <trkpt lat="44.9376" lon="6.57285">
        <ele>1363.6</ele>
        <time>2022-07-14T10:12:57+0200</time>
      </trkpt>
      <trkpt lat="44.93761" lon="6.57293">
        <ele>1363.6</ele>
        <time>2022-07-14T10:12:58+0200</time>
      </trkpt>
      <trkpt lat="44.93761" lon="6.57306">
        <ele>1363.6</ele>
        <time>2022-07-14T10:13:00+0200</time>
      </trkpt>
      <trkpt lat="44.93764" lon="6.57317">
        <ele>1363.5</ele>
        <time>2022-07-14T10:13:02+0200</time>
      </trkpt>
      <trkpt lat="44.93763" lon="6.57326">
        <ele>1363.5</ele>
        <time>2022-07-14T10:13:04+0200</time>
      </trkpt>
      <trkpt lat="44.93761" lon="6.57331">
        <ele>1363.6</ele>
        <time>2022-07-14T10:13:05+0200</time>
      </trkpt>
      <trkpt lat="44.9376" lon="6.57344">
        <ele>1363.6</ele>
        <time>2022-07-14T10:13:07+0200</time>
      </trkpt>
      <trkpt lat="44.9376" lon="6.57352">
        <ele>1363.7</ele>
        <time>2022-07-14T10:13:08+0200</time>
      </trkpt>
      <trkpt lat="44.93755" lon="6.57361">
        <ele>1363.8</ele>
        <time>2022-07-14T10:13:10+0200</time>
      </trkpt>
      <trkpt lat="44.93753" lon="6.57372">
        <ele>1363.5</ele>
        <time>2022-07-14T10:13:12+0200</time>
      </trkpt>
      <trkpt lat="44.93751" lon="6.57379">
        <ele>1363.3</ele>
        <time>2022-07-14T10:13:13+0200</time>
      </trkpt>
      <trkpt lat="44.93751" lon="6.57386">
        <ele>1363.1</ele>
        <time>2022-07-14T10:13:14+0200</time>
      </trkpt>
      <trkpt lat="44.93754" lon="6.57393">
        <ele>1362.9</ele>
        <time>2022-07-14T10:13:15+0200</time>
      </trkpt>
      <trkpt lat="44.93757" lon="6.57403">
        <ele>1362.7</ele>
        <time>2022-07-14T10:13:17+0200</time>
      </trkpt>
      <trkpt lat="44.93761" lon="6.5741">
        <ele>1362.6</ele>
        <time>2022-07-14T10:13:18+0200</time>
      </trkpt>
      <trkpt lat="44.93761" lon="6.57422">
        <ele>1362.4</ele>
        <time>2022-07-14T10:13:20+0200</time>
      </trkpt>
      <trkpt lat="44.93756" lon="6.57427">
        <ele>1362.4</ele>
        <time>2022-07-14T10:13:21+0200</time>
      </trkpt>
      <trkpt lat="44.93752" lon="6.5743">
        <ele>1362.5</ele>
        <time>2022-07-14T10:13:22+0200</time>
      </trkpt>
      <trkpt lat="44.93747" lon="6.57434">
        <ele>1362.6</ele>
        <time>2022-07-14T10:13:23+0200</time>
      </trkpt>
      <trkpt lat="44.93744" lon="6.57438">
        <ele>1362.7</ele>
        <time>2022-07-14T10:13:24+0200</time>
      </trkpt>
      <trkpt lat="44.9374" lon="6.57444">
        <ele>1362.7</ele>
        <time>2022-07-14T10:13:26+0200</time>
      </trkpt>
      <trkpt lat="44.9374" lon="6.57451">
        <ele>1362.2</ele>
        <time>2022-07-14T10:13:29+0200</time>
      </trkpt>
      <trkpt lat="44.93741" lon="6.57457">
        <ele>1361.7</ele>
        <time>2022-07-14T10:13:31+0200</time>
      </trkpt>
      <trkpt lat="44.93738" lon="6.57466">
        <ele>1361.3</ele>
        <time>2022-07-14T10:13:33+0200</time>
      </trkpt>
      <trkpt lat="44.9373" lon="6.57475">
        <ele>1361.3</ele>
        <time>2022-07-14T10:13:35+0200</time>
      </trkpt>
      <trkpt lat="44.93726" lon="6.5748">
        <ele>1361.2</ele>
        <time>2022-07-14T10:13:36+0200</time>
      </trkpt>
      <trkpt lat="44.93723" lon="6.57485">
        <ele>1361.1</ele>
        <time>2022-07-14T10:13:37+0200</time>
      </trkpt>
      <trkpt lat="44.9372" lon="6.57491">
        <ele>1360.9</ele>
        <time>2022-07-14T10:13:38+0200</time>
      </trkpt>
      <trkpt lat="44.93718" lon="6.57498">
        <ele>1360.8</ele>
        <time>2022-07-14T10:13:39+0200</time>
      </trkpt>
      <trkpt lat="44.93714" lon="6.57502">
        <ele>1361.1</ele>
        <time>2022-07-14T10:13:40+0200</time>
      </trkpt>
      <trkpt lat="44.9371" lon="6.57507">
        <ele>1361.1</ele>
        <time>2022-07-14T10:13:41+0200</time>
      </trkpt>
      <trkpt lat="44.93706" lon="6.57513">
        <ele>1361.2</ele>
        <time>2022-07-14T10:13:42+0200</time>
      </trkpt>
      <trkpt lat="44.93698" lon="6.5752">
        <ele>1361.3</ele>
        <time>2022-07-14T10:13:44+0200</time>
      </trkpt>
      <trkpt lat="44.93695" lon="6.57526">
        <ele>1361.1</ele>
        <time>2022-07-14T10:13:45+0200</time>
      </trkpt>
      <trkpt lat="44.93692" lon="6.57533">
        <ele>1361</ele>
        <time>2022-07-14T10:13:46+0200</time>
      </trkpt>
      <trkpt lat="44.93688" lon="6.57538">
        <ele>1361.1</ele>
        <time>2022-07-14T10:13:47+0200</time>
      </trkpt>
      <trkpt lat="44.93684" lon="6.57546">
        <ele>1361.2</ele>
        <time>2022-07-14T10:13:48+0200</time>
      </trkpt>
      <trkpt lat="44.9368" lon="6.57554">
        <ele>1361.4</ele>
        <time>2022-07-14T10:13:49+0200</time>
      </trkpt>
      <trkpt lat="44.93675" lon="6.5756">
        <ele>1361.7</ele>
        <time>2022-07-14T10:13:49+0200</time>
      </trkpt>
      <trkpt lat="44.93671" lon="6.57566">
        <ele>1362.1</ele>
        <time>2022-07-14T10:13:51+0200</time>
      </trkpt>
      <trkpt lat="44.93667" lon="6.57572">
        <ele>1362.1</ele>
        <time>2022-07-14T10:13:52+0200</time>
      </trkpt>
      <trkpt lat="44.93664" lon="6.57579">
        <ele>1362.2</ele>
        <time>2022-07-14T10:13:53+0200</time>
      </trkpt>
      <trkpt lat="44.93661" lon="6.57587">
        <ele>1362.3</ele>
        <time>2022-07-14T10:13:54+0200</time>
      </trkpt>
      <trkpt lat="44.9366" lon="6.57594">
        <ele>1362</ele>
        <time>2022-07-14T10:13:55+0200</time>
      </trkpt>
      <trkpt lat="44.93657" lon="6.57606">
        <ele>1361.8</ele>
        <time>2022-07-14T10:13:57+0200</time>
      </trkpt>
      <trkpt lat="44.93654" lon="6.57611">
        <ele>1362.2</ele>
        <time>2022-07-14T10:13:58+0200</time>
      </trkpt>
      <trkpt lat="44.93652" lon="6.57618">
        <ele>1362.4</ele>
        <time>2022-07-14T10:14:00+0200</time>
      </trkpt>
      <trkpt lat="44.93649" lon="6.57628">
        <ele>1362.6</ele>
        <time>2022-07-14T10:14:02+0200</time>
      </trkpt>
      <trkpt lat="44.93648" lon="6.57634">
        <ele>1362.4</ele>
        <time>2022-07-14T10:14:03+0200</time>
      </trkpt>
      <trkpt lat="44.93646" lon="6.57643">
        <ele>1362.2</ele>
        <time>2022-07-14T10:14:05+0200</time>
      </trkpt>
      <trkpt lat="44.93648" lon="6.57656">
        <ele>1361.4</ele>
        <time>2022-07-14T10:14:07+0200</time>
      </trkpt>
      <trkpt lat="44.93646" lon="6.57666">
        <ele>1361.6</ele>
        <time>2022-07-14T10:14:09+0200</time>
      </trkpt>
      <trkpt lat="44.93643" lon="6.57676">
        <ele>1361.8</ele>
        <time>2022-07-14T10:14:12+0200</time>
      </trkpt>
      <trkpt lat="44.93644" lon="6.57689">
        <ele>1361.2</ele>
        <time>2022-07-14T10:14:14+0200</time>
      </trkpt>
      <trkpt lat="44.93643" lon="6.57696">
        <ele>1361.3</ele>
        <time>2022-07-14T10:14:15+0200</time>
      </trkpt>
      <trkpt lat="44.93644" lon="6.57706">
        <ele>1361.1</ele>
        <time>2022-07-14T10:14:17+0200</time>
      </trkpt>
      <trkpt lat="44.93646" lon="6.57713">
        <ele>1360.8</ele>
        <time>2022-07-14T10:14:20+0200</time>
      </trkpt>
      <trkpt lat="44.93647" lon="6.57721">
        <ele>1360.5</ele>
        <time>2022-07-14T10:14:22+0200</time>
      </trkpt>
      <trkpt lat="44.93648" lon="6.57729">
        <ele>1360.1</ele>
        <time>2022-07-14T10:14:23+0200</time>
      </trkpt>
      <trkpt lat="44.9365" lon="6.5774">
        <ele>1359.6</ele>
        <time>2022-07-14T10:14:25+0200</time>
      </trkpt>
      <trkpt lat="44.93649" lon="6.57746">
        <ele>1359.6</ele>
        <time>2022-07-14T10:14:26+0200</time>
      </trkpt>
      <trkpt lat="44.93649" lon="6.57755">
        <ele>1359.6</ele>
        <time>2022-07-14T10:14:28+0200</time>
      </trkpt>
      <trkpt lat="44.9365" lon="6.57763">
        <ele>1359.7</ele>
        <time>2022-07-14T10:14:30+0200</time>
      </trkpt>
      <trkpt lat="44.93649" lon="6.5777">
        <ele>1360</ele>
        <time>2022-07-14T10:14:32+0200</time>
      </trkpt>
      <trkpt lat="44.93648" lon="6.57781">
        <ele>1360.4</ele>
        <time>2022-07-14T10:14:34+0200</time>
      </trkpt>
      <trkpt lat="44.93648" lon="6.57793">
        <ele>1360.3</ele>
        <time>2022-07-14T10:14:36+0200</time>
      </trkpt>
      <trkpt lat="44.93648" lon="6.57802">
        <ele>1360.3</ele>
        <time>2022-07-14T10:14:37+0200</time>
      </trkpt>
      <trkpt lat="44.93648" lon="6.5781">
        <ele>1360.3</ele>
        <time>2022-07-14T10:14:38+0200</time>
      </trkpt>
      <trkpt lat="44.9365" lon="6.57818">
        <ele>1359.8</ele>
        <time>2022-07-14T10:14:40+0200</time>
      </trkpt>
      <trkpt lat="44.93651" lon="6.57826">
        <ele>1359.4</ele>
        <time>2022-07-14T10:14:42+0200</time>
      </trkpt>
      <trkpt lat="44.93652" lon="6.57833">
        <ele>1359.1</ele>
        <time>2022-07-14T10:14:43+0200</time>
      </trkpt>
      <trkpt lat="44.93654" lon="6.57843">
        <ele>1358.8</ele>
        <time>2022-07-14T10:14:45+0200</time>
      </trkpt>
      <trkpt lat="44.93654" lon="6.57853">
        <ele>1358.9</ele>
        <time>2022-07-14T10:14:47+0200</time>
      </trkpt>
      <trkpt lat="44.9365" lon="6.57861">
        <ele>1359.4</ele>
        <time>2022-07-14T10:14:48+0200</time>
      </trkpt>
      <trkpt lat="44.93648" lon="6.57867">
        <ele>1359.6</ele>
        <time>2022-07-14T10:14:49+0200</time>
      </trkpt>
      <trkpt lat="44.93644" lon="6.57873">
        <ele>1359.9</ele>
        <time>2022-07-14T10:14:50+0200</time>
      </trkpt>
      <trkpt lat="44.93641" lon="6.57882">
        <ele>1360</ele>
        <time>2022-07-14T10:14:51+0200</time>
      </trkpt>
      <trkpt lat="44.93639" lon="6.57888">
        <ele>1360</ele>
        <time>2022-07-14T10:14:52+0200</time>
      </trkpt>
      <trkpt lat="44.93638" lon="6.57898">
        <ele>1359.8</ele>
        <time>2022-07-14T10:14:53+0200</time>
      </trkpt>
      <trkpt lat="44.93636" lon="6.57905">
        <ele>1360</ele>
        <time>2022-07-14T10:14:54+0200</time>
      </trkpt>
      <trkpt lat="44.93635" lon="6.57913">
        <ele>1359.9</ele>
        <time>2022-07-14T10:14:55+0200</time>
      </trkpt>
      <trkpt lat="44.93632" lon="6.57921">
        <ele>1360</ele>
        <time>2022-07-14T10:14:56+0200</time>
      </trkpt>
      <trkpt lat="44.9363" lon="6.57931">
        <ele>1360.2</ele>
        <time>2022-07-14T10:14:57+0200</time>
      </trkpt>
      <trkpt lat="44.93628" lon="6.5794">
        <ele>1360.2</ele>
        <time>2022-07-14T10:14:58+0200</time>
      </trkpt>
      <trkpt lat="44.93627" lon="6.57949">
        <ele>1359.8</ele>
        <time>2022-07-14T10:14:59+0200</time>
      </trkpt>
      <trkpt lat="44.9363" lon="6.57962">
        <ele>1358.5</ele>
        <time>2022-07-14T10:15:00+0200</time>
      </trkpt>
      <trkpt lat="44.93633" lon="6.57974">
        <ele>1357.6</ele>
        <time>2022-07-14T10:15:01+0200</time>
      </trkpt>
      <trkpt lat="44.93633" lon="6.57982">
        <ele>1357</ele>
        <time>2022-07-14T10:15:02+0200</time>
      </trkpt>
      <trkpt lat="44.93632" lon="6.57991">
        <ele>1356.4</ele>
        <time>2022-07-14T10:15:03+0200</time>
      </trkpt>
      <trkpt lat="44.9363" lon="6.58">
        <ele>1356</ele>
        <time>2022-07-14T10:15:04+0200</time>
      </trkpt>
      <trkpt lat="44.9363" lon="6.5801">
        <ele>1355.4</ele>
        <time>2022-07-14T10:15:05+0200</time>
      </trkpt>
      <trkpt lat="44.93631" lon="6.58019">
        <ele>1354.8</ele>
        <time>2022-07-14T10:15:06+0200</time>
      </trkpt>
      <trkpt lat="44.9363" lon="6.58029">
        <ele>1354.3</ele>
        <time>2022-07-14T10:15:07+0200</time>
      </trkpt>
      <trkpt lat="44.93628" lon="6.58035">
        <ele>1354</ele>
        <time>2022-07-14T10:15:08+0200</time>
      </trkpt>
      <trkpt lat="44.93626" lon="6.58041">
        <ele>1353.8</ele>
        <time>2022-07-14T10:15:09+0200</time>
      </trkpt>
      <trkpt lat="44.93624" lon="6.58049">
        <ele>1353.4</ele>
        <time>2022-07-14T10:15:10+0200</time>
      </trkpt>
      <trkpt lat="44.93621" lon="6.58054">
        <ele>1353.1</ele>
        <time>2022-07-14T10:15:11+0200</time>
      </trkpt>
      <trkpt lat="44.93617" lon="6.58059">
        <ele>1353</ele>
        <time>2022-07-14T10:15:12+0200</time>
      </trkpt>
      <trkpt lat="44.93614" lon="6.58066">
        <ele>1353</ele>
        <time>2022-07-14T10:15:13+0200</time>
      </trkpt>
      <trkpt lat="44.93613" lon="6.58074">
        <ele>1353</ele>
        <time>2022-07-14T10:15:14+0200</time>
      </trkpt>
      <trkpt lat="44.93612" lon="6.5808">
        <ele>1353</ele>
        <time>2022-07-14T10:15:15+0200</time>
      </trkpt>
      <trkpt lat="44.93609" lon="6.58088">
        <ele>1353.1</ele>
        <time>2022-07-14T10:15:16+0200</time>
      </trkpt>
      <trkpt lat="44.93608" lon="6.58096">
        <ele>1353.1</ele>
        <time>2022-07-14T10:15:17+0200</time>
      </trkpt>
      <trkpt lat="44.93606" lon="6.58104">
        <ele>1353</ele>
        <time>2022-07-14T10:15:18+0200</time>
      </trkpt>
      <trkpt lat="44.93604" lon="6.5811">
        <ele>1353</ele>
        <time>2022-07-14T10:15:19+0200</time>
      </trkpt>
      <trkpt lat="44.93601" lon="6.58117">
        <ele>1353</ele>
        <time>2022-07-14T10:15:20+0200</time>
      </trkpt>
      <trkpt lat="44.93599" lon="6.58123">
        <ele>1353</ele>
        <time>2022-07-14T10:15:21+0200</time>
      </trkpt>
      <trkpt lat="44.93596" lon="6.58131">
        <ele>1353</ele>
        <time>2022-07-14T10:15:22+0200</time>
      </trkpt>
      <trkpt lat="44.93595" lon="6.5814">
        <ele>1353</ele>
        <time>2022-07-14T10:15:23+0200</time>
      </trkpt>
      <trkpt lat="44.93593" lon="6.58147">
        <ele>1352.7</ele>
        <time>2022-07-14T10:15:24+0200</time>
      </trkpt>
      <trkpt lat="44.93591" lon="6.58154">
        <ele>1352.5</ele>
        <time>2022-07-14T10:15:25+0200</time>
      </trkpt>
      <trkpt lat="44.93588" lon="6.58161">
        <ele>1352.2</ele>
        <time>2022-07-14T10:15:26+0200</time>
      </trkpt>
      <trkpt lat="44.93586" lon="6.58167">
        <ele>1352</ele>
        <time>2022-07-14T10:15:27+0200</time>
      </trkpt>
      <trkpt lat="44.93583" lon="6.58174">
        <ele>1352.1</ele>
        <time>2022-07-14T10:15:28+0200</time>
      </trkpt>
      <trkpt lat="44.9358" lon="6.58182">
        <ele>1352.2</ele>
        <time>2022-07-14T10:15:29+0200</time>
      </trkpt>
      <trkpt lat="44.9358" lon="6.5819">
        <ele>1352.1</ele>
        <time>2022-07-14T10:15:30+0200</time>
      </trkpt>
      <trkpt lat="44.9358" lon="6.58198">
        <ele>1352.1</ele>
        <time>2022-07-14T10:15:31+0200</time>
      </trkpt>
      <trkpt lat="44.93579" lon="6.58207">
        <ele>1352.1</ele>
        <time>2022-07-14T10:15:32+0200</time>
      </trkpt>
      <trkpt lat="44.9358" lon="6.58216">
        <ele>1352</ele>
        <time>2022-07-14T10:15:33+0200</time>
      </trkpt>
      <trkpt lat="44.9358" lon="6.58225">
        <ele>1351.9</ele>
        <time>2022-07-14T10:15:34+0200</time>
      </trkpt>
      <trkpt lat="44.93582" lon="6.58234">
        <ele>1351.6</ele>
        <time>2022-07-14T10:15:35+0200</time>
      </trkpt>
      <trkpt lat="44.93583" lon="6.58242">
        <ele>1351.3</ele>
        <time>2022-07-14T10:15:36+0200</time>
      </trkpt>
      <trkpt lat="44.93584" lon="6.5825">
        <ele>1351</ele>
        <time>2022-07-14T10:15:37+0200</time>
      </trkpt>
      <trkpt lat="44.93583" lon="6.58258">
        <ele>1351</ele>
        <time>2022-07-14T10:15:38+0200</time>
      </trkpt>
      <trkpt lat="44.93584" lon="6.58266">
        <ele>1351</ele>
        <time>2022-07-14T10:15:39+0200</time>
      </trkpt>
      <trkpt lat="44.93583" lon="6.58274">
        <ele>1351</ele>
        <time>2022-07-14T10:15:40+0200</time>
      </trkpt>
      <trkpt lat="44.93583" lon="6.58282">
        <ele>1351.1</ele>
        <time>2022-07-14T10:15:41+0200</time>
      </trkpt>
      <trkpt lat="44.93583" lon="6.58288">
        <ele>1351.4</ele>
        <time>2022-07-14T10:15:42+0200</time>
      </trkpt>
      <trkpt lat="44.93583" lon="6.58296">
        <ele>1351.7</ele>
        <time>2022-07-14T10:15:43+0200</time>
      </trkpt>
      <trkpt lat="44.93582" lon="6.58304">
        <ele>1351.9</ele>
        <time>2022-07-14T10:15:44+0200</time>
      </trkpt>
      <trkpt lat="44.93583" lon="6.58312">
        <ele>1352</ele>
        <time>2022-07-14T10:15:45+0200</time>
      </trkpt>
      <trkpt lat="44.93581" lon="6.58319">
        <ele>1351.9</ele>
        <time>2022-07-14T10:15:46+0200</time>
      </trkpt>
      <trkpt lat="44.93579" lon="6.58327">
        <ele>1351.8</ele>
        <time>2022-07-14T10:15:47+0200</time>
      </trkpt>
      <trkpt lat="44.93577" lon="6.58335">
        <ele>1351.8</ele>
        <time>2022-07-14T10:15:48+0200</time>
      </trkpt>
      <trkpt lat="44.93573" lon="6.58341">
        <ele>1351.6</ele>
        <time>2022-07-14T10:15:49+0200</time>
      </trkpt>
      <trkpt lat="44.93569" lon="6.58346">
        <ele>1351.5</ele>
        <time>2022-07-14T10:15:50+0200</time>
      </trkpt>
      <trkpt lat="44.93564" lon="6.58352">
        <ele>1351.3</ele>
        <time>2022-07-14T10:15:51+0200</time>
      </trkpt>
      <trkpt lat="44.93561" lon="6.58358">
        <ele>1351.2</ele>
        <time>2022-07-14T10:15:52+0200</time>
      </trkpt>
      <trkpt lat="44.93557" lon="6.58362">
        <ele>1351.1</ele>
        <time>2022-07-14T10:15:53+0200</time>
      </trkpt>
      <trkpt lat="44.93553" lon="6.58366">
        <ele>1351.2</ele>
        <time>2022-07-14T10:15:54+0200</time>
      </trkpt>
      <trkpt lat="44.9355" lon="6.58372">
        <ele>1351.3</ele>
        <time>2022-07-14T10:15:55+0200</time>
      </trkpt>
      <trkpt lat="44.93548" lon="6.58377">
        <ele>1351.4</ele>
        <time>2022-07-14T10:15:56+0200</time>
      </trkpt>
      <trkpt lat="44.93548" lon="6.58389">
        <ele>1351.7</ele>
        <time>2022-07-14T10:15:58+0200</time>
      </trkpt>
      <trkpt lat="44.93551" lon="6.58394">
        <ele>1351.8</ele>
        <time>2022-07-14T10:15:59+0200</time>
      </trkpt>
      <trkpt lat="44.93556" lon="6.58397">
        <ele>1352</ele>
        <time>2022-07-14T10:16:00+0200</time>
      </trkpt>
      <trkpt lat="44.93562" lon="6.58404">
        <ele>1352.1</ele>
        <time>2022-07-14T10:16:02+0200</time>
      </trkpt>
      <trkpt lat="44.93566" lon="6.58408">
        <ele>1352.3</ele>
        <time>2022-07-14T10:16:04+0200</time>
      </trkpt>
      <trkpt lat="44.9357" lon="6.58413">
        <ele>1352.4</ele>
        <time>2022-07-14T10:16:06+0200</time>
      </trkpt>
      <trkpt lat="44.93565" lon="6.58418">
        <ele>1352.4</ele>
        <time>2022-07-14T10:16:08+0200</time>
      </trkpt>
      <trkpt lat="44.93559" lon="6.58423">
        <ele>1352.5</ele>
        <time>2022-07-14T10:16:10+0200</time>
      </trkpt>
      <trkpt lat="44.93551" lon="6.58431">
        <ele>1352.9</ele>
        <time>2022-07-14T10:16:12+0200</time>
      </trkpt>
      <trkpt lat="44.93546" lon="6.58432">
        <ele>1353</ele>
        <time>2022-07-14T10:16:13+0200</time>
      </trkpt>
      <trkpt lat="44.93542" lon="6.58432">
        <ele>1352.9</ele>
        <time>2022-07-14T10:16:14+0200</time>
      </trkpt>
      <trkpt lat="44.93537" lon="6.58436">
        <ele>1353.2</ele>
        <time>2022-07-14T10:16:15+0200</time>
      </trkpt>
      <trkpt lat="44.93532" lon="6.58438">
        <ele>1353.3</ele>
        <time>2022-07-14T10:16:16+0200</time>
      </trkpt>
      <trkpt lat="44.93527" lon="6.58438">
        <ele>1353.3</ele>
        <time>2022-07-14T10:16:17+0200</time>
      </trkpt>
      <trkpt lat="44.93519" lon="6.5844">
        <ele>1353.2</ele>
        <time>2022-07-14T10:16:19+0200</time>
      </trkpt>
      <trkpt lat="44.93509" lon="6.58439">
        <ele>1352.9</ele>
        <time>2022-07-14T10:16:21+0200</time>
      </trkpt>
      <trkpt lat="44.93504" lon="6.5844">
        <ele>1352.8</ele>
        <time>2022-07-14T10:16:22+0200</time>
      </trkpt>
      <trkpt lat="44.93496" lon="6.58443">
        <ele>1352.8</ele>
        <time>2022-07-14T10:16:24+0200</time>
      </trkpt>
      <trkpt lat="44.93491" lon="6.58445">
        <ele>1352.7</ele>
        <time>2022-07-14T10:16:25+0200</time>
      </trkpt>
      <trkpt lat="44.93486" lon="6.58447">
        <ele>1352.8</ele>
        <time>2022-07-14T10:16:28+0200</time>
      </trkpt>
      <trkpt lat="44.9348" lon="6.58449">
        <ele>1352.8</ele>
        <time>2022-07-14T10:16:31+0200</time>
      </trkpt>
      <trkpt lat="44.93471" lon="6.58454">
        <ele>1352.9</ele>
        <time>2022-07-14T10:16:33+0200</time>
      </trkpt>
      <trkpt lat="44.93465" lon="6.58457">
        <ele>1353</ele>
        <time>2022-07-14T10:16:34+0200</time>
      </trkpt>
      <trkpt lat="44.93459" lon="6.58458">
        <ele>1352.8</ele>
        <time>2022-07-14T10:16:35+0200</time>
      </trkpt>
      <trkpt lat="44.93451" lon="6.58459">
        <ele>1352.4</ele>
        <time>2022-07-14T10:16:37+0200</time>
      </trkpt>
      <trkpt lat="44.93445" lon="6.58462">
        <ele>1352.3</ele>
        <time>2022-07-14T10:16:38+0200</time>
      </trkpt>
      <trkpt lat="44.9344" lon="6.58467">
        <ele>1352.4</ele>
        <time>2022-07-14T10:16:39+0200</time>
      </trkpt>
      <trkpt lat="44.93433" lon="6.58474">
        <ele>1352.2</ele>
        <time>2022-07-14T10:16:40+0200</time>
      </trkpt>
      <trkpt lat="44.93427" lon="6.58479">
        <ele>1352</ele>
        <time>2022-07-14T10:16:41+0200</time>
      </trkpt>
      <trkpt lat="44.93421" lon="6.58485">
        <ele>1351.8</ele>
        <time>2022-07-14T10:16:42+0200</time>
      </trkpt>
      <trkpt lat="44.93416" lon="6.58489">
        <ele>1351.6</ele>
        <time>2022-07-14T10:16:43+0200</time>
      </trkpt>
      <trkpt lat="44.9341" lon="6.58493">
        <ele>1351.6</ele>
        <time>2022-07-14T10:16:44+0200</time>
      </trkpt>
      <trkpt lat="44.93404" lon="6.58496">
        <ele>1351.5</ele>
        <time>2022-07-14T10:16:45+0200</time>
      </trkpt>
      <trkpt lat="44.934" lon="6.585">
        <ele>1351.4</ele>
        <time>2022-07-14T10:16:46+0200</time>
      </trkpt>
      <trkpt lat="44.93395" lon="6.58502">
        <ele>1351.3</ele>
        <time>2022-07-14T10:16:47+0200</time>
      </trkpt>
      <trkpt lat="44.93391" lon="6.58505">
        <ele>1351.2</ele>
        <time>2022-07-14T10:16:48+0200</time>
      </trkpt>
      <trkpt lat="44.93387" lon="6.58509">
        <ele>1351.3</ele>
        <time>2022-07-14T10:16:49+0200</time>
      </trkpt>
      <trkpt lat="44.93383" lon="6.58512">
        <ele>1351.5</ele>
        <time>2022-07-14T10:16:50+0200</time>
      </trkpt>
      <trkpt lat="44.93376" lon="6.58516">
        <ele>1351.5</ele>
        <time>2022-07-14T10:16:52+0200</time>
      </trkpt>
      <trkpt lat="44.9337" lon="6.58518">
        <ele>1351.4</ele>
        <time>2022-07-14T10:16:54+0200</time>
      </trkpt>
      <trkpt lat="44.93363" lon="6.5852">
        <ele>1351.3</ele>
        <time>2022-07-14T10:16:56+0200</time>
      </trkpt>
      <trkpt lat="44.93357" lon="6.58526">
        <ele>1351.1</ele>
        <time>2022-07-14T10:16:58+0200</time>
      </trkpt>
      <trkpt lat="44.9335" lon="6.58529">
        <ele>1351.1</ele>
        <time>2022-07-14T10:17:00+0200</time>
      </trkpt>
      <trkpt lat="44.93342" lon="6.58533">
        <ele>1351.1</ele>
        <time>2022-07-14T10:17:02+0200</time>
      </trkpt>
      <trkpt lat="44.93333" lon="6.58536">
        <ele>1351.1</ele>
        <time>2022-07-14T10:17:04+0200</time>
      </trkpt>
      <trkpt lat="44.93329" lon="6.5854">
        <ele>1351.7</ele>
        <time>2022-07-14T10:17:05+0200</time>
      </trkpt>
      <trkpt lat="44.93325" lon="6.58543">
        <ele>1352.1</ele>
        <time>2022-07-14T10:17:06+0200</time>
      </trkpt>
      <trkpt lat="44.93321" lon="6.58547">
        <ele>1352.3</ele>
        <time>2022-07-14T10:17:07+0200</time>
      </trkpt>
      <trkpt lat="44.93313" lon="6.58554">
        <ele>1352</ele>
        <time>2022-07-14T10:17:09+0200</time>
      </trkpt>
      <trkpt lat="44.93309" lon="6.58558">
        <ele>1351.7</ele>
        <time>2022-07-14T10:17:10+0200</time>
      </trkpt>
      <trkpt lat="44.93303" lon="6.58562">
        <ele>1352.2</ele>
        <time>2022-07-14T10:17:11+0200</time>
      </trkpt>
      <trkpt lat="44.93296" lon="6.58568">
        <ele>1352.9</ele>
        <time>2022-07-14T10:17:12+0200</time>
      </trkpt>
      <trkpt lat="44.93292" lon="6.58572">
        <ele>1353.1</ele>
        <time>2022-07-14T10:17:13+0200</time>
      </trkpt>
      <trkpt lat="44.93286" lon="6.5858">
        <ele>1352.7</ele>
        <time>2022-07-14T10:17:15+0200</time>
      </trkpt>
      <trkpt lat="44.93281" lon="6.58587">
        <ele>1352.3</ele>
        <time>2022-07-14T10:17:17+0200</time>
      </trkpt>
      <trkpt lat="44.93276" lon="6.58593">
        <ele>1352.2</ele>
        <time>2022-07-14T10:17:19+0200</time>
      </trkpt>
      <trkpt lat="44.93273" lon="6.586">
        <ele>1351.9</ele>
        <time>2022-07-14T10:17:21+0200</time>
      </trkpt>
      <trkpt lat="44.93268" lon="6.58607">
        <ele>1351.7</ele>
        <time>2022-07-14T10:17:23+0200</time>
      </trkpt>
      <trkpt lat="44.93262" lon="6.58615">
        <ele>1351.6</ele>
        <time>2022-07-14T10:17:25+0200</time>
      </trkpt>
      <trkpt lat="44.93266" lon="6.58626">
        <ele>1351.2</ele>
        <time>2022-07-14T10:17:27+0200</time>
      </trkpt>
      <trkpt lat="44.93269" lon="6.58631">
        <ele>1351.3</ele>
        <time>2022-07-14T10:17:28+0200</time>
      </trkpt>
      <trkpt lat="44.93272" lon="6.58639">
        <ele>1351.6</ele>
        <time>2022-07-14T10:17:29+0200</time>
      </trkpt>
      <trkpt lat="44.93274" lon="6.58646">
        <ele>1352</ele>
        <time>2022-07-14T10:17:30+0200</time>
      </trkpt>
      <trkpt lat="44.93275" lon="6.58652">
        <ele>1352.2</ele>
        <time>2022-07-14T10:17:31+0200</time>
      </trkpt>
      <trkpt lat="44.93274" lon="6.58659">
        <ele>1352.4</ele>
        <time>2022-07-14T10:17:32+0200</time>
      </trkpt>
      <trkpt lat="44.93268" lon="6.58667">
        <ele>1352</ele>
        <time>2022-07-14T10:17:34+0200</time>
      </trkpt>
      <trkpt lat="44.93262" lon="6.58675">
        <ele>1351.6</ele>
        <time>2022-07-14T10:17:36+0200</time>
      </trkpt>
      <trkpt lat="44.93255" lon="6.58685">
        <ele>1351.2</ele>
        <time>2022-07-14T10:17:38+0200</time>
      </trkpt>
      <trkpt lat="44.93255" lon="6.58693">
        <ele>1351.4</ele>
        <time>2022-07-14T10:17:39+0200</time>
      </trkpt>
      <trkpt lat="44.93253" lon="6.58702">
        <ele>1351.6</ele>
        <time>2022-07-14T10:17:40+0200</time>
      </trkpt>
      <trkpt lat="44.93253" lon="6.5871">
        <ele>1351.8</ele>
        <time>2022-07-14T10:17:41+0200</time>
      </trkpt>
      <trkpt lat="44.93252" lon="6.58717">
        <ele>1352</ele>
        <time>2022-07-14T10:17:42+0200</time>
      </trkpt>
      <trkpt lat="44.93252" lon="6.58724">
        <ele>1352.2</ele>
        <time>2022-07-14T10:17:43+0200</time>
      </trkpt>
      <trkpt lat="44.93248" lon="6.58734">
        <ele>1352.2</ele>
        <time>2022-07-14T10:17:45+0200</time>
      </trkpt>
      <trkpt lat="44.93242" lon="6.58741">
        <ele>1351.8</ele>
        <time>2022-07-14T10:17:47+0200</time>
      </trkpt>
      <trkpt lat="44.93238" lon="6.58747">
        <ele>1351.6</ele>
        <time>2022-07-14T10:17:49+0200</time>
      </trkpt>
      <trkpt lat="44.93233" lon="6.58754">
        <ele>1351.4</ele>
        <time>2022-07-14T10:17:51+0200</time>
      </trkpt>
      <trkpt lat="44.93227" lon="6.58763">
        <ele>1351.5</ele>
        <time>2022-07-14T10:17:53+0200</time>
      </trkpt>
      <trkpt lat="44.93221" lon="6.58771">
        <ele>1351.4</ele>
        <time>2022-07-14T10:17:55+0200</time>
      </trkpt>
      <trkpt lat="44.93214" lon="6.58778">
        <ele>1351.1</ele>
        <time>2022-07-14T10:17:57+0200</time>
      </trkpt>
      <trkpt lat="44.93209" lon="6.58783">
        <ele>1350.8</ele>
        <time>2022-07-14T10:17:58+0200</time>
      </trkpt>
      <trkpt lat="44.93202" lon="6.58788">
        <ele>1350.1</ele>
        <time>2022-07-14T10:18:00+0200</time>
      </trkpt>
      <trkpt lat="44.93198" lon="6.58793">
        <ele>1350</ele>
        <time>2022-07-14T10:18:01+0200</time>
      </trkpt>
      <trkpt lat="44.93195" lon="6.58802">
        <ele>1349.9</ele>
        <time>2022-07-14T10:18:02+0200</time>
      </trkpt>
      <trkpt lat="44.93191" lon="6.58807">
        <ele>1349.5</ele>
        <time>2022-07-14T10:18:03+0200</time>
      </trkpt>
      <trkpt lat="44.93186" lon="6.58814">
        <ele>1349</ele>
        <time>2022-07-14T10:18:04+0200</time>
      </trkpt>
      <trkpt lat="44.93182" lon="6.5882">
        <ele>1348.4</ele>
        <time>2022-07-14T10:18:05+0200</time>
      </trkpt>
      <trkpt lat="44.93178" lon="6.58829">
        <ele>1347.9</ele>
        <time>2022-07-14T10:18:06+0200</time>
      </trkpt>
      <trkpt lat="44.93175" lon="6.5884">
        <ele>1347.7</ele>
        <time>2022-07-14T10:18:07+0200</time>
      </trkpt>
      <trkpt lat="44.93173" lon="6.5885">
        <ele>1347.7</ele>
        <time>2022-07-14T10:18:08+0200</time>
      </trkpt>
      <trkpt lat="44.93172" lon="6.58859">
        <ele>1347.9</ele>
        <time>2022-07-14T10:18:09+0200</time>
      </trkpt>
      <trkpt lat="44.93171" lon="6.58866">
        <ele>1347.9</ele>
        <time>2022-07-14T10:18:12+0200</time>
      </trkpt>
      <trkpt lat="44.93165" lon="6.58865">
        <ele>1347.2</ele>
        <time>2022-07-14T10:18:14+0200</time>
      </trkpt>
      <trkpt lat="44.9316" lon="6.58868">
        <ele>1347.3</ele>
        <time>2022-07-14T10:18:16+0200</time>
      </trkpt>
      <trkpt lat="44.93155" lon="6.58866">
        <ele>1347.3</ele>
        <time>2022-07-14T10:18:18+0200</time>
      </trkpt>
      <trkpt lat="44.9315" lon="6.58863">
        <ele>1347.5</ele>
        <time>2022-07-14T10:18:20+0200</time>
      </trkpt>
      <trkpt lat="44.93143" lon="6.58871">
        <ele>1347</ele>
        <time>2022-07-14T10:18:22+0200</time>
      </trkpt>
      <trkpt lat="44.93138" lon="6.58878">
        <ele>1346.5</ele>
        <time>2022-07-14T10:18:24+0200</time>
      </trkpt>
      <trkpt lat="44.93134" lon="6.58883">
        <ele>1347</ele>
        <time>2022-07-14T10:18:25+0200</time>
      </trkpt>
      <trkpt lat="44.93131" lon="6.58889">
        <ele>1347</ele>
        <time>2022-07-14T10:18:26+0200</time>
      </trkpt>
      <trkpt lat="44.93127" lon="6.58895">
        <ele>1347.7</ele>
        <time>2022-07-14T10:18:27+0200</time>
      </trkpt>
      <trkpt lat="44.93122" lon="6.58901">
        <ele>1348.2</ele>
        <time>2022-07-14T10:18:29+0200</time>
      </trkpt>
      <trkpt lat="44.93117" lon="6.58909">
        <ele>1348.2</ele>
        <time>2022-07-14T10:18:31+0200</time>
      </trkpt>
      <trkpt lat="44.9311" lon="6.58916">
        <ele>1348.2</ele>
        <time>2022-07-14T10:18:33+0200</time>
      </trkpt>
      <trkpt lat="44.93106" lon="6.58919">
        <ele>1348.6</ele>
        <time>2022-07-14T10:18:34+0200</time>
      </trkpt>
      <trkpt lat="44.93101" lon="6.58923">
        <ele>1348.9</ele>
        <time>2022-07-14T10:18:36+0200</time>
      </trkpt>
      <trkpt lat="44.93096" lon="6.58922">
        <ele>1349.9</ele>
        <time>2022-07-14T10:18:44+0200</time>
      </trkpt>
      <trkpt lat="44.93091" lon="6.58923">
        <ele>1350.7</ele>
        <time>2022-07-14T10:19:14+0200</time>
      </trkpt>
      <trkpt lat="44.93087" lon="6.58921">
        <ele>1351.7</ele>
        <time>2022-07-14T10:20:05+0200</time>
      </trkpt>
      <trkpt lat="44.93092" lon="6.5892">
        <ele>1351</ele>
        <time>2022-07-14T10:21:27+0200</time>
      </trkpt>
      <trkpt lat="44.93087" lon="6.58925">
        <ele>1351.1</ele>
        <time>2022-07-14T10:21:39+0200</time>
      </trkpt>
      <trkpt lat="44.93084" lon="6.58933">
        <ele>1350.6</ele>
        <time>2022-07-14T10:21:41+0200</time>
      </trkpt>
      <trkpt lat="44.93082" lon="6.58941">
        <ele>1349.6</ele>
        <time>2022-07-14T10:21:42+0200</time>
      </trkpt>
      <trkpt lat="44.93082" lon="6.5895">
        <ele>1348.3</ele>
        <time>2022-07-14T10:21:43+0200</time>
      </trkpt>
      <trkpt lat="44.9308" lon="6.58957">
        <ele>1347.6</ele>
        <time>2022-07-14T10:21:44+0200</time>
      </trkpt>
      <trkpt lat="44.93077" lon="6.58963">
        <ele>1347.3</ele>
        <time>2022-07-14T10:21:45+0200</time>
      </trkpt>
      <trkpt lat="44.93071" lon="6.58971">
        <ele>1347</ele>
        <time>2022-07-14T10:21:46+0200</time>
      </trkpt>
      <trkpt lat="44.93065" lon="6.58976">
        <ele>1347</ele>
        <time>2022-07-14T10:21:47+0200</time>
      </trkpt>
      <trkpt lat="44.93062" lon="6.58981">
        <ele>1346.7</ele>
        <time>2022-07-14T10:21:48+0200</time>
      </trkpt>
      <trkpt lat="44.93056" lon="6.58988">
        <ele>1346.1</ele>
        <time>2022-07-14T10:21:50+0200</time>
      </trkpt>
      <trkpt lat="44.93052" lon="6.58991">
        <ele>1346.1</ele>
        <time>2022-07-14T10:21:52+0200</time>
      </trkpt>
      <trkpt lat="44.93045" lon="6.58994">
        <ele>1346.5</ele>
        <time>2022-07-14T10:21:56+0200</time>
      </trkpt>
      <trkpt lat="44.9304" lon="6.58996">
        <ele>1347</ele>
        <time>2022-07-14T10:21:59+0200</time>
      </trkpt>
      <trkpt lat="44.93033" lon="6.58996">
        <ele>1347.8</ele>
        <time>2022-07-14T10:22:02+0200</time>
      </trkpt>
      <trkpt lat="44.93026" lon="6.58998">
        <ele>1348.6</ele>
        <time>2022-07-14T10:22:04+0200</time>
      </trkpt>
      <trkpt lat="44.93019" lon="6.59005">
        <ele>1348.7</ele>
        <time>2022-07-14T10:22:06+0200</time>
      </trkpt>
      <trkpt lat="44.93011" lon="6.59011">
        <ele>1349</ele>
        <time>2022-07-14T10:22:08+0200</time>
      </trkpt>
      <trkpt lat="44.93005" lon="6.59015">
        <ele>1349.5</ele>
        <time>2022-07-14T10:22:09+0200</time>
      </trkpt>
      <trkpt lat="44.92996" lon="6.5902">
        <ele>1350.2</ele>
        <time>2022-07-14T10:22:10+0200</time>
      </trkpt>
      <trkpt lat="44.92986" lon="6.59026">
        <ele>1350.9</ele>
        <time>2022-07-14T10:22:11+0200</time>
      </trkpt>
      <trkpt lat="44.92979" lon="6.59031">
        <ele>1351.2</ele>
        <time>2022-07-14T10:22:12+0200</time>
      </trkpt>
      <trkpt lat="44.9297" lon="6.59033">
        <ele>1352.3</ele>
        <time>2022-07-14T10:22:13+0200</time>
      </trkpt>
      <trkpt lat="44.92964" lon="6.59036">
        <ele>1353.4</ele>
        <time>2022-07-14T10:22:14+0200</time>
      </trkpt>
      <trkpt lat="44.92957" lon="6.59038">
        <ele>1354.3</ele>
        <time>2022-07-14T10:22:15+0200</time>
      </trkpt>
      <trkpt lat="44.92953" lon="6.59042">
        <ele>1354.4</ele>
        <time>2022-07-14T10:22:15+0200</time>
      </trkpt>
      <trkpt lat="44.92947" lon="6.59049">
        <ele>1354.1</ele>
        <time>2022-07-14T10:22:17+0200</time>
      </trkpt>
      <trkpt lat="44.92941" lon="6.59056">
        <ele>1353.6</ele>
        <time>2022-07-14T10:22:19+0200</time>
      </trkpt>
      <trkpt lat="44.92935" lon="6.59061">
        <ele>1353.4</ele>
        <time>2022-07-14T10:22:20+0200</time>
      </trkpt>
      <trkpt lat="44.92932" lon="6.59067">
        <ele>1352.6</ele>
        <time>2022-07-14T10:22:21+0200</time>
      </trkpt>
      <trkpt lat="44.92927" lon="6.59075">
        <ele>1351.8</ele>
        <time>2022-07-14T10:22:22+0200</time>
      </trkpt>
      <trkpt lat="44.92923" lon="6.59078">
        <ele>1351.9</ele>
        <time>2022-07-14T10:22:23+0200</time>
      </trkpt>
      <trkpt lat="44.92919" lon="6.59089">
        <ele>1350.3</ele>
        <time>2022-07-14T10:22:25+0200</time>
      </trkpt>
      <trkpt lat="44.92916" lon="6.59096">
        <ele>1349.5</ele>
        <time>2022-07-14T10:22:26+0200</time>
      </trkpt>
      <trkpt lat="44.92913" lon="6.59104">
        <ele>1348.3</ele>
        <time>2022-07-14T10:22:27+0200</time>
      </trkpt>
      <trkpt lat="44.9291" lon="6.59109">
        <ele>1348</ele>
        <time>2022-07-14T10:22:28+0200</time>
      </trkpt>
      <trkpt lat="44.92904" lon="6.59115">
        <ele>1348.6</ele>
        <time>2022-07-14T10:22:30+0200</time>
      </trkpt>
      <trkpt lat="44.92902" lon="6.59122">
        <ele>1347.9</ele>
        <time>2022-07-14T10:22:31+0200</time>
      </trkpt>
      <trkpt lat="44.92898" lon="6.59132">
        <ele>1346.9</ele>
        <time>2022-07-14T10:22:32+0200</time>
      </trkpt>
      <trkpt lat="44.92894" lon="6.59139">
        <ele>1346.6</ele>
        <time>2022-07-14T10:22:33+0200</time>
      </trkpt>
      <trkpt lat="44.9289" lon="6.59147">
        <ele>1346</ele>
        <time>2022-07-14T10:22:34+0200</time>
      </trkpt>
      <trkpt lat="44.92886" lon="6.59154">
        <ele>1345.5</ele>
        <time>2022-07-14T10:22:35+0200</time>
      </trkpt>
      <trkpt lat="44.92883" lon="6.59161">
        <ele>1345.1</ele>
        <time>2022-07-14T10:22:36+0200</time>
      </trkpt>
      <trkpt lat="44.92881" lon="6.5917">
        <ele>1344.1</ele>
        <time>2022-07-14T10:22:37+0200</time>
      </trkpt>
      <trkpt lat="44.92878" lon="6.59181">
        <ele>1342.9</ele>
        <time>2022-07-14T10:22:38+0200</time>
      </trkpt>
      <trkpt lat="44.92873" lon="6.59188">
        <ele>1342.7</ele>
        <time>2022-07-14T10:22:39+0200</time>
      </trkpt>
      <trkpt lat="44.9287" lon="6.59195">
        <ele>1342.4</ele>
        <time>2022-07-14T10:22:40+0200</time>
      </trkpt>
      <trkpt lat="44.92864" lon="6.59205">
        <ele>1342.3</ele>
        <time>2022-07-14T10:22:41+0200</time>
      </trkpt>
      <trkpt lat="44.92859" lon="6.59211">
        <ele>1342.6</ele>
        <time>2022-07-14T10:22:42+0200</time>
      </trkpt>
      <trkpt lat="44.92854" lon="6.59217">
        <ele>1343.2</ele>
        <time>2022-07-14T10:22:43+0200</time>
      </trkpt>
      <trkpt lat="44.92849" lon="6.59221">
        <ele>1344.3</ele>
        <time>2022-07-14T10:22:44+0200</time>
      </trkpt>
      <trkpt lat="44.92841" lon="6.59224">
        <ele>1346</ele>
        <time>2022-07-14T10:22:46+0200</time>
      </trkpt>
      <trkpt lat="44.92835" lon="6.59226">
        <ele>1347.7</ele>
        <time>2022-07-14T10:22:48+0200</time>
      </trkpt>
      <trkpt lat="44.92831" lon="6.59234">
        <ele>1347.6</ele>
        <time>2022-07-14T10:22:50+0200</time>
      </trkpt>
      <trkpt lat="44.92825" lon="6.59238">
        <ele>1348.8</ele>
        <time>2022-07-14T10:22:52+0200</time>
      </trkpt>
      <trkpt lat="44.9282" lon="6.59242">
        <ele>1349.6</ele>
        <time>2022-07-14T10:22:55+0200</time>
      </trkpt>
      <trkpt lat="44.92813" lon="6.59247">
        <ele>1351.1</ele>
        <time>2022-07-14T10:22:57+0200</time>
      </trkpt>
      <trkpt lat="44.92805" lon="6.59252">
        <ele>1352.7</ele>
        <time>2022-07-14T10:22:59+0200</time>
      </trkpt>
      <trkpt lat="44.92802" lon="6.59258">
        <ele>1352.2</ele>
        <time>2022-07-14T10:23:01+0200</time>
      </trkpt>
      <trkpt lat="44.92796" lon="6.59264">
        <ele>1353.3</ele>
        <time>2022-07-14T10:23:03+0200</time>
      </trkpt>
      <trkpt lat="44.9279" lon="6.5927">
        <ele>1353.7</ele>
        <time>2022-07-14T10:23:05+0200</time>
      </trkpt>
      <trkpt lat="44.92785" lon="6.59273">
        <ele>1354.8</ele>
        <time>2022-07-14T10:23:06+0200</time>
      </trkpt>
      <trkpt lat="44.92778" lon="6.59278">
        <ele>1355.7</ele>
        <time>2022-07-14T10:23:08+0200</time>
      </trkpt>
      <trkpt lat="44.92774" lon="6.59285">
        <ele>1355.7</ele>
        <time>2022-07-14T10:23:10+0200</time>
      </trkpt>
      <trkpt lat="44.9277" lon="6.59289">
        <ele>1356.2</ele>
        <time>2022-07-14T10:23:11+0200</time>
      </trkpt>
      <trkpt lat="44.92767" lon="6.59296">
        <ele>1355.6</ele>
        <time>2022-07-14T10:23:12+0200</time>
      </trkpt>
      <trkpt lat="44.92763" lon="6.59302">
        <ele>1355.2</ele>
        <time>2022-07-14T10:23:13+0200</time>
      </trkpt>
      <trkpt lat="44.92759" lon="6.59309">
        <ele>1354.9</ele>
        <time>2022-07-14T10:23:14+0200</time>
      </trkpt>
      <trkpt lat="44.92754" lon="6.59315">
        <ele>1354.9</ele>
        <time>2022-07-14T10:23:15+0200</time>
      </trkpt>
      <trkpt lat="44.9275" lon="6.59317">
        <ele>1355.9</ele>
        <time>2022-07-14T10:23:16+0200</time>
      </trkpt>
      <trkpt lat="44.92745" lon="6.59321">
        <ele>1356.4</ele>
        <time>2022-07-14T10:23:17+0200</time>
      </trkpt>
      <trkpt lat="44.92737" lon="6.59325">
        <ele>1357.6</ele>
        <time>2022-07-14T10:23:19+0200</time>
      </trkpt>
      <trkpt lat="44.92734" lon="6.59332">
        <ele>1356.6</ele>
        <time>2022-07-14T10:23:22+0200</time>
      </trkpt>
      <trkpt lat="44.92731" lon="6.59338">
        <ele>1355.7</ele>
        <time>2022-07-14T10:23:24+0200</time>
      </trkpt>
      <trkpt lat="44.9273" lon="6.59347">
        <ele>1354</ele>
        <time>2022-07-14T10:23:26+0200</time>
      </trkpt>
      <trkpt lat="44.92728" lon="6.59354">
        <ele>1352.8</ele>
        <time>2022-07-14T10:23:29+0200</time>
      </trkpt>
      <trkpt lat="44.92728" lon="6.59361">
        <ele>1350.8</ele>
        <time>2022-07-14T10:23:31+0200</time>
      </trkpt>
      <trkpt lat="44.92727" lon="6.59368">
        <ele>1349.7</ele>
        <time>2022-07-14T10:23:34+0200</time>
      </trkpt>
      <trkpt lat="44.92722" lon="6.5937">
        <ele>1351</ele>
        <time>2022-07-14T10:23:36+0200</time>
      </trkpt>
      <trkpt lat="44.92718" lon="6.59375">
        <ele>1351.2</ele>
        <time>2022-07-14T10:23:39+0200</time>
      </trkpt>
      <trkpt lat="44.92712" lon="6.59379">
        <ele>1352.3</ele>
        <time>2022-07-14T10:23:43+0200</time>
      </trkpt>
      <trkpt lat="44.92707" lon="6.59384">
        <ele>1352.9</ele>
        <time>2022-07-14T10:23:47+0200</time>
      </trkpt>
      <trkpt lat="44.92703" lon="6.5939">
        <ele>1352.9</ele>
        <time>2022-07-14T10:23:49+0200</time>
      </trkpt>
      <trkpt lat="44.927" lon="6.59396">
        <ele>1352</ele>
        <time>2022-07-14T10:23:52+0200</time>
      </trkpt>
      <trkpt lat="44.92695" lon="6.59401">
        <ele>1352.4</ele>
        <time>2022-07-14T10:23:55+0200</time>
      </trkpt>
      <trkpt lat="44.9269" lon="6.59404">
        <ele>1353</ele>
        <time>2022-07-14T10:23:58+0200</time>
      </trkpt>
      <trkpt lat="44.92687" lon="6.5941">
        <ele>1352.4</ele>
        <time>2022-07-14T10:24:02+0200</time>
      </trkpt>
      <trkpt lat="44.92684" lon="6.59415">
        <ele>1352.4</ele>
        <time>2022-07-14T10:24:04+0200</time>
      </trkpt>
      <trkpt lat="44.9268" lon="6.5942">
        <ele>1352.3</ele>
        <time>2022-07-14T10:24:06+0200</time>
      </trkpt>
      <trkpt lat="44.92674" lon="6.59424">
        <ele>1353.7</ele>
        <time>2022-07-14T10:24:08+0200</time>
      </trkpt>
      <trkpt lat="44.92669" lon="6.59428">
        <ele>1354.4</ele>
        <time>2022-07-14T10:24:10+0200</time>
      </trkpt>
      <trkpt lat="44.92665" lon="6.59434">
        <ele>1354.4</ele>
        <time>2022-07-14T10:24:12+0200</time>
      </trkpt>
      <trkpt lat="44.92661" lon="6.59439">
        <ele>1354.4</ele>
        <time>2022-07-14T10:24:14+0200</time>
      </trkpt>
      <trkpt lat="44.92656" lon="6.59441">
        <ele>1355.9</ele>
        <time>2022-07-14T10:24:16+0200</time>
      </trkpt>
      <trkpt lat="44.92651" lon="6.59447">
        <ele>1356.5</ele>
        <time>2022-07-14T10:24:19+0200</time>
      </trkpt>
      <trkpt lat="44.92647" lon="6.59453">
        <ele>1356.7</ele>
        <time>2022-07-14T10:24:22+0200</time>
      </trkpt>
      <trkpt lat="44.92644" lon="6.59458">
        <ele>1357.3</ele>
        <time>2022-07-14T10:24:25+0200</time>
      </trkpt>
      <trkpt lat="44.9264" lon="6.59464">
        <ele>1357.5</ele>
        <time>2022-07-14T10:24:28+0200</time>
      </trkpt>
      <trkpt lat="44.92636" lon="6.59469">
        <ele>1357.9</ele>
        <time>2022-07-14T10:24:30+0200</time>
      </trkpt>
      <trkpt lat="44.92631" lon="6.59473">
        <ele>1359</ele>
        <time>2022-07-14T10:24:33+0200</time>
      </trkpt>
      <trkpt lat="44.92626" lon="6.59478">
        <ele>1360.2</ele>
        <time>2022-07-14T10:24:37+0200</time>
      </trkpt>
      <trkpt lat="44.92621" lon="6.59484">
        <ele>1360.4</ele>
        <time>2022-07-14T10:24:41+0200</time>
      </trkpt>
      <trkpt lat="44.92616" lon="6.59486">
        <ele>1362</ele>
        <time>2022-07-14T10:24:43+0200</time>
      </trkpt>
      <trkpt lat="44.92611" lon="6.59492">
        <ele>1362.8</ele>
        <time>2022-07-14T10:24:46+0200</time>
      </trkpt>
      <trkpt lat="44.92608" lon="6.59497">
        <ele>1362.6</ele>
        <time>2022-07-14T10:24:49+0200</time>
      </trkpt>
      <trkpt lat="44.92604" lon="6.59501">
        <ele>1363.4</ele>
        <time>2022-07-14T10:24:53+0200</time>
      </trkpt>
      <trkpt lat="44.92599" lon="6.59501">
        <ele>1365</ele>
        <time>2022-07-14T10:24:56+0200</time>
      </trkpt>
      <trkpt lat="44.92595" lon="6.59504">
        <ele>1366.3</ele>
        <time>2022-07-14T10:24:59+0200</time>
      </trkpt>
      <trkpt lat="44.9259" lon="6.59507">
        <ele>1367.2</ele>
        <time>2022-07-14T10:25:02+0200</time>
      </trkpt>
      <trkpt lat="44.92587" lon="6.59512">
        <ele>1367.5</ele>
        <time>2022-07-14T10:25:08+0200</time>
      </trkpt>
      <trkpt lat="44.92584" lon="6.59516">
        <ele>1368</ele>
        <time>2022-07-14T10:25:12+0200</time>
      </trkpt>
      <trkpt lat="44.9258" lon="6.59521">
        <ele>1368.5</ele>
        <time>2022-07-14T10:25:15+0200</time>
      </trkpt>
      <trkpt lat="44.92575" lon="6.59525">
        <ele>1369.4</ele>
        <time>2022-07-14T10:25:17+0200</time>
      </trkpt>
      <trkpt lat="44.92569" lon="6.59528">
        <ele>1371.1</ele>
        <time>2022-07-14T10:25:19+0200</time>
      </trkpt>
      <trkpt lat="44.92564" lon="6.59532">
        <ele>1372.3</ele>
        <time>2022-07-14T10:25:21+0200</time>
      </trkpt>
      <trkpt lat="44.92559" lon="6.59534">
        <ele>1373.8</ele>
        <time>2022-07-14T10:25:23+0200</time>
      </trkpt>
      <trkpt lat="44.92554" lon="6.59538">
        <ele>1374.6</ele>
        <time>2022-07-14T10:25:25+0200</time>
      </trkpt>
      <trkpt lat="44.92549" lon="6.59542">
        <ele>1375.4</ele>
        <time>2022-07-14T10:25:28+0200</time>
      </trkpt>
      <trkpt lat="44.92543" lon="6.59545">
        <ele>1376.5</ele>
        <time>2022-07-14T10:25:31+0200</time>
      </trkpt>
      <trkpt lat="44.92538" lon="6.59549">
        <ele>1377.5</ele>
        <time>2022-07-14T10:25:33+0200</time>
      </trkpt>
      <trkpt lat="44.92534" lon="6.59552">
        <ele>1378.1</ele>
        <time>2022-07-14T10:25:35+0200</time>
      </trkpt>
      <trkpt lat="44.92528" lon="6.59552">
        <ele>1379.6</ele>
        <time>2022-07-14T10:25:37+0200</time>
      </trkpt>
      <trkpt lat="44.92523" lon="6.59553">
        <ele>1381</ele>
        <time>2022-07-14T10:25:40+0200</time>
      </trkpt>
      <trkpt lat="44.92518" lon="6.59557">
        <ele>1381.5</ele>
        <time>2022-07-14T10:25:43+0200</time>
      </trkpt>
      <trkpt lat="44.92512" lon="6.5956">
        <ele>1382.7</ele>
        <time>2022-07-14T10:25:47+0200</time>
      </trkpt>
      <trkpt lat="44.92508" lon="6.59564">
        <ele>1383.2</ele>
        <time>2022-07-14T10:25:49+0200</time>
      </trkpt>
      <trkpt lat="44.92504" lon="6.59569">
        <ele>1383.3</ele>
        <time>2022-07-14T10:25:51+0200</time>
      </trkpt>
      <trkpt lat="44.92498" lon="6.59573">
        <ele>1384.4</ele>
        <time>2022-07-14T10:25:54+0200</time>
      </trkpt>
      <trkpt lat="44.92494" lon="6.59576">
        <ele>1385</ele>
        <time>2022-07-14T10:25:56+0200</time>
      </trkpt>
      <trkpt lat="44.9249" lon="6.59577">
        <ele>1385.9</ele>
        <time>2022-07-14T10:25:58+0200</time>
      </trkpt>
      <trkpt lat="44.92486" lon="6.5958">
        <ele>1386.2</ele>
        <time>2022-07-14T10:26:00+0200</time>
      </trkpt>
      <trkpt lat="44.9248" lon="6.59583">
        <ele>1387.2</ele>
        <time>2022-07-14T10:26:03+0200</time>
      </trkpt>
      <trkpt lat="44.92475" lon="6.59588">
        <ele>1387.4</ele>
        <time>2022-07-14T10:26:05+0200</time>
      </trkpt>
      <trkpt lat="44.92473" lon="6.59594">
        <ele>1386.8</ele>
        <time>2022-07-14T10:26:07+0200</time>
      </trkpt>
      <trkpt lat="44.92469" lon="6.596">
        <ele>1387.1</ele>
        <time>2022-07-14T10:26:10+0200</time>
      </trkpt>
      <trkpt lat="44.92463" lon="6.59604">
        <ele>1387.7</ele>
        <time>2022-07-14T10:26:13+0200</time>
      </trkpt>
      <trkpt lat="44.9246" lon="6.5961">
        <ele>1387.5</ele>
        <time>2022-07-14T10:26:16+0200</time>
      </trkpt>
      <trkpt lat="44.92456" lon="6.59614">
        <ele>1387.8</ele>
        <time>2022-07-14T10:26:19+0200</time>
      </trkpt>
      <trkpt lat="44.92454" lon="6.5962">
        <ele>1387.4</ele>
        <time>2022-07-14T10:26:21+0200</time>
      </trkpt>
      <trkpt lat="44.92451" lon="6.59627">
        <ele>1387</ele>
        <time>2022-07-14T10:26:24+0200</time>
      </trkpt>
      <trkpt lat="44.92446" lon="6.59631">
        <ele>1387.8</ele>
        <time>2022-07-14T10:26:27+0200</time>
      </trkpt>
      <trkpt lat="44.92442" lon="6.59636">
        <ele>1388</ele>
        <time>2022-07-14T10:26:30+0200</time>
      </trkpt>
      <trkpt lat="44.92437" lon="6.59639">
        <ele>1389.1</ele>
        <time>2022-07-14T10:26:32+0200</time>
      </trkpt>
      <trkpt lat="44.92434" lon="6.59644">
        <ele>1389.8</ele>
        <time>2022-07-14T10:26:34+0200</time>
      </trkpt>
      <trkpt lat="44.9243" lon="6.59647">
        <ele>1390.6</ele>
        <time>2022-07-14T10:26:36+0200</time>
      </trkpt>
      <trkpt lat="44.92426" lon="6.59653">
        <ele>1391.2</ele>
        <time>2022-07-14T10:26:38+0200</time>
      </trkpt>
      <trkpt lat="44.92422" lon="6.59659">
        <ele>1392.1</ele>
        <time>2022-07-14T10:26:41+0200</time>
      </trkpt>
      <trkpt lat="44.92417" lon="6.59664">
        <ele>1393.2</ele>
        <time>2022-07-14T10:26:44+0200</time>
      </trkpt>
      <trkpt lat="44.92414" lon="6.59671">
        <ele>1393.7</ele>
        <time>2022-07-14T10:26:47+0200</time>
      </trkpt>
      <trkpt lat="44.92409" lon="6.59677">
        <ele>1395.1</ele>
        <time>2022-07-14T10:26:50+0200</time>
      </trkpt>
      <trkpt lat="44.92404" lon="6.59685">
        <ele>1396.3</ele>
        <time>2022-07-14T10:26:52+0200</time>
      </trkpt>
      <trkpt lat="44.92401" lon="6.59693">
        <ele>1396.6</ele>
        <time>2022-07-14T10:26:55+0200</time>
      </trkpt>
      <trkpt lat="44.92399" lon="6.59699">
        <ele>1397.2</ele>
        <time>2022-07-14T10:26:57+0200</time>
      </trkpt>
      <trkpt lat="44.92397" lon="6.59705">
        <ele>1397.5</ele>
        <time>2022-07-14T10:26:59+0200</time>
      </trkpt>
      <trkpt lat="44.92396" lon="6.59713">
        <ele>1397.2</ele>
        <time>2022-07-14T10:27:01+0200</time>
      </trkpt>
      <trkpt lat="44.92393" lon="6.59722">
        <ele>1397.7</ele>
        <time>2022-07-14T10:27:04+0200</time>
      </trkpt>
      <trkpt lat="44.92391" lon="6.5973">
        <ele>1397.8</ele>
        <time>2022-07-14T10:27:06+0200</time>
      </trkpt>
      <trkpt lat="44.92389" lon="6.59737">
        <ele>1398.1</ele>
        <time>2022-07-14T10:27:08+0200</time>
      </trkpt>
      <trkpt lat="44.92385" lon="6.59742">
        <ele>1398.9</ele>
        <time>2022-07-14T10:27:10+0200</time>
      </trkpt>
      <trkpt lat="44.92383" lon="6.5975">
        <ele>1399.1</ele>
        <time>2022-07-14T10:27:12+0200</time>
      </trkpt>
      <trkpt lat="44.9238" lon="6.59757">
        <ele>1399.3</ele>
        <time>2022-07-14T10:27:15+0200</time>
      </trkpt>
      <trkpt lat="44.92379" lon="6.59765">
        <ele>1398.9</ele>
        <time>2022-07-14T10:27:17+0200</time>
      </trkpt>
      <trkpt lat="44.92376" lon="6.59771">
        <ele>1399.2</ele>
        <time>2022-07-14T10:27:19+0200</time>
      </trkpt>
      <trkpt lat="44.92373" lon="6.59779">
        <ele>1399.5</ele>
        <time>2022-07-14T10:27:22+0200</time>
      </trkpt>
      <trkpt lat="44.92371" lon="6.59785">
        <ele>1399.8</ele>
        <time>2022-07-14T10:27:24+0200</time>
      </trkpt>
      <trkpt lat="44.92368" lon="6.59791">
        <ele>1400.1</ele>
        <time>2022-07-14T10:27:27+0200</time>
      </trkpt>
      <trkpt lat="44.92364" lon="6.59799">
        <ele>1400.6</ele>
        <time>2022-07-14T10:27:30+0200</time>
      </trkpt>
      <trkpt lat="44.92358" lon="6.59805">
        <ele>1401.9</ele>
        <time>2022-07-14T10:27:33+0200</time>
      </trkpt>
      <trkpt lat="44.92352" lon="6.59809">
        <ele>1403.1</ele>
        <time>2022-07-14T10:27:35+0200</time>
      </trkpt>
      <trkpt lat="44.92347" lon="6.59813">
        <ele>1403.9</ele>
        <time>2022-07-14T10:27:38+0200</time>
      </trkpt>
      <trkpt lat="44.92343" lon="6.59817">
        <ele>1404.8</ele>
        <time>2022-07-14T10:27:40+0200</time>
      </trkpt>
      <trkpt lat="44.92339" lon="6.59822">
        <ele>1405.1</ele>
        <time>2022-07-14T10:27:43+0200</time>
      </trkpt>
      <trkpt lat="44.92334" lon="6.59824">
        <ele>1406.2</ele>
        <time>2022-07-14T10:27:46+0200</time>
      </trkpt>
      <trkpt lat="44.9233" lon="6.59828">
        <ele>1406.7</ele>
        <time>2022-07-14T10:27:48+0200</time>
      </trkpt>
      <trkpt lat="44.92327" lon="6.59834">
        <ele>1406.5</ele>
        <time>2022-07-14T10:27:51+0200</time>
      </trkpt>
      <trkpt lat="44.92321" lon="6.59837">
        <ele>1407.4</ele>
        <time>2022-07-14T10:27:54+0200</time>
      </trkpt>
      <trkpt lat="44.92315" lon="6.59839">
        <ele>1408.7</ele>
        <time>2022-07-14T10:27:57+0200</time>
      </trkpt>
      <trkpt lat="44.9231" lon="6.59844">
        <ele>1409</ele>
        <time>2022-07-14T10:27:59+0200</time>
      </trkpt>
      <trkpt lat="44.92306" lon="6.5985">
        <ele>1408.9</ele>
        <time>2022-07-14T10:28:01+0200</time>
      </trkpt>
      <trkpt lat="44.92299" lon="6.59853">
        <ele>1409.9</ele>
        <time>2022-07-14T10:28:04+0200</time>
      </trkpt>
      <trkpt lat="44.92294" lon="6.59851">
        <ele>1411.4</ele>
        <time>2022-07-14T10:28:07+0200</time>
      </trkpt>
      <trkpt lat="44.92288" lon="6.5985">
        <ele>1412.8</ele>
        <time>2022-07-14T10:28:10+0200</time>
      </trkpt>
      <trkpt lat="44.92283" lon="6.59851">
        <ele>1413.7</ele>
        <time>2022-07-14T10:28:13+0200</time>
      </trkpt>
      <trkpt lat="44.92277" lon="6.59851">
        <ele>1414.9</ele>
        <time>2022-07-14T10:28:16+0200</time>
      </trkpt>
      <trkpt lat="44.92273" lon="6.59852">
        <ele>1415.8</ele>
        <time>2022-07-14T10:28:18+0200</time>
      </trkpt>
      <trkpt lat="44.92267" lon="6.59852">
        <ele>1417.1</ele>
        <time>2022-07-14T10:28:23+0200</time>
      </trkpt>
      <trkpt lat="44.92263" lon="6.59854">
        <ele>1417.6</ele>
        <time>2022-07-14T10:28:25+0200</time>
      </trkpt>
      <trkpt lat="44.92258" lon="6.59857">
        <ele>1418.2</ele>
        <time>2022-07-14T10:28:28+0200</time>
      </trkpt>
      <trkpt lat="44.92253" lon="6.59861">
        <ele>1418.3</ele>
        <time>2022-07-14T10:28:30+0200</time>
      </trkpt>
      <trkpt lat="44.9225" lon="6.59869">
        <ele>1417.3</ele>
        <time>2022-07-14T10:28:33+0200</time>
      </trkpt>
      <trkpt lat="44.92246" lon="6.59872">
        <ele>1417.7</ele>
        <time>2022-07-14T10:28:35+0200</time>
      </trkpt>
      <trkpt lat="44.92241" lon="6.59876">
        <ele>1418</ele>
        <time>2022-07-14T10:28:37+0200</time>
      </trkpt>
      <trkpt lat="44.92236" lon="6.59879">
        <ele>1418.6</ele>
        <time>2022-07-14T10:28:39+0200</time>
      </trkpt>
      <trkpt lat="44.92232" lon="6.59883">
        <ele>1418.7</ele>
        <time>2022-07-14T10:28:41+0200</time>
      </trkpt>
      <trkpt lat="44.92228" lon="6.59886">
        <ele>1419.3</ele>
        <time>2022-07-14T10:28:43+0200</time>
      </trkpt>
      <trkpt lat="44.92221" lon="6.59888">
        <ele>1420.5</ele>
        <time>2022-07-14T10:28:46+0200</time>
      </trkpt>
      <trkpt lat="44.92218" lon="6.59893">
        <ele>1420.6</ele>
        <time>2022-07-14T10:28:48+0200</time>
      </trkpt>
      <trkpt lat="44.92211" lon="6.59897">
        <ele>1421.9</ele>
        <time>2022-07-14T10:28:51+0200</time>
      </trkpt>
      <trkpt lat="44.92204" lon="6.59901">
        <ele>1423.3</ele>
        <time>2022-07-14T10:28:53+0200</time>
      </trkpt>
      <trkpt lat="44.922" lon="6.59907">
        <ele>1423</ele>
        <time>2022-07-14T10:28:55+0200</time>
      </trkpt>
      <trkpt lat="44.92196" lon="6.59913">
        <ele>1423.1</ele>
        <time>2022-07-14T10:28:57+0200</time>
      </trkpt>
      <trkpt lat="44.92192" lon="6.59919">
        <ele>1423.3</ele>
        <time>2022-07-14T10:29:01+0200</time>
      </trkpt>
      <trkpt lat="44.92188" lon="6.59925">
        <ele>1423.7</ele>
        <time>2022-07-14T10:29:03+0200</time>
      </trkpt>
      <trkpt lat="44.92185" lon="6.59932">
        <ele>1423.4</ele>
        <time>2022-07-14T10:29:05+0200</time>
      </trkpt>
      <trkpt lat="44.92183" lon="6.59939">
        <ele>1422.7</ele>
        <time>2022-07-14T10:29:07+0200</time>
      </trkpt>
      <trkpt lat="44.9218" lon="6.59946">
        <ele>1422.5</ele>
        <time>2022-07-14T10:29:09+0200</time>
      </trkpt>
      <trkpt lat="44.92177" lon="6.59952">
        <ele>1422.6</ele>
        <time>2022-07-14T10:29:11+0200</time>
      </trkpt>
      <trkpt lat="44.92173" lon="6.59957">
        <ele>1423.1</ele>
        <time>2022-07-14T10:29:13+0200</time>
      </trkpt>
      <trkpt lat="44.92171" lon="6.59963">
        <ele>1422.8</ele>
        <time>2022-07-14T10:29:15+0200</time>
      </trkpt>
      <trkpt lat="44.9217" lon="6.59971">
        <ele>1422.2</ele>
        <time>2022-07-14T10:29:17+0200</time>
      </trkpt>
      <trkpt lat="44.9217" lon="6.59981">
        <ele>1421.9</ele>
        <time>2022-07-14T10:29:19+0200</time>
      </trkpt>
      <trkpt lat="44.92167" lon="6.59988">
        <ele>1422.3</ele>
        <time>2022-07-14T10:29:21+0200</time>
      </trkpt>
      <trkpt lat="44.92163" lon="6.59995">
        <ele>1422.9</ele>
        <time>2022-07-14T10:29:25+0200</time>
      </trkpt>
      <trkpt lat="44.9216" lon="6.60003">
        <ele>1423.4</ele>
        <time>2022-07-14T10:29:28+0200</time>
      </trkpt>
      <trkpt lat="44.92161" lon="6.60012">
        <ele>1423.2</ele>
        <time>2022-07-14T10:29:31+0200</time>
      </trkpt>
      <trkpt lat="44.92158" lon="6.60019">
        <ele>1423.8</ele>
        <time>2022-07-14T10:29:33+0200</time>
      </trkpt>
      <trkpt lat="44.92161" lon="6.60027">
        <ele>1423.3</ele>
        <time>2022-07-14T10:29:36+0200</time>
      </trkpt>
      <trkpt lat="44.92164" lon="6.60032">
        <ele>1422.5</ele>
        <time>2022-07-14T10:29:38+0200</time>
      </trkpt>
      <trkpt lat="44.92165" lon="6.6004">
        <ele>1422.4</ele>
        <time>2022-07-14T10:29:40+0200</time>
      </trkpt>
      <trkpt lat="44.92165" lon="6.60049">
        <ele>1422.4</ele>
        <time>2022-07-14T10:29:42+0200</time>
      </trkpt>
      <trkpt lat="44.92168" lon="6.60057">
        <ele>1421.7</ele>
        <time>2022-07-14T10:29:44+0200</time>
      </trkpt>
      <trkpt lat="44.9217" lon="6.60063">
        <ele>1421.4</ele>
        <time>2022-07-14T10:29:46+0200</time>
      </trkpt>
      <trkpt lat="44.92169" lon="6.6007">
        <ele>1421.9</ele>
        <time>2022-07-14T10:29:48+0200</time>
      </trkpt>
      <trkpt lat="44.92169" lon="6.60077">
        <ele>1422</ele>
        <time>2022-07-14T10:29:52+0200</time>
      </trkpt>
      <trkpt lat="44.92165" lon="6.60081">
        <ele>1423.3</ele>
        <time>2022-07-14T10:29:57+0200</time>
      </trkpt>
      <trkpt lat="44.92162" lon="6.60088">
        <ele>1424.3</ele>
        <time>2022-07-14T10:30:01+0200</time>
      </trkpt>
      <trkpt lat="44.92159" lon="6.60094">
        <ele>1425.2</ele>
        <time>2022-07-14T10:30:04+0200</time>
      </trkpt>
      <trkpt lat="44.92156" lon="6.601">
        <ele>1426.4</ele>
        <time>2022-07-14T10:30:07+0200</time>
      </trkpt>
      <trkpt lat="44.92153" lon="6.60109">
        <ele>1427.5</ele>
        <time>2022-07-14T10:30:10+0200</time>
      </trkpt>
      <trkpt lat="44.9215" lon="6.60115">
        <ele>1428.2</ele>
        <time>2022-07-14T10:30:12+0200</time>
      </trkpt>
      <trkpt lat="44.92146" lon="6.6012">
        <ele>1429.2</ele>
        <time>2022-07-14T10:30:15+0200</time>
      </trkpt>
      <trkpt lat="44.9214" lon="6.60125">
        <ele>1430.5</ele>
        <time>2022-07-14T10:30:17+0200</time>
      </trkpt>
      <trkpt lat="44.92136" lon="6.60131">
        <ele>1431.2</ele>
        <time>2022-07-14T10:30:19+0200</time>
      </trkpt>
      <trkpt lat="44.92131" lon="6.60136">
        <ele>1432.1</ele>
        <time>2022-07-14T10:30:22+0200</time>
      </trkpt>
      <trkpt lat="44.92128" lon="6.6014">
        <ele>1432.7</ele>
        <time>2022-07-14T10:30:24+0200</time>
      </trkpt>
      <trkpt lat="44.9212" lon="6.60145">
        <ele>1434.2</ele>
        <time>2022-07-14T10:30:27+0200</time>
      </trkpt>
      <trkpt lat="44.92116" lon="6.60149">
        <ele>1435</ele>
        <time>2022-07-14T10:30:29+0200</time>
      </trkpt>
      <trkpt lat="44.92112" lon="6.60153">
        <ele>1435.7</ele>
        <time>2022-07-14T10:30:31+0200</time>
      </trkpt>
      <trkpt lat="44.92109" lon="6.60158">
        <ele>1435.9</ele>
        <time>2022-07-14T10:30:34+0200</time>
      </trkpt>
      <trkpt lat="44.92107" lon="6.60152">
        <ele>1436.5</ele>
        <time>2022-07-14T10:30:42+0200</time>
      </trkpt>
      <trkpt lat="44.92112" lon="6.60148">
        <ele>1436.2</ele>
        <time>2022-07-14T10:30:44+0200</time>
      </trkpt>
      <trkpt lat="44.92116" lon="6.60142">
        <ele>1435.6</ele>
        <time>2022-07-14T10:30:47+0200</time>
      </trkpt>
      <trkpt lat="44.92119" lon="6.60135">
        <ele>1435.1</ele>
        <time>2022-07-14T10:30:50+0200</time>
      </trkpt>
      <trkpt lat="44.92121" lon="6.60126">
        <ele>1435.1</ele>
        <time>2022-07-14T10:30:53+0200</time>
      </trkpt>
      <trkpt lat="44.9212" lon="6.60119">
        <ele>1435.8</ele>
        <time>2022-07-14T10:30:55+0200</time>
      </trkpt>
      <trkpt lat="44.92119" lon="6.60111">
        <ele>1436.4</ele>
        <time>2022-07-14T10:30:57+0200</time>
      </trkpt>
      <trkpt lat="44.92117" lon="6.60105">
        <ele>1436.4</ele>
        <time>2022-07-14T10:30:59+0200</time>
      </trkpt>
      <trkpt lat="44.92113" lon="6.60097">
        <ele>1436.7</ele>
        <time>2022-07-14T10:31:02+0200</time>
      </trkpt>
      <trkpt lat="44.92109" lon="6.60091">
        <ele>1436.9</ele>
        <time>2022-07-14T10:31:04+0200</time>
      </trkpt>
      <trkpt lat="44.92104" lon="6.60084">
        <ele>1437.4</ele>
        <time>2022-07-14T10:31:06+0200</time>
      </trkpt>
      <trkpt lat="44.92101" lon="6.60076">
        <ele>1437.5</ele>
        <time>2022-07-14T10:31:08+0200</time>
      </trkpt>
      <trkpt lat="44.92098" lon="6.60067">
        <ele>1437.5</ele>
        <time>2022-07-14T10:31:10+0200</time>
      </trkpt>
      <trkpt lat="44.92095" lon="6.60058">
        <ele>1437.6</ele>
        <time>2022-07-14T10:31:12+0200</time>
      </trkpt>
      <trkpt lat="44.92093" lon="6.60051">
        <ele>1437.9</ele>
        <time>2022-07-14T10:31:14+0200</time>
      </trkpt>
      <trkpt lat="44.9209" lon="6.60042">
        <ele>1438.5</ele>
        <time>2022-07-14T10:31:16+0200</time>
      </trkpt>
      <trkpt lat="44.92088" lon="6.60035">
        <ele>1438.9</ele>
        <time>2022-07-14T10:31:18+0200</time>
      </trkpt>
      <trkpt lat="44.92087" lon="6.60027">
        <ele>1439.3</ele>
        <time>2022-07-14T10:31:22+0200</time>
      </trkpt>
      <trkpt lat="44.92087" lon="6.6002">
        <ele>1439.5</ele>
        <time>2022-07-14T10:31:25+0200</time>
      </trkpt>
      <trkpt lat="44.92087" lon="6.60013">
        <ele>1439.8</ele>
        <time>2022-07-14T10:31:27+0200</time>
      </trkpt>
      <trkpt lat="44.92085" lon="6.60006">
        <ele>1440.4</ele>
        <time>2022-07-14T10:31:30+0200</time>
      </trkpt>
      <trkpt lat="44.92085" lon="6.59997">
        <ele>1441</ele>
        <time>2022-07-14T10:31:33+0200</time>
      </trkpt>
      <trkpt lat="44.92085" lon="6.5999">
        <ele>1441.8</ele>
        <time>2022-07-14T10:31:36+0200</time>
      </trkpt>
      <trkpt lat="44.92084" lon="6.59983">
        <ele>1442.7</ele>
        <time>2022-07-14T10:31:39+0200</time>
      </trkpt>
      <trkpt lat="44.92085" lon="6.59974">
        <ele>1443.3</ele>
        <time>2022-07-14T10:31:42+0200</time>
      </trkpt>
      <trkpt lat="44.92085" lon="6.59968">
        <ele>1444.2</ele>
        <time>2022-07-14T10:31:44+0200</time>
      </trkpt>
      <trkpt lat="44.92087" lon="6.59961">
        <ele>1445</ele>
        <time>2022-07-14T10:31:46+0200</time>
      </trkpt>
      <trkpt lat="44.92089" lon="6.59954">
        <ele>1445.5</ele>
        <time>2022-07-14T10:31:48+0200</time>
      </trkpt>
      <trkpt lat="44.92093" lon="6.59947">
        <ele>1446</ele>
        <time>2022-07-14T10:31:51+0200</time>
      </trkpt>
      <trkpt lat="44.92097" lon="6.59944">
        <ele>1445.2</ele>
        <time>2022-07-14T10:31:56+0200</time>
      </trkpt>
      <trkpt lat="44.92101" lon="6.59939">
        <ele>1444.9</ele>
        <time>2022-07-14T10:32:00+0200</time>
      </trkpt>
      <trkpt lat="44.92106" lon="6.59934">
        <ele>1444.6</ele>
        <time>2022-07-14T10:32:03+0200</time>
      </trkpt>
      <trkpt lat="44.92111" lon="6.59929">
        <ele>1443.9</ele>
        <time>2022-07-14T10:32:06+0200</time>
      </trkpt>
      <trkpt lat="44.92115" lon="6.59923">
        <ele>1443.7</ele>
        <time>2022-07-14T10:32:09+0200</time>
      </trkpt>
      <trkpt lat="44.92118" lon="6.59916">
        <ele>1444</ele>
        <time>2022-07-14T10:32:12+0200</time>
      </trkpt>
      <trkpt lat="44.92122" lon="6.59911">
        <ele>1444.4</ele>
        <time>2022-07-14T10:32:14+0200</time>
      </trkpt>
      <trkpt lat="44.92125" lon="6.59906">
        <ele>1444.8</ele>
        <time>2022-07-14T10:32:16+0200</time>
      </trkpt>
      <trkpt lat="44.92131" lon="6.59904">
        <ele>1443.6</ele>
        <time>2022-07-14T10:32:19+0200</time>
      </trkpt>
      <trkpt lat="44.92136" lon="6.599">
        <ele>1443</ele>
        <time>2022-07-14T10:32:22+0200</time>
      </trkpt>
      <trkpt lat="44.9214" lon="6.59896">
        <ele>1442.9</ele>
        <time>2022-07-14T10:32:24+0200</time>
      </trkpt>
      <trkpt lat="44.92142" lon="6.59888">
        <ele>1444.1</ele>
        <time>2022-07-14T10:32:26+0200</time>
      </trkpt>
      <trkpt lat="44.92146" lon="6.59882">
        <ele>1444.4</ele>
        <time>2022-07-14T10:32:29+0200</time>
      </trkpt>
      <trkpt lat="44.92149" lon="6.59876">
        <ele>1444.6</ele>
        <time>2022-07-14T10:32:32+0200</time>
      </trkpt>
      <trkpt lat="44.92151" lon="6.59867">
        <ele>1445.9</ele>
        <time>2022-07-14T10:32:34+0200</time>
      </trkpt>
      <trkpt lat="44.92153" lon="6.59857">
        <ele>1447.4</ele>
        <time>2022-07-14T10:32:36+0200</time>
      </trkpt>
      <trkpt lat="44.92155" lon="6.5985">
        <ele>1448.6</ele>
        <time>2022-07-14T10:32:38+0200</time>
      </trkpt>
      <trkpt lat="44.92157" lon="6.59842">
        <ele>1449.8</ele>
        <time>2022-07-14T10:32:41+0200</time>
      </trkpt>
      <trkpt lat="44.9216" lon="6.59836">
        <ele>1450.6</ele>
        <time>2022-07-14T10:32:43+0200</time>
      </trkpt>
      <trkpt lat="44.92162" lon="6.59827">
        <ele>1452</ele>
        <time>2022-07-14T10:32:45+0200</time>
      </trkpt>
      <trkpt lat="44.92165" lon="6.5982">
        <ele>1452.9</ele>
        <time>2022-07-14T10:32:47+0200</time>
      </trkpt>
      <trkpt lat="44.92167" lon="6.59813">
        <ele>1454</ele>
        <time>2022-07-14T10:32:48+0200</time>
      </trkpt>
      <trkpt lat="44.9217" lon="6.59805">
        <ele>1455.2</ele>
        <time>2022-07-14T10:32:51+0200</time>
      </trkpt>
      <trkpt lat="44.9217" lon="6.59797">
        <ele>1456.7</ele>
        <time>2022-07-14T10:32:54+0200</time>
      </trkpt>
      <trkpt lat="44.92171" lon="6.5979">
        <ele>1458</ele>
        <time>2022-07-14T10:32:56+0200</time>
      </trkpt>
      <trkpt lat="44.92174" lon="6.59782">
        <ele>1458.9</ele>
        <time>2022-07-14T10:33:00+0200</time>
      </trkpt>
      <trkpt lat="44.92176" lon="6.59776">
        <ele>1459.7</ele>
        <time>2022-07-14T10:33:02+0200</time>
      </trkpt>
      <trkpt lat="44.92179" lon="6.59769">
        <ele>1460.1</ele>
        <time>2022-07-14T10:33:05+0200</time>
      </trkpt>
      <trkpt lat="44.92184" lon="6.59765">
        <ele>1459.6</ele>
        <time>2022-07-14T10:33:09+0200</time>
      </trkpt>
      <trkpt lat="44.92188" lon="6.59761">
        <ele>1459.1</ele>
        <time>2022-07-14T10:33:13+0200</time>
      </trkpt>
      <trkpt lat="44.92191" lon="6.59754">
        <ele>1459.4</ele>
        <time>2022-07-14T10:33:16+0200</time>
      </trkpt>
      <trkpt lat="44.92193" lon="6.59746">
        <ele>1460.6</ele>
        <time>2022-07-14T10:33:19+0200</time>
      </trkpt>
      <trkpt lat="44.92196" lon="6.59739">
        <ele>1461.4</ele>
        <time>2022-07-14T10:33:22+0200</time>
      </trkpt>
      <trkpt lat="44.92198" lon="6.59731">
        <ele>1462.4</ele>
        <time>2022-07-14T10:33:26+0200</time>
      </trkpt>
      <trkpt lat="44.92202" lon="6.59725">
        <ele>1462.4</ele>
        <time>2022-07-14T10:33:30+0200</time>
      </trkpt>
      <trkpt lat="44.92207" lon="6.59718">
        <ele>1462.3</ele>
        <time>2022-07-14T10:33:33+0200</time>
      </trkpt>
      <trkpt lat="44.92211" lon="6.59713">
        <ele>1461.6</ele>
        <time>2022-07-14T10:33:37+0200</time>
      </trkpt>
      <trkpt lat="44.92216" lon="6.59707">
        <ele>1461.3</ele>
        <time>2022-07-14T10:33:40+0200</time>
      </trkpt>
      <trkpt lat="44.9222" lon="6.59702">
        <ele>1460.9</ele>
        <time>2022-07-14T10:33:43+0200</time>
      </trkpt>
      <trkpt lat="44.92223" lon="6.59697">
        <ele>1461.2</ele>
        <time>2022-07-14T10:33:45+0200</time>
      </trkpt>
      <trkpt lat="44.92227" lon="6.59692">
        <ele>1460.9</ele>
        <time>2022-07-14T10:33:47+0200</time>
      </trkpt>
      <trkpt lat="44.9223" lon="6.59687">
        <ele>1461</ele>
        <time>2022-07-14T10:33:49+0200</time>
      </trkpt>
      <trkpt lat="44.92234" lon="6.59678">
        <ele>1462.1</ele>
        <time>2022-07-14T10:33:52+0200</time>
      </trkpt>
      <trkpt lat="44.92236" lon="6.59673">
        <ele>1462.6</ele>
        <time>2022-07-14T10:33:54+0200</time>
      </trkpt>
      <trkpt lat="44.92239" lon="6.59667">
        <ele>1463.2</ele>
        <time>2022-07-14T10:33:56+0200</time>
      </trkpt>
      <trkpt lat="44.9224" lon="6.59658">
        <ele>1465.2</ele>
        <time>2022-07-14T10:33:59+0200</time>
      </trkpt>
      <trkpt lat="44.92241" lon="6.5965">
        <ele>1467.2</ele>
        <time>2022-07-14T10:34:01+0200</time>
      </trkpt>
      <trkpt lat="44.92239" lon="6.59642">
        <ele>1469.8</ele>
        <time>2022-07-14T10:34:03+0200</time>
      </trkpt>
      <trkpt lat="44.92237" lon="6.59636">
        <ele>1472.4</ele>
        <time>2022-07-14T10:34:06+0200</time>
      </trkpt>
      <trkpt lat="44.92231" lon="6.59638">
        <ele>1474.3</ele>
        <time>2022-07-14T10:34:10+0200</time>
      </trkpt>
      <trkpt lat="44.92226" lon="6.59641">
        <ele>1475.7</ele>
        <time>2022-07-14T10:34:14+0200</time>
      </trkpt>
      <trkpt lat="44.9222" lon="6.59646">
        <ele>1476.7</ele>
        <time>2022-07-14T10:34:17+0200</time>
      </trkpt>
      <trkpt lat="44.92215" lon="6.5965">
        <ele>1477.6</ele>
        <time>2022-07-14T10:34:19+0200</time>
      </trkpt>
      <trkpt lat="44.9221" lon="6.59654">
        <ele>1478.4</ele>
        <time>2022-07-14T10:34:21+0200</time>
      </trkpt>
      <trkpt lat="44.92206" lon="6.59656">
        <ele>1479.5</ele>
        <time>2022-07-14T10:34:23+0200</time>
      </trkpt>
      <trkpt lat="44.92201" lon="6.59657">
        <ele>1481.3</ele>
        <time>2022-07-14T10:34:26+0200</time>
      </trkpt>
      <trkpt lat="44.92196" lon="6.59661">
        <ele>1482.3</ele>
        <time>2022-07-14T10:34:30+0200</time>
      </trkpt>
      <trkpt lat="44.9219" lon="6.59663">
        <ele>1484</ele>
        <time>2022-07-14T10:34:33+0200</time>
      </trkpt>
      <trkpt lat="44.92184" lon="6.59666">
        <ele>1485.5</ele>
        <time>2022-07-14T10:34:36+0200</time>
      </trkpt>
      <trkpt lat="44.92178" lon="6.59669">
        <ele>1487.2</ele>
        <time>2022-07-14T10:34:39+0200</time>
      </trkpt>
      <trkpt lat="44.92174" lon="6.59672">
        <ele>1488.3</ele>
        <time>2022-07-14T10:34:43+0200</time>
      </trkpt>
      <trkpt lat="44.92168" lon="6.59675">
        <ele>1490.1</ele>
        <time>2022-07-14T10:34:45+0200</time>
      </trkpt>
      <trkpt lat="44.92163" lon="6.5968">
        <ele>1490.9</ele>
        <time>2022-07-14T10:34:47+0200</time>
      </trkpt>
      <trkpt lat="44.92158" lon="6.59683">
        <ele>1491.9</ele>
        <time>2022-07-14T10:34:49+0200</time>
      </trkpt>
      <trkpt lat="44.92154" lon="6.59687">
        <ele>1492</ele>
        <time>2022-07-14T10:34:51+0200</time>
      </trkpt>
      <trkpt lat="44.92149" lon="6.59693">
        <ele>1492.5</ele>
        <time>2022-07-14T10:34:57+0200</time>
      </trkpt>
      <trkpt lat="44.92143" lon="6.59695">
        <ele>1494</ele>
        <time>2022-07-14T10:34:59+0200</time>
      </trkpt>
      <trkpt lat="44.92138" lon="6.59699">
        <ele>1495.1</ele>
        <time>2022-07-14T10:35:02+0200</time>
      </trkpt>
      <trkpt lat="44.92133" lon="6.59702">
        <ele>1496.1</ele>
        <time>2022-07-14T10:35:05+0200</time>
      </trkpt>
      <trkpt lat="44.92128" lon="6.59708">
        <ele>1496.4</ele>
        <time>2022-07-14T10:35:08+0200</time>
      </trkpt>
      <trkpt lat="44.92124" lon="6.59715">
        <ele>1496.1</ele>
        <time>2022-07-14T10:35:10+0200</time>
      </trkpt>
      <trkpt lat="44.9212" lon="6.5972">
        <ele>1496.2</ele>
        <time>2022-07-14T10:35:12+0200</time>
      </trkpt>
      <trkpt lat="44.92115" lon="6.59725">
        <ele>1496.4</ele>
        <time>2022-07-14T10:35:15+0200</time>
      </trkpt>
      <trkpt lat="44.9211" lon="6.59729">
        <ele>1497</ele>
        <time>2022-07-14T10:35:17+0200</time>
      </trkpt>
      <trkpt lat="44.92105" lon="6.59732">
        <ele>1498</ele>
        <time>2022-07-14T10:35:19+0200</time>
      </trkpt>
      <trkpt lat="44.921" lon="6.59736">
        <ele>1498.7</ele>
        <time>2022-07-14T10:35:22+0200</time>
      </trkpt>
      <trkpt lat="44.92096" lon="6.59742">
        <ele>1498.5</ele>
        <time>2022-07-14T10:35:25+0200</time>
      </trkpt>
      <trkpt lat="44.92093" lon="6.59746">
        <ele>1498.4</ele>
        <time>2022-07-14T10:35:27+0200</time>
      </trkpt>
      <trkpt lat="44.92088" lon="6.59749">
        <ele>1499.3</ele>
        <time>2022-07-14T10:35:30+0200</time>
      </trkpt>
      <trkpt lat="44.92083" lon="6.5975">
        <ele>1501.4</ele>
        <time>2022-07-14T10:35:32+0200</time>
      </trkpt>
      <trkpt lat="44.92078" lon="6.59757">
        <ele>1500.7</ele>
        <time>2022-07-14T10:35:35+0200</time>
      </trkpt>
      <trkpt lat="44.92073" lon="6.5976">
        <ele>1501.5</ele>
        <time>2022-07-14T10:35:38+0200</time>
      </trkpt>
      <trkpt lat="44.92067" lon="6.59766">
        <ele>1501.8</ele>
        <time>2022-07-14T10:35:41+0200</time>
      </trkpt>
      <trkpt lat="44.92062" lon="6.59769">
        <ele>1502.8</ele>
        <time>2022-07-14T10:35:45+0200</time>
      </trkpt>
      <trkpt lat="44.92057" lon="6.59773">
        <ele>1503.3</ele>
        <time>2022-07-14T10:35:48+0200</time>
      </trkpt>
      <trkpt lat="44.92051" lon="6.59773">
        <ele>1505.1</ele>
        <time>2022-07-14T10:35:52+0200</time>
      </trkpt>
      <trkpt lat="44.92046" lon="6.59777">
        <ele>1505.8</ele>
        <time>2022-07-14T10:35:56+0200</time>
      </trkpt>
      <trkpt lat="44.92041" lon="6.5978">
        <ele>1506.6</ele>
        <time>2022-07-14T10:35:59+0200</time>
      </trkpt>
      <trkpt lat="44.92035" lon="6.59782">
        <ele>1508.4</ele>
        <time>2022-07-14T10:36:02+0200</time>
      </trkpt>
      <trkpt lat="44.92029" lon="6.59786">
        <ele>1509.2</ele>
        <time>2022-07-14T10:36:04+0200</time>
      </trkpt>
      <trkpt lat="44.92025" lon="6.5979">
        <ele>1509.5</ele>
        <time>2022-07-14T10:36:06+0200</time>
      </trkpt>
      <trkpt lat="44.9202" lon="6.59792">
        <ele>1510.3</ele>
        <time>2022-07-14T10:36:08+0200</time>
      </trkpt>
      <trkpt lat="44.92013" lon="6.59795">
        <ele>1512</ele>
        <time>2022-07-14T10:36:11+0200</time>
      </trkpt>
      <trkpt lat="44.92008" lon="6.59798">
        <ele>1512.8</ele>
        <time>2022-07-14T10:36:13+0200</time>
      </trkpt>
      <trkpt lat="44.92004" lon="6.59804">
        <ele>1512.2</ele>
        <time>2022-07-14T10:36:16+0200</time>
      </trkpt>
      <trkpt lat="44.91998" lon="6.59808">
        <ele>1512.9</ele>
        <time>2022-07-14T10:36:19+0200</time>
      </trkpt>
      <trkpt lat="44.91994" lon="6.59811">
        <ele>1513.8</ele>
        <time>2022-07-14T10:36:21+0200</time>
      </trkpt>
      <trkpt lat="44.91987" lon="6.59815">
        <ele>1514.9</ele>
        <time>2022-07-14T10:36:24+0200</time>
      </trkpt>
      <trkpt lat="44.91983" lon="6.59819">
        <ele>1515.6</ele>
        <time>2022-07-14T10:36:26+0200</time>
      </trkpt>
      <trkpt lat="44.91978" lon="6.59821">
        <ele>1516.8</ele>
        <time>2022-07-14T10:36:28+0200</time>
      </trkpt>
      <trkpt lat="44.91974" lon="6.59825">
        <ele>1516.7</ele>
        <time>2022-07-14T10:36:30+0200</time>
      </trkpt>
      <trkpt lat="44.91969" lon="6.5983">
        <ele>1517.1</ele>
        <time>2022-07-14T10:36:33+0200</time>
      </trkpt>
      <trkpt lat="44.91964" lon="6.59833">
        <ele>1517.8</ele>
        <time>2022-07-14T10:36:35+0200</time>
      </trkpt>
      <trkpt lat="44.9196" lon="6.59838">
        <ele>1518.3</ele>
        <time>2022-07-14T10:36:38+0200</time>
      </trkpt>
      <trkpt lat="44.91956" lon="6.59845">
        <ele>1518.5</ele>
        <time>2022-07-14T10:36:41+0200</time>
      </trkpt>
      <trkpt lat="44.91954" lon="6.59851">
        <ele>1517.9</ele>
        <time>2022-07-14T10:36:43+0200</time>
      </trkpt>
      <trkpt lat="44.91951" lon="6.59857">
        <ele>1517.8</ele>
        <time>2022-07-14T10:36:46+0200</time>
      </trkpt>
      <trkpt lat="44.91948" lon="6.59863">
        <ele>1517.3</ele>
        <time>2022-07-14T10:36:48+0200</time>
      </trkpt>
      <trkpt lat="44.91946" lon="6.59869">
        <ele>1516.6</ele>
        <time>2022-07-14T10:36:50+0200</time>
      </trkpt>
      <trkpt lat="44.91943" lon="6.59875">
        <ele>1516.5</ele>
        <time>2022-07-14T10:36:52+0200</time>
      </trkpt>
      <trkpt lat="44.91939" lon="6.59883">
        <ele>1516.1</ele>
        <time>2022-07-14T10:36:55+0200</time>
      </trkpt>
      <trkpt lat="44.91935" lon="6.59887">
        <ele>1516.3</ele>
        <time>2022-07-14T10:36:58+0200</time>
      </trkpt>
      <trkpt lat="44.91932" lon="6.59893">
        <ele>1515.7</ele>
        <time>2022-07-14T10:37:00+0200</time>
      </trkpt>
      <trkpt lat="44.91928" lon="6.599">
        <ele>1515.2</ele>
        <time>2022-07-14T10:37:03+0200</time>
      </trkpt>
      <trkpt lat="44.91925" lon="6.59904">
        <ele>1514.9</ele>
        <time>2022-07-14T10:37:07+0200</time>
      </trkpt>
      <trkpt lat="44.91921" lon="6.59907">
        <ele>1515.5</ele>
        <time>2022-07-14T10:37:13+0200</time>
      </trkpt>
      <trkpt lat="44.91916" lon="6.5991">
        <ele>1516.1</ele>
        <time>2022-07-14T10:37:17+0200</time>
      </trkpt>
      <trkpt lat="44.91911" lon="6.59912">
        <ele>1517.1</ele>
        <time>2022-07-14T10:37:20+0200</time>
      </trkpt>
      <trkpt lat="44.91905" lon="6.59914">
        <ele>1518.5</ele>
        <time>2022-07-14T10:37:23+0200</time>
      </trkpt>
      <trkpt lat="44.91901" lon="6.59918">
        <ele>1518.9</ele>
        <time>2022-07-14T10:37:26+0200</time>
      </trkpt>
      <trkpt lat="44.91895" lon="6.59921">
        <ele>1519.9</ele>
        <time>2022-07-14T10:37:29+0200</time>
      </trkpt>
      <trkpt lat="44.9189" lon="6.59923">
        <ele>1521.1</ele>
        <time>2022-07-14T10:37:32+0200</time>
      </trkpt>
      <trkpt lat="44.91886" lon="6.59925">
        <ele>1521.8</ele>
        <time>2022-07-14T10:37:34+0200</time>
      </trkpt>
      <trkpt lat="44.91881" lon="6.59928">
        <ele>1522.3</ele>
        <time>2022-07-14T10:37:36+0200</time>
      </trkpt>
      <trkpt lat="44.91876" lon="6.59934">
        <ele>1522.4</ele>
        <time>2022-07-14T10:37:39+0200</time>
      </trkpt>
      <trkpt lat="44.91871" lon="6.59939">
        <ele>1522.5</ele>
        <time>2022-07-14T10:37:42+0200</time>
      </trkpt>
      <trkpt lat="44.91865" lon="6.59945">
        <ele>1522.6</ele>
        <time>2022-07-14T10:37:45+0200</time>
      </trkpt>
      <trkpt lat="44.91861" lon="6.59948">
        <ele>1523.2</ele>
        <time>2022-07-14T10:37:49+0200</time>
      </trkpt>
      <trkpt lat="44.91857" lon="6.59952">
        <ele>1523.5</ele>
        <time>2022-07-14T10:37:51+0200</time>
      </trkpt>
      <trkpt lat="44.91852" lon="6.59956">
        <ele>1523.6</ele>
        <time>2022-07-14T10:37:57+0200</time>
      </trkpt>
      <trkpt lat="44.91847" lon="6.59957">
        <ele>1524.8</ele>
        <time>2022-07-14T10:38:00+0200</time>
      </trkpt>
      <trkpt lat="44.91842" lon="6.59956">
        <ele>1526.5</ele>
        <time>2022-07-14T10:38:03+0200</time>
      </trkpt>
      <trkpt lat="44.91837" lon="6.59957">
        <ele>1527.7</ele>
        <time>2022-07-14T10:38:06+0200</time>
      </trkpt>
      <trkpt lat="44.91832" lon="6.59958">
        <ele>1528.9</ele>
        <time>2022-07-14T10:38:10+0200</time>
      </trkpt>
      <trkpt lat="44.91827" lon="6.59959">
        <ele>1530.1</ele>
        <time>2022-07-14T10:38:18+0200</time>
      </trkpt>
      <trkpt lat="44.91822" lon="6.59959">
        <ele>1531.5</ele>
        <time>2022-07-14T10:38:30+0200</time>
      </trkpt>
      <trkpt lat="44.91822" lon="6.59966">
        <ele>1529.9</ele>
        <time>2022-07-14T10:38:42+0200</time>
      </trkpt>
      <trkpt lat="44.91822" lon="6.59959">
        <ele>1531.3</ele>
        <time>2022-07-14T10:39:07+0200</time>
      </trkpt>
      <trkpt lat="44.91817" lon="6.59958">
        <ele>1533</ele>
        <time>2022-07-14T10:39:14+0200</time>
      </trkpt>
      <trkpt lat="44.91812" lon="6.5996">
        <ele>1533.8</ele>
        <time>2022-07-14T10:39:16+0200</time>
      </trkpt>
      <trkpt lat="44.91807" lon="6.59962">
        <ele>1534.9</ele>
        <time>2022-07-14T10:39:19+0200</time>
      </trkpt>
      <trkpt lat="44.91802" lon="6.59966">
        <ele>1535.4</ele>
        <time>2022-07-14T10:39:22+0200</time>
      </trkpt>
      <trkpt lat="44.91798" lon="6.59963">
        <ele>1537.4</ele>
        <time>2022-07-14T10:39:25+0200</time>
      </trkpt>
      <trkpt lat="44.91798" lon="6.59956">
        <ele>1538.7</ele>
        <time>2022-07-14T10:39:29+0200</time>
      </trkpt>
      <trkpt lat="44.91803" lon="6.59955">
        <ele>1537.5</ele>
        <time>2022-07-14T10:39:33+0200</time>
      </trkpt>
      <trkpt lat="44.91808" lon="6.59956">
        <ele>1535.7</ele>
        <time>2022-07-14T10:39:36+0200</time>
      </trkpt>
      <trkpt lat="44.91812" lon="6.5996">
        <ele>1533.8</ele>
        <time>2022-07-14T10:39:39+0200</time>
      </trkpt>
      <trkpt lat="44.91817" lon="6.5996">
        <ele>1532.5</ele>
        <time>2022-07-14T10:39:42+0200</time>
      </trkpt>
      <trkpt lat="44.91821" lon="6.59953">
        <ele>1533</ele>
        <time>2022-07-14T10:39:45+0200</time>
      </trkpt>
      <trkpt lat="44.91826" lon="6.5995">
        <ele>1532.7</ele>
        <time>2022-07-14T10:39:48+0200</time>
      </trkpt>
      <trkpt lat="44.9183" lon="6.59944">
        <ele>1532.9</ele>
        <time>2022-07-14T10:39:51+0200</time>
      </trkpt>
      <trkpt lat="44.91834" lon="6.5994">
        <ele>1532.8</ele>
        <time>2022-07-14T10:39:53+0200</time>
      </trkpt>
      <trkpt lat="44.91837" lon="6.59933">
        <ele>1533.5</ele>
        <time>2022-07-14T10:39:56+0200</time>
      </trkpt>
      <trkpt lat="44.91841" lon="6.59927">
        <ele>1534</ele>
        <time>2022-07-14T10:39:58+0200</time>
      </trkpt>
      <trkpt lat="44.91844" lon="6.59919">
        <ele>1534.8</ele>
        <time>2022-07-14T10:40:01+0200</time>
      </trkpt>
      <trkpt lat="44.91848" lon="6.59912">
        <ele>1535.6</ele>
        <time>2022-07-14T10:40:04+0200</time>
      </trkpt>
      <trkpt lat="44.91851" lon="6.59908">
        <ele>1535.6</ele>
        <time>2022-07-14T10:40:06+0200</time>
      </trkpt>
      <trkpt lat="44.91857" lon="6.59905">
        <ele>1535</ele>
        <time>2022-07-14T10:40:09+0200</time>
      </trkpt>
      <trkpt lat="44.91862" lon="6.59901">
        <ele>1534.7</ele>
        <time>2022-07-14T10:40:13+0200</time>
      </trkpt>
      <trkpt lat="44.91865" lon="6.59895">
        <ele>1535.5</ele>
        <time>2022-07-14T10:40:15+0200</time>
      </trkpt>
      <trkpt lat="44.91866" lon="6.59884">
        <ele>1537.7</ele>
        <time>2022-07-14T10:40:17+0200</time>
      </trkpt>
      <trkpt lat="44.91863" lon="6.59879">
        <ele>1539.6</ele>
        <time>2022-07-14T10:40:19+0200</time>
      </trkpt>
      <trkpt lat="44.91858" lon="6.59875">
        <ele>1541.9</ele>
        <time>2022-07-14T10:40:23+0200</time>
      </trkpt>
      <trkpt lat="44.91852" lon="6.59875">
        <ele>1543.5</ele>
        <time>2022-07-14T10:40:26+0200</time>
      </trkpt>
      <trkpt lat="44.91847" lon="6.59875">
        <ele>1544.9</ele>
        <time>2022-07-14T10:40:28+0200</time>
      </trkpt>
      <trkpt lat="44.91842" lon="6.59873">
        <ele>1546.7</ele>
        <time>2022-07-14T10:40:30+0200</time>
      </trkpt>
      <trkpt lat="44.91837" lon="6.59872">
        <ele>1548.3</ele>
        <time>2022-07-14T10:40:33+0200</time>
      </trkpt>
      <trkpt lat="44.91833" lon="6.59874">
        <ele>1548.9</ele>
        <time>2022-07-14T10:40:36+0200</time>
      </trkpt>
      <trkpt lat="44.91827" lon="6.59877">
        <ele>1549.6</ele>
        <time>2022-07-14T10:40:40+0200</time>
      </trkpt>
      <trkpt lat="44.91822" lon="6.59877">
        <ele>1550.8</ele>
        <time>2022-07-14T10:40:45+0200</time>
      </trkpt>
      <trkpt lat="44.91816" lon="6.59876">
        <ele>1552.7</ele>
        <time>2022-07-14T10:40:50+0200</time>
      </trkpt>
      <trkpt lat="44.9181" lon="6.59878">
        <ele>1553.6</ele>
        <time>2022-07-14T10:40:52+0200</time>
      </trkpt>
      <trkpt lat="44.91806" lon="6.59881">
        <ele>1554.1</ele>
        <time>2022-07-14T10:40:54+0200</time>
      </trkpt>
      <trkpt lat="44.918" lon="6.59884">
        <ele>1554.8</ele>
        <time>2022-07-14T10:40:56+0200</time>
      </trkpt>
      <trkpt lat="44.91794" lon="6.59886">
        <ele>1556.2</ele>
        <time>2022-07-14T10:40:59+0200</time>
      </trkpt>
      <trkpt lat="44.91789" lon="6.59888">
        <ele>1556.8</ele>
        <time>2022-07-14T10:41:02+0200</time>
      </trkpt>
      <trkpt lat="44.91784" lon="6.59891">
        <ele>1557.8</ele>
        <time>2022-07-14T10:41:04+0200</time>
      </trkpt>
      <trkpt lat="44.91778" lon="6.59895">
        <ele>1558.5</ele>
        <time>2022-07-14T10:41:06+0200</time>
      </trkpt>
      <trkpt lat="44.91772" lon="6.59897">
        <ele>1559.9</ele>
        <time>2022-07-14T10:41:08+0200</time>
      </trkpt>
      <trkpt lat="44.91767" lon="6.59901">
        <ele>1560.6</ele>
        <time>2022-07-14T10:41:11+0200</time>
      </trkpt>
      <trkpt lat="44.91762" lon="6.59902">
        <ele>1562</ele>
        <time>2022-07-14T10:41:13+0200</time>
      </trkpt>
      <trkpt lat="44.91756" lon="6.59905">
        <ele>1563.4</ele>
        <time>2022-07-14T10:41:16+0200</time>
      </trkpt>
      <trkpt lat="44.91751" lon="6.59909">
        <ele>1564.4</ele>
        <time>2022-07-14T10:41:18+0200</time>
      </trkpt>
      <trkpt lat="44.91746" lon="6.59913">
        <ele>1565.1</ele>
        <time>2022-07-14T10:41:20+0200</time>
      </trkpt>
      <trkpt lat="44.91742" lon="6.5992">
        <ele>1565.2</ele>
        <time>2022-07-14T10:41:23+0200</time>
      </trkpt>
      <trkpt lat="44.91739" lon="6.59929">
        <ele>1564.3</ele>
        <time>2022-07-14T10:41:26+0200</time>
      </trkpt>
      <trkpt lat="44.91735" lon="6.59937">
        <ele>1564.6</ele>
        <time>2022-07-14T10:41:29+0200</time>
      </trkpt>
      <trkpt lat="44.91733" lon="6.59946">
        <ele>1563.5</ele>
        <time>2022-07-14T10:41:32+0200</time>
      </trkpt>
      <trkpt lat="44.9173" lon="6.59951">
        <ele>1563.8</ele>
        <time>2022-07-14T10:41:34+0200</time>
      </trkpt>
      <trkpt lat="44.91726" lon="6.59955">
        <ele>1564.2</ele>
        <time>2022-07-14T10:41:36+0200</time>
      </trkpt>
      <trkpt lat="44.91721" lon="6.59961">
        <ele>1564.7</ele>
        <time>2022-07-14T10:41:39+0200</time>
      </trkpt>
      <trkpt lat="44.91717" lon="6.59969">
        <ele>1564.5</ele>
        <time>2022-07-14T10:41:42+0200</time>
      </trkpt>
      <trkpt lat="44.91716" lon="6.59976">
        <ele>1563.8</ele>
        <time>2022-07-14T10:41:44+0200</time>
      </trkpt>
      <trkpt lat="44.91713" lon="6.59981">
        <ele>1563.7</ele>
        <time>2022-07-14T10:41:46+0200</time>
      </trkpt>
      <trkpt lat="44.9171" lon="6.59988">
        <ele>1563.6</ele>
        <time>2022-07-14T10:41:48+0200</time>
      </trkpt>
      <trkpt lat="44.91707" lon="6.59995">
        <ele>1563.6</ele>
        <time>2022-07-14T10:41:50+0200</time>
      </trkpt>
      <trkpt lat="44.91702" lon="6.6">
        <ele>1564.4</ele>
        <time>2022-07-14T10:41:53+0200</time>
      </trkpt>
      <trkpt lat="44.91697" lon="6.60001">
        <ele>1565.9</ele>
        <time>2022-07-14T10:41:56+0200</time>
      </trkpt>
      <trkpt lat="44.91693" lon="6.60005">
        <ele>1566.4</ele>
        <time>2022-07-14T10:41:59+0200</time>
      </trkpt>
      <trkpt lat="44.91689" lon="6.6001">
        <ele>1566.7</ele>
        <time>2022-07-14T10:42:02+0200</time>
      </trkpt>
      <trkpt lat="44.91684" lon="6.60015">
        <ele>1567.1</ele>
        <time>2022-07-14T10:42:05+0200</time>
      </trkpt>
      <trkpt lat="44.9168" lon="6.60022">
        <ele>1567.1</ele>
        <time>2022-07-14T10:42:09+0200</time>
      </trkpt>
      <trkpt lat="44.91676" lon="6.60027">
        <ele>1567.4</ele>
        <time>2022-07-14T10:42:12+0200</time>
      </trkpt>
      <trkpt lat="44.91673" lon="6.60032">
        <ele>1567.6</ele>
        <time>2022-07-14T10:42:15+0200</time>
      </trkpt>
      <trkpt lat="44.91668" lon="6.60036">
        <ele>1568.3</ele>
        <time>2022-07-14T10:42:18+0200</time>
      </trkpt>
      <trkpt lat="44.91662" lon="6.60041">
        <ele>1568.7</ele>
        <time>2022-07-14T10:42:21+0200</time>
      </trkpt>
      <trkpt lat="44.91656" lon="6.60042">
        <ele>1569.8</ele>
        <time>2022-07-14T10:42:25+0200</time>
      </trkpt>
      <trkpt lat="44.91654" lon="6.60035">
        <ele>1571.6</ele>
        <time>2022-07-14T10:42:30+0200</time>
      </trkpt>
      <trkpt lat="44.91656" lon="6.60029">
        <ele>1572.6</ele>
        <time>2022-07-14T10:42:33+0200</time>
      </trkpt>
      <trkpt lat="44.9166" lon="6.60024">
        <ele>1572.2</ele>
        <time>2022-07-14T10:42:36+0200</time>
      </trkpt>
      <trkpt lat="44.91664" lon="6.6002">
        <ele>1571.8</ele>
        <time>2022-07-14T10:42:39+0200</time>
      </trkpt>
      <trkpt lat="44.91667" lon="6.60015">
        <ele>1571.8</ele>
        <time>2022-07-14T10:42:42+0200</time>
      </trkpt>
      <trkpt lat="44.9167" lon="6.6001">
        <ele>1571.7</ele>
        <time>2022-07-14T10:42:45+0200</time>
      </trkpt>
      <trkpt lat="44.91675" lon="6.60005">
        <ele>1571.1</ele>
        <time>2022-07-14T10:42:48+0200</time>
      </trkpt>
      <trkpt lat="44.9168" lon="6.60002">
        <ele>1570.3</ele>
        <time>2022-07-14T10:42:51+0200</time>
      </trkpt>
      <trkpt lat="44.91684" lon="6.59997">
        <ele>1570.1</ele>
        <time>2022-07-14T10:42:54+0200</time>
      </trkpt>
      <trkpt lat="44.91687" lon="6.59989">
        <ele>1570.8</ele>
        <time>2022-07-14T10:42:57+0200</time>
      </trkpt>
      <trkpt lat="44.9169" lon="6.59985">
        <ele>1570.8</ele>
        <time>2022-07-14T10:42:59+0200</time>
      </trkpt>
      <trkpt lat="44.91694" lon="6.59979">
        <ele>1571</ele>
        <time>2022-07-14T10:43:02+0200</time>
      </trkpt>
      <trkpt lat="44.91695" lon="6.59973">
        <ele>1571.6</ele>
        <time>2022-07-14T10:43:04+0200</time>
      </trkpt>
      <trkpt lat="44.91696" lon="6.59965">
        <ele>1572.8</ele>
        <time>2022-07-14T10:43:06+0200</time>
      </trkpt>
      <trkpt lat="44.91698" lon="6.59956">
        <ele>1573.7</ele>
        <time>2022-07-14T10:43:09+0200</time>
      </trkpt>
      <trkpt lat="44.917" lon="6.59949">
        <ele>1574.2</ele>
        <time>2022-07-14T10:43:12+0200</time>
      </trkpt>
      <trkpt lat="44.91702" lon="6.5994">
        <ele>1575.7</ele>
        <time>2022-07-14T10:43:15+0200</time>
      </trkpt>
      <trkpt lat="44.91706" lon="6.59933">
        <ele>1575.8</ele>
        <time>2022-07-14T10:43:18+0200</time>
      </trkpt>
      <trkpt lat="44.91709" lon="6.59928">
        <ele>1575.7</ele>
        <time>2022-07-14T10:43:21+0200</time>
      </trkpt>
      <trkpt lat="44.91712" lon="6.59919">
        <ele>1576.5</ele>
        <time>2022-07-14T10:43:24+0200</time>
      </trkpt>
      <trkpt lat="44.91715" lon="6.5991">
        <ele>1577.5</ele>
        <time>2022-07-14T10:43:27+0200</time>
      </trkpt>
      <trkpt lat="44.91717" lon="6.59904">
        <ele>1578</ele>
        <time>2022-07-14T10:43:29+0200</time>
      </trkpt>
      <trkpt lat="44.91718" lon="6.59897">
        <ele>1579.7</ele>
        <time>2022-07-14T10:43:31+0200</time>
      </trkpt>
      <trkpt lat="44.91719" lon="6.59888">
        <ele>1581.6</ele>
        <time>2022-07-14T10:43:33+0200</time>
      </trkpt>
      <trkpt lat="44.9172" lon="6.59879">
        <ele>1583.1</ele>
        <time>2022-07-14T10:43:36+0200</time>
      </trkpt>
      <trkpt lat="44.9172" lon="6.59872">
        <ele>1584.4</ele>
        <time>2022-07-14T10:43:38+0200</time>
      </trkpt>
      <trkpt lat="44.91722" lon="6.59865">
        <ele>1585.2</ele>
        <time>2022-07-14T10:43:40+0200</time>
      </trkpt>
      <trkpt lat="44.91724" lon="6.59858">
        <ele>1586.1</ele>
        <time>2022-07-14T10:43:43+0200</time>
      </trkpt>
      <trkpt lat="44.91725" lon="6.59852">
        <ele>1586.8</ele>
        <time>2022-07-14T10:43:45+0200</time>
      </trkpt>
      <trkpt lat="44.91727" lon="6.59845">
        <ele>1587.6</ele>
        <time>2022-07-14T10:43:48+0200</time>
      </trkpt>
      <trkpt lat="44.91729" lon="6.59837">
        <ele>1588.6</ele>
        <time>2022-07-14T10:43:51+0200</time>
      </trkpt>
      <trkpt lat="44.91732" lon="6.59831">
        <ele>1588.7</ele>
        <time>2022-07-14T10:43:54+0200</time>
      </trkpt>
      <trkpt lat="44.91735" lon="6.59825">
        <ele>1588.5</ele>
        <time>2022-07-14T10:43:57+0200</time>
      </trkpt>
      <trkpt lat="44.91739" lon="6.59816">
        <ele>1589</ele>
        <time>2022-07-14T10:44:00+0200</time>
      </trkpt>
      <trkpt lat="44.9174" lon="6.59809">
        <ele>1589.8</ele>
        <time>2022-07-14T10:44:02+0200</time>
      </trkpt>
      <trkpt lat="44.91743" lon="6.59801">
        <ele>1590</ele>
        <time>2022-07-14T10:44:05+0200</time>
      </trkpt>
      <trkpt lat="44.91743" lon="6.59794">
        <ele>1591.3</ele>
        <time>2022-07-14T10:44:08+0200</time>
      </trkpt>
      <trkpt lat="44.91747" lon="6.59788">
        <ele>1591.2</ele>
        <time>2022-07-14T10:44:12+0200</time>
      </trkpt>
      <trkpt lat="44.9175" lon="6.59783">
        <ele>1591</ele>
        <time>2022-07-14T10:44:15+0200</time>
      </trkpt>
      <trkpt lat="44.91753" lon="6.59776">
        <ele>1591.8</ele>
        <time>2022-07-14T10:44:19+0200</time>
      </trkpt>
      <trkpt lat="44.91755" lon="6.5977">
        <ele>1592.6</ele>
        <time>2022-07-14T10:44:21+0200</time>
      </trkpt>
      <trkpt lat="44.91759" lon="6.59763">
        <ele>1593.3</ele>
        <time>2022-07-14T10:44:24+0200</time>
      </trkpt>
      <trkpt lat="44.91763" lon="6.59758">
        <ele>1593.6</ele>
        <time>2022-07-14T10:44:27+0200</time>
      </trkpt>
      <trkpt lat="44.91767" lon="6.59752">
        <ele>1594</ele>
        <time>2022-07-14T10:44:30+0200</time>
      </trkpt>
      <trkpt lat="44.9177" lon="6.59748">
        <ele>1594.4</ele>
        <time>2022-07-14T10:44:33+0200</time>
      </trkpt>
      <trkpt lat="44.91775" lon="6.59745">
        <ele>1593.9</ele>
        <time>2022-07-14T10:44:37+0200</time>
      </trkpt>
      <trkpt lat="44.91781" lon="6.59743">
        <ele>1592.8</ele>
        <time>2022-07-14T10:44:41+0200</time>
      </trkpt>
      <trkpt lat="44.91784" lon="6.59739">
        <ele>1593.4</ele>
        <time>2022-07-14T10:44:44+0200</time>
      </trkpt>
      <trkpt lat="44.91789" lon="6.59736">
        <ele>1593.3</ele>
        <time>2022-07-14T10:44:47+0200</time>
      </trkpt>
      <trkpt lat="44.91791" lon="6.59731">
        <ele>1594.7</ele>
        <time>2022-07-14T10:44:49+0200</time>
      </trkpt>
      <trkpt lat="44.91795" lon="6.59725">
        <ele>1595.6</ele>
        <time>2022-07-14T10:44:52+0200</time>
      </trkpt>
      <trkpt lat="44.91792" lon="6.59719">
        <ele>1598.9</ele>
        <time>2022-07-14T10:44:58+0200</time>
      </trkpt>
      <trkpt lat="44.91796" lon="6.59715">
        <ele>1599.4</ele>
        <time>2022-07-14T10:45:02+0200</time>
      </trkpt>
      <trkpt lat="44.918" lon="6.5971">
        <ele>1600.4</ele>
        <time>2022-07-14T10:45:16+0200</time>
      </trkpt>
      <trkpt lat="44.91805" lon="6.59707">
        <ele>1600</ele>
        <time>2022-07-14T10:45:20+0200</time>
      </trkpt>
      <trkpt lat="44.91808" lon="6.59699">
        <ele>1602.6</ele>
        <time>2022-07-14T10:45:22+0200</time>
      </trkpt>
      <trkpt lat="44.91806" lon="6.59693">
        <ele>1605.4</ele>
        <time>2022-07-14T10:45:25+0200</time>
      </trkpt>
      <trkpt lat="44.91801" lon="6.59691">
        <ele>1607.9</ele>
        <time>2022-07-14T10:45:29+0200</time>
      </trkpt>
      <trkpt lat="44.91796" lon="6.59693">
        <ele>1608.7</ele>
        <time>2022-07-14T10:45:33+0200</time>
      </trkpt>
      <trkpt lat="44.9179" lon="6.59694">
        <ele>1610.5</ele>
        <time>2022-07-14T10:45:36+0200</time>
      </trkpt>
      <trkpt lat="44.91784" lon="6.59697">
        <ele>1610.7</ele>
        <time>2022-07-14T10:45:40+0200</time>
      </trkpt>
      <trkpt lat="44.91779" lon="6.597">
        <ele>1611.1</ele>
        <time>2022-07-14T10:45:44+0200</time>
      </trkpt>
      <trkpt lat="44.91774" lon="6.597">
        <ele>1612.9</ele>
        <time>2022-07-14T10:45:46+0200</time>
      </trkpt>
      <trkpt lat="44.91769" lon="6.597">
        <ele>1614.4</ele>
        <time>2022-07-14T10:45:49+0200</time>
      </trkpt>
      <trkpt lat="44.91764" lon="6.59702">
        <ele>1615.3</ele>
        <time>2022-07-14T10:45:53+0200</time>
      </trkpt>
      <trkpt lat="44.91759" lon="6.59704">
        <ele>1616.1</ele>
        <time>2022-07-14T10:45:56+0200</time>
      </trkpt>
      <trkpt lat="44.91754" lon="6.59704">
        <ele>1617.8</ele>
        <time>2022-07-14T10:45:58+0200</time>
      </trkpt>
      <trkpt lat="44.91748" lon="6.59706">
        <ele>1619.1</ele>
        <time>2022-07-14T10:46:01+0200</time>
      </trkpt>
      <trkpt lat="44.91743" lon="6.59709">
        <ele>1619.7</ele>
        <time>2022-07-14T10:46:05+0200</time>
      </trkpt>
      <trkpt lat="44.91738" lon="6.59714">
        <ele>1619.4</ele>
        <time>2022-07-14T10:46:08+0200</time>
      </trkpt>
      <trkpt lat="44.91734" lon="6.59717">
        <ele>1619.6</ele>
        <time>2022-07-14T10:46:10+0200</time>
      </trkpt>
      <trkpt lat="44.9173" lon="6.5972">
        <ele>1620.1</ele>
        <time>2022-07-14T10:46:13+0200</time>
      </trkpt>
      <trkpt lat="44.91724" lon="6.59723">
        <ele>1621.1</ele>
        <time>2022-07-14T10:46:16+0200</time>
      </trkpt>
      <trkpt lat="44.91721" lon="6.59728">
        <ele>1620.2</ele>
        <time>2022-07-14T10:46:19+0200</time>
      </trkpt>
      <trkpt lat="44.91717" lon="6.59732">
        <ele>1620.9</ele>
        <time>2022-07-14T10:46:22+0200</time>
      </trkpt>
      <trkpt lat="44.91711" lon="6.59735">
        <ele>1622.4</ele>
        <time>2022-07-14T10:46:24+0200</time>
      </trkpt>
      <trkpt lat="44.91707" lon="6.5974">
        <ele>1622.9</ele>
        <time>2022-07-14T10:46:26+0200</time>
      </trkpt>
      <trkpt lat="44.91706" lon="6.59746">
        <ele>1621.7</ele>
        <time>2022-07-14T10:46:28+0200</time>
      </trkpt>
      <trkpt lat="44.91705" lon="6.59754">
        <ele>1619.8</ele>
        <time>2022-07-14T10:46:31+0200</time>
      </trkpt>
      <trkpt lat="44.91703" lon="6.5976">
        <ele>1619.3</ele>
        <time>2022-07-14T10:46:33+0200</time>
      </trkpt>
      <trkpt lat="44.91698" lon="6.59764">
        <ele>1620.4</ele>
        <time>2022-07-14T10:46:35+0200</time>
      </trkpt>
      <trkpt lat="44.91695" lon="6.5977">
        <ele>1620.8</ele>
        <time>2022-07-14T10:46:37+0200</time>
      </trkpt>
      <trkpt lat="44.91691" lon="6.59775">
        <ele>1621.2</ele>
        <time>2022-07-14T10:46:39+0200</time>
      </trkpt>
      <trkpt lat="44.91687" lon="6.59779">
        <ele>1622.7</ele>
        <time>2022-07-14T10:46:41+0200</time>
      </trkpt>
      <trkpt lat="44.91682" lon="6.59782">
        <ele>1624.4</ele>
        <time>2022-07-14T10:46:43+0200</time>
      </trkpt>
      <trkpt lat="44.91679" lon="6.59789">
        <ele>1623.7</ele>
        <time>2022-07-14T10:46:46+0200</time>
      </trkpt>
      <trkpt lat="44.91677" lon="6.59795">
        <ele>1622.9</ele>
        <time>2022-07-14T10:46:48+0200</time>
      </trkpt>
      <trkpt lat="44.91672" lon="6.59799">
        <ele>1624.6</ele>
        <time>2022-07-14T10:46:51+0200</time>
      </trkpt>
      <trkpt lat="44.91668" lon="6.59802">
        <ele>1625.6</ele>
        <time>2022-07-14T10:46:54+0200</time>
      </trkpt>
      <trkpt lat="44.91664" lon="6.59807">
        <ele>1625.8</ele>
        <time>2022-07-14T10:46:57+0200</time>
      </trkpt>
      <trkpt lat="44.91658" lon="6.59809">
        <ele>1626.9</ele>
        <time>2022-07-14T10:47:00+0200</time>
      </trkpt>
      <trkpt lat="44.91654" lon="6.59813">
        <ele>1627.3</ele>
        <time>2022-07-14T10:47:03+0200</time>
      </trkpt>
      <trkpt lat="44.9165" lon="6.59815">
        <ele>1628.2</ele>
        <time>2022-07-14T10:47:06+0200</time>
      </trkpt>
      <trkpt lat="44.91646" lon="6.59819">
        <ele>1628.4</ele>
        <time>2022-07-14T10:47:09+0200</time>
      </trkpt>
      <trkpt lat="44.91639" lon="6.59821">
        <ele>1629.8</ele>
        <time>2022-07-14T10:47:12+0200</time>
      </trkpt>
      <trkpt lat="44.91634" lon="6.59826">
        <ele>1630.1</ele>
        <time>2022-07-14T10:47:15+0200</time>
      </trkpt>
      <trkpt lat="44.91629" lon="6.5983">
        <ele>1630.4</ele>
        <time>2022-07-14T10:47:18+0200</time>
      </trkpt>
      <trkpt lat="44.91624" lon="6.59833">
        <ele>1631</ele>
        <time>2022-07-14T10:47:22+0200</time>
      </trkpt>
      <trkpt lat="44.91618" lon="6.59837">
        <ele>1631.5</ele>
        <time>2022-07-14T10:47:25+0200</time>
      </trkpt>
      <trkpt lat="44.91613" lon="6.59839">
        <ele>1632.7</ele>
        <time>2022-07-14T10:47:28+0200</time>
      </trkpt>
      <trkpt lat="44.91607" lon="6.59843">
        <ele>1633.3</ele>
        <time>2022-07-14T10:47:30+0200</time>
      </trkpt>
      <trkpt lat="44.91603" lon="6.59845">
        <ele>1634.5</ele>
        <time>2022-07-14T10:47:33+0200</time>
      </trkpt>
      <trkpt lat="44.91598" lon="6.59851">
        <ele>1634.7</ele>
        <time>2022-07-14T10:47:36+0200</time>
      </trkpt>
      <trkpt lat="44.91594" lon="6.59855">
        <ele>1635</ele>
        <time>2022-07-14T10:47:38+0200</time>
      </trkpt>
      <trkpt lat="44.91588" lon="6.5986">
        <ele>1635.6</ele>
        <time>2022-07-14T10:47:41+0200</time>
      </trkpt>
      <trkpt lat="44.91585" lon="6.59865">
        <ele>1635.1</ele>
        <time>2022-07-14T10:47:43+0200</time>
      </trkpt>
      <trkpt lat="44.91582" lon="6.5987">
        <ele>1635</ele>
        <time>2022-07-14T10:47:45+0200</time>
      </trkpt>
      <trkpt lat="44.91577" lon="6.59874">
        <ele>1635.7</ele>
        <time>2022-07-14T10:47:48+0200</time>
      </trkpt>
      <trkpt lat="44.91575" lon="6.5988">
        <ele>1634.9</ele>
        <time>2022-07-14T10:47:50+0200</time>
      </trkpt>
      <trkpt lat="44.91571" lon="6.59883">
        <ele>1635.4</ele>
        <time>2022-07-14T10:47:52+0200</time>
      </trkpt>
      <trkpt lat="44.91565" lon="6.59887">
        <ele>1636.5</ele>
        <time>2022-07-14T10:47:55+0200</time>
      </trkpt>
      <trkpt lat="44.91561" lon="6.59891">
        <ele>1636.9</ele>
        <time>2022-07-14T10:47:58+0200</time>
      </trkpt>
      <trkpt lat="44.91556" lon="6.59893">
        <ele>1638.6</ele>
        <time>2022-07-14T10:48:01+0200</time>
      </trkpt>
      <trkpt lat="44.91553" lon="6.59898">
        <ele>1638.3</ele>
        <time>2022-07-14T10:48:04+0200</time>
      </trkpt>
      <trkpt lat="44.91549" lon="6.59902">
        <ele>1638.2</ele>
        <time>2022-07-14T10:48:06+0200</time>
      </trkpt>
      <trkpt lat="44.91544" lon="6.59908">
        <ele>1637.9</ele>
        <time>2022-07-14T10:48:09+0200</time>
      </trkpt>
      <trkpt lat="44.91539" lon="6.5991">
        <ele>1638.9</ele>
        <time>2022-07-14T10:48:11+0200</time>
      </trkpt>
      <trkpt lat="44.91534" lon="6.59916">
        <ele>1638.9</ele>
        <time>2022-07-14T10:48:14+0200</time>
      </trkpt>
      <trkpt lat="44.91529" lon="6.59918">
        <ele>1640.1</ele>
        <time>2022-07-14T10:48:17+0200</time>
      </trkpt>
      <trkpt lat="44.91524" lon="6.59923">
        <ele>1640.2</ele>
        <time>2022-07-14T10:48:20+0200</time>
      </trkpt>
      <trkpt lat="44.91518" lon="6.59926">
        <ele>1641</ele>
        <time>2022-07-14T10:48:23+0200</time>
      </trkpt>
      <trkpt lat="44.91515" lon="6.59931">
        <ele>1640.3</ele>
        <time>2022-07-14T10:48:25+0200</time>
      </trkpt>
      <trkpt lat="44.9151" lon="6.59934">
        <ele>1641.1</ele>
        <time>2022-07-14T10:48:28+0200</time>
      </trkpt>
      <trkpt lat="44.91504" lon="6.59935">
        <ele>1642.1</ele>
        <time>2022-07-14T10:48:31+0200</time>
      </trkpt>
      <trkpt lat="44.91502" lon="6.59928">
        <ele>1645.4</ele>
        <time>2022-07-14T10:48:37+0200</time>
      </trkpt>
      <trkpt lat="44.91507" lon="6.59924">
        <ele>1645</ele>
        <time>2022-07-14T10:48:41+0200</time>
      </trkpt>
      <trkpt lat="44.91513" lon="6.5992">
        <ele>1644.6</ele>
        <time>2022-07-14T10:48:45+0200</time>
      </trkpt>
      <trkpt lat="44.91516" lon="6.59914">
        <ele>1645.6</ele>
        <time>2022-07-14T10:48:48+0200</time>
      </trkpt>
      <trkpt lat="44.91522" lon="6.5991">
        <ele>1645</ele>
        <time>2022-07-14T10:48:51+0200</time>
      </trkpt>
      <trkpt lat="44.91527" lon="6.59906">
        <ele>1644.6</ele>
        <time>2022-07-14T10:48:54+0200</time>
      </trkpt>
      <trkpt lat="44.91531" lon="6.599">
        <ele>1645.3</ele>
        <time>2022-07-14T10:48:57+0200</time>
      </trkpt>
      <trkpt lat="44.91535" lon="6.59897">
        <ele>1644.8</ele>
        <time>2022-07-14T10:48:59+0200</time>
      </trkpt>
      <trkpt lat="44.91538" lon="6.59892">
        <ele>1645.6</ele>
        <time>2022-07-14T10:49:01+0200</time>
      </trkpt>
      <trkpt lat="44.91541" lon="6.59886">
        <ele>1646.2</ele>
        <time>2022-07-14T10:49:04+0200</time>
      </trkpt>
      <trkpt lat="44.91545" lon="6.59881">
        <ele>1646.3</ele>
        <time>2022-07-14T10:49:07+0200</time>
      </trkpt>
      <trkpt lat="44.91548" lon="6.59876">
        <ele>1646.9</ele>
        <time>2022-07-14T10:49:09+0200</time>
      </trkpt>
      <trkpt lat="44.91552" lon="6.59869">
        <ele>1647.9</ele>
        <time>2022-07-14T10:49:12+0200</time>
      </trkpt>
      <trkpt lat="44.91556" lon="6.59864">
        <ele>1647.9</ele>
        <time>2022-07-14T10:49:15+0200</time>
      </trkpt>
      <trkpt lat="44.9156" lon="6.59857">
        <ele>1648.6</ele>
        <time>2022-07-14T10:49:18+0200</time>
      </trkpt>
      <trkpt lat="44.91562" lon="6.5985">
        <ele>1650.2</ele>
        <time>2022-07-14T10:49:21+0200</time>
      </trkpt>
      <trkpt lat="44.91564" lon="6.59842">
        <ele>1651.8</ele>
        <time>2022-07-14T10:49:24+0200</time>
      </trkpt>
      <trkpt lat="44.91566" lon="6.59835">
        <ele>1653</ele>
        <time>2022-07-14T10:49:28+0200</time>
      </trkpt>
      <trkpt lat="44.9157" lon="6.59827">
        <ele>1654.1</ele>
        <time>2022-07-14T10:49:31+0200</time>
      </trkpt>
      <trkpt lat="44.91575" lon="6.59821">
        <ele>1654.2</ele>
        <time>2022-07-14T10:49:35+0200</time>
      </trkpt>
      <trkpt lat="44.9158" lon="6.59815">
        <ele>1654.2</ele>
        <time>2022-07-14T10:49:38+0200</time>
      </trkpt>
      <trkpt lat="44.91585" lon="6.59811">
        <ele>1653.3</ele>
        <time>2022-07-14T10:49:41+0200</time>
      </trkpt>
      <trkpt lat="44.9159" lon="6.59806">
        <ele>1653.2</ele>
        <time>2022-07-14T10:49:44+0200</time>
      </trkpt>
      <trkpt lat="44.91596" lon="6.59807">
        <ele>1650.8</ele>
        <time>2022-07-14T10:49:47+0200</time>
      </trkpt>
      <trkpt lat="44.916" lon="6.59802">
        <ele>1650.9</ele>
        <time>2022-07-14T10:49:50+0200</time>
      </trkpt>
      <trkpt lat="44.91605" lon="6.59799">
        <ele>1650.1</ele>
        <time>2022-07-14T10:49:53+0200</time>
      </trkpt>
      <trkpt lat="44.91609" lon="6.59794">
        <ele>1650.5</ele>
        <time>2022-07-14T10:49:56+0200</time>
      </trkpt>
      <trkpt lat="44.91613" lon="6.59788">
        <ele>1651.2</ele>
        <time>2022-07-14T10:49:58+0200</time>
      </trkpt>
      <trkpt lat="44.91619" lon="6.59785">
        <ele>1650.4</ele>
        <time>2022-07-14T10:50:00+0200</time>
      </trkpt>
      <trkpt lat="44.91623" lon="6.59779">
        <ele>1650.8</ele>
        <time>2022-07-14T10:50:02+0200</time>
      </trkpt>
      <trkpt lat="44.91629" lon="6.59776">
        <ele>1649.6</ele>
        <time>2022-07-14T10:50:05+0200</time>
      </trkpt>
      <trkpt lat="44.91632" lon="6.59771">
        <ele>1649.9</ele>
        <time>2022-07-14T10:50:07+0200</time>
      </trkpt>
      <trkpt lat="44.91637" lon="6.59766">
        <ele>1649.8</ele>
        <time>2022-07-14T10:50:09+0200</time>
      </trkpt>
      <trkpt lat="44.91642" lon="6.5976">
        <ele>1649.5</ele>
        <time>2022-07-14T10:50:12+0200</time>
      </trkpt>
      <trkpt lat="44.91644" lon="6.59752">
        <ele>1650.8</ele>
        <time>2022-07-14T10:50:14+0200</time>
      </trkpt>
      <trkpt lat="44.91647" lon="6.59746">
        <ele>1651.6</ele>
        <time>2022-07-14T10:50:16+0200</time>
      </trkpt>
      <trkpt lat="44.91649" lon="6.59738">
        <ele>1652.8</ele>
        <time>2022-07-14T10:50:19+0200</time>
      </trkpt>
      <trkpt lat="44.91651" lon="6.59731">
        <ele>1654.4</ele>
        <time>2022-07-14T10:50:21+0200</time>
      </trkpt>
      <trkpt lat="44.91653" lon="6.59722">
        <ele>1656.1</ele>
        <time>2022-07-14T10:50:24+0200</time>
      </trkpt>
      <trkpt lat="44.91656" lon="6.59716">
        <ele>1655.9</ele>
        <time>2022-07-14T10:50:26+0200</time>
      </trkpt>
      <trkpt lat="44.91658" lon="6.5971">
        <ele>1656.5</ele>
        <time>2022-07-14T10:50:29+0200</time>
      </trkpt>
      <trkpt lat="44.91659" lon="6.59701">
        <ele>1658</ele>
        <time>2022-07-14T10:50:33+0200</time>
      </trkpt>
      <trkpt lat="44.91659" lon="6.59694">
        <ele>1660</ele>
        <time>2022-07-14T10:50:36+0200</time>
      </trkpt>
      <trkpt lat="44.91657" lon="6.59686">
        <ele>1663.2</ele>
        <time>2022-07-14T10:50:39+0200</time>
      </trkpt>
      <trkpt lat="44.91657" lon="6.5968">
        <ele>1665.4</ele>
        <time>2022-07-14T10:50:41+0200</time>
      </trkpt>
      <trkpt lat="44.91656" lon="6.59673">
        <ele>1667.6</ele>
        <time>2022-07-14T10:50:44+0200</time>
      </trkpt>
      <trkpt lat="44.91657" lon="6.59666">
        <ele>1668.9</ele>
        <time>2022-07-14T10:50:47+0200</time>
      </trkpt>
      <trkpt lat="44.9166" lon="6.5966">
        <ele>1668.8</ele>
        <time>2022-07-14T10:50:50+0200</time>
      </trkpt>
      <trkpt lat="44.91661" lon="6.59653">
        <ele>1670.2</ele>
        <time>2022-07-14T10:50:53+0200</time>
      </trkpt>
      <trkpt lat="44.91658" lon="6.59646">
        <ele>1673.5</ele>
        <time>2022-07-14T10:50:56+0200</time>
      </trkpt>
      <trkpt lat="44.91663" lon="6.59642">
        <ele>1671.8</ele>
        <time>2022-07-14T10:51:01+0200</time>
      </trkpt>
      <trkpt lat="44.91669" lon="6.59644">
        <ele>1668.1</ele>
        <time>2022-07-14T10:51:06+0200</time>
      </trkpt>
      <trkpt lat="44.91673" lon="6.59642">
        <ele>1667</ele>
        <time>2022-07-14T10:51:08+0200</time>
      </trkpt>
      <trkpt lat="44.91679" lon="6.59641">
        <ele>1665.4</ele>
        <time>2022-07-14T10:51:11+0200</time>
      </trkpt>
      <trkpt lat="44.91686" lon="6.59642">
        <ele>1662.9</ele>
        <time>2022-07-14T10:51:14+0200</time>
      </trkpt>
      <trkpt lat="44.9169" lon="6.59639">
        <ele>1662.3</ele>
        <time>2022-07-14T10:51:16+0200</time>
      </trkpt>
      <trkpt lat="44.91695" lon="6.59635">
        <ele>1662.5</ele>
        <time>2022-07-14T10:51:18+0200</time>
      </trkpt>
      <trkpt lat="44.91699" lon="6.59628">
        <ele>1664.7</ele>
        <time>2022-07-14T10:51:21+0200</time>
      </trkpt>
      <trkpt lat="44.91703" lon="6.59622">
        <ele>1666.3</ele>
        <time>2022-07-14T10:51:23+0200</time>
      </trkpt>
      <trkpt lat="44.91707" lon="6.59617">
        <ele>1667.5</ele>
        <time>2022-07-14T10:51:25+0200</time>
      </trkpt>
      <trkpt lat="44.91711" lon="6.59608">
        <ele>1669.9</ele>
        <time>2022-07-14T10:51:27+0200</time>
      </trkpt>
      <trkpt lat="44.91715" lon="6.59601">
        <ele>1671.9</ele>
        <time>2022-07-14T10:51:29+0200</time>
      </trkpt>
      <trkpt lat="44.91719" lon="6.59595">
        <ele>1673.3</ele>
        <time>2022-07-14T10:51:31+0200</time>
      </trkpt>
      <trkpt lat="44.91724" lon="6.5959">
        <ele>1673.9</ele>
        <time>2022-07-14T10:51:34+0200</time>
      </trkpt>
      <trkpt lat="44.91727" lon="6.59585">
        <ele>1674.6</ele>
        <time>2022-07-14T10:51:36+0200</time>
      </trkpt>
      <trkpt lat="44.91731" lon="6.59581">
        <ele>1674.8</ele>
        <time>2022-07-14T10:51:37+0200</time>
      </trkpt>
      <trkpt lat="44.91735" lon="6.59575">
        <ele>1675.6</ele>
        <time>2022-07-14T10:51:40+0200</time>
      </trkpt>
      <trkpt lat="44.91737" lon="6.59568">
        <ele>1677.5</ele>
        <time>2022-07-14T10:51:42+0200</time>
      </trkpt>
      <trkpt lat="44.91741" lon="6.59562">
        <ele>1678.8</ele>
        <time>2022-07-14T10:51:44+0200</time>
      </trkpt>
      <trkpt lat="44.91744" lon="6.59554">
        <ele>1681.1</ele>
        <time>2022-07-14T10:51:47+0200</time>
      </trkpt>
      <trkpt lat="44.91746" lon="6.59548">
        <ele>1682.8</ele>
        <time>2022-07-14T10:51:49+0200</time>
      </trkpt>
      <trkpt lat="44.9175" lon="6.59542">
        <ele>1683.8</ele>
        <time>2022-07-14T10:51:52+0200</time>
      </trkpt>
      <trkpt lat="44.91755" lon="6.5954">
        <ele>1683.7</ele>
        <time>2022-07-14T10:51:54+0200</time>
      </trkpt>
      <trkpt lat="44.91761" lon="6.59538">
        <ele>1683.1</ele>
        <time>2022-07-14T10:51:58+0200</time>
      </trkpt>
      <trkpt lat="44.91766" lon="6.59538">
        <ele>1681.5</ele>
        <time>2022-07-14T10:52:01+0200</time>
      </trkpt>
      <trkpt lat="44.91772" lon="6.59538">
        <ele>1679.8</ele>
        <time>2022-07-14T10:52:05+0200</time>
      </trkpt>
      <trkpt lat="44.91777" lon="6.59535">
        <ele>1680</ele>
        <time>2022-07-14T10:52:07+0200</time>
      </trkpt>
      <trkpt lat="44.91783" lon="6.59534">
        <ele>1679.7</ele>
        <time>2022-07-14T10:52:09+0200</time>
      </trkpt>
      <trkpt lat="44.91789" lon="6.59528">
        <ele>1681.4</ele>
        <time>2022-07-14T10:52:12+0200</time>
      </trkpt>
      <trkpt lat="44.91792" lon="6.59524">
        <ele>1682.7</ele>
        <time>2022-07-14T10:52:14+0200</time>
      </trkpt>
      <trkpt lat="44.91797" lon="6.59521">
        <ele>1683</ele>
        <time>2022-07-14T10:52:16+0200</time>
      </trkpt>
      <trkpt lat="44.91803" lon="6.59517">
        <ele>1683.6</ele>
        <time>2022-07-14T10:52:19+0200</time>
      </trkpt>
      <trkpt lat="44.91805" lon="6.59511">
        <ele>1685.9</ele>
        <time>2022-07-14T10:52:21+0200</time>
      </trkpt>
      <trkpt lat="44.91809" lon="6.59504">
        <ele>1687.6</ele>
        <time>2022-07-14T10:52:23+0200</time>
      </trkpt>
      <trkpt lat="44.91814" lon="6.59499">
        <ele>1688.3</ele>
        <time>2022-07-14T10:52:26+0200</time>
      </trkpt>
      <trkpt lat="44.91819" lon="6.59496">
        <ele>1688.1</ele>
        <time>2022-07-14T10:52:29+0200</time>
      </trkpt>
      <trkpt lat="44.91825" lon="6.59495">
        <ele>1687.3</ele>
        <time>2022-07-14T10:52:32+0200</time>
      </trkpt>
      <trkpt lat="44.91828" lon="6.5949">
        <ele>1687.9</ele>
        <time>2022-07-14T10:52:34+0200</time>
      </trkpt>
      <trkpt lat="44.91832" lon="6.59486">
        <ele>1688.1</ele>
        <time>2022-07-14T10:52:36+0200</time>
      </trkpt>
      <trkpt lat="44.91837" lon="6.59481">
        <ele>1687.5</ele>
        <time>2022-07-14T10:52:39+0200</time>
      </trkpt>
      <trkpt lat="44.91842" lon="6.59478">
        <ele>1686.7</ele>
        <time>2022-07-14T10:52:42+0200</time>
      </trkpt>
      <trkpt lat="44.91846" lon="6.59474">
        <ele>1686.6</ele>
        <time>2022-07-14T10:52:45+0200</time>
      </trkpt>
      <trkpt lat="44.9185" lon="6.59469">
        <ele>1686.5</ele>
        <time>2022-07-14T10:52:48+0200</time>
      </trkpt>
      <trkpt lat="44.91854" lon="6.5946">
        <ele>1686.8</ele>
        <time>2022-07-14T10:52:50+0200</time>
      </trkpt>
      <trkpt lat="44.91859" lon="6.59454">
        <ele>1686.8</ele>
        <time>2022-07-14T10:52:53+0200</time>
      </trkpt>
      <trkpt lat="44.91863" lon="6.59449">
        <ele>1686.4</ele>
        <time>2022-07-14T10:52:56+0200</time>
      </trkpt>
      <trkpt lat="44.91866" lon="6.59443">
        <ele>1686.7</ele>
        <time>2022-07-14T10:52:58+0200</time>
      </trkpt>
      <trkpt lat="44.91867" lon="6.59437">
        <ele>1687.4</ele>
        <time>2022-07-14T10:53:00+0200</time>
      </trkpt>
      <trkpt lat="44.91869" lon="6.59431">
        <ele>1687.9</ele>
        <time>2022-07-14T10:53:02+0200</time>
      </trkpt>
      <trkpt lat="44.91871" lon="6.59424">
        <ele>1688.3</ele>
        <time>2022-07-14T10:53:04+0200</time>
      </trkpt>
      <trkpt lat="44.91873" lon="6.59414">
        <ele>1689.9</ele>
        <time>2022-07-14T10:53:06+0200</time>
      </trkpt>
      <trkpt lat="44.91874" lon="6.59407">
        <ele>1690.8</ele>
        <time>2022-07-14T10:53:08+0200</time>
      </trkpt>
      <trkpt lat="44.91876" lon="6.59401">
        <ele>1691.5</ele>
        <time>2022-07-14T10:53:10+0200</time>
      </trkpt>
      <trkpt lat="44.91877" lon="6.59394">
        <ele>1692.5</ele>
        <time>2022-07-14T10:53:12+0200</time>
      </trkpt>
      <trkpt lat="44.91878" lon="6.59387">
        <ele>1694</ele>
        <time>2022-07-14T10:53:15+0200</time>
      </trkpt>
      <trkpt lat="44.91878" lon="6.59378">
        <ele>1696.2</ele>
        <time>2022-07-14T10:53:18+0200</time>
      </trkpt>
      <trkpt lat="44.9188" lon="6.5937">
        <ele>1697.5</ele>
        <time>2022-07-14T10:53:21+0200</time>
      </trkpt>
      <trkpt lat="44.91882" lon="6.59363">
        <ele>1698.5</ele>
        <time>2022-07-14T10:53:23+0200</time>
      </trkpt>
      <trkpt lat="44.91885" lon="6.59357">
        <ele>1699.1</ele>
        <time>2022-07-14T10:53:26+0200</time>
      </trkpt>
      <trkpt lat="44.91886" lon="6.5935">
        <ele>1700.1</ele>
        <time>2022-07-14T10:53:29+0200</time>
      </trkpt>
      <trkpt lat="44.91889" lon="6.59343">
        <ele>1701.1</ele>
        <time>2022-07-14T10:53:32+0200</time>
      </trkpt>
      <trkpt lat="44.9189" lon="6.59335">
        <ele>1702.3</ele>
        <time>2022-07-14T10:53:36+0200</time>
      </trkpt>
      <trkpt lat="44.91894" lon="6.59331">
        <ele>1702.4</ele>
        <time>2022-07-14T10:53:39+0200</time>
      </trkpt>
      <trkpt lat="44.91899" lon="6.59326">
        <ele>1702.4</ele>
        <time>2022-07-14T10:53:43+0200</time>
      </trkpt>
      <trkpt lat="44.91902" lon="6.59318">
        <ele>1703.5</ele>
        <time>2022-07-14T10:53:47+0200</time>
      </trkpt>
      <trkpt lat="44.91902" lon="6.59312">
        <ele>1704.9</ele>
        <time>2022-07-14T10:53:48+0200</time>
      </trkpt>
      <trkpt lat="44.919" lon="6.59304">
        <ele>1706.9</ele>
        <time>2022-07-14T10:53:51+0200</time>
      </trkpt>
      <trkpt lat="44.91895" lon="6.593">
        <ele>1709</ele>
        <time>2022-07-14T10:53:54+0200</time>
      </trkpt>
      <trkpt lat="44.91889" lon="6.59301">
        <ele>1710</ele>
        <time>2022-07-14T10:54:00+0200</time>
      </trkpt>
      <trkpt lat="44.91885" lon="6.59303">
        <ele>1711.1</ele>
        <time>2022-07-14T10:54:02+0200</time>
      </trkpt>
      <trkpt lat="44.9188" lon="6.59306">
        <ele>1711.6</ele>
        <time>2022-07-14T10:54:04+0200</time>
      </trkpt>
      <trkpt lat="44.91875" lon="6.59308">
        <ele>1712.8</ele>
        <time>2022-07-14T10:54:07+0200</time>
      </trkpt>
      <trkpt lat="44.91871" lon="6.59313">
        <ele>1713.1</ele>
        <time>2022-07-14T10:54:12+0200</time>
      </trkpt>
      <trkpt lat="44.91866" lon="6.59314">
        <ele>1714.4</ele>
        <time>2022-07-14T10:54:15+0200</time>
      </trkpt>
      <trkpt lat="44.91861" lon="6.59317">
        <ele>1715.1</ele>
        <time>2022-07-14T10:54:18+0200</time>
      </trkpt>
      <trkpt lat="44.91856" lon="6.59319">
        <ele>1716.4</ele>
        <time>2022-07-14T10:54:21+0200</time>
      </trkpt>
      <trkpt lat="44.91851" lon="6.59325">
        <ele>1716.7</ele>
        <time>2022-07-14T10:54:24+0200</time>
      </trkpt>
      <trkpt lat="44.91847" lon="6.59329">
        <ele>1717</ele>
        <time>2022-07-14T10:54:28+0200</time>
      </trkpt>
      <trkpt lat="44.91843" lon="6.59331">
        <ele>1718.2</ele>
        <time>2022-07-14T10:54:31+0200</time>
      </trkpt>
      <trkpt lat="44.91838" lon="6.59334">
        <ele>1719.3</ele>
        <time>2022-07-14T10:54:34+0200</time>
      </trkpt>
      <trkpt lat="44.91832" lon="6.59335">
        <ele>1721</ele>
        <time>2022-07-14T10:54:37+0200</time>
      </trkpt>
      <trkpt lat="44.91828" lon="6.59338">
        <ele>1722</ele>
        <time>2022-07-14T10:54:40+0200</time>
      </trkpt>
      <trkpt lat="44.91823" lon="6.59344">
        <ele>1722.4</ele>
        <time>2022-07-14T10:54:43+0200</time>
      </trkpt>
      <trkpt lat="44.9182" lon="6.59347">
        <ele>1722.9</ele>
        <time>2022-07-14T10:54:46+0200</time>
      </trkpt>
      <trkpt lat="44.91816" lon="6.59352">
        <ele>1723.3</ele>
        <time>2022-07-14T10:54:48+0200</time>
      </trkpt>
      <trkpt lat="44.91811" lon="6.59356">
        <ele>1724.4</ele>
        <time>2022-07-14T10:54:50+0200</time>
      </trkpt>
      <trkpt lat="44.91806" lon="6.5936">
        <ele>1725.2</ele>
        <time>2022-07-14T10:54:53+0200</time>
      </trkpt>
      <trkpt lat="44.91801" lon="6.59362">
        <ele>1726.5</ele>
        <time>2022-07-14T10:54:56+0200</time>
      </trkpt>
      <trkpt lat="44.91796" lon="6.59366">
        <ele>1727.6</ele>
        <time>2022-07-14T10:55:00+0200</time>
      </trkpt>
      <trkpt lat="44.9179" lon="6.59369">
        <ele>1729.3</ele>
        <time>2022-07-14T10:55:04+0200</time>
      </trkpt>
      <trkpt lat="44.91784" lon="6.59373">
        <ele>1730.6</ele>
        <time>2022-07-14T10:55:07+0200</time>
      </trkpt>
      <trkpt lat="44.91779" lon="6.59377">
        <ele>1731.6</ele>
        <time>2022-07-14T10:55:11+0200</time>
      </trkpt>
      <trkpt lat="44.91775" lon="6.59381">
        <ele>1732.3</ele>
        <time>2022-07-14T10:55:15+0200</time>
      </trkpt>
      <trkpt lat="44.91771" lon="6.59385">
        <ele>1732.7</ele>
        <time>2022-07-14T10:55:18+0200</time>
      </trkpt>
      <trkpt lat="44.91766" lon="6.5939">
        <ele>1733.3</ele>
        <time>2022-07-14T10:55:21+0200</time>
      </trkpt>
      <trkpt lat="44.91762" lon="6.59394">
        <ele>1733.9</ele>
        <time>2022-07-14T10:55:24+0200</time>
      </trkpt>
      <trkpt lat="44.91758" lon="6.59399">
        <ele>1733.9</ele>
        <time>2022-07-14T10:55:27+0200</time>
      </trkpt>
      <trkpt lat="44.91754" lon="6.59405">
        <ele>1733.9</ele>
        <time>2022-07-14T10:55:30+0200</time>
      </trkpt>
      <trkpt lat="44.9175" lon="6.5941">
        <ele>1734</ele>
        <time>2022-07-14T10:55:33+0200</time>
      </trkpt>
      <trkpt lat="44.91747" lon="6.59416">
        <ele>1733.3</ele>
        <time>2022-07-14T10:55:37+0200</time>
      </trkpt>
      <trkpt lat="44.9175" lon="6.5941">
        <ele>1734</ele>
        <time>2022-07-14T10:55:47+0200</time>
      </trkpt>
      <trkpt lat="44.91754" lon="6.59406">
        <ele>1733.7</ele>
        <time>2022-07-14T10:55:52+0200</time>
      </trkpt>
      <trkpt lat="44.91757" lon="6.59401">
        <ele>1733.7</ele>
        <time>2022-07-14T10:55:55+0200</time>
      </trkpt>
      <trkpt lat="44.91761" lon="6.59395">
        <ele>1734.2</ele>
        <time>2022-07-14T10:55:59+0200</time>
      </trkpt>
      <trkpt lat="44.91764" lon="6.5939">
        <ele>1734.2</ele>
        <time>2022-07-14T10:56:03+0200</time>
      </trkpt>
      <trkpt lat="44.91765" lon="6.59382">
        <ele>1736.1</ele>
        <time>2022-07-14T10:56:05+0200</time>
      </trkpt>
      <trkpt lat="44.91766" lon="6.59375">
        <ele>1737.3</ele>
        <time>2022-07-14T10:56:08+0200</time>
      </trkpt>
      <trkpt lat="44.91768" lon="6.59367">
        <ele>1738.8</ele>
        <time>2022-07-14T10:56:12+0200</time>
      </trkpt>
      <trkpt lat="44.9177" lon="6.59362">
        <ele>1739.2</ele>
        <time>2022-07-14T10:56:15+0200</time>
      </trkpt>
      <trkpt lat="44.91774" lon="6.59357">
        <ele>1738.9</ele>
        <time>2022-07-14T10:56:19+0200</time>
      </trkpt>
      <trkpt lat="44.91777" lon="6.59351">
        <ele>1739.1</ele>
        <time>2022-07-14T10:56:22+0200</time>
      </trkpt>
      <trkpt lat="44.91781" lon="6.59346">
        <ele>1738.7</ele>
        <time>2022-07-14T10:56:25+0200</time>
      </trkpt>
      <trkpt lat="44.91785" lon="6.59341">
        <ele>1738.9</ele>
        <time>2022-07-14T10:56:27+0200</time>
      </trkpt>
      <trkpt lat="44.91789" lon="6.59337">
        <ele>1738.1</ele>
        <time>2022-07-14T10:56:30+0200</time>
      </trkpt>
      <trkpt lat="44.91794" lon="6.5933">
        <ele>1737.9</ele>
        <time>2022-07-14T10:56:33+0200</time>
      </trkpt>
      <trkpt lat="44.91797" lon="6.59323">
        <ele>1738.5</ele>
        <time>2022-07-14T10:56:37+0200</time>
      </trkpt>
      <trkpt lat="44.91801" lon="6.59319">
        <ele>1738.2</ele>
        <time>2022-07-14T10:56:40+0200</time>
      </trkpt>
      <trkpt lat="44.91803" lon="6.59313">
        <ele>1738.8</ele>
        <time>2022-07-14T10:56:43+0200</time>
      </trkpt>
      <trkpt lat="44.91806" lon="6.59307">
        <ele>1739.5</ele>
        <time>2022-07-14T10:56:46+0200</time>
      </trkpt>
      <trkpt lat="44.91809" lon="6.59301">
        <ele>1739.9</ele>
        <time>2022-07-14T10:56:50+0200</time>
      </trkpt>
      <trkpt lat="44.91811" lon="6.59293">
        <ele>1740.8</ele>
        <time>2022-07-14T10:56:53+0200</time>
      </trkpt>
      <trkpt lat="44.91814" lon="6.59286">
        <ele>1741.6</ele>
        <time>2022-07-14T10:56:56+0200</time>
      </trkpt>
      <trkpt lat="44.91817" lon="6.5928">
        <ele>1741.8</ele>
        <time>2022-07-14T10:56:59+0200</time>
      </trkpt>
      <trkpt lat="44.91819" lon="6.59274">
        <ele>1742.3</ele>
        <time>2022-07-14T10:57:02+0200</time>
      </trkpt>
      <trkpt lat="44.91822" lon="6.59268">
        <ele>1743</ele>
        <time>2022-07-14T10:57:06+0200</time>
      </trkpt>
      <trkpt lat="44.91825" lon="6.59263">
        <ele>1742.8</ele>
        <time>2022-07-14T10:57:08+0200</time>
      </trkpt>
      <trkpt lat="44.91825" lon="6.59256">
        <ele>1744.4</ele>
        <time>2022-07-14T10:57:12+0200</time>
      </trkpt>
      <trkpt lat="44.91827" lon="6.59249">
        <ele>1745.2</ele>
        <time>2022-07-14T10:57:15+0200</time>
      </trkpt>
      <trkpt lat="44.91827" lon="6.59241">
        <ele>1746.5</ele>
        <time>2022-07-14T10:57:18+0200</time>
      </trkpt>
      <trkpt lat="44.91828" lon="6.59233">
        <ele>1748</ele>
        <time>2022-07-14T10:57:21+0200</time>
      </trkpt>
      <trkpt lat="44.91831" lon="6.59229">
        <ele>1747.5</ele>
        <time>2022-07-14T10:57:23+0200</time>
      </trkpt>
      <trkpt lat="44.91833" lon="6.59222">
        <ele>1748</ele>
        <time>2022-07-14T10:57:27+0200</time>
      </trkpt>
      <trkpt lat="44.91836" lon="6.59215">
        <ele>1748.3</ele>
        <time>2022-07-14T10:57:30+0200</time>
      </trkpt>
      <trkpt lat="44.91839" lon="6.5921">
        <ele>1748.5</ele>
        <time>2022-07-14T10:57:33+0200</time>
      </trkpt>
      <trkpt lat="44.91844" lon="6.59204">
        <ele>1747.8</ele>
        <time>2022-07-14T10:57:36+0200</time>
      </trkpt>
      <trkpt lat="44.91848" lon="6.59197">
        <ele>1747.7</ele>
        <time>2022-07-14T10:57:39+0200</time>
      </trkpt>
      <trkpt lat="44.9185" lon="6.59189">
        <ele>1748.5</ele>
        <time>2022-07-14T10:57:42+0200</time>
      </trkpt>
      <trkpt lat="44.91853" lon="6.59181">
        <ele>1749.2</ele>
        <time>2022-07-14T10:57:45+0200</time>
      </trkpt>
      <trkpt lat="44.91857" lon="6.59176">
        <ele>1749.3</ele>
        <time>2022-07-14T10:57:48+0200</time>
      </trkpt>
      <trkpt lat="44.9186" lon="6.5917">
        <ele>1749.5</ele>
        <time>2022-07-14T10:57:51+0200</time>
      </trkpt>
      <trkpt lat="44.91863" lon="6.59165">
        <ele>1749.7</ele>
        <time>2022-07-14T10:57:54+0200</time>
      </trkpt>
      <trkpt lat="44.91866" lon="6.59159">
        <ele>1750</ele>
        <time>2022-07-14T10:57:57+0200</time>
      </trkpt>
      <trkpt lat="44.91868" lon="6.59154">
        <ele>1750.6</ele>
        <time>2022-07-14T10:58:00+0200</time>
      </trkpt>
      <trkpt lat="44.91866" lon="6.59146">
        <ele>1752.9</ele>
        <time>2022-07-14T10:58:03+0200</time>
      </trkpt>
      <trkpt lat="44.91862" lon="6.59141">
        <ele>1755.2</ele>
        <time>2022-07-14T10:58:06+0200</time>
      </trkpt>
      <trkpt lat="44.91857" lon="6.5914">
        <ele>1757.1</ele>
        <time>2022-07-14T10:58:12+0200</time>
      </trkpt>
      <trkpt lat="44.91852" lon="6.59142">
        <ele>1758.5</ele>
        <time>2022-07-14T10:58:17+0200</time>
      </trkpt>
      <trkpt lat="44.91851" lon="6.59135">
        <ele>1760</ele>
        <time>2022-07-14T10:58:28+0200</time>
      </trkpt>
      <trkpt lat="44.91851" lon="6.59142">
        <ele>1758.8</ele>
        <time>2022-07-14T10:58:31+0200</time>
      </trkpt>
      <trkpt lat="44.9185" lon="6.59149">
        <ele>1757.7</ele>
        <time>2022-07-14T10:58:39+0200</time>
      </trkpt>
      <trkpt lat="44.91848" lon="6.59155">
        <ele>1757</ele>
        <time>2022-07-14T10:59:27+0200</time>
      </trkpt>
      <trkpt lat="44.91849" lon="6.59149">
        <ele>1757.9</ele>
        <time>2022-07-14T11:00:06+0200</time>
      </trkpt>
      <trkpt lat="44.91847" lon="6.59143">
        <ele>1759.8</ele>
        <time>2022-07-14T11:00:23+0200</time>
      </trkpt>
      <trkpt lat="44.91842" lon="6.59143">
        <ele>1761.4</ele>
        <time>2022-07-14T11:00:35+0200</time>
      </trkpt>
      <trkpt lat="44.91838" lon="6.59144">
        <ele>1762.7</ele>
        <time>2022-07-14T11:00:38+0200</time>
      </trkpt>
      <trkpt lat="44.91835" lon="6.59151">
        <ele>1762.3</ele>
        <time>2022-07-14T11:00:41+0200</time>
      </trkpt>
      <trkpt lat="44.91831" lon="6.59156">
        <ele>1762.7</ele>
        <time>2022-07-14T11:00:44+0200</time>
      </trkpt>
      <trkpt lat="44.91827" lon="6.5916">
        <ele>1763.4</ele>
        <time>2022-07-14T11:00:48+0200</time>
      </trkpt>
      <trkpt lat="44.91822" lon="6.59163">
        <ele>1764.7</ele>
        <time>2022-07-14T11:00:51+0200</time>
      </trkpt>
      <trkpt lat="44.91817" lon="6.59164">
        <ele>1766.3</ele>
        <time>2022-07-14T11:00:54+0200</time>
      </trkpt>
      <trkpt lat="44.91813" lon="6.5917">
        <ele>1766.5</ele>
        <time>2022-07-14T11:00:57+0200</time>
      </trkpt>
      <trkpt lat="44.9181" lon="6.59176">
        <ele>1766.4</ele>
        <time>2022-07-14T11:01:00+0200</time>
      </trkpt>
      <trkpt lat="44.91806" lon="6.59178">
        <ele>1767.3</ele>
        <time>2022-07-14T11:01:02+0200</time>
      </trkpt>
      <trkpt lat="44.918" lon="6.59182">
        <ele>1768.5</ele>
        <time>2022-07-14T11:01:04+0200</time>
      </trkpt>
      <trkpt lat="44.91795" lon="6.59185">
        <ele>1769.8</ele>
        <time>2022-07-14T11:01:06+0200</time>
      </trkpt>
      <trkpt lat="44.9179" lon="6.59191">
        <ele>1770.2</ele>
        <time>2022-07-14T11:01:08+0200</time>
      </trkpt>
      <trkpt lat="44.91785" lon="6.59194">
        <ele>1771.5</ele>
        <time>2022-07-14T11:01:10+0200</time>
      </trkpt>
      <trkpt lat="44.91781" lon="6.59198">
        <ele>1772</ele>
        <time>2022-07-14T11:01:12+0200</time>
      </trkpt>
      <trkpt lat="44.91775" lon="6.59203">
        <ele>1773.2</ele>
        <time>2022-07-14T11:01:15+0200</time>
      </trkpt>
      <trkpt lat="44.91771" lon="6.59206">
        <ele>1773.8</ele>
        <time>2022-07-14T11:01:17+0200</time>
      </trkpt>
      <trkpt lat="44.91768" lon="6.59211">
        <ele>1773.7</ele>
        <time>2022-07-14T11:01:19+0200</time>
      </trkpt>
      <trkpt lat="44.91762" lon="6.59215">
        <ele>1774.9</ele>
        <time>2022-07-14T11:01:22+0200</time>
      </trkpt>
      <trkpt lat="44.91758" lon="6.59216">
        <ele>1775.9</ele>
        <time>2022-07-14T11:01:24+0200</time>
      </trkpt>
      <trkpt lat="44.91753" lon="6.5922">
        <ele>1776.5</ele>
        <time>2022-07-14T11:01:27+0200</time>
      </trkpt>
      <trkpt lat="44.91749" lon="6.59225">
        <ele>1777</ele>
        <time>2022-07-14T11:01:30+0200</time>
      </trkpt>
      <trkpt lat="44.91744" lon="6.5923">
        <ele>1777.6</ele>
        <time>2022-07-14T11:01:33+0200</time>
      </trkpt>
      <trkpt lat="44.91739" lon="6.59237">
        <ele>1778.1</ele>
        <time>2022-07-14T11:01:36+0200</time>
      </trkpt>
      <trkpt lat="44.91734" lon="6.59243">
        <ele>1778.6</ele>
        <time>2022-07-14T11:01:39+0200</time>
      </trkpt>
      <trkpt lat="44.91729" lon="6.59248">
        <ele>1779.4</ele>
        <time>2022-07-14T11:01:42+0200</time>
      </trkpt>
      <trkpt lat="44.91724" lon="6.59252">
        <ele>1780.3</ele>
        <time>2022-07-14T11:01:45+0200</time>
      </trkpt>
      <trkpt lat="44.9172" lon="6.59255">
        <ele>1780.9</ele>
        <time>2022-07-14T11:01:48+0200</time>
      </trkpt>
      <trkpt lat="44.91725" lon="6.59253">
        <ele>1779.8</ele>
        <time>2022-07-14T11:01:58+0200</time>
      </trkpt>
      <trkpt lat="44.9173" lon="6.59249">
        <ele>1778.7</ele>
        <time>2022-07-14T11:02:02+0200</time>
      </trkpt>
      <trkpt lat="44.91736" lon="6.59245">
        <ele>1777.8</ele>
        <time>2022-07-14T11:02:06+0200</time>
      </trkpt>
      <trkpt lat="44.9174" lon="6.59241">
        <ele>1777.3</ele>
        <time>2022-07-14T11:02:10+0200</time>
      </trkpt>
      <trkpt lat="44.91744" lon="6.59235">
        <ele>1777</ele>
        <time>2022-07-14T11:02:13+0200</time>
      </trkpt>
      <trkpt lat="44.91747" lon="6.59231">
        <ele>1776.6</ele>
        <time>2022-07-14T11:02:15+0200</time>
      </trkpt>
      <trkpt lat="44.91751" lon="6.59227">
        <ele>1776</ele>
        <time>2022-07-14T11:02:18+0200</time>
      </trkpt>
      <trkpt lat="44.91753" lon="6.5922">
        <ele>1776.7</ele>
        <time>2022-07-14T11:02:20+0200</time>
      </trkpt>
      <trkpt lat="44.91753" lon="6.59211">
        <ele>1778.1</ele>
        <time>2022-07-14T11:02:22+0200</time>
      </trkpt>
      <trkpt lat="44.91756" lon="6.59204">
        <ele>1778.7</ele>
        <time>2022-07-14T11:02:24+0200</time>
      </trkpt>
      <trkpt lat="44.91758" lon="6.59199">
        <ele>1778.9</ele>
        <time>2022-07-14T11:02:26+0200</time>
      </trkpt>
      <trkpt lat="44.91763" lon="6.59195">
        <ele>1778.2</ele>
        <time>2022-07-14T11:02:29+0200</time>
      </trkpt>
      <trkpt lat="44.91769" lon="6.59194">
        <ele>1776.7</ele>
        <time>2022-07-14T11:02:34+0200</time>
      </trkpt>
      <trkpt lat="44.91774" lon="6.59194">
        <ele>1775.3</ele>
        <time>2022-07-14T11:02:37+0200</time>
      </trkpt>
      <trkpt lat="44.91777" lon="6.59188">
        <ele>1775.5</ele>
        <time>2022-07-14T11:02:40+0200</time>
      </trkpt>
      <trkpt lat="44.91781" lon="6.59182">
        <ele>1775.4</ele>
        <time>2022-07-14T11:02:42+0200</time>
      </trkpt>
      <trkpt lat="44.91784" lon="6.59174">
        <ele>1776.1</ele>
        <time>2022-07-14T11:02:44+0200</time>
      </trkpt>
      <trkpt lat="44.91786" lon="6.59167">
        <ele>1776.8</ele>
        <time>2022-07-14T11:02:46+0200</time>
      </trkpt>
      <trkpt lat="44.9179" lon="6.5916">
        <ele>1777</ele>
        <time>2022-07-14T11:02:49+0200</time>
      </trkpt>
      <trkpt lat="44.91791" lon="6.59148">
        <ele>1778.7</ele>
        <time>2022-07-14T11:02:52+0200</time>
      </trkpt>
      <trkpt lat="44.9179" lon="6.59141">
        <ele>1780.4</ele>
        <time>2022-07-14T11:02:54+0200</time>
      </trkpt>
      <trkpt lat="44.91792" lon="6.59134">
        <ele>1780.9</ele>
        <time>2022-07-14T11:02:56+0200</time>
      </trkpt>
      <trkpt lat="44.91792" lon="6.59126">
        <ele>1782.1</ele>
        <time>2022-07-14T11:02:58+0200</time>
      </trkpt>
      <trkpt lat="44.91794" lon="6.59117">
        <ele>1783.2</ele>
        <time>2022-07-14T11:03:00+0200</time>
      </trkpt>
      <trkpt lat="44.91797" lon="6.59109">
        <ele>1783.5</ele>
        <time>2022-07-14T11:03:02+0200</time>
      </trkpt>
      <trkpt lat="44.91799" lon="6.59102">
        <ele>1783.9</ele>
        <time>2022-07-14T11:03:04+0200</time>
      </trkpt>
      <trkpt lat="44.918" lon="6.59095">
        <ele>1784.7</ele>
        <time>2022-07-14T11:03:06+0200</time>
      </trkpt>
      <trkpt lat="44.91801" lon="6.59089">
        <ele>1785.5</ele>
        <time>2022-07-14T11:03:08+0200</time>
      </trkpt>
      <trkpt lat="44.91804" lon="6.5908">
        <ele>1786</ele>
        <time>2022-07-14T11:03:10+0200</time>
      </trkpt>
      <trkpt lat="44.91806" lon="6.59071">
        <ele>1786.7</ele>
        <time>2022-07-14T11:03:12+0200</time>
      </trkpt>
      <trkpt lat="44.91806" lon="6.5906">
        <ele>1788.2</ele>
        <time>2022-07-14T11:03:14+0200</time>
      </trkpt>
      <trkpt lat="44.91807" lon="6.59052">
        <ele>1789.2</ele>
        <time>2022-07-14T11:03:16+0200</time>
      </trkpt>
      <trkpt lat="44.91808" lon="6.59043">
        <ele>1789.9</ele>
        <time>2022-07-14T11:03:18+0200</time>
      </trkpt>
      <trkpt lat="44.91811" lon="6.59039">
        <ele>1789.5</ele>
        <time>2022-07-14T11:03:20+0200</time>
      </trkpt>
      <trkpt lat="44.91815" lon="6.59034">
        <ele>1788.4</ele>
        <time>2022-07-14T11:03:23+0200</time>
      </trkpt>
      <trkpt lat="44.91818" lon="6.59027">
        <ele>1788.3</ele>
        <time>2022-07-14T11:03:25+0200</time>
      </trkpt>
      <trkpt lat="44.91823" lon="6.59018">
        <ele>1787.5</ele>
        <time>2022-07-14T11:03:27+0200</time>
      </trkpt>
      <trkpt lat="44.91826" lon="6.59013">
        <ele>1787.1</ele>
        <time>2022-07-14T11:03:29+0200</time>
      </trkpt>
      <trkpt lat="44.91829" lon="6.59007">
        <ele>1786.9</ele>
        <time>2022-07-14T11:03:31+0200</time>
      </trkpt>
      <trkpt lat="44.9183" lon="6.58998">
        <ele>1787.8</ele>
        <time>2022-07-14T11:03:33+0200</time>
      </trkpt>
      <trkpt lat="44.91833" lon="6.58992">
        <ele>1787.3</ele>
        <time>2022-07-14T11:03:35+0200</time>
      </trkpt>
      <trkpt lat="44.91835" lon="6.58984">
        <ele>1787.7</ele>
        <time>2022-07-14T11:03:37+0200</time>
      </trkpt>
      <trkpt lat="44.91837" lon="6.58976">
        <ele>1788.2</ele>
        <time>2022-07-14T11:03:39+0200</time>
      </trkpt>
      <trkpt lat="44.91837" lon="6.58964">
        <ele>1789.6</ele>
        <time>2022-07-14T11:03:41+0200</time>
      </trkpt>
      <trkpt lat="44.9184" lon="6.58955">
        <ele>1789.6</ele>
        <time>2022-07-14T11:03:43+0200</time>
      </trkpt>
      <trkpt lat="44.91842" lon="6.58949">
        <ele>1789.5</ele>
        <time>2022-07-14T11:03:45+0200</time>
      </trkpt>
      <trkpt lat="44.91847" lon="6.58944">
        <ele>1788.3</ele>
        <time>2022-07-14T11:03:47+0200</time>
      </trkpt>
      <trkpt lat="44.9185" lon="6.58936">
        <ele>1787.8</ele>
        <time>2022-07-14T11:03:49+0200</time>
      </trkpt>
      <trkpt lat="44.91851" lon="6.58929">
        <ele>1788.6</ele>
        <time>2022-07-14T11:03:51+0200</time>
      </trkpt>
      <trkpt lat="44.91854" lon="6.58921">
        <ele>1788.6</ele>
        <time>2022-07-14T11:03:53+0200</time>
      </trkpt>
      <trkpt lat="44.91856" lon="6.58915">
        <ele>1788.7</ele>
        <time>2022-07-14T11:03:55+0200</time>
      </trkpt>
      <trkpt lat="44.91859" lon="6.58905">
        <ele>1788.8</ele>
        <time>2022-07-14T11:03:58+0200</time>
      </trkpt>
      <trkpt lat="44.9186" lon="6.58897">
        <ele>1789.2</ele>
        <time>2022-07-14T11:04:00+0200</time>
      </trkpt>
      <trkpt lat="44.91864" lon="6.58891">
        <ele>1788.7</ele>
        <time>2022-07-14T11:04:02+0200</time>
      </trkpt>
      <trkpt lat="44.91866" lon="6.58883">
        <ele>1789</ele>
        <time>2022-07-14T11:04:04+0200</time>
      </trkpt>
      <trkpt lat="44.91866" lon="6.58877">
        <ele>1789.9</ele>
        <time>2022-07-14T11:04:06+0200</time>
      </trkpt>
      <trkpt lat="44.91866" lon="6.58866">
        <ele>1791.1</ele>
        <time>2022-07-14T11:04:08+0200</time>
      </trkpt>
      <trkpt lat="44.91865" lon="6.58858">
        <ele>1792.3</ele>
        <time>2022-07-14T11:04:10+0200</time>
      </trkpt>
      <trkpt lat="44.91868" lon="6.5885">
        <ele>1792.6</ele>
        <time>2022-07-14T11:04:12+0200</time>
      </trkpt>
      <trkpt lat="44.91868" lon="6.5884">
        <ele>1793.9</ele>
        <time>2022-07-14T11:04:14+0200</time>
      </trkpt>
      <trkpt lat="44.91871" lon="6.58831">
        <ele>1794.1</ele>
        <time>2022-07-14T11:04:16+0200</time>
      </trkpt>
      <trkpt lat="44.91874" lon="6.58824">
        <ele>1793.5</ele>
        <time>2022-07-14T11:04:18+0200</time>
      </trkpt>
      <trkpt lat="44.91877" lon="6.58816">
        <ele>1793.3</ele>
        <time>2022-07-14T11:04:20+0200</time>
      </trkpt>
      <trkpt lat="44.9188" lon="6.58809">
        <ele>1793.1</ele>
        <time>2022-07-14T11:04:22+0200</time>
      </trkpt>
      <trkpt lat="44.91881" lon="6.588">
        <ele>1793.2</ele>
        <time>2022-07-14T11:04:24+0200</time>
      </trkpt>
      <trkpt lat="44.91884" lon="6.58791">
        <ele>1793.1</ele>
        <time>2022-07-14T11:04:26+0200</time>
      </trkpt>
      <trkpt lat="44.91884" lon="6.58784">
        <ele>1793.3</ele>
        <time>2022-07-14T11:04:28+0200</time>
      </trkpt>
      <trkpt lat="44.91885" lon="6.58777">
        <ele>1793.6</ele>
        <time>2022-07-14T11:04:30+0200</time>
      </trkpt>
      <trkpt lat="44.91884" lon="6.58767">
        <ele>1795</ele>
        <time>2022-07-14T11:04:32+0200</time>
      </trkpt>
      <trkpt lat="44.91886" lon="6.58759">
        <ele>1795.1</ele>
        <time>2022-07-14T11:04:34+0200</time>
      </trkpt>
      <trkpt lat="44.91886" lon="6.58749">
        <ele>1796.1</ele>
        <time>2022-07-14T11:04:36+0200</time>
      </trkpt>
      <trkpt lat="44.91887" lon="6.58742">
        <ele>1796.8</ele>
        <time>2022-07-14T11:04:38+0200</time>
      </trkpt>
      <trkpt lat="44.91888" lon="6.58734">
        <ele>1797</ele>
        <time>2022-07-14T11:04:40+0200</time>
      </trkpt>
      <trkpt lat="44.91888" lon="6.58726">
        <ele>1797.9</ele>
        <time>2022-07-14T11:04:42+0200</time>
      </trkpt>
      <trkpt lat="44.91888" lon="6.58718">
        <ele>1798.6</ele>
        <time>2022-07-14T11:04:44+0200</time>
      </trkpt>
      <trkpt lat="44.91888" lon="6.5871">
        <ele>1799.2</ele>
        <time>2022-07-14T11:04:46+0200</time>
      </trkpt>
      <trkpt lat="44.91888" lon="6.58703">
        <ele>1799.8</ele>
        <time>2022-07-14T11:04:48+0200</time>
      </trkpt>
      <trkpt lat="44.91889" lon="6.58696">
        <ele>1799.9</ele>
        <time>2022-07-14T11:04:50+0200</time>
      </trkpt>
      <trkpt lat="44.91888" lon="6.58689">
        <ele>1800.8</ele>
        <time>2022-07-14T11:04:52+0200</time>
      </trkpt>
      <trkpt lat="44.9189" lon="6.58681">
        <ele>1800.8</ele>
        <time>2022-07-14T11:04:55+0200</time>
      </trkpt>
      <trkpt lat="44.9189" lon="6.5867">
        <ele>1801.4</ele>
        <time>2022-07-14T11:04:58+0200</time>
      </trkpt>
      <trkpt lat="44.9189" lon="6.58664">
        <ele>1802.2</ele>
        <time>2022-07-14T11:05:00+0200</time>
      </trkpt>
      <trkpt lat="44.91889" lon="6.58657">
        <ele>1803</ele>
        <time>2022-07-14T11:05:02+0200</time>
      </trkpt>
      <trkpt lat="44.91888" lon="6.5865">
        <ele>1804.1</ele>
        <time>2022-07-14T11:05:04+0200</time>
      </trkpt>
      <trkpt lat="44.9189" lon="6.58644">
        <ele>1804.2</ele>
        <time>2022-07-14T11:05:06+0200</time>
      </trkpt>
      <trkpt lat="44.9189" lon="6.58635">
        <ele>1805</ele>
        <time>2022-07-14T11:05:09+0200</time>
      </trkpt>
      <trkpt lat="44.91893" lon="6.58627">
        <ele>1805.3</ele>
        <time>2022-07-14T11:05:12+0200</time>
      </trkpt>
      <trkpt lat="44.91893" lon="6.58619">
        <ele>1805.9</ele>
        <time>2022-07-14T11:05:14+0200</time>
      </trkpt>
      <trkpt lat="44.91894" lon="6.58612">
        <ele>1806.5</ele>
        <time>2022-07-14T11:05:16+0200</time>
      </trkpt>
      <trkpt lat="44.91896" lon="6.58605">
        <ele>1806.6</ele>
        <time>2022-07-14T11:05:18+0200</time>
      </trkpt>
      <trkpt lat="44.91896" lon="6.58597">
        <ele>1807.7</ele>
        <time>2022-07-14T11:05:21+0200</time>
      </trkpt>
      <trkpt lat="44.91898" lon="6.58589">
        <ele>1807.8</ele>
        <time>2022-07-14T11:05:24+0200</time>
      </trkpt>
      <trkpt lat="44.91898" lon="6.5858">
        <ele>1808.6</ele>
        <time>2022-07-14T11:05:27+0200</time>
      </trkpt>
      <trkpt lat="44.91899" lon="6.58572">
        <ele>1809.2</ele>
        <time>2022-07-14T11:05:30+0200</time>
      </trkpt>
      <trkpt lat="44.91901" lon="6.58564">
        <ele>1809.6</ele>
        <time>2022-07-14T11:05:33+0200</time>
      </trkpt>
      <trkpt lat="44.91905" lon="6.58557">
        <ele>1809.2</ele>
        <time>2022-07-14T11:05:36+0200</time>
      </trkpt>
      <trkpt lat="44.91908" lon="6.58549">
        <ele>1809.4</ele>
        <time>2022-07-14T11:05:39+0200</time>
      </trkpt>
      <trkpt lat="44.91909" lon="6.58543">
        <ele>1809.6</ele>
        <time>2022-07-14T11:05:41+0200</time>
      </trkpt>
      <trkpt lat="44.9191" lon="6.58535">
        <ele>1810.3</ele>
        <time>2022-07-14T11:05:43+0200</time>
      </trkpt>
      <trkpt lat="44.91908" lon="6.58529">
        <ele>1811.6</ele>
        <time>2022-07-14T11:05:45+0200</time>
      </trkpt>
      <trkpt lat="44.91909" lon="6.5852">
        <ele>1812.3</ele>
        <time>2022-07-14T11:05:48+0200</time>
      </trkpt>
      <trkpt lat="44.91909" lon="6.58513">
        <ele>1813.2</ele>
        <time>2022-07-14T11:05:50+0200</time>
      </trkpt>
      <trkpt lat="44.91911" lon="6.58504">
        <ele>1813.3</ele>
        <time>2022-07-14T11:05:53+0200</time>
      </trkpt>
      <trkpt lat="44.91911" lon="6.58495">
        <ele>1814.6</ele>
        <time>2022-07-14T11:05:56+0200</time>
      </trkpt>
      <trkpt lat="44.91913" lon="6.58487">
        <ele>1815</ele>
        <time>2022-07-14T11:05:59+0200</time>
      </trkpt>
      <trkpt lat="44.91914" lon="6.5848">
        <ele>1815.6</ele>
        <time>2022-07-14T11:06:01+0200</time>
      </trkpt>
      <trkpt lat="44.91916" lon="6.58474">
        <ele>1815.8</ele>
        <time>2022-07-14T11:06:03+0200</time>
      </trkpt>
      <trkpt lat="44.91919" lon="6.5847">
        <ele>1815.9</ele>
        <time>2022-07-14T11:06:05+0200</time>
      </trkpt>
      <trkpt lat="44.91923" lon="6.58463">
        <ele>1816.1</ele>
        <time>2022-07-14T11:06:08+0200</time>
      </trkpt>
      <trkpt lat="44.91925" lon="6.58456">
        <ele>1817</ele>
        <time>2022-07-14T11:06:11+0200</time>
      </trkpt>
      <trkpt lat="44.91928" lon="6.58449">
        <ele>1817.5</ele>
        <time>2022-07-14T11:06:14+0200</time>
      </trkpt>
      <trkpt lat="44.9193" lon="6.58441">
        <ele>1818</ele>
        <time>2022-07-14T11:06:17+0200</time>
      </trkpt>
      <trkpt lat="44.91933" lon="6.58435">
        <ele>1818.2</ele>
        <time>2022-07-14T11:06:20+0200</time>
      </trkpt>
      <trkpt lat="44.91937" lon="6.58427">
        <ele>1818.5</ele>
        <time>2022-07-14T11:06:23+0200</time>
      </trkpt>
      <trkpt lat="44.9194" lon="6.58422">
        <ele>1818.5</ele>
        <time>2022-07-14T11:06:25+0200</time>
      </trkpt>
      <trkpt lat="44.91944" lon="6.58415">
        <ele>1818.4</ele>
        <time>2022-07-14T11:06:28+0200</time>
      </trkpt>
      <trkpt lat="44.91946" lon="6.58408">
        <ele>1818</ele>
        <time>2022-07-14T11:06:31+0200</time>
      </trkpt>
      <trkpt lat="44.91949" lon="6.58401">
        <ele>1817.5</ele>
        <time>2022-07-14T11:06:34+0200</time>
      </trkpt>
      <trkpt lat="44.91951" lon="6.58393">
        <ele>1817.1</ele>
        <time>2022-07-14T11:06:37+0200</time>
      </trkpt>
      <trkpt lat="44.91954" lon="6.58387">
        <ele>1816.6</ele>
        <time>2022-07-14T11:06:39+0200</time>
      </trkpt>
      <trkpt lat="44.91955" lon="6.58381">
        <ele>1816.3</ele>
        <time>2022-07-14T11:06:41+0200</time>
      </trkpt>
      <trkpt lat="44.91957" lon="6.58372">
        <ele>1816.2</ele>
        <time>2022-07-14T11:06:44+0200</time>
      </trkpt>
      <trkpt lat="44.91959" lon="6.58364">
        <ele>1815.8</ele>
        <time>2022-07-14T11:06:47+0200</time>
      </trkpt>
      <trkpt lat="44.91961" lon="6.58356">
        <ele>1815.9</ele>
        <time>2022-07-14T11:06:50+0200</time>
      </trkpt>
      <trkpt lat="44.91963" lon="6.58347">
        <ele>1816</ele>
        <time>2022-07-14T11:06:53+0200</time>
      </trkpt>
      <trkpt lat="44.91962" lon="6.5834">
        <ele>1816.7</ele>
        <time>2022-07-14T11:06:55+0200</time>
      </trkpt>
      <trkpt lat="44.91964" lon="6.58332">
        <ele>1816.6</ele>
        <time>2022-07-14T11:06:58+0200</time>
      </trkpt>
      <trkpt lat="44.91965" lon="6.58325">
        <ele>1816.6</ele>
        <time>2022-07-14T11:07:00+0200</time>
      </trkpt>
      <trkpt lat="44.91964" lon="6.58316">
        <ele>1817.2</ele>
        <time>2022-07-14T11:07:03+0200</time>
      </trkpt>
      <trkpt lat="44.91967" lon="6.58308">
        <ele>1816.4</ele>
        <time>2022-07-14T11:07:06+0200</time>
      </trkpt>
      <trkpt lat="44.91966" lon="6.58301">
        <ele>1817</ele>
        <time>2022-07-14T11:07:08+0200</time>
      </trkpt>
      <trkpt lat="44.91966" lon="6.58292">
        <ele>1817.7</ele>
        <time>2022-07-14T11:07:11+0200</time>
      </trkpt>
      <trkpt lat="44.91966" lon="6.58286">
        <ele>1818.2</ele>
        <time>2022-07-14T11:07:13+0200</time>
      </trkpt>
      <trkpt lat="44.91963" lon="6.5828">
        <ele>1820</ele>
        <time>2022-07-14T11:07:15+0200</time>
      </trkpt>
      <trkpt lat="44.91961" lon="6.58273">
        <ele>1821.1</ele>
        <time>2022-07-14T11:07:18+0200</time>
      </trkpt>
      <trkpt lat="44.91957" lon="6.58269">
        <ele>1822.7</ele>
        <time>2022-07-14T11:07:20+0200</time>
      </trkpt>
      <trkpt lat="44.91952" lon="6.58262">
        <ele>1824.8</ele>
        <time>2022-07-14T11:07:23+0200</time>
      </trkpt>
      <trkpt lat="44.91947" lon="6.58258">
        <ele>1827</ele>
        <time>2022-07-14T11:07:26+0200</time>
      </trkpt>
      <trkpt lat="44.91943" lon="6.58253">
        <ele>1828.5</ele>
        <time>2022-07-14T11:07:29+0200</time>
      </trkpt>
      <trkpt lat="44.91942" lon="6.58245">
        <ele>1829</ele>
        <time>2022-07-14T11:07:33+0200</time>
      </trkpt>
      <trkpt lat="44.9194" lon="6.58239">
        <ele>1829.7</ele>
        <time>2022-07-14T11:07:36+0200</time>
      </trkpt>
      <trkpt lat="44.91941" lon="6.58231">
        <ele>1829.6</ele>
        <time>2022-07-14T11:07:39+0200</time>
      </trkpt>
      <trkpt lat="44.91941" lon="6.58223">
        <ele>1829.5</ele>
        <time>2022-07-14T11:07:42+0200</time>
      </trkpt>
      <trkpt lat="44.91938" lon="6.58215">
        <ele>1830.9</ele>
        <time>2022-07-14T11:07:45+0200</time>
      </trkpt>
      <trkpt lat="44.91937" lon="6.58206">
        <ele>1831.6</ele>
        <time>2022-07-14T11:07:48+0200</time>
      </trkpt>
      <trkpt lat="44.91939" lon="6.582">
        <ele>1831</ele>
        <time>2022-07-14T11:07:50+0200</time>
      </trkpt>
      <trkpt lat="44.91937" lon="6.58193">
        <ele>1831.9</ele>
        <time>2022-07-14T11:07:53+0200</time>
      </trkpt>
      <trkpt lat="44.91939" lon="6.58185">
        <ele>1832</ele>
        <time>2022-07-14T11:07:56+0200</time>
      </trkpt>
      <trkpt lat="44.91939" lon="6.58177">
        <ele>1832.8</ele>
        <time>2022-07-14T11:07:59+0200</time>
      </trkpt>
      <trkpt lat="44.91938" lon="6.5817">
        <ele>1833.7</ele>
        <time>2022-07-14T11:08:01+0200</time>
      </trkpt>
      <trkpt lat="44.91938" lon="6.58163">
        <ele>1834.4</ele>
        <time>2022-07-14T11:08:04+0200</time>
      </trkpt>
      <trkpt lat="44.9194" lon="6.58155">
        <ele>1834.7</ele>
        <time>2022-07-14T11:08:07+0200</time>
      </trkpt>
      <trkpt lat="44.91942" lon="6.58148">
        <ele>1834.9</ele>
        <time>2022-07-14T11:08:10+0200</time>
      </trkpt>
      <trkpt lat="44.91946" lon="6.58142">
        <ele>1834.3</ele>
        <time>2022-07-14T11:08:13+0200</time>
      </trkpt>
      <trkpt lat="44.91948" lon="6.58136">
        <ele>1834.7</ele>
        <time>2022-07-14T11:08:16+0200</time>
      </trkpt>
      <trkpt lat="44.91953" lon="6.58133">
        <ele>1834.1</ele>
        <time>2022-07-14T11:08:19+0200</time>
      </trkpt>
      <trkpt lat="44.91956" lon="6.58127">
        <ele>1834.6</ele>
        <time>2022-07-14T11:08:23+0200</time>
      </trkpt>
      <trkpt lat="44.91958" lon="6.58121">
        <ele>1835.1</ele>
        <time>2022-07-14T11:08:25+0200</time>
      </trkpt>
      <trkpt lat="44.91961" lon="6.58115">
        <ele>1835.4</ele>
        <time>2022-07-14T11:08:27+0200</time>
      </trkpt>
      <trkpt lat="44.91963" lon="6.58108">
        <ele>1836.2</ele>
        <time>2022-07-14T11:08:29+0200</time>
      </trkpt>
      <trkpt lat="44.91964" lon="6.58102">
        <ele>1836.9</ele>
        <time>2022-07-14T11:08:31+0200</time>
      </trkpt>
      <trkpt lat="44.91967" lon="6.58094">
        <ele>1837.6</ele>
        <time>2022-07-14T11:08:33+0200</time>
      </trkpt>
      <trkpt lat="44.91968" lon="6.58087">
        <ele>1838.3</ele>
        <time>2022-07-14T11:08:35+0200</time>
      </trkpt>
      <trkpt lat="44.91971" lon="6.58078">
        <ele>1838.9</ele>
        <time>2022-07-14T11:08:38+0200</time>
      </trkpt>
      <trkpt lat="44.91972" lon="6.58069">
        <ele>1839.6</ele>
        <time>2022-07-14T11:08:41+0200</time>
      </trkpt>
      <trkpt lat="44.91974" lon="6.58058">
        <ele>1840.2</ele>
        <time>2022-07-14T11:08:44+0200</time>
      </trkpt>
      <trkpt lat="44.91974" lon="6.58051">
        <ele>1840.9</ele>
        <time>2022-07-14T11:08:46+0200</time>
      </trkpt>
      <trkpt lat="44.91975" lon="6.58044">
        <ele>1841.4</ele>
        <time>2022-07-14T11:08:48+0200</time>
      </trkpt>
      <trkpt lat="44.91976" lon="6.58035">
        <ele>1842.2</ele>
        <time>2022-07-14T11:08:50+0200</time>
      </trkpt>
      <trkpt lat="44.91974" lon="6.58027">
        <ele>1843.4</ele>
        <time>2022-07-14T11:08:52+0200</time>
      </trkpt>
      <trkpt lat="44.91973" lon="6.5802">
        <ele>1843.9</ele>
        <time>2022-07-14T11:08:54+0200</time>
      </trkpt>
      <trkpt lat="44.91973" lon="6.58013">
        <ele>1844.4</ele>
        <time>2022-07-14T11:08:56+0200</time>
      </trkpt>
      <trkpt lat="44.91973" lon="6.58006">
        <ele>1844.7</ele>
        <time>2022-07-14T11:08:58+0200</time>
      </trkpt>
      <trkpt lat="44.91971" lon="6.57998">
        <ele>1845.5</ele>
        <time>2022-07-14T11:09:00+0200</time>
      </trkpt>
      <trkpt lat="44.91969" lon="6.5799">
        <ele>1846.5</ele>
        <time>2022-07-14T11:09:02+0200</time>
      </trkpt>
      <trkpt lat="44.91964" lon="6.57984">
        <ele>1847.7</ele>
        <time>2022-07-14T11:09:04+0200</time>
      </trkpt>
      <trkpt lat="44.91963" lon="6.57976">
        <ele>1848.3</ele>
        <time>2022-07-14T11:09:06+0200</time>
      </trkpt>
      <trkpt lat="44.91962" lon="6.5797">
        <ele>1848.9</ele>
        <time>2022-07-14T11:09:08+0200</time>
      </trkpt>
      <trkpt lat="44.91962" lon="6.57961">
        <ele>1849.2</ele>
        <time>2022-07-14T11:09:10+0200</time>
      </trkpt>
      <trkpt lat="44.91963" lon="6.57952">
        <ele>1849.4</ele>
        <time>2022-07-14T11:09:13+0200</time>
      </trkpt>
      <trkpt lat="44.91963" lon="6.57945">
        <ele>1849.7</ele>
        <time>2022-07-14T11:09:15+0200</time>
      </trkpt>
      <trkpt lat="44.91963" lon="6.57938">
        <ele>1849.8</ele>
        <time>2022-07-14T11:09:17+0200</time>
      </trkpt>
      <trkpt lat="44.91964" lon="6.5793">
        <ele>1849.9</ele>
        <time>2022-07-14T11:09:20+0200</time>
      </trkpt>
      <trkpt lat="44.91965" lon="6.57922">
        <ele>1850</ele>
        <time>2022-07-14T11:09:23+0200</time>
      </trkpt>
      <trkpt lat="44.9196" lon="6.57914">
        <ele>1850.8</ele>
        <time>2022-07-14T11:09:26+0200</time>
      </trkpt>
      <trkpt lat="44.91957" lon="6.5791">
        <ele>1851.4</ele>
        <time>2022-07-14T11:09:28+0200</time>
      </trkpt>
      <trkpt lat="44.91952" lon="6.57909">
        <ele>1852.2</ele>
        <time>2022-07-14T11:09:30+0200</time>
      </trkpt>
      <trkpt lat="44.91947" lon="6.57911">
        <ele>1852.8</ele>
        <time>2022-07-14T11:09:32+0200</time>
      </trkpt>
      <trkpt lat="44.91943" lon="6.57917">
        <ele>1853.1</ele>
        <time>2022-07-14T11:09:34+0200</time>
      </trkpt>
      <trkpt lat="44.91941" lon="6.57922">
        <ele>1853.4</ele>
        <time>2022-07-14T11:09:36+0200</time>
      </trkpt>
      <trkpt lat="44.91937" lon="6.57928">
        <ele>1853.8</ele>
        <time>2022-07-14T11:09:38+0200</time>
      </trkpt>
      <trkpt lat="44.91933" lon="6.57935">
        <ele>1854.2</ele>
        <time>2022-07-14T11:09:40+0200</time>
      </trkpt>
      <trkpt lat="44.9193" lon="6.57942">
        <ele>1854.5</ele>
        <time>2022-07-14T11:09:42+0200</time>
      </trkpt>
      <trkpt lat="44.91927" lon="6.57948">
        <ele>1854.9</ele>
        <time>2022-07-14T11:09:44+0200</time>
      </trkpt>
      <trkpt lat="44.91923" lon="6.57953">
        <ele>1855.2</ele>
        <time>2022-07-14T11:09:46+0200</time>
      </trkpt>
      <trkpt lat="44.9192" lon="6.57958">
        <ele>1855.6</ele>
        <time>2022-07-14T11:09:48+0200</time>
      </trkpt>
      <trkpt lat="44.91915" lon="6.57964">
        <ele>1856.1</ele>
        <time>2022-07-14T11:09:51+0200</time>
      </trkpt>
      <trkpt lat="44.91912" lon="6.5797">
        <ele>1856.3</ele>
        <time>2022-07-14T11:09:53+0200</time>
      </trkpt>
      <trkpt lat="44.91908" lon="6.57978">
        <ele>1856.7</ele>
        <time>2022-07-14T11:09:56+0200</time>
      </trkpt>
      <trkpt lat="44.91906" lon="6.57984">
        <ele>1856.9</ele>
        <time>2022-07-14T11:09:58+0200</time>
      </trkpt>
      <trkpt lat="44.91903" lon="6.57992">
        <ele>1857.4</ele>
        <time>2022-07-14T11:10:01+0200</time>
      </trkpt>
      <trkpt lat="44.91899" lon="6.57996">
        <ele>1857.8</ele>
        <time>2022-07-14T11:10:03+0200</time>
      </trkpt>
      <trkpt lat="44.91896" lon="6.58001">
        <ele>1858.3</ele>
        <time>2022-07-14T11:10:05+0200</time>
      </trkpt>
      <trkpt lat="44.91892" lon="6.58009">
        <ele>1858.6</ele>
        <time>2022-07-14T11:10:08+0200</time>
      </trkpt>
      <trkpt lat="44.9189" lon="6.58014">
        <ele>1858.9</ele>
        <time>2022-07-14T11:10:10+0200</time>
      </trkpt>
      <trkpt lat="44.91886" lon="6.58022">
        <ele>1859.4</ele>
        <time>2022-07-14T11:10:13+0200</time>
      </trkpt>
      <trkpt lat="44.91881" lon="6.58028">
        <ele>1860.1</ele>
        <time>2022-07-14T11:10:16+0200</time>
      </trkpt>
      <trkpt lat="44.91878" lon="6.58036">
        <ele>1860.3</ele>
        <time>2022-07-14T11:10:19+0200</time>
      </trkpt>
      <trkpt lat="44.91875" lon="6.58042">
        <ele>1860.6</ele>
        <time>2022-07-14T11:10:21+0200</time>
      </trkpt>
      <trkpt lat="44.9187" lon="6.58048">
        <ele>1861</ele>
        <time>2022-07-14T11:10:24+0200</time>
      </trkpt>
      <trkpt lat="44.91867" lon="6.58055">
        <ele>1861.2</ele>
        <time>2022-07-14T11:10:27+0200</time>
      </trkpt>
      <trkpt lat="44.91862" lon="6.58058">
        <ele>1862</ele>
        <time>2022-07-14T11:10:30+0200</time>
      </trkpt>
      <trkpt lat="44.91857" lon="6.58061">
        <ele>1863.7</ele>
        <time>2022-07-14T11:10:33+0200</time>
      </trkpt>
      <trkpt lat="44.91853" lon="6.58057">
        <ele>1865.1</ele>
        <time>2022-07-14T11:10:44+0200</time>
      </trkpt>
      <trkpt lat="44.91849" lon="6.5805">
        <ele>1866.6</ele>
        <time>2022-07-14T11:10:48+0200</time>
      </trkpt>
      <trkpt lat="44.91848" lon="6.58043">
        <ele>1867.3</ele>
        <time>2022-07-14T11:10:51+0200</time>
      </trkpt>
      <trkpt lat="44.91849" lon="6.58034">
        <ele>1867.5</ele>
        <time>2022-07-14T11:10:54+0200</time>
      </trkpt>
      <trkpt lat="44.91849" lon="6.58026">
        <ele>1867.9</ele>
        <time>2022-07-14T11:10:58+0200</time>
      </trkpt>
      <trkpt lat="44.91849" lon="6.58019">
        <ele>1868.6</ele>
        <time>2022-07-14T11:11:01+0200</time>
      </trkpt>
      <trkpt lat="44.91848" lon="6.5801">
        <ele>1869.6</ele>
        <time>2022-07-14T11:11:04+0200</time>
      </trkpt>
      <trkpt lat="44.91848" lon="6.58001">
        <ele>1870.2</ele>
        <time>2022-07-14T11:11:07+0200</time>
      </trkpt>
      <trkpt lat="44.91849" lon="6.57994">
        <ele>1869.9</ele>
        <time>2022-07-14T11:11:09+0200</time>
      </trkpt>
      <trkpt lat="44.91849" lon="6.57988">
        <ele>1869.5</ele>
        <time>2022-07-14T11:11:12+0200</time>
      </trkpt>
      <trkpt lat="44.91852" lon="6.57979">
        <ele>1868.5</ele>
        <time>2022-07-14T11:11:15+0200</time>
      </trkpt>
      <trkpt lat="44.91852" lon="6.57972">
        <ele>1868.4</ele>
        <time>2022-07-14T11:11:18+0200</time>
      </trkpt>
      <trkpt lat="44.9185" lon="6.57964">
        <ele>1869</ele>
        <time>2022-07-14T11:11:21+0200</time>
      </trkpt>
      <trkpt lat="44.91847" lon="6.57956">
        <ele>1870.1</ele>
        <time>2022-07-14T11:11:24+0200</time>
      </trkpt>
      <trkpt lat="44.91846" lon="6.57948">
        <ele>1870.6</ele>
        <time>2022-07-14T11:11:26+0200</time>
      </trkpt>
      <trkpt lat="44.91845" lon="6.5794">
        <ele>1871</ele>
        <time>2022-07-14T11:11:29+0200</time>
      </trkpt>
      <trkpt lat="44.91842" lon="6.57933">
        <ele>1872.1</ele>
        <time>2022-07-14T11:11:31+0200</time>
      </trkpt>
      <trkpt lat="44.91839" lon="6.57924">
        <ele>1872.9</ele>
        <time>2022-07-14T11:11:34+0200</time>
      </trkpt>
      <trkpt lat="44.91838" lon="6.57917">
        <ele>1873.2</ele>
        <time>2022-07-14T11:11:36+0200</time>
      </trkpt>
      <trkpt lat="44.91836" lon="6.5791">
        <ele>1874.1</ele>
        <time>2022-07-14T11:11:38+0200</time>
      </trkpt>
      <trkpt lat="44.91836" lon="6.57901">
        <ele>1874.6</ele>
        <time>2022-07-14T11:11:41+0200</time>
      </trkpt>
      <trkpt lat="44.91835" lon="6.57892">
        <ele>1875.4</ele>
        <time>2022-07-14T11:11:44+0200</time>
      </trkpt>
      <trkpt lat="44.91835" lon="6.57884">
        <ele>1875.9</ele>
        <time>2022-07-14T11:11:47+0200</time>
      </trkpt>
      <trkpt lat="44.91836" lon="6.57876">
        <ele>1876.1</ele>
        <time>2022-07-14T11:11:50+0200</time>
      </trkpt>
      <trkpt lat="44.91838" lon="6.57869">
        <ele>1875.7</ele>
        <time>2022-07-14T11:11:54+0200</time>
      </trkpt>
      <trkpt lat="44.91841" lon="6.57864">
        <ele>1874.9</ele>
        <time>2022-07-14T11:11:57+0200</time>
      </trkpt>
      <trkpt lat="44.91841" lon="6.57855">
        <ele>1875.6</ele>
        <time>2022-07-14T11:12:00+0200</time>
      </trkpt>
      <trkpt lat="44.91841" lon="6.57849">
        <ele>1875.9</ele>
        <time>2022-07-14T11:12:03+0200</time>
      </trkpt>
      <trkpt lat="44.91842" lon="6.5784">
        <ele>1876.2</ele>
        <time>2022-07-14T11:12:06+0200</time>
      </trkpt>
      <trkpt lat="44.91843" lon="6.57833">
        <ele>1876.1</ele>
        <time>2022-07-14T11:12:09+0200</time>
      </trkpt>
      <trkpt lat="44.91844" lon="6.57825">
        <ele>1876.9</ele>
        <time>2022-07-14T11:12:13+0200</time>
      </trkpt>
      <trkpt lat="44.91843" lon="6.57817">
        <ele>1878.3</ele>
        <time>2022-07-14T11:12:16+0200</time>
      </trkpt>
      <trkpt lat="44.91843" lon="6.57809">
        <ele>1879.2</ele>
        <time>2022-07-14T11:12:19+0200</time>
      </trkpt>
      <trkpt lat="44.91845" lon="6.57801">
        <ele>1879.6</ele>
        <time>2022-07-14T11:12:22+0200</time>
      </trkpt>
      <trkpt lat="44.91844" lon="6.57794">
        <ele>1880.6</ele>
        <time>2022-07-14T11:12:25+0200</time>
      </trkpt>
      <trkpt lat="44.91843" lon="6.57786">
        <ele>1881.9</ele>
        <time>2022-07-14T11:12:28+0200</time>
      </trkpt>
      <trkpt lat="44.91843" lon="6.57777">
        <ele>1883.1</ele>
        <time>2022-07-14T11:12:31+0200</time>
      </trkpt>
      <trkpt lat="44.91843" lon="6.5777">
        <ele>1883.5</ele>
        <time>2022-07-14T11:12:35+0200</time>
      </trkpt>
      <trkpt lat="44.91842" lon="6.57762">
        <ele>1884.5</ele>
        <time>2022-07-14T11:12:38+0200</time>
      </trkpt>
      <trkpt lat="44.91845" lon="6.57753">
        <ele>1884.2</ele>
        <time>2022-07-14T11:12:42+0200</time>
      </trkpt>
      <trkpt lat="44.91846" lon="6.57745">
        <ele>1884.2</ele>
        <time>2022-07-14T11:12:46+0200</time>
      </trkpt>
      <trkpt lat="44.91844" lon="6.57737">
        <ele>1885.3</ele>
        <time>2022-07-14T11:12:49+0200</time>
      </trkpt>
      <trkpt lat="44.91843" lon="6.5773">
        <ele>1886.2</ele>
        <time>2022-07-14T11:12:52+0200</time>
      </trkpt>
      <trkpt lat="44.91842" lon="6.57723">
        <ele>1886.7</ele>
        <time>2022-07-14T11:12:55+0200</time>
      </trkpt>
      <trkpt lat="44.9184" lon="6.57716">
        <ele>1887.7</ele>
        <time>2022-07-14T11:12:59+0200</time>
      </trkpt>
      <trkpt lat="44.91838" lon="6.57708">
        <ele>1888.8</ele>
        <time>2022-07-14T11:13:02+0200</time>
      </trkpt>
      <trkpt lat="44.91836" lon="6.577">
        <ele>1889.7</ele>
        <time>2022-07-14T11:13:05+0200</time>
      </trkpt>
      <trkpt lat="44.91835" lon="6.57694">
        <ele>1890.4</ele>
        <time>2022-07-14T11:13:08+0200</time>
      </trkpt>
      <trkpt lat="44.91832" lon="6.57686">
        <ele>1891.6</ele>
        <time>2022-07-14T11:13:11+0200</time>
      </trkpt>
      <trkpt lat="44.91831" lon="6.57678">
        <ele>1892</ele>
        <time>2022-07-14T11:13:14+0200</time>
      </trkpt>
      <trkpt lat="44.91828" lon="6.5767">
        <ele>1892.9</ele>
        <time>2022-07-14T11:13:17+0200</time>
      </trkpt>
      <trkpt lat="44.91827" lon="6.57663">
        <ele>1893.2</ele>
        <time>2022-07-14T11:13:21+0200</time>
      </trkpt>
      <trkpt lat="44.91825" lon="6.57657">
        <ele>1894.3</ele>
        <time>2022-07-14T11:13:23+0200</time>
      </trkpt>
      <trkpt lat="44.91824" lon="6.57649">
        <ele>1894.5</ele>
        <time>2022-07-14T11:13:26+0200</time>
      </trkpt>
      <trkpt lat="44.91825" lon="6.57642">
        <ele>1894.1</ele>
        <time>2022-07-14T11:13:29+0200</time>
      </trkpt>
      <trkpt lat="44.91825" lon="6.57635">
        <ele>1894.2</ele>
        <time>2022-07-14T11:13:32+0200</time>
      </trkpt>
      <trkpt lat="44.91825" lon="6.57628">
        <ele>1893.9</ele>
        <time>2022-07-14T11:13:35+0200</time>
      </trkpt>
      <trkpt lat="44.91826" lon="6.57621">
        <ele>1893.5</ele>
        <time>2022-07-14T11:13:38+0200</time>
      </trkpt>
      <trkpt lat="44.91824" lon="6.57615">
        <ele>1894.1</ele>
        <time>2022-07-14T11:13:42+0200</time>
      </trkpt>
      <trkpt lat="44.91824" lon="6.57608">
        <ele>1894</ele>
        <time>2022-07-14T11:13:44+0200</time>
      </trkpt>
      <trkpt lat="44.91821" lon="6.57602">
        <ele>1894.8</ele>
        <time>2022-07-14T11:13:47+0200</time>
      </trkpt>
      <trkpt lat="44.9182" lon="6.57592">
        <ele>1894.7</ele>
        <time>2022-07-14T11:13:50+0200</time>
      </trkpt>
      <trkpt lat="44.91818" lon="6.57585">
        <ele>1895.1</ele>
        <time>2022-07-14T11:13:53+0200</time>
      </trkpt>
      <trkpt lat="44.91817" lon="6.57579">
        <ele>1895.7</ele>
        <time>2022-07-14T11:13:56+0200</time>
      </trkpt>
      <trkpt lat="44.91815" lon="6.57573">
        <ele>1896.7</ele>
        <time>2022-07-14T11:13:58+0200</time>
      </trkpt>
      <trkpt lat="44.91813" lon="6.57566">
        <ele>1897.5</ele>
        <time>2022-07-14T11:14:00+0200</time>
      </trkpt>
      <trkpt lat="44.91809" lon="6.57559">
        <ele>1899.2</ele>
        <time>2022-07-14T11:14:03+0200</time>
      </trkpt>
      <trkpt lat="44.91808" lon="6.57553">
        <ele>1900</ele>
        <time>2022-07-14T11:14:05+0200</time>
      </trkpt>
      <trkpt lat="44.91804" lon="6.57545">
        <ele>1902</ele>
        <time>2022-07-14T11:14:08+0200</time>
      </trkpt>
      <trkpt lat="44.91802" lon="6.57537">
        <ele>1903.3</ele>
        <time>2022-07-14T11:14:11+0200</time>
      </trkpt>
      <trkpt lat="44.91799" lon="6.5753">
        <ele>1905.1</ele>
        <time>2022-07-14T11:14:14+0200</time>
      </trkpt>
      <trkpt lat="44.91798" lon="6.57524">
        <ele>1906.1</ele>
        <time>2022-07-14T11:14:16+0200</time>
      </trkpt>
      <trkpt lat="44.91797" lon="6.57516">
        <ele>1907.1</ele>
        <time>2022-07-14T11:14:19+0200</time>
      </trkpt>
      <trkpt lat="44.91796" lon="6.57507">
        <ele>1907.9</ele>
        <time>2022-07-14T11:14:22+0200</time>
      </trkpt>
      <trkpt lat="44.91795" lon="6.575">
        <ele>1908.7</ele>
        <time>2022-07-14T11:14:25+0200</time>
      </trkpt>
      <trkpt lat="44.91796" lon="6.57493">
        <ele>1908.8</ele>
        <time>2022-07-14T11:14:32+0200</time>
      </trkpt>
      <trkpt lat="44.91797" lon="6.57486">
        <ele>1908.8</ele>
        <time>2022-07-14T11:14:36+0200</time>
      </trkpt>
      <trkpt lat="44.91797" lon="6.57479">
        <ele>1909.1</ele>
        <time>2022-07-14T11:14:41+0200</time>
      </trkpt>
      <trkpt lat="44.91799" lon="6.57472">
        <ele>1908.6</ele>
        <time>2022-07-14T11:14:44+0200</time>
      </trkpt>
      <trkpt lat="44.918" lon="6.57465">
        <ele>1907.8</ele>
        <time>2022-07-14T11:14:47+0200</time>
      </trkpt>
      <trkpt lat="44.91799" lon="6.57457">
        <ele>1908.3</ele>
        <time>2022-07-14T11:14:50+0200</time>
      </trkpt>
      <trkpt lat="44.918" lon="6.57448">
        <ele>1907.7</ele>
        <time>2022-07-14T11:14:53+0200</time>
      </trkpt>
      <trkpt lat="44.91801" lon="6.57438">
        <ele>1906.5</ele>
        <time>2022-07-14T11:14:56+0200</time>
      </trkpt>
      <trkpt lat="44.91798" lon="6.57432">
        <ele>1907.8</ele>
        <time>2022-07-14T11:14:59+0200</time>
      </trkpt>
      <trkpt lat="44.91799" lon="6.57425">
        <ele>1906.6</ele>
        <time>2022-07-14T11:15:01+0200</time>
      </trkpt>
      <trkpt lat="44.91799" lon="6.57417">
        <ele>1905.7</ele>
        <time>2022-07-14T11:15:04+0200</time>
      </trkpt>
      <trkpt lat="44.91797" lon="6.5741">
        <ele>1906.3</ele>
        <time>2022-07-14T11:15:06+0200</time>
      </trkpt>
      <trkpt lat="44.91796" lon="6.57403">
        <ele>1906.3</ele>
        <time>2022-07-14T11:15:08+0200</time>
      </trkpt>
      <trkpt lat="44.91795" lon="6.57395">
        <ele>1906.3</ele>
        <time>2022-07-14T11:15:11+0200</time>
      </trkpt>
      <trkpt lat="44.91794" lon="6.57386">
        <ele>1906.8</ele>
        <time>2022-07-14T11:15:14+0200</time>
      </trkpt>
      <trkpt lat="44.91792" lon="6.57378">
        <ele>1907.5</ele>
        <time>2022-07-14T11:15:16+0200</time>
      </trkpt>
      <trkpt lat="44.9179" lon="6.57372">
        <ele>1908.1</ele>
        <time>2022-07-14T11:15:18+0200</time>
      </trkpt>
      <trkpt lat="44.91787" lon="6.57366">
        <ele>1908.9</ele>
        <time>2022-07-14T11:15:20+0200</time>
      </trkpt>
      <trkpt lat="44.91785" lon="6.57359">
        <ele>1909.4</ele>
        <time>2022-07-14T11:15:23+0200</time>
      </trkpt>
      <trkpt lat="44.91782" lon="6.57353">
        <ele>1910.5</ele>
        <time>2022-07-14T11:15:26+0200</time>
      </trkpt>
      <trkpt lat="44.91778" lon="6.57345">
        <ele>1911.3</ele>
        <time>2022-07-14T11:15:29+0200</time>
      </trkpt>
      <trkpt lat="44.91775" lon="6.5734">
        <ele>1912.4</ele>
        <time>2022-07-14T11:15:31+0200</time>
      </trkpt>
      <trkpt lat="44.91771" lon="6.57336">
        <ele>1913.7</ele>
        <time>2022-07-14T11:15:34+0200</time>
      </trkpt>
      <trkpt lat="44.91768" lon="6.5733">
        <ele>1915.2</ele>
        <time>2022-07-14T11:15:37+0200</time>
      </trkpt>
      <trkpt lat="44.91766" lon="6.57323">
        <ele>1916</ele>
        <time>2022-07-14T11:15:40+0200</time>
      </trkpt>
      <trkpt lat="44.91763" lon="6.57317">
        <ele>1917.2</ele>
        <time>2022-07-14T11:15:43+0200</time>
      </trkpt>
      <trkpt lat="44.91759" lon="6.57314">
        <ele>1918.3</ele>
        <time>2022-07-14T11:15:45+0200</time>
      </trkpt>
      <trkpt lat="44.91755" lon="6.57308">
        <ele>1919.1</ele>
        <time>2022-07-14T11:15:48+0200</time>
      </trkpt>
      <trkpt lat="44.91756" lon="6.57301">
        <ele>1918.7</ele>
        <time>2022-07-14T11:15:51+0200</time>
      </trkpt>
      <trkpt lat="44.91753" lon="6.57297">
        <ele>1919.5</ele>
        <time>2022-07-14T11:15:53+0200</time>
      </trkpt>
      <trkpt lat="44.9175" lon="6.57292">
        <ele>1920</ele>
        <time>2022-07-14T11:15:56+0200</time>
      </trkpt>
      <trkpt lat="44.91749" lon="6.57285">
        <ele>1920.3</ele>
        <time>2022-07-14T11:15:59+0200</time>
      </trkpt>
      <trkpt lat="44.91746" lon="6.5728">
        <ele>1921.3</ele>
        <time>2022-07-14T11:16:02+0200</time>
      </trkpt>
      <trkpt lat="44.91743" lon="6.57273">
        <ele>1922.3</ele>
        <time>2022-07-14T11:16:07+0200</time>
      </trkpt>
      <trkpt lat="44.9174" lon="6.57266">
        <ele>1923.3</ele>
        <time>2022-07-14T11:16:11+0200</time>
      </trkpt>
      <trkpt lat="44.91738" lon="6.5726">
        <ele>1923.9</ele>
        <time>2022-07-14T11:16:14+0200</time>
      </trkpt>
      <trkpt lat="44.91735" lon="6.57254">
        <ele>1924.7</ele>
        <time>2022-07-14T11:16:17+0200</time>
      </trkpt>
      <trkpt lat="44.9173" lon="6.57252">
        <ele>1925.6</ele>
        <time>2022-07-14T11:16:22+0200</time>
      </trkpt>
      <trkpt lat="44.91724" lon="6.57255">
        <ele>1926.9</ele>
        <time>2022-07-14T11:16:26+0200</time>
      </trkpt>
      <trkpt lat="44.91719" lon="6.57257">
        <ele>1928.6</ele>
        <time>2022-07-14T11:16:29+0200</time>
      </trkpt>
      <trkpt lat="44.91714" lon="6.57261">
        <ele>1930.5</ele>
        <time>2022-07-14T11:16:32+0200</time>
      </trkpt>
      <trkpt lat="44.9171" lon="6.57265">
        <ele>1932.1</ele>
        <time>2022-07-14T11:16:35+0200</time>
      </trkpt>
      <trkpt lat="44.91708" lon="6.57273">
        <ele>1933.5</ele>
        <time>2022-07-14T11:16:39+0200</time>
      </trkpt>
      <trkpt lat="44.91702" lon="6.57275">
        <ele>1935.9</ele>
        <time>2022-07-14T11:16:42+0200</time>
      </trkpt>
      <trkpt lat="44.917" lon="6.57282">
        <ele>1937.3</ele>
        <time>2022-07-14T11:16:45+0200</time>
      </trkpt>
      <trkpt lat="44.91699" lon="6.57289">
        <ele>1938.7</ele>
        <time>2022-07-14T11:16:48+0200</time>
      </trkpt>
      <trkpt lat="44.91699" lon="6.57296">
        <ele>1939.6</ele>
        <time>2022-07-14T11:16:51+0200</time>
      </trkpt>
      <trkpt lat="44.91701" lon="6.57304">
        <ele>1939.8</ele>
        <time>2022-07-14T11:16:54+0200</time>
      </trkpt>
      <trkpt lat="44.91704" lon="6.57311">
        <ele>1939.9</ele>
        <time>2022-07-14T11:16:56+0200</time>
      </trkpt>
      <trkpt lat="44.91706" lon="6.57318">
        <ele>1940.1</ele>
        <time>2022-07-14T11:16:59+0200</time>
      </trkpt>
      <trkpt lat="44.91707" lon="6.57327">
        <ele>1941.3</ele>
        <time>2022-07-14T11:17:03+0200</time>
      </trkpt>
      <trkpt lat="44.91707" lon="6.57335">
        <ele>1943</ele>
        <time>2022-07-14T11:17:07+0200</time>
      </trkpt>
      <trkpt lat="44.9171" lon="6.57343">
        <ele>1943.3</ele>
        <time>2022-07-14T11:17:10+0200</time>
      </trkpt>
      <trkpt lat="44.91712" lon="6.57353">
        <ele>1944.3</ele>
        <time>2022-07-14T11:17:13+0200</time>
      </trkpt>
      <trkpt lat="44.9171" lon="6.57359">
        <ele>1946.3</ele>
        <time>2022-07-14T11:17:16+0200</time>
      </trkpt>
      <trkpt lat="44.91711" lon="6.57366">
        <ele>1947.1</ele>
        <time>2022-07-14T11:17:18+0200</time>
      </trkpt>
      <trkpt lat="44.91714" lon="6.57375">
        <ele>1947.3</ele>
        <time>2022-07-14T11:17:20+0200</time>
      </trkpt>
      <trkpt lat="44.91717" lon="6.57383">
        <ele>1947.8</ele>
        <time>2022-07-14T11:17:22+0200</time>
      </trkpt>
      <trkpt lat="44.91718" lon="6.57391">
        <ele>1948.6</ele>
        <time>2022-07-14T11:17:25+0200</time>
      </trkpt>
      <trkpt lat="44.91719" lon="6.57398">
        <ele>1948.8</ele>
        <time>2022-07-14T11:17:30+0200</time>
      </trkpt>
      <trkpt lat="44.91722" lon="6.57392">
        <ele>1947.5</ele>
        <time>2022-07-14T11:17:40+0200</time>
      </trkpt>
      <trkpt lat="44.91721" lon="6.57384">
        <ele>1946.6</ele>
        <time>2022-07-14T11:17:44+0200</time>
      </trkpt>
      <trkpt lat="44.91718" lon="6.57378">
        <ele>1946.5</ele>
        <time>2022-07-14T11:17:47+0200</time>
      </trkpt>
      <trkpt lat="44.91716" lon="6.57372">
        <ele>1946.1</ele>
        <time>2022-07-14T11:17:50+0200</time>
      </trkpt>
      <trkpt lat="44.91714" lon="6.57364">
        <ele>1945.1</ele>
        <time>2022-07-14T11:17:54+0200</time>
      </trkpt>
      <trkpt lat="44.91713" lon="6.57357">
        <ele>1944.3</ele>
        <time>2022-07-14T11:17:57+0200</time>
      </trkpt>
      <trkpt lat="44.91711" lon="6.57348">
        <ele>1943.8</ele>
        <time>2022-07-14T11:18:01+0200</time>
      </trkpt>
      <trkpt lat="44.91707" lon="6.57342">
        <ele>1944.4</ele>
        <time>2022-07-14T11:18:03+0200</time>
      </trkpt>
      <trkpt lat="44.91703" lon="6.57336">
        <ele>1944.9</ele>
        <time>2022-07-14T11:18:06+0200</time>
      </trkpt>
      <trkpt lat="44.917" lon="6.57331">
        <ele>1945.8</ele>
        <time>2022-07-14T11:18:09+0200</time>
      </trkpt>
      <trkpt lat="44.91695" lon="6.57324">
        <ele>1946.7</ele>
        <time>2022-07-14T11:18:11+0200</time>
      </trkpt>
      <trkpt lat="44.91692" lon="6.57317">
        <ele>1946.5</ele>
        <time>2022-07-14T11:18:14+0200</time>
      </trkpt>
      <trkpt lat="44.91687" lon="6.57313">
        <ele>1947.9</ele>
        <time>2022-07-14T11:18:17+0200</time>
      </trkpt>
      <trkpt lat="44.91684" lon="6.57305">
        <ele>1947.6</ele>
        <time>2022-07-14T11:18:20+0200</time>
      </trkpt>
      <trkpt lat="44.9168" lon="6.573">
        <ele>1949</ele>
        <time>2022-07-14T11:18:22+0200</time>
      </trkpt>
      <trkpt lat="44.91677" lon="6.57295">
        <ele>1949.8</ele>
        <time>2022-07-14T11:18:24+0200</time>
      </trkpt>
      <trkpt lat="44.91674" lon="6.57287">
        <ele>1949.9</ele>
        <time>2022-07-14T11:18:27+0200</time>
      </trkpt>
      <trkpt lat="44.91669" lon="6.57281">
        <ele>1951.2</ele>
        <time>2022-07-14T11:18:30+0200</time>
      </trkpt>
      <trkpt lat="44.91666" lon="6.57275">
        <ele>1951.8</ele>
        <time>2022-07-14T11:18:33+0200</time>
      </trkpt>
      <trkpt lat="44.91663" lon="6.57268">
        <ele>1952.5</ele>
        <time>2022-07-14T11:18:35+0200</time>
      </trkpt>
      <trkpt lat="44.91658" lon="6.57266">
        <ele>1954.9</ele>
        <time>2022-07-14T11:18:38+0200</time>
      </trkpt>
      <trkpt lat="44.91652" lon="6.57267">
        <ele>1958</ele>
        <time>2022-07-14T11:18:41+0200</time>
      </trkpt>
      <trkpt lat="44.91646" lon="6.57267">
        <ele>1960.5</ele>
        <time>2022-07-14T11:18:45+0200</time>
      </trkpt>
      <trkpt lat="44.91641" lon="6.57268">
        <ele>1963</ele>
        <time>2022-07-14T11:18:48+0200</time>
      </trkpt>
      <trkpt lat="44.9164" lon="6.57278">
        <ele>1964.4</ele>
        <time>2022-07-14T11:18:55+0200</time>
      </trkpt>
      <trkpt lat="44.9164" lon="6.57286">
        <ele>1965.6</ele>
        <time>2022-07-14T11:18:58+0200</time>
      </trkpt>
      <trkpt lat="44.91646" lon="6.57293">
        <ele>1963.9</ele>
        <time>2022-07-14T11:19:01+0200</time>
      </trkpt>
      <trkpt lat="44.91646" lon="6.57301">
        <ele>1965.1</ele>
        <time>2022-07-14T11:19:04+0200</time>
      </trkpt>
      <trkpt lat="44.91643" lon="6.57308">
        <ele>1967.4</ele>
        <time>2022-07-14T11:19:08+0200</time>
      </trkpt>
      <trkpt lat="44.91644" lon="6.57315">
        <ele>1968</ele>
        <time>2022-07-14T11:19:11+0200</time>
      </trkpt>
      <trkpt lat="44.91645" lon="6.57323">
        <ele>1968.7</ele>
        <time>2022-07-14T11:19:16+0200</time>
      </trkpt>
      <trkpt lat="44.91646" lon="6.57329">
        <ele>1969.4</ele>
        <time>2022-07-14T11:19:19+0200</time>
      </trkpt>
      <trkpt lat="44.91641" lon="6.57334">
        <ele>1972.2</ele>
        <time>2022-07-14T11:19:25+0200</time>
      </trkpt>
      <trkpt lat="44.9164" lon="6.57341">
        <ele>1972.9</ele>
        <time>2022-07-14T11:19:28+0200</time>
      </trkpt>
      <trkpt lat="44.91643" lon="6.57347">
        <ele>1972.2</ele>
        <time>2022-07-14T11:19:30+0200</time>
      </trkpt>
      <trkpt lat="44.91644" lon="6.57353">
        <ele>1972.2</ele>
        <time>2022-07-14T11:19:32+0200</time>
      </trkpt>
      <trkpt lat="44.91643" lon="6.57361">
        <ele>1973.3</ele>
        <time>2022-07-14T11:19:35+0200</time>
      </trkpt>
      <trkpt lat="44.9164" lon="6.57366">
        <ele>1974.6</ele>
        <time>2022-07-14T11:19:39+0200</time>
      </trkpt>
      <trkpt lat="44.91638" lon="6.57373">
        <ele>1975.4</ele>
        <time>2022-07-14T11:19:43+0200</time>
      </trkpt>
      <trkpt lat="44.91634" lon="6.57378">
        <ele>1976.9</ele>
        <time>2022-07-14T11:19:46+0200</time>
      </trkpt>
      <trkpt lat="44.91632" lon="6.57384">
        <ele>1977.3</ele>
        <time>2022-07-14T11:19:48+0200</time>
      </trkpt>
      <trkpt lat="44.91628" lon="6.57391">
        <ele>1979</ele>
        <time>2022-07-14T11:19:52+0200</time>
      </trkpt>
      <trkpt lat="44.91625" lon="6.57397">
        <ele>1979.9</ele>
        <time>2022-07-14T11:19:56+0200</time>
      </trkpt>
      <trkpt lat="44.91623" lon="6.57405">
        <ele>1980.7</ele>
        <time>2022-07-14T11:19:59+0200</time>
      </trkpt>
      <trkpt lat="44.91619" lon="6.57411">
        <ele>1982.1</ele>
        <time>2022-07-14T11:20:02+0200</time>
      </trkpt>
      <trkpt lat="44.91617" lon="6.57418">
        <ele>1982.8</ele>
        <time>2022-07-14T11:20:06+0200</time>
      </trkpt>
      <trkpt lat="44.91614" lon="6.57423">
        <ele>1983.9</ele>
        <time>2022-07-14T11:20:08+0200</time>
      </trkpt>
      <trkpt lat="44.91612" lon="6.5743">
        <ele>1984.8</ele>
        <time>2022-07-14T11:20:10+0200</time>
      </trkpt>
      <trkpt lat="44.91613" lon="6.57438">
        <ele>1984.4</ele>
        <time>2022-07-14T11:20:13+0200</time>
      </trkpt>
      <trkpt lat="44.91613" lon="6.57446">
        <ele>1984.5</ele>
        <time>2022-07-14T11:20:16+0200</time>
      </trkpt>
      <trkpt lat="44.91614" lon="6.57453">
        <ele>1984.1</ele>
        <time>2022-07-14T11:20:19+0200</time>
      </trkpt>
      <trkpt lat="44.91617" lon="6.57462">
        <ele>1983</ele>
        <time>2022-07-14T11:20:21+0200</time>
      </trkpt>
      <trkpt lat="44.91619" lon="6.57468">
        <ele>1982.2</ele>
        <time>2022-07-14T11:20:23+0200</time>
      </trkpt>
      <trkpt lat="44.91619" lon="6.57474">
        <ele>1982.3</ele>
        <time>2022-07-14T11:20:25+0200</time>
      </trkpt>
      <trkpt lat="44.91619" lon="6.57481">
        <ele>1982.6</ele>
        <time>2022-07-14T11:20:28+0200</time>
      </trkpt>
      <trkpt lat="44.91617" lon="6.57489">
        <ele>1983.8</ele>
        <time>2022-07-14T11:20:32+0200</time>
      </trkpt>
      <trkpt lat="44.91619" lon="6.57497">
        <ele>1983.6</ele>
        <time>2022-07-14T11:20:35+0200</time>
      </trkpt>
      <trkpt lat="44.91619" lon="6.57503">
        <ele>1983.8</ele>
        <time>2022-07-14T11:20:37+0200</time>
      </trkpt>
      <trkpt lat="44.91619" lon="6.57511">
        <ele>1983.9</ele>
        <time>2022-07-14T11:20:40+0200</time>
      </trkpt>
      <trkpt lat="44.91617" lon="6.57517">
        <ele>1985.3</ele>
        <time>2022-07-14T11:20:43+0200</time>
      </trkpt>
      <trkpt lat="44.91614" lon="6.57524">
        <ele>1986.6</ele>
        <time>2022-07-14T11:20:47+0200</time>
      </trkpt>
      <trkpt lat="44.91611" lon="6.5753">
        <ele>1988.1</ele>
        <time>2022-07-14T11:20:51+0200</time>
      </trkpt>
      <trkpt lat="44.91616" lon="6.57531">
        <ele>1986.3</ele>
        <time>2022-07-14T11:20:58+0200</time>
      </trkpt>
      <trkpt lat="44.91619" lon="6.57526">
        <ele>1984.7</ele>
        <time>2022-07-14T11:21:02+0200</time>
      </trkpt>
      <trkpt lat="44.9162" lon="6.57519">
        <ele>1984.3</ele>
        <time>2022-07-14T11:21:06+0200</time>
      </trkpt>
      <trkpt lat="44.9162" lon="6.57512">
        <ele>1983.7</ele>
        <time>2022-07-14T11:21:09+0200</time>
      </trkpt>
      <trkpt lat="44.91618" lon="6.57507">
        <ele>1984.4</ele>
        <time>2022-07-14T11:21:11+0200</time>
      </trkpt>
      <trkpt lat="44.91614" lon="6.575">
        <ele>1985.7</ele>
        <time>2022-07-14T11:21:14+0200</time>
      </trkpt>
      <trkpt lat="44.9161" lon="6.57497">
        <ele>1987.2</ele>
        <time>2022-07-14T11:21:16+0200</time>
      </trkpt>
      <trkpt lat="44.91606" lon="6.57492">
        <ele>1988.3</ele>
        <time>2022-07-14T11:21:19+0200</time>
      </trkpt>
      <trkpt lat="44.91601" lon="6.57487">
        <ele>1989.9</ele>
        <time>2022-07-14T11:21:22+0200</time>
      </trkpt>
      <trkpt lat="44.91598" lon="6.57482">
        <ele>1990.7</ele>
        <time>2022-07-14T11:21:25+0200</time>
      </trkpt>
      <trkpt lat="44.91596" lon="6.57476">
        <ele>1991.3</ele>
        <time>2022-07-14T11:21:28+0200</time>
      </trkpt>
      <trkpt lat="44.91594" lon="6.57469">
        <ele>1991.6</ele>
        <time>2022-07-14T11:21:31+0200</time>
      </trkpt>
      <trkpt lat="44.91594" lon="6.5746">
        <ele>1991.7</ele>
        <time>2022-07-14T11:21:34+0200</time>
      </trkpt>
      <trkpt lat="44.91592" lon="6.57452">
        <ele>1992.1</ele>
        <time>2022-07-14T11:21:39+0200</time>
      </trkpt>
      <trkpt lat="44.9159" lon="6.57444">
        <ele>1992.5</ele>
        <time>2022-07-14T11:21:43+0200</time>
      </trkpt>
      <trkpt lat="44.91592" lon="6.57435">
        <ele>1992.1</ele>
        <time>2022-07-14T11:21:47+0200</time>
      </trkpt>
      <trkpt lat="44.91592" lon="6.57429">
        <ele>1992.1</ele>
        <time>2022-07-14T11:21:50+0200</time>
      </trkpt>
      <trkpt lat="44.9159" lon="6.57422">
        <ele>1992.7</ele>
        <time>2022-07-14T11:21:54+0200</time>
      </trkpt>
      <trkpt lat="44.91588" lon="6.57415">
        <ele>1993.5</ele>
        <time>2022-07-14T11:21:57+0200</time>
      </trkpt>
      <trkpt lat="44.91586" lon="6.57408">
        <ele>1994.2</ele>
        <time>2022-07-14T11:22:00+0200</time>
      </trkpt>
      <trkpt lat="44.91585" lon="6.574">
        <ele>1994.9</ele>
        <time>2022-07-14T11:22:03+0200</time>
      </trkpt>
      <trkpt lat="44.91584" lon="6.57393">
        <ele>1995.7</ele>
        <time>2022-07-14T11:22:06+0200</time>
      </trkpt>
      <trkpt lat="44.91582" lon="6.57385">
        <ele>1996.4</ele>
        <time>2022-07-14T11:22:09+0200</time>
      </trkpt>
      <trkpt lat="44.91581" lon="6.57378">
        <ele>1996.7</ele>
        <time>2022-07-14T11:22:12+0200</time>
      </trkpt>
      <trkpt lat="44.91581" lon="6.57369">
        <ele>1996.8</ele>
        <time>2022-07-14T11:22:15+0200</time>
      </trkpt>
      <trkpt lat="44.91578" lon="6.57363">
        <ele>1997.9</ele>
        <time>2022-07-14T11:22:18+0200</time>
      </trkpt>
      <trkpt lat="44.91574" lon="6.57357">
        <ele>1999.4</ele>
        <time>2022-07-14T11:22:20+0200</time>
      </trkpt>
      <trkpt lat="44.91573" lon="6.57348">
        <ele>1999.6</ele>
        <time>2022-07-14T11:22:22+0200</time>
      </trkpt>
      <trkpt lat="44.91573" lon="6.57341">
        <ele>1999.6</ele>
        <time>2022-07-14T11:22:24+0200</time>
      </trkpt>
      <trkpt lat="44.91573" lon="6.57333">
        <ele>1999.8</ele>
        <time>2022-07-14T11:22:26+0200</time>
      </trkpt>
      <trkpt lat="44.91572" lon="6.57324">
        <ele>1999.6</ele>
        <time>2022-07-14T11:22:29+0200</time>
      </trkpt>
      <trkpt lat="44.91572" lon="6.57317">
        <ele>1999.2</ele>
        <time>2022-07-14T11:22:31+0200</time>
      </trkpt>
      <trkpt lat="44.9157" lon="6.57308">
        <ele>1999.3</ele>
        <time>2022-07-14T11:22:34+0200</time>
      </trkpt>
      <trkpt lat="44.9157" lon="6.57298">
        <ele>1998.9</ele>
        <time>2022-07-14T11:22:37+0200</time>
      </trkpt>
      <trkpt lat="44.91568" lon="6.57289">
        <ele>1998.8</ele>
        <time>2022-07-14T11:22:39+0200</time>
      </trkpt>
      <trkpt lat="44.91567" lon="6.57283">
        <ele>1998.9</ele>
        <time>2022-07-14T11:22:41+0200</time>
      </trkpt>
      <trkpt lat="44.91564" lon="6.57275">
        <ele>1999.3</ele>
        <time>2022-07-14T11:22:43+0200</time>
      </trkpt>
      <trkpt lat="44.91563" lon="6.57268">
        <ele>1999.4</ele>
        <time>2022-07-14T11:22:45+0200</time>
      </trkpt>
      <trkpt lat="44.91561" lon="6.57261">
        <ele>1999.4</ele>
        <time>2022-07-14T11:22:47+0200</time>
      </trkpt>
      <trkpt lat="44.9156" lon="6.57252">
        <ele>1999.1</ele>
        <time>2022-07-14T11:22:49+0200</time>
      </trkpt>
      <trkpt lat="44.91561" lon="6.57244">
        <ele>1998.3</ele>
        <time>2022-07-14T11:22:51+0200</time>
      </trkpt>
      <trkpt lat="44.9156" lon="6.57236">
        <ele>1997.9</ele>
        <time>2022-07-14T11:22:53+0200</time>
      </trkpt>
      <trkpt lat="44.91561" lon="6.57227">
        <ele>1997.2</ele>
        <time>2022-07-14T11:22:55+0200</time>
      </trkpt>
      <trkpt lat="44.9156" lon="6.5722">
        <ele>1996.8</ele>
        <time>2022-07-14T11:22:57+0200</time>
      </trkpt>
      <trkpt lat="44.9156" lon="6.57211">
        <ele>1996.5</ele>
        <time>2022-07-14T11:22:59+0200</time>
      </trkpt>
      <trkpt lat="44.9156" lon="6.57203">
        <ele>1995.8</ele>
        <time>2022-07-14T11:23:01+0200</time>
      </trkpt>
      <trkpt lat="44.91558" lon="6.57195">
        <ele>1996</ele>
        <time>2022-07-14T11:23:03+0200</time>
      </trkpt>
      <trkpt lat="44.91557" lon="6.57188">
        <ele>1995.9</ele>
        <time>2022-07-14T11:23:05+0200</time>
      </trkpt>
      <trkpt lat="44.91555" lon="6.57181">
        <ele>1995.6</ele>
        <time>2022-07-14T11:23:07+0200</time>
      </trkpt>
      <trkpt lat="44.91552" lon="6.57171">
        <ele>1995.6</ele>
        <time>2022-07-14T11:23:09+0200</time>
      </trkpt>
      <trkpt lat="44.91552" lon="6.57162">
        <ele>1995.1</ele>
        <time>2022-07-14T11:23:11+0200</time>
      </trkpt>
      <trkpt lat="44.91552" lon="6.57154">
        <ele>1994.2</ele>
        <time>2022-07-14T11:23:13+0200</time>
      </trkpt>
      <trkpt lat="44.91551" lon="6.57146">
        <ele>1993.9</ele>
        <time>2022-07-14T11:23:15+0200</time>
      </trkpt>
      <trkpt lat="44.9155" lon="6.57138">
        <ele>1993.9</ele>
        <time>2022-07-14T11:23:17+0200</time>
      </trkpt>
      <trkpt lat="44.9155" lon="6.57132">
        <ele>1993.6</ele>
        <time>2022-07-14T11:23:19+0200</time>
      </trkpt>
      <trkpt lat="44.91549" lon="6.57124">
        <ele>1993.5</ele>
        <time>2022-07-14T11:23:21+0200</time>
      </trkpt>
      <trkpt lat="44.91548" lon="6.57117">
        <ele>1993.4</ele>
        <time>2022-07-14T11:23:23+0200</time>
      </trkpt>
      <trkpt lat="44.91548" lon="6.57109">
        <ele>1993.1</ele>
        <time>2022-07-14T11:23:25+0200</time>
      </trkpt>
      <trkpt lat="44.91546" lon="6.57103">
        <ele>1993.6</ele>
        <time>2022-07-14T11:23:27+0200</time>
      </trkpt>
      <trkpt lat="44.91544" lon="6.57095">
        <ele>1994.1</ele>
        <time>2022-07-14T11:23:29+0200</time>
      </trkpt>
      <trkpt lat="44.91542" lon="6.57089">
        <ele>1994.5</ele>
        <time>2022-07-14T11:23:31+0200</time>
      </trkpt>
      <trkpt lat="44.91539" lon="6.57084">
        <ele>1995.1</ele>
        <time>2022-07-14T11:23:33+0200</time>
      </trkpt>
      <trkpt lat="44.91536" lon="6.57078">
        <ele>1996.5</ele>
        <time>2022-07-14T11:23:35+0200</time>
      </trkpt>
      <trkpt lat="44.91532" lon="6.57074">
        <ele>1997.8</ele>
        <time>2022-07-14T11:23:37+0200</time>
      </trkpt>
      <trkpt lat="44.91526" lon="6.5707">
        <ele>1999.3</ele>
        <time>2022-07-14T11:23:39+0200</time>
      </trkpt>
      <trkpt lat="44.91521" lon="6.57065">
        <ele>2000.8</ele>
        <time>2022-07-14T11:23:41+0200</time>
      </trkpt>
      <trkpt lat="44.91516" lon="6.57061">
        <ele>2001.9</ele>
        <time>2022-07-14T11:23:43+0200</time>
      </trkpt>
      <trkpt lat="44.91511" lon="6.57056">
        <ele>2003.1</ele>
        <time>2022-07-14T11:23:45+0200</time>
      </trkpt>
      <trkpt lat="44.91507" lon="6.57051">
        <ele>2004.3</ele>
        <time>2022-07-14T11:23:47+0200</time>
      </trkpt>
      <trkpt lat="44.91503" lon="6.57042">
        <ele>2006.1</ele>
        <time>2022-07-14T11:23:50+0200</time>
      </trkpt>
      <trkpt lat="44.915" lon="6.57034">
        <ele>2007.4</ele>
        <time>2022-07-14T11:23:52+0200</time>
      </trkpt>
      <trkpt lat="44.91496" lon="6.57028">
        <ele>2008.6</ele>
        <time>2022-07-14T11:23:54+0200</time>
      </trkpt>
      <trkpt lat="44.91489" lon="6.57027">
        <ele>2009.7</ele>
        <time>2022-07-14T11:23:56+0200</time>
      </trkpt>
      <trkpt lat="44.91485" lon="6.57023">
        <ele>2010.4</ele>
        <time>2022-07-14T11:24:01+0200</time>
      </trkpt>
      <trkpt lat="44.91482" lon="6.57017">
        <ele>2011</ele>
        <time>2022-07-14T11:24:05+0200</time>
      </trkpt>
      <trkpt lat="44.91487" lon="6.57017">
        <ele>2010.5</ele>
        <time>2022-07-14T11:24:46+0200</time>
      </trkpt>
      <trkpt lat="44.91482" lon="6.57016">
        <ele>2011</ele>
        <time>2022-07-14T11:25:12+0200</time>
      </trkpt>
      <trkpt lat="44.91486" lon="6.57012">
        <ele>2010.9</ele>
        <time>2022-07-14T11:25:20+0200</time>
      </trkpt>
      <trkpt lat="44.91482" lon="6.57015">
        <ele>2011.1</ele>
        <time>2022-07-14T11:25:42+0200</time>
      </trkpt>
      <trkpt lat="44.91484" lon="6.5701">
        <ele>2011.1</ele>
        <time>2022-07-14T11:26:15+0200</time>
      </trkpt>
      <trkpt lat="44.91486" lon="6.57016">
        <ele>2010.7</ele>
        <time>2022-07-14T11:26:55+0200</time>
      </trkpt>
      <trkpt lat="44.91491" lon="6.57012">
        <ele>2010.5</ele>
        <time>2022-07-14T11:28:36+0200</time>
      </trkpt>
      <trkpt lat="44.91496" lon="6.57008">
        <ele>2010.4</ele>
        <time>2022-07-14T11:28:40+0200</time>
      </trkpt>
      <trkpt lat="44.91502" lon="6.57005">
        <ele>2010.5</ele>
        <time>2022-07-14T11:28:41+0200</time>
      </trkpt>
      <trkpt lat="44.91506" lon="6.57002">
        <ele>2010.7</ele>
        <time>2022-07-14T11:28:42+0200</time>
      </trkpt>
      <trkpt lat="44.9151" lon="6.56998">
        <ele>2011.3</ele>
        <time>2022-07-14T11:28:43+0200</time>
      </trkpt>
      <trkpt lat="44.91512" lon="6.56991">
        <ele>2012.5</ele>
        <time>2022-07-14T11:28:45+0200</time>
      </trkpt>
      <trkpt lat="44.91517" lon="6.56986">
        <ele>2013.6</ele>
        <time>2022-07-14T11:28:48+0200</time>
      </trkpt>
      <trkpt lat="44.91521" lon="6.56986">
        <ele>2013.9</ele>
        <time>2022-07-14T11:28:51+0200</time>
      </trkpt>
      <trkpt lat="44.91525" lon="6.56989">
        <ele>2013.2</ele>
        <time>2022-07-14T11:28:53+0200</time>
      </trkpt>
      <trkpt lat="44.91529" lon="6.56991">
        <ele>2013</ele>
        <time>2022-07-14T11:28:55+0200</time>
      </trkpt>
      <trkpt lat="44.91535" lon="6.56993">
        <ele>2013.1</ele>
        <time>2022-07-14T11:28:58+0200</time>
      </trkpt>
      <trkpt lat="44.9154" lon="6.56994">
        <ele>2013.2</ele>
        <time>2022-07-14T11:29:00+0200</time>
      </trkpt>
      <trkpt lat="44.91547" lon="6.56995">
        <ele>2013.3</ele>
        <time>2022-07-14T11:29:03+0200</time>
      </trkpt>
      <trkpt lat="44.91552" lon="6.56996">
        <ele>2013.7</ele>
        <time>2022-07-14T11:29:05+0200</time>
      </trkpt>
      <trkpt lat="44.91557" lon="6.56995">
        <ele>2014.2</ele>
        <time>2022-07-14T11:29:07+0200</time>
      </trkpt>
      <trkpt lat="44.91562" lon="6.56996">
        <ele>2014.8</ele>
        <time>2022-07-14T11:29:09+0200</time>
      </trkpt>
      <trkpt lat="44.91567" lon="6.56997">
        <ele>2015.5</ele>
        <time>2022-07-14T11:29:11+0200</time>
      </trkpt>
      <trkpt lat="44.91571" lon="6.56998">
        <ele>2016.2</ele>
        <time>2022-07-14T11:29:13+0200</time>
      </trkpt>
      <trkpt lat="44.91577" lon="6.56998">
        <ele>2017.1</ele>
        <time>2022-07-14T11:29:15+0200</time>
      </trkpt>
      <trkpt lat="44.91582" lon="6.57">
        <ele>2017.7</ele>
        <time>2022-07-14T11:29:17+0200</time>
      </trkpt>
      <trkpt lat="44.91588" lon="6.56995">
        <ele>2018</ele>
        <time>2022-07-14T11:29:20+0200</time>
      </trkpt>
      <trkpt lat="44.91591" lon="6.5699">
        <ele>2018.4</ele>
        <time>2022-07-14T11:29:22+0200</time>
      </trkpt>
      <trkpt lat="44.91595" lon="6.56985">
        <ele>2018.6</ele>
        <time>2022-07-14T11:29:24+0200</time>
      </trkpt>
      <trkpt lat="44.91599" lon="6.5698">
        <ele>2018.9</ele>
        <time>2022-07-14T11:29:27+0200</time>
      </trkpt>
      <trkpt lat="44.91604" lon="6.56975">
        <ele>2019.1</ele>
        <time>2022-07-14T11:29:30+0200</time>
      </trkpt>
      <trkpt lat="44.91608" lon="6.56969">
        <ele>2019.6</ele>
        <time>2022-07-14T11:29:33+0200</time>
      </trkpt>
      <trkpt lat="44.91611" lon="6.56961">
        <ele>2020.3</ele>
        <time>2022-07-14T11:29:35+0200</time>
      </trkpt>
      <trkpt lat="44.91613" lon="6.56952">
        <ele>2021</ele>
        <time>2022-07-14T11:29:38+0200</time>
      </trkpt>
      <trkpt lat="44.91614" lon="6.56944">
        <ele>2021.8</ele>
        <time>2022-07-14T11:29:41+0200</time>
      </trkpt>
      <trkpt lat="44.91614" lon="6.56938">
        <ele>2022.3</ele>
        <time>2022-07-14T11:29:43+0200</time>
      </trkpt>
      <trkpt lat="44.91614" lon="6.56931">
        <ele>2022.8</ele>
        <time>2022-07-14T11:29:45+0200</time>
      </trkpt>
      <trkpt lat="44.91613" lon="6.56924">
        <ele>2023.4</ele>
        <time>2022-07-14T11:29:47+0200</time>
      </trkpt>
      <trkpt lat="44.91611" lon="6.56918">
        <ele>2023.9</ele>
        <time>2022-07-14T11:29:49+0200</time>
      </trkpt>
      <trkpt lat="44.91611" lon="6.56908">
        <ele>2024.6</ele>
        <time>2022-07-14T11:29:53+0200</time>
      </trkpt>
      <trkpt lat="44.91613" lon="6.56901">
        <ele>2025.2</ele>
        <time>2022-07-14T11:29:55+0200</time>
      </trkpt>
      <trkpt lat="44.91618" lon="6.56894">
        <ele>2026.3</ele>
        <time>2022-07-14T11:29:57+0200</time>
      </trkpt>
      <trkpt lat="44.91624" lon="6.5689">
        <ele>2027.2</ele>
        <time>2022-07-14T11:29:59+0200</time>
      </trkpt>
      <trkpt lat="44.9163" lon="6.56893">
        <ele>2027.5</ele>
        <time>2022-07-14T11:30:01+0200</time>
      </trkpt>
      <trkpt lat="44.91636" lon="6.56898">
        <ele>2027.2</ele>
        <time>2022-07-14T11:30:03+0200</time>
      </trkpt>
      <trkpt lat="44.91643" lon="6.56904">
        <ele>2026.8</ele>
        <time>2022-07-14T11:30:05+0200</time>
      </trkpt>
      <trkpt lat="44.91647" lon="6.56907">
        <ele>2026.6</ele>
        <time>2022-07-14T11:30:07+0200</time>
      </trkpt>
      <trkpt lat="44.91652" lon="6.5691">
        <ele>2026.7</ele>
        <time>2022-07-14T11:30:09+0200</time>
      </trkpt>
      <trkpt lat="44.91656" lon="6.56914">
        <ele>2026.3</ele>
        <time>2022-07-14T11:30:12+0200</time>
      </trkpt>
      <trkpt lat="44.91661" lon="6.56918">
        <ele>2026.2</ele>
        <time>2022-07-14T11:30:14+0200</time>
      </trkpt>
      <trkpt lat="44.91668" lon="6.56919">
        <ele>2026.7</ele>
        <time>2022-07-14T11:30:17+0200</time>
      </trkpt>
      <trkpt lat="44.91672" lon="6.56915">
        <ele>2028.1</ele>
        <time>2022-07-14T11:30:19+0200</time>
      </trkpt>
      <trkpt lat="44.91674" lon="6.56908">
        <ele>2029.9</ele>
        <time>2022-07-14T11:30:22+0200</time>
      </trkpt>
      <trkpt lat="44.91671" lon="6.56903">
        <ele>2030.3</ele>
        <time>2022-07-14T11:30:27+0200</time>
      </trkpt>
      <trkpt lat="44.91666" lon="6.569">
        <ele>2030</ele>
        <time>2022-07-14T11:30:33+0200</time>
      </trkpt>
      <trkpt lat="44.91661" lon="6.56896">
        <ele>2030</ele>
        <time>2022-07-14T11:30:37+0200</time>
      </trkpt>
      <trkpt lat="44.91658" lon="6.56893">
        <ele>2030.3</ele>
        <time>2022-07-14T11:30:40+0200</time>
      </trkpt>
      <trkpt lat="44.91654" lon="6.56886">
        <ele>2031.3</ele>
        <time>2022-07-14T11:30:43+0200</time>
      </trkpt>
      <trkpt lat="44.91649" lon="6.56878">
        <ele>2031.8</ele>
        <time>2022-07-14T11:30:46+0200</time>
      </trkpt>
      <trkpt lat="44.91645" lon="6.56871">
        <ele>2032.4</ele>
        <time>2022-07-14T11:30:49+0200</time>
      </trkpt>
      <trkpt lat="44.91639" lon="6.56867">
        <ele>2032.3</ele>
        <time>2022-07-14T11:30:52+0200</time>
      </trkpt>
      <trkpt lat="44.91637" lon="6.56861">
        <ele>2032.8</ele>
        <time>2022-07-14T11:30:54+0200</time>
      </trkpt>
      <trkpt lat="44.91633" lon="6.56853">
        <ele>2033.9</ele>
        <time>2022-07-14T11:30:58+0200</time>
      </trkpt>
      <trkpt lat="44.91629" lon="6.56849">
        <ele>2034.3</ele>
        <time>2022-07-14T11:31:01+0200</time>
      </trkpt>
      <trkpt lat="44.91625" lon="6.56842">
        <ele>2035</ele>
        <time>2022-07-14T11:31:05+0200</time>
      </trkpt>
      <trkpt lat="44.91623" lon="6.56836">
        <ele>2035.8</ele>
        <time>2022-07-14T11:31:08+0200</time>
      </trkpt>
      <trkpt lat="44.9162" lon="6.5683">
        <ele>2036.4</ele>
        <time>2022-07-14T11:31:11+0200</time>
      </trkpt>
      <trkpt lat="44.91617" lon="6.56822">
        <ele>2037.4</ele>
        <time>2022-07-14T11:31:15+0200</time>
      </trkpt>
      <trkpt lat="44.91614" lon="6.56816">
        <ele>2038.2</ele>
        <time>2022-07-14T11:31:18+0200</time>
      </trkpt>
      <trkpt lat="44.91612" lon="6.5681">
        <ele>2039.1</ele>
        <time>2022-07-14T11:31:21+0200</time>
      </trkpt>
      <trkpt lat="44.91605" lon="6.56807">
        <ele>2040</ele>
        <time>2022-07-14T11:31:30+0200</time>
      </trkpt>
      <trkpt lat="44.916" lon="6.56806">
        <ele>2040.3</ele>
        <time>2022-07-14T11:31:32+0200</time>
      </trkpt>
      <trkpt lat="44.91594" lon="6.56808">
        <ele>2040.1</ele>
        <time>2022-07-14T11:31:35+0200</time>
      </trkpt>
      <trkpt lat="44.91589" lon="6.5681">
        <ele>2039.9</ele>
        <time>2022-07-14T11:31:36+0200</time>
      </trkpt>
      <trkpt lat="44.91583" lon="6.56811">
        <ele>2039.9</ele>
        <time>2022-07-14T11:31:39+0200</time>
      </trkpt>
      <trkpt lat="44.91577" lon="6.5681">
        <ele>2040.5</ele>
        <time>2022-07-14T11:31:42+0200</time>
      </trkpt>
      <trkpt lat="44.91571" lon="6.5681">
        <ele>2040.9</ele>
        <time>2022-07-14T11:31:44+0200</time>
      </trkpt>
      <trkpt lat="44.91566" lon="6.56811">
        <ele>2041.3</ele>
        <time>2022-07-14T11:31:46+0200</time>
      </trkpt>
      <trkpt lat="44.91559" lon="6.56808">
        <ele>2042.3</ele>
        <time>2022-07-14T11:31:50+0200</time>
      </trkpt>
      <trkpt lat="44.91561" lon="6.56802">
        <ele>2043</ele>
        <time>2022-07-14T11:31:53+0200</time>
      </trkpt>
      <trkpt lat="44.91565" lon="6.56795">
        <ele>2043.7</ele>
        <time>2022-07-14T11:31:58+0200</time>
      </trkpt>
      <trkpt lat="44.9157" lon="6.56791">
        <ele>2044.1</ele>
        <time>2022-07-14T11:32:02+0200</time>
      </trkpt>
      <trkpt lat="44.91575" lon="6.56787">
        <ele>2044.6</ele>
        <time>2022-07-14T11:32:07+0200</time>
      </trkpt>
      <trkpt lat="44.9158" lon="6.56785">
        <ele>2044.8</ele>
        <time>2022-07-14T11:32:11+0200</time>
      </trkpt>
      <trkpt lat="44.91585" lon="6.56778">
        <ele>2045.9</ele>
        <time>2022-07-14T11:32:14+0200</time>
      </trkpt>
      <trkpt lat="44.9159" lon="6.56779">
        <ele>2046</ele>
        <time>2022-07-14T11:32:20+0200</time>
      </trkpt>
      <trkpt lat="44.91595" lon="6.56775">
        <ele>2047.1</ele>
        <time>2022-07-14T11:32:25+0200</time>
      </trkpt>
      <trkpt lat="44.91599" lon="6.56771">
        <ele>2048.3</ele>
        <time>2022-07-14T11:32:28+0200</time>
      </trkpt>
      <trkpt lat="44.91604" lon="6.56768">
        <ele>2049.5</ele>
        <time>2022-07-14T11:32:33+0200</time>
      </trkpt>
      <trkpt lat="44.9161" lon="6.56767">
        <ele>2050</ele>
        <time>2022-07-14T11:32:37+0200</time>
      </trkpt>
      <trkpt lat="44.91615" lon="6.56766">
        <ele>2050.9</ele>
        <time>2022-07-14T11:32:41+0200</time>
      </trkpt>
      <trkpt lat="44.91621" lon="6.56767">
        <ele>2051.5</ele>
        <time>2022-07-14T11:32:45+0200</time>
      </trkpt>
      <trkpt lat="44.91626" lon="6.56767">
        <ele>2052.2</ele>
        <time>2022-07-14T11:32:48+0200</time>
      </trkpt>
      <trkpt lat="44.9163" lon="6.5677">
        <ele>2052.1</ele>
        <time>2022-07-14T11:32:50+0200</time>
      </trkpt>
      <trkpt lat="44.91635" lon="6.56773">
        <ele>2052</ele>
        <time>2022-07-14T11:32:54+0200</time>
      </trkpt>
      <trkpt lat="44.91641" lon="6.56775">
        <ele>2052.2</ele>
        <time>2022-07-14T11:32:57+0200</time>
      </trkpt>
      <trkpt lat="44.91646" lon="6.56778">
        <ele>2052.5</ele>
        <time>2022-07-14T11:33:00+0200</time>
      </trkpt>
      <trkpt lat="44.91652" lon="6.56779">
        <ele>2053.6</ele>
        <time>2022-07-14T11:33:04+0200</time>
      </trkpt>
      <trkpt lat="44.91659" lon="6.56778">
        <ele>2055.2</ele>
        <time>2022-07-14T11:33:07+0200</time>
      </trkpt>
      <trkpt lat="44.91663" lon="6.56776">
        <ele>2056.7</ele>
        <time>2022-07-14T11:33:09+0200</time>
      </trkpt>
      <trkpt lat="44.9167" lon="6.56775">
        <ele>2058.1</ele>
        <time>2022-07-14T11:33:12+0200</time>
      </trkpt>
      <trkpt lat="44.91675" lon="6.56776">
        <ele>2058.8</ele>
        <time>2022-07-14T11:33:15+0200</time>
      </trkpt>
      <trkpt lat="44.91681" lon="6.56775">
        <ele>2060</ele>
        <time>2022-07-14T11:33:18+0200</time>
      </trkpt>
      <trkpt lat="44.91686" lon="6.56775">
        <ele>2060.4</ele>
        <time>2022-07-14T11:33:21+0200</time>
      </trkpt>
      <trkpt lat="44.91692" lon="6.56772">
        <ele>2062.2</ele>
        <time>2022-07-14T11:33:24+0200</time>
      </trkpt>
      <trkpt lat="44.91697" lon="6.56773">
        <ele>2063</ele>
        <time>2022-07-14T11:33:27+0200</time>
      </trkpt>
      <trkpt lat="44.91702" lon="6.56771">
        <ele>2064.5</ele>
        <time>2022-07-14T11:33:30+0200</time>
      </trkpt>
      <trkpt lat="44.91708" lon="6.56771">
        <ele>2065.9</ele>
        <time>2022-07-14T11:33:33+0200</time>
      </trkpt>
      <trkpt lat="44.91714" lon="6.56771">
        <ele>2067.2</ele>
        <time>2022-07-14T11:33:36+0200</time>
      </trkpt>
      <trkpt lat="44.91718" lon="6.56776">
        <ele>2066.5</ele>
        <time>2022-07-14T11:33:39+0200</time>
      </trkpt>
      <trkpt lat="44.91724" lon="6.56781">
        <ele>2066.7</ele>
        <time>2022-07-14T11:33:42+0200</time>
      </trkpt>
      <trkpt lat="44.91729" lon="6.56784">
        <ele>2067.1</ele>
        <time>2022-07-14T11:33:44+0200</time>
      </trkpt>
      <trkpt lat="44.91733" lon="6.56786">
        <ele>2067.6</ele>
        <time>2022-07-14T11:33:46+0200</time>
      </trkpt>
      <trkpt lat="44.91739" lon="6.56792">
        <ele>2067.5</ele>
        <time>2022-07-14T11:33:49+0200</time>
      </trkpt>
      <trkpt lat="44.91743" lon="6.56793">
        <ele>2068.2</ele>
        <time>2022-07-14T11:33:51+0200</time>
      </trkpt>
      <trkpt lat="44.91749" lon="6.56799">
        <ele>2068.1</ele>
        <time>2022-07-14T11:33:54+0200</time>
      </trkpt>
      <trkpt lat="44.91755" lon="6.56802">
        <ele>2068.8</ele>
        <time>2022-07-14T11:33:57+0200</time>
      </trkpt>
      <trkpt lat="44.9176" lon="6.56807">
        <ele>2069.3</ele>
        <time>2022-07-14T11:34:00+0200</time>
      </trkpt>
      <trkpt lat="44.91765" lon="6.56808">
        <ele>2070.3</ele>
        <time>2022-07-14T11:34:02+0200</time>
      </trkpt>
      <trkpt lat="44.9177" lon="6.56806">
        <ele>2071.9</ele>
        <time>2022-07-14T11:34:05+0200</time>
      </trkpt>
      <trkpt lat="44.91774" lon="6.56804">
        <ele>2073.5</ele>
        <time>2022-07-14T11:34:08+0200</time>
      </trkpt>
      <trkpt lat="44.91774" lon="6.56796">
        <ele>2075</ele>
        <time>2022-07-14T11:34:15+0200</time>
      </trkpt>
      <trkpt lat="44.91769" lon="6.56792">
        <ele>2074.9</ele>
        <time>2022-07-14T11:34:20+0200</time>
      </trkpt>
      <trkpt lat="44.91766" lon="6.56787">
        <ele>2075.1</ele>
        <time>2022-07-14T11:34:23+0200</time>
      </trkpt>
      <trkpt lat="44.91762" lon="6.56782">
        <ele>2074.9</ele>
        <time>2022-07-14T11:34:27+0200</time>
      </trkpt>
      <trkpt lat="44.91758" lon="6.56775">
        <ele>2075.8</ele>
        <time>2022-07-14T11:34:31+0200</time>
      </trkpt>
      <trkpt lat="44.91754" lon="6.5677">
        <ele>2076.3</ele>
        <time>2022-07-14T11:34:35+0200</time>
      </trkpt>
      <trkpt lat="44.9175" lon="6.56766">
        <ele>2076.5</ele>
        <time>2022-07-14T11:34:39+0200</time>
      </trkpt>
      <trkpt lat="44.91746" lon="6.56763">
        <ele>2076.4</ele>
        <time>2022-07-14T11:34:43+0200</time>
      </trkpt>
      <trkpt lat="44.91741" lon="6.56757">
        <ele>2077.2</ele>
        <time>2022-07-14T11:34:47+0200</time>
      </trkpt>
      <trkpt lat="44.91739" lon="6.56751">
        <ele>2078.2</ele>
        <time>2022-07-14T11:34:50+0200</time>
      </trkpt>
      <trkpt lat="44.91734" lon="6.56747">
        <ele>2078.7</ele>
        <time>2022-07-14T11:34:54+0200</time>
      </trkpt>
      <trkpt lat="44.9173" lon="6.56744">
        <ele>2079</ele>
        <time>2022-07-14T11:34:57+0200</time>
      </trkpt>
      <trkpt lat="44.91726" lon="6.56741">
        <ele>2079.2</ele>
        <time>2022-07-14T11:35:00+0200</time>
      </trkpt>
      <trkpt lat="44.91722" lon="6.56736">
        <ele>2080.1</ele>
        <time>2022-07-14T11:35:03+0200</time>
      </trkpt>
      <trkpt lat="44.91719" lon="6.56732">
        <ele>2080.8</ele>
        <time>2022-07-14T11:35:06+0200</time>
      </trkpt>
      <trkpt lat="44.91714" lon="6.5673">
        <ele>2080.4</ele>
        <time>2022-07-14T11:35:08+0200</time>
      </trkpt>
      <trkpt lat="44.91708" lon="6.56725">
        <ele>2080.8</ele>
        <time>2022-07-14T11:35:11+0200</time>
      </trkpt>
      <trkpt lat="44.91704" lon="6.56722">
        <ele>2081.1</ele>
        <time>2022-07-14T11:35:13+0200</time>
      </trkpt>
      <trkpt lat="44.917" lon="6.56717">
        <ele>2081.5</ele>
        <time>2022-07-14T11:35:15+0200</time>
      </trkpt>
      <trkpt lat="44.91695" lon="6.56714">
        <ele>2081.5</ele>
        <time>2022-07-14T11:35:17+0200</time>
      </trkpt>
      <trkpt lat="44.91691" lon="6.56711">
        <ele>2081.6</ele>
        <time>2022-07-14T11:35:19+0200</time>
      </trkpt>
      <trkpt lat="44.91688" lon="6.56705">
        <ele>2082.8</ele>
        <time>2022-07-14T11:35:21+0200</time>
      </trkpt>
      <trkpt lat="44.91685" lon="6.56699">
        <ele>2083.8</ele>
        <time>2022-07-14T11:35:24+0200</time>
      </trkpt>
      <trkpt lat="44.91681" lon="6.56695">
        <ele>2084.4</ele>
        <time>2022-07-14T11:35:27+0200</time>
      </trkpt>
      <trkpt lat="44.91677" lon="6.5669">
        <ele>2084.8</ele>
        <time>2022-07-14T11:35:30+0200</time>
      </trkpt>
      <trkpt lat="44.91674" lon="6.56685">
        <ele>2085.5</ele>
        <time>2022-07-14T11:35:33+0200</time>
      </trkpt>
      <trkpt lat="44.91671" lon="6.56679">
        <ele>2086.2</ele>
        <time>2022-07-14T11:35:36+0200</time>
      </trkpt>
      <trkpt lat="44.91667" lon="6.56673">
        <ele>2086.8</ele>
        <time>2022-07-14T11:35:39+0200</time>
      </trkpt>
      <trkpt lat="44.91665" lon="6.56666">
        <ele>2087.9</ele>
        <time>2022-07-14T11:35:42+0200</time>
      </trkpt>
      <trkpt lat="44.91662" lon="6.56661">
        <ele>2088.5</ele>
        <time>2022-07-14T11:35:45+0200</time>
      </trkpt>
      <trkpt lat="44.9166" lon="6.56654">
        <ele>2089.5</ele>
        <time>2022-07-14T11:35:47+0200</time>
      </trkpt>
      <trkpt lat="44.91658" lon="6.56648">
        <ele>2090.2</ele>
        <time>2022-07-14T11:35:50+0200</time>
      </trkpt>
      <trkpt lat="44.91656" lon="6.56641">
        <ele>2091.2</ele>
        <time>2022-07-14T11:35:53+0200</time>
      </trkpt>
      <trkpt lat="44.91654" lon="6.56633">
        <ele>2092.2</ele>
        <time>2022-07-14T11:35:56+0200</time>
      </trkpt>
      <trkpt lat="44.91653" lon="6.56626">
        <ele>2093.1</ele>
        <time>2022-07-14T11:35:59+0200</time>
      </trkpt>
      <trkpt lat="44.91651" lon="6.56619">
        <ele>2093.9</ele>
        <time>2022-07-14T11:36:02+0200</time>
      </trkpt>
      <trkpt lat="44.9165" lon="6.56611">
        <ele>2094.7</ele>
        <time>2022-07-14T11:36:05+0200</time>
      </trkpt>
      <trkpt lat="44.91647" lon="6.56604">
        <ele>2095.8</ele>
        <time>2022-07-14T11:36:08+0200</time>
      </trkpt>
      <trkpt lat="44.91645" lon="6.56598">
        <ele>2096.5</ele>
        <time>2022-07-14T11:36:11+0200</time>
      </trkpt>
      <trkpt lat="44.91645" lon="6.56591">
        <ele>2097.9</ele>
        <time>2022-07-14T11:36:14+0200</time>
      </trkpt>
      <trkpt lat="44.91641" lon="6.56586">
        <ele>2098.2</ele>
        <time>2022-07-14T11:36:19+0200</time>
      </trkpt>
      <trkpt lat="44.91638" lon="6.56581">
        <ele>2098.4</ele>
        <time>2022-07-14T11:36:22+0200</time>
      </trkpt>
      <trkpt lat="44.91635" lon="6.56576">
        <ele>2099</ele>
        <time>2022-07-14T11:36:25+0200</time>
      </trkpt>
      <trkpt lat="44.91629" lon="6.56571">
        <ele>2099.1</ele>
        <time>2022-07-14T11:36:29+0200</time>
      </trkpt>
      <trkpt lat="44.91625" lon="6.56566">
        <ele>2099.3</ele>
        <time>2022-07-14T11:36:35+0200</time>
      </trkpt>
      <trkpt lat="44.91622" lon="6.56561">
        <ele>2099.9</ele>
        <time>2022-07-14T11:36:38+0200</time>
      </trkpt>
      <trkpt lat="44.91616" lon="6.56559">
        <ele>2099.3</ele>
        <time>2022-07-14T11:36:42+0200</time>
      </trkpt>
      <trkpt lat="44.91611" lon="6.56557">
        <ele>2098.7</ele>
        <time>2022-07-14T11:36:46+0200</time>
      </trkpt>
      <trkpt lat="44.91605" lon="6.56552">
        <ele>2099.3</ele>
        <time>2022-07-14T11:36:49+0200</time>
      </trkpt>
      <trkpt lat="44.916" lon="6.56549">
        <ele>2099.9</ele>
        <time>2022-07-14T11:36:52+0200</time>
      </trkpt>
      <trkpt lat="44.91596" lon="6.56543">
        <ele>2101.2</ele>
        <time>2022-07-14T11:36:56+0200</time>
      </trkpt>
      <trkpt lat="44.91591" lon="6.5654">
        <ele>2101.6</ele>
        <time>2022-07-14T11:36:59+0200</time>
      </trkpt>
      <trkpt lat="44.91586" lon="6.56534">
        <ele>2102.7</ele>
        <time>2022-07-14T11:37:05+0200</time>
      </trkpt>
      <trkpt lat="44.91584" lon="6.56527">
        <ele>2104.4</ele>
        <time>2022-07-14T11:37:11+0200</time>
      </trkpt>
      <trkpt lat="44.91579" lon="6.56524">
        <ele>2104.9</ele>
        <time>2022-07-14T11:37:14+0200</time>
      </trkpt>
      <trkpt lat="44.91573" lon="6.56521">
        <ele>2105.8</ele>
        <time>2022-07-14T11:37:17+0200</time>
      </trkpt>
      <trkpt lat="44.9157" lon="6.56516">
        <ele>2107.2</ele>
        <time>2022-07-14T11:37:22+0200</time>
      </trkpt>
      <trkpt lat="44.91575" lon="6.56517">
        <ele>2107.1</ele>
        <time>2022-07-14T11:37:31+0200</time>
      </trkpt>
      <trkpt lat="44.9158" lon="6.56518">
        <ele>2107</ele>
        <time>2022-07-14T11:37:37+0200</time>
      </trkpt>
      <trkpt lat="44.91585" lon="6.56521">
        <ele>2106.2</ele>
        <time>2022-07-14T11:37:41+0200</time>
      </trkpt>
      <trkpt lat="44.91589" lon="6.56519">
        <ele>2107.8</ele>
        <time>2022-07-14T11:37:44+0200</time>
      </trkpt>
      <trkpt lat="44.91593" lon="6.56518">
        <ele>2108.8</ele>
        <time>2022-07-14T11:37:47+0200</time>
      </trkpt>
      <trkpt lat="44.91597" lon="6.56521">
        <ele>2108.3</ele>
        <time>2022-07-14T11:37:49+0200</time>
      </trkpt>
      <trkpt lat="44.91602" lon="6.56525">
        <ele>2107.5</ele>
        <time>2022-07-14T11:37:51+0200</time>
      </trkpt>
      <trkpt lat="44.91607" lon="6.56527">
        <ele>2107.7</ele>
        <time>2022-07-14T11:37:53+0200</time>
      </trkpt>
      <trkpt lat="44.91611" lon="6.56528">
        <ele>2108</ele>
        <time>2022-07-14T11:37:55+0200</time>
      </trkpt>
      <trkpt lat="44.91616" lon="6.56533">
        <ele>2107.5</ele>
        <time>2022-07-14T11:37:58+0200</time>
      </trkpt>
      <trkpt lat="44.91621" lon="6.56533">
        <ele>2108.4</ele>
        <time>2022-07-14T11:38:00+0200</time>
      </trkpt>
      <trkpt lat="44.91627" lon="6.56535">
        <ele>2109</ele>
        <time>2022-07-14T11:38:03+0200</time>
      </trkpt>
      <trkpt lat="44.91632" lon="6.56535">
        <ele>2110</ele>
        <time>2022-07-14T11:38:05+0200</time>
      </trkpt>
      <trkpt lat="44.91636" lon="6.56536">
        <ele>2110.7</ele>
        <time>2022-07-14T11:38:07+0200</time>
      </trkpt>
      <trkpt lat="44.91644" lon="6.56536">
        <ele>2112.7</ele>
        <time>2022-07-14T11:38:09+0200</time>
      </trkpt>
      <trkpt lat="44.9165" lon="6.56535">
        <ele>2114.7</ele>
        <time>2022-07-14T11:38:11+0200</time>
      </trkpt>
      <trkpt lat="44.91655" lon="6.56536">
        <ele>2115.5</ele>
        <time>2022-07-14T11:38:14+0200</time>
      </trkpt>
      <trkpt lat="44.91661" lon="6.56539">
        <ele>2116.4</ele>
        <time>2022-07-14T11:38:17+0200</time>
      </trkpt>
      <trkpt lat="44.91666" lon="6.56541">
        <ele>2117</ele>
        <time>2022-07-14T11:38:20+0200</time>
      </trkpt>
      <trkpt lat="44.9167" lon="6.56545">
        <ele>2116.9</ele>
        <time>2022-07-14T11:38:24+0200</time>
      </trkpt>
      <trkpt lat="44.91675" lon="6.56545">
        <ele>2118.7</ele>
        <time>2022-07-14T11:38:27+0200</time>
      </trkpt>
      <trkpt lat="44.91679" lon="6.56548">
        <ele>2119.5</ele>
        <time>2022-07-14T11:38:31+0200</time>
      </trkpt>
      <trkpt lat="44.91684" lon="6.56551">
        <ele>2120</ele>
        <time>2022-07-14T11:38:36+0200</time>
      </trkpt>
      <trkpt lat="44.91689" lon="6.56557">
        <ele>2120.1</ele>
        <time>2022-07-14T11:38:40+0200</time>
      </trkpt>
      <trkpt lat="44.91694" lon="6.56561">
        <ele>2120.6</ele>
        <time>2022-07-14T11:38:42+0200</time>
      </trkpt>
      <trkpt lat="44.91699" lon="6.56567">
        <ele>2121</ele>
        <time>2022-07-14T11:38:45+0200</time>
      </trkpt>
      <trkpt lat="44.91702" lon="6.56573">
        <ele>2120.4</ele>
        <time>2022-07-14T11:38:47+0200</time>
      </trkpt>
      <trkpt lat="44.91707" lon="6.56578">
        <ele>2121</ele>
        <time>2022-07-14T11:38:49+0200</time>
      </trkpt>
      <trkpt lat="44.91712" lon="6.56581">
        <ele>2122.1</ele>
        <time>2022-07-14T11:38:51+0200</time>
      </trkpt>
      <trkpt lat="44.91718" lon="6.56585">
        <ele>2123.1</ele>
        <time>2022-07-14T11:38:53+0200</time>
      </trkpt>
      <trkpt lat="44.91723" lon="6.56588">
        <ele>2123.6</ele>
        <time>2022-07-14T11:38:55+0200</time>
      </trkpt>
      <trkpt lat="44.91728" lon="6.56591">
        <ele>2124.5</ele>
        <time>2022-07-14T11:38:57+0200</time>
      </trkpt>
      <trkpt lat="44.91732" lon="6.56596">
        <ele>2124.7</ele>
        <time>2022-07-14T11:39:00+0200</time>
      </trkpt>
      <trkpt lat="44.91737" lon="6.566">
        <ele>2124.8</ele>
        <time>2022-07-14T11:39:02+0200</time>
      </trkpt>
      <trkpt lat="44.91741" lon="6.56604">
        <ele>2125.2</ele>
        <time>2022-07-14T11:39:04+0200</time>
      </trkpt>
      <trkpt lat="44.91747" lon="6.56608">
        <ele>2125.9</ele>
        <time>2022-07-14T11:39:07+0200</time>
      </trkpt>
      <trkpt lat="44.91752" lon="6.56611">
        <ele>2126.4</ele>
        <time>2022-07-14T11:39:09+0200</time>
      </trkpt>
      <trkpt lat="44.91754" lon="6.56616">
        <ele>2125.7</ele>
        <time>2022-07-14T11:39:12+0200</time>
      </trkpt>
      <trkpt lat="44.91759" lon="6.56619">
        <ele>2125.9</ele>
        <time>2022-07-14T11:39:15+0200</time>
      </trkpt>
      <trkpt lat="44.91764" lon="6.56622">
        <ele>2126.1</ele>
        <time>2022-07-14T11:39:18+0200</time>
      </trkpt>
      <trkpt lat="44.91769" lon="6.56624">
        <ele>2126.5</ele>
        <time>2022-07-14T11:39:20+0200</time>
      </trkpt>
      <trkpt lat="44.91775" lon="6.56624">
        <ele>2127.5</ele>
        <time>2022-07-14T11:39:23+0200</time>
      </trkpt>
      <trkpt lat="44.9178" lon="6.56626">
        <ele>2127.8</ele>
        <time>2022-07-14T11:39:26+0200</time>
      </trkpt>
      <trkpt lat="44.91786" lon="6.56623">
        <ele>2128.2</ele>
        <time>2022-07-14T11:39:29+0200</time>
      </trkpt>
      <trkpt lat="44.9179" lon="6.56618">
        <ele>2129</ele>
        <time>2022-07-14T11:39:31+0200</time>
      </trkpt>
      <trkpt lat="44.91795" lon="6.56614">
        <ele>2129.3</ele>
        <time>2022-07-14T11:39:33+0200</time>
      </trkpt>
      <trkpt lat="44.91798" lon="6.5661">
        <ele>2129.8</ele>
        <time>2022-07-14T11:39:36+0200</time>
      </trkpt>
      <trkpt lat="44.918" lon="6.56604">
        <ele>2130.4</ele>
        <time>2022-07-14T11:39:38+0200</time>
      </trkpt>
      <trkpt lat="44.91803" lon="6.56596">
        <ele>2131</ele>
        <time>2022-07-14T11:39:41+0200</time>
      </trkpt>
      <trkpt lat="44.91805" lon="6.5659">
        <ele>2131.5</ele>
        <time>2022-07-14T11:39:44+0200</time>
      </trkpt>
      <trkpt lat="44.91806" lon="6.56582">
        <ele>2131.8</ele>
        <time>2022-07-14T11:39:47+0200</time>
      </trkpt>
      <trkpt lat="44.91808" lon="6.56574">
        <ele>2132</ele>
        <time>2022-07-14T11:39:51+0200</time>
      </trkpt>
      <trkpt lat="44.91809" lon="6.56566">
        <ele>2132.7</ele>
        <time>2022-07-14T11:39:54+0200</time>
      </trkpt>
      <trkpt lat="44.91808" lon="6.56558">
        <ele>2133.7</ele>
        <time>2022-07-14T11:39:56+0200</time>
      </trkpt>
      <trkpt lat="44.91811" lon="6.56549">
        <ele>2133.7</ele>
        <time>2022-07-14T11:39:59+0200</time>
      </trkpt>
      <trkpt lat="44.9181" lon="6.56541">
        <ele>2134.5</ele>
        <time>2022-07-14T11:40:01+0200</time>
      </trkpt>
      <trkpt lat="44.91811" lon="6.56534">
        <ele>2134.6</ele>
        <time>2022-07-14T11:40:03+0200</time>
      </trkpt>
      <trkpt lat="44.91813" lon="6.56527">
        <ele>2134.7</ele>
        <time>2022-07-14T11:40:07+0200</time>
      </trkpt>
      <trkpt lat="44.91815" lon="6.56519">
        <ele>2134.9</ele>
        <time>2022-07-14T11:40:09+0200</time>
      </trkpt>
      <trkpt lat="44.91816" lon="6.56512">
        <ele>2135.3</ele>
        <time>2022-07-14T11:40:11+0200</time>
      </trkpt>
      <trkpt lat="44.91818" lon="6.56504">
        <ele>2135.6</ele>
        <time>2022-07-14T11:40:13+0200</time>
      </trkpt>
      <trkpt lat="44.91821" lon="6.56498">
        <ele>2135.4</ele>
        <time>2022-07-14T11:40:18+0200</time>
      </trkpt>
      <trkpt lat="44.91822" lon="6.56491">
        <ele>2135.7</ele>
        <time>2022-07-14T11:40:21+0200</time>
      </trkpt>
      <trkpt lat="44.91824" lon="6.56485">
        <ele>2135.6</ele>
        <time>2022-07-14T11:40:23+0200</time>
      </trkpt>
      <trkpt lat="44.91827" lon="6.56476">
        <ele>2135.7</ele>
        <time>2022-07-14T11:40:26+0200</time>
      </trkpt>
      <trkpt lat="44.9183" lon="6.56469">
        <ele>2135.6</ele>
        <time>2022-07-14T11:40:28+0200</time>
      </trkpt>
      <trkpt lat="44.91832" lon="6.56461">
        <ele>2135.6</ele>
        <time>2022-07-14T11:40:31+0200</time>
      </trkpt>
      <trkpt lat="44.91835" lon="6.56455">
        <ele>2135.3</ele>
        <time>2022-07-14T11:40:36+0200</time>
      </trkpt>
      <trkpt lat="44.91836" lon="6.56448">
        <ele>2135.8</ele>
        <time>2022-07-14T11:40:39+0200</time>
      </trkpt>
      <trkpt lat="44.91838" lon="6.56442">
        <ele>2135.9</ele>
        <time>2022-07-14T11:40:44+0200</time>
      </trkpt>
      <trkpt lat="44.9184" lon="6.56436">
        <ele>2136.2</ele>
        <time>2022-07-14T11:40:58+0200</time>
      </trkpt>
      <trkpt lat="44.91845" lon="6.56435">
        <ele>2134.8</ele>
        <time>2022-07-14T11:41:20+0200</time>
      </trkpt>
      <trkpt lat="44.91843" lon="6.5643">
        <ele>2136.3</ele>
        <time>2022-07-14T11:41:56+0200</time>
      </trkpt>
      <trkpt lat="44.91844" lon="6.56422">
        <ele>2136.7</ele>
        <time>2022-07-14T11:42:50+0200</time>
      </trkpt>
      <trkpt lat="44.91845" lon="6.56416">
        <ele>2137.4</ele>
        <time>2022-07-14T11:42:53+0200</time>
      </trkpt>
      <trkpt lat="44.91846" lon="6.56407">
        <ele>2138</ele>
        <time>2022-07-14T11:42:56+0200</time>
      </trkpt>
      <trkpt lat="44.91847" lon="6.564">
        <ele>2138.5</ele>
        <time>2022-07-14T11:42:58+0200</time>
      </trkpt>
      <trkpt lat="44.91849" lon="6.56393">
        <ele>2139.1</ele>
        <time>2022-07-14T11:43:00+0200</time>
      </trkpt>
      <trkpt lat="44.91852" lon="6.56387">
        <ele>2138.9</ele>
        <time>2022-07-14T11:43:03+0200</time>
      </trkpt>
      <trkpt lat="44.91856" lon="6.5638">
        <ele>2138.9</ele>
        <time>2022-07-14T11:43:06+0200</time>
      </trkpt>
      <trkpt lat="44.91856" lon="6.56374">
        <ele>2139.7</ele>
        <time>2022-07-14T11:43:08+0200</time>
      </trkpt>
      <trkpt lat="44.91856" lon="6.56365">
        <ele>2141.2</ele>
        <time>2022-07-14T11:43:10+0200</time>
      </trkpt>
      <trkpt lat="44.91855" lon="6.56355">
        <ele>2142.9</ele>
        <time>2022-07-14T11:43:12+0200</time>
      </trkpt>
      <trkpt lat="44.91858" lon="6.56346">
        <ele>2143.4</ele>
        <time>2022-07-14T11:43:15+0200</time>
      </trkpt>
      <trkpt lat="44.91859" lon="6.56338">
        <ele>2144.2</ele>
        <time>2022-07-14T11:43:17+0200</time>
      </trkpt>
      <trkpt lat="44.91862" lon="6.56327">
        <ele>2145</ele>
        <time>2022-07-14T11:43:20+0200</time>
      </trkpt>
      <trkpt lat="44.91864" lon="6.5632">
        <ele>2145.7</ele>
        <time>2022-07-14T11:43:23+0200</time>
      </trkpt>
      <trkpt lat="44.91866" lon="6.56312">
        <ele>2146.4</ele>
        <time>2022-07-14T11:43:26+0200</time>
      </trkpt>
      <trkpt lat="44.9187" lon="6.56307">
        <ele>2146.3</ele>
        <time>2022-07-14T11:43:34+0200</time>
      </trkpt>
      <trkpt lat="44.91871" lon="6.563">
        <ele>2146.9</ele>
        <time>2022-07-14T11:43:37+0200</time>
      </trkpt>
      <trkpt lat="44.91875" lon="6.56293">
        <ele>2147.1</ele>
        <time>2022-07-14T11:43:41+0200</time>
      </trkpt>
      <trkpt lat="44.91878" lon="6.56288">
        <ele>2147</ele>
        <time>2022-07-14T11:43:44+0200</time>
      </trkpt>
      <trkpt lat="44.91881" lon="6.56281">
        <ele>2147</ele>
        <time>2022-07-14T11:43:49+0200</time>
      </trkpt>
      <trkpt lat="44.91883" lon="6.56275">
        <ele>2147.3</ele>
        <time>2022-07-14T11:43:51+0200</time>
      </trkpt>
      <trkpt lat="44.91886" lon="6.56269">
        <ele>2147.6</ele>
        <time>2022-07-14T11:43:54+0200</time>
      </trkpt>
      <trkpt lat="44.91887" lon="6.56262">
        <ele>2148.4</ele>
        <time>2022-07-14T11:43:56+0200</time>
      </trkpt>
      <trkpt lat="44.91888" lon="6.56256">
        <ele>2149.3</ele>
        <time>2022-07-14T11:43:58+0200</time>
      </trkpt>
      <trkpt lat="44.91889" lon="6.56247">
        <ele>2150.4</ele>
        <time>2022-07-14T11:44:00+0200</time>
      </trkpt>
      <trkpt lat="44.91891" lon="6.56239">
        <ele>2150.9</ele>
        <time>2022-07-14T11:44:02+0200</time>
      </trkpt>
      <trkpt lat="44.91895" lon="6.56232">
        <ele>2150.7</ele>
        <time>2022-07-14T11:44:05+0200</time>
      </trkpt>
      <trkpt lat="44.91895" lon="6.56226">
        <ele>2151.5</ele>
        <time>2022-07-14T11:44:09+0200</time>
      </trkpt>
      <trkpt lat="44.91895" lon="6.56217">
        <ele>2152.6</ele>
        <time>2022-07-14T11:44:12+0200</time>
      </trkpt>
      <trkpt lat="44.91896" lon="6.5621">
        <ele>2153.2</ele>
        <time>2022-07-14T11:44:15+0200</time>
      </trkpt>
      <trkpt lat="44.91896" lon="6.56203">
        <ele>2154.3</ele>
        <time>2022-07-14T11:44:18+0200</time>
      </trkpt>
      <trkpt lat="44.91896" lon="6.56194">
        <ele>2155.3</ele>
        <time>2022-07-14T11:44:21+0200</time>
      </trkpt>
      <trkpt lat="44.91895" lon="6.56186">
        <ele>2156.2</ele>
        <time>2022-07-14T11:44:24+0200</time>
      </trkpt>
      <trkpt lat="44.91895" lon="6.5618">
        <ele>2156.8</ele>
        <time>2022-07-14T11:44:27+0200</time>
      </trkpt>
      <trkpt lat="44.91896" lon="6.56173">
        <ele>2156.9</ele>
        <time>2022-07-14T11:44:30+0200</time>
      </trkpt>
      <trkpt lat="44.91895" lon="6.56166">
        <ele>2157.5</ele>
        <time>2022-07-14T11:44:33+0200</time>
      </trkpt>
      <trkpt lat="44.91895" lon="6.56159">
        <ele>2157.9</ele>
        <time>2022-07-14T11:44:36+0200</time>
      </trkpt>
      <trkpt lat="44.91896" lon="6.56153">
        <ele>2158.1</ele>
        <time>2022-07-14T11:44:40+0200</time>
      </trkpt>
      <trkpt lat="44.91894" lon="6.56147">
        <ele>2159</ele>
        <time>2022-07-14T11:44:43+0200</time>
      </trkpt>
      <trkpt lat="44.91895" lon="6.56139">
        <ele>2159.2</ele>
        <time>2022-07-14T11:44:47+0200</time>
      </trkpt>
      <trkpt lat="44.91895" lon="6.5613">
        <ele>2159.6</ele>
        <time>2022-07-14T11:44:52+0200</time>
      </trkpt>
      <trkpt lat="44.91891" lon="6.56125">
        <ele>2161.5</ele>
        <time>2022-07-14T11:44:55+0200</time>
      </trkpt>
      <trkpt lat="44.91887" lon="6.56119">
        <ele>2163.6</ele>
        <time>2022-07-14T11:44:58+0200</time>
      </trkpt>
      <trkpt lat="44.91884" lon="6.56114">
        <ele>2165.2</ele>
        <time>2022-07-14T11:45:02+0200</time>
      </trkpt>
      <trkpt lat="44.91879" lon="6.56114">
        <ele>2167.8</ele>
        <time>2022-07-14T11:45:06+0200</time>
      </trkpt>
      <trkpt lat="44.91874" lon="6.56116">
        <ele>2170.3</ele>
        <time>2022-07-14T11:45:12+0200</time>
      </trkpt>
      <trkpt lat="44.91869" lon="6.56119">
        <ele>2172.4</ele>
        <time>2022-07-14T11:45:16+0200</time>
      </trkpt>
      <trkpt lat="44.91865" lon="6.56124">
        <ele>2174.2</ele>
        <time>2022-07-14T11:45:21+0200</time>
      </trkpt>
      <trkpt lat="44.91861" lon="6.56129">
        <ele>2175.6</ele>
        <time>2022-07-14T11:45:25+0200</time>
      </trkpt>
      <trkpt lat="44.91858" lon="6.56135">
        <ele>2176.6</ele>
        <time>2022-07-14T11:45:31+0200</time>
      </trkpt>
      <trkpt lat="44.91856" lon="6.56141">
        <ele>2177.2</ele>
        <time>2022-07-14T11:45:36+0200</time>
      </trkpt>
      <trkpt lat="44.91853" lon="6.56147">
        <ele>2178</ele>
        <time>2022-07-14T11:45:39+0200</time>
      </trkpt>
      <trkpt lat="44.9185" lon="6.56153">
        <ele>2178.4</ele>
        <time>2022-07-14T11:45:42+0200</time>
      </trkpt>
      <trkpt lat="44.91847" lon="6.56158">
        <ele>2179.5</ele>
        <time>2022-07-14T11:45:45+0200</time>
      </trkpt>
      <trkpt lat="44.91845" lon="6.56164">
        <ele>2179.7</ele>
        <time>2022-07-14T11:45:48+0200</time>
      </trkpt>
      <trkpt lat="44.91842" lon="6.56168">
        <ele>2180.8</ele>
        <time>2022-07-14T11:45:52+0200</time>
      </trkpt>
      <trkpt lat="44.91838" lon="6.56174">
        <ele>2181.8</ele>
        <time>2022-07-14T11:45:56+0200</time>
      </trkpt>
      <trkpt lat="44.91833" lon="6.56181">
        <ele>2182.5</ele>
        <time>2022-07-14T11:46:00+0200</time>
      </trkpt>
      <trkpt lat="44.91829" lon="6.56185">
        <ele>2183.5</ele>
        <time>2022-07-14T11:46:03+0200</time>
      </trkpt>
      <trkpt lat="44.91826" lon="6.56189">
        <ele>2183.9</ele>
        <time>2022-07-14T11:46:06+0200</time>
      </trkpt>
      <trkpt lat="44.91821" lon="6.56195">
        <ele>2185.4</ele>
        <time>2022-07-14T11:46:11+0200</time>
      </trkpt>
      <trkpt lat="44.91817" lon="6.56199">
        <ele>2186.4</ele>
        <time>2022-07-14T11:46:14+0200</time>
      </trkpt>
      <trkpt lat="44.91813" lon="6.56205">
        <ele>2186.8</ele>
        <time>2022-07-14T11:46:17+0200</time>
      </trkpt>
      <trkpt lat="44.9181" lon="6.56211">
        <ele>2187.2</ele>
        <time>2022-07-14T11:46:20+0200</time>
      </trkpt>
      <trkpt lat="44.91806" lon="6.56218">
        <ele>2187.5</ele>
        <time>2022-07-14T11:46:23+0200</time>
      </trkpt>
      <trkpt lat="44.91803" lon="6.56222">
        <ele>2188</ele>
        <time>2022-07-14T11:46:26+0200</time>
      </trkpt>
      <trkpt lat="44.91798" lon="6.56227">
        <ele>2189</ele>
        <time>2022-07-14T11:46:29+0200</time>
      </trkpt>
      <trkpt lat="44.91794" lon="6.56232">
        <ele>2189.6</ele>
        <time>2022-07-14T11:46:32+0200</time>
      </trkpt>
      <trkpt lat="44.9179" lon="6.5624">
        <ele>2189.3</ele>
        <time>2022-07-14T11:46:35+0200</time>
      </trkpt>
      <trkpt lat="44.91788" lon="6.56248">
        <ele>2188.5</ele>
        <time>2022-07-14T11:46:38+0200</time>
      </trkpt>
      <trkpt lat="44.91785" lon="6.56254">
        <ele>2188.6</ele>
        <time>2022-07-14T11:46:40+0200</time>
      </trkpt>
      <trkpt lat="44.91782" lon="6.5626">
        <ele>2188.3</ele>
        <time>2022-07-14T11:46:42+0200</time>
      </trkpt>
      <trkpt lat="44.91779" lon="6.56268">
        <ele>2188.3</ele>
        <time>2022-07-14T11:46:45+0200</time>
      </trkpt>
      <trkpt lat="44.91776" lon="6.56274">
        <ele>2188.5</ele>
        <time>2022-07-14T11:46:48+0200</time>
      </trkpt>
      <trkpt lat="44.91771" lon="6.56279">
        <ele>2189.3</ele>
        <time>2022-07-14T11:46:51+0200</time>
      </trkpt>
      <trkpt lat="44.91767" lon="6.56286">
        <ele>2189.8</ele>
        <time>2022-07-14T11:46:54+0200</time>
      </trkpt>
      <trkpt lat="44.91764" lon="6.56292">
        <ele>2190.2</ele>
        <time>2022-07-14T11:46:56+0200</time>
      </trkpt>
      <trkpt lat="44.91761" lon="6.56297">
        <ele>2190.9</ele>
        <time>2022-07-14T11:46:58+0200</time>
      </trkpt>
      <trkpt lat="44.91758" lon="6.56302">
        <ele>2191.8</ele>
        <time>2022-07-14T11:47:01+0200</time>
      </trkpt>
      <trkpt lat="44.91754" lon="6.56309">
        <ele>2192.6</ele>
        <time>2022-07-14T11:47:04+0200</time>
      </trkpt>
      <trkpt lat="44.91751" lon="6.56315">
        <ele>2193.1</ele>
        <time>2022-07-14T11:47:07+0200</time>
      </trkpt>
      <trkpt lat="44.91746" lon="6.56322">
        <ele>2193.1</ele>
        <time>2022-07-14T11:47:09+0200</time>
      </trkpt>
      <trkpt lat="44.91743" lon="6.56326">
        <ele>2193.2</ele>
        <time>2022-07-14T11:47:11+0200</time>
      </trkpt>
      <trkpt lat="44.91739" lon="6.56328">
        <ele>2193.8</ele>
        <time>2022-07-14T11:47:13+0200</time>
      </trkpt>
      <trkpt lat="44.91734" lon="6.56332">
        <ele>2194.2</ele>
        <time>2022-07-14T11:47:16+0200</time>
      </trkpt>
      <trkpt lat="44.91731" lon="6.56338">
        <ele>2194</ele>
        <time>2022-07-14T11:47:19+0200</time>
      </trkpt>
      <trkpt lat="44.91728" lon="6.56344">
        <ele>2193.6</ele>
        <time>2022-07-14T11:47:22+0200</time>
      </trkpt>
      <trkpt lat="44.91725" lon="6.56348">
        <ele>2193.6</ele>
        <time>2022-07-14T11:47:25+0200</time>
      </trkpt>
      <trkpt lat="44.9172" lon="6.56349">
        <ele>2194.1</ele>
        <time>2022-07-14T11:47:29+0200</time>
      </trkpt>
      <trkpt lat="44.91715" lon="6.56346">
        <ele>2194.6</ele>
        <time>2022-07-14T11:47:33+0200</time>
      </trkpt>
      <trkpt lat="44.9171" lon="6.56343">
        <ele>2195.1</ele>
        <time>2022-07-14T11:47:36+0200</time>
      </trkpt>
      <trkpt lat="44.91705" lon="6.56339">
        <ele>2195.9</ele>
        <time>2022-07-14T11:47:39+0200</time>
      </trkpt>
      <trkpt lat="44.91701" lon="6.56334">
        <ele>2196.8</ele>
        <time>2022-07-14T11:47:41+0200</time>
      </trkpt>
      <trkpt lat="44.91698" lon="6.56328">
        <ele>2197.9</ele>
        <time>2022-07-14T11:47:43+0200</time>
      </trkpt>
      <trkpt lat="44.91693" lon="6.56323">
        <ele>2198.7</ele>
        <time>2022-07-14T11:47:45+0200</time>
      </trkpt>
      <trkpt lat="44.91689" lon="6.56318">
        <ele>2198.7</ele>
        <time>2022-07-14T11:47:47+0200</time>
      </trkpt>
      <trkpt lat="44.91686" lon="6.56313">
        <ele>2199.3</ele>
        <time>2022-07-14T11:47:49+0200</time>
      </trkpt>
      <trkpt lat="44.91682" lon="6.56307">
        <ele>2199.9</ele>
        <time>2022-07-14T11:47:51+0200</time>
      </trkpt>
      <trkpt lat="44.91679" lon="6.56302">
        <ele>2200.5</ele>
        <time>2022-07-14T11:47:53+0200</time>
      </trkpt>
      <trkpt lat="44.91675" lon="6.56297">
        <ele>2200.9</ele>
        <time>2022-07-14T11:47:55+0200</time>
      </trkpt>
      <trkpt lat="44.9167" lon="6.56293">
        <ele>2201.2</ele>
        <time>2022-07-14T11:47:57+0200</time>
      </trkpt>
      <trkpt lat="44.91665" lon="6.56288">
        <ele>2201.5</ele>
        <time>2022-07-14T11:47:59+0200</time>
      </trkpt>
      <trkpt lat="44.9166" lon="6.56284">
        <ele>2201.8</ele>
        <time>2022-07-14T11:48:01+0200</time>
      </trkpt>
      <trkpt lat="44.91655" lon="6.5628">
        <ele>2201.8</ele>
        <time>2022-07-14T11:48:03+0200</time>
      </trkpt>
      <trkpt lat="44.9165" lon="6.56277">
        <ele>2201.7</ele>
        <time>2022-07-14T11:48:05+0200</time>
      </trkpt>
      <trkpt lat="44.91644" lon="6.56274">
        <ele>2201.5</ele>
        <time>2022-07-14T11:48:07+0200</time>
      </trkpt>
      <trkpt lat="44.91638" lon="6.56271">
        <ele>2201.5</ele>
        <time>2022-07-14T11:48:09+0200</time>
      </trkpt>
      <trkpt lat="44.91632" lon="6.56271">
        <ele>2201.6</ele>
        <time>2022-07-14T11:48:11+0200</time>
      </trkpt>
      <trkpt lat="44.91626" lon="6.56273">
        <ele>2201.1</ele>
        <time>2022-07-14T11:48:13+0200</time>
      </trkpt>
      <trkpt lat="44.91618" lon="6.56275">
        <ele>2200.7</ele>
        <time>2022-07-14T11:48:15+0200</time>
      </trkpt>
      <trkpt lat="44.91612" lon="6.56278">
        <ele>2200</ele>
        <time>2022-07-14T11:48:17+0200</time>
      </trkpt>
      <trkpt lat="44.91605" lon="6.56281">
        <ele>2199.7</ele>
        <time>2022-07-14T11:48:19+0200</time>
      </trkpt>
      <trkpt lat="44.91599" lon="6.56285">
        <ele>2199.3</ele>
        <time>2022-07-14T11:48:21+0200</time>
      </trkpt>
      <trkpt lat="44.91592" lon="6.56287">
        <ele>2199.4</ele>
        <time>2022-07-14T11:48:23+0200</time>
      </trkpt>
      <trkpt lat="44.91585" lon="6.5629">
        <ele>2199.1</ele>
        <time>2022-07-14T11:48:25+0200</time>
      </trkpt>
      <trkpt lat="44.9158" lon="6.56294">
        <ele>2198.7</ele>
        <time>2022-07-14T11:48:27+0200</time>
      </trkpt>
      <trkpt lat="44.91575" lon="6.56295">
        <ele>2199</ele>
        <time>2022-07-14T11:48:29+0200</time>
      </trkpt>
      <trkpt lat="44.91569" lon="6.56293">
        <ele>2200</ele>
        <time>2022-07-14T11:48:31+0200</time>
      </trkpt>
      <trkpt lat="44.91565" lon="6.56294">
        <ele>2200.1</ele>
        <time>2022-07-14T11:48:36+0200</time>
      </trkpt>
      <trkpt lat="44.9156" lon="6.56299">
        <ele>2199.3</ele>
        <time>2022-07-14T11:48:38+0200</time>
      </trkpt>
      <trkpt lat="44.91555" lon="6.563">
        <ele>2199.5</ele>
        <time>2022-07-14T11:48:41+0200</time>
      </trkpt>
      <trkpt lat="44.9155" lon="6.56303">
        <ele>2198.2</ele>
        <time>2022-07-14T11:48:45+0200</time>
      </trkpt>
      <trkpt lat="44.91545" lon="6.56308">
        <ele>2196.4</ele>
        <time>2022-07-14T11:49:43+0200</time>
      </trkpt>
      <trkpt lat="44.9154" lon="6.56307">
        <ele>2196.2</ele>
        <time>2022-07-14T11:49:45+0200</time>
      </trkpt>
      <trkpt lat="44.91534" lon="6.56307">
        <ele>2195.7</ele>
        <time>2022-07-14T11:49:47+0200</time>
      </trkpt>
      <trkpt lat="44.91527" lon="6.56305">
        <ele>2196.1</ele>
        <time>2022-07-14T11:49:49+0200</time>
      </trkpt>
      <trkpt lat="44.91519" lon="6.56299">
        <ele>2196.4</ele>
        <time>2022-07-14T11:49:51+0200</time>
      </trkpt>
      <trkpt lat="44.91513" lon="6.56296">
        <ele>2196.3</ele>
        <time>2022-07-14T11:49:52+0200</time>
      </trkpt>
      <trkpt lat="44.91509" lon="6.56293">
        <ele>2196.4</ele>
        <time>2022-07-14T11:49:53+0200</time>
      </trkpt>
      <trkpt lat="44.91503" lon="6.56291">
        <ele>2196.1</ele>
        <time>2022-07-14T11:49:54+0200</time>
      </trkpt>
      <trkpt lat="44.91495" lon="6.56289">
        <ele>2195.6</ele>
        <time>2022-07-14T11:49:55+0200</time>
      </trkpt>
      <trkpt lat="44.91488" lon="6.56287">
        <ele>2194.9</ele>
        <time>2022-07-14T11:49:56+0200</time>
      </trkpt>
      <trkpt lat="44.91482" lon="6.56284">
        <ele>2194.7</ele>
        <time>2022-07-14T11:49:57+0200</time>
      </trkpt>
      <trkpt lat="44.91475" lon="6.56281">
        <ele>2194.5</ele>
        <time>2022-07-14T11:49:58+0200</time>
      </trkpt>
      <trkpt lat="44.91469" lon="6.56278">
        <ele>2194.2</ele>
        <time>2022-07-14T11:49:59+0200</time>
      </trkpt>
      <trkpt lat="44.91463" lon="6.56275">
        <ele>2193.8</ele>
        <time>2022-07-14T11:50:00+0200</time>
      </trkpt>
      <trkpt lat="44.91459" lon="6.5627">
        <ele>2193.8</ele>
        <time>2022-07-14T11:50:01+0200</time>
      </trkpt>
      <trkpt lat="44.91454" lon="6.5626">
        <ele>2194.3</ele>
        <time>2022-07-14T11:50:03+0200</time>
      </trkpt>
      <trkpt lat="44.91449" lon="6.56255">
        <ele>2194</ele>
        <time>2022-07-14T11:50:04+0200</time>
      </trkpt>
      <trkpt lat="44.91442" lon="6.5625">
        <ele>2193.6</ele>
        <time>2022-07-14T11:50:05+0200</time>
      </trkpt>
      <trkpt lat="44.91433" lon="6.56244">
        <ele>2192.6</ele>
        <time>2022-07-14T11:50:06+0200</time>
      </trkpt>
      <trkpt lat="44.91424" lon="6.5624">
        <ele>2191.3</ele>
        <time>2022-07-14T11:50:07+0200</time>
      </trkpt>
      <trkpt lat="44.91413" lon="6.56239">
        <ele>2189.8</ele>
        <time>2022-07-14T11:50:08+0200</time>
      </trkpt>
      <trkpt lat="44.91403" lon="6.56242">
        <ele>2188.5</ele>
        <time>2022-07-14T11:50:09+0200</time>
      </trkpt>
      <trkpt lat="44.91395" lon="6.56244">
        <ele>2187.3</ele>
        <time>2022-07-14T11:50:10+0200</time>
      </trkpt>
      <trkpt lat="44.91385" lon="6.56242">
        <ele>2186.4</ele>
        <time>2022-07-14T11:50:11+0200</time>
      </trkpt>
      <trkpt lat="44.91376" lon="6.56236">
        <ele>2185.7</ele>
        <time>2022-07-14T11:50:12+0200</time>
      </trkpt>
      <trkpt lat="44.91367" lon="6.56231">
        <ele>2184.8</ele>
        <time>2022-07-14T11:50:13+0200</time>
      </trkpt>
      <trkpt lat="44.91358" lon="6.56228">
        <ele>2184</ele>
        <time>2022-07-14T11:50:14+0200</time>
      </trkpt>
      <trkpt lat="44.91351" lon="6.56225">
        <ele>2183.3</ele>
        <time>2022-07-14T11:50:15+0200</time>
      </trkpt>
      <trkpt lat="44.91346" lon="6.56223">
        <ele>2182.7</ele>
        <time>2022-07-14T11:50:16+0200</time>
      </trkpt>
      <trkpt lat="44.91341" lon="6.56225">
        <ele>2181.8</ele>
        <time>2022-07-14T11:50:17+0200</time>
      </trkpt>
      <trkpt lat="44.91337" lon="6.5623">
        <ele>2180.7</ele>
        <time>2022-07-14T11:50:18+0200</time>
      </trkpt>
      <trkpt lat="44.91335" lon="6.56238">
        <ele>2179.5</ele>
        <time>2022-07-14T11:50:19+0200</time>
      </trkpt>
      <trkpt lat="44.91334" lon="6.56248">
        <ele>2178.3</ele>
        <time>2022-07-14T11:50:20+0200</time>
      </trkpt>
      <trkpt lat="44.91334" lon="6.56257">
        <ele>2176.7</ele>
        <time>2022-07-14T11:50:21+0200</time>
      </trkpt>
      <trkpt lat="44.91331" lon="6.56266">
        <ele>2175.1</ele>
        <time>2022-07-14T11:50:23+0200</time>
      </trkpt>
      <trkpt lat="44.91325" lon="6.5627">
        <ele>2174.2</ele>
        <time>2022-07-14T11:50:25+0200</time>
      </trkpt>
      <trkpt lat="44.91317" lon="6.56278">
        <ele>2172.3</ele>
        <time>2022-07-14T11:50:27+0200</time>
      </trkpt>
      <trkpt lat="44.91312" lon="6.56284">
        <ele>2170.8</ele>
        <time>2022-07-14T11:50:28+0200</time>
      </trkpt>
      <trkpt lat="44.91306" lon="6.56289">
        <ele>2169.1</ele>
        <time>2022-07-14T11:50:29+0200</time>
      </trkpt>
      <trkpt lat="44.91298" lon="6.56294">
        <ele>2167.8</ele>
        <time>2022-07-14T11:50:30+0200</time>
      </trkpt>
      <trkpt lat="44.91289" lon="6.56297">
        <ele>2167.2</ele>
        <time>2022-07-14T11:50:31+0200</time>
      </trkpt>
      <trkpt lat="44.9128" lon="6.563">
        <ele>2166.3</ele>
        <time>2022-07-14T11:50:32+0200</time>
      </trkpt>
      <trkpt lat="44.91272" lon="6.56303">
        <ele>2165.9</ele>
        <time>2022-07-14T11:50:33+0200</time>
      </trkpt>
      <trkpt lat="44.91265" lon="6.56307">
        <ele>2165.1</ele>
        <time>2022-07-14T11:50:34+0200</time>
      </trkpt>
      <trkpt lat="44.91259" lon="6.56311">
        <ele>2164.2</ele>
        <time>2022-07-14T11:50:35+0200</time>
      </trkpt>
      <trkpt lat="44.91254" lon="6.56315">
        <ele>2163.4</ele>
        <time>2022-07-14T11:50:36+0200</time>
      </trkpt>
      <trkpt lat="44.91249" lon="6.5632">
        <ele>2162.4</ele>
        <time>2022-07-14T11:50:37+0200</time>
      </trkpt>
      <trkpt lat="44.91244" lon="6.56323">
        <ele>2161.4</ele>
        <time>2022-07-14T11:50:38+0200</time>
      </trkpt>
      <trkpt lat="44.9124" lon="6.56327">
        <ele>2160.3</ele>
        <time>2022-07-14T11:50:39+0200</time>
      </trkpt>
      <trkpt lat="44.91236" lon="6.56335">
        <ele>2158.2</ele>
        <time>2022-07-14T11:50:41+0200</time>
      </trkpt>
      <trkpt lat="44.91239" lon="6.56341">
        <ele>2156.5</ele>
        <time>2022-07-14T11:50:44+0200</time>
      </trkpt>
      <trkpt lat="44.91244" lon="6.56343">
        <ele>2155.8</ele>
        <time>2022-07-14T11:50:45+0200</time>
      </trkpt>
      <trkpt lat="44.91251" lon="6.56345">
        <ele>2155.2</ele>
        <time>2022-07-14T11:50:46+0200</time>
      </trkpt>
      <trkpt lat="44.91258" lon="6.56347">
        <ele>2154</ele>
        <time>2022-07-14T11:50:47+0200</time>
      </trkpt>
      <trkpt lat="44.91266" lon="6.5635">
        <ele>2152.9</ele>
        <time>2022-07-14T11:50:48+0200</time>
      </trkpt>
      <trkpt lat="44.91274" lon="6.56353">
        <ele>2151.4</ele>
        <time>2022-07-14T11:50:49+0200</time>
      </trkpt>
      <trkpt lat="44.91282" lon="6.56356">
        <ele>2150.4</ele>
        <time>2022-07-14T11:50:50+0200</time>
      </trkpt>
      <trkpt lat="44.91287" lon="6.5636">
        <ele>2149.4</ele>
        <time>2022-07-14T11:50:51+0200</time>
      </trkpt>
      <trkpt lat="44.91292" lon="6.56365">
        <ele>2148</ele>
        <time>2022-07-14T11:50:53+0200</time>
      </trkpt>
      <trkpt lat="44.91297" lon="6.56367">
        <ele>2147.2</ele>
        <time>2022-07-14T11:50:55+0200</time>
      </trkpt>
      <trkpt lat="44.91296" lon="6.56375">
        <ele>2144.8</ele>
        <time>2022-07-14T11:51:00+0200</time>
      </trkpt>
      <trkpt lat="44.91302" lon="6.56383">
        <ele>2142.2</ele>
        <time>2022-07-14T11:51:02+0200</time>
      </trkpt>
      <trkpt lat="44.91307" lon="6.56385">
        <ele>2141.4</ele>
        <time>2022-07-14T11:51:03+0200</time>
      </trkpt>
      <trkpt lat="44.91312" lon="6.56387">
        <ele>2140.8</ele>
        <time>2022-07-14T11:51:04+0200</time>
      </trkpt>
      <trkpt lat="44.9132" lon="6.56397">
        <ele>2137.5</ele>
        <time>2022-07-14T11:51:06+0200</time>
      </trkpt>
      <trkpt lat="44.91326" lon="6.56403">
        <ele>2135.5</ele>
        <time>2022-07-14T11:51:07+0200</time>
      </trkpt>
      <trkpt lat="44.91331" lon="6.5641">
        <ele>2133.4</ele>
        <time>2022-07-14T11:51:08+0200</time>
      </trkpt>
      <trkpt lat="44.91337" lon="6.56417">
        <ele>2131.4</ele>
        <time>2022-07-14T11:51:09+0200</time>
      </trkpt>
      <trkpt lat="44.91344" lon="6.56424">
        <ele>2129.8</ele>
        <time>2022-07-14T11:51:10+0200</time>
      </trkpt>
      <trkpt lat="44.91349" lon="6.56431">
        <ele>2128.2</ele>
        <time>2022-07-14T11:51:11+0200</time>
      </trkpt>
      <trkpt lat="44.91355" lon="6.56437">
        <ele>2127</ele>
        <time>2022-07-14T11:51:12+0200</time>
      </trkpt>
      <trkpt lat="44.91362" lon="6.56443">
        <ele>2125.8</ele>
        <time>2022-07-14T11:51:13+0200</time>
      </trkpt>
      <trkpt lat="44.91372" lon="6.56447">
        <ele>2125.9</ele>
        <time>2022-07-14T11:51:14+0200</time>
      </trkpt>
      <trkpt lat="44.91379" lon="6.56448">
        <ele>2126.4</ele>
        <time>2022-07-14T11:51:15+0200</time>
      </trkpt>
      <trkpt lat="44.91384" lon="6.56451">
        <ele>2126.3</ele>
        <time>2022-07-14T11:51:16+0200</time>
      </trkpt>
      <trkpt lat="44.91391" lon="6.56457">
        <ele>2125.3</ele>
        <time>2022-07-14T11:51:18+0200</time>
      </trkpt>
      <trkpt lat="44.91394" lon="6.56465">
        <ele>2123</ele>
        <time>2022-07-14T11:51:20+0200</time>
      </trkpt>
      <trkpt lat="44.91395" lon="6.56472">
        <ele>2120.8</ele>
        <time>2022-07-14T11:51:26+0200</time>
      </trkpt>
      <trkpt lat="44.91403" lon="6.56482">
        <ele>2118.4</ele>
        <time>2022-07-14T11:51:28+0200</time>
      </trkpt>
      <trkpt lat="44.91408" lon="6.56489">
        <ele>2116.8</ele>
        <time>2022-07-14T11:51:29+0200</time>
      </trkpt>
      <trkpt lat="44.91413" lon="6.56497">
        <ele>2114.7</ele>
        <time>2022-07-14T11:51:30+0200</time>
      </trkpt>
      <trkpt lat="44.91419" lon="6.56505">
        <ele>2112.7</ele>
        <time>2022-07-14T11:51:31+0200</time>
      </trkpt>
      <trkpt lat="44.91425" lon="6.56514">
        <ele>2110.4</ele>
        <time>2022-07-14T11:51:32+0200</time>
      </trkpt>
      <trkpt lat="44.91433" lon="6.56522">
        <ele>2108.3</ele>
        <time>2022-07-14T11:51:33+0200</time>
      </trkpt>
      <trkpt lat="44.91439" lon="6.56532">
        <ele>2105.6</ele>
        <time>2022-07-14T11:51:34+0200</time>
      </trkpt>
      <trkpt lat="44.91446" lon="6.5654">
        <ele>2103.5</ele>
        <time>2022-07-14T11:51:35+0200</time>
      </trkpt>
      <trkpt lat="44.91453" lon="6.56547">
        <ele>2101.6</ele>
        <time>2022-07-14T11:51:36+0200</time>
      </trkpt>
      <trkpt lat="44.9146" lon="6.56554">
        <ele>2099.4</ele>
        <time>2022-07-14T11:51:37+0200</time>
      </trkpt>
      <trkpt lat="44.91469" lon="6.56562">
        <ele>2096.9</ele>
        <time>2022-07-14T11:51:38+0200</time>
      </trkpt>
      <trkpt lat="44.91476" lon="6.56568">
        <ele>2094.8</ele>
        <time>2022-07-14T11:51:39+0200</time>
      </trkpt>
      <trkpt lat="44.91483" lon="6.56574">
        <ele>2092.6</ele>
        <time>2022-07-14T11:51:40+0200</time>
      </trkpt>
      <trkpt lat="44.91492" lon="6.56579">
        <ele>2090.6</ele>
        <time>2022-07-14T11:51:41+0200</time>
      </trkpt>
      <trkpt lat="44.91501" lon="6.56584">
        <ele>2088.9</ele>
        <time>2022-07-14T11:51:42+0200</time>
      </trkpt>
      <trkpt lat="44.91509" lon="6.56588">
        <ele>2087.3</ele>
        <time>2022-07-14T11:51:43+0200</time>
      </trkpt>
      <trkpt lat="44.91515" lon="6.56591">
        <ele>2086</ele>
        <time>2022-07-14T11:51:44+0200</time>
      </trkpt>
      <trkpt lat="44.91519" lon="6.56594">
        <ele>2084.9</ele>
        <time>2022-07-14T11:51:45+0200</time>
      </trkpt>
      <trkpt lat="44.91523" lon="6.566">
        <ele>2083.1</ele>
        <time>2022-07-14T11:51:46+0200</time>
      </trkpt>
      <trkpt lat="44.9153" lon="6.56605">
        <ele>2081.6</ele>
        <time>2022-07-14T11:51:47+0200</time>
      </trkpt>
      <trkpt lat="44.91537" lon="6.56609">
        <ele>2080.1</ele>
        <time>2022-07-14T11:51:48+0200</time>
      </trkpt>
      <trkpt lat="44.91544" lon="6.56613">
        <ele>2078.9</ele>
        <time>2022-07-14T11:51:49+0200</time>
      </trkpt>
      <trkpt lat="44.91552" lon="6.56614">
        <ele>2078.4</ele>
        <time>2022-07-14T11:51:50+0200</time>
      </trkpt>
      <trkpt lat="44.9156" lon="6.56614">
        <ele>2078.5</ele>
        <time>2022-07-14T11:51:51+0200</time>
      </trkpt>
      <trkpt lat="44.91566" lon="6.56618">
        <ele>2078</ele>
        <time>2022-07-14T11:51:52+0200</time>
      </trkpt>
      <trkpt lat="44.91572" lon="6.56623">
        <ele>2077.3</ele>
        <time>2022-07-14T11:51:54+0200</time>
      </trkpt>
      <trkpt lat="44.9157" lon="6.56633">
        <ele>2074.9</ele>
        <time>2022-07-14T11:51:56+0200</time>
      </trkpt>
      <trkpt lat="44.91568" lon="6.5664">
        <ele>2073.1</ele>
        <time>2022-07-14T11:51:57+0200</time>
      </trkpt>
      <trkpt lat="44.91567" lon="6.56649">
        <ele>2071.3</ele>
        <time>2022-07-14T11:51:58+0200</time>
      </trkpt>
      <trkpt lat="44.91566" lon="6.56656">
        <ele>2069.7</ele>
        <time>2022-07-14T11:51:59+0200</time>
      </trkpt>
      <trkpt lat="44.91564" lon="6.56662">
        <ele>2068.2</ele>
        <time>2022-07-14T11:52:01+0200</time>
      </trkpt>
      <trkpt lat="44.9157" lon="6.56666">
        <ele>2068.2</ele>
        <time>2022-07-14T11:52:03+0200</time>
      </trkpt>
      <trkpt lat="44.91576" lon="6.56674">
        <ele>2067.5</ele>
        <time>2022-07-14T11:52:04+0200</time>
      </trkpt>
      <trkpt lat="44.91576" lon="6.56687">
        <ele>2064.7</ele>
        <time>2022-07-14T11:52:05+0200</time>
      </trkpt>
      <trkpt lat="44.91576" lon="6.56695">
        <ele>2063.1</ele>
        <time>2022-07-14T11:52:06+0200</time>
      </trkpt>
      <trkpt lat="44.91572" lon="6.56705">
        <ele>2060.6</ele>
        <time>2022-07-14T11:52:08+0200</time>
      </trkpt>
      <trkpt lat="44.91568" lon="6.56713">
        <ele>2058.3</ele>
        <time>2022-07-14T11:52:10+0200</time>
      </trkpt>
      <trkpt lat="44.91564" lon="6.56719">
        <ele>2056.6</ele>
        <time>2022-07-14T11:52:11+0200</time>
      </trkpt>
      <trkpt lat="44.91557" lon="6.56726">
        <ele>2054.3</ele>
        <time>2022-07-14T11:52:12+0200</time>
      </trkpt>
      <trkpt lat="44.9155" lon="6.56737">
        <ele>2051.9</ele>
        <time>2022-07-14T11:52:13+0200</time>
      </trkpt>
      <trkpt lat="44.91545" lon="6.56748">
        <ele>2049.5</ele>
        <time>2022-07-14T11:52:14+0200</time>
      </trkpt>
      <trkpt lat="44.91541" lon="6.5676">
        <ele>2047.7</ele>
        <time>2022-07-14T11:52:15+0200</time>
      </trkpt>
      <trkpt lat="44.9154" lon="6.56771">
        <ele>2046.3</ele>
        <time>2022-07-14T11:52:16+0200</time>
      </trkpt>
      <trkpt lat="44.91536" lon="6.56776">
        <ele>2045.5</ele>
        <time>2022-07-14T11:52:17+0200</time>
      </trkpt>
      <trkpt lat="44.91532" lon="6.5678">
        <ele>2044.9</ele>
        <time>2022-07-14T11:52:18+0200</time>
      </trkpt>
      <trkpt lat="44.91528" lon="6.56784">
        <ele>2044.3</ele>
        <time>2022-07-14T11:52:19+0200</time>
      </trkpt>
      <trkpt lat="44.91523" lon="6.5679">
        <ele>2042.9</ele>
        <time>2022-07-14T11:52:21+0200</time>
      </trkpt>
      <trkpt lat="44.91519" lon="6.56797">
        <ele>2041.5</ele>
        <time>2022-07-14T11:52:23+0200</time>
      </trkpt>
      <trkpt lat="44.91515" lon="6.56806">
        <ele>2039.7</ele>
        <time>2022-07-14T11:52:25+0200</time>
      </trkpt>
      <trkpt lat="44.91512" lon="6.56811">
        <ele>2038.3</ele>
        <time>2022-07-14T11:52:26+0200</time>
      </trkpt>
      <trkpt lat="44.91508" lon="6.56816">
        <ele>2037</ele>
        <time>2022-07-14T11:52:27+0200</time>
      </trkpt>
      <trkpt lat="44.91504" lon="6.56821">
        <ele>2036</ele>
        <time>2022-07-14T11:52:28+0200</time>
      </trkpt>
      <trkpt lat="44.91506" lon="6.56829">
        <ele>2035.3</ele>
        <time>2022-07-14T11:52:30+0200</time>
      </trkpt>
      <trkpt lat="44.91509" lon="6.56837">
        <ele>2034.3</ele>
        <time>2022-07-14T11:52:33+0200</time>
      </trkpt>
      <trkpt lat="44.91508" lon="6.56846">
        <ele>2032.5</ele>
        <time>2022-07-14T11:52:35+0200</time>
      </trkpt>
      <trkpt lat="44.91507" lon="6.56857">
        <ele>2030.4</ele>
        <time>2022-07-14T11:52:37+0200</time>
      </trkpt>
      <trkpt lat="44.91505" lon="6.56863">
        <ele>2029.2</ele>
        <time>2022-07-14T11:52:38+0200</time>
      </trkpt>
      <trkpt lat="44.91507" lon="6.56877">
        <ele>2027.5</ele>
        <time>2022-07-14T11:52:39+0200</time>
      </trkpt>
      <trkpt lat="44.91509" lon="6.56892">
        <ele>2025.6</ele>
        <time>2022-07-14T11:52:40+0200</time>
      </trkpt>
      <trkpt lat="44.91513" lon="6.56904">
        <ele>2024.2</ele>
        <time>2022-07-14T11:52:41+0200</time>
      </trkpt>
      <trkpt lat="44.91516" lon="6.56914">
        <ele>2023.1</ele>
        <time>2022-07-14T11:52:42+0200</time>
      </trkpt>
      <trkpt lat="44.91517" lon="6.56921">
        <ele>2022.3</ele>
        <time>2022-07-14T11:52:43+0200</time>
      </trkpt>
      <trkpt lat="44.91517" lon="6.56928">
        <ele>2021.6</ele>
        <time>2022-07-14T11:52:44+0200</time>
      </trkpt>
      <trkpt lat="44.91516" lon="6.56935">
        <ele>2020.8</ele>
        <time>2022-07-14T11:52:45+0200</time>
      </trkpt>
      <trkpt lat="44.91513" lon="6.56947">
        <ele>2019.1</ele>
        <time>2022-07-14T11:52:47+0200</time>
      </trkpt>
      <trkpt lat="44.91509" lon="6.56954">
        <ele>2017.9</ele>
        <time>2022-07-14T11:52:48+0200</time>
      </trkpt>
      <trkpt lat="44.91504" lon="6.56961">
        <ele>2016.5</ele>
        <time>2022-07-14T11:52:49+0200</time>
      </trkpt>
      <trkpt lat="44.91502" lon="6.5697">
        <ele>2015.3</ele>
        <time>2022-07-14T11:52:50+0200</time>
      </trkpt>
      <trkpt lat="44.915" lon="6.56979">
        <ele>2014.1</ele>
        <time>2022-07-14T11:52:51+0200</time>
      </trkpt>
      <trkpt lat="44.91497" lon="6.56991">
        <ele>2012.4</ele>
        <time>2022-07-14T11:52:52+0200</time>
      </trkpt>
      <trkpt lat="44.91495" lon="6.57001">
        <ele>2011.1</ele>
        <time>2022-07-14T11:52:53+0200</time>
      </trkpt>
      <trkpt lat="44.91494" lon="6.57012">
        <ele>2010.2</ele>
        <time>2022-07-14T11:52:54+0200</time>
      </trkpt>
      <trkpt lat="44.91496" lon="6.57021">
        <ele>2009.2</ele>
        <time>2022-07-14T11:52:56+0200</time>
      </trkpt>
      <trkpt lat="44.91497" lon="6.57033">
        <ele>2007.9</ele>
        <time>2022-07-14T11:52:58+0200</time>
      </trkpt>
      <trkpt lat="44.91497" lon="6.57042">
        <ele>2007.1</ele>
        <time>2022-07-14T11:53:01+0200</time>
      </trkpt>
      <trkpt lat="44.915" lon="6.57049">
        <ele>2005.8</ele>
        <time>2022-07-14T11:53:03+0200</time>
      </trkpt>
      <trkpt lat="44.91504" lon="6.57052">
        <ele>2004.8</ele>
        <time>2022-07-14T11:53:04+0200</time>
      </trkpt>
      <trkpt lat="44.91507" lon="6.57056">
        <ele>2003.7</ele>
        <time>2022-07-14T11:53:05+0200</time>
      </trkpt>
      <trkpt lat="44.91512" lon="6.5706">
        <ele>2002.7</ele>
        <time>2022-07-14T11:53:06+0200</time>
      </trkpt>
      <trkpt lat="44.91517" lon="6.57063">
        <ele>2001.7</ele>
        <time>2022-07-14T11:53:07+0200</time>
      </trkpt>
      <trkpt lat="44.91521" lon="6.57067">
        <ele>2000.6</ele>
        <time>2022-07-14T11:53:08+0200</time>
      </trkpt>
      <trkpt lat="44.91526" lon="6.57073">
        <ele>1999.3</ele>
        <time>2022-07-14T11:53:09+0200</time>
      </trkpt>
      <trkpt lat="44.91529" lon="6.5708">
        <ele>1997.9</ele>
        <time>2022-07-14T11:53:10+0200</time>
      </trkpt>
      <trkpt lat="44.91532" lon="6.57086">
        <ele>1997</ele>
        <time>2022-07-14T11:53:11+0200</time>
      </trkpt>
      <trkpt lat="44.91535" lon="6.57093">
        <ele>1996.3</ele>
        <time>2022-07-14T11:53:12+0200</time>
      </trkpt>
      <trkpt lat="44.91538" lon="6.57101">
        <ele>1995.7</ele>
        <time>2022-07-14T11:53:13+0200</time>
      </trkpt>
      <trkpt lat="44.91541" lon="6.57109">
        <ele>1995.2</ele>
        <time>2022-07-14T11:53:14+0200</time>
      </trkpt>
      <trkpt lat="44.91542" lon="6.57117">
        <ele>1995.3</ele>
        <time>2022-07-14T11:53:15+0200</time>
      </trkpt>
      <trkpt lat="44.91543" lon="6.57124">
        <ele>1995.2</ele>
        <time>2022-07-14T11:53:16+0200</time>
      </trkpt>
      <trkpt lat="44.91545" lon="6.57132">
        <ele>1995.1</ele>
        <time>2022-07-14T11:53:17+0200</time>
      </trkpt>
      <trkpt lat="44.91546" lon="6.57141">
        <ele>1995.3</ele>
        <time>2022-07-14T11:53:18+0200</time>
      </trkpt>
      <trkpt lat="44.91545" lon="6.5715">
        <ele>1996.2</ele>
        <time>2022-07-14T11:53:19+0200</time>
      </trkpt>
      <trkpt lat="44.91546" lon="6.57158">
        <ele>1996.7</ele>
        <time>2022-07-14T11:53:20+0200</time>
      </trkpt>
      <trkpt lat="44.91547" lon="6.57167">
        <ele>1997</ele>
        <time>2022-07-14T11:53:21+0200</time>
      </trkpt>
      <trkpt lat="44.91548" lon="6.57175">
        <ele>1997.5</ele>
        <time>2022-07-14T11:53:22+0200</time>
      </trkpt>
      <trkpt lat="44.91549" lon="6.57183">
        <ele>1998.2</ele>
        <time>2022-07-14T11:53:23+0200</time>
      </trkpt>
      <trkpt lat="44.91548" lon="6.57196">
        <ele>1999.8</ele>
        <time>2022-07-14T11:53:25+0200</time>
      </trkpt>
      <trkpt lat="44.91547" lon="6.57203">
        <ele>2000.9</ele>
        <time>2022-07-14T11:53:26+0200</time>
      </trkpt>
      <trkpt lat="44.91548" lon="6.57211">
        <ele>2001.2</ele>
        <time>2022-07-14T11:53:27+0200</time>
      </trkpt>
      <trkpt lat="44.91547" lon="6.57219">
        <ele>2001.9</ele>
        <time>2022-07-14T11:53:28+0200</time>
      </trkpt>
      <trkpt lat="44.91547" lon="6.57227">
        <ele>2002.6</ele>
        <time>2022-07-14T11:53:29+0200</time>
      </trkpt>
      <trkpt lat="44.91548" lon="6.57235">
        <ele>2002.8</ele>
        <time>2022-07-14T11:53:30+0200</time>
      </trkpt>
      <trkpt lat="44.9155" lon="6.57242">
        <ele>2002.6</ele>
        <time>2022-07-14T11:53:31+0200</time>
      </trkpt>
      <trkpt lat="44.91551" lon="6.57253">
        <ele>2003.1</ele>
        <time>2022-07-14T11:53:33+0200</time>
      </trkpt>
      <trkpt lat="44.91551" lon="6.57261">
        <ele>2003.7</ele>
        <time>2022-07-14T11:53:34+0200</time>
      </trkpt>
      <trkpt lat="44.91553" lon="6.57269">
        <ele>2003.3</ele>
        <time>2022-07-14T11:53:38+0200</time>
      </trkpt>
      <trkpt lat="44.91554" lon="6.57276">
        <ele>2003.6</ele>
        <time>2022-07-14T11:53:40+0200</time>
      </trkpt>
      <trkpt lat="44.91558" lon="6.57283">
        <ele>2002.3</ele>
        <time>2022-07-14T11:53:42+0200</time>
      </trkpt>
      <trkpt lat="44.91565" lon="6.57289">
        <ele>2000.1</ele>
        <time>2022-07-14T11:53:44+0200</time>
      </trkpt>
      <trkpt lat="44.91572" lon="6.57297">
        <ele>1998.1</ele>
        <time>2022-07-14T11:53:46+0200</time>
      </trkpt>
      <trkpt lat="44.91579" lon="6.57306">
        <ele>1995.6</ele>
        <time>2022-07-14T11:53:48+0200</time>
      </trkpt>
      <trkpt lat="44.91583" lon="6.5731">
        <ele>1994.4</ele>
        <time>2022-07-14T11:53:49+0200</time>
      </trkpt>
      <trkpt lat="44.91588" lon="6.57318">
        <ele>1992.8</ele>
        <time>2022-07-14T11:53:51+0200</time>
      </trkpt>
      <trkpt lat="44.91592" lon="6.57322">
        <ele>1991.6</ele>
        <time>2022-07-14T11:53:52+0200</time>
      </trkpt>
      <trkpt lat="44.91596" lon="6.57326">
        <ele>1990.3</ele>
        <time>2022-07-14T11:53:53+0200</time>
      </trkpt>
      <trkpt lat="44.91601" lon="6.5733">
        <ele>1988.8</ele>
        <time>2022-07-14T11:53:54+0200</time>
      </trkpt>
      <trkpt lat="44.91605" lon="6.57335">
        <ele>1987.4</ele>
        <time>2022-07-14T11:53:55+0200</time>
      </trkpt>
      <trkpt lat="44.91609" lon="6.57339">
        <ele>1985.7</ele>
        <time>2022-07-14T11:53:56+0200</time>
      </trkpt>
      <trkpt lat="44.91614" lon="6.57344">
        <ele>1984</ele>
        <time>2022-07-14T11:53:57+0200</time>
      </trkpt>
      <trkpt lat="44.91617" lon="6.57349">
        <ele>1982.8</ele>
        <time>2022-07-14T11:53:58+0200</time>
      </trkpt>
      <trkpt lat="44.91623" lon="6.57356">
        <ele>1980.5</ele>
        <time>2022-07-14T11:54:00+0200</time>
      </trkpt>
      <trkpt lat="44.91628" lon="6.57363">
        <ele>1979</ele>
        <time>2022-07-14T11:54:02+0200</time>
      </trkpt>
      <trkpt lat="44.91635" lon="6.57366">
        <ele>1976.4</ele>
        <time>2022-07-14T11:54:04+0200</time>
      </trkpt>
      <trkpt lat="44.9164" lon="6.57367">
        <ele>1974.6</ele>
        <time>2022-07-14T11:54:06+0200</time>
      </trkpt>
      <trkpt lat="44.91645" lon="6.57375">
        <ele>1972.7</ele>
        <time>2022-07-14T11:54:08+0200</time>
      </trkpt>
      <trkpt lat="44.91652" lon="6.57381">
        <ele>1970.6</ele>
        <time>2022-07-14T11:54:10+0200</time>
      </trkpt>
      <trkpt lat="44.91658" lon="6.57387">
        <ele>1968.8</ele>
        <time>2022-07-14T11:54:12+0200</time>
      </trkpt>
      <trkpt lat="44.91663" lon="6.57389">
        <ele>1967.2</ele>
        <time>2022-07-14T11:54:13+0200</time>
      </trkpt>
      <trkpt lat="44.91668" lon="6.57392">
        <ele>1965.6</ele>
        <time>2022-07-14T11:54:14+0200</time>
      </trkpt>
      <trkpt lat="44.91672" lon="6.57396">
        <ele>1964.2</ele>
        <time>2022-07-14T11:54:15+0200</time>
      </trkpt>
      <trkpt lat="44.91679" lon="6.57401">
        <ele>1962.1</ele>
        <time>2022-07-14T11:54:17+0200</time>
      </trkpt>
      <trkpt lat="44.91684" lon="6.57403">
        <ele>1960.7</ele>
        <time>2022-07-14T11:54:18+0200</time>
      </trkpt>
      <trkpt lat="44.91689" lon="6.57406">
        <ele>1959.3</ele>
        <time>2022-07-14T11:54:19+0200</time>
      </trkpt>
      <trkpt lat="44.91695" lon="6.5741">
        <ele>1957.7</ele>
        <time>2022-07-14T11:54:20+0200</time>
      </trkpt>
      <trkpt lat="44.91698" lon="6.57416">
        <ele>1956.8</ele>
        <time>2022-07-14T11:54:22+0200</time>
      </trkpt>
      <trkpt lat="44.91703" lon="6.57419">
        <ele>1955</ele>
        <time>2022-07-14T11:54:24+0200</time>
      </trkpt>
      <trkpt lat="44.91708" lon="6.57422">
        <ele>1953.3</ele>
        <time>2022-07-14T11:54:28+0200</time>
      </trkpt>
      <trkpt lat="44.91713" lon="6.57428">
        <ele>1951.1</ele>
        <time>2022-07-14T11:54:30+0200</time>
      </trkpt>
      <trkpt lat="44.91718" lon="6.57432">
        <ele>1949.4</ele>
        <time>2022-07-14T11:54:33+0200</time>
      </trkpt>
      <trkpt lat="44.91721" lon="6.57437">
        <ele>1947.9</ele>
        <time>2022-07-14T11:54:38+0200</time>
      </trkpt>
      <trkpt lat="44.91715" lon="6.57439">
        <ele>1949.7</ele>
        <time>2022-07-14T11:55:09+0200</time>
      </trkpt>
      <trkpt lat="44.9171" lon="6.57445">
        <ele>1951</ele>
        <time>2022-07-14T11:55:11+0200</time>
      </trkpt>
      <trkpt lat="44.91707" lon="6.57452">
        <ele>1951.7</ele>
        <time>2022-07-14T11:55:13+0200</time>
      </trkpt>
      <trkpt lat="44.91703" lon="6.57459">
        <ele>1952.7</ele>
        <time>2022-07-14T11:55:15+0200</time>
      </trkpt>
      <trkpt lat="44.917" lon="6.57466">
        <ele>1953.2</ele>
        <time>2022-07-14T11:55:17+0200</time>
      </trkpt>
      <trkpt lat="44.91703" lon="6.57474">
        <ele>1951.8</ele>
        <time>2022-07-14T11:55:19+0200</time>
      </trkpt>
      <trkpt lat="44.91707" lon="6.57485">
        <ele>1950</ele>
        <time>2022-07-14T11:55:21+0200</time>
      </trkpt>
      <trkpt lat="44.91708" lon="6.57492">
        <ele>1949.4</ele>
        <time>2022-07-14T11:55:22+0200</time>
      </trkpt>
      <trkpt lat="44.91709" lon="6.57501">
        <ele>1948.9</ele>
        <time>2022-07-14T11:55:23+0200</time>
      </trkpt>
      <trkpt lat="44.91709" lon="6.57511">
        <ele>1948.8</ele>
        <time>2022-07-14T11:55:24+0200</time>
      </trkpt>
      <trkpt lat="44.9171" lon="6.57521">
        <ele>1948.6</ele>
        <time>2022-07-14T11:55:25+0200</time>
      </trkpt>
      <trkpt lat="44.91712" lon="6.57528">
        <ele>1948.1</ele>
        <time>2022-07-14T11:55:26+0200</time>
      </trkpt>
      <trkpt lat="44.9171" lon="6.57534">
        <ele>1948.8</ele>
        <time>2022-07-14T11:55:27+0200</time>
      </trkpt>
      <trkpt lat="44.91709" lon="6.57543">
        <ele>1949.3</ele>
        <time>2022-07-14T11:55:28+0200</time>
      </trkpt>
      <trkpt lat="44.91709" lon="6.57552">
        <ele>1949.3</ele>
        <time>2022-07-14T11:55:29+0200</time>
      </trkpt>
      <trkpt lat="44.9171" lon="6.57563">
        <ele>1948.6</ele>
        <time>2022-07-14T11:55:31+0200</time>
      </trkpt>
      <trkpt lat="44.91713" lon="6.57571">
        <ele>1947</ele>
        <time>2022-07-14T11:55:32+0200</time>
      </trkpt>
      <trkpt lat="44.91714" lon="6.57578">
        <ele>1946.3</ele>
        <time>2022-07-14T11:55:33+0200</time>
      </trkpt>
      <trkpt lat="44.91716" lon="6.57586">
        <ele>1944.8</ele>
        <time>2022-07-14T11:55:34+0200</time>
      </trkpt>
      <trkpt lat="44.91717" lon="6.57593">
        <ele>1944.1</ele>
        <time>2022-07-14T11:55:35+0200</time>
      </trkpt>
      <trkpt lat="44.91719" lon="6.57602">
        <ele>1943.2</ele>
        <time>2022-07-14T11:55:36+0200</time>
      </trkpt>
      <trkpt lat="44.9172" lon="6.5761">
        <ele>1942.3</ele>
        <time>2022-07-14T11:55:37+0200</time>
      </trkpt>
      <trkpt lat="44.91721" lon="6.57619">
        <ele>1941.5</ele>
        <time>2022-07-14T11:55:38+0200</time>
      </trkpt>
      <trkpt lat="44.91723" lon="6.57628">
        <ele>1939.9</ele>
        <time>2022-07-14T11:55:39+0200</time>
      </trkpt>
      <trkpt lat="44.91725" lon="6.57636">
        <ele>1938.6</ele>
        <time>2022-07-14T11:55:40+0200</time>
      </trkpt>
      <trkpt lat="44.91728" lon="6.57645">
        <ele>1937.1</ele>
        <time>2022-07-14T11:55:41+0200</time>
      </trkpt>
      <trkpt lat="44.9173" lon="6.57656">
        <ele>1935.3</ele>
        <time>2022-07-14T11:55:42+0200</time>
      </trkpt>
      <trkpt lat="44.91732" lon="6.57662">
        <ele>1934</ele>
        <time>2022-07-14T11:55:43+0200</time>
      </trkpt>
      <trkpt lat="44.91734" lon="6.57668">
        <ele>1932.9</ele>
        <time>2022-07-14T11:55:44+0200</time>
      </trkpt>
      <trkpt lat="44.91737" lon="6.5768">
        <ele>1930.7</ele>
        <time>2022-07-14T11:55:46+0200</time>
      </trkpt>
      <trkpt lat="44.91738" lon="6.57688">
        <ele>1929.3</ele>
        <time>2022-07-14T11:55:47+0200</time>
      </trkpt>
      <trkpt lat="44.91742" lon="6.57695">
        <ele>1927.1</ele>
        <time>2022-07-14T11:55:48+0200</time>
      </trkpt>
      <trkpt lat="44.91747" lon="6.57704">
        <ele>1924.3</ele>
        <time>2022-07-14T11:55:50+0200</time>
      </trkpt>
      <trkpt lat="44.91752" lon="6.57712">
        <ele>1921.5</ele>
        <time>2022-07-14T11:55:52+0200</time>
      </trkpt>
      <trkpt lat="44.91757" lon="6.57719">
        <ele>1919.2</ele>
        <time>2022-07-14T11:55:54+0200</time>
      </trkpt>
      <trkpt lat="44.91764" lon="6.57728">
        <ele>1916.2</ele>
        <time>2022-07-14T11:55:56+0200</time>
      </trkpt>
      <trkpt lat="44.91768" lon="6.57732">
        <ele>1914.8</ele>
        <time>2022-07-14T11:55:57+0200</time>
      </trkpt>
      <trkpt lat="44.91775" lon="6.57738">
        <ele>1912.4</ele>
        <time>2022-07-14T11:55:58+0200</time>
      </trkpt>
      <trkpt lat="44.91781" lon="6.57743">
        <ele>1910.2</ele>
        <time>2022-07-14T11:55:59+0200</time>
      </trkpt>
      <trkpt lat="44.91789" lon="6.57742">
        <ele>1907</ele>
        <time>2022-07-14T11:56:01+0200</time>
      </trkpt>
      <trkpt lat="44.91792" lon="6.57734">
        <ele>1905.5</ele>
        <time>2022-07-14T11:56:03+0200</time>
      </trkpt>
      <trkpt lat="44.91791" lon="6.57725">
        <ele>1905.3</ele>
        <time>2022-07-14T11:56:05+0200</time>
      </trkpt>
      <trkpt lat="44.91794" lon="6.57719">
        <ele>1904.1</ele>
        <time>2022-07-14T11:56:08+0200</time>
      </trkpt>
      <trkpt lat="44.918" lon="6.57717">
        <ele>1902.3</ele>
        <time>2022-07-14T11:56:11+0200</time>
      </trkpt>
      <trkpt lat="44.91806" lon="6.57717">
        <ele>1899.9</ele>
        <time>2022-07-14T11:56:14+0200</time>
      </trkpt>
      <trkpt lat="44.91813" lon="6.57719">
        <ele>1897.5</ele>
        <time>2022-07-14T11:56:17+0200</time>
      </trkpt>
      <trkpt lat="44.91817" lon="6.57723">
        <ele>1896</ele>
        <time>2022-07-14T11:56:20+0200</time>
      </trkpt>
      <trkpt lat="44.91823" lon="6.57728">
        <ele>1893.8</ele>
        <time>2022-07-14T11:56:23+0200</time>
      </trkpt>
      <trkpt lat="44.91825" lon="6.57734">
        <ele>1892.7</ele>
        <time>2022-07-14T11:56:25+0200</time>
      </trkpt>
      <trkpt lat="44.91827" lon="6.57742">
        <ele>1891.7</ele>
        <time>2022-07-14T11:56:27+0200</time>
      </trkpt>
      <trkpt lat="44.91829" lon="6.57751">
        <ele>1890.9</ele>
        <time>2022-07-14T11:56:29+0200</time>
      </trkpt>
      <trkpt lat="44.9183" lon="6.57761">
        <ele>1889.9</ele>
        <time>2022-07-14T11:56:31+0200</time>
      </trkpt>
      <trkpt lat="44.9183" lon="6.5777">
        <ele>1889.3</ele>
        <time>2022-07-14T11:56:33+0200</time>
      </trkpt>
      <trkpt lat="44.91829" lon="6.57779">
        <ele>1889.1</ele>
        <time>2022-07-14T11:56:34+0200</time>
      </trkpt>
      <trkpt lat="44.91829" lon="6.57787">
        <ele>1888.3</ele>
        <time>2022-07-14T11:56:35+0200</time>
      </trkpt>
      <trkpt lat="44.91828" lon="6.57797">
        <ele>1887.6</ele>
        <time>2022-07-14T11:56:36+0200</time>
      </trkpt>
      <trkpt lat="44.91828" lon="6.57806">
        <ele>1886.6</ele>
        <time>2022-07-14T11:56:37+0200</time>
      </trkpt>
      <trkpt lat="44.91827" lon="6.57815">
        <ele>1886.2</ele>
        <time>2022-07-14T11:56:38+0200</time>
      </trkpt>
      <trkpt lat="44.91825" lon="6.57827">
        <ele>1885.6</ele>
        <time>2022-07-14T11:56:39+0200</time>
      </trkpt>
      <trkpt lat="44.91823" lon="6.57836">
        <ele>1886.5</ele>
        <time>2022-07-14T11:56:40+0200</time>
      </trkpt>
      <trkpt lat="44.91822" lon="6.5785">
        <ele>1885.7</ele>
        <time>2022-07-14T11:56:41+0200</time>
      </trkpt>
      <trkpt lat="44.91823" lon="6.57866">
        <ele>1883.9</ele>
        <time>2022-07-14T11:56:42+0200</time>
      </trkpt>
      <trkpt lat="44.91825" lon="6.57881">
        <ele>1881.8</ele>
        <time>2022-07-14T11:56:43+0200</time>
      </trkpt>
      <trkpt lat="44.9183" lon="6.57895">
        <ele>1878.3</ele>
        <time>2022-07-14T11:56:44+0200</time>
      </trkpt>
      <trkpt lat="44.91833" lon="6.57913">
        <ele>1875.4</ele>
        <time>2022-07-14T11:56:45+0200</time>
      </trkpt>
      <trkpt lat="44.91836" lon="6.57928">
        <ele>1874.3</ele>
        <time>2022-07-14T11:56:46+0200</time>
      </trkpt>
      <trkpt lat="44.91838" lon="6.57945">
        <ele>1873.8</ele>
        <time>2022-07-14T11:56:47+0200</time>
      </trkpt>
      <trkpt lat="44.91841" lon="6.57962">
        <ele>1873.4</ele>
        <time>2022-07-14T11:56:48+0200</time>
      </trkpt>
      <trkpt lat="44.91842" lon="6.57978">
        <ele>1872.8</ele>
        <time>2022-07-14T11:56:49+0200</time>
      </trkpt>
      <trkpt lat="44.91842" lon="6.57993">
        <ele>1872.8</ele>
        <time>2022-07-14T11:56:50+0200</time>
      </trkpt>
      <trkpt lat="44.91841" lon="6.58009">
        <ele>1872.5</ele>
        <time>2022-07-14T11:56:51+0200</time>
      </trkpt>
      <trkpt lat="44.91842" lon="6.58021">
        <ele>1871</ele>
        <time>2022-07-14T11:56:52+0200</time>
      </trkpt>
      <trkpt lat="44.91843" lon="6.58033">
        <ele>1870</ele>
        <time>2022-07-14T11:56:53+0200</time>
      </trkpt>
      <trkpt lat="44.91845" lon="6.58046">
        <ele>1868.3</ele>
        <time>2022-07-14T11:56:54+0200</time>
      </trkpt>
      <trkpt lat="44.91849" lon="6.58058">
        <ele>1866.4</ele>
        <time>2022-07-14T11:56:55+0200</time>
      </trkpt>
      <trkpt lat="44.91854" lon="6.58067">
        <ele>1865.1</ele>
        <time>2022-07-14T11:56:56+0200</time>
      </trkpt>
      <trkpt lat="44.91859" lon="6.58073">
        <ele>1863.4</ele>
        <time>2022-07-14T11:56:57+0200</time>
      </trkpt>
      <trkpt lat="44.91866" lon="6.58076">
        <ele>1861.7</ele>
        <time>2022-07-14T11:56:58+0200</time>
      </trkpt>
      <trkpt lat="44.91871" lon="6.58075">
        <ele>1860.5</ele>
        <time>2022-07-14T11:56:59+0200</time>
      </trkpt>
      <trkpt lat="44.91876" lon="6.58074">
        <ele>1859.6</ele>
        <time>2022-07-14T11:57:00+0200</time>
      </trkpt>
      <trkpt lat="44.91883" lon="6.58067">
        <ele>1858.3</ele>
        <time>2022-07-14T11:57:02+0200</time>
      </trkpt>
      <trkpt lat="44.91887" lon="6.58061">
        <ele>1858</ele>
        <time>2022-07-14T11:57:03+0200</time>
      </trkpt>
      <trkpt lat="44.91891" lon="6.58051">
        <ele>1857.8</ele>
        <time>2022-07-14T11:57:04+0200</time>
      </trkpt>
      <trkpt lat="44.91895" lon="6.58041">
        <ele>1857.6</ele>
        <time>2022-07-14T11:57:05+0200</time>
      </trkpt>
      <trkpt lat="44.91898" lon="6.5803">
        <ele>1857.5</ele>
        <time>2022-07-14T11:57:06+0200</time>
      </trkpt>
      <trkpt lat="44.91903" lon="6.5802">
        <ele>1857.2</ele>
        <time>2022-07-14T11:57:07+0200</time>
      </trkpt>
      <trkpt lat="44.91907" lon="6.58009">
        <ele>1856.8</ele>
        <time>2022-07-14T11:57:08+0200</time>
      </trkpt>
      <trkpt lat="44.91912" lon="6.57999">
        <ele>1856.5</ele>
        <time>2022-07-14T11:57:09+0200</time>
      </trkpt>
      <trkpt lat="44.91919" lon="6.57989">
        <ele>1855.7</ele>
        <time>2022-07-14T11:57:10+0200</time>
      </trkpt>
      <trkpt lat="44.91924" lon="6.57978">
        <ele>1855</ele>
        <time>2022-07-14T11:57:11+0200</time>
      </trkpt>
      <trkpt lat="44.91929" lon="6.57967">
        <ele>1854.4</ele>
        <time>2022-07-14T11:57:12+0200</time>
      </trkpt>
      <trkpt lat="44.91932" lon="6.57955">
        <ele>1854.1</ele>
        <time>2022-07-14T11:57:13+0200</time>
      </trkpt>
      <trkpt lat="44.91935" lon="6.57943">
        <ele>1854</ele>
        <time>2022-07-14T11:57:14+0200</time>
      </trkpt>
      <trkpt lat="44.91938" lon="6.57931">
        <ele>1853.7</ele>
        <time>2022-07-14T11:57:15+0200</time>
      </trkpt>
      <trkpt lat="44.91939" lon="6.57921">
        <ele>1853.6</ele>
        <time>2022-07-14T11:57:16+0200</time>
      </trkpt>
      <trkpt lat="44.91942" lon="6.57915">
        <ele>1853.4</ele>
        <time>2022-07-14T11:57:17+0200</time>
      </trkpt>
      <trkpt lat="44.91948" lon="6.57918">
        <ele>1852.5</ele>
        <time>2022-07-14T11:57:19+0200</time>
      </trkpt>
      <trkpt lat="44.91953" lon="6.57925">
        <ele>1851.7</ele>
        <time>2022-07-14T11:57:21+0200</time>
      </trkpt>
      <trkpt lat="44.91953" lon="6.57934">
        <ele>1851.6</ele>
        <time>2022-07-14T11:57:22+0200</time>
      </trkpt>
      <trkpt lat="44.9195" lon="6.57941">
        <ele>1852.1</ele>
        <time>2022-07-14T11:57:24+0200</time>
      </trkpt>
      <trkpt lat="44.91956" lon="6.57944">
        <ele>1850.9</ele>
        <time>2022-07-14T11:57:28+0200</time>
      </trkpt>
      <trkpt lat="44.91958" lon="6.57951">
        <ele>1850.3</ele>
        <time>2022-07-14T11:57:30+0200</time>
      </trkpt>
      <trkpt lat="44.91961" lon="6.57958">
        <ele>1849.6</ele>
        <time>2022-07-14T11:57:32+0200</time>
      </trkpt>
      <trkpt lat="44.91965" lon="6.57964">
        <ele>1848.6</ele>
        <time>2022-07-14T11:57:34+0200</time>
      </trkpt>
      <trkpt lat="44.91967" lon="6.57971">
        <ele>1848</ele>
        <time>2022-07-14T11:57:36+0200</time>
      </trkpt>
      <trkpt lat="44.91971" lon="6.57981">
        <ele>1846.7</ele>
        <time>2022-07-14T11:57:38+0200</time>
      </trkpt>
      <trkpt lat="44.91975" lon="6.57985">
        <ele>1845.3</ele>
        <time>2022-07-14T11:57:40+0200</time>
      </trkpt>
      <trkpt lat="44.91979" lon="6.57991">
        <ele>1843.9</ele>
        <time>2022-07-14T11:57:45+0200</time>
      </trkpt>
      <trkpt lat="44.91985" lon="6.57997">
        <ele>1841.7</ele>
        <time>2022-07-14T11:57:47+0200</time>
      </trkpt>
      <trkpt lat="44.91989" lon="6.58002">
        <ele>1840.2</ele>
        <time>2022-07-14T11:57:50+0200</time>
      </trkpt>
      <trkpt lat="44.91984" lon="6.57999">
        <ele>1841.6</ele>
        <time>2022-07-14T11:58:04+0200</time>
      </trkpt>
      <trkpt lat="44.91985" lon="6.57993">
        <ele>1841.8</ele>
        <time>2022-07-14T11:58:21+0200</time>
      </trkpt>
      <trkpt lat="44.91984" lon="6.57986">
        <ele>1842.6</ele>
        <time>2022-07-14T11:58:25+0200</time>
      </trkpt>
      <trkpt lat="44.91982" lon="6.57979">
        <ele>1843.7</ele>
        <time>2022-07-14T11:58:29+0200</time>
      </trkpt>
      <trkpt lat="44.91981" lon="6.57971">
        <ele>1844.6</ele>
        <time>2022-07-14T11:58:34+0200</time>
      </trkpt>
      <trkpt lat="44.91978" lon="6.57965">
        <ele>1845.6</ele>
        <time>2022-07-14T11:58:38+0200</time>
      </trkpt>
      <trkpt lat="44.91976" lon="6.57958">
        <ele>1846.4</ele>
        <time>2022-07-14T11:58:43+0200</time>
      </trkpt>
      <trkpt lat="44.91972" lon="6.57953">
        <ele>1847.8</ele>
        <time>2022-07-14T11:58:46+0200</time>
      </trkpt>
      <trkpt lat="44.91971" lon="6.57946">
        <ele>1848.2</ele>
        <time>2022-07-14T11:58:51+0200</time>
      </trkpt>
      <trkpt lat="44.9197" lon="6.57939">
        <ele>1848.7</ele>
        <time>2022-07-14T11:58:56+0200</time>
      </trkpt>
      <trkpt lat="44.91968" lon="6.57932">
        <ele>1849.1</ele>
        <time>2022-07-14T11:59:00+0200</time>
      </trkpt>
      <trkpt lat="44.91967" lon="6.57926">
        <ele>1849.6</ele>
        <time>2022-07-14T11:59:03+0200</time>
      </trkpt>
      <trkpt lat="44.91962" lon="6.57924">
        <ele>1850.3</ele>
        <time>2022-07-14T11:59:07+0200</time>
      </trkpt>
      <trkpt lat="44.9196" lon="6.57933">
        <ele>1850.4</ele>
        <time>2022-07-14T11:59:09+0200</time>
      </trkpt>
      <trkpt lat="44.91961" lon="6.5794">
        <ele>1850.2</ele>
        <time>2022-07-14T11:59:11+0200</time>
      </trkpt>
      <trkpt lat="44.91965" lon="6.57946">
        <ele>1849.3</ele>
        <time>2022-07-14T11:59:17+0200</time>
      </trkpt>
      <trkpt lat="44.91967" lon="6.57955">
        <ele>1848.6</ele>
        <time>2022-07-14T11:59:20+0200</time>
      </trkpt>
      <trkpt lat="44.9197" lon="6.57962">
        <ele>1847.8</ele>
        <time>2022-07-14T11:59:22+0200</time>
      </trkpt>
      <trkpt lat="44.91973" lon="6.57967">
        <ele>1847</ele>
        <time>2022-07-14T11:59:24+0200</time>
      </trkpt>
      <trkpt lat="44.91978" lon="6.57975">
        <ele>1845.3</ele>
        <time>2022-07-14T11:59:26+0200</time>
      </trkpt>
      <trkpt lat="44.91981" lon="6.57986">
        <ele>1843.5</ele>
        <time>2022-07-14T11:59:28+0200</time>
      </trkpt>
      <trkpt lat="44.91985" lon="6.5799">
        <ele>1842.1</ele>
        <time>2022-07-14T11:59:30+0200</time>
      </trkpt>
      <trkpt lat="44.91989" lon="6.57992">
        <ele>1840.7</ele>
        <time>2022-07-14T11:59:33+0200</time>
      </trkpt>
      <trkpt lat="44.91994" lon="6.57991">
        <ele>1839.3</ele>
        <time>2022-07-14T11:59:36+0200</time>
      </trkpt>
      <trkpt lat="44.91999" lon="6.57994">
        <ele>1837.8</ele>
        <time>2022-07-14T11:59:40+0200</time>
      </trkpt>
      <trkpt lat="44.92004" lon="6.57998">
        <ele>1835.9</ele>
        <time>2022-07-14T11:59:44+0200</time>
      </trkpt>
      <trkpt lat="44.92007" lon="6.57993">
        <ele>1835.3</ele>
        <time>2022-07-14T11:59:47+0200</time>
      </trkpt>
      <trkpt lat="44.92014" lon="6.57991">
        <ele>1833.2</ele>
        <time>2022-07-14T11:59:50+0200</time>
      </trkpt>
      <trkpt lat="44.92018" lon="6.57986">
        <ele>1832.2</ele>
        <time>2022-07-14T11:59:53+0200</time>
      </trkpt>
      <trkpt lat="44.92024" lon="6.57983">
        <ele>1830.5</ele>
        <time>2022-07-14T11:59:55+0200</time>
      </trkpt>
      <trkpt lat="44.92029" lon="6.57982">
        <ele>1829</ele>
        <time>2022-07-14T11:59:58+0200</time>
      </trkpt>
      <trkpt lat="44.92035" lon="6.57979">
        <ele>1827</ele>
        <time>2022-07-14T12:00:00+0200</time>
      </trkpt>
      <trkpt lat="44.9204" lon="6.57979">
        <ele>1825.5</ele>
        <time>2022-07-14T12:00:02+0200</time>
      </trkpt>
      <trkpt lat="44.92045" lon="6.57977">
        <ele>1824</ele>
        <time>2022-07-14T12:00:04+0200</time>
      </trkpt>
      <trkpt lat="44.92049" lon="6.57975">
        <ele>1822.8</ele>
        <time>2022-07-14T12:00:05+0200</time>
      </trkpt>
      <trkpt lat="44.92055" lon="6.57973">
        <ele>1821.2</ele>
        <time>2022-07-14T12:00:07+0200</time>
      </trkpt>
      <trkpt lat="44.92057" lon="6.57967">
        <ele>1820.6</ele>
        <time>2022-07-14T12:00:09+0200</time>
      </trkpt>
      <trkpt lat="44.92063" lon="6.57964">
        <ele>1818.3</ele>
        <time>2022-07-14T12:00:11+0200</time>
      </trkpt>
      <trkpt lat="44.92068" lon="6.57957">
        <ele>1817.1</ele>
        <time>2022-07-14T12:00:13+0200</time>
      </trkpt>
      <trkpt lat="44.92069" lon="6.5795">
        <ele>1816.7</ele>
        <time>2022-07-14T12:00:14+0200</time>
      </trkpt>
      <trkpt lat="44.92071" lon="6.5794">
        <ele>1816.7</ele>
        <time>2022-07-14T12:00:16+0200</time>
      </trkpt>
      <trkpt lat="44.92073" lon="6.57928">
        <ele>1817.1</ele>
        <time>2022-07-14T12:00:18+0200</time>
      </trkpt>
      <trkpt lat="44.92074" lon="6.57921">
        <ele>1817</ele>
        <time>2022-07-14T12:00:19+0200</time>
      </trkpt>
      <trkpt lat="44.92075" lon="6.57909">
        <ele>1817.3</ele>
        <time>2022-07-14T12:00:21+0200</time>
      </trkpt>
      <trkpt lat="44.92076" lon="6.57903">
        <ele>1817.4</ele>
        <time>2022-07-14T12:00:22+0200</time>
      </trkpt>
      <trkpt lat="44.92078" lon="6.57891">
        <ele>1816.9</ele>
        <time>2022-07-14T12:00:24+0200</time>
      </trkpt>
      <trkpt lat="44.92084" lon="6.57891">
        <ele>1814.5</ele>
        <time>2022-07-14T12:00:27+0200</time>
      </trkpt>
      <trkpt lat="44.92091" lon="6.5789">
        <ele>1811.6</ele>
        <time>2022-07-14T12:00:30+0200</time>
      </trkpt>
      <trkpt lat="44.92097" lon="6.57892">
        <ele>1809</ele>
        <time>2022-07-14T12:00:33+0200</time>
      </trkpt>
      <trkpt lat="44.92103" lon="6.57897">
        <ele>1806.1</ele>
        <time>2022-07-14T12:00:35+0200</time>
      </trkpt>
      <trkpt lat="44.92108" lon="6.57903">
        <ele>1804</ele>
        <time>2022-07-14T12:00:37+0200</time>
      </trkpt>
      <trkpt lat="44.92113" lon="6.57902">
        <ele>1801.4</ele>
        <time>2022-07-14T12:00:41+0200</time>
      </trkpt>
      <trkpt lat="44.92114" lon="6.57893">
        <ele>1801.5</ele>
        <time>2022-07-14T12:00:46+0200</time>
      </trkpt>
      <trkpt lat="44.92119" lon="6.57895">
        <ele>1798.8</ele>
        <time>2022-07-14T12:00:49+0200</time>
      </trkpt>
      <trkpt lat="44.92123" lon="6.57899">
        <ele>1796.4</ele>
        <time>2022-07-14T12:00:51+0200</time>
      </trkpt>
      <trkpt lat="44.92126" lon="6.57907">
        <ele>1794.6</ele>
        <time>2022-07-14T12:00:53+0200</time>
      </trkpt>
      <trkpt lat="44.92127" lon="6.57916">
        <ele>1793.7</ele>
        <time>2022-07-14T12:00:58+0200</time>
      </trkpt>
      <trkpt lat="44.92125" lon="6.57927">
        <ele>1793.6</ele>
        <time>2022-07-14T12:01:00+0200</time>
      </trkpt>
      <trkpt lat="44.92125" lon="6.57937">
        <ele>1792.7</ele>
        <time>2022-07-14T12:01:02+0200</time>
      </trkpt>
      <trkpt lat="44.92128" lon="6.57945">
        <ele>1790.7</ele>
        <time>2022-07-14T12:01:04+0200</time>
      </trkpt>
      <trkpt lat="44.9213" lon="6.5795">
        <ele>1789</ele>
        <time>2022-07-14T12:01:07+0200</time>
      </trkpt>
      <trkpt lat="44.92135" lon="6.57949">
        <ele>1786.6</ele>
        <time>2022-07-14T12:01:12+0200</time>
      </trkpt>
      <trkpt lat="44.9214" lon="6.57946">
        <ele>1784.2</ele>
        <time>2022-07-14T12:01:17+0200</time>
      </trkpt>
      <trkpt lat="44.92145" lon="6.57946">
        <ele>1781.5</ele>
        <time>2022-07-14T12:01:20+0200</time>
      </trkpt>
      <trkpt lat="44.9215" lon="6.57941">
        <ele>1779</ele>
        <time>2022-07-14T12:01:24+0200</time>
      </trkpt>
      <trkpt lat="44.92152" lon="6.57935">
        <ele>1777.9</ele>
        <time>2022-07-14T12:01:27+0200</time>
      </trkpt>
      <trkpt lat="44.92156" lon="6.5793">
        <ele>1776.2</ele>
        <time>2022-07-14T12:01:31+0200</time>
      </trkpt>
      <trkpt lat="44.92158" lon="6.57922">
        <ele>1775.4</ele>
        <time>2022-07-14T12:01:35+0200</time>
      </trkpt>
      <trkpt lat="44.92158" lon="6.57915">
        <ele>1775.8</ele>
        <time>2022-07-14T12:01:39+0200</time>
      </trkpt>
      <trkpt lat="44.92161" lon="6.57921">
        <ele>1773.9</ele>
        <time>2022-07-14T12:01:57+0200</time>
      </trkpt>
      <trkpt lat="44.92167" lon="6.57925">
        <ele>1770.4</ele>
        <time>2022-07-14T12:02:01+0200</time>
      </trkpt>
      <trkpt lat="44.92172" lon="6.57925">
        <ele>1767.5</ele>
        <time>2022-07-14T12:02:07+0200</time>
      </trkpt>
      <trkpt lat="44.92177" lon="6.57925">
        <ele>1764.3</ele>
        <time>2022-07-14T12:02:24+0200</time>
      </trkpt>
      <trkpt lat="44.92179" lon="6.57917">
        <ele>1763.3</ele>
        <time>2022-07-14T12:02:29+0200</time>
      </trkpt>
      <trkpt lat="44.92181" lon="6.57909">
        <ele>1762.4</ele>
        <time>2022-07-14T12:02:31+0200</time>
      </trkpt>
      <trkpt lat="44.92185" lon="6.57904">
        <ele>1759.6</ele>
        <time>2022-07-14T12:02:36+0200</time>
      </trkpt>
      <trkpt lat="44.9219" lon="6.57904">
        <ele>1756.1</ele>
        <time>2022-07-14T12:02:39+0200</time>
      </trkpt>
      <trkpt lat="44.92196" lon="6.57905">
        <ele>1752.7</ele>
        <time>2022-07-14T12:02:43+0200</time>
      </trkpt>
      <trkpt lat="44.922" lon="6.57909">
        <ele>1750.3</ele>
        <time>2022-07-14T12:02:46+0200</time>
      </trkpt>
      <trkpt lat="44.92206" lon="6.57911">
        <ele>1747.3</ele>
        <time>2022-07-14T12:02:50+0200</time>
      </trkpt>
      <trkpt lat="44.92207" lon="6.57902">
        <ele>1746</ele>
        <time>2022-07-14T12:02:53+0200</time>
      </trkpt>
      <trkpt lat="44.92208" lon="6.57893">
        <ele>1744.8</ele>
        <time>2022-07-14T12:02:55+0200</time>
      </trkpt>
      <trkpt lat="44.9221" lon="6.57885">
        <ele>1743.2</ele>
        <time>2022-07-14T12:02:57+0200</time>
      </trkpt>
      <trkpt lat="44.92211" lon="6.57879">
        <ele>1741.2</ele>
        <time>2022-07-14T12:03:00+0200</time>
      </trkpt>
      <trkpt lat="44.92214" lon="6.57886">
        <ele>1740.5</ele>
        <time>2022-07-14T12:03:16+0200</time>
      </trkpt>
      <trkpt lat="44.92217" lon="6.57895">
        <ele>1739.4</ele>
        <time>2022-07-14T12:03:18+0200</time>
      </trkpt>
      <trkpt lat="44.9222" lon="6.57902">
        <ele>1738.4</ele>
        <time>2022-07-14T12:03:19+0200</time>
      </trkpt>
      <trkpt lat="44.9222" lon="6.5791">
        <ele>1738.7</ele>
        <time>2022-07-14T12:03:21+0200</time>
      </trkpt>
      <trkpt lat="44.92223" lon="6.57915">
        <ele>1737.6</ele>
        <time>2022-07-14T12:03:22+0200</time>
      </trkpt>
      <trkpt lat="44.92225" lon="6.57922">
        <ele>1735.9</ele>
        <time>2022-07-14T12:03:23+0200</time>
      </trkpt>
      <trkpt lat="44.92229" lon="6.57927">
        <ele>1733.4</ele>
        <time>2022-07-14T12:03:24+0200</time>
      </trkpt>
      <trkpt lat="44.9223" lon="6.57939">
        <ele>1733.1</ele>
        <time>2022-07-14T12:03:26+0200</time>
      </trkpt>
      <trkpt lat="44.92233" lon="6.57945">
        <ele>1731.6</ele>
        <time>2022-07-14T12:03:28+0200</time>
      </trkpt>
      <trkpt lat="44.92238" lon="6.57954">
        <ele>1728.1</ele>
        <time>2022-07-14T12:03:30+0200</time>
      </trkpt>
      <trkpt lat="44.92242" lon="6.57962">
        <ele>1725</ele>
        <time>2022-07-14T12:03:32+0200</time>
      </trkpt>
      <trkpt lat="44.92246" lon="6.57967">
        <ele>1722.6</ele>
        <time>2022-07-14T12:03:33+0200</time>
      </trkpt>
      <trkpt lat="44.92251" lon="6.57976">
        <ele>1719</ele>
        <time>2022-07-14T12:03:35+0200</time>
      </trkpt>
      <trkpt lat="44.92254" lon="6.57981">
        <ele>1716.9</ele>
        <time>2022-07-14T12:03:36+0200</time>
      </trkpt>
      <trkpt lat="44.92259" lon="6.57987">
        <ele>1713.8</ele>
        <time>2022-07-14T12:03:38+0200</time>
      </trkpt>
      <trkpt lat="44.92263" lon="6.57992">
        <ele>1711.2</ele>
        <time>2022-07-14T12:03:40+0200</time>
      </trkpt>
      <trkpt lat="44.92269" lon="6.57994">
        <ele>1708.1</ele>
        <time>2022-07-14T12:03:42+0200</time>
      </trkpt>
      <trkpt lat="44.92276" lon="6.57995">
        <ele>1704.4</ele>
        <time>2022-07-14T12:03:44+0200</time>
      </trkpt>
      <trkpt lat="44.92282" lon="6.57999">
        <ele>1700.8</ele>
        <time>2022-07-14T12:03:46+0200</time>
      </trkpt>
      <trkpt lat="44.92286" lon="6.58004">
        <ele>1698.9</ele>
        <time>2022-07-14T12:03:47+0200</time>
      </trkpt>
      <trkpt lat="44.92285" lon="6.5801">
        <ele>1699.1</ele>
        <time>2022-07-14T12:03:50+0200</time>
      </trkpt>
      <trkpt lat="44.92285" lon="6.58017">
        <ele>1698.8</ele>
        <time>2022-07-14T12:03:53+0200</time>
      </trkpt>
      <trkpt lat="44.92287" lon="6.58024">
        <ele>1697.7</ele>
        <time>2022-07-14T12:03:55+0200</time>
      </trkpt>
      <trkpt lat="44.92292" lon="6.5803">
        <ele>1694.9</ele>
        <time>2022-07-14T12:03:57+0200</time>
      </trkpt>
      <trkpt lat="44.92298" lon="6.58034">
        <ele>1691.3</ele>
        <time>2022-07-14T12:03:59+0200</time>
      </trkpt>
      <trkpt lat="44.92302" lon="6.58039">
        <ele>1689</ele>
        <time>2022-07-14T12:04:01+0200</time>
      </trkpt>
      <trkpt lat="44.92305" lon="6.58045">
        <ele>1687.1</ele>
        <time>2022-07-14T12:04:05+0200</time>
      </trkpt>
      <trkpt lat="44.92308" lon="6.5805">
        <ele>1685.1</ele>
        <time>2022-07-14T12:04:18+0200</time>
      </trkpt>
      <trkpt lat="44.92308" lon="6.58056">
        <ele>1684.9</ele>
        <time>2022-07-14T12:04:21+0200</time>
      </trkpt>
      <trkpt lat="44.92311" lon="6.58063">
        <ele>1683.1</ele>
        <time>2022-07-14T12:04:23+0200</time>
      </trkpt>
      <trkpt lat="44.92314" lon="6.5807">
        <ele>1681.6</ele>
        <time>2022-07-14T12:04:26+0200</time>
      </trkpt>
      <trkpt lat="44.92317" lon="6.58076">
        <ele>1679.9</ele>
        <time>2022-07-14T12:04:28+0200</time>
      </trkpt>
      <trkpt lat="44.92318" lon="6.58083">
        <ele>1679.4</ele>
        <time>2022-07-14T12:04:30+0200</time>
      </trkpt>
      <trkpt lat="44.9232" lon="6.58089">
        <ele>1678.4</ele>
        <time>2022-07-14T12:04:32+0200</time>
      </trkpt>
      <trkpt lat="44.92322" lon="6.58096">
        <ele>1677.6</ele>
        <time>2022-07-14T12:04:34+0200</time>
      </trkpt>
      <trkpt lat="44.92325" lon="6.58103">
        <ele>1676.1</ele>
        <time>2022-07-14T12:04:36+0200</time>
      </trkpt>
      <trkpt lat="44.92327" lon="6.58109">
        <ele>1675.6</ele>
        <time>2022-07-14T12:04:38+0200</time>
      </trkpt>
      <trkpt lat="44.92327" lon="6.58117">
        <ele>1675.5</ele>
        <time>2022-07-14T12:04:40+0200</time>
      </trkpt>
      <trkpt lat="44.92326" lon="6.58125">
        <ele>1676.1</ele>
        <time>2022-07-14T12:04:43+0200</time>
      </trkpt>
      <trkpt lat="44.92326" lon="6.58132">
        <ele>1676.4</ele>
        <time>2022-07-14T12:04:45+0200</time>
      </trkpt>
      <trkpt lat="44.92325" lon="6.5814">
        <ele>1677</ele>
        <time>2022-07-14T12:04:48+0200</time>
      </trkpt>
      <trkpt lat="44.92324" lon="6.58147">
        <ele>1677.7</ele>
        <time>2022-07-14T12:04:50+0200</time>
      </trkpt>
      <trkpt lat="44.92323" lon="6.58155">
        <ele>1678.5</ele>
        <time>2022-07-14T12:04:52+0200</time>
      </trkpt>
      <trkpt lat="44.92323" lon="6.58162">
        <ele>1679.1</ele>
        <time>2022-07-14T12:04:54+0200</time>
      </trkpt>
      <trkpt lat="44.92321" lon="6.58168">
        <ele>1680.2</ele>
        <time>2022-07-14T12:04:56+0200</time>
      </trkpt>
      <trkpt lat="44.92316" lon="6.58176">
        <ele>1681.8</ele>
        <time>2022-07-14T12:04:59+0200</time>
      </trkpt>
      <trkpt lat="44.92313" lon="6.5818">
        <ele>1682.9</ele>
        <time>2022-07-14T12:05:01+0200</time>
      </trkpt>
      <trkpt lat="44.9231" lon="6.58187">
        <ele>1683.8</ele>
        <time>2022-07-14T12:05:03+0200</time>
      </trkpt>
      <trkpt lat="44.92306" lon="6.58191">
        <ele>1684.8</ele>
        <time>2022-07-14T12:05:05+0200</time>
      </trkpt>
      <trkpt lat="44.92303" lon="6.58199">
        <ele>1685.7</ele>
        <time>2022-07-14T12:05:08+0200</time>
      </trkpt>
      <trkpt lat="44.92302" lon="6.58205">
        <ele>1685.8</ele>
        <time>2022-07-14T12:05:10+0200</time>
      </trkpt>
      <trkpt lat="44.923" lon="6.58214">
        <ele>1686.3</ele>
        <time>2022-07-14T12:05:13+0200</time>
      </trkpt>
      <trkpt lat="44.92297" lon="6.58222">
        <ele>1686.9</ele>
        <time>2022-07-14T12:05:16+0200</time>
      </trkpt>
      <trkpt lat="44.92296" lon="6.5823">
        <ele>1686.6</ele>
        <time>2022-07-14T12:05:18+0200</time>
      </trkpt>
      <trkpt lat="44.92296" lon="6.58237">
        <ele>1686.1</ele>
        <time>2022-07-14T12:05:20+0200</time>
      </trkpt>
      <trkpt lat="44.92295" lon="6.58244">
        <ele>1686</ele>
        <time>2022-07-14T12:05:23+0200</time>
      </trkpt>
      <trkpt lat="44.92295" lon="6.58251">
        <ele>1685.5</ele>
        <time>2022-07-14T12:05:25+0200</time>
      </trkpt>
      <trkpt lat="44.92294" lon="6.5826">
        <ele>1685.3</ele>
        <time>2022-07-14T12:05:28+0200</time>
      </trkpt>
      <trkpt lat="44.92293" lon="6.58268">
        <ele>1685.2</ele>
        <time>2022-07-14T12:05:30+0200</time>
      </trkpt>
      <trkpt lat="44.92291" lon="6.58275">
        <ele>1685.2</ele>
        <time>2022-07-14T12:05:33+0200</time>
      </trkpt>
      <trkpt lat="44.92287" lon="6.58282">
        <ele>1686.3</ele>
        <time>2022-07-14T12:05:36+0200</time>
      </trkpt>
      <trkpt lat="44.92283" lon="6.58287">
        <ele>1687.3</ele>
        <time>2022-07-14T12:05:38+0200</time>
      </trkpt>
      <trkpt lat="44.92279" lon="6.58294">
        <ele>1688.5</ele>
        <time>2022-07-14T12:05:41+0200</time>
      </trkpt>
      <trkpt lat="44.92277" lon="6.583">
        <ele>1689.1</ele>
        <time>2022-07-14T12:05:44+0200</time>
      </trkpt>
      <trkpt lat="44.92274" lon="6.58306">
        <ele>1690.1</ele>
        <time>2022-07-14T12:05:47+0200</time>
      </trkpt>
      <trkpt lat="44.92268" lon="6.58309">
        <ele>1691.8</ele>
        <time>2022-07-14T12:05:51+0200</time>
      </trkpt>
      <trkpt lat="44.92263" lon="6.58313">
        <ele>1693.1</ele>
        <time>2022-07-14T12:05:56+0200</time>
      </trkpt>
      <trkpt lat="44.92259" lon="6.5832">
        <ele>1694.3</ele>
        <time>2022-07-14T12:05:59+0200</time>
      </trkpt>
      <trkpt lat="44.92255" lon="6.58329">
        <ele>1695.3</ele>
        <time>2022-07-14T12:06:00+0200</time>
      </trkpt>
      <trkpt lat="44.92254" lon="6.58336">
        <ele>1695.8</ele>
        <time>2022-07-14T12:06:01+0200</time>
      </trkpt>
      <trkpt lat="44.9225" lon="6.58341">
        <ele>1696.9</ele>
        <time>2022-07-14T12:06:02+0200</time>
      </trkpt>
      <trkpt lat="44.9225" lon="6.58352">
        <ele>1696.9</ele>
        <time>2022-07-14T12:06:04+0200</time>
      </trkpt>
      <trkpt lat="44.92251" lon="6.58361">
        <ele>1696.8</ele>
        <time>2022-07-14T12:06:06+0200</time>
      </trkpt>
      <trkpt lat="44.9225" lon="6.58369">
        <ele>1696.8</ele>
        <time>2022-07-14T12:06:08+0200</time>
      </trkpt>
      <trkpt lat="44.9225" lon="6.58375">
        <ele>1696.4</ele>
        <time>2022-07-14T12:06:10+0200</time>
      </trkpt>
      <trkpt lat="44.92249" lon="6.58384">
        <ele>1696.4</ele>
        <time>2022-07-14T12:06:12+0200</time>
      </trkpt>
      <trkpt lat="44.92251" lon="6.5839">
        <ele>1695.5</ele>
        <time>2022-07-14T12:06:14+0200</time>
      </trkpt>
      <trkpt lat="44.92252" lon="6.58397">
        <ele>1694.7</ele>
        <time>2022-07-14T12:06:16+0200</time>
      </trkpt>
      <trkpt lat="44.92252" lon="6.58405">
        <ele>1694.2</ele>
        <time>2022-07-14T12:06:18+0200</time>
      </trkpt>
      <trkpt lat="44.92253" lon="6.58412">
        <ele>1693.6</ele>
        <time>2022-07-14T12:06:21+0200</time>
      </trkpt>
      <trkpt lat="44.92248" lon="6.58415">
        <ele>1694.7</ele>
        <time>2022-07-14T12:06:25+0200</time>
      </trkpt>
      <trkpt lat="44.92244" lon="6.58416">
        <ele>1696.2</ele>
        <time>2022-07-14T12:06:29+0200</time>
      </trkpt>
      <trkpt lat="44.9224" lon="6.58419">
        <ele>1697.6</ele>
        <time>2022-07-14T12:06:34+0200</time>
      </trkpt>
      <trkpt lat="44.92236" lon="6.58423">
        <ele>1698.7</ele>
        <time>2022-07-14T12:06:40+0200</time>
      </trkpt>
      <trkpt lat="44.92232" lon="6.58429">
        <ele>1699.8</ele>
        <time>2022-07-14T12:06:44+0200</time>
      </trkpt>
      <trkpt lat="44.92228" lon="6.58433">
        <ele>1701.1</ele>
        <time>2022-07-14T12:06:46+0200</time>
      </trkpt>
      <trkpt lat="44.92223" lon="6.58435">
        <ele>1702.9</ele>
        <time>2022-07-14T12:06:48+0200</time>
      </trkpt>
      <trkpt lat="44.92219" lon="6.58439">
        <ele>1704.6</ele>
        <time>2022-07-14T12:06:51+0200</time>
      </trkpt>
      <trkpt lat="44.92214" lon="6.58444">
        <ele>1706.3</ele>
        <time>2022-07-14T12:06:56+0200</time>
      </trkpt>
      <trkpt lat="44.92211" lon="6.58452">
        <ele>1707.3</ele>
        <time>2022-07-14T12:06:59+0200</time>
      </trkpt>
      <trkpt lat="44.92211" lon="6.58459">
        <ele>1707</ele>
        <time>2022-07-14T12:07:02+0200</time>
      </trkpt>
      <trkpt lat="44.92212" lon="6.58468">
        <ele>1706.2</ele>
        <time>2022-07-14T12:07:05+0200</time>
      </trkpt>
      <trkpt lat="44.92212" lon="6.58476">
        <ele>1705.8</ele>
        <time>2022-07-14T12:07:08+0200</time>
      </trkpt>
      <trkpt lat="44.92212" lon="6.58483">
        <ele>1705.9</ele>
        <time>2022-07-14T12:07:11+0200</time>
      </trkpt>
      <trkpt lat="44.9221" lon="6.58492">
        <ele>1706.3</ele>
        <time>2022-07-14T12:07:14+0200</time>
      </trkpt>
      <trkpt lat="44.92212" lon="6.58498">
        <ele>1705.5</ele>
        <time>2022-07-14T12:07:16+0200</time>
      </trkpt>
      <trkpt lat="44.92211" lon="6.58505">
        <ele>1705.8</ele>
        <time>2022-07-14T12:07:18+0200</time>
      </trkpt>
      <trkpt lat="44.92212" lon="6.58514">
        <ele>1705.7</ele>
        <time>2022-07-14T12:07:21+0200</time>
      </trkpt>
      <trkpt lat="44.92211" lon="6.58522">
        <ele>1706.3</ele>
        <time>2022-07-14T12:07:23+0200</time>
      </trkpt>
      <trkpt lat="44.92209" lon="6.58528">
        <ele>1707.1</ele>
        <time>2022-07-14T12:07:25+0200</time>
      </trkpt>
      <trkpt lat="44.92207" lon="6.58534">
        <ele>1708</ele>
        <time>2022-07-14T12:07:28+0200</time>
      </trkpt>
      <trkpt lat="44.92206" lon="6.58543">
        <ele>1708.7</ele>
        <time>2022-07-14T12:07:31+0200</time>
      </trkpt>
      <trkpt lat="44.92205" lon="6.5855">
        <ele>1709.2</ele>
        <time>2022-07-14T12:07:33+0200</time>
      </trkpt>
      <trkpt lat="44.92204" lon="6.58557">
        <ele>1710.2</ele>
        <time>2022-07-14T12:07:35+0200</time>
      </trkpt>
      <trkpt lat="44.92201" lon="6.58565">
        <ele>1711.6</ele>
        <time>2022-07-14T12:07:38+0200</time>
      </trkpt>
      <trkpt lat="44.922" lon="6.58572">
        <ele>1712.8</ele>
        <time>2022-07-14T12:07:41+0200</time>
      </trkpt>
      <trkpt lat="44.92197" lon="6.58579">
        <ele>1714.5</ele>
        <time>2022-07-14T12:07:43+0200</time>
      </trkpt>
      <trkpt lat="44.92199" lon="6.58586">
        <ele>1714.3</ele>
        <time>2022-07-14T12:07:45+0200</time>
      </trkpt>
      <trkpt lat="44.92199" lon="6.58594">
        <ele>1714.5</ele>
        <time>2022-07-14T12:07:48+0200</time>
      </trkpt>
      <trkpt lat="44.922" lon="6.586">
        <ele>1714.8</ele>
        <time>2022-07-14T12:07:50+0200</time>
      </trkpt>
      <trkpt lat="44.92202" lon="6.58609">
        <ele>1714.4</ele>
        <time>2022-07-14T12:07:52+0200</time>
      </trkpt>
      <trkpt lat="44.92203" lon="6.58618">
        <ele>1714.5</ele>
        <time>2022-07-14T12:07:54+0200</time>
      </trkpt>
      <trkpt lat="44.92206" lon="6.58624">
        <ele>1714</ele>
        <time>2022-07-14T12:07:56+0200</time>
      </trkpt>
      <trkpt lat="44.92207" lon="6.58631">
        <ele>1714.3</ele>
        <time>2022-07-14T12:07:58+0200</time>
      </trkpt>
      <trkpt lat="44.92209" lon="6.58638">
        <ele>1714.2</ele>
        <time>2022-07-14T12:08:00+0200</time>
      </trkpt>
      <trkpt lat="44.92211" lon="6.58647">
        <ele>1714.2</ele>
        <time>2022-07-14T12:08:02+0200</time>
      </trkpt>
      <trkpt lat="44.92215" lon="6.58658">
        <ele>1713.9</ele>
        <time>2022-07-14T12:08:03+0200</time>
      </trkpt>
      <trkpt lat="44.92218" lon="6.58666">
        <ele>1713.5</ele>
        <time>2022-07-14T12:08:04+0200</time>
      </trkpt>
      <trkpt lat="44.92222" lon="6.58675">
        <ele>1713</ele>
        <time>2022-07-14T12:08:05+0200</time>
      </trkpt>
      <trkpt lat="44.92226" lon="6.58682">
        <ele>1712.1</ele>
        <time>2022-07-14T12:08:06+0200</time>
      </trkpt>
      <trkpt lat="44.9223" lon="6.58691">
        <ele>1711.5</ele>
        <time>2022-07-14T12:08:07+0200</time>
      </trkpt>
      <trkpt lat="44.92234" lon="6.58699">
        <ele>1710.5</ele>
        <time>2022-07-14T12:08:08+0200</time>
      </trkpt>
      <trkpt lat="44.92243" lon="6.58706">
        <ele>1707.7</ele>
        <time>2022-07-14T12:08:10+0200</time>
      </trkpt>
      <trkpt lat="44.92247" lon="6.5871">
        <ele>1706.2</ele>
        <time>2022-07-14T12:08:11+0200</time>
      </trkpt>
      <trkpt lat="44.92251" lon="6.58713">
        <ele>1704.9</ele>
        <time>2022-07-14T12:08:12+0200</time>
      </trkpt>
      <trkpt lat="44.92255" lon="6.5872">
        <ele>1704</ele>
        <time>2022-07-14T12:08:14+0200</time>
      </trkpt>
      <trkpt lat="44.9226" lon="6.58728">
        <ele>1702.7</ele>
        <time>2022-07-14T12:08:16+0200</time>
      </trkpt>
      <trkpt lat="44.92264" lon="6.58732">
        <ele>1701.2</ele>
        <time>2022-07-14T12:08:18+0200</time>
      </trkpt>
      <trkpt lat="44.92267" lon="6.58739">
        <ele>1700.4</ele>
        <time>2022-07-14T12:08:20+0200</time>
      </trkpt>
      <trkpt lat="44.9227" lon="6.58745">
        <ele>1699.6</ele>
        <time>2022-07-14T12:08:23+0200</time>
      </trkpt>
      <trkpt lat="44.92277" lon="6.58748">
        <ele>1697.4</ele>
        <time>2022-07-14T12:08:25+0200</time>
      </trkpt>
      <trkpt lat="44.9228" lon="6.58752">
        <ele>1696</ele>
        <time>2022-07-14T12:08:27+0200</time>
      </trkpt>
      <trkpt lat="44.92286" lon="6.58754">
        <ele>1693.7</ele>
        <time>2022-07-14T12:08:30+0200</time>
      </trkpt>
      <trkpt lat="44.92291" lon="6.58759">
        <ele>1692</ele>
        <time>2022-07-14T12:08:32+0200</time>
      </trkpt>
      <trkpt lat="44.92295" lon="6.58763">
        <ele>1690.5</ele>
        <time>2022-07-14T12:08:34+0200</time>
      </trkpt>
      <trkpt lat="44.92299" lon="6.58767">
        <ele>1689.2</ele>
        <time>2022-07-14T12:08:36+0200</time>
      </trkpt>
      <trkpt lat="44.92303" lon="6.58775">
        <ele>1687.7</ele>
        <time>2022-07-14T12:08:39+0200</time>
      </trkpt>
      <trkpt lat="44.92307" lon="6.58782">
        <ele>1686.6</ele>
        <time>2022-07-14T12:08:41+0200</time>
      </trkpt>
      <trkpt lat="44.9231" lon="6.58788">
        <ele>1684.7</ele>
        <time>2022-07-14T12:08:44+0200</time>
      </trkpt>
      <trkpt lat="44.92316" lon="6.58797">
        <ele>1682.3</ele>
        <time>2022-07-14T12:08:46+0200</time>
      </trkpt>
      <trkpt lat="44.92321" lon="6.58807">
        <ele>1679.9</ele>
        <time>2022-07-14T12:08:48+0200</time>
      </trkpt>
      <trkpt lat="44.92323" lon="6.58819">
        <ele>1678.5</ele>
        <time>2022-07-14T12:08:50+0200</time>
      </trkpt>
      <trkpt lat="44.92328" lon="6.58827">
        <ele>1676.6</ele>
        <time>2022-07-14T12:08:52+0200</time>
      </trkpt>
      <trkpt lat="44.9233" lon="6.58834">
        <ele>1675.4</ele>
        <time>2022-07-14T12:08:54+0200</time>
      </trkpt>
      <trkpt lat="44.92334" lon="6.58843">
        <ele>1673.2</ele>
        <time>2022-07-14T12:08:56+0200</time>
      </trkpt>
      <trkpt lat="44.92336" lon="6.58849">
        <ele>1671.8</ele>
        <time>2022-07-14T12:08:58+0200</time>
      </trkpt>
      <trkpt lat="44.92339" lon="6.58854">
        <ele>1670.2</ele>
        <time>2022-07-14T12:09:00+0200</time>
      </trkpt>
      <trkpt lat="44.92342" lon="6.5886">
        <ele>1668.8</ele>
        <time>2022-07-14T12:09:02+0200</time>
      </trkpt>
      <trkpt lat="44.92347" lon="6.58862">
        <ele>1666</ele>
        <time>2022-07-14T12:09:04+0200</time>
      </trkpt>
      <trkpt lat="44.92353" lon="6.58864">
        <ele>1662.9</ele>
        <time>2022-07-14T12:09:06+0200</time>
      </trkpt>
      <trkpt lat="44.92358" lon="6.5887">
        <ele>1660.4</ele>
        <time>2022-07-14T12:09:09+0200</time>
      </trkpt>
      <trkpt lat="44.92362" lon="6.58875">
        <ele>1657.9</ele>
        <time>2022-07-14T12:09:12+0200</time>
      </trkpt>
      <trkpt lat="44.92366" lon="6.58879">
        <ele>1655.7</ele>
        <time>2022-07-14T12:09:17+0200</time>
      </trkpt>
      <trkpt lat="44.92368" lon="6.58886">
        <ele>1654.5</ele>
        <time>2022-07-14T12:09:21+0200</time>
      </trkpt>
      <trkpt lat="44.9237" lon="6.58893">
        <ele>1653.3</ele>
        <time>2022-07-14T12:09:24+0200</time>
      </trkpt>
      <trkpt lat="44.92371" lon="6.58901">
        <ele>1652.9</ele>
        <time>2022-07-14T12:09:27+0200</time>
      </trkpt>
      <trkpt lat="44.92373" lon="6.58907">
        <ele>1651.7</ele>
        <time>2022-07-14T12:09:29+0200</time>
      </trkpt>
      <trkpt lat="44.92378" lon="6.58915">
        <ele>1649.2</ele>
        <time>2022-07-14T12:09:32+0200</time>
      </trkpt>
      <trkpt lat="44.9238" lon="6.58925">
        <ele>1647.9</ele>
        <time>2022-07-14T12:09:34+0200</time>
      </trkpt>
      <trkpt lat="44.92386" lon="6.58934">
        <ele>1645</ele>
        <time>2022-07-14T12:09:36+0200</time>
      </trkpt>
      <trkpt lat="44.92392" lon="6.58942">
        <ele>1642.4</ele>
        <time>2022-07-14T12:09:40+0200</time>
      </trkpt>
      <trkpt lat="44.92396" lon="6.58947">
        <ele>1640.3</ele>
        <time>2022-07-14T12:09:41+0200</time>
      </trkpt>
      <trkpt lat="44.92403" lon="6.58952">
        <ele>1637.2</ele>
        <time>2022-07-14T12:09:42+0200</time>
      </trkpt>
      <trkpt lat="44.92407" lon="6.58957">
        <ele>1635</ele>
        <time>2022-07-14T12:09:44+0200</time>
      </trkpt>
      <trkpt lat="44.92413" lon="6.58965">
        <ele>1632.7</ele>
        <time>2022-07-14T12:09:46+0200</time>
      </trkpt>
      <trkpt lat="44.92417" lon="6.5897">
        <ele>1630.9</ele>
        <time>2022-07-14T12:09:48+0200</time>
      </trkpt>
      <trkpt lat="44.9242" lon="6.58974">
        <ele>1629.5</ele>
        <time>2022-07-14T12:09:49+0200</time>
      </trkpt>
      <trkpt lat="44.92423" lon="6.5898">
        <ele>1628.4</ele>
        <time>2022-07-14T12:09:50+0200</time>
      </trkpt>
      <trkpt lat="44.9243" lon="6.58987">
        <ele>1625.7</ele>
        <time>2022-07-14T12:09:52+0200</time>
      </trkpt>
      <trkpt lat="44.92432" lon="6.58996">
        <ele>1624.7</ele>
        <time>2022-07-14T12:09:54+0200</time>
      </trkpt>
      <trkpt lat="44.92437" lon="6.59001">
        <ele>1622.4</ele>
        <time>2022-07-14T12:09:56+0200</time>
      </trkpt>
      <trkpt lat="44.92442" lon="6.59005">
        <ele>1619.8</ele>
        <time>2022-07-14T12:09:57+0200</time>
      </trkpt>
      <trkpt lat="44.92449" lon="6.59008">
        <ele>1616.1</ele>
        <time>2022-07-14T12:09:59+0200</time>
      </trkpt>
      <trkpt lat="44.92456" lon="6.5901">
        <ele>1612.2</ele>
        <time>2022-07-14T12:10:01+0200</time>
      </trkpt>
      <trkpt lat="44.92462" lon="6.59012">
        <ele>1608.7</ele>
        <time>2022-07-14T12:10:03+0200</time>
      </trkpt>
      <trkpt lat="44.92469" lon="6.59014">
        <ele>1604.8</ele>
        <time>2022-07-14T12:10:05+0200</time>
      </trkpt>
      <trkpt lat="44.92474" lon="6.59015">
        <ele>1601.6</ele>
        <time>2022-07-14T12:10:07+0200</time>
      </trkpt>
      <trkpt lat="44.9248" lon="6.59012">
        <ele>1598.5</ele>
        <time>2022-07-14T12:10:09+0200</time>
      </trkpt>
      <trkpt lat="44.92483" lon="6.59005">
        <ele>1598</ele>
        <time>2022-07-14T12:10:11+0200</time>
      </trkpt>
      <trkpt lat="44.92485" lon="6.58998">
        <ele>1598.2</ele>
        <time>2022-07-14T12:10:14+0200</time>
      </trkpt>
      <trkpt lat="44.92484" lon="6.58988">
        <ele>1599.6</ele>
        <time>2022-07-14T12:10:17+0200</time>
      </trkpt>
      <trkpt lat="44.92483" lon="6.58979">
        <ele>1600.8</ele>
        <time>2022-07-14T12:10:19+0200</time>
      </trkpt>
      <trkpt lat="44.92483" lon="6.58967">
        <ele>1600.8</ele>
        <time>2022-07-14T12:10:21+0200</time>
      </trkpt>
      <trkpt lat="44.92487" lon="6.58959">
        <ele>1598.8</ele>
        <time>2022-07-14T12:10:23+0200</time>
      </trkpt>
      <trkpt lat="44.92488" lon="6.58951">
        <ele>1598</ele>
        <time>2022-07-14T12:10:26+0200</time>
      </trkpt>
      <trkpt lat="44.92491" lon="6.58944">
        <ele>1596.6</ele>
        <time>2022-07-14T12:10:29+0200</time>
      </trkpt>
      <trkpt lat="44.92494" lon="6.58938">
        <ele>1594.6</ele>
        <time>2022-07-14T12:10:31+0200</time>
      </trkpt>
      <trkpt lat="44.92494" lon="6.58931">
        <ele>1594</ele>
        <time>2022-07-14T12:10:34+0200</time>
      </trkpt>
      <trkpt lat="44.92499" lon="6.58925">
        <ele>1590.9</ele>
        <time>2022-07-14T12:10:37+0200</time>
      </trkpt>
      <trkpt lat="44.92502" lon="6.58918">
        <ele>1589.1</ele>
        <time>2022-07-14T12:10:40+0200</time>
      </trkpt>
      <trkpt lat="44.92508" lon="6.58912">
        <ele>1586</ele>
        <time>2022-07-14T12:10:44+0200</time>
      </trkpt>
      <trkpt lat="44.92512" lon="6.58908">
        <ele>1583.6</ele>
        <time>2022-07-14T12:10:47+0200</time>
      </trkpt>
      <trkpt lat="44.92514" lon="6.58902">
        <ele>1582.2</ele>
        <time>2022-07-14T12:10:50+0200</time>
      </trkpt>
      <trkpt lat="44.92513" lon="6.58896">
        <ele>1582.7</ele>
        <time>2022-07-14T12:10:52+0200</time>
      </trkpt>
      <trkpt lat="44.9252" lon="6.58893">
        <ele>1578.9</ele>
        <time>2022-07-14T12:10:54+0200</time>
      </trkpt>
      <trkpt lat="44.92525" lon="6.58891">
        <ele>1576.4</ele>
        <time>2022-07-14T12:10:56+0200</time>
      </trkpt>
      <trkpt lat="44.92531" lon="6.58892">
        <ele>1573.4</ele>
        <time>2022-07-14T12:10:59+0200</time>
      </trkpt>
      <trkpt lat="44.92536" lon="6.58893">
        <ele>1570.5</ele>
        <time>2022-07-14T12:11:03+0200</time>
      </trkpt>
      <trkpt lat="44.9254" lon="6.58888">
        <ele>1567.7</ele>
        <time>2022-07-14T12:11:05+0200</time>
      </trkpt>
      <trkpt lat="44.9254" lon="6.5888">
        <ele>1567.2</ele>
        <time>2022-07-14T12:11:07+0200</time>
      </trkpt>
      <trkpt lat="44.92545" lon="6.58876">
        <ele>1564.3</ele>
        <time>2022-07-14T12:11:10+0200</time>
      </trkpt>
      <trkpt lat="44.92549" lon="6.58879">
        <ele>1562.1</ele>
        <time>2022-07-14T12:11:14+0200</time>
      </trkpt>
      <trkpt lat="44.92555" lon="6.58877">
        <ele>1558.9</ele>
        <time>2022-07-14T12:11:19+0200</time>
      </trkpt>
      <trkpt lat="44.92557" lon="6.58869">
        <ele>1557.3</ele>
        <time>2022-07-14T12:11:23+0200</time>
      </trkpt>
      <trkpt lat="44.92558" lon="6.58861">
        <ele>1556.3</ele>
        <time>2022-07-14T12:11:25+0200</time>
      </trkpt>
      <trkpt lat="44.92563" lon="6.58854">
        <ele>1552.6</ele>
        <time>2022-07-14T12:11:28+0200</time>
      </trkpt>
      <trkpt lat="44.92566" lon="6.58848">
        <ele>1550.3</ele>
        <time>2022-07-14T12:11:32+0200</time>
      </trkpt>
      <trkpt lat="44.92568" lon="6.58841">
        <ele>1548.1</ele>
        <time>2022-07-14T12:11:35+0200</time>
      </trkpt>
      <trkpt lat="44.92569" lon="6.58834">
        <ele>1546.8</ele>
        <time>2022-07-14T12:11:39+0200</time>
      </trkpt>
      <trkpt lat="44.92573" lon="6.58824">
        <ele>1543</ele>
        <time>2022-07-14T12:11:43+0200</time>
      </trkpt>
      <trkpt lat="44.92573" lon="6.58811">
        <ele>1541</ele>
        <time>2022-07-14T12:11:45+0200</time>
      </trkpt>
      <trkpt lat="44.92571" lon="6.58802">
        <ele>1540.2</ele>
        <time>2022-07-14T12:11:47+0200</time>
      </trkpt>
      <trkpt lat="44.92571" lon="6.58791">
        <ele>1538.4</ele>
        <time>2022-07-14T12:11:49+0200</time>
      </trkpt>
      <trkpt lat="44.92575" lon="6.58785">
        <ele>1535.4</ele>
        <time>2022-07-14T12:11:51+0200</time>
      </trkpt>
      <trkpt lat="44.92575" lon="6.58775">
        <ele>1533.4</ele>
        <time>2022-07-14T12:11:53+0200</time>
      </trkpt>
      <trkpt lat="44.92576" lon="6.58767">
        <ele>1531.7</ele>
        <time>2022-07-14T12:11:55+0200</time>
      </trkpt>
      <trkpt lat="44.92576" lon="6.5876">
        <ele>1530.3</ele>
        <time>2022-07-14T12:11:57+0200</time>
      </trkpt>
      <trkpt lat="44.92576" lon="6.58753">
        <ele>1529.3</ele>
        <time>2022-07-14T12:11:59+0200</time>
      </trkpt>
      <trkpt lat="44.92577" lon="6.58742">
        <ele>1528</ele>
        <time>2022-07-14T12:12:01+0200</time>
      </trkpt>
      <trkpt lat="44.92578" lon="6.58735">
        <ele>1526.7</ele>
        <time>2022-07-14T12:12:04+0200</time>
      </trkpt>
      <trkpt lat="44.92583" lon="6.58727">
        <ele>1523.8</ele>
        <time>2022-07-14T12:12:07+0200</time>
      </trkpt>
      <trkpt lat="44.92583" lon="6.58719">
        <ele>1523.2</ele>
        <time>2022-07-14T12:12:13+0200</time>
      </trkpt>
      <trkpt lat="44.92588" lon="6.58715">
        <ele>1521.3</ele>
        <time>2022-07-14T12:12:18+0200</time>
      </trkpt>
      <trkpt lat="44.92596" lon="6.58712">
        <ele>1518</ele>
        <time>2022-07-14T12:12:21+0200</time>
      </trkpt>
      <trkpt lat="44.926" lon="6.58713">
        <ele>1515.9</ele>
        <time>2022-07-14T12:12:23+0200</time>
      </trkpt>
      <trkpt lat="44.92608" lon="6.58712">
        <ele>1512.6</ele>
        <time>2022-07-14T12:12:25+0200</time>
      </trkpt>
      <trkpt lat="44.92613" lon="6.5871">
        <ele>1510.8</ele>
        <time>2022-07-14T12:12:26+0200</time>
      </trkpt>
      <trkpt lat="44.92622" lon="6.5871">
        <ele>1507.5</ele>
        <time>2022-07-14T12:12:28+0200</time>
      </trkpt>
      <trkpt lat="44.92628" lon="6.5871">
        <ele>1505.3</ele>
        <time>2022-07-14T12:12:29+0200</time>
      </trkpt>
      <trkpt lat="44.92635" lon="6.58704">
        <ele>1503.7</ele>
        <time>2022-07-14T12:12:31+0200</time>
      </trkpt>
      <trkpt lat="44.92642" lon="6.58704">
        <ele>1501.5</ele>
        <time>2022-07-14T12:12:33+0200</time>
      </trkpt>
      <trkpt lat="44.92648" lon="6.58708">
        <ele>1499.2</ele>
        <time>2022-07-14T12:12:34+0200</time>
      </trkpt>
      <trkpt lat="44.92654" lon="6.58709">
        <ele>1497.3</ele>
        <time>2022-07-14T12:12:36+0200</time>
      </trkpt>
      <trkpt lat="44.92663" lon="6.58711">
        <ele>1494.3</ele>
        <time>2022-07-14T12:12:38+0200</time>
      </trkpt>
      <trkpt lat="44.92669" lon="6.58713">
        <ele>1492.4</ele>
        <time>2022-07-14T12:12:39+0200</time>
      </trkpt>
      <trkpt lat="44.92674" lon="6.58712">
        <ele>1491.3</ele>
        <time>2022-07-14T12:12:40+0200</time>
      </trkpt>
      <trkpt lat="44.92681" lon="6.58711">
        <ele>1490.2</ele>
        <time>2022-07-14T12:12:42+0200</time>
      </trkpt>
      <trkpt lat="44.92686" lon="6.5871">
        <ele>1489.8</ele>
        <time>2022-07-14T12:12:43+0200</time>
      </trkpt>
      <trkpt lat="44.92691" lon="6.58709">
        <ele>1489.1</ele>
        <time>2022-07-14T12:12:44+0200</time>
      </trkpt>
      <trkpt lat="44.92698" lon="6.58709">
        <ele>1487.5</ele>
        <time>2022-07-14T12:12:45+0200</time>
      </trkpt>
      <trkpt lat="44.92707" lon="6.58709">
        <ele>1485.7</ele>
        <time>2022-07-14T12:12:47+0200</time>
      </trkpt>
      <trkpt lat="44.92714" lon="6.58708">
        <ele>1484.8</ele>
        <time>2022-07-14T12:12:48+0200</time>
      </trkpt>
      <trkpt lat="44.92718" lon="6.58707">
        <ele>1484.4</ele>
        <time>2022-07-14T12:12:49+0200</time>
      </trkpt>
      <trkpt lat="44.92723" lon="6.58705">
        <ele>1484.1</ele>
        <time>2022-07-14T12:12:50+0200</time>
      </trkpt>
      <trkpt lat="44.9273" lon="6.58705">
        <ele>1481.9</ele>
        <time>2022-07-14T12:12:52+0200</time>
      </trkpt>
      <trkpt lat="44.92736" lon="6.58706">
        <ele>1480.1</ele>
        <time>2022-07-14T12:12:55+0200</time>
      </trkpt>
      <trkpt lat="44.92743" lon="6.58709">
        <ele>1477.3</ele>
        <time>2022-07-14T12:12:57+0200</time>
      </trkpt>
      <trkpt lat="44.92752" lon="6.5871">
        <ele>1474.3</ele>
        <time>2022-07-14T12:12:59+0200</time>
      </trkpt>
      <trkpt lat="44.92759" lon="6.5871">
        <ele>1471.9</ele>
        <time>2022-07-14T12:13:01+0200</time>
      </trkpt>
      <trkpt lat="44.92764" lon="6.58709">
        <ele>1470.7</ele>
        <time>2022-07-14T12:13:04+0200</time>
      </trkpt>
      <trkpt lat="44.92768" lon="6.58712">
        <ele>1468.4</ele>
        <time>2022-07-14T12:13:07+0200</time>
      </trkpt>
      <trkpt lat="44.92773" lon="6.58715">
        <ele>1466</ele>
        <time>2022-07-14T12:13:12+0200</time>
      </trkpt>
      <trkpt lat="44.92778" lon="6.58714">
        <ele>1464.6</ele>
        <time>2022-07-14T12:13:19+0200</time>
      </trkpt>
      <trkpt lat="44.92783" lon="6.58716">
        <ele>1462.5</ele>
        <time>2022-07-14T12:13:29+0200</time>
      </trkpt>
      <trkpt lat="44.92788" lon="6.58719">
        <ele>1460.1</ele>
        <time>2022-07-14T12:13:45+0200</time>
      </trkpt>
      <trkpt lat="44.92794" lon="6.58721">
        <ele>1457.8</ele>
        <time>2022-07-14T12:13:47+0200</time>
      </trkpt>
      <trkpt lat="44.928" lon="6.58724">
        <ele>1455</ele>
        <time>2022-07-14T12:13:49+0200</time>
      </trkpt>
      <trkpt lat="44.92807" lon="6.58727">
        <ele>1451.9</ele>
        <time>2022-07-14T12:13:51+0200</time>
      </trkpt>
      <trkpt lat="44.92812" lon="6.58731">
        <ele>1449</ele>
        <time>2022-07-14T12:13:55+0200</time>
      </trkpt>
      <trkpt lat="44.92818" lon="6.58735">
        <ele>1446.3</ele>
        <time>2022-07-14T12:13:58+0200</time>
      </trkpt>
      <trkpt lat="44.92823" lon="6.58739">
        <ele>1443.8</ele>
        <time>2022-07-14T12:14:00+0200</time>
      </trkpt>
      <trkpt lat="44.9283" lon="6.58742">
        <ele>1441.1</ele>
        <time>2022-07-14T12:14:02+0200</time>
      </trkpt>
      <trkpt lat="44.92836" lon="6.58745">
        <ele>1438.6</ele>
        <time>2022-07-14T12:14:04+0200</time>
      </trkpt>
      <trkpt lat="44.92841" lon="6.58749">
        <ele>1436.6</ele>
        <time>2022-07-14T12:14:06+0200</time>
      </trkpt>
      <trkpt lat="44.92847" lon="6.58753">
        <ele>1434.2</ele>
        <time>2022-07-14T12:14:08+0200</time>
      </trkpt>
      <trkpt lat="44.92856" lon="6.58756">
        <ele>1431.5</ele>
        <time>2022-07-14T12:14:10+0200</time>
      </trkpt>
      <trkpt lat="44.92862" lon="6.58754">
        <ele>1430.5</ele>
        <time>2022-07-14T12:14:12+0200</time>
      </trkpt>
      <trkpt lat="44.92866" lon="6.58748">
        <ele>1430.4</ele>
        <time>2022-07-14T12:14:15+0200</time>
      </trkpt>
      <trkpt lat="44.92869" lon="6.5874">
        <ele>1430.2</ele>
        <time>2022-07-14T12:14:17+0200</time>
      </trkpt>
      <trkpt lat="44.92873" lon="6.58736">
        <ele>1429</ele>
        <time>2022-07-14T12:14:19+0200</time>
      </trkpt>
      <trkpt lat="44.92876" lon="6.58728">
        <ele>1428.5</ele>
        <time>2022-07-14T12:14:22+0200</time>
      </trkpt>
      <trkpt lat="44.92881" lon="6.58724">
        <ele>1426.8</ele>
        <time>2022-07-14T12:14:24+0200</time>
      </trkpt>
      <trkpt lat="44.92885" lon="6.58721">
        <ele>1424.9</ele>
        <time>2022-07-14T12:14:27+0200</time>
      </trkpt>
      <trkpt lat="44.9289" lon="6.5872">
        <ele>1422.5</ele>
        <time>2022-07-14T12:14:32+0200</time>
      </trkpt>
      <trkpt lat="44.92895" lon="6.58721">
        <ele>1419.3</ele>
        <time>2022-07-14T12:14:35+0200</time>
      </trkpt>
      <trkpt lat="44.92902" lon="6.58718">
        <ele>1415.1</ele>
        <time>2022-07-14T12:14:38+0200</time>
      </trkpt>
      <trkpt lat="44.92909" lon="6.58719">
        <ele>1411.3</ele>
        <time>2022-07-14T12:14:40+0200</time>
      </trkpt>
      <trkpt lat="44.92915" lon="6.58718">
        <ele>1407.7</ele>
        <time>2022-07-14T12:14:42+0200</time>
      </trkpt>
      <trkpt lat="44.9292" lon="6.5871">
        <ele>1404.2</ele>
        <time>2022-07-14T12:14:45+0200</time>
      </trkpt>
      <trkpt lat="44.92921" lon="6.58701">
        <ele>1403.5</ele>
        <time>2022-07-14T12:14:47+0200</time>
      </trkpt>
      <trkpt lat="44.9292" lon="6.58694">
        <ele>1403.7</ele>
        <time>2022-07-14T12:14:51+0200</time>
      </trkpt>
      <trkpt lat="44.92923" lon="6.58685">
        <ele>1402.8</ele>
        <time>2022-07-14T12:14:56+0200</time>
      </trkpt>
      <trkpt lat="44.92927" lon="6.5868">
        <ele>1402.2</ele>
        <time>2022-07-14T12:14:59+0200</time>
      </trkpt>
      <trkpt lat="44.92928" lon="6.58668">
        <ele>1403.1</ele>
        <time>2022-07-14T12:15:05+0200</time>
      </trkpt>
      <trkpt lat="44.92933" lon="6.58667">
        <ele>1402.8</ele>
        <time>2022-07-14T12:15:10+0200</time>
      </trkpt>
      <trkpt lat="44.92937" lon="6.58663">
        <ele>1403.8</ele>
        <time>2022-07-14T12:15:45+0200</time>
      </trkpt>
      <trkpt lat="44.92935" lon="6.5867">
        <ele>1402.1</ele>
        <time>2022-07-14T12:15:57+0200</time>
      </trkpt>
      <trkpt lat="44.92938" lon="6.58676">
        <ele>1400.6</ele>
        <time>2022-07-14T12:16:01+0200</time>
      </trkpt>
      <trkpt lat="44.92943" lon="6.58679">
        <ele>1398.9</ele>
        <time>2022-07-14T12:16:04+0200</time>
      </trkpt>
      <trkpt lat="44.92944" lon="6.58685">
        <ele>1396.9</ele>
        <time>2022-07-14T12:16:06+0200</time>
      </trkpt>
      <trkpt lat="44.92946" lon="6.58691">
        <ele>1395.3</ele>
        <time>2022-07-14T12:16:08+0200</time>
      </trkpt>
      <trkpt lat="44.9295" lon="6.58698">
        <ele>1394.3</ele>
        <time>2022-07-14T12:16:11+0200</time>
      </trkpt>
      <trkpt lat="44.92956" lon="6.58703">
        <ele>1394</ele>
        <time>2022-07-14T12:16:14+0200</time>
      </trkpt>
      <trkpt lat="44.92958" lon="6.58709">
        <ele>1393</ele>
        <time>2022-07-14T12:16:16+0200</time>
      </trkpt>
      <trkpt lat="44.92962" lon="6.58716">
        <ele>1391.9</ele>
        <time>2022-07-14T12:16:18+0200</time>
      </trkpt>
      <trkpt lat="44.92966" lon="6.58722">
        <ele>1390.6</ele>
        <time>2022-07-14T12:16:20+0200</time>
      </trkpt>
      <trkpt lat="44.92971" lon="6.58728">
        <ele>1389.8</ele>
        <time>2022-07-14T12:16:23+0200</time>
      </trkpt>
      <trkpt lat="44.92977" lon="6.58731">
        <ele>1389.7</ele>
        <time>2022-07-14T12:16:24+0200</time>
      </trkpt>
      <trkpt lat="44.92983" lon="6.58733">
        <ele>1390</ele>
        <time>2022-07-14T12:16:27+0200</time>
      </trkpt>
      <trkpt lat="44.92988" lon="6.58738">
        <ele>1389.5</ele>
        <time>2022-07-14T12:16:29+0200</time>
      </trkpt>
      <trkpt lat="44.92995" lon="6.58744">
        <ele>1389</ele>
        <time>2022-07-14T12:16:32+0200</time>
      </trkpt>
      <trkpt lat="44.93" lon="6.58751">
        <ele>1387.7</ele>
        <time>2022-07-14T12:16:34+0200</time>
      </trkpt>
      <trkpt lat="44.93007" lon="6.58756">
        <ele>1386</ele>
        <time>2022-07-14T12:16:36+0200</time>
      </trkpt>
      <trkpt lat="44.93013" lon="6.58763">
        <ele>1383.9</ele>
        <time>2022-07-14T12:16:38+0200</time>
      </trkpt>
      <trkpt lat="44.93017" lon="6.58767">
        <ele>1382.4</ele>
        <time>2022-07-14T12:16:39+0200</time>
      </trkpt>
      <trkpt lat="44.93024" lon="6.58773">
        <ele>1380.5</ele>
        <time>2022-07-14T12:16:40+0200</time>
      </trkpt>
      <trkpt lat="44.93028" lon="6.58776">
        <ele>1379.3</ele>
        <time>2022-07-14T12:16:41+0200</time>
      </trkpt>
      <trkpt lat="44.93033" lon="6.5878">
        <ele>1377.6</ele>
        <time>2022-07-14T12:16:43+0200</time>
      </trkpt>
      <trkpt lat="44.93038" lon="6.58785">
        <ele>1375.8</ele>
        <time>2022-07-14T12:16:45+0200</time>
      </trkpt>
      <trkpt lat="44.93044" lon="6.58791">
        <ele>1373.8</ele>
        <time>2022-07-14T12:16:47+0200</time>
      </trkpt>
      <trkpt lat="44.93052" lon="6.58797">
        <ele>1371.5</ele>
        <time>2022-07-14T12:16:49+0200</time>
      </trkpt>
      <trkpt lat="44.93055" lon="6.58802">
        <ele>1370.4</ele>
        <time>2022-07-14T12:16:50+0200</time>
      </trkpt>
      <trkpt lat="44.93059" lon="6.58807">
        <ele>1369.3</ele>
        <time>2022-07-14T12:16:51+0200</time>
      </trkpt>
      <trkpt lat="44.93063" lon="6.58812">
        <ele>1368.3</ele>
        <time>2022-07-14T12:16:52+0200</time>
      </trkpt>
      <trkpt lat="44.93069" lon="6.5882">
        <ele>1366.5</ele>
        <time>2022-07-14T12:16:54+0200</time>
      </trkpt>
      <trkpt lat="44.93073" lon="6.58825">
        <ele>1365.5</ele>
        <time>2022-07-14T12:16:55+0200</time>
      </trkpt>
      <trkpt lat="44.93078" lon="6.58836">
        <ele>1363.8</ele>
        <time>2022-07-14T12:16:57+0200</time>
      </trkpt>
      <trkpt lat="44.93079" lon="6.58842">
        <ele>1363.1</ele>
        <time>2022-07-14T12:16:58+0200</time>
      </trkpt>
      <trkpt lat="44.93081" lon="6.58854">
        <ele>1361.8</ele>
        <time>2022-07-14T12:17:00+0200</time>
      </trkpt>
      <trkpt lat="44.93084" lon="6.58863">
        <ele>1360.6</ele>
        <time>2022-07-14T12:17:02+0200</time>
      </trkpt>
      <trkpt lat="44.93087" lon="6.58869">
        <ele>1359.2</ele>
        <time>2022-07-14T12:17:03+0200</time>
      </trkpt>
      <trkpt lat="44.93089" lon="6.58878">
        <ele>1357.6</ele>
        <time>2022-07-14T12:17:05+0200</time>
      </trkpt>
      <trkpt lat="44.93087" lon="6.58884">
        <ele>1357</ele>
        <time>2022-07-14T12:17:07+0200</time>
      </trkpt>
      <trkpt lat="44.9308" lon="6.58888">
        <ele>1357.6</ele>
        <time>2022-07-14T12:17:10+0200</time>
      </trkpt>
      <trkpt lat="44.93074" lon="6.58894">
        <ele>1357.6</ele>
        <time>2022-07-14T12:17:12+0200</time>
      </trkpt>
      <trkpt lat="44.93074" lon="6.58904">
        <ele>1356.2</ele>
        <time>2022-07-14T12:17:13+0200</time>
      </trkpt>
      <trkpt lat="44.93074" lon="6.58913">
        <ele>1355</ele>
        <time>2022-07-14T12:17:14+0200</time>
      </trkpt>
      <trkpt lat="44.93072" lon="6.58919">
        <ele>1354.4</ele>
        <time>2022-07-14T12:17:15+0200</time>
      </trkpt>
      <trkpt lat="44.93067" lon="6.58926">
        <ele>1354</ele>
        <time>2022-07-14T12:17:16+0200</time>
      </trkpt>
      <trkpt lat="44.93066" lon="6.58935">
        <ele>1352.9</ele>
        <time>2022-07-14T12:17:17+0200</time>
      </trkpt>
      <trkpt lat="44.93068" lon="6.58945">
        <ele>1351.2</ele>
        <time>2022-07-14T12:17:18+0200</time>
      </trkpt>
      <trkpt lat="44.93065" lon="6.58952">
        <ele>1350.5</ele>
        <time>2022-07-14T12:17:19+0200</time>
      </trkpt>
      <trkpt lat="44.93061" lon="6.5896">
        <ele>1349.9</ele>
        <time>2022-07-14T12:17:20+0200</time>
      </trkpt>
      <trkpt lat="44.93058" lon="6.58968">
        <ele>1349.4</ele>
        <time>2022-07-14T12:17:21+0200</time>
      </trkpt>
      <trkpt lat="44.93054" lon="6.58973">
        <ele>1349</ele>
        <time>2022-07-14T12:17:22+0200</time>
      </trkpt>
      <trkpt lat="44.9305" lon="6.58978">
        <ele>1348.6</ele>
        <time>2022-07-14T12:17:24+0200</time>
      </trkpt>
      <trkpt lat="44.93047" lon="6.58984">
        <ele>1347.9</ele>
        <time>2022-07-14T12:17:26+0200</time>
      </trkpt>
      <trkpt lat="44.93042" lon="6.5899">
        <ele>1347.7</ele>
        <time>2022-07-14T12:17:28+0200</time>
      </trkpt>
      <trkpt lat="44.93036" lon="6.58996">
        <ele>1347.5</ele>
        <time>2022-07-14T12:17:30+0200</time>
      </trkpt>
      <trkpt lat="44.93031" lon="6.59001">
        <ele>1347.4</ele>
        <time>2022-07-14T12:17:31+0200</time>
      </trkpt>
      <trkpt lat="44.93026" lon="6.59004">
        <ele>1347.5</ele>
        <time>2022-07-14T12:17:32+0200</time>
      </trkpt>
      <trkpt lat="44.93018" lon="6.59011">
        <ele>1347.7</ele>
        <time>2022-07-14T12:17:33+0200</time>
      </trkpt>
      <trkpt lat="44.9301" lon="6.59019">
        <ele>1347.8</ele>
        <time>2022-07-14T12:17:34+0200</time>
      </trkpt>
      <trkpt lat="44.93" lon="6.59026">
        <ele>1348.2</ele>
        <time>2022-07-14T12:17:35+0200</time>
      </trkpt>
      <trkpt lat="44.92992" lon="6.59033">
        <ele>1348.3</ele>
        <time>2022-07-14T12:17:36+0200</time>
      </trkpt>
      <trkpt lat="44.92984" lon="6.5904">
        <ele>1348.2</ele>
        <time>2022-07-14T12:17:37+0200</time>
      </trkpt>
      <trkpt lat="44.92977" lon="6.59047">
        <ele>1348</ele>
        <time>2022-07-14T12:17:38+0200</time>
      </trkpt>
      <trkpt lat="44.92971" lon="6.59054">
        <ele>1347.7</ele>
        <time>2022-07-14T12:17:39+0200</time>
      </trkpt>
      <trkpt lat="44.92966" lon="6.59058">
        <ele>1347.8</ele>
        <time>2022-07-14T12:17:40+0200</time>
      </trkpt>
      <trkpt lat="44.92961" lon="6.59063">
        <ele>1347.6</ele>
        <time>2022-07-14T12:17:41+0200</time>
      </trkpt>
      <trkpt lat="44.92956" lon="6.59067">
        <ele>1347.8</ele>
        <time>2022-07-14T12:17:42+0200</time>
      </trkpt>
      <trkpt lat="44.92953" lon="6.59073">
        <ele>1346.9</ele>
        <time>2022-07-14T12:17:44+0200</time>
      </trkpt>
      <trkpt lat="44.92951" lon="6.59079">
        <ele>1346</ele>
        <time>2022-07-14T12:17:46+0200</time>
      </trkpt>
      <trkpt lat="44.92946" lon="6.59083">
        <ele>1345.8</ele>
        <time>2022-07-14T12:17:48+0200</time>
      </trkpt>
      <trkpt lat="44.92944" lon="6.5909">
        <ele>1345</ele>
        <time>2022-07-14T12:17:50+0200</time>
      </trkpt>
      <trkpt lat="44.92936" lon="6.59093">
        <ele>1346</ele>
        <time>2022-07-14T12:17:52+0200</time>
      </trkpt>
      <trkpt lat="44.92931" lon="6.591">
        <ele>1345.7</ele>
        <time>2022-07-14T12:17:54+0200</time>
      </trkpt>
      <trkpt lat="44.92926" lon="6.59103">
        <ele>1346</ele>
        <time>2022-07-14T12:17:55+0200</time>
      </trkpt>
      <trkpt lat="44.92921" lon="6.59106">
        <ele>1346.3</ele>
        <time>2022-07-14T12:17:56+0200</time>
      </trkpt>
      <trkpt lat="44.92916" lon="6.5911">
        <ele>1346.3</ele>
        <time>2022-07-14T12:17:57+0200</time>
      </trkpt>
      <trkpt lat="44.92914" lon="6.59117">
        <ele>1345.5</ele>
        <time>2022-07-14T12:17:58+0200</time>
      </trkpt>
      <trkpt lat="44.92911" lon="6.59123">
        <ele>1345.3</ele>
        <time>2022-07-14T12:17:59+0200</time>
      </trkpt>
      <trkpt lat="44.92906" lon="6.5913">
        <ele>1345.4</ele>
        <time>2022-07-14T12:18:00+0200</time>
      </trkpt>
      <trkpt lat="44.92903" lon="6.5914">
        <ele>1344.2</ele>
        <time>2022-07-14T12:18:02+0200</time>
      </trkpt>
      <trkpt lat="44.92901" lon="6.59154">
        <ele>1342.2</ele>
        <time>2022-07-14T12:18:04+0200</time>
      </trkpt>
      <trkpt lat="44.92896" lon="6.59163">
        <ele>1341.5</ele>
        <time>2022-07-14T12:18:05+0200</time>
      </trkpt>
      <trkpt lat="44.92892" lon="6.5917">
        <ele>1340.8</ele>
        <time>2022-07-14T12:18:06+0200</time>
      </trkpt>
      <trkpt lat="44.92889" lon="6.59179">
        <ele>1339.7</ele>
        <time>2022-07-14T12:18:07+0200</time>
      </trkpt>
      <trkpt lat="44.92885" lon="6.59186">
        <ele>1339.8</ele>
        <time>2022-07-14T12:18:08+0200</time>
      </trkpt>
      <trkpt lat="44.92879" lon="6.59196">
        <ele>1339.6</ele>
        <time>2022-07-14T12:18:10+0200</time>
      </trkpt>
      <trkpt lat="44.92875" lon="6.592">
        <ele>1340.1</ele>
        <time>2022-07-14T12:18:11+0200</time>
      </trkpt>
      <trkpt lat="44.92872" lon="6.59205">
        <ele>1340.3</ele>
        <time>2022-07-14T12:18:12+0200</time>
      </trkpt>
      <trkpt lat="44.92867" lon="6.59214">
        <ele>1340</ele>
        <time>2022-07-14T12:18:14+0200</time>
      </trkpt>
      <trkpt lat="44.92862" lon="6.59218">
        <ele>1340.6</ele>
        <time>2022-07-14T12:18:15+0200</time>
      </trkpt>
      <trkpt lat="44.92857" lon="6.5922">
        <ele>1341.5</ele>
        <time>2022-07-14T12:18:16+0200</time>
      </trkpt>
      <trkpt lat="44.92852" lon="6.59227">
        <ele>1342.2</ele>
        <time>2022-07-14T12:18:18+0200</time>
      </trkpt>
      <trkpt lat="44.92847" lon="6.59232">
        <ele>1342.8</ele>
        <time>2022-07-14T12:18:20+0200</time>
      </trkpt>
      <trkpt lat="44.92843" lon="6.59236">
        <ele>1343.1</ele>
        <time>2022-07-14T12:18:22+0200</time>
      </trkpt>
      <trkpt lat="44.92839" lon="6.59239">
        <ele>1343.7</ele>
        <time>2022-07-14T12:18:23+0200</time>
      </trkpt>
      <trkpt lat="44.92835" lon="6.59247">
        <ele>1343.1</ele>
        <time>2022-07-14T12:18:25+0200</time>
      </trkpt>
      <trkpt lat="44.92831" lon="6.59256">
        <ele>1342.4</ele>
        <time>2022-07-14T12:18:27+0200</time>
      </trkpt>
      <trkpt lat="44.92827" lon="6.59261">
        <ele>1343</ele>
        <time>2022-07-14T12:18:28+0200</time>
      </trkpt>
      <trkpt lat="44.92821" lon="6.59268">
        <ele>1343.3</ele>
        <time>2022-07-14T12:18:30+0200</time>
      </trkpt>
      <trkpt lat="44.92814" lon="6.59273">
        <ele>1344.6</ele>
        <time>2022-07-14T12:18:32+0200</time>
      </trkpt>
      <trkpt lat="44.92809" lon="6.59277">
        <ele>1345.3</ele>
        <time>2022-07-14T12:18:34+0200</time>
      </trkpt>
      <trkpt lat="44.92804" lon="6.59281">
        <ele>1345.9</ele>
        <time>2022-07-14T12:18:36+0200</time>
      </trkpt>
      <trkpt lat="44.92799" lon="6.59285">
        <ele>1346.4</ele>
        <time>2022-07-14T12:18:38+0200</time>
      </trkpt>
      <trkpt lat="44.92789" lon="6.59294">
        <ele>1347.7</ele>
        <time>2022-07-14T12:18:40+0200</time>
      </trkpt>
      <trkpt lat="44.92783" lon="6.59302">
        <ele>1347.7</ele>
        <time>2022-07-14T12:18:41+0200</time>
      </trkpt>
      <trkpt lat="44.92778" lon="6.59309">
        <ele>1347.9</ele>
        <time>2022-07-14T12:18:42+0200</time>
      </trkpt>
      <trkpt lat="44.92773" lon="6.59317">
        <ele>1347.6</ele>
        <time>2022-07-14T12:18:43+0200</time>
      </trkpt>
      <trkpt lat="44.92767" lon="6.59324">
        <ele>1347.6</ele>
        <time>2022-07-14T12:18:44+0200</time>
      </trkpt>
      <trkpt lat="44.92761" lon="6.59332">
        <ele>1347.5</ele>
        <time>2022-07-14T12:18:45+0200</time>
      </trkpt>
      <trkpt lat="44.92756" lon="6.59341">
        <ele>1346.9</ele>
        <time>2022-07-14T12:18:46+0200</time>
      </trkpt>
      <trkpt lat="44.9275" lon="6.59348">
        <ele>1346.7</ele>
        <time>2022-07-14T12:18:47+0200</time>
      </trkpt>
      <trkpt lat="44.92746" lon="6.59356">
        <ele>1345.8</ele>
        <time>2022-07-14T12:18:48+0200</time>
      </trkpt>
      <trkpt lat="44.92742" lon="6.59366">
        <ele>1344.9</ele>
        <time>2022-07-14T12:18:49+0200</time>
      </trkpt>
      <trkpt lat="44.92738" lon="6.59377">
        <ele>1344.1</ele>
        <time>2022-07-14T12:18:50+0200</time>
      </trkpt>
      <trkpt lat="44.92733" lon="6.59385">
        <ele>1343.6</ele>
        <time>2022-07-14T12:18:51+0200</time>
      </trkpt>
      <trkpt lat="44.92727" lon="6.59393">
        <ele>1343.4</ele>
        <time>2022-07-14T12:18:52+0200</time>
      </trkpt>
      <trkpt lat="44.92722" lon="6.594">
        <ele>1343.3</ele>
        <time>2022-07-14T12:18:53+0200</time>
      </trkpt>
      <trkpt lat="44.92716" lon="6.59409">
        <ele>1343.2</ele>
        <time>2022-07-14T12:18:54+0200</time>
      </trkpt>
      <trkpt lat="44.92709" lon="6.59418">
        <ele>1342.8</ele>
        <time>2022-07-14T12:18:55+0200</time>
      </trkpt>
      <trkpt lat="44.92702" lon="6.59429">
        <ele>1342.7</ele>
        <time>2022-07-14T12:18:56+0200</time>
      </trkpt>
      <trkpt lat="44.92698" lon="6.59439">
        <ele>1341.6</ele>
        <time>2022-07-14T12:18:57+0200</time>
      </trkpt>
      <trkpt lat="44.92696" lon="6.59446">
        <ele>1340.4</ele>
        <time>2022-07-14T12:18:58+0200</time>
      </trkpt>
      <trkpt lat="44.92695" lon="6.59453">
        <ele>1339.4</ele>
        <time>2022-07-14T12:18:59+0200</time>
      </trkpt>
      <trkpt lat="44.92693" lon="6.59459">
        <ele>1338.9</ele>
        <time>2022-07-14T12:19:00+0200</time>
      </trkpt>
      <trkpt lat="44.92688" lon="6.59468">
        <ele>1338.9</ele>
        <time>2022-07-14T12:19:01+0200</time>
      </trkpt>
      <trkpt lat="44.92682" lon="6.59477">
        <ele>1339.1</ele>
        <time>2022-07-14T12:19:02+0200</time>
      </trkpt>
      <trkpt lat="44.92677" lon="6.59485">
        <ele>1339.2</ele>
        <time>2022-07-14T12:19:03+0200</time>
      </trkpt>
      <trkpt lat="44.92671" lon="6.59492">
        <ele>1339.5</ele>
        <time>2022-07-14T12:19:04+0200</time>
      </trkpt>
      <trkpt lat="44.92664" lon="6.59499">
        <ele>1340.1</ele>
        <time>2022-07-14T12:19:05+0200</time>
      </trkpt>
      <trkpt lat="44.92658" lon="6.59507">
        <ele>1341</ele>
        <time>2022-07-14T12:19:06+0200</time>
      </trkpt>
      <trkpt lat="44.92653" lon="6.59514">
        <ele>1341.3</ele>
        <time>2022-07-14T12:19:07+0200</time>
      </trkpt>
      <trkpt lat="44.92649" lon="6.5952">
        <ele>1341.6</ele>
        <time>2022-07-14T12:19:08+0200</time>
      </trkpt>
      <trkpt lat="44.92642" lon="6.59528">
        <ele>1342.1</ele>
        <time>2022-07-14T12:19:09+0200</time>
      </trkpt>
      <trkpt lat="44.92632" lon="6.59536">
        <ele>1344.5</ele>
        <time>2022-07-14T12:19:10+0200</time>
      </trkpt>
      <trkpt lat="44.92624" lon="6.59545">
        <ele>1345.8</ele>
        <time>2022-07-14T12:19:11+0200</time>
      </trkpt>
      <trkpt lat="44.92618" lon="6.59555">
        <ele>1346.3</ele>
        <time>2022-07-14T12:19:12+0200</time>
      </trkpt>
      <trkpt lat="44.92613" lon="6.59565">
        <ele>1346.4</ele>
        <time>2022-07-14T12:19:13+0200</time>
      </trkpt>
      <trkpt lat="44.92611" lon="6.59578">
        <ele>1344.3</ele>
        <time>2022-07-14T12:19:14+0200</time>
      </trkpt>
      <trkpt lat="44.92608" lon="6.59589">
        <ele>1343.1</ele>
        <time>2022-07-14T12:19:15+0200</time>
      </trkpt>
      <trkpt lat="44.92603" lon="6.59601">
        <ele>1342.4</ele>
        <time>2022-07-14T12:19:16+0200</time>
      </trkpt>
      <trkpt lat="44.92598" lon="6.59612">
        <ele>1342.1</ele>
        <time>2022-07-14T12:19:17+0200</time>
      </trkpt>
      <trkpt lat="44.92594" lon="6.59625">
        <ele>1341.2</ele>
        <time>2022-07-14T12:19:18+0200</time>
      </trkpt>
      <trkpt lat="44.9259" lon="6.59638">
        <ele>1339.8</ele>
        <time>2022-07-14T12:19:19+0200</time>
      </trkpt>
      <trkpt lat="44.92587" lon="6.59648">
        <ele>1338.7</ele>
        <time>2022-07-14T12:19:20+0200</time>
      </trkpt>
      <trkpt lat="44.92583" lon="6.59659">
        <ele>1337.7</ele>
        <time>2022-07-14T12:19:21+0200</time>
      </trkpt>
      <trkpt lat="44.9258" lon="6.59671">
        <ele>1336.5</ele>
        <time>2022-07-14T12:19:22+0200</time>
      </trkpt>
      <trkpt lat="44.92576" lon="6.59682">
        <ele>1336.4</ele>
        <time>2022-07-14T12:19:23+0200</time>
      </trkpt>
      <trkpt lat="44.9257" lon="6.59693">
        <ele>1336.6</ele>
        <time>2022-07-14T12:19:24+0200</time>
      </trkpt>
      <trkpt lat="44.92564" lon="6.59704">
        <ele>1336.6</ele>
        <time>2022-07-14T12:19:25+0200</time>
      </trkpt>
      <trkpt lat="44.92558" lon="6.59713">
        <ele>1336.7</ele>
        <time>2022-07-14T12:19:26+0200</time>
      </trkpt>
      <trkpt lat="44.92553" lon="6.5972">
        <ele>1337</ele>
        <time>2022-07-14T12:19:27+0200</time>
      </trkpt>
      <trkpt lat="44.92548" lon="6.59724">
        <ele>1337.7</ele>
        <time>2022-07-14T12:19:28+0200</time>
      </trkpt>
      <trkpt lat="44.92545" lon="6.59732">
        <ele>1337.1</ele>
        <time>2022-07-14T12:19:29+0200</time>
      </trkpt>
      <trkpt lat="44.92539" lon="6.59741">
        <ele>1337.4</ele>
        <time>2022-07-14T12:19:30+0200</time>
      </trkpt>
      <trkpt lat="44.92535" lon="6.59749">
        <ele>1336.9</ele>
        <time>2022-07-14T12:19:31+0200</time>
      </trkpt>
      <trkpt lat="44.92532" lon="6.59759">
        <ele>1335.8</ele>
        <time>2022-07-14T12:19:32+0200</time>
      </trkpt>
      <trkpt lat="44.92529" lon="6.59767">
        <ele>1334.5</ele>
        <time>2022-07-14T12:19:33+0200</time>
      </trkpt>
      <trkpt lat="44.92525" lon="6.59775">
        <ele>1334.1</ele>
        <time>2022-07-14T12:19:34+0200</time>
      </trkpt>
      <trkpt lat="44.92521" lon="6.59783">
        <ele>1334.1</ele>
        <time>2022-07-14T12:19:35+0200</time>
      </trkpt>
      <trkpt lat="44.92517" lon="6.59789">
        <ele>1334.2</ele>
        <time>2022-07-14T12:19:36+0200</time>
      </trkpt>
      <trkpt lat="44.92513" lon="6.59794">
        <ele>1334.9</ele>
        <time>2022-07-14T12:19:37+0200</time>
      </trkpt>
      <trkpt lat="44.9251" lon="6.59802">
        <ele>1334</ele>
        <time>2022-07-14T12:19:38+0200</time>
      </trkpt>
      <trkpt lat="44.92508" lon="6.5981">
        <ele>1333</ele>
        <time>2022-07-14T12:19:39+0200</time>
      </trkpt>
      <trkpt lat="44.92502" lon="6.59819">
        <ele>1332.6</ele>
        <time>2022-07-14T12:19:41+0200</time>
      </trkpt>
      <trkpt lat="44.92499" lon="6.59824">
        <ele>1332.5</ele>
        <time>2022-07-14T12:19:42+0200</time>
      </trkpt>
      <trkpt lat="44.92495" lon="6.59832">
        <ele>1332.3</ele>
        <time>2022-07-14T12:19:43+0200</time>
      </trkpt>
      <trkpt lat="44.92493" lon="6.5984">
        <ele>1331.4</ele>
        <time>2022-07-14T12:19:44+0200</time>
      </trkpt>
      <trkpt lat="44.92489" lon="6.59848">
        <ele>1332</ele>
        <time>2022-07-14T12:19:45+0200</time>
      </trkpt>
      <trkpt lat="44.92486" lon="6.59853">
        <ele>1332.2</ele>
        <time>2022-07-14T12:19:47+0200</time>
      </trkpt>
      <trkpt lat="44.92484" lon="6.59861">
        <ele>1331.3</ele>
        <time>2022-07-14T12:19:49+0200</time>
      </trkpt>
      <trkpt lat="44.92482" lon="6.59871">
        <ele>1329.8</ele>
        <time>2022-07-14T12:19:51+0200</time>
      </trkpt>
      <trkpt lat="44.92476" lon="6.59883">
        <ele>1329.3</ele>
        <time>2022-07-14T12:19:53+0200</time>
      </trkpt>
      <trkpt lat="44.92471" lon="6.59889">
        <ele>1329.5</ele>
        <time>2022-07-14T12:19:54+0200</time>
      </trkpt>
      <trkpt lat="44.92468" lon="6.59896">
        <ele>1330</ele>
        <time>2022-07-14T12:19:55+0200</time>
      </trkpt>
      <trkpt lat="44.92465" lon="6.59903">
        <ele>1330.6</ele>
        <time>2022-07-14T12:19:56+0200</time>
      </trkpt>
      <trkpt lat="44.92463" lon="6.59909">
        <ele>1330.6</ele>
        <time>2022-07-14T12:19:57+0200</time>
      </trkpt>
      <trkpt lat="44.92455" lon="6.59921">
        <ele>1332.1</ele>
        <time>2022-07-14T12:19:59+0200</time>
      </trkpt>
      <trkpt lat="44.9245" lon="6.59929">
        <ele>1332.9</ele>
        <time>2022-07-14T12:20:00+0200</time>
      </trkpt>
      <trkpt lat="44.92446" lon="6.59935">
        <ele>1333.3</ele>
        <time>2022-07-14T12:20:01+0200</time>
      </trkpt>
      <trkpt lat="44.92445" lon="6.59941">
        <ele>1332.5</ele>
        <time>2022-07-14T12:20:02+0200</time>
      </trkpt>
      <trkpt lat="44.92444" lon="6.5995">
        <ele>1331.2</ele>
        <time>2022-07-14T12:20:03+0200</time>
      </trkpt>
      <trkpt lat="44.92441" lon="6.59958">
        <ele>1331.4</ele>
        <time>2022-07-14T12:20:04+0200</time>
      </trkpt>
      <trkpt lat="44.92439" lon="6.59964">
        <ele>1331.4</ele>
        <time>2022-07-14T12:20:05+0200</time>
      </trkpt>
      <trkpt lat="44.92437" lon="6.59971">
        <ele>1330.9</ele>
        <time>2022-07-14T12:20:06+0200</time>
      </trkpt>
      <trkpt lat="44.92435" lon="6.59979">
        <ele>1330.5</ele>
        <time>2022-07-14T12:20:07+0200</time>
      </trkpt>
      <trkpt lat="44.92434" lon="6.59986">
        <ele>1329.8</ele>
        <time>2022-07-14T12:20:08+0200</time>
      </trkpt>
      <trkpt lat="44.92434" lon="6.59993">
        <ele>1328.9</ele>
        <time>2022-07-14T12:20:09+0200</time>
      </trkpt>
      <trkpt lat="44.92432" lon="6.60001">
        <ele>1328.2</ele>
        <time>2022-07-14T12:20:10+0200</time>
      </trkpt>
      <trkpt lat="44.92431" lon="6.6001">
        <ele>1327.3</ele>
        <time>2022-07-14T12:20:11+0200</time>
      </trkpt>
      <trkpt lat="44.92433" lon="6.60019">
        <ele>1325.3</ele>
        <time>2022-07-14T12:20:12+0200</time>
      </trkpt>
      <trkpt lat="44.92432" lon="6.6003">
        <ele>1324.1</ele>
        <time>2022-07-14T12:20:13+0200</time>
      </trkpt>
      <trkpt lat="44.9243" lon="6.60036">
        <ele>1324.3</ele>
        <time>2022-07-14T12:20:14+0200</time>
      </trkpt>
      <trkpt lat="44.92432" lon="6.60045">
        <ele>1322.8</ele>
        <time>2022-07-14T12:20:15+0200</time>
      </trkpt>
      <trkpt lat="44.92436" lon="6.60053">
        <ele>1320.9</ele>
        <time>2022-07-14T12:20:16+0200</time>
      </trkpt>
      <trkpt lat="44.92442" lon="6.6006">
        <ele>1318.4</ele>
        <time>2022-07-14T12:20:17+0200</time>
      </trkpt>
      <trkpt lat="44.92448" lon="6.60067">
        <ele>1316.8</ele>
        <time>2022-07-14T12:20:18+0200</time>
      </trkpt>
      <trkpt lat="44.92452" lon="6.60073">
        <ele>1316</ele>
        <time>2022-07-14T12:20:19+0200</time>
      </trkpt>
      <trkpt lat="44.92456" lon="6.6008">
        <ele>1315.3</ele>
        <time>2022-07-14T12:20:20+0200</time>
      </trkpt>
      <trkpt lat="44.9246" lon="6.60087">
        <ele>1314.7</ele>
        <time>2022-07-14T12:20:21+0200</time>
      </trkpt>
      <trkpt lat="44.92466" lon="6.60093">
        <ele>1314.3</ele>
        <time>2022-07-14T12:20:22+0200</time>
      </trkpt>
      <trkpt lat="44.92471" lon="6.60099">
        <ele>1314</ele>
        <time>2022-07-14T12:20:23+0200</time>
      </trkpt>
      <trkpt lat="44.92474" lon="6.60105">
        <ele>1314.3</ele>
        <time>2022-07-14T12:20:24+0200</time>
      </trkpt>
      <trkpt lat="44.92475" lon="6.60113">
        <ele>1314.4</ele>
        <time>2022-07-14T12:20:26+0200</time>
      </trkpt>
      <trkpt lat="44.92477" lon="6.60123">
        <ele>1314.7</ele>
        <time>2022-07-14T12:20:29+0200</time>
      </trkpt>
      <trkpt lat="44.92481" lon="6.60132">
        <ele>1315</ele>
        <time>2022-07-14T12:20:31+0200</time>
      </trkpt>
      <trkpt lat="44.92484" lon="6.60143">
        <ele>1315.4</ele>
        <time>2022-07-14T12:20:33+0200</time>
      </trkpt>
      <trkpt lat="44.92487" lon="6.60151">
        <ele>1315.8</ele>
        <time>2022-07-14T12:20:35+0200</time>
      </trkpt>
      <trkpt lat="44.92489" lon="6.60157">
        <ele>1316.1</ele>
        <time>2022-07-14T12:20:37+0200</time>
      </trkpt>
      <trkpt lat="44.92492" lon="6.60165">
        <ele>1316.4</ele>
        <time>2022-07-14T12:20:40+0200</time>
      </trkpt>
      <trkpt lat="44.92494" lon="6.60173">
        <ele>1317</ele>
        <time>2022-07-14T12:20:42+0200</time>
      </trkpt>
      <trkpt lat="44.92494" lon="6.60181">
        <ele>1317.5</ele>
        <time>2022-07-14T12:20:44+0200</time>
      </trkpt>
      <trkpt lat="44.92493" lon="6.60189">
        <ele>1317.8</ele>
        <time>2022-07-14T12:20:46+0200</time>
      </trkpt>
      <trkpt lat="44.92491" lon="6.60196">
        <ele>1318.1</ele>
        <time>2022-07-14T12:20:48+0200</time>
      </trkpt>
      <trkpt lat="44.9249" lon="6.60204">
        <ele>1318.2</ele>
        <time>2022-07-14T12:20:50+0200</time>
      </trkpt>
      <trkpt lat="44.92488" lon="6.6021">
        <ele>1318.3</ele>
        <time>2022-07-14T12:20:52+0200</time>
      </trkpt>
      <trkpt lat="44.92487" lon="6.60217">
        <ele>1318.4</ele>
        <time>2022-07-14T12:20:54+0200</time>
      </trkpt>
      <trkpt lat="44.92486" lon="6.60225">
        <ele>1318.6</ele>
        <time>2022-07-14T12:20:56+0200</time>
      </trkpt>
      <trkpt lat="44.92488" lon="6.60235">
        <ele>1319.1</ele>
        <time>2022-07-14T12:20:58+0200</time>
      </trkpt>
      <trkpt lat="44.92489" lon="6.60242">
        <ele>1319.6</ele>
        <time>2022-07-14T12:21:00+0200</time>
      </trkpt>
      <trkpt lat="44.92493" lon="6.60251">
        <ele>1320.2</ele>
        <time>2022-07-14T12:21:02+0200</time>
      </trkpt>
      <trkpt lat="44.92494" lon="6.6026">
        <ele>1320.7</ele>
        <time>2022-07-14T12:21:04+0200</time>
      </trkpt>
      <trkpt lat="44.92495" lon="6.6027">
        <ele>1321.1</ele>
        <time>2022-07-14T12:21:06+0200</time>
      </trkpt>
      <trkpt lat="44.92497" lon="6.60278">
        <ele>1321.7</ele>
        <time>2022-07-14T12:21:08+0200</time>
      </trkpt>
      <trkpt lat="44.92499" lon="6.60284">
        <ele>1322.1</ele>
        <time>2022-07-14T12:21:09+0200</time>
      </trkpt>
      <trkpt lat="44.92503" lon="6.60292">
        <ele>1322.9</ele>
        <time>2022-07-14T12:21:11+0200</time>
      </trkpt>
      <trkpt lat="44.92509" lon="6.603">
        <ele>1323.8</ele>
        <time>2022-07-14T12:21:13+0200</time>
      </trkpt>
      <trkpt lat="44.92516" lon="6.60308">
        <ele>1324.8</ele>
        <time>2022-07-14T12:21:15+0200</time>
      </trkpt>
      <trkpt lat="44.9252" lon="6.60312">
        <ele>1325.2</ele>
        <time>2022-07-14T12:21:16+0200</time>
      </trkpt>
      <trkpt lat="44.92526" lon="6.60321">
        <ele>1325.9</ele>
        <time>2022-07-14T12:21:18+0200</time>
      </trkpt>
      <trkpt lat="44.92533" lon="6.60329">
        <ele>1326.7</ele>
        <time>2022-07-14T12:21:20+0200</time>
      </trkpt>
      <trkpt lat="44.92537" lon="6.60334">
        <ele>1327.4</ele>
        <time>2022-07-14T12:21:22+0200</time>
      </trkpt>
      <trkpt lat="44.92542" lon="6.60339">
        <ele>1328.1</ele>
        <time>2022-07-14T12:21:25+0200</time>
      </trkpt>
      <trkpt lat="44.92546" lon="6.60344">
        <ele>1328.7</ele>
        <time>2022-07-14T12:21:27+0200</time>
      </trkpt>
      <trkpt lat="44.9255" lon="6.60349">
        <ele>1329.3</ele>
        <time>2022-07-14T12:21:29+0200</time>
      </trkpt>
      <trkpt lat="44.92553" lon="6.60355">
        <ele>1329.7</ele>
        <time>2022-07-14T12:21:31+0200</time>
      </trkpt>
      <trkpt lat="44.92557" lon="6.6036">
        <ele>1330.2</ele>
        <time>2022-07-14T12:21:33+0200</time>
      </trkpt>
      <trkpt lat="44.92562" lon="6.60363">
        <ele>1331.1</ele>
        <time>2022-07-14T12:21:35+0200</time>
      </trkpt>
      <trkpt lat="44.92559" lon="6.60369">
        <ele>1331.5</ele>
        <time>2022-07-14T12:21:39+0200</time>
      </trkpt>
      <trkpt lat="44.92567" lon="6.60376">
        <ele>1332.6</ele>
        <time>2022-07-14T12:21:41+0200</time>
      </trkpt>
      <trkpt lat="44.92572" lon="6.60381">
        <ele>1333.1</ele>
        <time>2022-07-14T12:21:42+0200</time>
      </trkpt>
      <trkpt lat="44.92576" lon="6.60385">
        <ele>1333.2</ele>
        <time>2022-07-14T12:21:44+0200</time>
      </trkpt>
      <trkpt lat="44.92581" lon="6.60386">
        <ele>1333.2</ele>
        <time>2022-07-14T12:21:46+0200</time>
      </trkpt>
      <trkpt lat="44.92585" lon="6.60393">
        <ele>1333.1</ele>
        <time>2022-07-14T12:21:48+0200</time>
      </trkpt>
      <trkpt lat="44.92589" lon="6.60397">
        <ele>1333.4</ele>
        <time>2022-07-14T12:21:49+0200</time>
      </trkpt>
      <trkpt lat="44.92592" lon="6.60401">
        <ele>1333.6</ele>
        <time>2022-07-14T12:21:50+0200</time>
      </trkpt>
      <trkpt lat="44.92598" lon="6.60408">
        <ele>1334</ele>
        <time>2022-07-14T12:21:52+0200</time>
      </trkpt>
      <trkpt lat="44.926" lon="6.60416">
        <ele>1334.2</ele>
        <time>2022-07-14T12:21:54+0200</time>
      </trkpt>
      <trkpt lat="44.92602" lon="6.60424">
        <ele>1334.3</ele>
        <time>2022-07-14T12:21:56+0200</time>
      </trkpt>
      <trkpt lat="44.92602" lon="6.60432">
        <ele>1334.3</ele>
        <time>2022-07-14T12:21:58+0200</time>
      </trkpt>
      <trkpt lat="44.926" lon="6.60438">
        <ele>1334.2</ele>
        <time>2022-07-14T12:22:00+0200</time>
      </trkpt>
      <trkpt lat="44.92599" lon="6.60446">
        <ele>1334.1</ele>
        <time>2022-07-14T12:22:02+0200</time>
      </trkpt>
      <trkpt lat="44.92596" lon="6.60453">
        <ele>1333.9</ele>
        <time>2022-07-14T12:22:04+0200</time>
      </trkpt>
      <trkpt lat="44.92594" lon="6.60462">
        <ele>1333.8</ele>
        <time>2022-07-14T12:22:06+0200</time>
      </trkpt>
      <trkpt lat="44.92593" lon="6.60473">
        <ele>1333.7</ele>
        <time>2022-07-14T12:22:08+0200</time>
      </trkpt>
      <trkpt lat="44.9259" lon="6.6048">
        <ele>1333.7</ele>
        <time>2022-07-14T12:22:10+0200</time>
      </trkpt>
      <trkpt lat="44.92587" lon="6.60486">
        <ele>1333.8</ele>
        <time>2022-07-14T12:22:12+0200</time>
      </trkpt>
      <trkpt lat="44.92586" lon="6.60496">
        <ele>1334</ele>
        <time>2022-07-14T12:22:15+0200</time>
      </trkpt>
      <trkpt lat="44.92588" lon="6.60502">
        <ele>1334.4</ele>
        <time>2022-07-14T12:22:17+0200</time>
      </trkpt>
      <trkpt lat="44.92592" lon="6.60511">
        <ele>1335</ele>
        <time>2022-07-14T12:22:19+0200</time>
      </trkpt>
      <trkpt lat="44.92593" lon="6.60518">
        <ele>1335.3</ele>
        <time>2022-07-14T12:22:21+0200</time>
      </trkpt>
      <trkpt lat="44.92595" lon="6.60528">
        <ele>1335.8</ele>
        <time>2022-07-14T12:22:24+0200</time>
      </trkpt>
      <trkpt lat="44.92593" lon="6.60535">
        <ele>1336.2</ele>
        <time>2022-07-14T12:22:27+0200</time>
      </trkpt>
      <trkpt lat="44.92594" lon="6.60542">
        <ele>1336.8</ele>
        <time>2022-07-14T12:22:29+0200</time>
      </trkpt>
      <trkpt lat="44.92594" lon="6.60551">
        <ele>1337.4</ele>
        <time>2022-07-14T12:22:31+0200</time>
      </trkpt>
      <trkpt lat="44.92594" lon="6.60559">
        <ele>1338</ele>
        <time>2022-07-14T12:22:33+0200</time>
      </trkpt>
      <trkpt lat="44.92596" lon="6.60567">
        <ele>1338.7</ele>
        <time>2022-07-14T12:22:35+0200</time>
      </trkpt>
      <trkpt lat="44.92596" lon="6.60574">
        <ele>1339.3</ele>
        <time>2022-07-14T12:22:37+0200</time>
      </trkpt>
      <trkpt lat="44.92597" lon="6.60585">
        <ele>1340.1</ele>
        <time>2022-07-14T12:22:39+0200</time>
      </trkpt>
      <trkpt lat="44.926" lon="6.60592">
        <ele>1340.8</ele>
        <time>2022-07-14T12:22:41+0200</time>
      </trkpt>
      <trkpt lat="44.92601" lon="6.60599">
        <ele>1341.4</ele>
        <time>2022-07-14T12:22:43+0200</time>
      </trkpt>
      <trkpt lat="44.92602" lon="6.60607">
        <ele>1342</ele>
        <time>2022-07-14T12:22:45+0200</time>
      </trkpt>
      <trkpt lat="44.92602" lon="6.60614">
        <ele>1342.5</ele>
        <time>2022-07-14T12:22:47+0200</time>
      </trkpt>
      <trkpt lat="44.92602" lon="6.60621">
        <ele>1343</ele>
        <time>2022-07-14T12:22:50+0200</time>
      </trkpt>
      <trkpt lat="44.92605" lon="6.60629">
        <ele>1343.9</ele>
        <time>2022-07-14T12:22:54+0200</time>
      </trkpt>
      <trkpt lat="44.92608" lon="6.60635">
        <ele>1344.4</ele>
        <time>2022-07-14T12:22:57+0200</time>
      </trkpt>
      <trkpt lat="44.92607" lon="6.60642">
        <ele>1344.9</ele>
        <time>2022-07-14T12:23:00+0200</time>
      </trkpt>
      <trkpt lat="44.92606" lon="6.6065">
        <ele>1345.4</ele>
        <time>2022-07-14T12:23:03+0200</time>
      </trkpt>
      <trkpt lat="44.926" lon="6.60657">
        <ele>1345.5</ele>
        <time>2022-07-14T12:23:06+0200</time>
      </trkpt>
      <trkpt lat="44.92597" lon="6.60663">
        <ele>1345.7</ele>
        <time>2022-07-14T12:23:09+0200</time>
      </trkpt>
      <trkpt lat="44.92593" lon="6.6067">
        <ele>1345.9</ele>
        <time>2022-07-14T12:23:11+0200</time>
      </trkpt>
      <trkpt lat="44.9259" lon="6.60675">
        <ele>1346</ele>
        <time>2022-07-14T12:23:14+0200</time>
      </trkpt>
      <trkpt lat="44.92588" lon="6.60681">
        <ele>1346.3</ele>
        <time>2022-07-14T12:23:18+0200</time>
      </trkpt>
      <trkpt lat="44.92586" lon="6.60688">
        <ele>1346.7</ele>
        <time>2022-07-14T12:23:20+0200</time>
      </trkpt>
      <trkpt lat="44.92586" lon="6.60695">
        <ele>1347.2</ele>
        <time>2022-07-14T12:23:21+0200</time>
      </trkpt>
      <trkpt lat="44.92585" lon="6.60708">
        <ele>1348.1</ele>
        <time>2022-07-14T12:23:23+0200</time>
      </trkpt>
      <trkpt lat="44.92586" lon="6.60717">
        <ele>1348.8</ele>
        <time>2022-07-14T12:23:25+0200</time>
      </trkpt>
      <trkpt lat="44.92583" lon="6.60727">
        <ele>1349.3</ele>
        <time>2022-07-14T12:23:27+0200</time>
      </trkpt>
      <trkpt lat="44.92582" lon="6.60733">
        <ele>1349.7</ele>
        <time>2022-07-14T12:23:29+0200</time>
      </trkpt>
      <trkpt lat="44.92577" lon="6.60739">
        <ele>1349.8</ele>
        <time>2022-07-14T12:23:34+0200</time>
      </trkpt>
      <trkpt lat="44.92575" lon="6.60746">
        <ele>1350.1</ele>
        <time>2022-07-14T12:23:37+0200</time>
      </trkpt>
      <trkpt lat="44.92574" lon="6.60753">
        <ele>1350.5</ele>
        <time>2022-07-14T12:23:39+0200</time>
      </trkpt>
      <trkpt lat="44.92574" lon="6.60761">
        <ele>1351.2</ele>
        <time>2022-07-14T12:23:42+0200</time>
      </trkpt>
      <trkpt lat="44.92576" lon="6.60767">
        <ele>1351.8</ele>
        <time>2022-07-14T12:23:45+0200</time>
      </trkpt>
      <trkpt lat="44.92576" lon="6.60774">
        <ele>1352.4</ele>
        <time>2022-07-14T12:23:48+0200</time>
      </trkpt>
      <trkpt lat="44.92577" lon="6.60783">
        <ele>1353.1</ele>
        <time>2022-07-14T12:23:52+0200</time>
      </trkpt>
      <trkpt lat="44.92579" lon="6.6079">
        <ele>1353.6</ele>
        <time>2022-07-14T12:23:54+0200</time>
      </trkpt>
      <trkpt lat="44.9258" lon="6.60798">
        <ele>1354.2</ele>
        <time>2022-07-14T12:23:56+0200</time>
      </trkpt>
      <trkpt lat="44.92579" lon="6.60805">
        <ele>1354.6</ele>
        <time>2022-07-14T12:23:58+0200</time>
      </trkpt>
      <trkpt lat="44.92577" lon="6.60811">
        <ele>1354.8</ele>
        <time>2022-07-14T12:24:01+0200</time>
      </trkpt>
      <trkpt lat="44.92575" lon="6.60817">
        <ele>1355</ele>
        <time>2022-07-14T12:24:02+0200</time>
      </trkpt>
      <trkpt lat="44.92576" lon="6.60824">
        <ele>1355.3</ele>
        <time>2022-07-14T12:24:04+0200</time>
      </trkpt>
      <trkpt lat="44.92577" lon="6.60831">
        <ele>1355.7</ele>
        <time>2022-07-14T12:24:06+0200</time>
      </trkpt>
      <trkpt lat="44.92579" lon="6.60838">
        <ele>1356.1</ele>
        <time>2022-07-14T12:24:10+0200</time>
      </trkpt>
      <trkpt lat="44.92581" lon="6.60845">
        <ele>1356.7</ele>
        <time>2022-07-14T12:24:13+0200</time>
      </trkpt>
      <trkpt lat="44.92586" lon="6.60849">
        <ele>1357.4</ele>
        <time>2022-07-14T12:24:16+0200</time>
      </trkpt>
      <trkpt lat="44.9259" lon="6.60855">
        <ele>1358.3</ele>
        <time>2022-07-14T12:24:20+0200</time>
      </trkpt>
      <trkpt lat="44.92593" lon="6.60862">
        <ele>1359.1</ele>
        <time>2022-07-14T12:24:23+0200</time>
      </trkpt>
      <trkpt lat="44.92596" lon="6.60866">
        <ele>1359.8</ele>
        <time>2022-07-14T12:24:25+0200</time>
      </trkpt>
      <trkpt lat="44.926" lon="6.60872">
        <ele>1360.6</ele>
        <time>2022-07-14T12:24:27+0200</time>
      </trkpt>
      <trkpt lat="44.92604" lon="6.60879">
        <ele>1361.4</ele>
        <time>2022-07-14T12:24:31+0200</time>
      </trkpt>
      <trkpt lat="44.92607" lon="6.60884">
        <ele>1362.2</ele>
        <time>2022-07-14T12:24:34+0200</time>
      </trkpt>
      <trkpt lat="44.9261" lon="6.60891">
        <ele>1363</ele>
        <time>2022-07-14T12:24:39+0200</time>
      </trkpt>
      <trkpt lat="44.92615" lon="6.60897">
        <ele>1363.6</ele>
        <time>2022-07-14T12:24:42+0200</time>
      </trkpt>
      <trkpt lat="44.92618" lon="6.60901">
        <ele>1364</ele>
        <time>2022-07-14T12:24:45+0200</time>
      </trkpt>
      <trkpt lat="44.92622" lon="6.60907">
        <ele>1364.6</ele>
        <time>2022-07-14T12:24:47+0200</time>
      </trkpt>
      <trkpt lat="44.92625" lon="6.60912">
        <ele>1365.2</ele>
        <time>2022-07-14T12:24:49+0200</time>
      </trkpt>
      <trkpt lat="44.92628" lon="6.60917">
        <ele>1365.9</ele>
        <time>2022-07-14T12:24:51+0200</time>
      </trkpt>
      <trkpt lat="44.9263" lon="6.60924">
        <ele>1366.7</ele>
        <time>2022-07-14T12:24:55+0200</time>
      </trkpt>
      <trkpt lat="44.92631" lon="6.60931">
        <ele>1367.3</ele>
        <time>2022-07-14T12:24:57+0200</time>
      </trkpt>
      <trkpt lat="44.92634" lon="6.60936">
        <ele>1368</ele>
        <time>2022-07-14T12:25:00+0200</time>
      </trkpt>
      <trkpt lat="44.92635" lon="6.60942">
        <ele>1368.6</ele>
        <time>2022-07-14T12:25:03+0200</time>
      </trkpt>
      <trkpt lat="44.92638" lon="6.60949">
        <ele>1369.3</ele>
        <time>2022-07-14T12:25:06+0200</time>
      </trkpt>
      <trkpt lat="44.92641" lon="6.60955">
        <ele>1369.9</ele>
        <time>2022-07-14T12:25:09+0200</time>
      </trkpt>
      <trkpt lat="44.92645" lon="6.60958">
        <ele>1370.4</ele>
        <time>2022-07-14T12:25:13+0200</time>
      </trkpt>
      <trkpt lat="44.9265" lon="6.60959">
        <ele>1370.9</ele>
        <time>2022-07-14T12:25:17+0200</time>
      </trkpt>
      <trkpt lat="44.92655" lon="6.60961">
        <ele>1371.3</ele>
        <time>2022-07-14T12:25:19+0200</time>
      </trkpt>
      <trkpt lat="44.92656" lon="6.6097">
        <ele>1372.1</ele>
        <time>2022-07-14T12:25:22+0200</time>
      </trkpt>
      <trkpt lat="44.92659" lon="6.60977">
        <ele>1372.9</ele>
        <time>2022-07-14T12:25:24+0200</time>
      </trkpt>
      <trkpt lat="44.92662" lon="6.60981">
        <ele>1373.7</ele>
        <time>2022-07-14T12:25:26+0200</time>
      </trkpt>
      <trkpt lat="44.92667" lon="6.60988">
        <ele>1374.7</ele>
        <time>2022-07-14T12:25:29+0200</time>
      </trkpt>
      <trkpt lat="44.92669" lon="6.60994">
        <ele>1375.6</ele>
        <time>2022-07-14T12:25:33+0200</time>
      </trkpt>
      <trkpt lat="44.92671" lon="6.61002">
        <ele>1376.4</ele>
        <time>2022-07-14T12:25:38+0200</time>
      </trkpt>
      <trkpt lat="44.92671" lon="6.6101">
        <ele>1377</ele>
        <time>2022-07-14T12:25:41+0200</time>
      </trkpt>
      <trkpt lat="44.92675" lon="6.61012">
        <ele>1377.5</ele>
        <time>2022-07-14T12:25:47+0200</time>
      </trkpt>
      <trkpt lat="44.9268" lon="6.61009">
        <ele>1377.6</ele>
        <time>2022-07-14T12:25:52+0200</time>
      </trkpt>
      <trkpt lat="44.92685" lon="6.6101">
        <ele>1378</ele>
        <time>2022-07-14T12:25:54+0200</time>
      </trkpt>
      <trkpt lat="44.9269" lon="6.61013">
        <ele>1378.6</ele>
        <time>2022-07-14T12:25:56+0200</time>
      </trkpt>
      <trkpt lat="44.92695" lon="6.61019">
        <ele>1379.4</ele>
        <time>2022-07-14T12:25:58+0200</time>
      </trkpt>
      <trkpt lat="44.92699" lon="6.61023">
        <ele>1380.1</ele>
        <time>2022-07-14T12:26:00+0200</time>
      </trkpt>
      <trkpt lat="44.92705" lon="6.61027">
        <ele>1380.7</ele>
        <time>2022-07-14T12:26:02+0200</time>
      </trkpt>
      <trkpt lat="44.9271" lon="6.61031">
        <ele>1381.4</ele>
        <time>2022-07-14T12:26:05+0200</time>
      </trkpt>
      <trkpt lat="44.92715" lon="6.61032">
        <ele>1381.8</ele>
        <time>2022-07-14T12:26:07+0200</time>
      </trkpt>
      <trkpt lat="44.92721" lon="6.61036">
        <ele>1382.5</ele>
        <time>2022-07-14T12:26:10+0200</time>
      </trkpt>
      <trkpt lat="44.92726" lon="6.6104">
        <ele>1383.2</ele>
        <time>2022-07-14T12:26:13+0200</time>
      </trkpt>
      <trkpt lat="44.92729" lon="6.61046">
        <ele>1383.9</ele>
        <time>2022-07-14T12:26:19+0200</time>
      </trkpt>
      <trkpt lat="44.92734" lon="6.61049">
        <ele>1384.4</ele>
        <time>2022-07-14T12:26:24+0200</time>
      </trkpt>
      <trkpt lat="44.92736" lon="6.61054">
        <ele>1384.9</ele>
        <time>2022-07-14T12:26:28+0200</time>
      </trkpt>
      <trkpt lat="44.92741" lon="6.61058">
        <ele>1385.6</ele>
        <time>2022-07-14T12:26:32+0200</time>
      </trkpt>
      <trkpt lat="44.92742" lon="6.61066">
        <ele>1386.3</ele>
        <time>2022-07-14T12:26:35+0200</time>
      </trkpt>
      <trkpt lat="44.92745" lon="6.61071">
        <ele>1386.8</ele>
        <time>2022-07-14T12:26:38+0200</time>
      </trkpt>
      <trkpt lat="44.92748" lon="6.61078">
        <ele>1387.5</ele>
        <time>2022-07-14T12:26:42+0200</time>
      </trkpt>
      <trkpt lat="44.92751" lon="6.61084">
        <ele>1388.1</ele>
        <time>2022-07-14T12:26:45+0200</time>
      </trkpt>
      <trkpt lat="44.92756" lon="6.61089">
        <ele>1389.2</ele>
        <time>2022-07-14T12:26:49+0200</time>
      </trkpt>
      <trkpt lat="44.92758" lon="6.61095">
        <ele>1390.1</ele>
        <time>2022-07-14T12:26:54+0200</time>
      </trkpt>
      <trkpt lat="44.92761" lon="6.611">
        <ele>1391</ele>
        <time>2022-07-14T12:26:57+0200</time>
      </trkpt>
      <trkpt lat="44.92763" lon="6.61106">
        <ele>1391.9</ele>
        <time>2022-07-14T12:27:02+0200</time>
      </trkpt>
      <trkpt lat="44.92766" lon="6.61111">
        <ele>1392.7</ele>
        <time>2022-07-14T12:27:09+0200</time>
      </trkpt>
      <trkpt lat="44.92767" lon="6.6112">
        <ele>1393.6</ele>
        <time>2022-07-14T12:27:16+0200</time>
      </trkpt>
      <trkpt lat="44.92767" lon="6.61129">
        <ele>1394.5</ele>
        <time>2022-07-14T12:27:20+0200</time>
      </trkpt>
      <trkpt lat="44.92766" lon="6.61137">
        <ele>1395.2</ele>
        <time>2022-07-14T12:27:23+0200</time>
      </trkpt>
      <trkpt lat="44.92768" lon="6.61145">
        <ele>1396.1</ele>
        <time>2022-07-14T12:27:30+0200</time>
      </trkpt>
      <trkpt lat="44.92769" lon="6.61152">
        <ele>1396.8</ele>
        <time>2022-07-14T12:27:32+0200</time>
      </trkpt>
      <trkpt lat="44.9277" lon="6.61159">
        <ele>1397.6</ele>
        <time>2022-07-14T12:27:36+0200</time>
      </trkpt>
      <trkpt lat="44.92769" lon="6.61166">
        <ele>1398</ele>
        <time>2022-07-14T12:27:41+0200</time>
      </trkpt>
      <trkpt lat="44.92771" lon="6.61172">
        <ele>1398.8</ele>
        <time>2022-07-14T12:27:48+0200</time>
      </trkpt>
      <trkpt lat="44.9277" lon="6.61179">
        <ele>1399.3</ele>
        <time>2022-07-14T12:27:51+0200</time>
      </trkpt>
      <trkpt lat="44.92765" lon="6.61178">
        <ele>1398.7</ele>
        <time>2022-07-14T12:27:53+0200</time>
      </trkpt>
      <trkpt lat="44.9276" lon="6.61188">
        <ele>1398.9</ele>
        <time>2022-07-14T12:27:55+0200</time>
      </trkpt>
      <trkpt lat="44.92755" lon="6.61193">
        <ele>1398.6</ele>
        <time>2022-07-14T12:27:57+0200</time>
      </trkpt>
      <trkpt lat="44.92751" lon="6.61197">
        <ele>1398.4</ele>
        <time>2022-07-14T12:27:59+0200</time>
      </trkpt>
      <trkpt lat="44.92745" lon="6.61202">
        <ele>1398.3</ele>
        <time>2022-07-14T12:28:01+0200</time>
      </trkpt>
      <trkpt lat="44.92742" lon="6.6121">
        <ele>1398.6</ele>
        <time>2022-07-14T12:28:04+0200</time>
      </trkpt>
      <trkpt lat="44.92734" lon="6.61213">
        <ele>1397.9</ele>
        <time>2022-07-14T12:28:06+0200</time>
      </trkpt>
      <trkpt lat="44.92729" lon="6.61215">
        <ele>1397.3</ele>
        <time>2022-07-14T12:28:07+0200</time>
      </trkpt>
      <trkpt lat="44.92724" lon="6.61218">
        <ele>1397</ele>
        <time>2022-07-14T12:28:08+0200</time>
      </trkpt>
      <trkpt lat="44.92717" lon="6.61217">
        <ele>1395.8</ele>
        <time>2022-07-14T12:28:10+0200</time>
      </trkpt>
      <trkpt lat="44.9271" lon="6.61214">
        <ele>1394.7</ele>
        <time>2022-07-14T12:28:11+0200</time>
      </trkpt>
      <trkpt lat="44.92703" lon="6.6121">
        <ele>1393.4</ele>
        <time>2022-07-14T12:28:12+0200</time>
      </trkpt>
      <trkpt lat="44.92696" lon="6.61214">
        <ele>1392.7</ele>
        <time>2022-07-14T12:28:13+0200</time>
      </trkpt>
      <trkpt lat="44.9269" lon="6.61221">
        <ele>1392.4</ele>
        <time>2022-07-14T12:28:14+0200</time>
      </trkpt>
      <trkpt lat="44.92685" lon="6.6123">
        <ele>1392.8</ele>
        <time>2022-07-14T12:28:15+0200</time>
      </trkpt>
      <trkpt lat="44.92679" lon="6.61239">
        <ele>1392.7</ele>
        <time>2022-07-14T12:28:16+0200</time>
      </trkpt>
      <trkpt lat="44.92672" lon="6.61252">
        <ele>1392.9</ele>
        <time>2022-07-14T12:28:17+0200</time>
      </trkpt>
      <trkpt lat="44.92665" lon="6.61263">
        <ele>1393.2</ele>
        <time>2022-07-14T12:28:17+0200</time>
      </trkpt>
      <trkpt lat="44.92658" lon="6.61274">
        <ele>1393.4</ele>
        <time>2022-07-14T12:28:18+0200</time>
      </trkpt>
      <trkpt lat="44.92651" lon="6.61285">
        <ele>1393.5</ele>
        <time>2022-07-14T12:28:19+0200</time>
      </trkpt>
      <trkpt lat="44.92643" lon="6.61292">
        <ele>1393</ele>
        <time>2022-07-14T12:28:20+0200</time>
      </trkpt>
      <trkpt lat="44.92636" lon="6.61297">
        <ele>1392.9</ele>
        <time>2022-07-14T12:28:21+0200</time>
      </trkpt>
      <trkpt lat="44.92629" lon="6.61306">
        <ele>1393.3</ele>
        <time>2022-07-14T12:28:22+0200</time>
      </trkpt>
      <trkpt lat="44.92622" lon="6.61314">
        <ele>1394.3</ele>
        <time>2022-07-14T12:28:23+0200</time>
      </trkpt>
      <trkpt lat="44.92616" lon="6.61316">
        <ele>1394.1</ele>
        <time>2022-07-14T12:28:24+0200</time>
      </trkpt>
      <trkpt lat="44.92609" lon="6.61314">
        <ele>1393.5</ele>
        <time>2022-07-14T12:28:26+0200</time>
      </trkpt>
      <trkpt lat="44.92603" lon="6.61318">
        <ele>1393.9</ele>
        <time>2022-07-14T12:28:29+0200</time>
      </trkpt>
      <trkpt lat="44.926" lon="6.61323">
        <ele>1394.6</ele>
        <time>2022-07-14T12:28:34+0200</time>
      </trkpt>
      <trkpt lat="44.92593" lon="6.61324">
        <ele>1394.6</ele>
        <time>2022-07-14T12:28:37+0200</time>
      </trkpt>
      <trkpt lat="44.92588" lon="6.61324">
        <ele>1394.4</ele>
        <time>2022-07-14T12:28:40+0200</time>
      </trkpt>
      <trkpt lat="44.9258" lon="6.61327">
        <ele>1394.8</ele>
        <time>2022-07-14T12:28:43+0200</time>
      </trkpt>
      <trkpt lat="44.92575" lon="6.61328">
        <ele>1394.7</ele>
        <time>2022-07-14T12:28:44+0200</time>
      </trkpt>
      <trkpt lat="44.92568" lon="6.61332">
        <ele>1395.2</ele>
        <time>2022-07-14T12:28:46+0200</time>
      </trkpt>
      <trkpt lat="44.92561" lon="6.61338">
        <ele>1396.3</ele>
        <time>2022-07-14T12:28:48+0200</time>
      </trkpt>
      <trkpt lat="44.92557" lon="6.61342">
        <ele>1397.3</ele>
        <time>2022-07-14T12:28:50+0200</time>
      </trkpt>
      <trkpt lat="44.9255" lon="6.61348">
        <ele>1397.7</ele>
        <time>2022-07-14T12:28:52+0200</time>
      </trkpt>
      <trkpt lat="44.92545" lon="6.61352">
        <ele>1398</ele>
        <time>2022-07-14T12:28:54+0200</time>
      </trkpt>
      <trkpt lat="44.92542" lon="6.61359">
        <ele>1399.3</ele>
        <time>2022-07-14T12:28:57+0200</time>
      </trkpt>
      <trkpt lat="44.92537" lon="6.61364">
        <ele>1399.9</ele>
        <time>2022-07-14T12:29:00+0200</time>
      </trkpt>
      <trkpt lat="44.92532" lon="6.61369">
        <ele>1400.5</ele>
        <time>2022-07-14T12:29:02+0200</time>
      </trkpt>
      <trkpt lat="44.92528" lon="6.61371">
        <ele>1400.5</ele>
        <time>2022-07-14T12:29:04+0200</time>
      </trkpt>
      <trkpt lat="44.92524" lon="6.61374">
        <ele>1400.6</ele>
        <time>2022-07-14T12:29:06+0200</time>
      </trkpt>
      <trkpt lat="44.9252" lon="6.61378">
        <ele>1400.7</ele>
        <time>2022-07-14T12:29:08+0200</time>
      </trkpt>
      <trkpt lat="44.92516" lon="6.61385">
        <ele>1401.7</ele>
        <time>2022-07-14T12:29:10+0200</time>
      </trkpt>
      <trkpt lat="44.92512" lon="6.61389">
        <ele>1402.2</ele>
        <time>2022-07-14T12:29:12+0200</time>
      </trkpt>
      <trkpt lat="44.92509" lon="6.61394">
        <ele>1402.2</ele>
        <time>2022-07-14T12:29:14+0200</time>
      </trkpt>
      <trkpt lat="44.92505" lon="6.61398">
        <ele>1402</ele>
        <time>2022-07-14T12:29:16+0200</time>
      </trkpt>
      <trkpt lat="44.92502" lon="6.61404">
        <ele>1402.5</ele>
        <time>2022-07-14T12:29:18+0200</time>
      </trkpt>
      <trkpt lat="44.92499" lon="6.61413">
        <ele>1403.3</ele>
        <time>2022-07-14T12:29:20+0200</time>
      </trkpt>
      <trkpt lat="44.92497" lon="6.61421">
        <ele>1403.7</ele>
        <time>2022-07-14T12:29:22+0200</time>
      </trkpt>
      <trkpt lat="44.92494" lon="6.61426">
        <ele>1403.7</ele>
        <time>2022-07-14T12:29:24+0200</time>
      </trkpt>
      <trkpt lat="44.92491" lon="6.61435">
        <ele>1404.2</ele>
        <time>2022-07-14T12:29:27+0200</time>
      </trkpt>
      <trkpt lat="44.92492" lon="6.61441">
        <ele>1405.1</ele>
        <time>2022-07-14T12:29:29+0200</time>
      </trkpt>
      <trkpt lat="44.92492" lon="6.6145">
        <ele>1405.8</ele>
        <time>2022-07-14T12:29:33+0200</time>
      </trkpt>
      <trkpt lat="44.92492" lon="6.61458">
        <ele>1406.1</ele>
        <time>2022-07-14T12:29:35+0200</time>
      </trkpt>
      <trkpt lat="44.92494" lon="6.61465">
        <ele>1406.7</ele>
        <time>2022-07-14T12:29:37+0200</time>
      </trkpt>
      <trkpt lat="44.92495" lon="6.61472">
        <ele>1407.1</ele>
        <time>2022-07-14T12:29:39+0200</time>
      </trkpt>
      <trkpt lat="44.92496" lon="6.6148">
        <ele>1407.2</ele>
        <time>2022-07-14T12:29:42+0200</time>
      </trkpt>
      <trkpt lat="44.92497" lon="6.61486">
        <ele>1407.5</ele>
        <time>2022-07-14T12:29:45+0200</time>
      </trkpt>
      <trkpt lat="44.92497" lon="6.61494">
        <ele>1407.5</ele>
        <time>2022-07-14T12:29:49+0200</time>
      </trkpt>
      <trkpt lat="44.92496" lon="6.61501">
        <ele>1407.2</ele>
        <time>2022-07-14T12:29:53+0200</time>
      </trkpt>
      <trkpt lat="44.92496" lon="6.61508">
        <ele>1407.2</ele>
        <time>2022-07-14T12:29:56+0200</time>
      </trkpt>
      <trkpt lat="44.92497" lon="6.61515">
        <ele>1407.3</ele>
        <time>2022-07-14T12:29:58+0200</time>
      </trkpt>
      <trkpt lat="44.92497" lon="6.61522">
        <ele>1407.4</ele>
        <time>2022-07-14T12:30:00+0200</time>
      </trkpt>
      <trkpt lat="44.92498" lon="6.61528">
        <ele>1407.4</ele>
        <time>2022-07-14T12:30:03+0200</time>
      </trkpt>
      <trkpt lat="44.92498" lon="6.61535">
        <ele>1407.8</ele>
        <time>2022-07-14T12:30:06+0200</time>
      </trkpt>
      <trkpt lat="44.92499" lon="6.61543">
        <ele>1408.2</ele>
        <time>2022-07-14T12:30:11+0200</time>
      </trkpt>
      <trkpt lat="44.92501" lon="6.6155">
        <ele>1409.1</ele>
        <time>2022-07-14T12:30:14+0200</time>
      </trkpt>
      <trkpt lat="44.92503" lon="6.61558">
        <ele>1410</ele>
        <time>2022-07-14T12:30:17+0200</time>
      </trkpt>
      <trkpt lat="44.92503" lon="6.61565">
        <ele>1410.2</ele>
        <time>2022-07-14T12:30:20+0200</time>
      </trkpt>
      <trkpt lat="44.92503" lon="6.61572">
        <ele>1410.3</ele>
        <time>2022-07-14T12:30:23+0200</time>
      </trkpt>
      <trkpt lat="44.92499" lon="6.6158">
        <ele>1409.5</ele>
        <time>2022-07-14T12:30:27+0200</time>
      </trkpt>
      <trkpt lat="44.92498" lon="6.61586">
        <ele>1409.6</ele>
        <time>2022-07-14T12:30:29+0200</time>
      </trkpt>
      <trkpt lat="44.92495" lon="6.61593">
        <ele>1409.3</ele>
        <time>2022-07-14T12:30:30+0200</time>
      </trkpt>
      <trkpt lat="44.92492" lon="6.61598">
        <ele>1408.8</ele>
        <time>2022-07-14T12:30:32+0200</time>
      </trkpt>
      <trkpt lat="44.9249" lon="6.61608">
        <ele>1408.8</ele>
        <time>2022-07-14T12:30:35+0200</time>
      </trkpt>
      <trkpt lat="44.92488" lon="6.61615">
        <ele>1409</ele>
        <time>2022-07-14T12:30:37+0200</time>
      </trkpt>
      <trkpt lat="44.92487" lon="6.61625">
        <ele>1409.5</ele>
        <time>2022-07-14T12:30:40+0200</time>
      </trkpt>
      <trkpt lat="44.92483" lon="6.61629">
        <ele>1408.6</ele>
        <time>2022-07-14T12:30:42+0200</time>
      </trkpt>
      <trkpt lat="44.92478" lon="6.61634">
        <ele>1407.6</ele>
        <time>2022-07-14T12:30:44+0200</time>
      </trkpt>
      <trkpt lat="44.92477" lon="6.61642">
        <ele>1407.8</ele>
        <time>2022-07-14T12:30:46+0200</time>
      </trkpt>
      <trkpt lat="44.92477" lon="6.61648">
        <ele>1408.1</ele>
        <time>2022-07-14T12:30:48+0200</time>
      </trkpt>
      <trkpt lat="44.92475" lon="6.61656">
        <ele>1408.2</ele>
        <time>2022-07-14T12:30:50+0200</time>
      </trkpt>
      <trkpt lat="44.92473" lon="6.61663">
        <ele>1407.8</ele>
        <time>2022-07-14T12:30:52+0200</time>
      </trkpt>
      <trkpt lat="44.92472" lon="6.6167">
        <ele>1408.3</ele>
        <time>2022-07-14T12:30:54+0200</time>
      </trkpt>
      <trkpt lat="44.92472" lon="6.6168">
        <ele>1409.5</ele>
        <time>2022-07-14T12:30:57+0200</time>
      </trkpt>
      <trkpt lat="44.92472" lon="6.6169">
        <ele>1410.6</ele>
        <time>2022-07-14T12:31:00+0200</time>
      </trkpt>
      <trkpt lat="44.92472" lon="6.61699">
        <ele>1411.7</ele>
        <time>2022-07-14T12:31:02+0200</time>
      </trkpt>
      <trkpt lat="44.92473" lon="6.61706">
        <ele>1413.2</ele>
        <time>2022-07-14T12:31:04+0200</time>
      </trkpt>
      <trkpt lat="44.92474" lon="6.61713">
        <ele>1415</ele>
        <time>2022-07-14T12:31:06+0200</time>
      </trkpt>
      <trkpt lat="44.92475" lon="6.6172">
        <ele>1416.3</ele>
        <time>2022-07-14T12:31:08+0200</time>
      </trkpt>
      <trkpt lat="44.92475" lon="6.61728">
        <ele>1418</ele>
        <time>2022-07-14T12:31:11+0200</time>
      </trkpt>
      <trkpt lat="44.92474" lon="6.61734">
        <ele>1419.2</ele>
        <time>2022-07-14T12:31:15+0200</time>
      </trkpt>
      <trkpt lat="44.92473" lon="6.61743">
        <ele>1420.7</ele>
        <time>2022-07-14T12:31:18+0200</time>
      </trkpt>
      <trkpt lat="44.92473" lon="6.61751">
        <ele>1422.4</ele>
        <time>2022-07-14T12:31:21+0200</time>
      </trkpt>
      <trkpt lat="44.92469" lon="6.61755">
        <ele>1422.8</ele>
        <time>2022-07-14T12:31:24+0200</time>
      </trkpt>
      <trkpt lat="44.92464" lon="6.61758">
        <ele>1422.3</ele>
        <time>2022-07-14T12:31:27+0200</time>
      </trkpt>
      <trkpt lat="44.9246" lon="6.61764">
        <ele>1423.1</ele>
        <time>2022-07-14T12:31:30+0200</time>
      </trkpt>
      <trkpt lat="44.92455" lon="6.6177">
        <ele>1424</ele>
        <time>2022-07-14T12:31:33+0200</time>
      </trkpt>
      <trkpt lat="44.92448" lon="6.61773">
        <ele>1423.4</ele>
        <time>2022-07-14T12:31:35+0200</time>
      </trkpt>
      <trkpt lat="44.92443" lon="6.61781">
        <ele>1424.5</ele>
        <time>2022-07-14T12:31:38+0200</time>
      </trkpt>
      <trkpt lat="44.92438" lon="6.61788">
        <ele>1425.6</ele>
        <time>2022-07-14T12:31:41+0200</time>
      </trkpt>
      <trkpt lat="44.92431" lon="6.61791">
        <ele>1425.5</ele>
        <time>2022-07-14T12:31:43+0200</time>
      </trkpt>
      <trkpt lat="44.92425" lon="6.61793">
        <ele>1425</ele>
        <time>2022-07-14T12:31:45+0200</time>
      </trkpt>
      <trkpt lat="44.9242" lon="6.61798">
        <ele>1425.4</ele>
        <time>2022-07-14T12:31:47+0200</time>
      </trkpt>
      <trkpt lat="44.92413" lon="6.618">
        <ele>1425</ele>
        <time>2022-07-14T12:31:49+0200</time>
      </trkpt>
      <trkpt lat="44.92405" lon="6.61804">
        <ele>1424.8</ele>
        <time>2022-07-14T12:31:51+0200</time>
      </trkpt>
      <trkpt lat="44.924" lon="6.61811">
        <ele>1426.2</ele>
        <time>2022-07-14T12:31:53+0200</time>
      </trkpt>
      <trkpt lat="44.92395" lon="6.61818">
        <ele>1427.5</ele>
        <time>2022-07-14T12:31:55+0200</time>
      </trkpt>
      <trkpt lat="44.92392" lon="6.61824">
        <ele>1428.7</ele>
        <time>2022-07-14T12:31:57+0200</time>
      </trkpt>
      <trkpt lat="44.92388" lon="6.61827">
        <ele>1429</ele>
        <time>2022-07-14T12:31:58+0200</time>
      </trkpt>
      <trkpt lat="44.92383" lon="6.6183">
        <ele>1429.3</ele>
        <time>2022-07-14T12:31:59+0200</time>
      </trkpt>
      <trkpt lat="44.92377" lon="6.61831">
        <ele>1429.1</ele>
        <time>2022-07-14T12:32:00+0200</time>
      </trkpt>
      <trkpt lat="44.92371" lon="6.61834">
        <ele>1429.1</ele>
        <time>2022-07-14T12:32:01+0200</time>
      </trkpt>
      <trkpt lat="44.92366" lon="6.61835">
        <ele>1429</ele>
        <time>2022-07-14T12:32:02+0200</time>
      </trkpt>
      <trkpt lat="44.92361" lon="6.6184">
        <ele>1429.4</ele>
        <time>2022-07-14T12:32:04+0200</time>
      </trkpt>
      <trkpt lat="44.92356" lon="6.61846">
        <ele>1430.4</ele>
        <time>2022-07-14T12:32:06+0200</time>
      </trkpt>
      <trkpt lat="44.92351" lon="6.61848">
        <ele>1430.4</ele>
        <time>2022-07-14T12:32:07+0200</time>
      </trkpt>
      <trkpt lat="44.92345" lon="6.6185">
        <ele>1430.4</ele>
        <time>2022-07-14T12:32:09+0200</time>
      </trkpt>
      <trkpt lat="44.92338" lon="6.61854">
        <ele>1430.7</ele>
        <time>2022-07-14T12:32:11+0200</time>
      </trkpt>
      <trkpt lat="44.92334" lon="6.61857">
        <ele>1431.2</ele>
        <time>2022-07-14T12:32:13+0200</time>
      </trkpt>
      <trkpt lat="44.92329" lon="6.6186">
        <ele>1431.3</ele>
        <time>2022-07-14T12:32:14+0200</time>
      </trkpt>
      <trkpt lat="44.92325" lon="6.61864">
        <ele>1431.5</ele>
        <time>2022-07-14T12:32:16+0200</time>
      </trkpt>
      <trkpt lat="44.9232" lon="6.6187">
        <ele>1431.8</ele>
        <time>2022-07-14T12:32:18+0200</time>
      </trkpt>
      <trkpt lat="44.92316" lon="6.61873">
        <ele>1431.9</ele>
        <time>2022-07-14T12:32:20+0200</time>
      </trkpt>
      <trkpt lat="44.92312" lon="6.61877">
        <ele>1432</ele>
        <time>2022-07-14T12:32:22+0200</time>
      </trkpt>
      <trkpt lat="44.92309" lon="6.61884">
        <ele>1432.6</ele>
        <time>2022-07-14T12:32:24+0200</time>
      </trkpt>
      <trkpt lat="44.92307" lon="6.61889">
        <ele>1433.1</ele>
        <time>2022-07-14T12:32:26+0200</time>
      </trkpt>
      <trkpt lat="44.92308" lon="6.61897">
        <ele>1433.1</ele>
        <time>2022-07-14T12:32:28+0200</time>
      </trkpt>
      <trkpt lat="44.9231" lon="6.61903">
        <ele>1433.2</ele>
        <time>2022-07-14T12:32:30+0200</time>
      </trkpt>
      <trkpt lat="44.92313" lon="6.61911">
        <ele>1433.6</ele>
        <time>2022-07-14T12:32:32+0200</time>
      </trkpt>
      <trkpt lat="44.92315" lon="6.61919">
        <ele>1433.5</ele>
        <time>2022-07-14T12:32:35+0200</time>
      </trkpt>
      <trkpt lat="44.92318" lon="6.61925">
        <ele>1433.1</ele>
        <time>2022-07-14T12:32:37+0200</time>
      </trkpt>
      <trkpt lat="44.92321" lon="6.6193">
        <ele>1433.1</ele>
        <time>2022-07-14T12:32:39+0200</time>
      </trkpt>
      <trkpt lat="44.92327" lon="6.61933">
        <ele>1433.9</ele>
        <time>2022-07-14T12:32:41+0200</time>
      </trkpt>
      <trkpt lat="44.9233" lon="6.61938">
        <ele>1434</ele>
        <time>2022-07-14T12:32:43+0200</time>
      </trkpt>
      <trkpt lat="44.92333" lon="6.61941">
        <ele>1434.5</ele>
        <time>2022-07-14T12:32:45+0200</time>
      </trkpt>
      <trkpt lat="44.92338" lon="6.61947">
        <ele>1434.6</ele>
        <time>2022-07-14T12:32:47+0200</time>
      </trkpt>
      <trkpt lat="44.92342" lon="6.6195">
        <ele>1435.4</ele>
        <time>2022-07-14T12:32:49+0200</time>
      </trkpt>
      <trkpt lat="44.92346" lon="6.61955">
        <ele>1435</ele>
        <time>2022-07-14T12:32:51+0200</time>
      </trkpt>
      <trkpt lat="44.92349" lon="6.61962">
        <ele>1434.5</ele>
        <time>2022-07-14T12:32:53+0200</time>
      </trkpt>
      <trkpt lat="44.92352" lon="6.61967">
        <ele>1434.1</ele>
        <time>2022-07-14T12:32:55+0200</time>
      </trkpt>
      <trkpt lat="44.92358" lon="6.61973">
        <ele>1434.8</ele>
        <time>2022-07-14T12:32:57+0200</time>
      </trkpt>
      <trkpt lat="44.92363" lon="6.61979">
        <ele>1435</ele>
        <time>2022-07-14T12:32:59+0200</time>
      </trkpt>
      <trkpt lat="44.92368" lon="6.61983">
        <ele>1435.4</ele>
        <time>2022-07-14T12:33:01+0200</time>
      </trkpt>
      <trkpt lat="44.92375" lon="6.61987">
        <ele>1436.4</ele>
        <time>2022-07-14T12:33:04+0200</time>
      </trkpt>
      <trkpt lat="44.9238" lon="6.61991">
        <ele>1437.3</ele>
        <time>2022-07-14T12:33:06+0200</time>
      </trkpt>
      <trkpt lat="44.92384" lon="6.61995">
        <ele>1437.7</ele>
        <time>2022-07-14T12:33:08+0200</time>
      </trkpt>
      <trkpt lat="44.92389" lon="6.62004">
        <ele>1436.8</ele>
        <time>2022-07-14T12:33:12+0200</time>
      </trkpt>
      <trkpt lat="44.92392" lon="6.6201">
        <ele>1436.2</ele>
        <time>2022-07-14T12:33:14+0200</time>
      </trkpt>
      <trkpt lat="44.92394" lon="6.62016">
        <ele>1435.3</ele>
        <time>2022-07-14T12:33:17+0200</time>
      </trkpt>
      <trkpt lat="44.92398" lon="6.62021">
        <ele>1435.1</ele>
        <time>2022-07-14T12:33:19+0200</time>
      </trkpt>
      <trkpt lat="44.92396" lon="6.62029">
        <ele>1432.3</ele>
        <time>2022-07-14T12:33:22+0200</time>
      </trkpt>
      <trkpt lat="44.92394" lon="6.62039">
        <ele>1429.2</ele>
        <time>2022-07-14T12:33:24+0200</time>
      </trkpt>
      <trkpt lat="44.9239" lon="6.62046">
        <ele>1425.8</ele>
        <time>2022-07-14T12:33:26+0200</time>
      </trkpt>
      <trkpt lat="44.92385" lon="6.6205">
        <ele>1423.2</ele>
        <time>2022-07-14T12:33:29+0200</time>
      </trkpt>
      <trkpt lat="44.92385" lon="6.62061">
        <ele>1421.6</ele>
        <time>2022-07-14T12:33:32+0200</time>
      </trkpt>
      <trkpt lat="44.92383" lon="6.62069">
        <ele>1420.9</ele>
        <time>2022-07-14T12:33:36+0200</time>
      </trkpt>
      <trkpt lat="44.9238" lon="6.62077">
        <ele>1419.9</ele>
        <time>2022-07-14T12:33:39+0200</time>
      </trkpt>
      <trkpt lat="44.92378" lon="6.62083">
        <ele>1419.2</ele>
        <time>2022-07-14T12:33:42+0200</time>
      </trkpt>
      <trkpt lat="44.92374" lon="6.62088">
        <ele>1419.2</ele>
        <time>2022-07-14T12:33:44+0200</time>
      </trkpt>
      <trkpt lat="44.92369" lon="6.62092">
        <ele>1418.9</ele>
        <time>2022-07-14T12:33:47+0200</time>
      </trkpt>
      <trkpt lat="44.92367" lon="6.62099">
        <ele>1419.9</ele>
        <time>2022-07-14T12:33:50+0200</time>
      </trkpt>
      <trkpt lat="44.92363" lon="6.62104">
        <ele>1420.5</ele>
        <time>2022-07-14T12:33:56+0200</time>
      </trkpt>
      <trkpt lat="44.92357" lon="6.62107">
        <ele>1420.7</ele>
        <time>2022-07-14T12:33:59+0200</time>
      </trkpt>
      <trkpt lat="44.92352" lon="6.62109">
        <ele>1420.7</ele>
        <time>2022-07-14T12:34:03+0200</time>
      </trkpt>
      <trkpt lat="44.92346" lon="6.62113">
        <ele>1421.5</ele>
        <time>2022-07-14T12:34:07+0200</time>
      </trkpt>
      <trkpt lat="44.92343" lon="6.6212">
        <ele>1423.6</ele>
        <time>2022-07-14T12:34:10+0200</time>
      </trkpt>
      <trkpt lat="44.92338" lon="6.62126">
        <ele>1425</ele>
        <time>2022-07-14T12:34:13+0200</time>
      </trkpt>
      <trkpt lat="44.92333" lon="6.62126">
        <ele>1424.8</ele>
        <time>2022-07-14T12:34:14+0200</time>
      </trkpt>
      <trkpt lat="44.92325" lon="6.62128">
        <ele>1424.8</ele>
        <time>2022-07-14T12:34:16+0200</time>
      </trkpt>
      <trkpt lat="44.92318" lon="6.6213">
        <ele>1425.1</ele>
        <time>2022-07-14T12:34:18+0200</time>
      </trkpt>
      <trkpt lat="44.92314" lon="6.62134">
        <ele>1426</ele>
        <time>2022-07-14T12:34:20+0200</time>
      </trkpt>
      <trkpt lat="44.92309" lon="6.62137">
        <ele>1426.5</ele>
        <time>2022-07-14T12:34:22+0200</time>
      </trkpt>
      <trkpt lat="44.92303" lon="6.6214">
        <ele>1426.8</ele>
        <time>2022-07-14T12:34:24+0200</time>
      </trkpt>
      <trkpt lat="44.92298" lon="6.62143">
        <ele>1426.6</ele>
        <time>2022-07-14T12:34:26+0200</time>
      </trkpt>
      <trkpt lat="44.92294" lon="6.62148">
        <ele>1427.3</ele>
        <time>2022-07-14T12:34:28+0200</time>
      </trkpt>
      <trkpt lat="44.9229" lon="6.62153">
        <ele>1428.2</ele>
        <time>2022-07-14T12:34:30+0200</time>
      </trkpt>
      <trkpt lat="44.92286" lon="6.62159">
        <ele>1429</ele>
        <time>2022-07-14T12:34:32+0200</time>
      </trkpt>
      <trkpt lat="44.92282" lon="6.62162">
        <ele>1429.1</ele>
        <time>2022-07-14T12:34:34+0200</time>
      </trkpt>
      <trkpt lat="44.92276" lon="6.62166">
        <ele>1429.5</ele>
        <time>2022-07-14T12:34:37+0200</time>
      </trkpt>
      <trkpt lat="44.92271" lon="6.6217">
        <ele>1429.5</ele>
        <time>2022-07-14T12:34:39+0200</time>
      </trkpt>
      <trkpt lat="44.92267" lon="6.62175">
        <ele>1430.5</ele>
        <time>2022-07-14T12:34:41+0200</time>
      </trkpt>
      <trkpt lat="44.92262" lon="6.62178">
        <ele>1430.4</ele>
        <time>2022-07-14T12:34:43+0200</time>
      </trkpt>
      <trkpt lat="44.9226" lon="6.62184">
        <ele>1432</ele>
        <time>2022-07-14T12:34:45+0200</time>
      </trkpt>
      <trkpt lat="44.92254" lon="6.62186">
        <ele>1431.7</ele>
        <time>2022-07-14T12:34:48+0200</time>
      </trkpt>
      <trkpt lat="44.92247" lon="6.62189">
        <ele>1431.3</ele>
        <time>2022-07-14T12:34:51+0200</time>
      </trkpt>
      <trkpt lat="44.92242" lon="6.62192">
        <ele>1431.1</ele>
        <time>2022-07-14T12:34:53+0200</time>
      </trkpt>
      <trkpt lat="44.92237" lon="6.62195">
        <ele>1431</ele>
        <time>2022-07-14T12:34:55+0200</time>
      </trkpt>
      <trkpt lat="44.92233" lon="6.62199">
        <ele>1431.2</ele>
        <time>2022-07-14T12:34:57+0200</time>
      </trkpt>
      <trkpt lat="44.92226" lon="6.62202">
        <ele>1430.3</ele>
        <time>2022-07-14T12:34:59+0200</time>
      </trkpt>
      <trkpt lat="44.92221" lon="6.62208">
        <ele>1430.9</ele>
        <time>2022-07-14T12:35:01+0200</time>
      </trkpt>
      <trkpt lat="44.92216" lon="6.62213">
        <ele>1431.1</ele>
        <time>2022-07-14T12:35:03+0200</time>
      </trkpt>
      <trkpt lat="44.92211" lon="6.62216">
        <ele>1430.7</ele>
        <time>2022-07-14T12:35:05+0200</time>
      </trkpt>
      <trkpt lat="44.92204" lon="6.62221">
        <ele>1430.4</ele>
        <time>2022-07-14T12:35:07+0200</time>
      </trkpt>
      <trkpt lat="44.92198" lon="6.62225">
        <ele>1430.1</ele>
        <time>2022-07-14T12:35:10+0200</time>
      </trkpt>
      <trkpt lat="44.92194" lon="6.62229">
        <ele>1430.3</ele>
        <time>2022-07-14T12:35:12+0200</time>
      </trkpt>
      <trkpt lat="44.92191" lon="6.62233">
        <ele>1430.8</ele>
        <time>2022-07-14T12:35:17+0200</time>
      </trkpt>
      <trkpt lat="44.92188" lon="6.62238">
        <ele>1431.9</ele>
        <time>2022-07-14T12:35:20+0200</time>
      </trkpt>
      <trkpt lat="44.92184" lon="6.62243">
        <ele>1432.7</ele>
        <time>2022-07-14T12:35:23+0200</time>
      </trkpt>
      <trkpt lat="44.9218" lon="6.62245">
        <ele>1432.6</ele>
        <time>2022-07-14T12:35:25+0200</time>
      </trkpt>
      <trkpt lat="44.92175" lon="6.62249">
        <ele>1432.6</ele>
        <time>2022-07-14T12:35:27+0200</time>
      </trkpt>
      <trkpt lat="44.92168" lon="6.62252">
        <ele>1432</ele>
        <time>2022-07-14T12:35:29+0200</time>
      </trkpt>
      <trkpt lat="44.92164" lon="6.62256">
        <ele>1432.7</ele>
        <time>2022-07-14T12:35:31+0200</time>
      </trkpt>
      <trkpt lat="44.92158" lon="6.62262">
        <ele>1433.5</ele>
        <time>2022-07-14T12:35:34+0200</time>
      </trkpt>
      <trkpt lat="44.92154" lon="6.62265">
        <ele>1433.4</ele>
        <time>2022-07-14T12:35:36+0200</time>
      </trkpt>
      <trkpt lat="44.92149" lon="6.62268">
        <ele>1433.6</ele>
        <time>2022-07-14T12:35:38+0200</time>
      </trkpt>
      <trkpt lat="44.92145" lon="6.62271">
        <ele>1433.7</ele>
        <time>2022-07-14T12:35:40+0200</time>
      </trkpt>
      <trkpt lat="44.92141" lon="6.62277">
        <ele>1435.2</ele>
        <time>2022-07-14T12:35:43+0200</time>
      </trkpt>
      <trkpt lat="44.92134" lon="6.62283">
        <ele>1435.8</ele>
        <time>2022-07-14T12:35:46+0200</time>
      </trkpt>
      <trkpt lat="44.92131" lon="6.62288">
        <ele>1437</ele>
        <time>2022-07-14T12:35:48+0200</time>
      </trkpt>
      <trkpt lat="44.92126" lon="6.62291">
        <ele>1436.7</ele>
        <time>2022-07-14T12:35:50+0200</time>
      </trkpt>
      <trkpt lat="44.92121" lon="6.62295">
        <ele>1437.3</ele>
        <time>2022-07-14T12:35:52+0200</time>
      </trkpt>
      <trkpt lat="44.92117" lon="6.62297">
        <ele>1437.1</ele>
        <time>2022-07-14T12:35:54+0200</time>
      </trkpt>
      <trkpt lat="44.92112" lon="6.62303">
        <ele>1438.3</ele>
        <time>2022-07-14T12:35:56+0200</time>
      </trkpt>
      <trkpt lat="44.92106" lon="6.62309">
        <ele>1439.4</ele>
        <time>2022-07-14T12:35:58+0200</time>
      </trkpt>
      <trkpt lat="44.92101" lon="6.62314">
        <ele>1440.1</ele>
        <time>2022-07-14T12:36:00+0200</time>
      </trkpt>
      <trkpt lat="44.92093" lon="6.62316">
        <ele>1439.2</ele>
        <time>2022-07-14T12:36:02+0200</time>
      </trkpt>
      <trkpt lat="44.92085" lon="6.6232">
        <ele>1439</ele>
        <time>2022-07-14T12:36:04+0200</time>
      </trkpt>
      <trkpt lat="44.92079" lon="6.62321">
        <ele>1438.1</ele>
        <time>2022-07-14T12:36:06+0200</time>
      </trkpt>
      <trkpt lat="44.92074" lon="6.62321">
        <ele>1437.2</ele>
        <time>2022-07-14T12:36:08+0200</time>
      </trkpt>
      <trkpt lat="44.92065" lon="6.62323">
        <ele>1436.2</ele>
        <time>2022-07-14T12:36:10+0200</time>
      </trkpt>
      <trkpt lat="44.92055" lon="6.62328">
        <ele>1435.8</ele>
        <time>2022-07-14T12:36:12+0200</time>
      </trkpt>
      <trkpt lat="44.9205" lon="6.62332">
        <ele>1436.3</ele>
        <time>2022-07-14T12:36:13+0200</time>
      </trkpt>
      <trkpt lat="44.92041" lon="6.62336">
        <ele>1435.6</ele>
        <time>2022-07-14T12:36:15+0200</time>
      </trkpt>
      <trkpt lat="44.92036" lon="6.62339">
        <ele>1435.4</ele>
        <time>2022-07-14T12:36:16+0200</time>
      </trkpt>
      <trkpt lat="44.9203" lon="6.62347">
        <ele>1436.5</ele>
        <time>2022-07-14T12:36:18+0200</time>
      </trkpt>
      <trkpt lat="44.92028" lon="6.62354">
        <ele>1438</ele>
        <time>2022-07-14T12:36:19+0200</time>
      </trkpt>
      <trkpt lat="44.92026" lon="6.62361">
        <ele>1439.3</ele>
        <time>2022-07-14T12:36:20+0200</time>
      </trkpt>
      <trkpt lat="44.92023" lon="6.62366">
        <ele>1439.4</ele>
        <time>2022-07-14T12:36:21+0200</time>
      </trkpt>
      <trkpt lat="44.9202" lon="6.62371">
        <ele>1439.5</ele>
        <time>2022-07-14T12:36:22+0200</time>
      </trkpt>
      <trkpt lat="44.92015" lon="6.62377">
        <ele>1438.9</ele>
        <time>2022-07-14T12:36:24+0200</time>
      </trkpt>
      <trkpt lat="44.92012" lon="6.62387">
        <ele>1439.6</ele>
        <time>2022-07-14T12:36:26+0200</time>
      </trkpt>
      <trkpt lat="44.92009" lon="6.62392">
        <ele>1439.7</ele>
        <time>2022-07-14T12:36:27+0200</time>
      </trkpt>
      <trkpt lat="44.92003" lon="6.624">
        <ele>1439</ele>
        <time>2022-07-14T12:36:29+0200</time>
      </trkpt>
      <trkpt lat="44.91997" lon="6.62405">
        <ele>1437.8</ele>
        <time>2022-07-14T12:36:31+0200</time>
      </trkpt>
      <trkpt lat="44.91995" lon="6.62411">
        <ele>1437.8</ele>
        <time>2022-07-14T12:36:32+0200</time>
      </trkpt>
      <trkpt lat="44.9199" lon="6.62418">
        <ele>1437.3</ele>
        <time>2022-07-14T12:36:33+0200</time>
      </trkpt>
      <trkpt lat="44.91987" lon="6.62426">
        <ele>1437.6</ele>
        <time>2022-07-14T12:36:34+0200</time>
      </trkpt>
      <trkpt lat="44.91983" lon="6.62436">
        <ele>1437.9</ele>
        <time>2022-07-14T12:36:35+0200</time>
      </trkpt>
      <trkpt lat="44.91979" lon="6.62444">
        <ele>1437.7</ele>
        <time>2022-07-14T12:36:36+0200</time>
      </trkpt>
      <trkpt lat="44.91975" lon="6.62452">
        <ele>1437.9</ele>
        <time>2022-07-14T12:36:37+0200</time>
      </trkpt>
      <trkpt lat="44.91968" lon="6.62456">
        <ele>1436.3</ele>
        <time>2022-07-14T12:36:39+0200</time>
      </trkpt>
      <trkpt lat="44.91964" lon="6.6246">
        <ele>1435.7</ele>
        <time>2022-07-14T12:36:39+0200</time>
      </trkpt>
      <trkpt lat="44.91961" lon="6.62465">
        <ele>1436.1</ele>
        <time>2022-07-14T12:36:40+0200</time>
      </trkpt>
      <trkpt lat="44.91957" lon="6.62471">
        <ele>1436.2</ele>
        <time>2022-07-14T12:36:42+0200</time>
      </trkpt>
      <trkpt lat="44.91954" lon="6.62477">
        <ele>1437.2</ele>
        <time>2022-07-14T12:36:44+0200</time>
      </trkpt>
      <trkpt lat="44.91948" lon="6.62477">
        <ele>1435.3</ele>
        <time>2022-07-14T12:36:46+0200</time>
      </trkpt>
      <trkpt lat="44.91942" lon="6.62477">
        <ele>1434</ele>
        <time>2022-07-14T12:36:48+0200</time>
      </trkpt>
      <trkpt lat="44.91938" lon="6.62483">
        <ele>1435</ele>
        <time>2022-07-14T12:36:50+0200</time>
      </trkpt>
      <trkpt lat="44.91929" lon="6.62484">
        <ele>1433.6</ele>
        <time>2022-07-14T12:36:51+0200</time>
      </trkpt>
      <trkpt lat="44.91919" lon="6.62487">
        <ele>1432.5</ele>
        <time>2022-07-14T12:36:52+0200</time>
      </trkpt>
      <trkpt lat="44.91909" lon="6.62493">
        <ele>1432.9</ele>
        <time>2022-07-14T12:36:53+0200</time>
      </trkpt>
      <trkpt lat="44.91901" lon="6.62497">
        <ele>1433</ele>
        <time>2022-07-14T12:36:54+0200</time>
      </trkpt>
      <trkpt lat="44.91892" lon="6.62504">
        <ele>1433.4</ele>
        <time>2022-07-14T12:36:56+0200</time>
      </trkpt>
      <trkpt lat="44.91887" lon="6.62511">
        <ele>1433.9</ele>
        <time>2022-07-14T12:36:58+0200</time>
      </trkpt>
      <trkpt lat="44.91882" lon="6.62521">
        <ele>1434.9</ele>
        <time>2022-07-14T12:37:00+0200</time>
      </trkpt>
      <trkpt lat="44.91878" lon="6.62529">
        <ele>1435.5</ele>
        <time>2022-07-14T12:37:01+0200</time>
      </trkpt>
      <trkpt lat="44.91875" lon="6.62538">
        <ele>1436.1</ele>
        <time>2022-07-14T12:37:02+0200</time>
      </trkpt>
      <trkpt lat="44.91871" lon="6.62543">
        <ele>1435.9</ele>
        <time>2022-07-14T12:37:03+0200</time>
      </trkpt>
      <trkpt lat="44.91867" lon="6.62548">
        <ele>1435.7</ele>
        <time>2022-07-14T12:37:04+0200</time>
      </trkpt>
      <trkpt lat="44.91862" lon="6.62553">
        <ele>1435</ele>
        <time>2022-07-14T12:37:05+0200</time>
      </trkpt>
      <trkpt lat="44.91858" lon="6.62558">
        <ele>1434.3</ele>
        <time>2022-07-14T12:37:06+0200</time>
      </trkpt>
      <trkpt lat="44.91854" lon="6.62565">
        <ele>1433.5</ele>
        <time>2022-07-14T12:37:07+0200</time>
      </trkpt>
      <trkpt lat="44.91851" lon="6.62575">
        <ele>1433.7</ele>
        <time>2022-07-14T12:37:08+0200</time>
      </trkpt>
      <trkpt lat="44.91849" lon="6.62586">
        <ele>1433.7</ele>
        <time>2022-07-14T12:37:09+0200</time>
      </trkpt>
      <trkpt lat="44.91847" lon="6.62596">
        <ele>1433.7</ele>
        <time>2022-07-14T12:37:10+0200</time>
      </trkpt>
      <trkpt lat="44.91846" lon="6.62606">
        <ele>1433.6</ele>
        <time>2022-07-14T12:37:11+0200</time>
      </trkpt>
      <trkpt lat="44.91843" lon="6.62614">
        <ele>1433</ele>
        <time>2022-07-14T12:37:12+0200</time>
      </trkpt>
      <trkpt lat="44.9184" lon="6.6262">
        <ele>1432.4</ele>
        <time>2022-07-14T12:37:13+0200</time>
      </trkpt>
      <trkpt lat="44.91836" lon="6.62623">
        <ele>1430.8</ele>
        <time>2022-07-14T12:37:16+0200</time>
      </trkpt>
      <trkpt lat="44.91833" lon="6.62627">
        <ele>1429.9</ele>
        <time>2022-07-14T12:37:18+0200</time>
      </trkpt>
      <trkpt lat="44.9183" lon="6.62634">
        <ele>1429.3</ele>
        <time>2022-07-14T12:37:20+0200</time>
      </trkpt>
      <trkpt lat="44.91827" lon="6.62641">
        <ele>1428.9</ele>
        <time>2022-07-14T12:37:22+0200</time>
      </trkpt>
      <trkpt lat="44.91825" lon="6.62647">
        <ele>1428.3</ele>
        <time>2022-07-14T12:37:24+0200</time>
      </trkpt>
      <trkpt lat="44.91819" lon="6.62654">
        <ele>1426.6</ele>
        <time>2022-07-14T12:37:26+0200</time>
      </trkpt>
      <trkpt lat="44.91815" lon="6.62659">
        <ele>1425.3</ele>
        <time>2022-07-14T12:37:28+0200</time>
      </trkpt>
      <trkpt lat="44.9181" lon="6.62667">
        <ele>1423.8</ele>
        <time>2022-07-14T12:37:30+0200</time>
      </trkpt>
      <trkpt lat="44.91808" lon="6.62673">
        <ele>1423.4</ele>
        <time>2022-07-14T12:37:32+0200</time>
      </trkpt>
      <trkpt lat="44.91804" lon="6.6268">
        <ele>1422.3</ele>
        <time>2022-07-14T12:37:34+0200</time>
      </trkpt>
      <trkpt lat="44.918" lon="6.62685">
        <ele>1421</ele>
        <time>2022-07-14T12:37:36+0200</time>
      </trkpt>
      <trkpt lat="44.91794" lon="6.62689">
        <ele>1419.2</ele>
        <time>2022-07-14T12:37:38+0200</time>
      </trkpt>
      <trkpt lat="44.91789" lon="6.62694">
        <ele>1417.5</ele>
        <time>2022-07-14T12:37:40+0200</time>
      </trkpt>
      <trkpt lat="44.91784" lon="6.627">
        <ele>1416</ele>
        <time>2022-07-14T12:37:43+0200</time>
      </trkpt>
      <trkpt lat="44.91781" lon="6.62705">
        <ele>1414.8</ele>
        <time>2022-07-14T12:37:44+0200</time>
      </trkpt>
      <trkpt lat="44.91776" lon="6.62714">
        <ele>1413.7</ele>
        <time>2022-07-14T12:37:46+0200</time>
      </trkpt>
      <trkpt lat="44.91768" lon="6.62719">
        <ele>1411.5</ele>
        <time>2022-07-14T12:37:48+0200</time>
      </trkpt>
      <trkpt lat="44.91763" lon="6.62722">
        <ele>1410.2</ele>
        <time>2022-07-14T12:37:49+0200</time>
      </trkpt>
      <trkpt lat="44.91755" lon="6.62721">
        <ele>1407.4</ele>
        <time>2022-07-14T12:37:51+0200</time>
      </trkpt>
      <trkpt lat="44.91754" lon="6.62713">
        <ele>1406.5</ele>
        <time>2022-07-14T12:37:54+0200</time>
      </trkpt>
      <trkpt lat="44.9176" lon="6.62704">
        <ele>1407.8</ele>
        <time>2022-07-14T12:37:56+0200</time>
      </trkpt>
      <trkpt lat="44.91756" lon="6.62697">
        <ele>1406.1</ele>
        <time>2022-07-14T12:37:58+0200</time>
      </trkpt>
      <trkpt lat="44.91755" lon="6.62686">
        <ele>1405.3</ele>
        <time>2022-07-14T12:37:59+0200</time>
      </trkpt>
      <trkpt lat="44.91754" lon="6.62676">
        <ele>1404.6</ele>
        <time>2022-07-14T12:38:00+0200</time>
      </trkpt>
      <trkpt lat="44.91752" lon="6.62667">
        <ele>1403.6</ele>
        <time>2022-07-14T12:38:01+0200</time>
      </trkpt>
      <trkpt lat="44.91736" lon="6.62666">
        <ele>1398.9</ele>
        <time>2022-07-14T12:38:04+0200</time>
      </trkpt>
      <trkpt lat="44.91727" lon="6.62681">
        <ele>1397.2</ele>
        <time>2022-07-14T12:38:05+0200</time>
      </trkpt>
      <trkpt lat="44.91718" lon="6.62693">
        <ele>1396.1</ele>
        <time>2022-07-14T12:38:06+0200</time>
      </trkpt>
      <trkpt lat="44.91715" lon="6.62704">
        <ele>1396.5</ele>
        <time>2022-07-14T12:38:07+0200</time>
      </trkpt>
      <trkpt lat="44.9171" lon="6.62706">
        <ele>1395.7</ele>
        <time>2022-07-14T12:38:08+0200</time>
      </trkpt>
      <trkpt lat="44.91703" lon="6.62699">
        <ele>1393.5</ele>
        <time>2022-07-14T12:38:09+0200</time>
      </trkpt>
      <trkpt lat="44.917" lon="6.62689">
        <ele>1391.6</ele>
        <time>2022-07-14T12:38:10+0200</time>
      </trkpt>
      <trkpt lat="44.91702" lon="6.62679">
        <ele>1391.1</ele>
        <time>2022-07-14T12:38:11+0200</time>
      </trkpt>
      <trkpt lat="44.91704" lon="6.62668">
        <ele>1390.5</ele>
        <time>2022-07-14T12:38:12+0200</time>
      </trkpt>
      <trkpt lat="44.91705" lon="6.62657">
        <ele>1389.9</ele>
        <time>2022-07-14T12:38:13+0200</time>
      </trkpt>
      <trkpt lat="44.91701" lon="6.62647">
        <ele>1388.2</ele>
        <time>2022-07-14T12:38:14+0200</time>
      </trkpt>
      <trkpt lat="44.91693" lon="6.62643">
        <ele>1385.8</ele>
        <time>2022-07-14T12:38:15+0200</time>
      </trkpt>
      <trkpt lat="44.91685" lon="6.62647">
        <ele>1384.3</ele>
        <time>2022-07-14T12:38:16+0200</time>
      </trkpt>
      <trkpt lat="44.91679" lon="6.62655">
        <ele>1383.6</ele>
        <time>2022-07-14T12:38:17+0200</time>
      </trkpt>
      <trkpt lat="44.91673" lon="6.62661">
        <ele>1382.8</ele>
        <time>2022-07-14T12:38:18+0200</time>
      </trkpt>
      <trkpt lat="44.91666" lon="6.62666">
        <ele>1381.9</ele>
        <time>2022-07-14T12:38:19+0200</time>
      </trkpt>
      <trkpt lat="44.91659" lon="6.62663">
        <ele>1380</ele>
        <time>2022-07-14T12:38:20+0200</time>
      </trkpt>
      <trkpt lat="44.91656" lon="6.62654">
        <ele>1378.5</ele>
        <time>2022-07-14T12:38:21+0200</time>
      </trkpt>
      <trkpt lat="44.91657" lon="6.62643">
        <ele>1377.6</ele>
        <time>2022-07-14T12:38:22+0200</time>
      </trkpt>
      <trkpt lat="44.91658" lon="6.62633">
        <ele>1377</ele>
        <time>2022-07-14T12:38:23+0200</time>
      </trkpt>
      <trkpt lat="44.91659" lon="6.6262">
        <ele>1376.3</ele>
        <time>2022-07-14T12:38:24+0200</time>
      </trkpt>
      <trkpt lat="44.91662" lon="6.62607">
        <ele>1375.8</ele>
        <time>2022-07-14T12:38:25+0200</time>
      </trkpt>
      <trkpt lat="44.91665" lon="6.62595">
        <ele>1375.6</ele>
        <time>2022-07-14T12:38:26+0200</time>
      </trkpt>
      <trkpt lat="44.91664" lon="6.62585">
        <ele>1374.6</ele>
        <time>2022-07-14T12:38:27+0200</time>
      </trkpt>
      <trkpt lat="44.9166" lon="6.6258">
        <ele>1373.5</ele>
        <time>2022-07-14T12:38:28+0200</time>
      </trkpt>
      <trkpt lat="44.9165" lon="6.62583">
        <ele>1372</ele>
        <time>2022-07-14T12:38:29+0200</time>
      </trkpt>
      <trkpt lat="44.91643" lon="6.62589">
        <ele>1371.1</ele>
        <time>2022-07-14T12:38:30+0200</time>
      </trkpt>
      <trkpt lat="44.91637" lon="6.62594">
        <ele>1370.4</ele>
        <time>2022-07-14T12:38:31+0200</time>
      </trkpt>
      <trkpt lat="44.91628" lon="6.62592">
        <ele>1368.5</ele>
        <time>2022-07-14T12:38:32+0200</time>
      </trkpt>
      <trkpt lat="44.91618" lon="6.62597">
        <ele>1366.9</ele>
        <time>2022-07-14T12:38:33+0200</time>
      </trkpt>
      <trkpt lat="44.91613" lon="6.626">
        <ele>1366</ele>
        <time>2022-07-14T12:38:34+0200</time>
      </trkpt>
      <trkpt lat="44.91606" lon="6.62603">
        <ele>1364.8</ele>
        <time>2022-07-14T12:38:35+0200</time>
      </trkpt>
      <trkpt lat="44.916" lon="6.62607">
        <ele>1363.8</ele>
        <time>2022-07-14T12:38:36+0200</time>
      </trkpt>
      <trkpt lat="44.91593" lon="6.62608">
        <ele>1362.6</ele>
        <time>2022-07-14T12:38:37+0200</time>
      </trkpt>
      <trkpt lat="44.91585" lon="6.62602">
        <ele>1361</ele>
        <time>2022-07-14T12:38:38+0200</time>
      </trkpt>
      <trkpt lat="44.9159" lon="6.62584">
        <ele>1361.3</ele>
        <time>2022-07-14T12:38:39+0200</time>
      </trkpt>
      <trkpt lat="44.91594" lon="6.62572">
        <ele>1361.4</ele>
        <time>2022-07-14T12:38:40+0200</time>
      </trkpt>
      <trkpt lat="44.91597" lon="6.62565">
        <ele>1361.4</ele>
        <time>2022-07-14T12:38:41+0200</time>
      </trkpt>
      <trkpt lat="44.91598" lon="6.62555">
        <ele>1361.1</ele>
        <time>2022-07-14T12:38:43+0200</time>
      </trkpt>
      <trkpt lat="44.91598" lon="6.62546">
        <ele>1360.4</ele>
        <time>2022-07-14T12:38:44+0200</time>
      </trkpt>
      <trkpt lat="44.91597" lon="6.6254">
        <ele>1359.8</ele>
        <time>2022-07-14T12:38:45+0200</time>
      </trkpt>
      <trkpt lat="44.91593" lon="6.62537">
        <ele>1359</ele>
        <time>2022-07-14T12:38:48+0200</time>
      </trkpt>
      <trkpt lat="44.91591" lon="6.6253">
        <ele>1358.2</ele>
        <time>2022-07-14T12:38:50+0200</time>
      </trkpt>
      <trkpt lat="44.91579" lon="6.62532">
        <ele>1356.6</ele>
        <time>2022-07-14T12:38:51+0200</time>
      </trkpt>
      <trkpt lat="44.91576" lon="6.6252">
        <ele>1355.4</ele>
        <time>2022-07-14T12:38:57+0200</time>
      </trkpt>
      <trkpt lat="44.91574" lon="6.62514">
        <ele>1354.7</ele>
        <time>2022-07-14T12:38:59+0200</time>
      </trkpt>
      <trkpt lat="44.91571" lon="6.62506">
        <ele>1353.7</ele>
        <time>2022-07-14T12:39:01+0200</time>
      </trkpt>
      <trkpt lat="44.91571" lon="6.62498">
        <ele>1353</ele>
        <time>2022-07-14T12:39:03+0200</time>
      </trkpt>
      <trkpt lat="44.91569" lon="6.62491">
        <ele>1351.9</ele>
        <time>2022-07-14T12:39:05+0200</time>
      </trkpt>
      <trkpt lat="44.91569" lon="6.62482">
        <ele>1351</ele>
        <time>2022-07-14T12:39:07+0200</time>
      </trkpt>
      <trkpt lat="44.91572" lon="6.62477">
        <ele>1350.9</ele>
        <time>2022-07-14T12:39:12+0200</time>
      </trkpt>
      <trkpt lat="44.91576" lon="6.62472">
        <ele>1351</ele>
        <time>2022-07-14T12:39:15+0200</time>
      </trkpt>
      <trkpt lat="44.9158" lon="6.62469">
        <ele>1351.3</ele>
        <time>2022-07-14T12:39:18+0200</time>
      </trkpt>
      <trkpt lat="44.91586" lon="6.62459">
        <ele>1351.5</ele>
        <time>2022-07-14T12:39:22+0200</time>
      </trkpt>
      <trkpt lat="44.91587" lon="6.62452">
        <ele>1351.3</ele>
        <time>2022-07-14T12:39:30+0200</time>
      </trkpt>
    </trkseg>
  </trk>
</gpx>